<?xml version="1.0" encoding="UTF-8"?>
<gpx version="1.1" creator="https://www.youtrack.es" xsi:schemaLocation="http://www.topografix.com/GPX/1/1 http://www.topografix.com/GPX/1/1/gpx.xsd http://www.garmin.com/xmlschemas/GpxExtensions/v3 http://www.garmin.com/xmlschemas/GpxExtensionsv3.xsd http://www.garmin.com/xmlschemas/TrackPointExtension/v1 http://www.garmin.com/xmlschemas/TrackPointExtensionv1.xsd" xmlns:gpxtpx="http://www.garmin.com/xmlschemas/TrackPointExtension/v1" xmlns:gpxx="http://www.garmin.com/xmlschemas/GpxExtensions/v3" xmlns:xsi="http://www.w3.org/2001/XMLSchema-instance">
  <metadata>
    <link href="https://www.youtrack.es">
      <text>YouTrack.es</text>
    </link>
    <time>2026-05-08T16:16:19Z</time>
  </metadata>
  <trk>
    <src>https://www.youtrack.es</src>
    <link href="https://www.youtrack.es/ruta/9615-salida-bikinera">
      <text>YouTrack.es</text>
    </link>
    <trkseg>
      <trkpt lat="43.538249" lon="-5.905022">
        <ele>65</ele>
        <time>2019-11-24T16:31:35Z</time>
      </trkpt>
      <trkpt lat="43.538216" lon="-5.904999">
        <ele>64.6</ele>
        <time>2019-11-24T16:31:36Z</time>
      </trkpt>
      <trkpt lat="43.538187" lon="-5.904959">
        <ele>64</ele>
        <time>2019-11-24T16:31:37Z</time>
      </trkpt>
      <trkpt lat="43.538138" lon="-5.904943">
        <ele>63.8</ele>
        <time>2019-11-24T16:31:38Z</time>
      </trkpt>
      <trkpt lat="43.538082" lon="-5.904937">
        <ele>63.6</ele>
        <time>2019-11-24T16:31:39Z</time>
      </trkpt>
      <trkpt lat="43.537961" lon="-5.904964">
        <ele>63.4</ele>
        <time>2019-11-24T16:31:40Z</time>
      </trkpt>
      <trkpt lat="43.53793" lon="-5.904972">
        <ele>63.4</ele>
        <time>2019-11-24T16:31:41Z</time>
      </trkpt>
      <trkpt lat="43.537899" lon="-5.90498">
        <ele>63.4</ele>
        <time>2019-11-24T16:31:42Z</time>
      </trkpt>
      <trkpt lat="43.537774" lon="-5.905011">
        <ele>66.2</ele>
        <time>2019-11-24T16:31:44Z</time>
      </trkpt>
      <trkpt lat="43.537712" lon="-5.905027">
        <ele>65</ele>
        <time>2019-11-24T16:31:45Z</time>
      </trkpt>
      <trkpt lat="43.537651" lon="-5.905031">
        <ele>64.6</ele>
        <time>2019-11-24T16:31:46Z</time>
      </trkpt>
      <trkpt lat="43.537597" lon="-5.90501">
        <ele>63.6</ele>
        <time>2019-11-24T16:31:47Z</time>
      </trkpt>
      <trkpt lat="43.537547" lon="-5.90497">
        <ele>64.6</ele>
        <time>2019-11-24T16:31:48Z</time>
      </trkpt>
      <trkpt lat="43.537505" lon="-5.904896">
        <ele>60.2</ele>
        <time>2019-11-24T16:31:49Z</time>
      </trkpt>
      <trkpt lat="43.537474" lon="-5.904815">
        <ele>61.2</ele>
        <time>2019-11-24T16:31:50Z</time>
      </trkpt>
      <trkpt lat="43.53746" lon="-5.904714">
        <ele>62.8</ele>
        <time>2019-11-24T16:31:51Z</time>
      </trkpt>
      <trkpt lat="43.537447" lon="-5.904617">
        <ele>60.2</ele>
        <time>2019-11-24T16:31:52Z</time>
      </trkpt>
      <trkpt lat="43.53744" lon="-5.904517">
        <ele>62.2</ele>
        <time>2019-11-24T16:31:53Z</time>
      </trkpt>
      <trkpt lat="43.537438" lon="-5.90441">
        <ele>60.2</ele>
        <time>2019-11-24T16:31:54Z</time>
      </trkpt>
      <trkpt lat="43.53744" lon="-5.904302">
        <ele>60</ele>
        <time>2019-11-24T16:31:55Z</time>
      </trkpt>
      <trkpt lat="43.537446" lon="-5.904193">
        <ele>60.2</ele>
        <time>2019-11-24T16:31:56Z</time>
      </trkpt>
      <trkpt lat="43.537455" lon="-5.904082">
        <ele>59.6</ele>
        <time>2019-11-24T16:31:57Z</time>
      </trkpt>
      <trkpt lat="43.53747" lon="-5.903974">
        <ele>59</ele>
        <time>2019-11-24T16:31:58Z</time>
      </trkpt>
      <trkpt lat="43.537495" lon="-5.90387">
        <ele>58.2</ele>
        <time>2019-11-24T16:31:59Z</time>
      </trkpt>
      <trkpt lat="43.537526" lon="-5.903772">
        <ele>58</ele>
        <time>2019-11-24T16:32:00Z</time>
      </trkpt>
      <trkpt lat="43.537566" lon="-5.90368">
        <ele>58.2</ele>
        <time>2019-11-24T16:32:01Z</time>
      </trkpt>
      <trkpt lat="43.537616" lon="-5.903595">
        <ele>57.8</ele>
        <time>2019-11-24T16:32:02Z</time>
      </trkpt>
      <trkpt lat="43.537671" lon="-5.903513">
        <ele>57.6</ele>
        <time>2019-11-24T16:32:03Z</time>
      </trkpt>
      <trkpt lat="43.537726" lon="-5.903434">
        <ele>57.2</ele>
        <time>2019-11-24T16:32:04Z</time>
      </trkpt>
      <trkpt lat="43.537777" lon="-5.903362">
        <ele>57.6</ele>
        <time>2019-11-24T16:32:05Z</time>
      </trkpt>
      <trkpt lat="43.537822" lon="-5.903292">
        <ele>57.8</ele>
        <time>2019-11-24T16:32:06Z</time>
      </trkpt>
      <trkpt lat="43.537862" lon="-5.903233">
        <ele>57.8</ele>
        <time>2019-11-24T16:32:07Z</time>
      </trkpt>
      <trkpt lat="43.537892" lon="-5.903176">
        <ele>57.8</ele>
        <time>2019-11-24T16:32:08Z</time>
      </trkpt>
      <trkpt lat="43.537911" lon="-5.90313">
        <ele>58</ele>
        <time>2019-11-24T16:32:09Z</time>
      </trkpt>
      <trkpt lat="43.537927" lon="-5.90311">
        <ele>58</ele>
        <time>2019-11-24T16:32:10Z</time>
      </trkpt>
      <trkpt lat="43.537934" lon="-5.903088">
        <ele>57.8</ele>
        <time>2019-11-24T16:32:11Z</time>
      </trkpt>
      <trkpt lat="43.537935" lon="-5.90308">
        <ele>58</ele>
        <time>2019-11-24T16:32:12Z</time>
      </trkpt>
      <trkpt lat="43.537935" lon="-5.903072">
        <ele>57.8</ele>
        <time>2019-11-24T16:32:13Z</time>
      </trkpt>
      <trkpt lat="43.537935" lon="-5.903065">
        <ele>57.8</ele>
        <time>2019-11-24T16:32:14Z</time>
      </trkpt>
      <trkpt lat="43.537962" lon="-5.902985">
        <ele>56.8</ele>
        <time>2019-11-24T16:32:25Z</time>
      </trkpt>
      <trkpt lat="43.537986" lon="-5.902963">
        <ele>56.6</ele>
        <time>2019-11-24T16:32:26Z</time>
      </trkpt>
      <trkpt lat="43.538012" lon="-5.90293">
        <ele>56.2</ele>
        <time>2019-11-24T16:32:27Z</time>
      </trkpt>
      <trkpt lat="43.538028" lon="-5.902885">
        <ele>56.2</ele>
        <time>2019-11-24T16:32:28Z</time>
      </trkpt>
      <trkpt lat="43.538025" lon="-5.902824">
        <ele>56.2</ele>
        <time>2019-11-24T16:32:29Z</time>
      </trkpt>
      <trkpt lat="43.538" lon="-5.902761">
        <ele>55.6</ele>
        <time>2019-11-24T16:32:30Z</time>
      </trkpt>
      <trkpt lat="43.537966" lon="-5.902697">
        <ele>55.6</ele>
        <time>2019-11-24T16:32:31Z</time>
      </trkpt>
      <trkpt lat="43.537926" lon="-5.902635">
        <ele>55.4</ele>
        <time>2019-11-24T16:32:32Z</time>
      </trkpt>
      <trkpt lat="43.537883" lon="-5.902574">
        <ele>55.8</ele>
        <time>2019-11-24T16:32:33Z</time>
      </trkpt>
      <trkpt lat="43.537836" lon="-5.90251">
        <ele>56</ele>
        <time>2019-11-24T16:32:34Z</time>
      </trkpt>
      <trkpt lat="43.537792" lon="-5.902448">
        <ele>55.8</ele>
        <time>2019-11-24T16:32:35Z</time>
      </trkpt>
      <trkpt lat="43.537756" lon="-5.902381">
        <ele>55.8</ele>
        <time>2019-11-24T16:32:36Z</time>
      </trkpt>
      <trkpt lat="43.537723" lon="-5.902312">
        <ele>55.8</ele>
        <time>2019-11-24T16:32:37Z</time>
      </trkpt>
      <trkpt lat="43.537688" lon="-5.902244">
        <ele>55.8</ele>
        <time>2019-11-24T16:32:38Z</time>
      </trkpt>
      <trkpt lat="43.537651" lon="-5.902176">
        <ele>55.8</ele>
        <time>2019-11-24T16:32:39Z</time>
      </trkpt>
      <trkpt lat="43.537615" lon="-5.902106">
        <ele>55.6</ele>
        <time>2019-11-24T16:32:40Z</time>
      </trkpt>
      <trkpt lat="43.537579" lon="-5.902039">
        <ele>55.8</ele>
        <time>2019-11-24T16:32:41Z</time>
      </trkpt>
      <trkpt lat="43.537542" lon="-5.901972">
        <ele>56.2</ele>
        <time>2019-11-24T16:32:42Z</time>
      </trkpt>
      <trkpt lat="43.537508" lon="-5.901907">
        <ele>56.4</ele>
        <time>2019-11-24T16:32:43Z</time>
      </trkpt>
      <trkpt lat="43.537477" lon="-5.901842">
        <ele>56.2</ele>
        <time>2019-11-24T16:32:44Z</time>
      </trkpt>
      <trkpt lat="43.537446" lon="-5.901779">
        <ele>56</ele>
        <time>2019-11-24T16:32:45Z</time>
      </trkpt>
      <trkpt lat="43.537415" lon="-5.901713">
        <ele>56.2</ele>
        <time>2019-11-24T16:32:46Z</time>
      </trkpt>
      <trkpt lat="43.537381" lon="-5.901648">
        <ele>56.6</ele>
        <time>2019-11-24T16:32:47Z</time>
      </trkpt>
      <trkpt lat="43.537343" lon="-5.901582">
        <ele>56.4</ele>
        <time>2019-11-24T16:32:48Z</time>
      </trkpt>
      <trkpt lat="43.537305" lon="-5.901515">
        <ele>56.2</ele>
        <time>2019-11-24T16:32:49Z</time>
      </trkpt>
      <trkpt lat="43.537266" lon="-5.901444">
        <ele>56</ele>
        <time>2019-11-24T16:32:50Z</time>
      </trkpt>
      <trkpt lat="43.53723" lon="-5.90137">
        <ele>55.8</ele>
        <time>2019-11-24T16:32:51Z</time>
      </trkpt>
      <trkpt lat="43.537194" lon="-5.901296">
        <ele>56.2</ele>
        <time>2019-11-24T16:32:52Z</time>
      </trkpt>
      <trkpt lat="43.537157" lon="-5.901221">
        <ele>56.2</ele>
        <time>2019-11-24T16:32:53Z</time>
      </trkpt>
      <trkpt lat="43.537122" lon="-5.901146">
        <ele>55.8</ele>
        <time>2019-11-24T16:32:54Z</time>
      </trkpt>
      <trkpt lat="43.537088" lon="-5.90107">
        <ele>55.8</ele>
        <time>2019-11-24T16:32:55Z</time>
      </trkpt>
      <trkpt lat="43.537056" lon="-5.900992">
        <ele>56.2</ele>
        <time>2019-11-24T16:32:56Z</time>
      </trkpt>
      <trkpt lat="43.537026" lon="-5.900913">
        <ele>56.6</ele>
        <time>2019-11-24T16:32:57Z</time>
      </trkpt>
      <trkpt lat="43.536996" lon="-5.900833">
        <ele>56.2</ele>
        <time>2019-11-24T16:32:58Z</time>
      </trkpt>
      <trkpt lat="43.536967" lon="-5.900748">
        <ele>56.4</ele>
        <time>2019-11-24T16:32:59Z</time>
      </trkpt>
      <trkpt lat="43.536944" lon="-5.900652">
        <ele>56</ele>
        <time>2019-11-24T16:33:00Z</time>
      </trkpt>
      <trkpt lat="43.536926" lon="-5.900556">
        <ele>56</ele>
        <time>2019-11-24T16:33:01Z</time>
      </trkpt>
      <trkpt lat="43.536906" lon="-5.900463">
        <ele>56.8</ele>
        <time>2019-11-24T16:33:02Z</time>
      </trkpt>
      <trkpt lat="43.536893" lon="-5.900372">
        <ele>57</ele>
        <time>2019-11-24T16:33:03Z</time>
      </trkpt>
      <trkpt lat="43.536879" lon="-5.900282">
        <ele>56.2</ele>
        <time>2019-11-24T16:33:04Z</time>
      </trkpt>
      <trkpt lat="43.536861" lon="-5.900194">
        <ele>56.4</ele>
        <time>2019-11-24T16:33:05Z</time>
      </trkpt>
      <trkpt lat="43.536842" lon="-5.900106">
        <ele>57</ele>
        <time>2019-11-24T16:33:06Z</time>
      </trkpt>
      <trkpt lat="43.536826" lon="-5.90002">
        <ele>56.8</ele>
        <time>2019-11-24T16:33:07Z</time>
      </trkpt>
      <trkpt lat="43.536807" lon="-5.899934">
        <ele>56.2</ele>
        <time>2019-11-24T16:33:08Z</time>
      </trkpt>
      <trkpt lat="43.536787" lon="-5.899846">
        <ele>56.8</ele>
        <time>2019-11-24T16:33:09Z</time>
      </trkpt>
      <trkpt lat="43.536764" lon="-5.899757">
        <ele>56.2</ele>
        <time>2019-11-24T16:33:10Z</time>
      </trkpt>
      <trkpt lat="43.536744" lon="-5.899669">
        <ele>56.8</ele>
        <time>2019-11-24T16:33:11Z</time>
      </trkpt>
      <trkpt lat="43.536727" lon="-5.899581">
        <ele>57</ele>
        <time>2019-11-24T16:33:12Z</time>
      </trkpt>
      <trkpt lat="43.536714" lon="-5.899494">
        <ele>57.8</ele>
        <time>2019-11-24T16:33:13Z</time>
      </trkpt>
      <trkpt lat="43.536703" lon="-5.899407">
        <ele>57.8</ele>
        <time>2019-11-24T16:33:14Z</time>
      </trkpt>
      <trkpt lat="43.536695" lon="-5.899321">
        <ele>58</ele>
        <time>2019-11-24T16:33:15Z</time>
      </trkpt>
      <trkpt lat="43.53669" lon="-5.899237">
        <ele>58</ele>
        <time>2019-11-24T16:33:16Z</time>
      </trkpt>
      <trkpt lat="43.536685" lon="-5.899155">
        <ele>58.8</ele>
        <time>2019-11-24T16:33:17Z</time>
      </trkpt>
      <trkpt lat="43.536681" lon="-5.899076">
        <ele>59.2</ele>
        <time>2019-11-24T16:33:18Z</time>
      </trkpt>
      <trkpt lat="43.536679" lon="-5.898998">
        <ele>59.2</ele>
        <time>2019-11-24T16:33:19Z</time>
      </trkpt>
      <trkpt lat="43.536676" lon="-5.898918">
        <ele>59</ele>
        <time>2019-11-24T16:33:20Z</time>
      </trkpt>
      <trkpt lat="43.536673" lon="-5.898838">
        <ele>59.4</ele>
        <time>2019-11-24T16:33:21Z</time>
      </trkpt>
      <trkpt lat="43.536669" lon="-5.898759">
        <ele>59.4</ele>
        <time>2019-11-24T16:33:22Z</time>
      </trkpt>
      <trkpt lat="43.536667" lon="-5.89868">
        <ele>59.8</ele>
        <time>2019-11-24T16:33:23Z</time>
      </trkpt>
      <trkpt lat="43.536664" lon="-5.898602">
        <ele>60.4</ele>
        <time>2019-11-24T16:33:24Z</time>
      </trkpt>
      <trkpt lat="43.536659" lon="-5.898524">
        <ele>60.6</ele>
        <time>2019-11-24T16:33:25Z</time>
      </trkpt>
      <trkpt lat="43.536653" lon="-5.898446">
        <ele>61</ele>
        <time>2019-11-24T16:33:26Z</time>
      </trkpt>
      <trkpt lat="43.536647" lon="-5.898369">
        <ele>61.4</ele>
        <time>2019-11-24T16:33:27Z</time>
      </trkpt>
      <trkpt lat="43.536641" lon="-5.898291">
        <ele>61.8</ele>
        <time>2019-11-24T16:33:28Z</time>
      </trkpt>
      <trkpt lat="43.536637" lon="-5.898217">
        <ele>62.4</ele>
        <time>2019-11-24T16:33:29Z</time>
      </trkpt>
      <trkpt lat="43.536634" lon="-5.89814">
        <ele>62.6</ele>
        <time>2019-11-24T16:33:30Z</time>
      </trkpt>
      <trkpt lat="43.536632" lon="-5.898063">
        <ele>61.8</ele>
        <time>2019-11-24T16:33:31Z</time>
      </trkpt>
      <trkpt lat="43.53663" lon="-5.897985">
        <ele>62.4</ele>
        <time>2019-11-24T16:33:32Z</time>
      </trkpt>
      <trkpt lat="43.536625" lon="-5.897908">
        <ele>62.6</ele>
        <time>2019-11-24T16:33:33Z</time>
      </trkpt>
      <trkpt lat="43.536619" lon="-5.897833">
        <ele>62.8</ele>
        <time>2019-11-24T16:33:34Z</time>
      </trkpt>
      <trkpt lat="43.53661" lon="-5.897757">
        <ele>63.6</ele>
        <time>2019-11-24T16:33:35Z</time>
      </trkpt>
      <trkpt lat="43.536603" lon="-5.897682">
        <ele>63.4</ele>
        <time>2019-11-24T16:33:36Z</time>
      </trkpt>
      <trkpt lat="43.536594" lon="-5.897605">
        <ele>63.6</ele>
        <time>2019-11-24T16:33:37Z</time>
      </trkpt>
      <trkpt lat="43.536588" lon="-5.897533">
        <ele>64</ele>
        <time>2019-11-24T16:33:38Z</time>
      </trkpt>
      <trkpt lat="43.536582" lon="-5.897458">
        <ele>64.4</ele>
        <time>2019-11-24T16:33:39Z</time>
      </trkpt>
      <trkpt lat="43.536573" lon="-5.89738">
        <ele>64</ele>
        <time>2019-11-24T16:33:40Z</time>
      </trkpt>
      <trkpt lat="43.536567" lon="-5.897305">
        <ele>64.6</ele>
        <time>2019-11-24T16:33:41Z</time>
      </trkpt>
      <trkpt lat="43.53656" lon="-5.897231">
        <ele>65</ele>
        <time>2019-11-24T16:33:42Z</time>
      </trkpt>
      <trkpt lat="43.536554" lon="-5.897157">
        <ele>65</ele>
        <time>2019-11-24T16:33:43Z</time>
      </trkpt>
      <trkpt lat="43.53655" lon="-5.897084">
        <ele>65.8</ele>
        <time>2019-11-24T16:33:44Z</time>
      </trkpt>
      <trkpt lat="43.536541" lon="-5.897011">
        <ele>66</ele>
        <time>2019-11-24T16:33:45Z</time>
      </trkpt>
      <trkpt lat="43.53654" lon="-5.896938">
        <ele>65.4</ele>
        <time>2019-11-24T16:33:46Z</time>
      </trkpt>
      <trkpt lat="43.536534" lon="-5.896868">
        <ele>65.2</ele>
        <time>2019-11-24T16:33:47Z</time>
      </trkpt>
      <trkpt lat="43.53653" lon="-5.896799">
        <ele>66</ele>
        <time>2019-11-24T16:33:48Z</time>
      </trkpt>
      <trkpt lat="43.536524" lon="-5.896729">
        <ele>66.4</ele>
        <time>2019-11-24T16:33:49Z</time>
      </trkpt>
      <trkpt lat="43.53652" lon="-5.896659">
        <ele>66.4</ele>
        <time>2019-11-24T16:33:50Z</time>
      </trkpt>
      <trkpt lat="43.536515" lon="-5.896588">
        <ele>66.6</ele>
        <time>2019-11-24T16:33:51Z</time>
      </trkpt>
      <trkpt lat="43.536507" lon="-5.896519">
        <ele>67</ele>
        <time>2019-11-24T16:33:52Z</time>
      </trkpt>
      <trkpt lat="43.536497" lon="-5.896448">
        <ele>68.2</ele>
        <time>2019-11-24T16:33:53Z</time>
      </trkpt>
      <trkpt lat="43.536492" lon="-5.896377">
        <ele>68</ele>
        <time>2019-11-24T16:33:54Z</time>
      </trkpt>
      <trkpt lat="43.536487" lon="-5.896306">
        <ele>67.8</ele>
        <time>2019-11-24T16:33:55Z</time>
      </trkpt>
      <trkpt lat="43.53648" lon="-5.896237">
        <ele>68.4</ele>
        <time>2019-11-24T16:33:56Z</time>
      </trkpt>
      <trkpt lat="43.536472" lon="-5.896168">
        <ele>68.6</ele>
        <time>2019-11-24T16:33:57Z</time>
      </trkpt>
      <trkpt lat="43.536467" lon="-5.8961">
        <ele>68.6</ele>
        <time>2019-11-24T16:33:58Z</time>
      </trkpt>
      <trkpt lat="43.536457" lon="-5.89603">
        <ele>69.2</ele>
        <time>2019-11-24T16:33:59Z</time>
      </trkpt>
      <trkpt lat="43.53645" lon="-5.895959">
        <ele>69.2</ele>
        <time>2019-11-24T16:34:00Z</time>
      </trkpt>
      <trkpt lat="43.536444" lon="-5.895889">
        <ele>69.4</ele>
        <time>2019-11-24T16:34:01Z</time>
      </trkpt>
      <trkpt lat="43.536438" lon="-5.89582">
        <ele>69.8</ele>
        <time>2019-11-24T16:34:02Z</time>
      </trkpt>
      <trkpt lat="43.536433" lon="-5.895752">
        <ele>70.2</ele>
        <time>2019-11-24T16:34:03Z</time>
      </trkpt>
      <trkpt lat="43.536427" lon="-5.895684">
        <ele>70.2</ele>
        <time>2019-11-24T16:34:04Z</time>
      </trkpt>
      <trkpt lat="43.536421" lon="-5.895616">
        <ele>70.8</ele>
        <time>2019-11-24T16:34:05Z</time>
      </trkpt>
      <trkpt lat="43.536415" lon="-5.895548">
        <ele>71.2</ele>
        <time>2019-11-24T16:34:06Z</time>
      </trkpt>
      <trkpt lat="43.536409" lon="-5.895479">
        <ele>71.2</ele>
        <time>2019-11-24T16:34:07Z</time>
      </trkpt>
      <trkpt lat="43.536402" lon="-5.895411">
        <ele>71</ele>
        <time>2019-11-24T16:34:08Z</time>
      </trkpt>
      <trkpt lat="43.536395" lon="-5.895345">
        <ele>71</ele>
        <time>2019-11-24T16:34:09Z</time>
      </trkpt>
      <trkpt lat="43.536388" lon="-5.895283">
        <ele>71.4</ele>
        <time>2019-11-24T16:34:10Z</time>
      </trkpt>
      <trkpt lat="43.536383" lon="-5.89523">
        <ele>71</ele>
        <time>2019-11-24T16:34:11Z</time>
      </trkpt>
      <trkpt lat="43.536376" lon="-5.895185">
        <ele>71.6</ele>
        <time>2019-11-24T16:34:12Z</time>
      </trkpt>
      <trkpt lat="43.53637" lon="-5.895148">
        <ele>72</ele>
        <time>2019-11-24T16:34:13Z</time>
      </trkpt>
      <trkpt lat="43.536366" lon="-5.895119">
        <ele>72.4</ele>
        <time>2019-11-24T16:34:14Z</time>
      </trkpt>
      <trkpt lat="43.536363" lon="-5.8951">
        <ele>72.4</ele>
        <time>2019-11-24T16:34:15Z</time>
      </trkpt>
      <trkpt lat="43.53636" lon="-5.895083">
        <ele>72.6</ele>
        <time>2019-11-24T16:34:16Z</time>
      </trkpt>
      <trkpt lat="43.536357" lon="-5.895065">
        <ele>72.6</ele>
        <time>2019-11-24T16:34:17Z</time>
      </trkpt>
      <trkpt lat="43.536356" lon="-5.89504">
        <ele>72</ele>
        <time>2019-11-24T16:34:18Z</time>
      </trkpt>
      <trkpt lat="43.536355" lon="-5.895005">
        <ele>72.2</ele>
        <time>2019-11-24T16:34:19Z</time>
      </trkpt>
      <trkpt lat="43.536351" lon="-5.894961">
        <ele>72.8</ele>
        <time>2019-11-24T16:34:20Z</time>
      </trkpt>
      <trkpt lat="43.536347" lon="-5.894911">
        <ele>72.2</ele>
        <time>2019-11-24T16:34:21Z</time>
      </trkpt>
      <trkpt lat="43.536342" lon="-5.894856">
        <ele>72.2</ele>
        <time>2019-11-24T16:34:22Z</time>
      </trkpt>
      <trkpt lat="43.536335" lon="-5.894795">
        <ele>72.8</ele>
        <time>2019-11-24T16:34:23Z</time>
      </trkpt>
      <trkpt lat="43.536329" lon="-5.894733">
        <ele>73</ele>
        <time>2019-11-24T16:34:24Z</time>
      </trkpt>
      <trkpt lat="43.536322" lon="-5.894671">
        <ele>73.2</ele>
        <time>2019-11-24T16:34:25Z</time>
      </trkpt>
      <trkpt lat="43.536315" lon="-5.894607">
        <ele>74</ele>
        <time>2019-11-24T16:34:26Z</time>
      </trkpt>
      <trkpt lat="43.536309" lon="-5.894544">
        <ele>73.8</ele>
        <time>2019-11-24T16:34:27Z</time>
      </trkpt>
      <trkpt lat="43.536303" lon="-5.894482">
        <ele>74</ele>
        <time>2019-11-24T16:34:28Z</time>
      </trkpt>
      <trkpt lat="43.536297" lon="-5.894419">
        <ele>74.6</ele>
        <time>2019-11-24T16:34:29Z</time>
      </trkpt>
      <trkpt lat="43.53629" lon="-5.894355">
        <ele>74.8</ele>
        <time>2019-11-24T16:34:30Z</time>
      </trkpt>
      <trkpt lat="43.536283" lon="-5.894292">
        <ele>74.8</ele>
        <time>2019-11-24T16:34:31Z</time>
      </trkpt>
      <trkpt lat="43.536276" lon="-5.894229">
        <ele>75</ele>
        <time>2019-11-24T16:34:32Z</time>
      </trkpt>
      <trkpt lat="43.536271" lon="-5.894169">
        <ele>75</ele>
        <time>2019-11-24T16:34:33Z</time>
      </trkpt>
      <trkpt lat="43.536267" lon="-5.89411">
        <ele>75.2</ele>
        <time>2019-11-24T16:34:34Z</time>
      </trkpt>
      <trkpt lat="43.536262" lon="-5.89405">
        <ele>75.4</ele>
        <time>2019-11-24T16:34:35Z</time>
      </trkpt>
      <trkpt lat="43.536257" lon="-5.893989">
        <ele>75.6</ele>
        <time>2019-11-24T16:34:36Z</time>
      </trkpt>
      <trkpt lat="43.536252" lon="-5.893929">
        <ele>75</ele>
        <time>2019-11-24T16:34:37Z</time>
      </trkpt>
      <trkpt lat="43.536247" lon="-5.893869">
        <ele>74.8</ele>
        <time>2019-11-24T16:34:38Z</time>
      </trkpt>
      <trkpt lat="43.536242" lon="-5.893809">
        <ele>74.8</ele>
        <time>2019-11-24T16:34:39Z</time>
      </trkpt>
      <trkpt lat="43.536238" lon="-5.893751">
        <ele>75.4</ele>
        <time>2019-11-24T16:34:40Z</time>
      </trkpt>
      <trkpt lat="43.536233" lon="-5.893692">
        <ele>76.2</ele>
        <time>2019-11-24T16:34:41Z</time>
      </trkpt>
      <trkpt lat="43.536229" lon="-5.893631">
        <ele>76.6</ele>
        <time>2019-11-24T16:34:42Z</time>
      </trkpt>
      <trkpt lat="43.536224" lon="-5.89357">
        <ele>76.4</ele>
        <time>2019-11-24T16:34:43Z</time>
      </trkpt>
      <trkpt lat="43.53622" lon="-5.893509">
        <ele>76.6</ele>
        <time>2019-11-24T16:34:44Z</time>
      </trkpt>
      <trkpt lat="43.536216" lon="-5.893447">
        <ele>77.2</ele>
        <time>2019-11-24T16:34:45Z</time>
      </trkpt>
      <trkpt lat="43.53621" lon="-5.893384">
        <ele>77.6</ele>
        <time>2019-11-24T16:34:46Z</time>
      </trkpt>
      <trkpt lat="43.536205" lon="-5.893323">
        <ele>78</ele>
        <time>2019-11-24T16:34:47Z</time>
      </trkpt>
      <trkpt lat="43.5362" lon="-5.893262">
        <ele>78</ele>
        <time>2019-11-24T16:34:48Z</time>
      </trkpt>
      <trkpt lat="43.536196" lon="-5.893201">
        <ele>78.2</ele>
        <time>2019-11-24T16:34:49Z</time>
      </trkpt>
      <trkpt lat="43.536191" lon="-5.893138">
        <ele>78.2</ele>
        <time>2019-11-24T16:34:50Z</time>
      </trkpt>
      <trkpt lat="43.536186" lon="-5.893076">
        <ele>78.6</ele>
        <time>2019-11-24T16:34:51Z</time>
      </trkpt>
      <trkpt lat="43.536181" lon="-5.893015">
        <ele>78.6</ele>
        <time>2019-11-24T16:34:52Z</time>
      </trkpt>
      <trkpt lat="43.536176" lon="-5.892953">
        <ele>78.8</ele>
        <time>2019-11-24T16:34:53Z</time>
      </trkpt>
      <trkpt lat="43.53617" lon="-5.89289">
        <ele>78.4</ele>
        <time>2019-11-24T16:34:54Z</time>
      </trkpt>
      <trkpt lat="43.536165" lon="-5.892829">
        <ele>78.4</ele>
        <time>2019-11-24T16:34:55Z</time>
      </trkpt>
      <trkpt lat="43.536159" lon="-5.892767">
        <ele>78.8</ele>
        <time>2019-11-24T16:34:56Z</time>
      </trkpt>
      <trkpt lat="43.536154" lon="-5.892706">
        <ele>80</ele>
        <time>2019-11-24T16:34:57Z</time>
      </trkpt>
      <trkpt lat="43.536149" lon="-5.892646">
        <ele>80.2</ele>
        <time>2019-11-24T16:34:58Z</time>
      </trkpt>
      <trkpt lat="43.536145" lon="-5.892586">
        <ele>80.2</ele>
        <time>2019-11-24T16:34:59Z</time>
      </trkpt>
      <trkpt lat="43.536141" lon="-5.892526">
        <ele>80.4</ele>
        <time>2019-11-24T16:35:00Z</time>
      </trkpt>
      <trkpt lat="43.536136" lon="-5.892467">
        <ele>80.6</ele>
        <time>2019-11-24T16:35:01Z</time>
      </trkpt>
      <trkpt lat="43.536131" lon="-5.892406">
        <ele>80.4</ele>
        <time>2019-11-24T16:35:02Z</time>
      </trkpt>
      <trkpt lat="43.536125" lon="-5.892345">
        <ele>80.6</ele>
        <time>2019-11-24T16:35:03Z</time>
      </trkpt>
      <trkpt lat="43.536119" lon="-5.892284">
        <ele>81.2</ele>
        <time>2019-11-24T16:35:04Z</time>
      </trkpt>
      <trkpt lat="43.536113" lon="-5.892224">
        <ele>81.4</ele>
        <time>2019-11-24T16:35:05Z</time>
      </trkpt>
      <trkpt lat="43.536107" lon="-5.892162">
        <ele>82</ele>
        <time>2019-11-24T16:35:06Z</time>
      </trkpt>
      <trkpt lat="43.536103" lon="-5.8921">
        <ele>81.6</ele>
        <time>2019-11-24T16:35:07Z</time>
      </trkpt>
      <trkpt lat="43.536098" lon="-5.892037">
        <ele>82.4</ele>
        <time>2019-11-24T16:35:08Z</time>
      </trkpt>
      <trkpt lat="43.536092" lon="-5.891974">
        <ele>82.2</ele>
        <time>2019-11-24T16:35:09Z</time>
      </trkpt>
      <trkpt lat="43.536084" lon="-5.891909">
        <ele>82</ele>
        <time>2019-11-24T16:35:10Z</time>
      </trkpt>
      <trkpt lat="43.536078" lon="-5.891844">
        <ele>82.4</ele>
        <time>2019-11-24T16:35:11Z</time>
      </trkpt>
      <trkpt lat="43.536071" lon="-5.891775">
        <ele>82.2</ele>
        <time>2019-11-24T16:35:12Z</time>
      </trkpt>
      <trkpt lat="43.536065" lon="-5.89171">
        <ele>83</ele>
        <time>2019-11-24T16:35:13Z</time>
      </trkpt>
      <trkpt lat="43.536059" lon="-5.891645">
        <ele>83</ele>
        <time>2019-11-24T16:35:14Z</time>
      </trkpt>
      <trkpt lat="43.536053" lon="-5.891579">
        <ele>83.6</ele>
        <time>2019-11-24T16:35:15Z</time>
      </trkpt>
      <trkpt lat="43.536047" lon="-5.891513">
        <ele>84.2</ele>
        <time>2019-11-24T16:35:16Z</time>
      </trkpt>
      <trkpt lat="43.53604" lon="-5.891447">
        <ele>84.2</ele>
        <time>2019-11-24T16:35:17Z</time>
      </trkpt>
      <trkpt lat="43.536034" lon="-5.891382">
        <ele>84.4</ele>
        <time>2019-11-24T16:35:18Z</time>
      </trkpt>
      <trkpt lat="43.536029" lon="-5.891316">
        <ele>84.2</ele>
        <time>2019-11-24T16:35:19Z</time>
      </trkpt>
      <trkpt lat="43.536023" lon="-5.891253">
        <ele>84.2</ele>
        <time>2019-11-24T16:35:20Z</time>
      </trkpt>
      <trkpt lat="43.536016" lon="-5.891189">
        <ele>84.8</ele>
        <time>2019-11-24T16:35:21Z</time>
      </trkpt>
      <trkpt lat="43.536009" lon="-5.891126">
        <ele>85</ele>
        <time>2019-11-24T16:35:22Z</time>
      </trkpt>
      <trkpt lat="43.536001" lon="-5.891062">
        <ele>85.2</ele>
        <time>2019-11-24T16:35:23Z</time>
      </trkpt>
      <trkpt lat="43.535992" lon="-5.891">
        <ele>85.2</ele>
        <time>2019-11-24T16:35:24Z</time>
      </trkpt>
      <trkpt lat="43.535983" lon="-5.890938">
        <ele>85.6</ele>
        <time>2019-11-24T16:35:25Z</time>
      </trkpt>
      <trkpt lat="43.535974" lon="-5.890875">
        <ele>85.6</ele>
        <time>2019-11-24T16:35:26Z</time>
      </trkpt>
      <trkpt lat="43.535964" lon="-5.890813">
        <ele>85.6</ele>
        <time>2019-11-24T16:35:27Z</time>
      </trkpt>
      <trkpt lat="43.535952" lon="-5.890751">
        <ele>85.8</ele>
        <time>2019-11-24T16:35:28Z</time>
      </trkpt>
      <trkpt lat="43.535941" lon="-5.89069">
        <ele>86.2</ele>
        <time>2019-11-24T16:35:29Z</time>
      </trkpt>
      <trkpt lat="43.53593" lon="-5.890629">
        <ele>86.4</ele>
        <time>2019-11-24T16:35:30Z</time>
      </trkpt>
      <trkpt lat="43.535917" lon="-5.890568">
        <ele>86.6</ele>
        <time>2019-11-24T16:35:31Z</time>
      </trkpt>
      <trkpt lat="43.535904" lon="-5.890505">
        <ele>86.6</ele>
        <time>2019-11-24T16:35:32Z</time>
      </trkpt>
      <trkpt lat="43.53589" lon="-5.890443">
        <ele>86.8</ele>
        <time>2019-11-24T16:35:33Z</time>
      </trkpt>
      <trkpt lat="43.535874" lon="-5.890384">
        <ele>87</ele>
        <time>2019-11-24T16:35:34Z</time>
      </trkpt>
      <trkpt lat="43.535855" lon="-5.890326">
        <ele>87.4</ele>
        <time>2019-11-24T16:35:35Z</time>
      </trkpt>
      <trkpt lat="43.535835" lon="-5.890267">
        <ele>87.6</ele>
        <time>2019-11-24T16:35:36Z</time>
      </trkpt>
      <trkpt lat="43.535812" lon="-5.890207">
        <ele>87.6</ele>
        <time>2019-11-24T16:35:37Z</time>
      </trkpt>
      <trkpt lat="43.535787" lon="-5.890145">
        <ele>87.4</ele>
        <time>2019-11-24T16:35:38Z</time>
      </trkpt>
      <trkpt lat="43.535758" lon="-5.890082">
        <ele>87.2</ele>
        <time>2019-11-24T16:35:39Z</time>
      </trkpt>
      <trkpt lat="43.535724" lon="-5.890018">
        <ele>86.6</ele>
        <time>2019-11-24T16:35:40Z</time>
      </trkpt>
      <trkpt lat="43.535684" lon="-5.88996">
        <ele>86.6</ele>
        <time>2019-11-24T16:35:41Z</time>
      </trkpt>
      <trkpt lat="43.535639" lon="-5.889904">
        <ele>86.6</ele>
        <time>2019-11-24T16:35:42Z</time>
      </trkpt>
      <trkpt lat="43.535593" lon="-5.88985">
        <ele>86.6</ele>
        <time>2019-11-24T16:35:43Z</time>
      </trkpt>
      <trkpt lat="43.535545" lon="-5.889795">
        <ele>86.6</ele>
        <time>2019-11-24T16:35:44Z</time>
      </trkpt>
      <trkpt lat="43.535497" lon="-5.889741">
        <ele>86.4</ele>
        <time>2019-11-24T16:35:45Z</time>
      </trkpt>
      <trkpt lat="43.535448" lon="-5.889685">
        <ele>86.4</ele>
        <time>2019-11-24T16:35:46Z</time>
      </trkpt>
      <trkpt lat="43.535399" lon="-5.889627">
        <ele>86.2</ele>
        <time>2019-11-24T16:35:47Z</time>
      </trkpt>
      <trkpt lat="43.53535" lon="-5.889566">
        <ele>86.6</ele>
        <time>2019-11-24T16:35:48Z</time>
      </trkpt>
      <trkpt lat="43.535305" lon="-5.889501">
        <ele>87.4</ele>
        <time>2019-11-24T16:35:49Z</time>
      </trkpt>
      <trkpt lat="43.535263" lon="-5.889432">
        <ele>86.4</ele>
        <time>2019-11-24T16:35:50Z</time>
      </trkpt>
      <trkpt lat="43.535223" lon="-5.889359">
        <ele>86.4</ele>
        <time>2019-11-24T16:35:51Z</time>
      </trkpt>
      <trkpt lat="43.535185" lon="-5.889283">
        <ele>85.8</ele>
        <time>2019-11-24T16:35:52Z</time>
      </trkpt>
      <trkpt lat="43.53515" lon="-5.889204">
        <ele>86</ele>
        <time>2019-11-24T16:35:53Z</time>
      </trkpt>
      <trkpt lat="43.535117" lon="-5.889121">
        <ele>86.2</ele>
        <time>2019-11-24T16:35:54Z</time>
      </trkpt>
      <trkpt lat="43.535088" lon="-5.889035">
        <ele>86</ele>
        <time>2019-11-24T16:35:55Z</time>
      </trkpt>
      <trkpt lat="43.535065" lon="-5.888945">
        <ele>86.4</ele>
        <time>2019-11-24T16:35:56Z</time>
      </trkpt>
      <trkpt lat="43.535046" lon="-5.888851">
        <ele>86.2</ele>
        <time>2019-11-24T16:35:57Z</time>
      </trkpt>
      <trkpt lat="43.535031" lon="-5.888755">
        <ele>85.2</ele>
        <time>2019-11-24T16:35:58Z</time>
      </trkpt>
      <trkpt lat="43.53502" lon="-5.888655">
        <ele>84.4</ele>
        <time>2019-11-24T16:35:59Z</time>
      </trkpt>
      <trkpt lat="43.535012" lon="-5.888553">
        <ele>84.8</ele>
        <time>2019-11-24T16:36:00Z</time>
      </trkpt>
      <trkpt lat="43.535006" lon="-5.888451">
        <ele>85</ele>
        <time>2019-11-24T16:36:01Z</time>
      </trkpt>
      <trkpt lat="43.535" lon="-5.888347">
        <ele>84.8</ele>
        <time>2019-11-24T16:36:02Z</time>
      </trkpt>
      <trkpt lat="43.534995" lon="-5.888243">
        <ele>84.8</ele>
        <time>2019-11-24T16:36:03Z</time>
      </trkpt>
      <trkpt lat="43.534989" lon="-5.88814">
        <ele>84.4</ele>
        <time>2019-11-24T16:36:04Z</time>
      </trkpt>
      <trkpt lat="43.534983" lon="-5.888036">
        <ele>84</ele>
        <time>2019-11-24T16:36:05Z</time>
      </trkpt>
      <trkpt lat="43.534977" lon="-5.887933">
        <ele>84.8</ele>
        <time>2019-11-24T16:36:06Z</time>
      </trkpt>
      <trkpt lat="43.534971" lon="-5.887829">
        <ele>84.6</ele>
        <time>2019-11-24T16:36:07Z</time>
      </trkpt>
      <trkpt lat="43.534963" lon="-5.887726">
        <ele>84.4</ele>
        <time>2019-11-24T16:36:08Z</time>
      </trkpt>
      <trkpt lat="43.534954" lon="-5.887623">
        <ele>83.4</ele>
        <time>2019-11-24T16:36:09Z</time>
      </trkpt>
      <trkpt lat="43.534945" lon="-5.88752">
        <ele>83.6</ele>
        <time>2019-11-24T16:36:10Z</time>
      </trkpt>
      <trkpt lat="43.534935" lon="-5.887418">
        <ele>84.2</ele>
        <time>2019-11-24T16:36:11Z</time>
      </trkpt>
      <trkpt lat="43.534925" lon="-5.887315">
        <ele>83.6</ele>
        <time>2019-11-24T16:36:12Z</time>
      </trkpt>
      <trkpt lat="43.534914" lon="-5.887213">
        <ele>84.4</ele>
        <time>2019-11-24T16:36:13Z</time>
      </trkpt>
      <trkpt lat="43.534902" lon="-5.887111">
        <ele>83.6</ele>
        <time>2019-11-24T16:36:14Z</time>
      </trkpt>
      <trkpt lat="43.53489" lon="-5.887009">
        <ele>84.2</ele>
        <time>2019-11-24T16:36:15Z</time>
      </trkpt>
      <trkpt lat="43.534877" lon="-5.886906">
        <ele>84</ele>
        <time>2019-11-24T16:36:16Z</time>
      </trkpt>
      <trkpt lat="43.534863" lon="-5.886804">
        <ele>84.2</ele>
        <time>2019-11-24T16:36:17Z</time>
      </trkpt>
      <trkpt lat="43.534848" lon="-5.886703">
        <ele>83</ele>
        <time>2019-11-24T16:36:18Z</time>
      </trkpt>
      <trkpt lat="43.534831" lon="-5.886602">
        <ele>83</ele>
        <time>2019-11-24T16:36:19Z</time>
      </trkpt>
      <trkpt lat="43.534811" lon="-5.886503">
        <ele>83</ele>
        <time>2019-11-24T16:36:20Z</time>
      </trkpt>
      <trkpt lat="43.534788" lon="-5.886404">
        <ele>82.6</ele>
        <time>2019-11-24T16:36:21Z</time>
      </trkpt>
      <trkpt lat="43.534763" lon="-5.886307">
        <ele>83</ele>
        <time>2019-11-24T16:36:22Z</time>
      </trkpt>
      <trkpt lat="43.534734" lon="-5.88621">
        <ele>83.2</ele>
        <time>2019-11-24T16:36:23Z</time>
      </trkpt>
      <trkpt lat="43.534701" lon="-5.886116">
        <ele>83</ele>
        <time>2019-11-24T16:36:24Z</time>
      </trkpt>
      <trkpt lat="43.534664" lon="-5.886023">
        <ele>81.6</ele>
        <time>2019-11-24T16:36:25Z</time>
      </trkpt>
      <trkpt lat="43.534623" lon="-5.885932">
        <ele>82.2</ele>
        <time>2019-11-24T16:36:26Z</time>
      </trkpt>
      <trkpt lat="43.534576" lon="-5.885844">
        <ele>81.4</ele>
        <time>2019-11-24T16:36:27Z</time>
      </trkpt>
      <trkpt lat="43.534524" lon="-5.885761">
        <ele>81.4</ele>
        <time>2019-11-24T16:36:28Z</time>
      </trkpt>
      <trkpt lat="43.534467" lon="-5.885681">
        <ele>80.6</ele>
        <time>2019-11-24T16:36:29Z</time>
      </trkpt>
      <trkpt lat="43.534406" lon="-5.885606">
        <ele>80</ele>
        <time>2019-11-24T16:36:30Z</time>
      </trkpt>
      <trkpt lat="43.534339" lon="-5.885536">
        <ele>79.2</ele>
        <time>2019-11-24T16:36:31Z</time>
      </trkpt>
      <trkpt lat="43.534267" lon="-5.885474">
        <ele>79.4</ele>
        <time>2019-11-24T16:36:32Z</time>
      </trkpt>
      <trkpt lat="43.534189" lon="-5.885423">
        <ele>79</ele>
        <time>2019-11-24T16:36:33Z</time>
      </trkpt>
      <trkpt lat="43.534106" lon="-5.885386">
        <ele>78.6</ele>
        <time>2019-11-24T16:36:34Z</time>
      </trkpt>
      <trkpt lat="43.534019" lon="-5.885365">
        <ele>78.8</ele>
        <time>2019-11-24T16:36:35Z</time>
      </trkpt>
      <trkpt lat="43.533929" lon="-5.885364">
        <ele>77.4</ele>
        <time>2019-11-24T16:36:36Z</time>
      </trkpt>
      <trkpt lat="43.53384" lon="-5.885381">
        <ele>77.4</ele>
        <time>2019-11-24T16:36:37Z</time>
      </trkpt>
      <trkpt lat="43.533751" lon="-5.885414">
        <ele>77.8</ele>
        <time>2019-11-24T16:36:38Z</time>
      </trkpt>
      <trkpt lat="43.533664" lon="-5.885458">
        <ele>76.6</ele>
        <time>2019-11-24T16:36:39Z</time>
      </trkpt>
      <trkpt lat="43.533577" lon="-5.885508">
        <ele>76.6</ele>
        <time>2019-11-24T16:36:40Z</time>
      </trkpt>
      <trkpt lat="43.53349" lon="-5.885561">
        <ele>76.2</ele>
        <time>2019-11-24T16:36:41Z</time>
      </trkpt>
      <trkpt lat="43.533402" lon="-5.885614">
        <ele>76.4</ele>
        <time>2019-11-24T16:36:42Z</time>
      </trkpt>
      <trkpt lat="43.533313" lon="-5.885668">
        <ele>76.2</ele>
        <time>2019-11-24T16:36:43Z</time>
      </trkpt>
      <trkpt lat="43.533224" lon="-5.88572">
        <ele>75.4</ele>
        <time>2019-11-24T16:36:44Z</time>
      </trkpt>
      <trkpt lat="43.533132" lon="-5.885766">
        <ele>75.2</ele>
        <time>2019-11-24T16:36:45Z</time>
      </trkpt>
      <trkpt lat="43.533037" lon="-5.885796">
        <ele>74.4</ele>
        <time>2019-11-24T16:36:46Z</time>
      </trkpt>
      <trkpt lat="43.532939" lon="-5.885808">
        <ele>73.8</ele>
        <time>2019-11-24T16:36:47Z</time>
      </trkpt>
      <trkpt lat="43.53284" lon="-5.885793">
        <ele>73.4</ele>
        <time>2019-11-24T16:36:48Z</time>
      </trkpt>
      <trkpt lat="43.532747" lon="-5.885747">
        <ele>73.2</ele>
        <time>2019-11-24T16:36:49Z</time>
      </trkpt>
      <trkpt lat="43.532662" lon="-5.885676">
        <ele>72.6</ele>
        <time>2019-11-24T16:36:50Z</time>
      </trkpt>
      <trkpt lat="43.532586" lon="-5.885586">
        <ele>72.2</ele>
        <time>2019-11-24T16:36:51Z</time>
      </trkpt>
      <trkpt lat="43.532516" lon="-5.885485">
        <ele>71.8</ele>
        <time>2019-11-24T16:36:52Z</time>
      </trkpt>
      <trkpt lat="43.532454" lon="-5.885377">
        <ele>71.8</ele>
        <time>2019-11-24T16:36:53Z</time>
      </trkpt>
      <trkpt lat="43.532396" lon="-5.885263">
        <ele>71.4</ele>
        <time>2019-11-24T16:36:54Z</time>
      </trkpt>
      <trkpt lat="43.532341" lon="-5.885148">
        <ele>70.6</ele>
        <time>2019-11-24T16:36:55Z</time>
      </trkpt>
      <trkpt lat="43.532287" lon="-5.885034">
        <ele>70.6</ele>
        <time>2019-11-24T16:36:56Z</time>
      </trkpt>
      <trkpt lat="43.53223" lon="-5.884924">
        <ele>71</ele>
        <time>2019-11-24T16:36:57Z</time>
      </trkpt>
      <trkpt lat="43.532169" lon="-5.884822">
        <ele>71</ele>
        <time>2019-11-24T16:36:58Z</time>
      </trkpt>
      <trkpt lat="43.532101" lon="-5.884731">
        <ele>70.6</ele>
        <time>2019-11-24T16:36:59Z</time>
      </trkpt>
      <trkpt lat="43.532027" lon="-5.884649">
        <ele>70.2</ele>
        <time>2019-11-24T16:37:00Z</time>
      </trkpt>
      <trkpt lat="43.531946" lon="-5.88458">
        <ele>69.4</ele>
        <time>2019-11-24T16:37:01Z</time>
      </trkpt>
      <trkpt lat="43.53186" lon="-5.884525">
        <ele>69.8</ele>
        <time>2019-11-24T16:37:02Z</time>
      </trkpt>
      <trkpt lat="43.531768" lon="-5.884484">
        <ele>68.4</ele>
        <time>2019-11-24T16:37:03Z</time>
      </trkpt>
      <trkpt lat="43.531674" lon="-5.88446">
        <ele>69</ele>
        <time>2019-11-24T16:37:04Z</time>
      </trkpt>
      <trkpt lat="43.531579" lon="-5.88445">
        <ele>67.6</ele>
        <time>2019-11-24T16:37:05Z</time>
      </trkpt>
      <trkpt lat="43.531483" lon="-5.884449">
        <ele>68.2</ele>
        <time>2019-11-24T16:37:06Z</time>
      </trkpt>
      <trkpt lat="43.531387" lon="-5.884454">
        <ele>68.2</ele>
        <time>2019-11-24T16:37:07Z</time>
      </trkpt>
      <trkpt lat="43.531291" lon="-5.884458">
        <ele>68.2</ele>
        <time>2019-11-24T16:37:08Z</time>
      </trkpt>
      <trkpt lat="43.531196" lon="-5.884458">
        <ele>67.6</ele>
        <time>2019-11-24T16:37:09Z</time>
      </trkpt>
      <trkpt lat="43.531102" lon="-5.884446">
        <ele>67.6</ele>
        <time>2019-11-24T16:37:10Z</time>
      </trkpt>
      <trkpt lat="43.531012" lon="-5.884414">
        <ele>67.4</ele>
        <time>2019-11-24T16:37:11Z</time>
      </trkpt>
      <trkpt lat="43.530929" lon="-5.884364">
        <ele>67.8</ele>
        <time>2019-11-24T16:37:12Z</time>
      </trkpt>
      <trkpt lat="43.530856" lon="-5.884296">
        <ele>67.8</ele>
        <time>2019-11-24T16:37:13Z</time>
      </trkpt>
      <trkpt lat="43.5308" lon="-5.884207">
        <ele>68</ele>
        <time>2019-11-24T16:37:14Z</time>
      </trkpt>
      <trkpt lat="43.530768" lon="-5.884101">
        <ele>69</ele>
        <time>2019-11-24T16:37:15Z</time>
      </trkpt>
      <trkpt lat="43.530768" lon="-5.883989">
        <ele>69.6</ele>
        <time>2019-11-24T16:37:16Z</time>
      </trkpt>
      <trkpt lat="43.530787" lon="-5.883884">
        <ele>70</ele>
        <time>2019-11-24T16:37:17Z</time>
      </trkpt>
      <trkpt lat="43.530816" lon="-5.883786">
        <ele>70</ele>
        <time>2019-11-24T16:37:18Z</time>
      </trkpt>
      <trkpt lat="43.530848" lon="-5.883695">
        <ele>70.8</ele>
        <time>2019-11-24T16:37:19Z</time>
      </trkpt>
      <trkpt lat="43.530879" lon="-5.883607">
        <ele>71.4</ele>
        <time>2019-11-24T16:37:20Z</time>
      </trkpt>
      <trkpt lat="43.530907" lon="-5.883523">
        <ele>71.8</ele>
        <time>2019-11-24T16:37:21Z</time>
      </trkpt>
      <trkpt lat="43.530932" lon="-5.883442">
        <ele>72.2</ele>
        <time>2019-11-24T16:37:22Z</time>
      </trkpt>
      <trkpt lat="43.530956" lon="-5.883357">
        <ele>72.6</ele>
        <time>2019-11-24T16:37:23Z</time>
      </trkpt>
      <trkpt lat="43.530978" lon="-5.883274">
        <ele>73</ele>
        <time>2019-11-24T16:37:24Z</time>
      </trkpt>
      <trkpt lat="43.530998" lon="-5.883192">
        <ele>72.2</ele>
        <time>2019-11-24T16:37:25Z</time>
      </trkpt>
      <trkpt lat="43.531013" lon="-5.883109">
        <ele>73</ele>
        <time>2019-11-24T16:37:26Z</time>
      </trkpt>
      <trkpt lat="43.531024" lon="-5.883025">
        <ele>73.2</ele>
        <time>2019-11-24T16:37:27Z</time>
      </trkpt>
      <trkpt lat="43.531035" lon="-5.882943">
        <ele>73.8</ele>
        <time>2019-11-24T16:37:28Z</time>
      </trkpt>
      <trkpt lat="43.531044" lon="-5.882861">
        <ele>73.2</ele>
        <time>2019-11-24T16:37:29Z</time>
      </trkpt>
      <trkpt lat="43.531049" lon="-5.882778">
        <ele>74</ele>
        <time>2019-11-24T16:37:30Z</time>
      </trkpt>
      <trkpt lat="43.531055" lon="-5.882694">
        <ele>74.2</ele>
        <time>2019-11-24T16:37:31Z</time>
      </trkpt>
      <trkpt lat="43.53106" lon="-5.882613">
        <ele>74.2</ele>
        <time>2019-11-24T16:37:32Z</time>
      </trkpt>
      <trkpt lat="43.531065" lon="-5.882531">
        <ele>75.2</ele>
        <time>2019-11-24T16:37:33Z</time>
      </trkpt>
      <trkpt lat="43.531067" lon="-5.88245">
        <ele>75.2</ele>
        <time>2019-11-24T16:37:34Z</time>
      </trkpt>
      <trkpt lat="43.531066" lon="-5.88237">
        <ele>75.2</ele>
        <time>2019-11-24T16:37:35Z</time>
      </trkpt>
      <trkpt lat="43.531063" lon="-5.882291">
        <ele>76</ele>
        <time>2019-11-24T16:37:36Z</time>
      </trkpt>
      <trkpt lat="43.531055" lon="-5.882214">
        <ele>76.2</ele>
        <time>2019-11-24T16:37:37Z</time>
      </trkpt>
      <trkpt lat="43.531045" lon="-5.882138">
        <ele>76.6</ele>
        <time>2019-11-24T16:37:38Z</time>
      </trkpt>
      <trkpt lat="43.531031" lon="-5.882063">
        <ele>76.6</ele>
        <time>2019-11-24T16:37:39Z</time>
      </trkpt>
      <trkpt lat="43.531013" lon="-5.881993">
        <ele>77</ele>
        <time>2019-11-24T16:37:40Z</time>
      </trkpt>
      <trkpt lat="43.53099" lon="-5.881925">
        <ele>77.6</ele>
        <time>2019-11-24T16:37:41Z</time>
      </trkpt>
      <trkpt lat="43.530964" lon="-5.881862">
        <ele>77.4</ele>
        <time>2019-11-24T16:37:42Z</time>
      </trkpt>
      <trkpt lat="43.530932" lon="-5.881802">
        <ele>78</ele>
        <time>2019-11-24T16:37:43Z</time>
      </trkpt>
      <trkpt lat="43.530896" lon="-5.881747">
        <ele>78</ele>
        <time>2019-11-24T16:37:44Z</time>
      </trkpt>
      <trkpt lat="43.530856" lon="-5.881697">
        <ele>78.2</ele>
        <time>2019-11-24T16:37:45Z</time>
      </trkpt>
      <trkpt lat="43.530814" lon="-5.88165">
        <ele>79</ele>
        <time>2019-11-24T16:37:46Z</time>
      </trkpt>
      <trkpt lat="43.53077" lon="-5.881611">
        <ele>79.2</ele>
        <time>2019-11-24T16:37:47Z</time>
      </trkpt>
      <trkpt lat="43.530721" lon="-5.881579">
        <ele>79.4</ele>
        <time>2019-11-24T16:37:48Z</time>
      </trkpt>
      <trkpt lat="43.53067" lon="-5.881547">
        <ele>80</ele>
        <time>2019-11-24T16:37:49Z</time>
      </trkpt>
      <trkpt lat="43.530619" lon="-5.881517">
        <ele>80</ele>
        <time>2019-11-24T16:37:50Z</time>
      </trkpt>
      <trkpt lat="43.530567" lon="-5.881489">
        <ele>80</ele>
        <time>2019-11-24T16:37:51Z</time>
      </trkpt>
      <trkpt lat="43.530514" lon="-5.881462">
        <ele>80.6</ele>
        <time>2019-11-24T16:37:52Z</time>
      </trkpt>
      <trkpt lat="43.530463" lon="-5.881434">
        <ele>80.6</ele>
        <time>2019-11-24T16:37:53Z</time>
      </trkpt>
      <trkpt lat="43.530413" lon="-5.881403">
        <ele>81.2</ele>
        <time>2019-11-24T16:37:54Z</time>
      </trkpt>
      <trkpt lat="43.530365" lon="-5.881365">
        <ele>81.2</ele>
        <time>2019-11-24T16:37:55Z</time>
      </trkpt>
      <trkpt lat="43.53032" lon="-5.881323">
        <ele>81.4</ele>
        <time>2019-11-24T16:37:56Z</time>
      </trkpt>
      <trkpt lat="43.530277" lon="-5.881276">
        <ele>81.4</ele>
        <time>2019-11-24T16:37:57Z</time>
      </trkpt>
      <trkpt lat="43.530238" lon="-5.881223">
        <ele>81.8</ele>
        <time>2019-11-24T16:37:58Z</time>
      </trkpt>
      <trkpt lat="43.530201" lon="-5.881164">
        <ele>82.2</ele>
        <time>2019-11-24T16:37:59Z</time>
      </trkpt>
      <trkpt lat="43.530166" lon="-5.881103">
        <ele>82.2</ele>
        <time>2019-11-24T16:38:00Z</time>
      </trkpt>
      <trkpt lat="43.530134" lon="-5.881038">
        <ele>82.6</ele>
        <time>2019-11-24T16:38:01Z</time>
      </trkpt>
      <trkpt lat="43.530107" lon="-5.880971">
        <ele>83</ele>
        <time>2019-11-24T16:38:02Z</time>
      </trkpt>
      <trkpt lat="43.530083" lon="-5.880903">
        <ele>83.2</ele>
        <time>2019-11-24T16:38:03Z</time>
      </trkpt>
      <trkpt lat="43.53006" lon="-5.880832">
        <ele>83.2</ele>
        <time>2019-11-24T16:38:04Z</time>
      </trkpt>
      <trkpt lat="43.530039" lon="-5.880761">
        <ele>83.6</ele>
        <time>2019-11-24T16:38:05Z</time>
      </trkpt>
      <trkpt lat="43.53002" lon="-5.880687">
        <ele>83.8</ele>
        <time>2019-11-24T16:38:06Z</time>
      </trkpt>
      <trkpt lat="43.529999" lon="-5.880613">
        <ele>84.2</ele>
        <time>2019-11-24T16:38:07Z</time>
      </trkpt>
      <trkpt lat="43.529979" lon="-5.880542">
        <ele>84.2</ele>
        <time>2019-11-24T16:38:08Z</time>
      </trkpt>
      <trkpt lat="43.52996" lon="-5.88047">
        <ele>84.4</ele>
        <time>2019-11-24T16:38:09Z</time>
      </trkpt>
      <trkpt lat="43.52994" lon="-5.880398">
        <ele>85</ele>
        <time>2019-11-24T16:38:10Z</time>
      </trkpt>
      <trkpt lat="43.529921" lon="-5.880326">
        <ele>85</ele>
        <time>2019-11-24T16:38:11Z</time>
      </trkpt>
      <trkpt lat="43.529902" lon="-5.880256">
        <ele>85.4</ele>
        <time>2019-11-24T16:38:12Z</time>
      </trkpt>
      <trkpt lat="43.529882" lon="-5.880184">
        <ele>86.2</ele>
        <time>2019-11-24T16:38:13Z</time>
      </trkpt>
      <trkpt lat="43.52986" lon="-5.880114">
        <ele>87</ele>
        <time>2019-11-24T16:38:14Z</time>
      </trkpt>
      <trkpt lat="43.529836" lon="-5.880046">
        <ele>86.8</ele>
        <time>2019-11-24T16:38:15Z</time>
      </trkpt>
      <trkpt lat="43.529808" lon="-5.879981">
        <ele>86.8</ele>
        <time>2019-11-24T16:38:16Z</time>
      </trkpt>
      <trkpt lat="43.529777" lon="-5.879923">
        <ele>87.4</ele>
        <time>2019-11-24T16:38:17Z</time>
      </trkpt>
      <trkpt lat="43.529743" lon="-5.879869">
        <ele>87.2</ele>
        <time>2019-11-24T16:38:18Z</time>
      </trkpt>
      <trkpt lat="43.529706" lon="-5.879818">
        <ele>87.6</ele>
        <time>2019-11-24T16:38:19Z</time>
      </trkpt>
      <trkpt lat="43.529665" lon="-5.87977">
        <ele>87.4</ele>
        <time>2019-11-24T16:38:20Z</time>
      </trkpt>
      <trkpt lat="43.529621" lon="-5.879724">
        <ele>87.6</ele>
        <time>2019-11-24T16:38:21Z</time>
      </trkpt>
      <trkpt lat="43.529574" lon="-5.87968">
        <ele>87.6</ele>
        <time>2019-11-24T16:38:22Z</time>
      </trkpt>
      <trkpt lat="43.529522" lon="-5.879632">
        <ele>86.6</ele>
        <time>2019-11-24T16:38:23Z</time>
      </trkpt>
      <trkpt lat="43.529464" lon="-5.879601">
        <ele>85.4</ele>
        <time>2019-11-24T16:38:24Z</time>
      </trkpt>
      <trkpt lat="43.529402" lon="-5.879578">
        <ele>85.2</ele>
        <time>2019-11-24T16:38:25Z</time>
      </trkpt>
      <trkpt lat="43.529336" lon="-5.879571">
        <ele>85</ele>
        <time>2019-11-24T16:38:26Z</time>
      </trkpt>
      <trkpt lat="43.529264" lon="-5.879571">
        <ele>84.8</ele>
        <time>2019-11-24T16:38:27Z</time>
      </trkpt>
      <trkpt lat="43.52919" lon="-5.879577">
        <ele>84.6</ele>
        <time>2019-11-24T16:38:28Z</time>
      </trkpt>
      <trkpt lat="43.529116" lon="-5.879586">
        <ele>84.2</ele>
        <time>2019-11-24T16:38:29Z</time>
      </trkpt>
      <trkpt lat="43.529038" lon="-5.879585">
        <ele>84</ele>
        <time>2019-11-24T16:38:30Z</time>
      </trkpt>
      <trkpt lat="43.528956" lon="-5.879574">
        <ele>83.8</ele>
        <time>2019-11-24T16:38:31Z</time>
      </trkpt>
      <trkpt lat="43.528875" lon="-5.879551">
        <ele>83.4</ele>
        <time>2019-11-24T16:38:32Z</time>
      </trkpt>
      <trkpt lat="43.528795" lon="-5.879509">
        <ele>83.4</ele>
        <time>2019-11-24T16:38:33Z</time>
      </trkpt>
      <trkpt lat="43.52872" lon="-5.879458">
        <ele>83.2</ele>
        <time>2019-11-24T16:38:34Z</time>
      </trkpt>
      <trkpt lat="43.52865" lon="-5.879398">
        <ele>83.2</ele>
        <time>2019-11-24T16:38:35Z</time>
      </trkpt>
      <trkpt lat="43.528584" lon="-5.879329">
        <ele>83</ele>
        <time>2019-11-24T16:38:36Z</time>
      </trkpt>
      <trkpt lat="43.528519" lon="-5.879253">
        <ele>83</ele>
        <time>2019-11-24T16:38:37Z</time>
      </trkpt>
      <trkpt lat="43.528458" lon="-5.879174">
        <ele>83</ele>
        <time>2019-11-24T16:38:38Z</time>
      </trkpt>
      <trkpt lat="43.528398" lon="-5.87909">
        <ele>82.6</ele>
        <time>2019-11-24T16:38:39Z</time>
      </trkpt>
      <trkpt lat="43.528344" lon="-5.879001">
        <ele>82.4</ele>
        <time>2019-11-24T16:38:40Z</time>
      </trkpt>
      <trkpt lat="43.528296" lon="-5.878908">
        <ele>82.2</ele>
        <time>2019-11-24T16:38:41Z</time>
      </trkpt>
      <trkpt lat="43.528251" lon="-5.878811">
        <ele>82</ele>
        <time>2019-11-24T16:38:42Z</time>
      </trkpt>
      <trkpt lat="43.528208" lon="-5.878715">
        <ele>82.2</ele>
        <time>2019-11-24T16:38:43Z</time>
      </trkpt>
      <trkpt lat="43.528162" lon="-5.878619">
        <ele>82</ele>
        <time>2019-11-24T16:38:44Z</time>
      </trkpt>
      <trkpt lat="43.528116" lon="-5.878525">
        <ele>81.8</ele>
        <time>2019-11-24T16:38:45Z</time>
      </trkpt>
      <trkpt lat="43.52807" lon="-5.878431">
        <ele>81.2</ele>
        <time>2019-11-24T16:38:46Z</time>
      </trkpt>
      <trkpt lat="43.528022" lon="-5.878338">
        <ele>81.4</ele>
        <time>2019-11-24T16:38:47Z</time>
      </trkpt>
      <trkpt lat="43.52797" lon="-5.878245">
        <ele>81.4</ele>
        <time>2019-11-24T16:38:48Z</time>
      </trkpt>
      <trkpt lat="43.527916" lon="-5.878153">
        <ele>80.8</ele>
        <time>2019-11-24T16:38:49Z</time>
      </trkpt>
      <trkpt lat="43.527862" lon="-5.878058">
        <ele>80.4</ele>
        <time>2019-11-24T16:38:50Z</time>
      </trkpt>
      <trkpt lat="43.527807" lon="-5.877963">
        <ele>80.6</ele>
        <time>2019-11-24T16:38:51Z</time>
      </trkpt>
      <trkpt lat="43.527753" lon="-5.877873">
        <ele>80.2</ele>
        <time>2019-11-24T16:38:52Z</time>
      </trkpt>
      <trkpt lat="43.527699" lon="-5.877778">
        <ele>79.8</ele>
        <time>2019-11-24T16:38:53Z</time>
      </trkpt>
      <trkpt lat="43.527647" lon="-5.877678">
        <ele>80.2</ele>
        <time>2019-11-24T16:38:54Z</time>
      </trkpt>
      <trkpt lat="43.527598" lon="-5.877578">
        <ele>79.8</ele>
        <time>2019-11-24T16:38:55Z</time>
      </trkpt>
      <trkpt lat="43.527554" lon="-5.877476">
        <ele>80</ele>
        <time>2019-11-24T16:38:56Z</time>
      </trkpt>
      <trkpt lat="43.527517" lon="-5.877369">
        <ele>79</ele>
        <time>2019-11-24T16:38:57Z</time>
      </trkpt>
      <trkpt lat="43.527484" lon="-5.877259">
        <ele>79.6</ele>
        <time>2019-11-24T16:38:58Z</time>
      </trkpt>
      <trkpt lat="43.527454" lon="-5.877145">
        <ele>79.4</ele>
        <time>2019-11-24T16:38:59Z</time>
      </trkpt>
      <trkpt lat="43.527429" lon="-5.87703">
        <ele>79.2</ele>
        <time>2019-11-24T16:39:00Z</time>
      </trkpt>
      <trkpt lat="43.527406" lon="-5.876914">
        <ele>79.2</ele>
        <time>2019-11-24T16:39:01Z</time>
      </trkpt>
      <trkpt lat="43.527383" lon="-5.8768">
        <ele>78.8</ele>
        <time>2019-11-24T16:39:02Z</time>
      </trkpt>
      <trkpt lat="43.527358" lon="-5.876685">
        <ele>78.4</ele>
        <time>2019-11-24T16:39:03Z</time>
      </trkpt>
      <trkpt lat="43.527337" lon="-5.87657">
        <ele>78.4</ele>
        <time>2019-11-24T16:39:04Z</time>
      </trkpt>
      <trkpt lat="43.527316" lon="-5.876456">
        <ele>78.4</ele>
        <time>2019-11-24T16:39:05Z</time>
      </trkpt>
      <trkpt lat="43.527295" lon="-5.876343">
        <ele>78</ele>
        <time>2019-11-24T16:39:06Z</time>
      </trkpt>
      <trkpt lat="43.527277" lon="-5.876231">
        <ele>78.4</ele>
        <time>2019-11-24T16:39:07Z</time>
      </trkpt>
      <trkpt lat="43.52726" lon="-5.876118">
        <ele>77.6</ele>
        <time>2019-11-24T16:39:08Z</time>
      </trkpt>
      <trkpt lat="43.527239" lon="-5.876006">
        <ele>77.4</ele>
        <time>2019-11-24T16:39:09Z</time>
      </trkpt>
      <trkpt lat="43.527215" lon="-5.875891">
        <ele>77.2</ele>
        <time>2019-11-24T16:39:10Z</time>
      </trkpt>
      <trkpt lat="43.527191" lon="-5.875778">
        <ele>77.2</ele>
        <time>2019-11-24T16:39:11Z</time>
      </trkpt>
      <trkpt lat="43.527166" lon="-5.875668">
        <ele>76.8</ele>
        <time>2019-11-24T16:39:12Z</time>
      </trkpt>
      <trkpt lat="43.527144" lon="-5.875555">
        <ele>77.2</ele>
        <time>2019-11-24T16:39:13Z</time>
      </trkpt>
      <trkpt lat="43.52712" lon="-5.87544">
        <ele>76.6</ele>
        <time>2019-11-24T16:39:14Z</time>
      </trkpt>
      <trkpt lat="43.527095" lon="-5.875326">
        <ele>76.6</ele>
        <time>2019-11-24T16:39:15Z</time>
      </trkpt>
      <trkpt lat="43.527068" lon="-5.875211">
        <ele>76.2</ele>
        <time>2019-11-24T16:39:16Z</time>
      </trkpt>
      <trkpt lat="43.52704" lon="-5.875098">
        <ele>76</ele>
        <time>2019-11-24T16:39:17Z</time>
      </trkpt>
      <trkpt lat="43.52701" lon="-5.874985">
        <ele>76</ele>
        <time>2019-11-24T16:39:18Z</time>
      </trkpt>
      <trkpt lat="43.526981" lon="-5.874871">
        <ele>75.8</ele>
        <time>2019-11-24T16:39:19Z</time>
      </trkpt>
      <trkpt lat="43.526951" lon="-5.874758">
        <ele>76.2</ele>
        <time>2019-11-24T16:39:20Z</time>
      </trkpt>
      <trkpt lat="43.526922" lon="-5.874646">
        <ele>75.8</ele>
        <time>2019-11-24T16:39:21Z</time>
      </trkpt>
      <trkpt lat="43.526891" lon="-5.874535">
        <ele>75.6</ele>
        <time>2019-11-24T16:39:22Z</time>
      </trkpt>
      <trkpt lat="43.526862" lon="-5.874426">
        <ele>75.8</ele>
        <time>2019-11-24T16:39:23Z</time>
      </trkpt>
      <trkpt lat="43.526833" lon="-5.874318">
        <ele>75.6</ele>
        <time>2019-11-24T16:39:24Z</time>
      </trkpt>
      <trkpt lat="43.526803" lon="-5.874212">
        <ele>76.2</ele>
        <time>2019-11-24T16:39:25Z</time>
      </trkpt>
      <trkpt lat="43.526772" lon="-5.874108">
        <ele>76</ele>
        <time>2019-11-24T16:39:26Z</time>
      </trkpt>
      <trkpt lat="43.526738" lon="-5.874007">
        <ele>75.6</ele>
        <time>2019-11-24T16:39:27Z</time>
      </trkpt>
      <trkpt lat="43.526701" lon="-5.873909">
        <ele>76.4</ele>
        <time>2019-11-24T16:39:28Z</time>
      </trkpt>
      <trkpt lat="43.52666" lon="-5.873816">
        <ele>76.6</ele>
        <time>2019-11-24T16:39:29Z</time>
      </trkpt>
      <trkpt lat="43.526616" lon="-5.873729">
        <ele>76</ele>
        <time>2019-11-24T16:39:30Z</time>
      </trkpt>
      <trkpt lat="43.526567" lon="-5.873646">
        <ele>76.2</ele>
        <time>2019-11-24T16:39:31Z</time>
      </trkpt>
      <trkpt lat="43.526517" lon="-5.873566">
        <ele>76.6</ele>
        <time>2019-11-24T16:39:32Z</time>
      </trkpt>
      <trkpt lat="43.526467" lon="-5.873489">
        <ele>76.6</ele>
        <time>2019-11-24T16:39:33Z</time>
      </trkpt>
      <trkpt lat="43.526416" lon="-5.873414">
        <ele>76.8</ele>
        <time>2019-11-24T16:39:34Z</time>
      </trkpt>
      <trkpt lat="43.526363" lon="-5.873343">
        <ele>76.4</ele>
        <time>2019-11-24T16:39:35Z</time>
      </trkpt>
      <trkpt lat="43.526308" lon="-5.873275">
        <ele>76.4</ele>
        <time>2019-11-24T16:39:36Z</time>
      </trkpt>
      <trkpt lat="43.526252" lon="-5.873209">
        <ele>77</ele>
        <time>2019-11-24T16:39:37Z</time>
      </trkpt>
      <trkpt lat="43.526196" lon="-5.873145">
        <ele>77</ele>
        <time>2019-11-24T16:39:38Z</time>
      </trkpt>
      <trkpt lat="43.526139" lon="-5.873083">
        <ele>76.8</ele>
        <time>2019-11-24T16:39:39Z</time>
      </trkpt>
      <trkpt lat="43.526082" lon="-5.873024">
        <ele>77.2</ele>
        <time>2019-11-24T16:39:40Z</time>
      </trkpt>
      <trkpt lat="43.526024" lon="-5.872968">
        <ele>77.2</ele>
        <time>2019-11-24T16:39:41Z</time>
      </trkpt>
      <trkpt lat="43.525966" lon="-5.872914">
        <ele>77.6</ele>
        <time>2019-11-24T16:39:42Z</time>
      </trkpt>
      <trkpt lat="43.525905" lon="-5.872865">
        <ele>77.4</ele>
        <time>2019-11-24T16:39:43Z</time>
      </trkpt>
      <trkpt lat="43.525844" lon="-5.872821">
        <ele>77.8</ele>
        <time>2019-11-24T16:39:44Z</time>
      </trkpt>
      <trkpt lat="43.525781" lon="-5.872782">
        <ele>78.2</ele>
        <time>2019-11-24T16:39:45Z</time>
      </trkpt>
      <trkpt lat="43.525718" lon="-5.872747">
        <ele>78.6</ele>
        <time>2019-11-24T16:39:46Z</time>
      </trkpt>
      <trkpt lat="43.525656" lon="-5.872714">
        <ele>78.8</ele>
        <time>2019-11-24T16:39:47Z</time>
      </trkpt>
      <trkpt lat="43.525593" lon="-5.87268">
        <ele>78.8</ele>
        <time>2019-11-24T16:39:48Z</time>
      </trkpt>
      <trkpt lat="43.525531" lon="-5.872647">
        <ele>79.4</ele>
        <time>2019-11-24T16:39:49Z</time>
      </trkpt>
      <trkpt lat="43.52547" lon="-5.872615">
        <ele>79.6</ele>
        <time>2019-11-24T16:39:50Z</time>
      </trkpt>
      <trkpt lat="43.525408" lon="-5.872585">
        <ele>79.8</ele>
        <time>2019-11-24T16:39:51Z</time>
      </trkpt>
      <trkpt lat="43.525347" lon="-5.872555">
        <ele>80</ele>
        <time>2019-11-24T16:39:52Z</time>
      </trkpt>
      <trkpt lat="43.525286" lon="-5.872526">
        <ele>80.2</ele>
        <time>2019-11-24T16:39:53Z</time>
      </trkpt>
      <trkpt lat="43.525226" lon="-5.872498">
        <ele>80.4</ele>
        <time>2019-11-24T16:39:54Z</time>
      </trkpt>
      <trkpt lat="43.525166" lon="-5.87247">
        <ele>80.4</ele>
        <time>2019-11-24T16:39:55Z</time>
      </trkpt>
      <trkpt lat="43.525107" lon="-5.87244">
        <ele>80.8</ele>
        <time>2019-11-24T16:39:56Z</time>
      </trkpt>
      <trkpt lat="43.525049" lon="-5.872412">
        <ele>81.2</ele>
        <time>2019-11-24T16:39:57Z</time>
      </trkpt>
      <trkpt lat="43.524991" lon="-5.872385">
        <ele>81.2</ele>
        <time>2019-11-24T16:39:58Z</time>
      </trkpt>
      <trkpt lat="43.524933" lon="-5.872358">
        <ele>81.4</ele>
        <time>2019-11-24T16:39:59Z</time>
      </trkpt>
      <trkpt lat="43.524875" lon="-5.872331">
        <ele>81.8</ele>
        <time>2019-11-24T16:40:00Z</time>
      </trkpt>
      <trkpt lat="43.524816" lon="-5.872309">
        <ele>82</ele>
        <time>2019-11-24T16:40:01Z</time>
      </trkpt>
      <trkpt lat="43.524757" lon="-5.872289">
        <ele>82.8</ele>
        <time>2019-11-24T16:40:02Z</time>
      </trkpt>
      <trkpt lat="43.524698" lon="-5.872269">
        <ele>82.6</ele>
        <time>2019-11-24T16:40:03Z</time>
      </trkpt>
      <trkpt lat="43.52464" lon="-5.872252">
        <ele>82.8</ele>
        <time>2019-11-24T16:40:04Z</time>
      </trkpt>
      <trkpt lat="43.524582" lon="-5.872236">
        <ele>82.8</ele>
        <time>2019-11-24T16:40:05Z</time>
      </trkpt>
      <trkpt lat="43.524523" lon="-5.872222">
        <ele>83.4</ele>
        <time>2019-11-24T16:40:06Z</time>
      </trkpt>
      <trkpt lat="43.524465" lon="-5.87221">
        <ele>83.2</ele>
        <time>2019-11-24T16:40:07Z</time>
      </trkpt>
      <trkpt lat="43.524407" lon="-5.872196">
        <ele>83.4</ele>
        <time>2019-11-24T16:40:08Z</time>
      </trkpt>
      <trkpt lat="43.524349" lon="-5.872182">
        <ele>84</ele>
        <time>2019-11-24T16:40:09Z</time>
      </trkpt>
      <trkpt lat="43.524291" lon="-5.87217">
        <ele>84.2</ele>
        <time>2019-11-24T16:40:10Z</time>
      </trkpt>
      <trkpt lat="43.524233" lon="-5.872156">
        <ele>84</ele>
        <time>2019-11-24T16:40:11Z</time>
      </trkpt>
      <trkpt lat="43.524175" lon="-5.872143">
        <ele>84.4</ele>
        <time>2019-11-24T16:40:12Z</time>
      </trkpt>
      <trkpt lat="43.524116" lon="-5.872129">
        <ele>84.8</ele>
        <time>2019-11-24T16:40:13Z</time>
      </trkpt>
      <trkpt lat="43.524058" lon="-5.872116">
        <ele>85.2</ele>
        <time>2019-11-24T16:40:14Z</time>
      </trkpt>
      <trkpt lat="43.523999" lon="-5.872106">
        <ele>85</ele>
        <time>2019-11-24T16:40:15Z</time>
      </trkpt>
      <trkpt lat="43.523941" lon="-5.872096">
        <ele>85.2</ele>
        <time>2019-11-24T16:40:16Z</time>
      </trkpt>
      <trkpt lat="43.523882" lon="-5.872085">
        <ele>85.4</ele>
        <time>2019-11-24T16:40:17Z</time>
      </trkpt>
      <trkpt lat="43.523824" lon="-5.872069">
        <ele>85.6</ele>
        <time>2019-11-24T16:40:18Z</time>
      </trkpt>
      <trkpt lat="43.523767" lon="-5.87205">
        <ele>85.8</ele>
        <time>2019-11-24T16:40:19Z</time>
      </trkpt>
      <trkpt lat="43.523711" lon="-5.872024">
        <ele>86.2</ele>
        <time>2019-11-24T16:40:20Z</time>
      </trkpt>
      <trkpt lat="43.523656" lon="-5.871992">
        <ele>86.2</ele>
        <time>2019-11-24T16:40:21Z</time>
      </trkpt>
      <trkpt lat="43.523604" lon="-5.871953">
        <ele>86.4</ele>
        <time>2019-11-24T16:40:22Z</time>
      </trkpt>
      <trkpt lat="43.523558" lon="-5.871902">
        <ele>86.4</ele>
        <time>2019-11-24T16:40:23Z</time>
      </trkpt>
      <trkpt lat="43.523519" lon="-5.871839">
        <ele>86.2</ele>
        <time>2019-11-24T16:40:24Z</time>
      </trkpt>
      <trkpt lat="43.523485" lon="-5.871767">
        <ele>85.8</ele>
        <time>2019-11-24T16:40:25Z</time>
      </trkpt>
      <trkpt lat="43.523454" lon="-5.871688">
        <ele>85.6</ele>
        <time>2019-11-24T16:40:26Z</time>
      </trkpt>
      <trkpt lat="43.523425" lon="-5.871605">
        <ele>85.8</ele>
        <time>2019-11-24T16:40:27Z</time>
      </trkpt>
      <trkpt lat="43.523395" lon="-5.871521">
        <ele>85.4</ele>
        <time>2019-11-24T16:40:28Z</time>
      </trkpt>
      <trkpt lat="43.523364" lon="-5.871434">
        <ele>84.8</ele>
        <time>2019-11-24T16:40:29Z</time>
      </trkpt>
      <trkpt lat="43.523332" lon="-5.871346">
        <ele>84.8</ele>
        <time>2019-11-24T16:40:30Z</time>
      </trkpt>
      <trkpt lat="43.523301" lon="-5.871257">
        <ele>84.6</ele>
        <time>2019-11-24T16:40:31Z</time>
      </trkpt>
      <trkpt lat="43.523269" lon="-5.871167">
        <ele>84.6</ele>
        <time>2019-11-24T16:40:32Z</time>
      </trkpt>
      <trkpt lat="43.523237" lon="-5.871076">
        <ele>84.6</ele>
        <time>2019-11-24T16:40:33Z</time>
      </trkpt>
      <trkpt lat="43.523205" lon="-5.870985">
        <ele>84.6</ele>
        <time>2019-11-24T16:40:34Z</time>
      </trkpt>
      <trkpt lat="43.523173" lon="-5.870894">
        <ele>84.4</ele>
        <time>2019-11-24T16:40:35Z</time>
      </trkpt>
      <trkpt lat="43.523139" lon="-5.870804">
        <ele>84.4</ele>
        <time>2019-11-24T16:40:36Z</time>
      </trkpt>
      <trkpt lat="43.523099" lon="-5.870716">
        <ele>83.6</ele>
        <time>2019-11-24T16:40:37Z</time>
      </trkpt>
      <trkpt lat="43.52305" lon="-5.870635">
        <ele>83.8</ele>
        <time>2019-11-24T16:40:38Z</time>
      </trkpt>
      <trkpt lat="43.522993" lon="-5.870564">
        <ele>83.2</ele>
        <time>2019-11-24T16:40:39Z</time>
      </trkpt>
      <trkpt lat="43.522926" lon="-5.870506">
        <ele>83.2</ele>
        <time>2019-11-24T16:40:40Z</time>
      </trkpt>
      <trkpt lat="43.522853" lon="-5.870459">
        <ele>82.6</ele>
        <time>2019-11-24T16:40:41Z</time>
      </trkpt>
      <trkpt lat="43.522776" lon="-5.870423">
        <ele>82.8</ele>
        <time>2019-11-24T16:40:42Z</time>
      </trkpt>
      <trkpt lat="43.522696" lon="-5.870392">
        <ele>82.2</ele>
        <time>2019-11-24T16:40:43Z</time>
      </trkpt>
      <trkpt lat="43.522613" lon="-5.870364">
        <ele>81.6</ele>
        <time>2019-11-24T16:40:44Z</time>
      </trkpt>
      <trkpt lat="43.522528" lon="-5.870338">
        <ele>81.2</ele>
        <time>2019-11-24T16:40:45Z</time>
      </trkpt>
      <trkpt lat="43.522441" lon="-5.870314">
        <ele>81</ele>
        <time>2019-11-24T16:40:46Z</time>
      </trkpt>
      <trkpt lat="43.522353" lon="-5.870292">
        <ele>80.6</ele>
        <time>2019-11-24T16:40:47Z</time>
      </trkpt>
      <trkpt lat="43.522266" lon="-5.870269">
        <ele>80.6</ele>
        <time>2019-11-24T16:40:48Z</time>
      </trkpt>
      <trkpt lat="43.522177" lon="-5.870249">
        <ele>80.6</ele>
        <time>2019-11-24T16:40:49Z</time>
      </trkpt>
      <trkpt lat="43.522088" lon="-5.870231">
        <ele>80.2</ele>
        <time>2019-11-24T16:40:50Z</time>
      </trkpt>
      <trkpt lat="43.521998" lon="-5.870218">
        <ele>80</ele>
        <time>2019-11-24T16:40:51Z</time>
      </trkpt>
      <trkpt lat="43.521907" lon="-5.870215">
        <ele>79.4</ele>
        <time>2019-11-24T16:40:52Z</time>
      </trkpt>
      <trkpt lat="43.521815" lon="-5.870219">
        <ele>79</ele>
        <time>2019-11-24T16:40:53Z</time>
      </trkpt>
      <trkpt lat="43.521724" lon="-5.87023">
        <ele>78.8</ele>
        <time>2019-11-24T16:40:54Z</time>
      </trkpt>
      <trkpt lat="43.521633" lon="-5.870251">
        <ele>78.6</ele>
        <time>2019-11-24T16:40:55Z</time>
      </trkpt>
      <trkpt lat="43.521544" lon="-5.870286">
        <ele>78</ele>
        <time>2019-11-24T16:40:56Z</time>
      </trkpt>
      <trkpt lat="43.521457" lon="-5.870331">
        <ele>78.2</ele>
        <time>2019-11-24T16:40:57Z</time>
      </trkpt>
      <trkpt lat="43.521374" lon="-5.870382">
        <ele>78.4</ele>
        <time>2019-11-24T16:40:58Z</time>
      </trkpt>
      <trkpt lat="43.521289" lon="-5.870434">
        <ele>78.6</ele>
        <time>2019-11-24T16:40:59Z</time>
      </trkpt>
      <trkpt lat="43.521206" lon="-5.870485">
        <ele>78.4</ele>
        <time>2019-11-24T16:41:00Z</time>
      </trkpt>
      <trkpt lat="43.521124" lon="-5.870538">
        <ele>78.2</ele>
        <time>2019-11-24T16:41:01Z</time>
      </trkpt>
      <trkpt lat="43.521043" lon="-5.87059">
        <ele>78.4</ele>
        <time>2019-11-24T16:41:02Z</time>
      </trkpt>
      <trkpt lat="43.520962" lon="-5.87064">
        <ele>78.4</ele>
        <time>2019-11-24T16:41:03Z</time>
      </trkpt>
      <trkpt lat="43.520881" lon="-5.870691">
        <ele>78.2</ele>
        <time>2019-11-24T16:41:04Z</time>
      </trkpt>
      <trkpt lat="43.520801" lon="-5.870741">
        <ele>78</ele>
        <time>2019-11-24T16:41:05Z</time>
      </trkpt>
      <trkpt lat="43.52072" lon="-5.870793">
        <ele>78</ele>
        <time>2019-11-24T16:41:06Z</time>
      </trkpt>
      <trkpt lat="43.520639" lon="-5.870842">
        <ele>77.8</ele>
        <time>2019-11-24T16:41:07Z</time>
      </trkpt>
      <trkpt lat="43.520559" lon="-5.87089">
        <ele>77.8</ele>
        <time>2019-11-24T16:41:08Z</time>
      </trkpt>
      <trkpt lat="43.520478" lon="-5.870936">
        <ele>77.8</ele>
        <time>2019-11-24T16:41:09Z</time>
      </trkpt>
      <trkpt lat="43.520398" lon="-5.870977">
        <ele>77.8</ele>
        <time>2019-11-24T16:41:10Z</time>
      </trkpt>
      <trkpt lat="43.520317" lon="-5.871012">
        <ele>77.8</ele>
        <time>2019-11-24T16:41:11Z</time>
      </trkpt>
      <trkpt lat="43.520235" lon="-5.871041">
        <ele>78.2</ele>
        <time>2019-11-24T16:41:12Z</time>
      </trkpt>
      <trkpt lat="43.520152" lon="-5.87106">
        <ele>77.8</ele>
        <time>2019-11-24T16:41:13Z</time>
      </trkpt>
      <trkpt lat="43.520069" lon="-5.87107">
        <ele>77.6</ele>
        <time>2019-11-24T16:41:14Z</time>
      </trkpt>
      <trkpt lat="43.519986" lon="-5.871068">
        <ele>77.8</ele>
        <time>2019-11-24T16:41:15Z</time>
      </trkpt>
      <trkpt lat="43.519904" lon="-5.871057">
        <ele>77.6</ele>
        <time>2019-11-24T16:41:16Z</time>
      </trkpt>
      <trkpt lat="43.519822" lon="-5.871035">
        <ele>77.2</ele>
        <time>2019-11-24T16:41:17Z</time>
      </trkpt>
      <trkpt lat="43.519741" lon="-5.871005">
        <ele>76.8</ele>
        <time>2019-11-24T16:41:18Z</time>
      </trkpt>
      <trkpt lat="43.51966" lon="-5.870972">
        <ele>77.4</ele>
        <time>2019-11-24T16:41:19Z</time>
      </trkpt>
      <trkpt lat="43.51958" lon="-5.870941">
        <ele>77.4</ele>
        <time>2019-11-24T16:41:20Z</time>
      </trkpt>
      <trkpt lat="43.519499" lon="-5.870918">
        <ele>76.4</ele>
        <time>2019-11-24T16:41:21Z</time>
      </trkpt>
      <trkpt lat="43.519417" lon="-5.870903">
        <ele>77.2</ele>
        <time>2019-11-24T16:41:22Z</time>
      </trkpt>
      <trkpt lat="43.519335" lon="-5.870892">
        <ele>77.6</ele>
        <time>2019-11-24T16:41:23Z</time>
      </trkpt>
      <trkpt lat="43.519254" lon="-5.870879">
        <ele>78</ele>
        <time>2019-11-24T16:41:24Z</time>
      </trkpt>
      <trkpt lat="43.519174" lon="-5.870864">
        <ele>77.4</ele>
        <time>2019-11-24T16:41:25Z</time>
      </trkpt>
      <trkpt lat="43.519094" lon="-5.870847">
        <ele>77.6</ele>
        <time>2019-11-24T16:41:26Z</time>
      </trkpt>
      <trkpt lat="43.519014" lon="-5.870829">
        <ele>77.6</ele>
        <time>2019-11-24T16:41:27Z</time>
      </trkpt>
      <trkpt lat="43.518935" lon="-5.87081">
        <ele>77.4</ele>
        <time>2019-11-24T16:41:28Z</time>
      </trkpt>
      <trkpt lat="43.518856" lon="-5.870788">
        <ele>77.4</ele>
        <time>2019-11-24T16:41:29Z</time>
      </trkpt>
      <trkpt lat="43.518776" lon="-5.870765">
        <ele>77.6</ele>
        <time>2019-11-24T16:41:30Z</time>
      </trkpt>
      <trkpt lat="43.518697" lon="-5.870742">
        <ele>77.4</ele>
        <time>2019-11-24T16:41:31Z</time>
      </trkpt>
      <trkpt lat="43.518617" lon="-5.870719">
        <ele>77</ele>
        <time>2019-11-24T16:41:32Z</time>
      </trkpt>
      <trkpt lat="43.518537" lon="-5.870698">
        <ele>77.2</ele>
        <time>2019-11-24T16:41:33Z</time>
      </trkpt>
      <trkpt lat="43.518458" lon="-5.870676">
        <ele>77.2</ele>
        <time>2019-11-24T16:41:34Z</time>
      </trkpt>
      <trkpt lat="43.518379" lon="-5.870656">
        <ele>77.4</ele>
        <time>2019-11-24T16:41:35Z</time>
      </trkpt>
      <trkpt lat="43.5183" lon="-5.870636">
        <ele>77.4</ele>
        <time>2019-11-24T16:41:36Z</time>
      </trkpt>
      <trkpt lat="43.518221" lon="-5.870616">
        <ele>77.2</ele>
        <time>2019-11-24T16:41:37Z</time>
      </trkpt>
      <trkpt lat="43.518143" lon="-5.870595">
        <ele>77.4</ele>
        <time>2019-11-24T16:41:38Z</time>
      </trkpt>
      <trkpt lat="43.518066" lon="-5.870575">
        <ele>77.8</ele>
        <time>2019-11-24T16:41:39Z</time>
      </trkpt>
      <trkpt lat="43.517989" lon="-5.870554">
        <ele>77.8</ele>
        <time>2019-11-24T16:41:40Z</time>
      </trkpt>
      <trkpt lat="43.517913" lon="-5.870534">
        <ele>77.6</ele>
        <time>2019-11-24T16:41:41Z</time>
      </trkpt>
      <trkpt lat="43.517837" lon="-5.870514">
        <ele>77.2</ele>
        <time>2019-11-24T16:41:42Z</time>
      </trkpt>
      <trkpt lat="43.517761" lon="-5.870495">
        <ele>77.4</ele>
        <time>2019-11-24T16:41:43Z</time>
      </trkpt>
      <trkpt lat="43.517684" lon="-5.870477">
        <ele>77.4</ele>
        <time>2019-11-24T16:41:44Z</time>
      </trkpt>
      <trkpt lat="43.517607" lon="-5.870462">
        <ele>77.4</ele>
        <time>2019-11-24T16:41:45Z</time>
      </trkpt>
      <trkpt lat="43.517531" lon="-5.870447">
        <ele>77.4</ele>
        <time>2019-11-24T16:41:46Z</time>
      </trkpt>
      <trkpt lat="43.517456" lon="-5.870435">
        <ele>77.4</ele>
        <time>2019-11-24T16:41:47Z</time>
      </trkpt>
      <trkpt lat="43.517381" lon="-5.870422">
        <ele>77.2</ele>
        <time>2019-11-24T16:41:48Z</time>
      </trkpt>
      <trkpt lat="43.517304" lon="-5.870412">
        <ele>77</ele>
        <time>2019-11-24T16:41:49Z</time>
      </trkpt>
      <trkpt lat="43.517228" lon="-5.870404">
        <ele>77.4</ele>
        <time>2019-11-24T16:41:50Z</time>
      </trkpt>
      <trkpt lat="43.51715" lon="-5.870397">
        <ele>77.2</ele>
        <time>2019-11-24T16:41:51Z</time>
      </trkpt>
      <trkpt lat="43.517072" lon="-5.870386">
        <ele>76.8</ele>
        <time>2019-11-24T16:41:52Z</time>
      </trkpt>
      <trkpt lat="43.516994" lon="-5.870376">
        <ele>76.8</ele>
        <time>2019-11-24T16:41:53Z</time>
      </trkpt>
      <trkpt lat="43.516917" lon="-5.870363">
        <ele>76.6</ele>
        <time>2019-11-24T16:41:54Z</time>
      </trkpt>
      <trkpt lat="43.51684" lon="-5.870353">
        <ele>76.8</ele>
        <time>2019-11-24T16:41:55Z</time>
      </trkpt>
      <trkpt lat="43.516763" lon="-5.870342">
        <ele>76.8</ele>
        <time>2019-11-24T16:41:56Z</time>
      </trkpt>
      <trkpt lat="43.516687" lon="-5.870334">
        <ele>76.8</ele>
        <time>2019-11-24T16:41:57Z</time>
      </trkpt>
      <trkpt lat="43.516612" lon="-5.870327">
        <ele>76.6</ele>
        <time>2019-11-24T16:41:58Z</time>
      </trkpt>
      <trkpt lat="43.516537" lon="-5.87032">
        <ele>76.6</ele>
        <time>2019-11-24T16:41:59Z</time>
      </trkpt>
      <trkpt lat="43.516462" lon="-5.87031">
        <ele>76.8</ele>
        <time>2019-11-24T16:42:00Z</time>
      </trkpt>
      <trkpt lat="43.516387" lon="-5.8703">
        <ele>76.8</ele>
        <time>2019-11-24T16:42:01Z</time>
      </trkpt>
      <trkpt lat="43.516311" lon="-5.870291">
        <ele>77</ele>
        <time>2019-11-24T16:42:02Z</time>
      </trkpt>
      <trkpt lat="43.516238" lon="-5.870281">
        <ele>77.4</ele>
        <time>2019-11-24T16:42:03Z</time>
      </trkpt>
      <trkpt lat="43.516164" lon="-5.87027">
        <ele>77.2</ele>
        <time>2019-11-24T16:42:04Z</time>
      </trkpt>
      <trkpt lat="43.516089" lon="-5.870258">
        <ele>77.4</ele>
        <time>2019-11-24T16:42:05Z</time>
      </trkpt>
      <trkpt lat="43.516016" lon="-5.870247">
        <ele>78.2</ele>
        <time>2019-11-24T16:42:06Z</time>
      </trkpt>
      <trkpt lat="43.515942" lon="-5.870234">
        <ele>77.8</ele>
        <time>2019-11-24T16:42:07Z</time>
      </trkpt>
      <trkpt lat="43.515869" lon="-5.87022">
        <ele>77.8</ele>
        <time>2019-11-24T16:42:08Z</time>
      </trkpt>
      <trkpt lat="43.515796" lon="-5.870207">
        <ele>77.4</ele>
        <time>2019-11-24T16:42:09Z</time>
      </trkpt>
      <trkpt lat="43.515723" lon="-5.870201">
        <ele>78.8</ele>
        <time>2019-11-24T16:42:10Z</time>
      </trkpt>
      <trkpt lat="43.51565" lon="-5.870197">
        <ele>78</ele>
        <time>2019-11-24T16:42:11Z</time>
      </trkpt>
      <trkpt lat="43.51558" lon="-5.870191">
        <ele>77.6</ele>
        <time>2019-11-24T16:42:12Z</time>
      </trkpt>
      <trkpt lat="43.515509" lon="-5.870183">
        <ele>78.4</ele>
        <time>2019-11-24T16:42:13Z</time>
      </trkpt>
      <trkpt lat="43.515435" lon="-5.87017">
        <ele>78.4</ele>
        <time>2019-11-24T16:42:14Z</time>
      </trkpt>
      <trkpt lat="43.515364" lon="-5.870157">
        <ele>76.4</ele>
        <time>2019-11-24T16:42:15Z</time>
      </trkpt>
      <trkpt lat="43.515294" lon="-5.870145">
        <ele>79.2</ele>
        <time>2019-11-24T16:42:16Z</time>
      </trkpt>
      <trkpt lat="43.515223" lon="-5.870132">
        <ele>79</ele>
        <time>2019-11-24T16:42:17Z</time>
      </trkpt>
      <trkpt lat="43.515153" lon="-5.870122">
        <ele>79</ele>
        <time>2019-11-24T16:42:18Z</time>
      </trkpt>
      <trkpt lat="43.515084" lon="-5.87011">
        <ele>79</ele>
        <time>2019-11-24T16:42:19Z</time>
      </trkpt>
      <trkpt lat="43.515016" lon="-5.870096">
        <ele>78.8</ele>
        <time>2019-11-24T16:42:20Z</time>
      </trkpt>
      <trkpt lat="43.514948" lon="-5.870082">
        <ele>79</ele>
        <time>2019-11-24T16:42:21Z</time>
      </trkpt>
      <trkpt lat="43.51488" lon="-5.870068">
        <ele>79.2</ele>
        <time>2019-11-24T16:42:22Z</time>
      </trkpt>
      <trkpt lat="43.514813" lon="-5.870054">
        <ele>78.8</ele>
        <time>2019-11-24T16:42:23Z</time>
      </trkpt>
      <trkpt lat="43.514744" lon="-5.870037">
        <ele>79</ele>
        <time>2019-11-24T16:42:24Z</time>
      </trkpt>
      <trkpt lat="43.514675" lon="-5.870018">
        <ele>78.8</ele>
        <time>2019-11-24T16:42:25Z</time>
      </trkpt>
      <trkpt lat="43.514605" lon="-5.869996">
        <ele>78.8</ele>
        <time>2019-11-24T16:42:26Z</time>
      </trkpt>
      <trkpt lat="43.514536" lon="-5.869974">
        <ele>78.4</ele>
        <time>2019-11-24T16:42:27Z</time>
      </trkpt>
      <trkpt lat="43.514466" lon="-5.86995">
        <ele>78.8</ele>
        <time>2019-11-24T16:42:28Z</time>
      </trkpt>
      <trkpt lat="43.514395" lon="-5.869924">
        <ele>78.4</ele>
        <time>2019-11-24T16:42:29Z</time>
      </trkpt>
      <trkpt lat="43.514323" lon="-5.869898">
        <ele>77.8</ele>
        <time>2019-11-24T16:42:30Z</time>
      </trkpt>
      <trkpt lat="43.514249" lon="-5.869873">
        <ele>77.4</ele>
        <time>2019-11-24T16:42:31Z</time>
      </trkpt>
      <trkpt lat="43.514175" lon="-5.869845">
        <ele>77.2</ele>
        <time>2019-11-24T16:42:32Z</time>
      </trkpt>
      <trkpt lat="43.514098" lon="-5.869817">
        <ele>77</ele>
        <time>2019-11-24T16:42:33Z</time>
      </trkpt>
      <trkpt lat="43.51402" lon="-5.869788">
        <ele>76.6</ele>
        <time>2019-11-24T16:42:34Z</time>
      </trkpt>
      <trkpt lat="43.513938" lon="-5.869759">
        <ele>75.8</ele>
        <time>2019-11-24T16:42:35Z</time>
      </trkpt>
      <trkpt lat="43.513854" lon="-5.869729">
        <ele>75</ele>
        <time>2019-11-24T16:42:36Z</time>
      </trkpt>
      <trkpt lat="43.513766" lon="-5.869698">
        <ele>74.4</ele>
        <time>2019-11-24T16:42:37Z</time>
      </trkpt>
      <trkpt lat="43.513677" lon="-5.869667">
        <ele>73.4</ele>
        <time>2019-11-24T16:42:38Z</time>
      </trkpt>
      <trkpt lat="43.513587" lon="-5.869635">
        <ele>73.2</ele>
        <time>2019-11-24T16:42:39Z</time>
      </trkpt>
      <trkpt lat="43.513496" lon="-5.869601">
        <ele>72.8</ele>
        <time>2019-11-24T16:42:40Z</time>
      </trkpt>
      <trkpt lat="43.513407" lon="-5.869571">
        <ele>72.6</ele>
        <time>2019-11-24T16:42:41Z</time>
      </trkpt>
      <trkpt lat="43.513315" lon="-5.869544">
        <ele>72.4</ele>
        <time>2019-11-24T16:42:42Z</time>
      </trkpt>
      <trkpt lat="43.51322" lon="-5.869524">
        <ele>73</ele>
        <time>2019-11-24T16:42:43Z</time>
      </trkpt>
      <trkpt lat="43.513126" lon="-5.869498">
        <ele>72.8</ele>
        <time>2019-11-24T16:42:44Z</time>
      </trkpt>
      <trkpt lat="43.513034" lon="-5.869474">
        <ele>73</ele>
        <time>2019-11-24T16:42:45Z</time>
      </trkpt>
      <trkpt lat="43.512948" lon="-5.869444">
        <ele>74</ele>
        <time>2019-11-24T16:42:46Z</time>
      </trkpt>
      <trkpt lat="43.512868" lon="-5.86941">
        <ele>74.2</ele>
        <time>2019-11-24T16:42:47Z</time>
      </trkpt>
      <trkpt lat="43.51279" lon="-5.869372">
        <ele>75</ele>
        <time>2019-11-24T16:42:48Z</time>
      </trkpt>
      <trkpt lat="43.512714" lon="-5.869335">
        <ele>75.8</ele>
        <time>2019-11-24T16:42:49Z</time>
      </trkpt>
      <trkpt lat="43.512641" lon="-5.8693">
        <ele>76.6</ele>
        <time>2019-11-24T16:42:50Z</time>
      </trkpt>
      <trkpt lat="43.51257" lon="-5.86927">
        <ele>75.8</ele>
        <time>2019-11-24T16:42:51Z</time>
      </trkpt>
      <trkpt lat="43.5125" lon="-5.869243">
        <ele>76.2</ele>
        <time>2019-11-24T16:42:52Z</time>
      </trkpt>
      <trkpt lat="43.512428" lon="-5.869213">
        <ele>76.6</ele>
        <time>2019-11-24T16:42:53Z</time>
      </trkpt>
      <trkpt lat="43.512355" lon="-5.869186">
        <ele>76.2</ele>
        <time>2019-11-24T16:42:54Z</time>
      </trkpt>
      <trkpt lat="43.512284" lon="-5.86916">
        <ele>76.2</ele>
        <time>2019-11-24T16:42:55Z</time>
      </trkpt>
      <trkpt lat="43.512213" lon="-5.869134">
        <ele>76.2</ele>
        <time>2019-11-24T16:42:56Z</time>
      </trkpt>
      <trkpt lat="43.512142" lon="-5.869109">
        <ele>76</ele>
        <time>2019-11-24T16:42:57Z</time>
      </trkpt>
      <trkpt lat="43.512069" lon="-5.869083">
        <ele>76.2</ele>
        <time>2019-11-24T16:42:58Z</time>
      </trkpt>
      <trkpt lat="43.511998" lon="-5.869054">
        <ele>76.4</ele>
        <time>2019-11-24T16:42:59Z</time>
      </trkpt>
      <trkpt lat="43.511927" lon="-5.869025">
        <ele>76</ele>
        <time>2019-11-24T16:43:00Z</time>
      </trkpt>
      <trkpt lat="43.511855" lon="-5.868999">
        <ele>76.2</ele>
        <time>2019-11-24T16:43:01Z</time>
      </trkpt>
      <trkpt lat="43.511782" lon="-5.868974">
        <ele>76</ele>
        <time>2019-11-24T16:43:02Z</time>
      </trkpt>
      <trkpt lat="43.511708" lon="-5.868948">
        <ele>76.2</ele>
        <time>2019-11-24T16:43:03Z</time>
      </trkpt>
      <trkpt lat="43.511634" lon="-5.868918">
        <ele>76.4</ele>
        <time>2019-11-24T16:43:04Z</time>
      </trkpt>
      <trkpt lat="43.511563" lon="-5.868893">
        <ele>76.4</ele>
        <time>2019-11-24T16:43:05Z</time>
      </trkpt>
      <trkpt lat="43.511493" lon="-5.868869">
        <ele>76.4</ele>
        <time>2019-11-24T16:43:06Z</time>
      </trkpt>
      <trkpt lat="43.511422" lon="-5.868845">
        <ele>76.4</ele>
        <time>2019-11-24T16:43:07Z</time>
      </trkpt>
      <trkpt lat="43.511352" lon="-5.868821">
        <ele>76.4</ele>
        <time>2019-11-24T16:43:08Z</time>
      </trkpt>
      <trkpt lat="43.511283" lon="-5.868795">
        <ele>76.2</ele>
        <time>2019-11-24T16:43:09Z</time>
      </trkpt>
      <trkpt lat="43.511207" lon="-5.868764">
        <ele>76.8</ele>
        <time>2019-11-24T16:43:10Z</time>
      </trkpt>
      <trkpt lat="43.511137" lon="-5.868736">
        <ele>76.6</ele>
        <time>2019-11-24T16:43:11Z</time>
      </trkpt>
      <trkpt lat="43.511067" lon="-5.868706">
        <ele>76.6</ele>
        <time>2019-11-24T16:43:12Z</time>
      </trkpt>
      <trkpt lat="43.510995" lon="-5.868673">
        <ele>76.4</ele>
        <time>2019-11-24T16:43:13Z</time>
      </trkpt>
      <trkpt lat="43.510925" lon="-5.868641">
        <ele>76.8</ele>
        <time>2019-11-24T16:43:14Z</time>
      </trkpt>
      <trkpt lat="43.510857" lon="-5.86861">
        <ele>76.4</ele>
        <time>2019-11-24T16:43:15Z</time>
      </trkpt>
      <trkpt lat="43.510787" lon="-5.86858">
        <ele>76.8</ele>
        <time>2019-11-24T16:43:16Z</time>
      </trkpt>
      <trkpt lat="43.510718" lon="-5.868553">
        <ele>76.8</ele>
        <time>2019-11-24T16:43:17Z</time>
      </trkpt>
      <trkpt lat="43.510648" lon="-5.868524">
        <ele>76.2</ele>
        <time>2019-11-24T16:43:18Z</time>
      </trkpt>
      <trkpt lat="43.510579" lon="-5.868493">
        <ele>76.8</ele>
        <time>2019-11-24T16:43:19Z</time>
      </trkpt>
      <trkpt lat="43.510509" lon="-5.868463">
        <ele>77</ele>
        <time>2019-11-24T16:43:20Z</time>
      </trkpt>
      <trkpt lat="43.510438" lon="-5.868434">
        <ele>76</ele>
        <time>2019-11-24T16:43:21Z</time>
      </trkpt>
      <trkpt lat="43.510367" lon="-5.868404">
        <ele>76.6</ele>
        <time>2019-11-24T16:43:22Z</time>
      </trkpt>
      <trkpt lat="43.510296" lon="-5.868376">
        <ele>76.6</ele>
        <time>2019-11-24T16:43:23Z</time>
      </trkpt>
      <trkpt lat="43.510225" lon="-5.868347">
        <ele>77</ele>
        <time>2019-11-24T16:43:24Z</time>
      </trkpt>
      <trkpt lat="43.510154" lon="-5.868315">
        <ele>77</ele>
        <time>2019-11-24T16:43:25Z</time>
      </trkpt>
      <trkpt lat="43.510083" lon="-5.868282">
        <ele>77.6</ele>
        <time>2019-11-24T16:43:26Z</time>
      </trkpt>
      <trkpt lat="43.510012" lon="-5.86825">
        <ele>77.2</ele>
        <time>2019-11-24T16:43:27Z</time>
      </trkpt>
      <trkpt lat="43.509938" lon="-5.868217">
        <ele>77</ele>
        <time>2019-11-24T16:43:28Z</time>
      </trkpt>
      <trkpt lat="43.509864" lon="-5.868185">
        <ele>77</ele>
        <time>2019-11-24T16:43:29Z</time>
      </trkpt>
      <trkpt lat="43.509791" lon="-5.868153">
        <ele>77.2</ele>
        <time>2019-11-24T16:43:30Z</time>
      </trkpt>
      <trkpt lat="43.509719" lon="-5.868121">
        <ele>77</ele>
        <time>2019-11-24T16:43:31Z</time>
      </trkpt>
      <trkpt lat="43.509648" lon="-5.86809">
        <ele>76.8</ele>
        <time>2019-11-24T16:43:32Z</time>
      </trkpt>
      <trkpt lat="43.509577" lon="-5.868058">
        <ele>77</ele>
        <time>2019-11-24T16:43:33Z</time>
      </trkpt>
      <trkpt lat="43.509506" lon="-5.868026">
        <ele>77.2</ele>
        <time>2019-11-24T16:43:34Z</time>
      </trkpt>
      <trkpt lat="43.509436" lon="-5.867993">
        <ele>76.8</ele>
        <time>2019-11-24T16:43:35Z</time>
      </trkpt>
      <trkpt lat="43.509365" lon="-5.867963">
        <ele>76.8</ele>
        <time>2019-11-24T16:43:36Z</time>
      </trkpt>
      <trkpt lat="43.509294" lon="-5.867932">
        <ele>76.8</ele>
        <time>2019-11-24T16:43:37Z</time>
      </trkpt>
      <trkpt lat="43.509222" lon="-5.867901">
        <ele>77.2</ele>
        <time>2019-11-24T16:43:38Z</time>
      </trkpt>
      <trkpt lat="43.509152" lon="-5.867869">
        <ele>77.2</ele>
        <time>2019-11-24T16:43:39Z</time>
      </trkpt>
      <trkpt lat="43.509081" lon="-5.867837">
        <ele>77</ele>
        <time>2019-11-24T16:43:40Z</time>
      </trkpt>
      <trkpt lat="43.509011" lon="-5.867807">
        <ele>77.4</ele>
        <time>2019-11-24T16:43:41Z</time>
      </trkpt>
      <trkpt lat="43.508939" lon="-5.867776">
        <ele>77.6</ele>
        <time>2019-11-24T16:43:42Z</time>
      </trkpt>
      <trkpt lat="43.508868" lon="-5.867745">
        <ele>77.6</ele>
        <time>2019-11-24T16:43:43Z</time>
      </trkpt>
      <trkpt lat="43.508797" lon="-5.867714">
        <ele>77.4</ele>
        <time>2019-11-24T16:43:44Z</time>
      </trkpt>
      <trkpt lat="43.508726" lon="-5.867685">
        <ele>77.4</ele>
        <time>2019-11-24T16:43:45Z</time>
      </trkpt>
      <trkpt lat="43.508656" lon="-5.867657">
        <ele>77.6</ele>
        <time>2019-11-24T16:43:46Z</time>
      </trkpt>
      <trkpt lat="43.508587" lon="-5.867627">
        <ele>77.4</ele>
        <time>2019-11-24T16:43:47Z</time>
      </trkpt>
      <trkpt lat="43.508518" lon="-5.867596">
        <ele>77.8</ele>
        <time>2019-11-24T16:43:48Z</time>
      </trkpt>
      <trkpt lat="43.508449" lon="-5.867565">
        <ele>77.8</ele>
        <time>2019-11-24T16:43:49Z</time>
      </trkpt>
      <trkpt lat="43.508381" lon="-5.867533">
        <ele>78</ele>
        <time>2019-11-24T16:43:50Z</time>
      </trkpt>
      <trkpt lat="43.508313" lon="-5.867501">
        <ele>78</ele>
        <time>2019-11-24T16:43:51Z</time>
      </trkpt>
      <trkpt lat="43.508245" lon="-5.867469">
        <ele>78.2</ele>
        <time>2019-11-24T16:43:52Z</time>
      </trkpt>
      <trkpt lat="43.508176" lon="-5.867438">
        <ele>78.2</ele>
        <time>2019-11-24T16:43:53Z</time>
      </trkpt>
      <trkpt lat="43.508107" lon="-5.867408">
        <ele>77.6</ele>
        <time>2019-11-24T16:43:54Z</time>
      </trkpt>
      <trkpt lat="43.508038" lon="-5.867379">
        <ele>78</ele>
        <time>2019-11-24T16:43:55Z</time>
      </trkpt>
      <trkpt lat="43.50797" lon="-5.86735">
        <ele>78</ele>
        <time>2019-11-24T16:43:56Z</time>
      </trkpt>
      <trkpt lat="43.507901" lon="-5.867321">
        <ele>78</ele>
        <time>2019-11-24T16:43:57Z</time>
      </trkpt>
      <trkpt lat="43.507833" lon="-5.867292">
        <ele>78</ele>
        <time>2019-11-24T16:43:58Z</time>
      </trkpt>
      <trkpt lat="43.507764" lon="-5.867263">
        <ele>78.6</ele>
        <time>2019-11-24T16:43:59Z</time>
      </trkpt>
      <trkpt lat="43.507696" lon="-5.867234">
        <ele>79</ele>
        <time>2019-11-24T16:44:00Z</time>
      </trkpt>
      <trkpt lat="43.507626" lon="-5.867205">
        <ele>78.6</ele>
        <time>2019-11-24T16:44:01Z</time>
      </trkpt>
      <trkpt lat="43.507557" lon="-5.867175">
        <ele>78.2</ele>
        <time>2019-11-24T16:44:02Z</time>
      </trkpt>
      <trkpt lat="43.507487" lon="-5.867145">
        <ele>78.4</ele>
        <time>2019-11-24T16:44:03Z</time>
      </trkpt>
      <trkpt lat="43.507418" lon="-5.867115">
        <ele>78.6</ele>
        <time>2019-11-24T16:44:04Z</time>
      </trkpt>
      <trkpt lat="43.507349" lon="-5.867084">
        <ele>78.6</ele>
        <time>2019-11-24T16:44:05Z</time>
      </trkpt>
      <trkpt lat="43.507281" lon="-5.867052">
        <ele>78.4</ele>
        <time>2019-11-24T16:44:06Z</time>
      </trkpt>
      <trkpt lat="43.507213" lon="-5.867021">
        <ele>78.8</ele>
        <time>2019-11-24T16:44:07Z</time>
      </trkpt>
      <trkpt lat="43.507144" lon="-5.866992">
        <ele>79.4</ele>
        <time>2019-11-24T16:44:08Z</time>
      </trkpt>
      <trkpt lat="43.507076" lon="-5.866964">
        <ele>79</ele>
        <time>2019-11-24T16:44:09Z</time>
      </trkpt>
      <trkpt lat="43.507009" lon="-5.866935">
        <ele>79.2</ele>
        <time>2019-11-24T16:44:10Z</time>
      </trkpt>
      <trkpt lat="43.506943" lon="-5.866905">
        <ele>79.2</ele>
        <time>2019-11-24T16:44:11Z</time>
      </trkpt>
      <trkpt lat="43.506877" lon="-5.866876">
        <ele>79.6</ele>
        <time>2019-11-24T16:44:12Z</time>
      </trkpt>
      <trkpt lat="43.50681" lon="-5.866846">
        <ele>79.6</ele>
        <time>2019-11-24T16:44:13Z</time>
      </trkpt>
      <trkpt lat="43.506745" lon="-5.866815">
        <ele>79.8</ele>
        <time>2019-11-24T16:44:14Z</time>
      </trkpt>
      <trkpt lat="43.506678" lon="-5.866785">
        <ele>79.4</ele>
        <time>2019-11-24T16:44:15Z</time>
      </trkpt>
      <trkpt lat="43.506611" lon="-5.866758">
        <ele>79.4</ele>
        <time>2019-11-24T16:44:16Z</time>
      </trkpt>
      <trkpt lat="43.506543" lon="-5.866732">
        <ele>80</ele>
        <time>2019-11-24T16:44:17Z</time>
      </trkpt>
      <trkpt lat="43.506476" lon="-5.866707">
        <ele>80</ele>
        <time>2019-11-24T16:44:18Z</time>
      </trkpt>
      <trkpt lat="43.506411" lon="-5.866681">
        <ele>80.2</ele>
        <time>2019-11-24T16:44:19Z</time>
      </trkpt>
      <trkpt lat="43.506346" lon="-5.866654">
        <ele>79.2</ele>
        <time>2019-11-24T16:44:20Z</time>
      </trkpt>
      <trkpt lat="43.506281" lon="-5.866626">
        <ele>79.6</ele>
        <time>2019-11-24T16:44:21Z</time>
      </trkpt>
      <trkpt lat="43.506215" lon="-5.866597">
        <ele>80.2</ele>
        <time>2019-11-24T16:44:22Z</time>
      </trkpt>
      <trkpt lat="43.50615" lon="-5.86657">
        <ele>80.2</ele>
        <time>2019-11-24T16:44:23Z</time>
      </trkpt>
      <trkpt lat="43.506086" lon="-5.866543">
        <ele>80.4</ele>
        <time>2019-11-24T16:44:24Z</time>
      </trkpt>
      <trkpt lat="43.506023" lon="-5.866515">
        <ele>80.6</ele>
        <time>2019-11-24T16:44:25Z</time>
      </trkpt>
      <trkpt lat="43.50596" lon="-5.866487">
        <ele>80.8</ele>
        <time>2019-11-24T16:44:26Z</time>
      </trkpt>
      <trkpt lat="43.505898" lon="-5.866461">
        <ele>80.8</ele>
        <time>2019-11-24T16:44:27Z</time>
      </trkpt>
      <trkpt lat="43.505836" lon="-5.866434">
        <ele>80.8</ele>
        <time>2019-11-24T16:44:28Z</time>
      </trkpt>
      <trkpt lat="43.505776" lon="-5.866406">
        <ele>81.2</ele>
        <time>2019-11-24T16:44:29Z</time>
      </trkpt>
      <trkpt lat="43.505716" lon="-5.866378">
        <ele>81.4</ele>
        <time>2019-11-24T16:44:30Z</time>
      </trkpt>
      <trkpt lat="43.505656" lon="-5.866349">
        <ele>81</ele>
        <time>2019-11-24T16:44:31Z</time>
      </trkpt>
      <trkpt lat="43.505596" lon="-5.86632">
        <ele>81.4</ele>
        <time>2019-11-24T16:44:32Z</time>
      </trkpt>
      <trkpt lat="43.505538" lon="-5.86629">
        <ele>81.4</ele>
        <time>2019-11-24T16:44:33Z</time>
      </trkpt>
      <trkpt lat="43.505481" lon="-5.866257">
        <ele>82.6</ele>
        <time>2019-11-24T16:44:34Z</time>
      </trkpt>
      <trkpt lat="43.505425" lon="-5.866222">
        <ele>82.4</ele>
        <time>2019-11-24T16:44:35Z</time>
      </trkpt>
      <trkpt lat="43.505371" lon="-5.866185">
        <ele>82.2</ele>
        <time>2019-11-24T16:44:36Z</time>
      </trkpt>
      <trkpt lat="43.505318" lon="-5.866146">
        <ele>82.4</ele>
        <time>2019-11-24T16:44:37Z</time>
      </trkpt>
      <trkpt lat="43.505265" lon="-5.866106">
        <ele>82.6</ele>
        <time>2019-11-24T16:44:38Z</time>
      </trkpt>
      <trkpt lat="43.505215" lon="-5.866063">
        <ele>83</ele>
        <time>2019-11-24T16:44:39Z</time>
      </trkpt>
      <trkpt lat="43.505165" lon="-5.866016">
        <ele>82.8</ele>
        <time>2019-11-24T16:44:40Z</time>
      </trkpt>
      <trkpt lat="43.505117" lon="-5.865968">
        <ele>82.6</ele>
        <time>2019-11-24T16:44:41Z</time>
      </trkpt>
      <trkpt lat="43.50507" lon="-5.865918">
        <ele>83</ele>
        <time>2019-11-24T16:44:42Z</time>
      </trkpt>
      <trkpt lat="43.505023" lon="-5.865867">
        <ele>82.8</ele>
        <time>2019-11-24T16:44:43Z</time>
      </trkpt>
      <trkpt lat="43.504977" lon="-5.865815">
        <ele>83.4</ele>
        <time>2019-11-24T16:44:44Z</time>
      </trkpt>
      <trkpt lat="43.504931" lon="-5.865763">
        <ele>83.4</ele>
        <time>2019-11-24T16:44:45Z</time>
      </trkpt>
      <trkpt lat="43.504886" lon="-5.86571">
        <ele>83.2</ele>
        <time>2019-11-24T16:44:46Z</time>
      </trkpt>
      <trkpt lat="43.504841" lon="-5.865658">
        <ele>83.2</ele>
        <time>2019-11-24T16:44:47Z</time>
      </trkpt>
      <trkpt lat="43.504797" lon="-5.865603">
        <ele>83.6</ele>
        <time>2019-11-24T16:44:48Z</time>
      </trkpt>
      <trkpt lat="43.504754" lon="-5.865547">
        <ele>84</ele>
        <time>2019-11-24T16:44:49Z</time>
      </trkpt>
      <trkpt lat="43.504711" lon="-5.865491">
        <ele>84.2</ele>
        <time>2019-11-24T16:44:50Z</time>
      </trkpt>
      <trkpt lat="43.504668" lon="-5.865433">
        <ele>84</ele>
        <time>2019-11-24T16:44:51Z</time>
      </trkpt>
      <trkpt lat="43.504628" lon="-5.865375">
        <ele>84.2</ele>
        <time>2019-11-24T16:44:52Z</time>
      </trkpt>
      <trkpt lat="43.504587" lon="-5.865315">
        <ele>84.2</ele>
        <time>2019-11-24T16:44:53Z</time>
      </trkpt>
      <trkpt lat="43.504546" lon="-5.865256">
        <ele>84.4</ele>
        <time>2019-11-24T16:44:54Z</time>
      </trkpt>
      <trkpt lat="43.504505" lon="-5.865196">
        <ele>84.8</ele>
        <time>2019-11-24T16:44:55Z</time>
      </trkpt>
      <trkpt lat="43.504464" lon="-5.865136">
        <ele>84.8</ele>
        <time>2019-11-24T16:44:56Z</time>
      </trkpt>
      <trkpt lat="43.504423" lon="-5.865076">
        <ele>84.8</ele>
        <time>2019-11-24T16:44:57Z</time>
      </trkpt>
      <trkpt lat="43.504382" lon="-5.865015">
        <ele>85</ele>
        <time>2019-11-24T16:44:58Z</time>
      </trkpt>
      <trkpt lat="43.504342" lon="-5.864954">
        <ele>85</ele>
        <time>2019-11-24T16:44:59Z</time>
      </trkpt>
      <trkpt lat="43.504303" lon="-5.864892">
        <ele>85</ele>
        <time>2019-11-24T16:45:00Z</time>
      </trkpt>
      <trkpt lat="43.504264" lon="-5.864831">
        <ele>85.6</ele>
        <time>2019-11-24T16:45:01Z</time>
      </trkpt>
      <trkpt lat="43.504224" lon="-5.864771">
        <ele>85.8</ele>
        <time>2019-11-24T16:45:02Z</time>
      </trkpt>
      <trkpt lat="43.504185" lon="-5.86471">
        <ele>85.6</ele>
        <time>2019-11-24T16:45:03Z</time>
      </trkpt>
      <trkpt lat="43.504147" lon="-5.864649">
        <ele>86.2</ele>
        <time>2019-11-24T16:45:04Z</time>
      </trkpt>
      <trkpt lat="43.504108" lon="-5.864587">
        <ele>86</ele>
        <time>2019-11-24T16:45:05Z</time>
      </trkpt>
      <trkpt lat="43.504068" lon="-5.864526">
        <ele>86.2</ele>
        <time>2019-11-24T16:45:06Z</time>
      </trkpt>
      <trkpt lat="43.504029" lon="-5.864464">
        <ele>86.4</ele>
        <time>2019-11-24T16:45:07Z</time>
      </trkpt>
      <trkpt lat="43.50399" lon="-5.864402">
        <ele>86.6</ele>
        <time>2019-11-24T16:45:08Z</time>
      </trkpt>
      <trkpt lat="43.503951" lon="-5.864341">
        <ele>86.8</ele>
        <time>2019-11-24T16:45:09Z</time>
      </trkpt>
      <trkpt lat="43.503911" lon="-5.864279">
        <ele>86.6</ele>
        <time>2019-11-24T16:45:10Z</time>
      </trkpt>
      <trkpt lat="43.503872" lon="-5.864218">
        <ele>86.4</ele>
        <time>2019-11-24T16:45:11Z</time>
      </trkpt>
      <trkpt lat="43.503833" lon="-5.864155">
        <ele>86.6</ele>
        <time>2019-11-24T16:45:12Z</time>
      </trkpt>
      <trkpt lat="43.503793" lon="-5.864092">
        <ele>86.8</ele>
        <time>2019-11-24T16:45:13Z</time>
      </trkpt>
      <trkpt lat="43.503754" lon="-5.864028">
        <ele>86.8</ele>
        <time>2019-11-24T16:45:14Z</time>
      </trkpt>
      <trkpt lat="43.503714" lon="-5.863965">
        <ele>86.8</ele>
        <time>2019-11-24T16:45:15Z</time>
      </trkpt>
      <trkpt lat="43.503675" lon="-5.863901">
        <ele>87.2</ele>
        <time>2019-11-24T16:45:16Z</time>
      </trkpt>
      <trkpt lat="43.503635" lon="-5.863836">
        <ele>87</ele>
        <time>2019-11-24T16:45:17Z</time>
      </trkpt>
      <trkpt lat="43.503597" lon="-5.863772">
        <ele>87.2</ele>
        <time>2019-11-24T16:45:18Z</time>
      </trkpt>
      <trkpt lat="43.503561" lon="-5.863708">
        <ele>87.4</ele>
        <time>2019-11-24T16:45:19Z</time>
      </trkpt>
      <trkpt lat="43.503525" lon="-5.863644">
        <ele>87.4</ele>
        <time>2019-11-24T16:45:20Z</time>
      </trkpt>
      <trkpt lat="43.503488" lon="-5.863582">
        <ele>87.6</ele>
        <time>2019-11-24T16:45:21Z</time>
      </trkpt>
      <trkpt lat="43.503451" lon="-5.86352">
        <ele>87.6</ele>
        <time>2019-11-24T16:45:22Z</time>
      </trkpt>
      <trkpt lat="43.503415" lon="-5.863456">
        <ele>87.8</ele>
        <time>2019-11-24T16:45:23Z</time>
      </trkpt>
      <trkpt lat="43.503379" lon="-5.863392">
        <ele>88</ele>
        <time>2019-11-24T16:45:24Z</time>
      </trkpt>
      <trkpt lat="43.503342" lon="-5.863329">
        <ele>88.2</ele>
        <time>2019-11-24T16:45:25Z</time>
      </trkpt>
      <trkpt lat="43.503304" lon="-5.863266">
        <ele>88.4</ele>
        <time>2019-11-24T16:45:26Z</time>
      </trkpt>
      <trkpt lat="43.503265" lon="-5.863205">
        <ele>88.6</ele>
        <time>2019-11-24T16:45:27Z</time>
      </trkpt>
      <trkpt lat="43.503224" lon="-5.863145">
        <ele>88.4</ele>
        <time>2019-11-24T16:45:28Z</time>
      </trkpt>
      <trkpt lat="43.503183" lon="-5.863086">
        <ele>88.2</ele>
        <time>2019-11-24T16:45:29Z</time>
      </trkpt>
      <trkpt lat="43.503141" lon="-5.863026">
        <ele>88.8</ele>
        <time>2019-11-24T16:45:30Z</time>
      </trkpt>
      <trkpt lat="43.503097" lon="-5.862968">
        <ele>88.6</ele>
        <time>2019-11-24T16:45:31Z</time>
      </trkpt>
      <trkpt lat="43.50305" lon="-5.862913">
        <ele>88.6</ele>
        <time>2019-11-24T16:45:32Z</time>
      </trkpt>
      <trkpt lat="43.503002" lon="-5.862856">
        <ele>88.4</ele>
        <time>2019-11-24T16:45:33Z</time>
      </trkpt>
      <trkpt lat="43.502954" lon="-5.862801">
        <ele>88.2</ele>
        <time>2019-11-24T16:45:34Z</time>
      </trkpt>
      <trkpt lat="43.502905" lon="-5.862748">
        <ele>88.2</ele>
        <time>2019-11-24T16:45:35Z</time>
      </trkpt>
      <trkpt lat="43.502855" lon="-5.862696">
        <ele>88.4</ele>
        <time>2019-11-24T16:45:36Z</time>
      </trkpt>
      <trkpt lat="43.502803" lon="-5.862644">
        <ele>88.6</ele>
        <time>2019-11-24T16:45:37Z</time>
      </trkpt>
      <trkpt lat="43.502751" lon="-5.862591">
        <ele>88.8</ele>
        <time>2019-11-24T16:45:38Z</time>
      </trkpt>
      <trkpt lat="43.502699" lon="-5.862538">
        <ele>88.8</ele>
        <time>2019-11-24T16:45:39Z</time>
      </trkpt>
      <trkpt lat="43.502645" lon="-5.862487">
        <ele>88.2</ele>
        <time>2019-11-24T16:45:40Z</time>
      </trkpt>
      <trkpt lat="43.50259" lon="-5.862435">
        <ele>88.6</ele>
        <time>2019-11-24T16:45:41Z</time>
      </trkpt>
      <trkpt lat="43.502536" lon="-5.862383">
        <ele>88.6</ele>
        <time>2019-11-24T16:45:42Z</time>
      </trkpt>
      <trkpt lat="43.502481" lon="-5.862329">
        <ele>88.4</ele>
        <time>2019-11-24T16:45:43Z</time>
      </trkpt>
      <trkpt lat="43.502426" lon="-5.862276">
        <ele>88.6</ele>
        <time>2019-11-24T16:45:44Z</time>
      </trkpt>
      <trkpt lat="43.502373" lon="-5.862221">
        <ele>88.6</ele>
        <time>2019-11-24T16:45:45Z</time>
      </trkpt>
      <trkpt lat="43.50232" lon="-5.862168">
        <ele>88.8</ele>
        <time>2019-11-24T16:45:46Z</time>
      </trkpt>
      <trkpt lat="43.502267" lon="-5.862114">
        <ele>88.8</ele>
        <time>2019-11-24T16:45:47Z</time>
      </trkpt>
      <trkpt lat="43.502213" lon="-5.862063">
        <ele>89</ele>
        <time>2019-11-24T16:45:48Z</time>
      </trkpt>
      <trkpt lat="43.502159" lon="-5.862007">
        <ele>89.2</ele>
        <time>2019-11-24T16:45:49Z</time>
      </trkpt>
      <trkpt lat="43.502106" lon="-5.861956">
        <ele>89.4</ele>
        <time>2019-11-24T16:45:50Z</time>
      </trkpt>
      <trkpt lat="43.502052" lon="-5.861902">
        <ele>89.6</ele>
        <time>2019-11-24T16:45:51Z</time>
      </trkpt>
      <trkpt lat="43.501998" lon="-5.861848">
        <ele>89</ele>
        <time>2019-11-24T16:45:52Z</time>
      </trkpt>
      <trkpt lat="43.501943" lon="-5.861794">
        <ele>89.4</ele>
        <time>2019-11-24T16:45:53Z</time>
      </trkpt>
      <trkpt lat="43.501888" lon="-5.861739">
        <ele>89.2</ele>
        <time>2019-11-24T16:45:54Z</time>
      </trkpt>
      <trkpt lat="43.501833" lon="-5.861683">
        <ele>89.2</ele>
        <time>2019-11-24T16:45:55Z</time>
      </trkpt>
      <trkpt lat="43.501778" lon="-5.861627">
        <ele>89.4</ele>
        <time>2019-11-24T16:45:56Z</time>
      </trkpt>
      <trkpt lat="43.501722" lon="-5.861573">
        <ele>89.2</ele>
        <time>2019-11-24T16:45:57Z</time>
      </trkpt>
      <trkpt lat="43.501667" lon="-5.861519">
        <ele>88.8</ele>
        <time>2019-11-24T16:45:58Z</time>
      </trkpt>
      <trkpt lat="43.501612" lon="-5.861463">
        <ele>89.6</ele>
        <time>2019-11-24T16:45:59Z</time>
      </trkpt>
      <trkpt lat="43.501556" lon="-5.86141">
        <ele>89.8</ele>
        <time>2019-11-24T16:46:00Z</time>
      </trkpt>
      <trkpt lat="43.501501" lon="-5.861356">
        <ele>89.4</ele>
        <time>2019-11-24T16:46:01Z</time>
      </trkpt>
      <trkpt lat="43.501445" lon="-5.861302">
        <ele>89.4</ele>
        <time>2019-11-24T16:46:02Z</time>
      </trkpt>
      <trkpt lat="43.50139" lon="-5.861247">
        <ele>89.4</ele>
        <time>2019-11-24T16:46:03Z</time>
      </trkpt>
      <trkpt lat="43.501335" lon="-5.861195">
        <ele>89.4</ele>
        <time>2019-11-24T16:46:04Z</time>
      </trkpt>
      <trkpt lat="43.501279" lon="-5.861141">
        <ele>89.6</ele>
        <time>2019-11-24T16:46:05Z</time>
      </trkpt>
      <trkpt lat="43.501223" lon="-5.861086">
        <ele>89.8</ele>
        <time>2019-11-24T16:46:06Z</time>
      </trkpt>
      <trkpt lat="43.501169" lon="-5.861031">
        <ele>89.8</ele>
        <time>2019-11-24T16:46:07Z</time>
      </trkpt>
      <trkpt lat="43.501114" lon="-5.860975">
        <ele>89.6</ele>
        <time>2019-11-24T16:46:08Z</time>
      </trkpt>
      <trkpt lat="43.501059" lon="-5.860921">
        <ele>90</ele>
        <time>2019-11-24T16:46:09Z</time>
      </trkpt>
      <trkpt lat="43.501004" lon="-5.860867">
        <ele>89.6</ele>
        <time>2019-11-24T16:46:10Z</time>
      </trkpt>
      <trkpt lat="43.500949" lon="-5.860813">
        <ele>90</ele>
        <time>2019-11-24T16:46:11Z</time>
      </trkpt>
      <trkpt lat="43.500894" lon="-5.860759">
        <ele>90.2</ele>
        <time>2019-11-24T16:46:12Z</time>
      </trkpt>
      <trkpt lat="43.500839" lon="-5.860704">
        <ele>90.2</ele>
        <time>2019-11-24T16:46:13Z</time>
      </trkpt>
      <trkpt lat="43.500785" lon="-5.86065">
        <ele>89.6</ele>
        <time>2019-11-24T16:46:14Z</time>
      </trkpt>
      <trkpt lat="43.500732" lon="-5.860596">
        <ele>90</ele>
        <time>2019-11-24T16:46:15Z</time>
      </trkpt>
      <trkpt lat="43.500677" lon="-5.860542">
        <ele>90.6</ele>
        <time>2019-11-24T16:46:16Z</time>
      </trkpt>
      <trkpt lat="43.500624" lon="-5.860489">
        <ele>90.4</ele>
        <time>2019-11-24T16:46:17Z</time>
      </trkpt>
      <trkpt lat="43.50057" lon="-5.860434">
        <ele>90.4</ele>
        <time>2019-11-24T16:46:18Z</time>
      </trkpt>
      <trkpt lat="43.500516" lon="-5.860381">
        <ele>90.4</ele>
        <time>2019-11-24T16:46:19Z</time>
      </trkpt>
      <trkpt lat="43.500462" lon="-5.860328">
        <ele>90.8</ele>
        <time>2019-11-24T16:46:20Z</time>
      </trkpt>
      <trkpt lat="43.500408" lon="-5.860275">
        <ele>90.6</ele>
        <time>2019-11-24T16:46:21Z</time>
      </trkpt>
      <trkpt lat="43.500353" lon="-5.860221">
        <ele>90.8</ele>
        <time>2019-11-24T16:46:22Z</time>
      </trkpt>
      <trkpt lat="43.5003" lon="-5.860168">
        <ele>91</ele>
        <time>2019-11-24T16:46:23Z</time>
      </trkpt>
      <trkpt lat="43.500247" lon="-5.860114">
        <ele>90.8</ele>
        <time>2019-11-24T16:46:24Z</time>
      </trkpt>
      <trkpt lat="43.500194" lon="-5.86006">
        <ele>91</ele>
        <time>2019-11-24T16:46:25Z</time>
      </trkpt>
      <trkpt lat="43.500139" lon="-5.860006">
        <ele>90.8</ele>
        <time>2019-11-24T16:46:26Z</time>
      </trkpt>
      <trkpt lat="43.500084" lon="-5.859953">
        <ele>91</ele>
        <time>2019-11-24T16:46:27Z</time>
      </trkpt>
      <trkpt lat="43.500029" lon="-5.859898">
        <ele>91.2</ele>
        <time>2019-11-24T16:46:28Z</time>
      </trkpt>
      <trkpt lat="43.499975" lon="-5.859844">
        <ele>91</ele>
        <time>2019-11-24T16:46:29Z</time>
      </trkpt>
      <trkpt lat="43.499921" lon="-5.85979">
        <ele>91</ele>
        <time>2019-11-24T16:46:30Z</time>
      </trkpt>
      <trkpt lat="43.499867" lon="-5.859737">
        <ele>91.4</ele>
        <time>2019-11-24T16:46:31Z</time>
      </trkpt>
      <trkpt lat="43.499814" lon="-5.859683">
        <ele>91.6</ele>
        <time>2019-11-24T16:46:32Z</time>
      </trkpt>
      <trkpt lat="43.49976" lon="-5.85963">
        <ele>91.4</ele>
        <time>2019-11-24T16:46:33Z</time>
      </trkpt>
      <trkpt lat="43.499706" lon="-5.859577">
        <ele>91.4</ele>
        <time>2019-11-24T16:46:34Z</time>
      </trkpt>
      <trkpt lat="43.499652" lon="-5.859524">
        <ele>91.6</ele>
        <time>2019-11-24T16:46:35Z</time>
      </trkpt>
      <trkpt lat="43.499598" lon="-5.859471">
        <ele>92</ele>
        <time>2019-11-24T16:46:36Z</time>
      </trkpt>
      <trkpt lat="43.499544" lon="-5.859417">
        <ele>92.2</ele>
        <time>2019-11-24T16:46:37Z</time>
      </trkpt>
      <trkpt lat="43.49949" lon="-5.859363">
        <ele>92.2</ele>
        <time>2019-11-24T16:46:38Z</time>
      </trkpt>
      <trkpt lat="43.499436" lon="-5.85931">
        <ele>92.2</ele>
        <time>2019-11-24T16:46:39Z</time>
      </trkpt>
      <trkpt lat="43.499385" lon="-5.859258">
        <ele>92.8</ele>
        <time>2019-11-24T16:46:40Z</time>
      </trkpt>
      <trkpt lat="43.499333" lon="-5.859207">
        <ele>92.4</ele>
        <time>2019-11-24T16:46:41Z</time>
      </trkpt>
      <trkpt lat="43.499282" lon="-5.859157">
        <ele>92.6</ele>
        <time>2019-11-24T16:46:42Z</time>
      </trkpt>
      <trkpt lat="43.499232" lon="-5.859107">
        <ele>92.6</ele>
        <time>2019-11-24T16:46:43Z</time>
      </trkpt>
      <trkpt lat="43.499182" lon="-5.859058">
        <ele>93.2</ele>
        <time>2019-11-24T16:46:44Z</time>
      </trkpt>
      <trkpt lat="43.499132" lon="-5.859009">
        <ele>93.6</ele>
        <time>2019-11-24T16:46:45Z</time>
      </trkpt>
      <trkpt lat="43.499083" lon="-5.85896">
        <ele>94</ele>
        <time>2019-11-24T16:46:46Z</time>
      </trkpt>
      <trkpt lat="43.499034" lon="-5.858912">
        <ele>93.8</ele>
        <time>2019-11-24T16:46:47Z</time>
      </trkpt>
      <trkpt lat="43.498985" lon="-5.858864">
        <ele>93.6</ele>
        <time>2019-11-24T16:46:48Z</time>
      </trkpt>
      <trkpt lat="43.498937" lon="-5.858816">
        <ele>94</ele>
        <time>2019-11-24T16:46:49Z</time>
      </trkpt>
      <trkpt lat="43.498889" lon="-5.858767">
        <ele>94.4</ele>
        <time>2019-11-24T16:46:50Z</time>
      </trkpt>
      <trkpt lat="43.498841" lon="-5.858719">
        <ele>94.2</ele>
        <time>2019-11-24T16:46:51Z</time>
      </trkpt>
      <trkpt lat="43.498793" lon="-5.85867">
        <ele>94.6</ele>
        <time>2019-11-24T16:46:52Z</time>
      </trkpt>
      <trkpt lat="43.498744" lon="-5.858622">
        <ele>94.6</ele>
        <time>2019-11-24T16:46:53Z</time>
      </trkpt>
      <trkpt lat="43.498696" lon="-5.858574">
        <ele>95</ele>
        <time>2019-11-24T16:46:54Z</time>
      </trkpt>
      <trkpt lat="43.498648" lon="-5.858525">
        <ele>94.8</ele>
        <time>2019-11-24T16:46:55Z</time>
      </trkpt>
      <trkpt lat="43.4986" lon="-5.858476">
        <ele>94.4</ele>
        <time>2019-11-24T16:46:56Z</time>
      </trkpt>
      <trkpt lat="43.498552" lon="-5.858427">
        <ele>94.8</ele>
        <time>2019-11-24T16:46:57Z</time>
      </trkpt>
      <trkpt lat="43.498504" lon="-5.858379">
        <ele>95.4</ele>
        <time>2019-11-24T16:46:58Z</time>
      </trkpt>
      <trkpt lat="43.498456" lon="-5.858331">
        <ele>95.4</ele>
        <time>2019-11-24T16:46:59Z</time>
      </trkpt>
      <trkpt lat="43.498408" lon="-5.858283">
        <ele>95.6</ele>
        <time>2019-11-24T16:47:00Z</time>
      </trkpt>
      <trkpt lat="43.498359" lon="-5.858236">
        <ele>95.6</ele>
        <time>2019-11-24T16:47:01Z</time>
      </trkpt>
      <trkpt lat="43.498311" lon="-5.858189">
        <ele>95.6</ele>
        <time>2019-11-24T16:47:02Z</time>
      </trkpt>
      <trkpt lat="43.498262" lon="-5.858142">
        <ele>95.6</ele>
        <time>2019-11-24T16:47:03Z</time>
      </trkpt>
      <trkpt lat="43.498213" lon="-5.858093">
        <ele>96</ele>
        <time>2019-11-24T16:47:04Z</time>
      </trkpt>
      <trkpt lat="43.498164" lon="-5.858044">
        <ele>95.2</ele>
        <time>2019-11-24T16:47:05Z</time>
      </trkpt>
      <trkpt lat="43.498114" lon="-5.857994">
        <ele>95.4</ele>
        <time>2019-11-24T16:47:06Z</time>
      </trkpt>
      <trkpt lat="43.498064" lon="-5.857945">
        <ele>96</ele>
        <time>2019-11-24T16:47:07Z</time>
      </trkpt>
      <trkpt lat="43.498014" lon="-5.857896">
        <ele>96</ele>
        <time>2019-11-24T16:47:08Z</time>
      </trkpt>
      <trkpt lat="43.497965" lon="-5.857846">
        <ele>95.4</ele>
        <time>2019-11-24T16:47:09Z</time>
      </trkpt>
      <trkpt lat="43.497916" lon="-5.857796">
        <ele>96.2</ele>
        <time>2019-11-24T16:47:10Z</time>
      </trkpt>
      <trkpt lat="43.497866" lon="-5.857747">
        <ele>96</ele>
        <time>2019-11-24T16:47:11Z</time>
      </trkpt>
      <trkpt lat="43.497817" lon="-5.857697">
        <ele>96</ele>
        <time>2019-11-24T16:47:12Z</time>
      </trkpt>
      <trkpt lat="43.497767" lon="-5.857647">
        <ele>96.4</ele>
        <time>2019-11-24T16:47:13Z</time>
      </trkpt>
      <trkpt lat="43.497719" lon="-5.857596">
        <ele>96.4</ele>
        <time>2019-11-24T16:47:14Z</time>
      </trkpt>
      <trkpt lat="43.497671" lon="-5.857542">
        <ele>96.6</ele>
        <time>2019-11-24T16:47:15Z</time>
      </trkpt>
      <trkpt lat="43.497624" lon="-5.857488">
        <ele>96.8</ele>
        <time>2019-11-24T16:47:16Z</time>
      </trkpt>
      <trkpt lat="43.497576" lon="-5.857434">
        <ele>97</ele>
        <time>2019-11-24T16:47:17Z</time>
      </trkpt>
      <trkpt lat="43.497528" lon="-5.857379">
        <ele>96.6</ele>
        <time>2019-11-24T16:47:18Z</time>
      </trkpt>
      <trkpt lat="43.49748" lon="-5.857325">
        <ele>97</ele>
        <time>2019-11-24T16:47:19Z</time>
      </trkpt>
      <trkpt lat="43.497432" lon="-5.857272">
        <ele>97</ele>
        <time>2019-11-24T16:47:20Z</time>
      </trkpt>
      <trkpt lat="43.497385" lon="-5.857217">
        <ele>96.8</ele>
        <time>2019-11-24T16:47:21Z</time>
      </trkpt>
      <trkpt lat="43.497338" lon="-5.857163">
        <ele>97.2</ele>
        <time>2019-11-24T16:47:22Z</time>
      </trkpt>
      <trkpt lat="43.497292" lon="-5.857108">
        <ele>97</ele>
        <time>2019-11-24T16:47:23Z</time>
      </trkpt>
      <trkpt lat="43.497247" lon="-5.857052">
        <ele>96.8</ele>
        <time>2019-11-24T16:47:24Z</time>
      </trkpt>
      <trkpt lat="43.497202" lon="-5.856997">
        <ele>97</ele>
        <time>2019-11-24T16:47:25Z</time>
      </trkpt>
      <trkpt lat="43.497157" lon="-5.85694">
        <ele>97.2</ele>
        <time>2019-11-24T16:47:26Z</time>
      </trkpt>
      <trkpt lat="43.497113" lon="-5.856884">
        <ele>97</ele>
        <time>2019-11-24T16:47:27Z</time>
      </trkpt>
      <trkpt lat="43.497069" lon="-5.856826">
        <ele>97.4</ele>
        <time>2019-11-24T16:47:28Z</time>
      </trkpt>
      <trkpt lat="43.497024" lon="-5.856769">
        <ele>97.4</ele>
        <time>2019-11-24T16:47:29Z</time>
      </trkpt>
      <trkpt lat="43.496979" lon="-5.856711">
        <ele>97.2</ele>
        <time>2019-11-24T16:47:30Z</time>
      </trkpt>
      <trkpt lat="43.496934" lon="-5.856653">
        <ele>97.4</ele>
        <time>2019-11-24T16:47:31Z</time>
      </trkpt>
      <trkpt lat="43.496889" lon="-5.856594">
        <ele>97.4</ele>
        <time>2019-11-24T16:47:32Z</time>
      </trkpt>
      <trkpt lat="43.496843" lon="-5.856537">
        <ele>97.8</ele>
        <time>2019-11-24T16:47:33Z</time>
      </trkpt>
      <trkpt lat="43.496797" lon="-5.85648">
        <ele>97.4</ele>
        <time>2019-11-24T16:47:34Z</time>
      </trkpt>
      <trkpt lat="43.496751" lon="-5.856424">
        <ele>97.8</ele>
        <time>2019-11-24T16:47:35Z</time>
      </trkpt>
      <trkpt lat="43.496705" lon="-5.856369">
        <ele>98.4</ele>
        <time>2019-11-24T16:47:36Z</time>
      </trkpt>
      <trkpt lat="43.496661" lon="-5.856314">
        <ele>98.8</ele>
        <time>2019-11-24T16:47:37Z</time>
      </trkpt>
      <trkpt lat="43.496618" lon="-5.856259">
        <ele>99</ele>
        <time>2019-11-24T16:47:38Z</time>
      </trkpt>
      <trkpt lat="43.496575" lon="-5.856205">
        <ele>99.6</ele>
        <time>2019-11-24T16:47:39Z</time>
      </trkpt>
      <trkpt lat="43.496533" lon="-5.856153">
        <ele>99.8</ele>
        <time>2019-11-24T16:47:40Z</time>
      </trkpt>
      <trkpt lat="43.496491" lon="-5.8561">
        <ele>100</ele>
        <time>2019-11-24T16:47:41Z</time>
      </trkpt>
      <trkpt lat="43.496448" lon="-5.856045">
        <ele>100.2</ele>
        <time>2019-11-24T16:47:42Z</time>
      </trkpt>
      <trkpt lat="43.496403" lon="-5.855991">
        <ele>100.2</ele>
        <time>2019-11-24T16:47:43Z</time>
      </trkpt>
      <trkpt lat="43.49636" lon="-5.855936">
        <ele>100.8</ele>
        <time>2019-11-24T16:47:44Z</time>
      </trkpt>
      <trkpt lat="43.496316" lon="-5.85588">
        <ele>101.2</ele>
        <time>2019-11-24T16:47:45Z</time>
      </trkpt>
      <trkpt lat="43.496271" lon="-5.855824">
        <ele>101.6</ele>
        <time>2019-11-24T16:47:46Z</time>
      </trkpt>
      <trkpt lat="43.496227" lon="-5.855768">
        <ele>101.4</ele>
        <time>2019-11-24T16:47:47Z</time>
      </trkpt>
      <trkpt lat="43.496184" lon="-5.855711">
        <ele>101.6</ele>
        <time>2019-11-24T16:47:48Z</time>
      </trkpt>
      <trkpt lat="43.496141" lon="-5.855653">
        <ele>101.8</ele>
        <time>2019-11-24T16:47:49Z</time>
      </trkpt>
      <trkpt lat="43.496098" lon="-5.855596">
        <ele>101.2</ele>
        <time>2019-11-24T16:47:50Z</time>
      </trkpt>
      <trkpt lat="43.496054" lon="-5.85554">
        <ele>101.4</ele>
        <time>2019-11-24T16:47:51Z</time>
      </trkpt>
      <trkpt lat="43.496007" lon="-5.855482">
        <ele>101.6</ele>
        <time>2019-11-24T16:47:52Z</time>
      </trkpt>
      <trkpt lat="43.49596" lon="-5.855423">
        <ele>101.2</ele>
        <time>2019-11-24T16:47:53Z</time>
      </trkpt>
      <trkpt lat="43.495911" lon="-5.855361">
        <ele>101</ele>
        <time>2019-11-24T16:47:54Z</time>
      </trkpt>
      <trkpt lat="43.495861" lon="-5.855299">
        <ele>101</ele>
        <time>2019-11-24T16:47:55Z</time>
      </trkpt>
      <trkpt lat="43.495811" lon="-5.855234">
        <ele>100.8</ele>
        <time>2019-11-24T16:47:56Z</time>
      </trkpt>
      <trkpt lat="43.49576" lon="-5.85517">
        <ele>100.6</ele>
        <time>2019-11-24T16:47:57Z</time>
      </trkpt>
      <trkpt lat="43.495709" lon="-5.855104">
        <ele>100.6</ele>
        <time>2019-11-24T16:47:58Z</time>
      </trkpt>
      <trkpt lat="43.495657" lon="-5.85504">
        <ele>100.8</ele>
        <time>2019-11-24T16:47:59Z</time>
      </trkpt>
      <trkpt lat="43.495606" lon="-5.854975">
        <ele>100.6</ele>
        <time>2019-11-24T16:48:00Z</time>
      </trkpt>
      <trkpt lat="43.495555" lon="-5.854909">
        <ele>100.6</ele>
        <time>2019-11-24T16:48:01Z</time>
      </trkpt>
      <trkpt lat="43.495503" lon="-5.854842">
        <ele>100.2</ele>
        <time>2019-11-24T16:48:02Z</time>
      </trkpt>
      <trkpt lat="43.49545" lon="-5.854775">
        <ele>100</ele>
        <time>2019-11-24T16:48:03Z</time>
      </trkpt>
      <trkpt lat="43.495396" lon="-5.854706">
        <ele>99.8</ele>
        <time>2019-11-24T16:48:04Z</time>
      </trkpt>
      <trkpt lat="43.495342" lon="-5.854636">
        <ele>99.6</ele>
        <time>2019-11-24T16:48:05Z</time>
      </trkpt>
      <trkpt lat="43.495287" lon="-5.854565">
        <ele>99</ele>
        <time>2019-11-24T16:48:06Z</time>
      </trkpt>
      <trkpt lat="43.495233" lon="-5.854495">
        <ele>99.4</ele>
        <time>2019-11-24T16:48:07Z</time>
      </trkpt>
      <trkpt lat="43.495178" lon="-5.854425">
        <ele>99.6</ele>
        <time>2019-11-24T16:48:08Z</time>
      </trkpt>
      <trkpt lat="43.495123" lon="-5.854355">
        <ele>99.2</ele>
        <time>2019-11-24T16:48:09Z</time>
      </trkpt>
      <trkpt lat="43.495069" lon="-5.854285">
        <ele>99.6</ele>
        <time>2019-11-24T16:48:10Z</time>
      </trkpt>
      <trkpt lat="43.495014" lon="-5.854216">
        <ele>98.6</ele>
        <time>2019-11-24T16:48:11Z</time>
      </trkpt>
      <trkpt lat="43.49496" lon="-5.854148">
        <ele>98.8</ele>
        <time>2019-11-24T16:48:12Z</time>
      </trkpt>
      <trkpt lat="43.494904" lon="-5.854079">
        <ele>98.4</ele>
        <time>2019-11-24T16:48:13Z</time>
      </trkpt>
      <trkpt lat="43.494849" lon="-5.854009">
        <ele>98.4</ele>
        <time>2019-11-24T16:48:14Z</time>
      </trkpt>
      <trkpt lat="43.494795" lon="-5.85394">
        <ele>99</ele>
        <time>2019-11-24T16:48:15Z</time>
      </trkpt>
      <trkpt lat="43.494742" lon="-5.853871">
        <ele>99.2</ele>
        <time>2019-11-24T16:48:16Z</time>
      </trkpt>
      <trkpt lat="43.494688" lon="-5.853802">
        <ele>99.4</ele>
        <time>2019-11-24T16:48:17Z</time>
      </trkpt>
      <trkpt lat="43.494635" lon="-5.853735">
        <ele>99.2</ele>
        <time>2019-11-24T16:48:18Z</time>
      </trkpt>
      <trkpt lat="43.494582" lon="-5.853667">
        <ele>99</ele>
        <time>2019-11-24T16:48:19Z</time>
      </trkpt>
      <trkpt lat="43.49453" lon="-5.853601">
        <ele>99</ele>
        <time>2019-11-24T16:48:20Z</time>
      </trkpt>
      <trkpt lat="43.494476" lon="-5.853535">
        <ele>99.6</ele>
        <time>2019-11-24T16:48:21Z</time>
      </trkpt>
      <trkpt lat="43.494424" lon="-5.85347">
        <ele>99.4</ele>
        <time>2019-11-24T16:48:22Z</time>
      </trkpt>
      <trkpt lat="43.494372" lon="-5.853405">
        <ele>99.4</ele>
        <time>2019-11-24T16:48:23Z</time>
      </trkpt>
      <trkpt lat="43.494321" lon="-5.85334">
        <ele>99.4</ele>
        <time>2019-11-24T16:48:24Z</time>
      </trkpt>
      <trkpt lat="43.49427" lon="-5.853275">
        <ele>99.6</ele>
        <time>2019-11-24T16:48:25Z</time>
      </trkpt>
      <trkpt lat="43.494219" lon="-5.85321">
        <ele>99.4</ele>
        <time>2019-11-24T16:48:26Z</time>
      </trkpt>
      <trkpt lat="43.494169" lon="-5.853146">
        <ele>99.6</ele>
        <time>2019-11-24T16:48:27Z</time>
      </trkpt>
      <trkpt lat="43.494119" lon="-5.853081">
        <ele>99.6</ele>
        <time>2019-11-24T16:48:28Z</time>
      </trkpt>
      <trkpt lat="43.494069" lon="-5.853018">
        <ele>99.8</ele>
        <time>2019-11-24T16:48:29Z</time>
      </trkpt>
      <trkpt lat="43.494019" lon="-5.852955">
        <ele>99.8</ele>
        <time>2019-11-24T16:48:30Z</time>
      </trkpt>
      <trkpt lat="43.49397" lon="-5.852893">
        <ele>100</ele>
        <time>2019-11-24T16:48:31Z</time>
      </trkpt>
      <trkpt lat="43.493921" lon="-5.85283">
        <ele>100</ele>
        <time>2019-11-24T16:48:32Z</time>
      </trkpt>
      <trkpt lat="43.493872" lon="-5.852769">
        <ele>100</ele>
        <time>2019-11-24T16:48:33Z</time>
      </trkpt>
      <trkpt lat="43.493823" lon="-5.852708">
        <ele>100.2</ele>
        <time>2019-11-24T16:48:34Z</time>
      </trkpt>
      <trkpt lat="43.493774" lon="-5.852648">
        <ele>100.2</ele>
        <time>2019-11-24T16:48:35Z</time>
      </trkpt>
      <trkpt lat="43.493726" lon="-5.852587">
        <ele>100.2</ele>
        <time>2019-11-24T16:48:36Z</time>
      </trkpt>
      <trkpt lat="43.493678" lon="-5.852526">
        <ele>100.2</ele>
        <time>2019-11-24T16:48:37Z</time>
      </trkpt>
      <trkpt lat="43.49363" lon="-5.852466">
        <ele>100.2</ele>
        <time>2019-11-24T16:48:38Z</time>
      </trkpt>
      <trkpt lat="43.493581" lon="-5.852407">
        <ele>100.8</ele>
        <time>2019-11-24T16:48:39Z</time>
      </trkpt>
      <trkpt lat="43.493533" lon="-5.852347">
        <ele>101</ele>
        <time>2019-11-24T16:48:40Z</time>
      </trkpt>
      <trkpt lat="43.493484" lon="-5.852287">
        <ele>100.8</ele>
        <time>2019-11-24T16:48:41Z</time>
      </trkpt>
      <trkpt lat="43.493437" lon="-5.852228">
        <ele>100.8</ele>
        <time>2019-11-24T16:48:42Z</time>
      </trkpt>
      <trkpt lat="43.49339" lon="-5.85217">
        <ele>101.2</ele>
        <time>2019-11-24T16:48:43Z</time>
      </trkpt>
      <trkpt lat="43.493342" lon="-5.852113">
        <ele>101</ele>
        <time>2019-11-24T16:48:44Z</time>
      </trkpt>
      <trkpt lat="43.493297" lon="-5.852054">
        <ele>101.2</ele>
        <time>2019-11-24T16:48:45Z</time>
      </trkpt>
      <trkpt lat="43.493251" lon="-5.851996">
        <ele>101.2</ele>
        <time>2019-11-24T16:48:46Z</time>
      </trkpt>
      <trkpt lat="43.493205" lon="-5.851939">
        <ele>101.4</ele>
        <time>2019-11-24T16:48:47Z</time>
      </trkpt>
      <trkpt lat="43.49316" lon="-5.851883">
        <ele>101.6</ele>
        <time>2019-11-24T16:48:48Z</time>
      </trkpt>
      <trkpt lat="43.493114" lon="-5.851827">
        <ele>101.6</ele>
        <time>2019-11-24T16:48:49Z</time>
      </trkpt>
      <trkpt lat="43.493068" lon="-5.85177">
        <ele>102</ele>
        <time>2019-11-24T16:48:50Z</time>
      </trkpt>
      <trkpt lat="43.493023" lon="-5.851713">
        <ele>101.6</ele>
        <time>2019-11-24T16:48:51Z</time>
      </trkpt>
      <trkpt lat="43.492979" lon="-5.851656">
        <ele>102</ele>
        <time>2019-11-24T16:48:52Z</time>
      </trkpt>
      <trkpt lat="43.492934" lon="-5.851599">
        <ele>102.2</ele>
        <time>2019-11-24T16:48:53Z</time>
      </trkpt>
      <trkpt lat="43.492889" lon="-5.851542">
        <ele>102</ele>
        <time>2019-11-24T16:48:54Z</time>
      </trkpt>
      <trkpt lat="43.492844" lon="-5.851485">
        <ele>101.8</ele>
        <time>2019-11-24T16:48:55Z</time>
      </trkpt>
      <trkpt lat="43.492799" lon="-5.851429">
        <ele>101.8</ele>
        <time>2019-11-24T16:48:56Z</time>
      </trkpt>
      <trkpt lat="43.492755" lon="-5.851373">
        <ele>102</ele>
        <time>2019-11-24T16:48:57Z</time>
      </trkpt>
      <trkpt lat="43.492712" lon="-5.851317">
        <ele>102.6</ele>
        <time>2019-11-24T16:48:58Z</time>
      </trkpt>
      <trkpt lat="43.49267" lon="-5.85126">
        <ele>102.8</ele>
        <time>2019-11-24T16:48:59Z</time>
      </trkpt>
      <trkpt lat="43.492627" lon="-5.851202">
        <ele>103</ele>
        <time>2019-11-24T16:49:00Z</time>
      </trkpt>
      <trkpt lat="43.492584" lon="-5.851146">
        <ele>103</ele>
        <time>2019-11-24T16:49:01Z</time>
      </trkpt>
      <trkpt lat="43.492542" lon="-5.851088">
        <ele>103.2</ele>
        <time>2019-11-24T16:49:02Z</time>
      </trkpt>
      <trkpt lat="43.4925" lon="-5.85103">
        <ele>103.4</ele>
        <time>2019-11-24T16:49:03Z</time>
      </trkpt>
      <trkpt lat="43.492458" lon="-5.850972">
        <ele>103.2</ele>
        <time>2019-11-24T16:49:04Z</time>
      </trkpt>
      <trkpt lat="43.492416" lon="-5.850914">
        <ele>103.6</ele>
        <time>2019-11-24T16:49:05Z</time>
      </trkpt>
      <trkpt lat="43.492372" lon="-5.850858">
        <ele>103.6</ele>
        <time>2019-11-24T16:49:06Z</time>
      </trkpt>
      <trkpt lat="43.49233" lon="-5.850801">
        <ele>103.8</ele>
        <time>2019-11-24T16:49:07Z</time>
      </trkpt>
      <trkpt lat="43.492287" lon="-5.850744">
        <ele>104.2</ele>
        <time>2019-11-24T16:49:08Z</time>
      </trkpt>
      <trkpt lat="43.492243" lon="-5.850688">
        <ele>104.2</ele>
        <time>2019-11-24T16:49:09Z</time>
      </trkpt>
      <trkpt lat="43.492199" lon="-5.850631">
        <ele>104.2</ele>
        <time>2019-11-24T16:49:10Z</time>
      </trkpt>
      <trkpt lat="43.492155" lon="-5.850574">
        <ele>104.4</ele>
        <time>2019-11-24T16:49:11Z</time>
      </trkpt>
      <trkpt lat="43.492111" lon="-5.850518">
        <ele>104.6</ele>
        <time>2019-11-24T16:49:12Z</time>
      </trkpt>
      <trkpt lat="43.492067" lon="-5.850462">
        <ele>105.2</ele>
        <time>2019-11-24T16:49:13Z</time>
      </trkpt>
      <trkpt lat="43.492023" lon="-5.850405">
        <ele>104.6</ele>
        <time>2019-11-24T16:49:14Z</time>
      </trkpt>
      <trkpt lat="43.491979" lon="-5.850349">
        <ele>104.8</ele>
        <time>2019-11-24T16:49:15Z</time>
      </trkpt>
      <trkpt lat="43.491935" lon="-5.850294">
        <ele>105.2</ele>
        <time>2019-11-24T16:49:16Z</time>
      </trkpt>
      <trkpt lat="43.491891" lon="-5.85024">
        <ele>105.2</ele>
        <time>2019-11-24T16:49:17Z</time>
      </trkpt>
      <trkpt lat="43.491848" lon="-5.850187">
        <ele>105.6</ele>
        <time>2019-11-24T16:49:18Z</time>
      </trkpt>
      <trkpt lat="43.491806" lon="-5.850132">
        <ele>105.8</ele>
        <time>2019-11-24T16:49:19Z</time>
      </trkpt>
      <trkpt lat="43.491765" lon="-5.850077">
        <ele>106</ele>
        <time>2019-11-24T16:49:20Z</time>
      </trkpt>
      <trkpt lat="43.491724" lon="-5.850021">
        <ele>106</ele>
        <time>2019-11-24T16:49:21Z</time>
      </trkpt>
      <trkpt lat="43.491681" lon="-5.849967">
        <ele>106.2</ele>
        <time>2019-11-24T16:49:22Z</time>
      </trkpt>
      <trkpt lat="43.491638" lon="-5.849912">
        <ele>106.6</ele>
        <time>2019-11-24T16:49:23Z</time>
      </trkpt>
      <trkpt lat="43.491595" lon="-5.849857">
        <ele>106.4</ele>
        <time>2019-11-24T16:49:24Z</time>
      </trkpt>
      <trkpt lat="43.491552" lon="-5.849802">
        <ele>106.8</ele>
        <time>2019-11-24T16:49:25Z</time>
      </trkpt>
      <trkpt lat="43.491509" lon="-5.849748">
        <ele>107</ele>
        <time>2019-11-24T16:49:26Z</time>
      </trkpt>
      <trkpt lat="43.491467" lon="-5.849692">
        <ele>106.8</ele>
        <time>2019-11-24T16:49:27Z</time>
      </trkpt>
      <trkpt lat="43.491425" lon="-5.849636">
        <ele>107.2</ele>
        <time>2019-11-24T16:49:28Z</time>
      </trkpt>
      <trkpt lat="43.491382" lon="-5.84958">
        <ele>107</ele>
        <time>2019-11-24T16:49:29Z</time>
      </trkpt>
      <trkpt lat="43.49134" lon="-5.849525">
        <ele>107.2</ele>
        <time>2019-11-24T16:49:30Z</time>
      </trkpt>
      <trkpt lat="43.491298" lon="-5.84947">
        <ele>107</ele>
        <time>2019-11-24T16:49:31Z</time>
      </trkpt>
      <trkpt lat="43.491256" lon="-5.849414">
        <ele>107.8</ele>
        <time>2019-11-24T16:49:32Z</time>
      </trkpt>
      <trkpt lat="43.491214" lon="-5.849359">
        <ele>108</ele>
        <time>2019-11-24T16:49:33Z</time>
      </trkpt>
      <trkpt lat="43.49117" lon="-5.849306">
        <ele>108.2</ele>
        <time>2019-11-24T16:49:34Z</time>
      </trkpt>
      <trkpt lat="43.491126" lon="-5.849254">
        <ele>108.4</ele>
        <time>2019-11-24T16:49:35Z</time>
      </trkpt>
      <trkpt lat="43.491081" lon="-5.849204">
        <ele>108.2</ele>
        <time>2019-11-24T16:49:36Z</time>
      </trkpt>
      <trkpt lat="43.491039" lon="-5.849152">
        <ele>108.4</ele>
        <time>2019-11-24T16:49:37Z</time>
      </trkpt>
      <trkpt lat="43.490997" lon="-5.849099">
        <ele>108.4</ele>
        <time>2019-11-24T16:49:38Z</time>
      </trkpt>
      <trkpt lat="43.490955" lon="-5.849046">
        <ele>108.6</ele>
        <time>2019-11-24T16:49:39Z</time>
      </trkpt>
      <trkpt lat="43.490914" lon="-5.848991">
        <ele>109</ele>
        <time>2019-11-24T16:49:40Z</time>
      </trkpt>
      <trkpt lat="43.490871" lon="-5.848938">
        <ele>109.2</ele>
        <time>2019-11-24T16:49:41Z</time>
      </trkpt>
      <trkpt lat="43.490829" lon="-5.848886">
        <ele>109.2</ele>
        <time>2019-11-24T16:49:42Z</time>
      </trkpt>
      <trkpt lat="43.490786" lon="-5.848833">
        <ele>109.2</ele>
        <time>2019-11-24T16:49:43Z</time>
      </trkpt>
      <trkpt lat="43.490742" lon="-5.848781">
        <ele>109.4</ele>
        <time>2019-11-24T16:49:44Z</time>
      </trkpt>
      <trkpt lat="43.4907" lon="-5.848728">
        <ele>109.4</ele>
        <time>2019-11-24T16:49:45Z</time>
      </trkpt>
      <trkpt lat="43.490657" lon="-5.848674">
        <ele>109.6</ele>
        <time>2019-11-24T16:49:46Z</time>
      </trkpt>
      <trkpt lat="43.490614" lon="-5.84862">
        <ele>109.8</ele>
        <time>2019-11-24T16:49:47Z</time>
      </trkpt>
      <trkpt lat="43.490571" lon="-5.848565">
        <ele>109.8</ele>
        <time>2019-11-24T16:49:48Z</time>
      </trkpt>
      <trkpt lat="43.490529" lon="-5.84851">
        <ele>110</ele>
        <time>2019-11-24T16:49:49Z</time>
      </trkpt>
      <trkpt lat="43.490486" lon="-5.848455">
        <ele>110.2</ele>
        <time>2019-11-24T16:49:50Z</time>
      </trkpt>
      <trkpt lat="43.490443" lon="-5.8484">
        <ele>110.4</ele>
        <time>2019-11-24T16:49:51Z</time>
      </trkpt>
      <trkpt lat="43.4904" lon="-5.848345">
        <ele>110.2</ele>
        <time>2019-11-24T16:49:52Z</time>
      </trkpt>
      <trkpt lat="43.490356" lon="-5.848291">
        <ele>110.4</ele>
        <time>2019-11-24T16:49:53Z</time>
      </trkpt>
      <trkpt lat="43.490311" lon="-5.848237">
        <ele>110.4</ele>
        <time>2019-11-24T16:49:54Z</time>
      </trkpt>
      <trkpt lat="43.490267" lon="-5.848183">
        <ele>110.2</ele>
        <time>2019-11-24T16:49:55Z</time>
      </trkpt>
      <trkpt lat="43.490223" lon="-5.848129">
        <ele>110.4</ele>
        <time>2019-11-24T16:49:56Z</time>
      </trkpt>
      <trkpt lat="43.490179" lon="-5.848073">
        <ele>110.6</ele>
        <time>2019-11-24T16:49:57Z</time>
      </trkpt>
      <trkpt lat="43.490136" lon="-5.848018">
        <ele>110.6</ele>
        <time>2019-11-24T16:49:58Z</time>
      </trkpt>
      <trkpt lat="43.490091" lon="-5.847962">
        <ele>110.6</ele>
        <time>2019-11-24T16:49:59Z</time>
      </trkpt>
      <trkpt lat="43.490047" lon="-5.847907">
        <ele>110.8</ele>
        <time>2019-11-24T16:50:00Z</time>
      </trkpt>
      <trkpt lat="43.490003" lon="-5.847851">
        <ele>110.8</ele>
        <time>2019-11-24T16:50:01Z</time>
      </trkpt>
      <trkpt lat="43.489959" lon="-5.847795">
        <ele>111</ele>
        <time>2019-11-24T16:50:02Z</time>
      </trkpt>
      <trkpt lat="43.489916" lon="-5.847739">
        <ele>111.2</ele>
        <time>2019-11-24T16:50:03Z</time>
      </trkpt>
      <trkpt lat="43.489873" lon="-5.847683">
        <ele>111.8</ele>
        <time>2019-11-24T16:50:04Z</time>
      </trkpt>
      <trkpt lat="43.48983" lon="-5.847628">
        <ele>111.2</ele>
        <time>2019-11-24T16:50:05Z</time>
      </trkpt>
      <trkpt lat="43.489786" lon="-5.847571">
        <ele>111.4</ele>
        <time>2019-11-24T16:50:06Z</time>
      </trkpt>
      <trkpt lat="43.489742" lon="-5.847515">
        <ele>111.4</ele>
        <time>2019-11-24T16:50:07Z</time>
      </trkpt>
      <trkpt lat="43.489698" lon="-5.84746">
        <ele>111.8</ele>
        <time>2019-11-24T16:50:08Z</time>
      </trkpt>
      <trkpt lat="43.489654" lon="-5.847404">
        <ele>112</ele>
        <time>2019-11-24T16:50:09Z</time>
      </trkpt>
      <trkpt lat="43.489609" lon="-5.847349">
        <ele>111.6</ele>
        <time>2019-11-24T16:50:10Z</time>
      </trkpt>
      <trkpt lat="43.489564" lon="-5.847294">
        <ele>111.4</ele>
        <time>2019-11-24T16:50:11Z</time>
      </trkpt>
      <trkpt lat="43.489519" lon="-5.847237">
        <ele>111.4</ele>
        <time>2019-11-24T16:50:12Z</time>
      </trkpt>
      <trkpt lat="43.489474" lon="-5.84718">
        <ele>111</ele>
        <time>2019-11-24T16:50:13Z</time>
      </trkpt>
      <trkpt lat="43.489429" lon="-5.847124">
        <ele>111.8</ele>
        <time>2019-11-24T16:50:14Z</time>
      </trkpt>
      <trkpt lat="43.489383" lon="-5.847065">
        <ele>111.6</ele>
        <time>2019-11-24T16:50:15Z</time>
      </trkpt>
      <trkpt lat="43.489337" lon="-5.847006">
        <ele>111.2</ele>
        <time>2019-11-24T16:50:16Z</time>
      </trkpt>
      <trkpt lat="43.489291" lon="-5.846946">
        <ele>111</ele>
        <time>2019-11-24T16:50:17Z</time>
      </trkpt>
      <trkpt lat="43.489244" lon="-5.846887">
        <ele>111.2</ele>
        <time>2019-11-24T16:50:18Z</time>
      </trkpt>
      <trkpt lat="43.489196" lon="-5.846828">
        <ele>111</ele>
        <time>2019-11-24T16:50:19Z</time>
      </trkpt>
      <trkpt lat="43.489148" lon="-5.84677">
        <ele>111.2</ele>
        <time>2019-11-24T16:50:20Z</time>
      </trkpt>
      <trkpt lat="43.4891" lon="-5.84671">
        <ele>111</ele>
        <time>2019-11-24T16:50:21Z</time>
      </trkpt>
      <trkpt lat="43.489051" lon="-5.846649">
        <ele>111</ele>
        <time>2019-11-24T16:50:22Z</time>
      </trkpt>
      <trkpt lat="43.489004" lon="-5.846589">
        <ele>111.2</ele>
        <time>2019-11-24T16:50:23Z</time>
      </trkpt>
      <trkpt lat="43.488956" lon="-5.846528">
        <ele>111.2</ele>
        <time>2019-11-24T16:50:24Z</time>
      </trkpt>
      <trkpt lat="43.488907" lon="-5.846466">
        <ele>111.2</ele>
        <time>2019-11-24T16:50:25Z</time>
      </trkpt>
      <trkpt lat="43.488859" lon="-5.846405">
        <ele>111.2</ele>
        <time>2019-11-24T16:50:26Z</time>
      </trkpt>
      <trkpt lat="43.488809" lon="-5.846343">
        <ele>111</ele>
        <time>2019-11-24T16:50:27Z</time>
      </trkpt>
      <trkpt lat="43.488759" lon="-5.846281">
        <ele>111.2</ele>
        <time>2019-11-24T16:50:28Z</time>
      </trkpt>
      <trkpt lat="43.48871" lon="-5.846218">
        <ele>111.2</ele>
        <time>2019-11-24T16:50:29Z</time>
      </trkpt>
      <trkpt lat="43.48866" lon="-5.846153">
        <ele>111</ele>
        <time>2019-11-24T16:50:30Z</time>
      </trkpt>
      <trkpt lat="43.488612" lon="-5.846087">
        <ele>111.4</ele>
        <time>2019-11-24T16:50:31Z</time>
      </trkpt>
      <trkpt lat="43.488562" lon="-5.846022">
        <ele>111.4</ele>
        <time>2019-11-24T16:50:32Z</time>
      </trkpt>
      <trkpt lat="43.488511" lon="-5.84596">
        <ele>110.8</ele>
        <time>2019-11-24T16:50:33Z</time>
      </trkpt>
      <trkpt lat="43.488458" lon="-5.845899">
        <ele>111</ele>
        <time>2019-11-24T16:50:34Z</time>
      </trkpt>
      <trkpt lat="43.488405" lon="-5.84584">
        <ele>111.2</ele>
        <time>2019-11-24T16:50:35Z</time>
      </trkpt>
      <trkpt lat="43.488354" lon="-5.845778">
        <ele>111</ele>
        <time>2019-11-24T16:50:36Z</time>
      </trkpt>
      <trkpt lat="43.488302" lon="-5.845714">
        <ele>110.8</ele>
        <time>2019-11-24T16:50:37Z</time>
      </trkpt>
      <trkpt lat="43.488252" lon="-5.84565">
        <ele>111.2</ele>
        <time>2019-11-24T16:50:38Z</time>
      </trkpt>
      <trkpt lat="43.488201" lon="-5.845586">
        <ele>110.4</ele>
        <time>2019-11-24T16:50:39Z</time>
      </trkpt>
      <trkpt lat="43.488151" lon="-5.845522">
        <ele>111.2</ele>
        <time>2019-11-24T16:50:40Z</time>
      </trkpt>
      <trkpt lat="43.488101" lon="-5.845461">
        <ele>111.2</ele>
        <time>2019-11-24T16:50:41Z</time>
      </trkpt>
      <trkpt lat="43.488051" lon="-5.845401">
        <ele>111</ele>
        <time>2019-11-24T16:50:42Z</time>
      </trkpt>
      <trkpt lat="43.488003" lon="-5.845342">
        <ele>111</ele>
        <time>2019-11-24T16:50:43Z</time>
      </trkpt>
      <trkpt lat="43.487956" lon="-5.845285">
        <ele>110.8</ele>
        <time>2019-11-24T16:50:44Z</time>
      </trkpt>
      <trkpt lat="43.487912" lon="-5.845228">
        <ele>110.8</ele>
        <time>2019-11-24T16:50:45Z</time>
      </trkpt>
      <trkpt lat="43.487867" lon="-5.84517">
        <ele>110.6</ele>
        <time>2019-11-24T16:50:46Z</time>
      </trkpt>
      <trkpt lat="43.487821" lon="-5.845111">
        <ele>110.8</ele>
        <time>2019-11-24T16:50:47Z</time>
      </trkpt>
      <trkpt lat="43.487775" lon="-5.845053">
        <ele>111</ele>
        <time>2019-11-24T16:50:48Z</time>
      </trkpt>
      <trkpt lat="43.487729" lon="-5.844994">
        <ele>110.6</ele>
        <time>2019-11-24T16:50:49Z</time>
      </trkpt>
      <trkpt lat="43.487683" lon="-5.844935">
        <ele>110.8</ele>
        <time>2019-11-24T16:50:50Z</time>
      </trkpt>
      <trkpt lat="43.487637" lon="-5.844874">
        <ele>110.8</ele>
        <time>2019-11-24T16:50:51Z</time>
      </trkpt>
      <trkpt lat="43.487591" lon="-5.844816">
        <ele>111.4</ele>
        <time>2019-11-24T16:50:52Z</time>
      </trkpt>
      <trkpt lat="43.487543" lon="-5.844759">
        <ele>112</ele>
        <time>2019-11-24T16:50:53Z</time>
      </trkpt>
      <trkpt lat="43.487494" lon="-5.844701">
        <ele>111</ele>
        <time>2019-11-24T16:50:54Z</time>
      </trkpt>
      <trkpt lat="43.487445" lon="-5.844647">
        <ele>111</ele>
        <time>2019-11-24T16:50:55Z</time>
      </trkpt>
      <trkpt lat="43.487393" lon="-5.844601">
        <ele>111.8</ele>
        <time>2019-11-24T16:50:56Z</time>
      </trkpt>
      <trkpt lat="43.487337" lon="-5.844564">
        <ele>112</ele>
        <time>2019-11-24T16:50:57Z</time>
      </trkpt>
      <trkpt lat="43.487278" lon="-5.844536">
        <ele>112.6</ele>
        <time>2019-11-24T16:50:58Z</time>
      </trkpt>
      <trkpt lat="43.487219" lon="-5.844517">
        <ele>112.8</ele>
        <time>2019-11-24T16:50:59Z</time>
      </trkpt>
      <trkpt lat="43.487161" lon="-5.844503">
        <ele>112.4</ele>
        <time>2019-11-24T16:51:00Z</time>
      </trkpt>
      <trkpt lat="43.487103" lon="-5.844493">
        <ele>113.2</ele>
        <time>2019-11-24T16:51:01Z</time>
      </trkpt>
      <trkpt lat="43.487047" lon="-5.844488">
        <ele>113.4</ele>
        <time>2019-11-24T16:51:02Z</time>
      </trkpt>
      <trkpt lat="43.486992" lon="-5.844486">
        <ele>113.6</ele>
        <time>2019-11-24T16:51:03Z</time>
      </trkpt>
      <trkpt lat="43.486937" lon="-5.844488">
        <ele>113.6</ele>
        <time>2019-11-24T16:51:04Z</time>
      </trkpt>
      <trkpt lat="43.486883" lon="-5.844495">
        <ele>113.8</ele>
        <time>2019-11-24T16:51:05Z</time>
      </trkpt>
      <trkpt lat="43.486828" lon="-5.844507">
        <ele>114.2</ele>
        <time>2019-11-24T16:51:06Z</time>
      </trkpt>
      <trkpt lat="43.486774" lon="-5.844518">
        <ele>114.8</ele>
        <time>2019-11-24T16:51:07Z</time>
      </trkpt>
      <trkpt lat="43.486722" lon="-5.844532">
        <ele>115.2</ele>
        <time>2019-11-24T16:51:08Z</time>
      </trkpt>
      <trkpt lat="43.486673" lon="-5.844551">
        <ele>115.6</ele>
        <time>2019-11-24T16:51:09Z</time>
      </trkpt>
      <trkpt lat="43.486626" lon="-5.844577">
        <ele>116.2</ele>
        <time>2019-11-24T16:51:10Z</time>
      </trkpt>
      <trkpt lat="43.48658" lon="-5.844608">
        <ele>115.6</ele>
        <time>2019-11-24T16:51:11Z</time>
      </trkpt>
      <trkpt lat="43.486536" lon="-5.844646">
        <ele>116.6</ele>
        <time>2019-11-24T16:51:12Z</time>
      </trkpt>
      <trkpt lat="43.486496" lon="-5.844689">
        <ele>116.2</ele>
        <time>2019-11-24T16:51:13Z</time>
      </trkpt>
      <trkpt lat="43.486459" lon="-5.844736">
        <ele>117.2</ele>
        <time>2019-11-24T16:51:14Z</time>
      </trkpt>
      <trkpt lat="43.486425" lon="-5.844785">
        <ele>117</ele>
        <time>2019-11-24T16:51:15Z</time>
      </trkpt>
      <trkpt lat="43.486394" lon="-5.844839">
        <ele>117.4</ele>
        <time>2019-11-24T16:51:16Z</time>
      </trkpt>
      <trkpt lat="43.486366" lon="-5.844894">
        <ele>117.4</ele>
        <time>2019-11-24T16:51:17Z</time>
      </trkpt>
      <trkpt lat="43.486342" lon="-5.844952">
        <ele>117.2</ele>
        <time>2019-11-24T16:51:18Z</time>
      </trkpt>
      <trkpt lat="43.486321" lon="-5.845013">
        <ele>117.8</ele>
        <time>2019-11-24T16:51:19Z</time>
      </trkpt>
      <trkpt lat="43.486302" lon="-5.845076">
        <ele>117.8</ele>
        <time>2019-11-24T16:51:20Z</time>
      </trkpt>
      <trkpt lat="43.486285" lon="-5.845139">
        <ele>118</ele>
        <time>2019-11-24T16:51:21Z</time>
      </trkpt>
      <trkpt lat="43.486269" lon="-5.845201">
        <ele>118.2</ele>
        <time>2019-11-24T16:51:22Z</time>
      </trkpt>
      <trkpt lat="43.486254" lon="-5.845264">
        <ele>118.6</ele>
        <time>2019-11-24T16:51:23Z</time>
      </trkpt>
      <trkpt lat="43.486241" lon="-5.845328">
        <ele>118.2</ele>
        <time>2019-11-24T16:51:24Z</time>
      </trkpt>
      <trkpt lat="43.486227" lon="-5.845391">
        <ele>119.2</ele>
        <time>2019-11-24T16:51:25Z</time>
      </trkpt>
      <trkpt lat="43.486214" lon="-5.845453">
        <ele>119.6</ele>
        <time>2019-11-24T16:51:26Z</time>
      </trkpt>
      <trkpt lat="43.4862" lon="-5.845514">
        <ele>119.4</ele>
        <time>2019-11-24T16:51:27Z</time>
      </trkpt>
      <trkpt lat="43.486183" lon="-5.845573">
        <ele>120</ele>
        <time>2019-11-24T16:51:28Z</time>
      </trkpt>
      <trkpt lat="43.486163" lon="-5.845632">
        <ele>119.8</ele>
        <time>2019-11-24T16:51:29Z</time>
      </trkpt>
      <trkpt lat="43.486141" lon="-5.845688">
        <ele>120.8</ele>
        <time>2019-11-24T16:51:30Z</time>
      </trkpt>
      <trkpt lat="43.486117" lon="-5.845743">
        <ele>120.6</ele>
        <time>2019-11-24T16:51:31Z</time>
      </trkpt>
      <trkpt lat="43.486091" lon="-5.845795">
        <ele>121</ele>
        <time>2019-11-24T16:51:32Z</time>
      </trkpt>
      <trkpt lat="43.486063" lon="-5.845848">
        <ele>121</ele>
        <time>2019-11-24T16:51:33Z</time>
      </trkpt>
      <trkpt lat="43.486035" lon="-5.845899">
        <ele>121.6</ele>
        <time>2019-11-24T16:51:34Z</time>
      </trkpt>
      <trkpt lat="43.486007" lon="-5.84595">
        <ele>121.6</ele>
        <time>2019-11-24T16:51:35Z</time>
      </trkpt>
      <trkpt lat="43.485978" lon="-5.846">
        <ele>122</ele>
        <time>2019-11-24T16:51:36Z</time>
      </trkpt>
      <trkpt lat="43.485949" lon="-5.846049">
        <ele>122.8</ele>
        <time>2019-11-24T16:51:37Z</time>
      </trkpt>
      <trkpt lat="43.48592" lon="-5.846097">
        <ele>122.6</ele>
        <time>2019-11-24T16:51:38Z</time>
      </trkpt>
      <trkpt lat="43.485891" lon="-5.846145">
        <ele>122.8</ele>
        <time>2019-11-24T16:51:39Z</time>
      </trkpt>
      <trkpt lat="43.485861" lon="-5.846193">
        <ele>123.2</ele>
        <time>2019-11-24T16:51:40Z</time>
      </trkpt>
      <trkpt lat="43.485831" lon="-5.84624">
        <ele>123.2</ele>
        <time>2019-11-24T16:51:41Z</time>
      </trkpt>
      <trkpt lat="43.485801" lon="-5.846288">
        <ele>123.4</ele>
        <time>2019-11-24T16:51:42Z</time>
      </trkpt>
      <trkpt lat="43.48577" lon="-5.846337">
        <ele>123.4</ele>
        <time>2019-11-24T16:51:43Z</time>
      </trkpt>
      <trkpt lat="43.485738" lon="-5.846386">
        <ele>123.6</ele>
        <time>2019-11-24T16:51:44Z</time>
      </trkpt>
      <trkpt lat="43.485706" lon="-5.846432">
        <ele>124.2</ele>
        <time>2019-11-24T16:51:45Z</time>
      </trkpt>
      <trkpt lat="43.485674" lon="-5.846479">
        <ele>124.4</ele>
        <time>2019-11-24T16:51:46Z</time>
      </trkpt>
      <trkpt lat="43.485641" lon="-5.846524">
        <ele>124.8</ele>
        <time>2019-11-24T16:51:47Z</time>
      </trkpt>
      <trkpt lat="43.485608" lon="-5.84657">
        <ele>124.8</ele>
        <time>2019-11-24T16:51:48Z</time>
      </trkpt>
      <trkpt lat="43.485574" lon="-5.846614">
        <ele>125</ele>
        <time>2019-11-24T16:51:49Z</time>
      </trkpt>
      <trkpt lat="43.485539" lon="-5.846658">
        <ele>125</ele>
        <time>2019-11-24T16:51:50Z</time>
      </trkpt>
      <trkpt lat="43.485504" lon="-5.846701">
        <ele>125.6</ele>
        <time>2019-11-24T16:51:51Z</time>
      </trkpt>
      <trkpt lat="43.485468" lon="-5.846743">
        <ele>125.6</ele>
        <time>2019-11-24T16:51:52Z</time>
      </trkpt>
      <trkpt lat="43.485432" lon="-5.846786">
        <ele>126</ele>
        <time>2019-11-24T16:51:53Z</time>
      </trkpt>
      <trkpt lat="43.485397" lon="-5.846827">
        <ele>126.6</ele>
        <time>2019-11-24T16:51:54Z</time>
      </trkpt>
      <trkpt lat="43.485361" lon="-5.846868">
        <ele>126.6</ele>
        <time>2019-11-24T16:51:55Z</time>
      </trkpt>
      <trkpt lat="43.485325" lon="-5.846908">
        <ele>126.6</ele>
        <time>2019-11-24T16:51:56Z</time>
      </trkpt>
      <trkpt lat="43.485289" lon="-5.846949">
        <ele>126.8</ele>
        <time>2019-11-24T16:51:57Z</time>
      </trkpt>
      <trkpt lat="43.485254" lon="-5.846991">
        <ele>127.2</ele>
        <time>2019-11-24T16:51:58Z</time>
      </trkpt>
      <trkpt lat="43.48522" lon="-5.847034">
        <ele>127.4</ele>
        <time>2019-11-24T16:51:59Z</time>
      </trkpt>
      <trkpt lat="43.485187" lon="-5.847077">
        <ele>127.4</ele>
        <time>2019-11-24T16:52:00Z</time>
      </trkpt>
      <trkpt lat="43.485154" lon="-5.847121">
        <ele>128</ele>
        <time>2019-11-24T16:52:01Z</time>
      </trkpt>
      <trkpt lat="43.485122" lon="-5.847165">
        <ele>128.2</ele>
        <time>2019-11-24T16:52:02Z</time>
      </trkpt>
      <trkpt lat="43.48509" lon="-5.847211">
        <ele>128.8</ele>
        <time>2019-11-24T16:52:03Z</time>
      </trkpt>
      <trkpt lat="43.48506" lon="-5.847257">
        <ele>128.6</ele>
        <time>2019-11-24T16:52:04Z</time>
      </trkpt>
      <trkpt lat="43.48503" lon="-5.847306">
        <ele>128.4</ele>
        <time>2019-11-24T16:52:05Z</time>
      </trkpt>
      <trkpt lat="43.485" lon="-5.847354">
        <ele>128.8</ele>
        <time>2019-11-24T16:52:06Z</time>
      </trkpt>
      <trkpt lat="43.484973" lon="-5.847403">
        <ele>128.8</ele>
        <time>2019-11-24T16:52:07Z</time>
      </trkpt>
      <trkpt lat="43.484947" lon="-5.847455">
        <ele>129.2</ele>
        <time>2019-11-24T16:52:08Z</time>
      </trkpt>
      <trkpt lat="43.484922" lon="-5.847508">
        <ele>129.4</ele>
        <time>2019-11-24T16:52:09Z</time>
      </trkpt>
      <trkpt lat="43.484897" lon="-5.847561">
        <ele>129.6</ele>
        <time>2019-11-24T16:52:10Z</time>
      </trkpt>
      <trkpt lat="43.484873" lon="-5.847613">
        <ele>130</ele>
        <time>2019-11-24T16:52:11Z</time>
      </trkpt>
      <trkpt lat="43.48485" lon="-5.847666">
        <ele>130.2</ele>
        <time>2019-11-24T16:52:12Z</time>
      </trkpt>
      <trkpt lat="43.484828" lon="-5.847721">
        <ele>130.4</ele>
        <time>2019-11-24T16:52:13Z</time>
      </trkpt>
      <trkpt lat="43.484808" lon="-5.847778">
        <ele>130.6</ele>
        <time>2019-11-24T16:52:14Z</time>
      </trkpt>
      <trkpt lat="43.48479" lon="-5.847835">
        <ele>131.2</ele>
        <time>2019-11-24T16:52:15Z</time>
      </trkpt>
      <trkpt lat="43.484773" lon="-5.847892">
        <ele>131</ele>
        <time>2019-11-24T16:52:16Z</time>
      </trkpt>
      <trkpt lat="43.484756" lon="-5.847948">
        <ele>131.4</ele>
        <time>2019-11-24T16:52:17Z</time>
      </trkpt>
      <trkpt lat="43.484739" lon="-5.848004">
        <ele>131.6</ele>
        <time>2019-11-24T16:52:18Z</time>
      </trkpt>
      <trkpt lat="43.484724" lon="-5.848059">
        <ele>132</ele>
        <time>2019-11-24T16:52:19Z</time>
      </trkpt>
      <trkpt lat="43.484706" lon="-5.848113">
        <ele>132</ele>
        <time>2019-11-24T16:52:20Z</time>
      </trkpt>
      <trkpt lat="43.484686" lon="-5.848165">
        <ele>132</ele>
        <time>2019-11-24T16:52:21Z</time>
      </trkpt>
      <trkpt lat="43.484666" lon="-5.848217">
        <ele>132.4</ele>
        <time>2019-11-24T16:52:22Z</time>
      </trkpt>
      <trkpt lat="43.484644" lon="-5.848266">
        <ele>133.2</ele>
        <time>2019-11-24T16:52:23Z</time>
      </trkpt>
      <trkpt lat="43.484619" lon="-5.848313">
        <ele>133</ele>
        <time>2019-11-24T16:52:24Z</time>
      </trkpt>
      <trkpt lat="43.484594" lon="-5.848359">
        <ele>133</ele>
        <time>2019-11-24T16:52:25Z</time>
      </trkpt>
      <trkpt lat="43.484568" lon="-5.848404">
        <ele>133.8</ele>
        <time>2019-11-24T16:52:26Z</time>
      </trkpt>
      <trkpt lat="43.484541" lon="-5.848447">
        <ele>133.8</ele>
        <time>2019-11-24T16:52:27Z</time>
      </trkpt>
      <trkpt lat="43.484513" lon="-5.848487">
        <ele>133.8</ele>
        <time>2019-11-24T16:52:28Z</time>
      </trkpt>
      <trkpt lat="43.484484" lon="-5.848526">
        <ele>134.4</ele>
        <time>2019-11-24T16:52:29Z</time>
      </trkpt>
      <trkpt lat="43.484452" lon="-5.848564">
        <ele>134.8</ele>
        <time>2019-11-24T16:52:30Z</time>
      </trkpt>
      <trkpt lat="43.48442" lon="-5.8486">
        <ele>135</ele>
        <time>2019-11-24T16:52:31Z</time>
      </trkpt>
      <trkpt lat="43.484387" lon="-5.848635">
        <ele>134.8</ele>
        <time>2019-11-24T16:52:32Z</time>
      </trkpt>
      <trkpt lat="43.484354" lon="-5.84867">
        <ele>134.6</ele>
        <time>2019-11-24T16:52:33Z</time>
      </trkpt>
      <trkpt lat="43.484322" lon="-5.848706">
        <ele>135.6</ele>
        <time>2019-11-24T16:52:34Z</time>
      </trkpt>
      <trkpt lat="43.484289" lon="-5.848743">
        <ele>135.8</ele>
        <time>2019-11-24T16:52:35Z</time>
      </trkpt>
      <trkpt lat="43.484257" lon="-5.84878">
        <ele>135.6</ele>
        <time>2019-11-24T16:52:36Z</time>
      </trkpt>
      <trkpt lat="43.484226" lon="-5.848818">
        <ele>135.8</ele>
        <time>2019-11-24T16:52:37Z</time>
      </trkpt>
      <trkpt lat="43.484196" lon="-5.848856">
        <ele>136.2</ele>
        <time>2019-11-24T16:52:38Z</time>
      </trkpt>
      <trkpt lat="43.484166" lon="-5.848895">
        <ele>136.4</ele>
        <time>2019-11-24T16:52:39Z</time>
      </trkpt>
      <trkpt lat="43.484138" lon="-5.848936">
        <ele>136.6</ele>
        <time>2019-11-24T16:52:40Z</time>
      </trkpt>
      <trkpt lat="43.484111" lon="-5.848979">
        <ele>136.4</ele>
        <time>2019-11-24T16:52:41Z</time>
      </trkpt>
      <trkpt lat="43.484084" lon="-5.849023">
        <ele>136.6</ele>
        <time>2019-11-24T16:52:42Z</time>
      </trkpt>
      <trkpt lat="43.484057" lon="-5.849066">
        <ele>137.4</ele>
        <time>2019-11-24T16:52:43Z</time>
      </trkpt>
      <trkpt lat="43.484031" lon="-5.84911">
        <ele>137.8</ele>
        <time>2019-11-24T16:52:44Z</time>
      </trkpt>
      <trkpt lat="43.484005" lon="-5.849154">
        <ele>137.2</ele>
        <time>2019-11-24T16:52:45Z</time>
      </trkpt>
      <trkpt lat="43.483981" lon="-5.849199">
        <ele>137.6</ele>
        <time>2019-11-24T16:52:46Z</time>
      </trkpt>
      <trkpt lat="43.483957" lon="-5.849246">
        <ele>137.4</ele>
        <time>2019-11-24T16:52:47Z</time>
      </trkpt>
      <trkpt lat="43.483932" lon="-5.849292">
        <ele>138</ele>
        <time>2019-11-24T16:52:48Z</time>
      </trkpt>
      <trkpt lat="43.483907" lon="-5.849338">
        <ele>138.2</ele>
        <time>2019-11-24T16:52:49Z</time>
      </trkpt>
      <trkpt lat="43.483882" lon="-5.849382">
        <ele>138.2</ele>
        <time>2019-11-24T16:52:50Z</time>
      </trkpt>
      <trkpt lat="43.483856" lon="-5.849424">
        <ele>138.4</ele>
        <time>2019-11-24T16:52:51Z</time>
      </trkpt>
      <trkpt lat="43.483829" lon="-5.849465">
        <ele>139</ele>
        <time>2019-11-24T16:52:52Z</time>
      </trkpt>
      <trkpt lat="43.483802" lon="-5.849505">
        <ele>139.2</ele>
        <time>2019-11-24T16:52:53Z</time>
      </trkpt>
      <trkpt lat="43.483772" lon="-5.849543">
        <ele>139.2</ele>
        <time>2019-11-24T16:52:54Z</time>
      </trkpt>
      <trkpt lat="43.48374" lon="-5.849579">
        <ele>139.6</ele>
        <time>2019-11-24T16:52:55Z</time>
      </trkpt>
      <trkpt lat="43.483707" lon="-5.849613">
        <ele>139.6</ele>
        <time>2019-11-24T16:52:56Z</time>
      </trkpt>
      <trkpt lat="43.483672" lon="-5.849643">
        <ele>139.8</ele>
        <time>2019-11-24T16:52:57Z</time>
      </trkpt>
      <trkpt lat="43.483634" lon="-5.849668">
        <ele>139.8</ele>
        <time>2019-11-24T16:52:58Z</time>
      </trkpt>
      <trkpt lat="43.483596" lon="-5.849689">
        <ele>140.2</ele>
        <time>2019-11-24T16:52:59Z</time>
      </trkpt>
      <trkpt lat="43.483558" lon="-5.849708">
        <ele>140.8</ele>
        <time>2019-11-24T16:53:00Z</time>
      </trkpt>
      <trkpt lat="43.483518" lon="-5.849722">
        <ele>140.8</ele>
        <time>2019-11-24T16:53:01Z</time>
      </trkpt>
      <trkpt lat="43.483477" lon="-5.849732">
        <ele>141.4</ele>
        <time>2019-11-24T16:53:02Z</time>
      </trkpt>
      <trkpt lat="43.483436" lon="-5.849739">
        <ele>141.2</ele>
        <time>2019-11-24T16:53:03Z</time>
      </trkpt>
      <trkpt lat="43.483393" lon="-5.849741">
        <ele>141.6</ele>
        <time>2019-11-24T16:53:04Z</time>
      </trkpt>
      <trkpt lat="43.483351" lon="-5.849741">
        <ele>142.2</ele>
        <time>2019-11-24T16:53:05Z</time>
      </trkpt>
      <trkpt lat="43.483307" lon="-5.849739">
        <ele>142.8</ele>
        <time>2019-11-24T16:53:06Z</time>
      </trkpt>
      <trkpt lat="43.483262" lon="-5.849733">
        <ele>143</ele>
        <time>2019-11-24T16:53:07Z</time>
      </trkpt>
      <trkpt lat="43.483218" lon="-5.849725">
        <ele>142.8</ele>
        <time>2019-11-24T16:53:08Z</time>
      </trkpt>
      <trkpt lat="43.483174" lon="-5.849719">
        <ele>142.8</ele>
        <time>2019-11-24T16:53:09Z</time>
      </trkpt>
      <trkpt lat="43.483129" lon="-5.849717">
        <ele>142.4</ele>
        <time>2019-11-24T16:53:10Z</time>
      </trkpt>
      <trkpt lat="43.483084" lon="-5.849717">
        <ele>143</ele>
        <time>2019-11-24T16:53:11Z</time>
      </trkpt>
      <trkpt lat="43.483039" lon="-5.84972">
        <ele>143.6</ele>
        <time>2019-11-24T16:53:12Z</time>
      </trkpt>
      <trkpt lat="43.482995" lon="-5.849725">
        <ele>144.2</ele>
        <time>2019-11-24T16:53:13Z</time>
      </trkpt>
      <trkpt lat="43.482951" lon="-5.849734">
        <ele>144.2</ele>
        <time>2019-11-24T16:53:14Z</time>
      </trkpt>
      <trkpt lat="43.482909" lon="-5.84975">
        <ele>144.8</ele>
        <time>2019-11-24T16:53:15Z</time>
      </trkpt>
      <trkpt lat="43.482871" lon="-5.849769">
        <ele>144.8</ele>
        <time>2019-11-24T16:53:16Z</time>
      </trkpt>
      <trkpt lat="43.482834" lon="-5.849794">
        <ele>145.4</ele>
        <time>2019-11-24T16:53:17Z</time>
      </trkpt>
      <trkpt lat="43.482801" lon="-5.849823">
        <ele>146.4</ele>
        <time>2019-11-24T16:53:18Z</time>
      </trkpt>
      <trkpt lat="43.48277" lon="-5.849855">
        <ele>146.2</ele>
        <time>2019-11-24T16:53:19Z</time>
      </trkpt>
      <trkpt lat="43.48274" lon="-5.849886">
        <ele>146.4</ele>
        <time>2019-11-24T16:53:20Z</time>
      </trkpt>
      <trkpt lat="43.482712" lon="-5.84992">
        <ele>147.2</ele>
        <time>2019-11-24T16:53:21Z</time>
      </trkpt>
      <trkpt lat="43.482684" lon="-5.849954">
        <ele>147.4</ele>
        <time>2019-11-24T16:53:22Z</time>
      </trkpt>
      <trkpt lat="43.482655" lon="-5.849986">
        <ele>147.4</ele>
        <time>2019-11-24T16:53:23Z</time>
      </trkpt>
      <trkpt lat="43.482625" lon="-5.850017">
        <ele>147.6</ele>
        <time>2019-11-24T16:53:24Z</time>
      </trkpt>
      <trkpt lat="43.482595" lon="-5.850047">
        <ele>147.8</ele>
        <time>2019-11-24T16:53:25Z</time>
      </trkpt>
      <trkpt lat="43.482563" lon="-5.850078">
        <ele>148.2</ele>
        <time>2019-11-24T16:53:26Z</time>
      </trkpt>
      <trkpt lat="43.482531" lon="-5.850109">
        <ele>148.4</ele>
        <time>2019-11-24T16:53:27Z</time>
      </trkpt>
      <trkpt lat="43.482496" lon="-5.850136">
        <ele>148.6</ele>
        <time>2019-11-24T16:53:28Z</time>
      </trkpt>
      <trkpt lat="43.482461" lon="-5.850163">
        <ele>149</ele>
        <time>2019-11-24T16:53:29Z</time>
      </trkpt>
      <trkpt lat="43.482425" lon="-5.850186">
        <ele>149.6</ele>
        <time>2019-11-24T16:53:30Z</time>
      </trkpt>
      <trkpt lat="43.482385" lon="-5.850204">
        <ele>149.2</ele>
        <time>2019-11-24T16:53:31Z</time>
      </trkpt>
      <trkpt lat="43.482345" lon="-5.850216">
        <ele>150</ele>
        <time>2019-11-24T16:53:32Z</time>
      </trkpt>
      <trkpt lat="43.482303" lon="-5.850225">
        <ele>150.2</ele>
        <time>2019-11-24T16:53:33Z</time>
      </trkpt>
      <trkpt lat="43.482261" lon="-5.85023">
        <ele>150.2</ele>
        <time>2019-11-24T16:53:34Z</time>
      </trkpt>
      <trkpt lat="43.482218" lon="-5.850233">
        <ele>150.4</ele>
        <time>2019-11-24T16:53:35Z</time>
      </trkpt>
      <trkpt lat="43.482175" lon="-5.850231">
        <ele>150.8</ele>
        <time>2019-11-24T16:53:36Z</time>
      </trkpt>
      <trkpt lat="43.482132" lon="-5.850225">
        <ele>148.2</ele>
        <time>2019-11-24T16:53:37Z</time>
      </trkpt>
      <trkpt lat="43.482089" lon="-5.850217">
        <ele>151.6</ele>
        <time>2019-11-24T16:53:38Z</time>
      </trkpt>
      <trkpt lat="43.482045" lon="-5.850207">
        <ele>153.4</ele>
        <time>2019-11-24T16:53:39Z</time>
      </trkpt>
      <trkpt lat="43.482001" lon="-5.850196">
        <ele>150.8</ele>
        <time>2019-11-24T16:53:40Z</time>
      </trkpt>
      <trkpt lat="43.481957" lon="-5.850186">
        <ele>152.6</ele>
        <time>2019-11-24T16:53:41Z</time>
      </trkpt>
      <trkpt lat="43.481912" lon="-5.850173">
        <ele>152.2</ele>
        <time>2019-11-24T16:53:42Z</time>
      </trkpt>
      <trkpt lat="43.481824" lon="-5.850142">
        <ele>152.4</ele>
        <time>2019-11-24T16:53:44Z</time>
      </trkpt>
      <trkpt lat="43.481783" lon="-5.850125">
        <ele>153.4</ele>
        <time>2019-11-24T16:53:45Z</time>
      </trkpt>
      <trkpt lat="43.481741" lon="-5.850108">
        <ele>153.6</ele>
        <time>2019-11-24T16:53:46Z</time>
      </trkpt>
      <trkpt lat="43.481701" lon="-5.85009">
        <ele>154.4</ele>
        <time>2019-11-24T16:53:47Z</time>
      </trkpt>
      <trkpt lat="43.481659" lon="-5.85007">
        <ele>154</ele>
        <time>2019-11-24T16:53:48Z</time>
      </trkpt>
      <trkpt lat="43.481618" lon="-5.850048">
        <ele>154</ele>
        <time>2019-11-24T16:53:49Z</time>
      </trkpt>
      <trkpt lat="43.481576" lon="-5.850022">
        <ele>154.2</ele>
        <time>2019-11-24T16:53:50Z</time>
      </trkpt>
      <trkpt lat="43.481536" lon="-5.849993">
        <ele>155.2</ele>
        <time>2019-11-24T16:53:51Z</time>
      </trkpt>
      <trkpt lat="43.481496" lon="-5.849961">
        <ele>155.2</ele>
        <time>2019-11-24T16:53:52Z</time>
      </trkpt>
      <trkpt lat="43.481459" lon="-5.849926">
        <ele>155</ele>
        <time>2019-11-24T16:53:53Z</time>
      </trkpt>
      <trkpt lat="43.481424" lon="-5.849887">
        <ele>155.6</ele>
        <time>2019-11-24T16:53:54Z</time>
      </trkpt>
      <trkpt lat="43.48139" lon="-5.849847">
        <ele>155.6</ele>
        <time>2019-11-24T16:53:55Z</time>
      </trkpt>
      <trkpt lat="43.481357" lon="-5.849806">
        <ele>156</ele>
        <time>2019-11-24T16:53:56Z</time>
      </trkpt>
      <trkpt lat="43.481326" lon="-5.849764">
        <ele>156.4</ele>
        <time>2019-11-24T16:53:57Z</time>
      </trkpt>
      <trkpt lat="43.481298" lon="-5.849718">
        <ele>156.6</ele>
        <time>2019-11-24T16:53:58Z</time>
      </trkpt>
      <trkpt lat="43.481274" lon="-5.849669">
        <ele>156.8</ele>
        <time>2019-11-24T16:53:59Z</time>
      </trkpt>
      <trkpt lat="43.481252" lon="-5.849618">
        <ele>157.2</ele>
        <time>2019-11-24T16:54:00Z</time>
      </trkpt>
      <trkpt lat="43.481234" lon="-5.849565">
        <ele>157.6</ele>
        <time>2019-11-24T16:54:01Z</time>
      </trkpt>
      <trkpt lat="43.481219" lon="-5.84951">
        <ele>158</ele>
        <time>2019-11-24T16:54:02Z</time>
      </trkpt>
      <trkpt lat="43.481207" lon="-5.849453">
        <ele>158.4</ele>
        <time>2019-11-24T16:54:03Z</time>
      </trkpt>
      <trkpt lat="43.481197" lon="-5.849394">
        <ele>158.8</ele>
        <time>2019-11-24T16:54:04Z</time>
      </trkpt>
      <trkpt lat="43.481191" lon="-5.849333">
        <ele>159</ele>
        <time>2019-11-24T16:54:05Z</time>
      </trkpt>
      <trkpt lat="43.481187" lon="-5.849271">
        <ele>159.4</ele>
        <time>2019-11-24T16:54:06Z</time>
      </trkpt>
      <trkpt lat="43.481185" lon="-5.849209">
        <ele>159.2</ele>
        <time>2019-11-24T16:54:07Z</time>
      </trkpt>
      <trkpt lat="43.481183" lon="-5.849147">
        <ele>158.8</ele>
        <time>2019-11-24T16:54:08Z</time>
      </trkpt>
      <trkpt lat="43.481183" lon="-5.849087">
        <ele>159.2</ele>
        <time>2019-11-24T16:54:09Z</time>
      </trkpt>
      <trkpt lat="43.481185" lon="-5.849027">
        <ele>159.6</ele>
        <time>2019-11-24T16:54:10Z</time>
      </trkpt>
      <trkpt lat="43.481187" lon="-5.848967">
        <ele>159.8</ele>
        <time>2019-11-24T16:54:11Z</time>
      </trkpt>
      <trkpt lat="43.48119" lon="-5.848908">
        <ele>159.6</ele>
        <time>2019-11-24T16:54:12Z</time>
      </trkpt>
      <trkpt lat="43.481193" lon="-5.848848">
        <ele>159.4</ele>
        <time>2019-11-24T16:54:13Z</time>
      </trkpt>
      <trkpt lat="43.481197" lon="-5.848788">
        <ele>160.2</ele>
        <time>2019-11-24T16:54:14Z</time>
      </trkpt>
      <trkpt lat="43.4812" lon="-5.848728">
        <ele>160.6</ele>
        <time>2019-11-24T16:54:15Z</time>
      </trkpt>
      <trkpt lat="43.481203" lon="-5.84867">
        <ele>160.8</ele>
        <time>2019-11-24T16:54:16Z</time>
      </trkpt>
      <trkpt lat="43.481208" lon="-5.848611">
        <ele>161</ele>
        <time>2019-11-24T16:54:17Z</time>
      </trkpt>
      <trkpt lat="43.481213" lon="-5.848553">
        <ele>161</ele>
        <time>2019-11-24T16:54:18Z</time>
      </trkpt>
      <trkpt lat="43.481217" lon="-5.848495">
        <ele>161.6</ele>
        <time>2019-11-24T16:54:19Z</time>
      </trkpt>
      <trkpt lat="43.481222" lon="-5.848436">
        <ele>162.2</ele>
        <time>2019-11-24T16:54:20Z</time>
      </trkpt>
      <trkpt lat="43.481228" lon="-5.848377">
        <ele>160.6</ele>
        <time>2019-11-24T16:54:21Z</time>
      </trkpt>
      <trkpt lat="43.481233" lon="-5.848318">
        <ele>163</ele>
        <time>2019-11-24T16:54:22Z</time>
      </trkpt>
      <trkpt lat="43.481239" lon="-5.8482">
        <ele>162.6</ele>
        <time>2019-11-24T16:54:23Z</time>
      </trkpt>
      <trkpt lat="43.481239" lon="-5.84817">
        <ele>162.6</ele>
        <time>2019-11-24T16:54:24Z</time>
      </trkpt>
      <trkpt lat="43.481238" lon="-5.848141">
        <ele>163</ele>
        <time>2019-11-24T16:54:25Z</time>
      </trkpt>
      <trkpt lat="43.481235" lon="-5.848082">
        <ele>163.6</ele>
        <time>2019-11-24T16:54:26Z</time>
      </trkpt>
      <trkpt lat="43.481229" lon="-5.848024">
        <ele>163.8</ele>
        <time>2019-11-24T16:54:27Z</time>
      </trkpt>
      <trkpt lat="43.481217" lon="-5.847968">
        <ele>163.8</ele>
        <time>2019-11-24T16:54:28Z</time>
      </trkpt>
      <trkpt lat="43.4812" lon="-5.847914">
        <ele>165</ele>
        <time>2019-11-24T16:54:29Z</time>
      </trkpt>
      <trkpt lat="43.481177" lon="-5.847866">
        <ele>164.2</ele>
        <time>2019-11-24T16:54:30Z</time>
      </trkpt>
      <trkpt lat="43.481151" lon="-5.847823">
        <ele>164.8</ele>
        <time>2019-11-24T16:54:31Z</time>
      </trkpt>
      <trkpt lat="43.481122" lon="-5.847785">
        <ele>165.2</ele>
        <time>2019-11-24T16:54:32Z</time>
      </trkpt>
      <trkpt lat="43.481055" lon="-5.847729">
        <ele>166</ele>
        <time>2019-11-24T16:54:34Z</time>
      </trkpt>
      <trkpt lat="43.481017" lon="-5.847711">
        <ele>166.4</ele>
        <time>2019-11-24T16:54:35Z</time>
      </trkpt>
      <trkpt lat="43.480978" lon="-5.847699">
        <ele>166.2</ele>
        <time>2019-11-24T16:54:36Z</time>
      </trkpt>
      <trkpt lat="43.480937" lon="-5.847692">
        <ele>166.6</ele>
        <time>2019-11-24T16:54:37Z</time>
      </trkpt>
      <trkpt lat="43.480897" lon="-5.847691">
        <ele>167.4</ele>
        <time>2019-11-24T16:54:38Z</time>
      </trkpt>
      <trkpt lat="43.480816" lon="-5.847705">
        <ele>167.2</ele>
        <time>2019-11-24T16:54:40Z</time>
      </trkpt>
      <trkpt lat="43.480775" lon="-5.847718">
        <ele>167.8</ele>
        <time>2019-11-24T16:54:41Z</time>
      </trkpt>
      <trkpt lat="43.480735" lon="-5.847735">
        <ele>168</ele>
        <time>2019-11-24T16:54:42Z</time>
      </trkpt>
      <trkpt lat="43.480696" lon="-5.847754">
        <ele>168.8</ele>
        <time>2019-11-24T16:54:43Z</time>
      </trkpt>
      <trkpt lat="43.480657" lon="-5.847772">
        <ele>169</ele>
        <time>2019-11-24T16:54:44Z</time>
      </trkpt>
      <trkpt lat="43.480579" lon="-5.847808">
        <ele>169.6</ele>
        <time>2019-11-24T16:54:46Z</time>
      </trkpt>
      <trkpt lat="43.48054" lon="-5.847826">
        <ele>169.6</ele>
        <time>2019-11-24T16:54:47Z</time>
      </trkpt>
      <trkpt lat="43.480501" lon="-5.847845">
        <ele>169.6</ele>
        <time>2019-11-24T16:54:48Z</time>
      </trkpt>
      <trkpt lat="43.480462" lon="-5.847866">
        <ele>169.8</ele>
        <time>2019-11-24T16:54:49Z</time>
      </trkpt>
      <trkpt lat="43.480424" lon="-5.847888">
        <ele>170</ele>
        <time>2019-11-24T16:54:50Z</time>
      </trkpt>
      <trkpt lat="43.480346" lon="-5.84793">
        <ele>170.8</ele>
        <time>2019-11-24T16:54:52Z</time>
      </trkpt>
      <trkpt lat="43.480306" lon="-5.84795">
        <ele>171.2</ele>
        <time>2019-11-24T16:54:53Z</time>
      </trkpt>
      <trkpt lat="43.480265" lon="-5.847969">
        <ele>171.6</ele>
        <time>2019-11-24T16:54:54Z</time>
      </trkpt>
      <trkpt lat="43.480224" lon="-5.847989">
        <ele>171.6</ele>
        <time>2019-11-24T16:54:55Z</time>
      </trkpt>
      <trkpt lat="43.480181" lon="-5.848008">
        <ele>171.8</ele>
        <time>2019-11-24T16:54:56Z</time>
      </trkpt>
      <trkpt lat="43.480097" lon="-5.848049">
        <ele>172.2</ele>
        <time>2019-11-24T16:54:58Z</time>
      </trkpt>
      <trkpt lat="43.480055" lon="-5.848071">
        <ele>172.4</ele>
        <time>2019-11-24T16:54:59Z</time>
      </trkpt>
      <trkpt lat="43.480012" lon="-5.848093">
        <ele>172.8</ele>
        <time>2019-11-24T16:55:00Z</time>
      </trkpt>
      <trkpt lat="43.479969" lon="-5.848115">
        <ele>173</ele>
        <time>2019-11-24T16:55:01Z</time>
      </trkpt>
      <trkpt lat="43.479926" lon="-5.848136">
        <ele>173.2</ele>
        <time>2019-11-24T16:55:02Z</time>
      </trkpt>
      <trkpt lat="43.479842" lon="-5.848181">
        <ele>173.4</ele>
        <time>2019-11-24T16:55:04Z</time>
      </trkpt>
      <trkpt lat="43.479801" lon="-5.848203">
        <ele>174.2</ele>
        <time>2019-11-24T16:55:05Z</time>
      </trkpt>
      <trkpt lat="43.47976" lon="-5.848226">
        <ele>173.8</ele>
        <time>2019-11-24T16:55:06Z</time>
      </trkpt>
      <trkpt lat="43.479719" lon="-5.848246">
        <ele>173.8</ele>
        <time>2019-11-24T16:55:07Z</time>
      </trkpt>
      <trkpt lat="43.479678" lon="-5.848266">
        <ele>175</ele>
        <time>2019-11-24T16:55:08Z</time>
      </trkpt>
      <trkpt lat="43.479598" lon="-5.848301">
        <ele>174.8</ele>
        <time>2019-11-24T16:55:10Z</time>
      </trkpt>
      <trkpt lat="43.479556" lon="-5.848318">
        <ele>174.6</ele>
        <time>2019-11-24T16:55:11Z</time>
      </trkpt>
      <trkpt lat="43.479515" lon="-5.848334">
        <ele>175</ele>
        <time>2019-11-24T16:55:12Z</time>
      </trkpt>
      <trkpt lat="43.479472" lon="-5.84835">
        <ele>175.2</ele>
        <time>2019-11-24T16:55:13Z</time>
      </trkpt>
      <trkpt lat="43.479427" lon="-5.84836">
        <ele>176</ele>
        <time>2019-11-24T16:55:14Z</time>
      </trkpt>
      <trkpt lat="43.479333" lon="-5.848372">
        <ele>176.4</ele>
        <time>2019-11-24T16:55:16Z</time>
      </trkpt>
      <trkpt lat="43.479286" lon="-5.84837">
        <ele>176.4</ele>
        <time>2019-11-24T16:55:17Z</time>
      </trkpt>
      <trkpt lat="43.479239" lon="-5.848363">
        <ele>176.8</ele>
        <time>2019-11-24T16:55:18Z</time>
      </trkpt>
      <trkpt lat="43.479193" lon="-5.848351">
        <ele>176.8</ele>
        <time>2019-11-24T16:55:19Z</time>
      </trkpt>
      <trkpt lat="43.479146" lon="-5.848337">
        <ele>176.8</ele>
        <time>2019-11-24T16:55:20Z</time>
      </trkpt>
      <trkpt lat="43.479051" lon="-5.848301">
        <ele>177.4</ele>
        <time>2019-11-24T16:55:22Z</time>
      </trkpt>
      <trkpt lat="43.479002" lon="-5.848284">
        <ele>177</ele>
        <time>2019-11-24T16:55:23Z</time>
      </trkpt>
      <trkpt lat="43.478953" lon="-5.848267">
        <ele>176.4</ele>
        <time>2019-11-24T16:55:24Z</time>
      </trkpt>
      <trkpt lat="43.478903" lon="-5.84825">
        <ele>176.8</ele>
        <time>2019-11-24T16:55:25Z</time>
      </trkpt>
      <trkpt lat="43.478854" lon="-5.848233">
        <ele>176.8</ele>
        <time>2019-11-24T16:55:26Z</time>
      </trkpt>
      <trkpt lat="43.478753" lon="-5.848199">
        <ele>178</ele>
        <time>2019-11-24T16:55:28Z</time>
      </trkpt>
      <trkpt lat="43.478702" lon="-5.848187">
        <ele>178.2</ele>
        <time>2019-11-24T16:55:29Z</time>
      </trkpt>
      <trkpt lat="43.478651" lon="-5.848181">
        <ele>178.6</ele>
        <time>2019-11-24T16:55:30Z</time>
      </trkpt>
      <trkpt lat="43.4786" lon="-5.848181">
        <ele>178.4</ele>
        <time>2019-11-24T16:55:31Z</time>
      </trkpt>
      <trkpt lat="43.478549" lon="-5.848182">
        <ele>178.6</ele>
        <time>2019-11-24T16:55:32Z</time>
      </trkpt>
      <trkpt lat="43.478448" lon="-5.848196">
        <ele>178.6</ele>
        <time>2019-11-24T16:55:34Z</time>
      </trkpt>
      <trkpt lat="43.4784" lon="-5.848211">
        <ele>178.4</ele>
        <time>2019-11-24T16:55:35Z</time>
      </trkpt>
      <trkpt lat="43.478355" lon="-5.848232">
        <ele>179.2</ele>
        <time>2019-11-24T16:55:36Z</time>
      </trkpt>
      <trkpt lat="43.478311" lon="-5.848261">
        <ele>179.4</ele>
        <time>2019-11-24T16:55:37Z</time>
      </trkpt>
      <trkpt lat="43.47827" lon="-5.84829">
        <ele>179.6</ele>
        <time>2019-11-24T16:55:38Z</time>
      </trkpt>
      <trkpt lat="43.478199" lon="-5.848349">
        <ele>179.8</ele>
        <time>2019-11-24T16:55:40Z</time>
      </trkpt>
      <trkpt lat="43.478164" lon="-5.848392">
        <ele>180.2</ele>
        <time>2019-11-24T16:55:41Z</time>
      </trkpt>
      <trkpt lat="43.478129" lon="-5.848438">
        <ele>180.4</ele>
        <time>2019-11-24T16:55:42Z</time>
      </trkpt>
      <trkpt lat="43.478098" lon="-5.84849">
        <ele>180.8</ele>
        <time>2019-11-24T16:55:43Z</time>
      </trkpt>
      <trkpt lat="43.47807" lon="-5.848544">
        <ele>181.2</ele>
        <time>2019-11-24T16:55:44Z</time>
      </trkpt>
      <trkpt lat="43.478024" lon="-5.848658">
        <ele>180.4</ele>
        <time>2019-11-24T16:55:46Z</time>
      </trkpt>
      <trkpt lat="43.478002" lon="-5.848716">
        <ele>181.4</ele>
        <time>2019-11-24T16:55:47Z</time>
      </trkpt>
      <trkpt lat="43.477985" lon="-5.848777">
        <ele>182</ele>
        <time>2019-11-24T16:55:48Z</time>
      </trkpt>
      <trkpt lat="43.477971" lon="-5.848842">
        <ele>182.2</ele>
        <time>2019-11-24T16:55:49Z</time>
      </trkpt>
      <trkpt lat="43.477957" lon="-5.848904">
        <ele>182.2</ele>
        <time>2019-11-24T16:55:50Z</time>
      </trkpt>
      <trkpt lat="43.477932" lon="-5.84903">
        <ele>183</ele>
        <time>2019-11-24T16:55:52Z</time>
      </trkpt>
      <trkpt lat="43.477918" lon="-5.84909">
        <ele>183.6</ele>
        <time>2019-11-24T16:55:53Z</time>
      </trkpt>
      <trkpt lat="43.477904" lon="-5.849148">
        <ele>183.6</ele>
        <time>2019-11-24T16:55:54Z</time>
      </trkpt>
      <trkpt lat="43.477891" lon="-5.849208">
        <ele>183.4</ele>
        <time>2019-11-24T16:55:55Z</time>
      </trkpt>
      <trkpt lat="43.477879" lon="-5.849266">
        <ele>183.8</ele>
        <time>2019-11-24T16:55:56Z</time>
      </trkpt>
      <trkpt lat="43.477865" lon="-5.849323">
        <ele>183.6</ele>
        <time>2019-11-24T16:55:57Z</time>
      </trkpt>
      <trkpt lat="43.477853" lon="-5.84938">
        <ele>184.4</ele>
        <time>2019-11-24T16:55:58Z</time>
      </trkpt>
      <trkpt lat="43.47784" lon="-5.849437">
        <ele>185</ele>
        <time>2019-11-24T16:55:59Z</time>
      </trkpt>
      <trkpt lat="43.477825" lon="-5.849495">
        <ele>185.2</ele>
        <time>2019-11-24T16:56:00Z</time>
      </trkpt>
      <trkpt lat="43.477808" lon="-5.84955">
        <ele>185.6</ele>
        <time>2019-11-24T16:56:01Z</time>
      </trkpt>
      <trkpt lat="43.47779" lon="-5.849603">
        <ele>185.6</ele>
        <time>2019-11-24T16:56:02Z</time>
      </trkpt>
      <trkpt lat="43.477753" lon="-5.849705">
        <ele>186.2</ele>
        <time>2019-11-24T16:56:04Z</time>
      </trkpt>
      <trkpt lat="43.477733" lon="-5.849756">
        <ele>186.6</ele>
        <time>2019-11-24T16:56:05Z</time>
      </trkpt>
      <trkpt lat="43.477713" lon="-5.849803">
        <ele>186.8</ele>
        <time>2019-11-24T16:56:06Z</time>
      </trkpt>
      <trkpt lat="43.477691" lon="-5.849848">
        <ele>187.4</ele>
        <time>2019-11-24T16:56:07Z</time>
      </trkpt>
      <trkpt lat="43.47767" lon="-5.849894">
        <ele>187.6</ele>
        <time>2019-11-24T16:56:08Z</time>
      </trkpt>
      <trkpt lat="43.477625" lon="-5.849982">
        <ele>187.8</ele>
        <time>2019-11-24T16:56:10Z</time>
      </trkpt>
      <trkpt lat="43.477602" lon="-5.850028">
        <ele>188.2</ele>
        <time>2019-11-24T16:56:11Z</time>
      </trkpt>
      <trkpt lat="43.477578" lon="-5.85007">
        <ele>188.2</ele>
        <time>2019-11-24T16:56:12Z</time>
      </trkpt>
      <trkpt lat="43.477553" lon="-5.850112">
        <ele>188.4</ele>
        <time>2019-11-24T16:56:13Z</time>
      </trkpt>
      <trkpt lat="43.477529" lon="-5.850154">
        <ele>185.2</ele>
        <time>2019-11-24T16:56:14Z</time>
      </trkpt>
      <trkpt lat="43.477504" lon="-5.850194">
        <ele>190.4</ele>
        <time>2019-11-24T16:56:15Z</time>
      </trkpt>
      <trkpt lat="43.477478" lon="-5.850235">
        <ele>188.8</ele>
        <time>2019-11-24T16:56:16Z</time>
      </trkpt>
      <trkpt lat="43.477454" lon="-5.850277">
        <ele>189.2</ele>
        <time>2019-11-24T16:56:17Z</time>
      </trkpt>
      <trkpt lat="43.477428" lon="-5.850316">
        <ele>189.6</ele>
        <time>2019-11-24T16:56:18Z</time>
      </trkpt>
      <trkpt lat="43.477403" lon="-5.850358">
        <ele>190</ele>
        <time>2019-11-24T16:56:19Z</time>
      </trkpt>
      <trkpt lat="43.477375" lon="-5.850396">
        <ele>190.2</ele>
        <time>2019-11-24T16:56:20Z</time>
      </trkpt>
      <trkpt lat="43.477348" lon="-5.850434">
        <ele>190.4</ele>
        <time>2019-11-24T16:56:21Z</time>
      </trkpt>
      <trkpt lat="43.477319" lon="-5.850469">
        <ele>190.6</ele>
        <time>2019-11-24T16:56:22Z</time>
      </trkpt>
      <trkpt lat="43.477289" lon="-5.850502">
        <ele>190.8</ele>
        <time>2019-11-24T16:56:23Z</time>
      </trkpt>
      <trkpt lat="43.47726" lon="-5.850534">
        <ele>191.2</ele>
        <time>2019-11-24T16:56:24Z</time>
      </trkpt>
      <trkpt lat="43.47723" lon="-5.850564">
        <ele>191.2</ele>
        <time>2019-11-24T16:56:25Z</time>
      </trkpt>
      <trkpt lat="43.477199" lon="-5.850592">
        <ele>191.4</ele>
        <time>2019-11-24T16:56:26Z</time>
      </trkpt>
      <trkpt lat="43.477166" lon="-5.850617">
        <ele>191.4</ele>
        <time>2019-11-24T16:56:27Z</time>
      </trkpt>
      <trkpt lat="43.477131" lon="-5.85064">
        <ele>192</ele>
        <time>2019-11-24T16:56:28Z</time>
      </trkpt>
      <trkpt lat="43.477096" lon="-5.850659">
        <ele>192</ele>
        <time>2019-11-24T16:56:29Z</time>
      </trkpt>
      <trkpt lat="43.477059" lon="-5.850671">
        <ele>192</ele>
        <time>2019-11-24T16:56:30Z</time>
      </trkpt>
      <trkpt lat="43.47702" lon="-5.850678">
        <ele>192.2</ele>
        <time>2019-11-24T16:56:31Z</time>
      </trkpt>
      <trkpt lat="43.476979" lon="-5.850679">
        <ele>192.4</ele>
        <time>2019-11-24T16:56:32Z</time>
      </trkpt>
      <trkpt lat="43.476937" lon="-5.850672">
        <ele>192.8</ele>
        <time>2019-11-24T16:56:33Z</time>
      </trkpt>
      <trkpt lat="43.476895" lon="-5.85066">
        <ele>192.6</ele>
        <time>2019-11-24T16:56:34Z</time>
      </trkpt>
      <trkpt lat="43.476856" lon="-5.850642">
        <ele>193</ele>
        <time>2019-11-24T16:56:35Z</time>
      </trkpt>
      <trkpt lat="43.476819" lon="-5.850618">
        <ele>193</ele>
        <time>2019-11-24T16:56:36Z</time>
      </trkpt>
      <trkpt lat="43.476786" lon="-5.850588">
        <ele>193.8</ele>
        <time>2019-11-24T16:56:37Z</time>
      </trkpt>
      <trkpt lat="43.476756" lon="-5.850551">
        <ele>194.2</ele>
        <time>2019-11-24T16:56:38Z</time>
      </trkpt>
      <trkpt lat="43.476728" lon="-5.85051">
        <ele>194.6</ele>
        <time>2019-11-24T16:56:39Z</time>
      </trkpt>
      <trkpt lat="43.476706" lon="-5.850464">
        <ele>195.2</ele>
        <time>2019-11-24T16:56:40Z</time>
      </trkpt>
      <trkpt lat="43.476688" lon="-5.850414">
        <ele>195.4</ele>
        <time>2019-11-24T16:56:41Z</time>
      </trkpt>
      <trkpt lat="43.476675" lon="-5.850361">
        <ele>195.8</ele>
        <time>2019-11-24T16:56:42Z</time>
      </trkpt>
      <trkpt lat="43.476666" lon="-5.850305">
        <ele>195.8</ele>
        <time>2019-11-24T16:56:43Z</time>
      </trkpt>
      <trkpt lat="43.476661" lon="-5.850248">
        <ele>195.8</ele>
        <time>2019-11-24T16:56:44Z</time>
      </trkpt>
      <trkpt lat="43.476659" lon="-5.850188">
        <ele>195.8</ele>
        <time>2019-11-24T16:56:45Z</time>
      </trkpt>
      <trkpt lat="43.476659" lon="-5.850128">
        <ele>195.8</ele>
        <time>2019-11-24T16:56:46Z</time>
      </trkpt>
      <trkpt lat="43.47666" lon="-5.850067">
        <ele>196</ele>
        <time>2019-11-24T16:56:47Z</time>
      </trkpt>
      <trkpt lat="43.476662" lon="-5.850005">
        <ele>196.4</ele>
        <time>2019-11-24T16:56:48Z</time>
      </trkpt>
      <trkpt lat="43.476664" lon="-5.84994">
        <ele>196.8</ele>
        <time>2019-11-24T16:56:49Z</time>
      </trkpt>
      <trkpt lat="43.476668" lon="-5.849875">
        <ele>196.6</ele>
        <time>2019-11-24T16:56:50Z</time>
      </trkpt>
      <trkpt lat="43.476671" lon="-5.849811">
        <ele>197.6</ele>
        <time>2019-11-24T16:56:51Z</time>
      </trkpt>
      <trkpt lat="43.476674" lon="-5.849747">
        <ele>197.6</ele>
        <time>2019-11-24T16:56:52Z</time>
      </trkpt>
      <trkpt lat="43.476677" lon="-5.849683">
        <ele>197.2</ele>
        <time>2019-11-24T16:56:53Z</time>
      </trkpt>
      <trkpt lat="43.47668" lon="-5.849619">
        <ele>197</ele>
        <time>2019-11-24T16:56:54Z</time>
      </trkpt>
      <trkpt lat="43.476684" lon="-5.849556">
        <ele>197.6</ele>
        <time>2019-11-24T16:56:55Z</time>
      </trkpt>
      <trkpt lat="43.476689" lon="-5.849494">
        <ele>198.2</ele>
        <time>2019-11-24T16:56:56Z</time>
      </trkpt>
      <trkpt lat="43.476693" lon="-5.849431">
        <ele>198</ele>
        <time>2019-11-24T16:56:57Z</time>
      </trkpt>
      <trkpt lat="43.476696" lon="-5.849369">
        <ele>198.4</ele>
        <time>2019-11-24T16:56:58Z</time>
      </trkpt>
      <trkpt lat="43.4767" lon="-5.849309">
        <ele>198.6</ele>
        <time>2019-11-24T16:56:59Z</time>
      </trkpt>
      <trkpt lat="43.476703" lon="-5.849248">
        <ele>198.2</ele>
        <time>2019-11-24T16:57:00Z</time>
      </trkpt>
      <trkpt lat="43.476708" lon="-5.849187">
        <ele>198.2</ele>
        <time>2019-11-24T16:57:01Z</time>
      </trkpt>
      <trkpt lat="43.476713" lon="-5.849126">
        <ele>198.4</ele>
        <time>2019-11-24T16:57:02Z</time>
      </trkpt>
      <trkpt lat="43.476718" lon="-5.849066">
        <ele>199.8</ele>
        <time>2019-11-24T16:57:03Z</time>
      </trkpt>
      <trkpt lat="43.476724" lon="-5.849005">
        <ele>200.2</ele>
        <time>2019-11-24T16:57:04Z</time>
      </trkpt>
      <trkpt lat="43.476731" lon="-5.848944">
        <ele>200.2</ele>
        <time>2019-11-24T16:57:05Z</time>
      </trkpt>
      <trkpt lat="43.476738" lon="-5.848882">
        <ele>200.2</ele>
        <time>2019-11-24T16:57:06Z</time>
      </trkpt>
      <trkpt lat="43.476746" lon="-5.848822">
        <ele>200.4</ele>
        <time>2019-11-24T16:57:07Z</time>
      </trkpt>
      <trkpt lat="43.476753" lon="-5.84876">
        <ele>201.4</ele>
        <time>2019-11-24T16:57:08Z</time>
      </trkpt>
      <trkpt lat="43.476761" lon="-5.848699">
        <ele>201.6</ele>
        <time>2019-11-24T16:57:09Z</time>
      </trkpt>
      <trkpt lat="43.47677" lon="-5.848637">
        <ele>201.8</ele>
        <time>2019-11-24T16:57:10Z</time>
      </trkpt>
      <trkpt lat="43.476778" lon="-5.848575">
        <ele>201.4</ele>
        <time>2019-11-24T16:57:11Z</time>
      </trkpt>
      <trkpt lat="43.476787" lon="-5.848513">
        <ele>202</ele>
        <time>2019-11-24T16:57:12Z</time>
      </trkpt>
      <trkpt lat="43.476795" lon="-5.848451">
        <ele>202.4</ele>
        <time>2019-11-24T16:57:13Z</time>
      </trkpt>
      <trkpt lat="43.476804" lon="-5.848389">
        <ele>203.2</ele>
        <time>2019-11-24T16:57:14Z</time>
      </trkpt>
      <trkpt lat="43.476813" lon="-5.848328">
        <ele>203.2</ele>
        <time>2019-11-24T16:57:15Z</time>
      </trkpt>
      <trkpt lat="43.476824" lon="-5.848267">
        <ele>203.2</ele>
        <time>2019-11-24T16:57:16Z</time>
      </trkpt>
      <trkpt lat="43.476835" lon="-5.848207">
        <ele>203.6</ele>
        <time>2019-11-24T16:57:17Z</time>
      </trkpt>
      <trkpt lat="43.476845" lon="-5.848147">
        <ele>204</ele>
        <time>2019-11-24T16:57:18Z</time>
      </trkpt>
      <trkpt lat="43.476854" lon="-5.848087">
        <ele>204.4</ele>
        <time>2019-11-24T16:57:19Z</time>
      </trkpt>
      <trkpt lat="43.476862" lon="-5.848027">
        <ele>204.4</ele>
        <time>2019-11-24T16:57:20Z</time>
      </trkpt>
      <trkpt lat="43.476871" lon="-5.847965">
        <ele>205</ele>
        <time>2019-11-24T16:57:21Z</time>
      </trkpt>
      <trkpt lat="43.476879" lon="-5.847904">
        <ele>205</ele>
        <time>2019-11-24T16:57:22Z</time>
      </trkpt>
      <trkpt lat="43.476888" lon="-5.847842">
        <ele>205.6</ele>
        <time>2019-11-24T16:57:23Z</time>
      </trkpt>
      <trkpt lat="43.476898" lon="-5.84778">
        <ele>205.8</ele>
        <time>2019-11-24T16:57:24Z</time>
      </trkpt>
      <trkpt lat="43.476907" lon="-5.847718">
        <ele>206.2</ele>
        <time>2019-11-24T16:57:25Z</time>
      </trkpt>
      <trkpt lat="43.476916" lon="-5.847654">
        <ele>206.2</ele>
        <time>2019-11-24T16:57:26Z</time>
      </trkpt>
      <trkpt lat="43.476924" lon="-5.84759">
        <ele>206.6</ele>
        <time>2019-11-24T16:57:27Z</time>
      </trkpt>
      <trkpt lat="43.476933" lon="-5.847524">
        <ele>206.8</ele>
        <time>2019-11-24T16:57:28Z</time>
      </trkpt>
      <trkpt lat="43.476941" lon="-5.847457">
        <ele>206.4</ele>
        <time>2019-11-24T16:57:29Z</time>
      </trkpt>
      <trkpt lat="43.476949" lon="-5.84739">
        <ele>207.2</ele>
        <time>2019-11-24T16:57:30Z</time>
      </trkpt>
      <trkpt lat="43.476955" lon="-5.847321">
        <ele>207</ele>
        <time>2019-11-24T16:57:31Z</time>
      </trkpt>
      <trkpt lat="43.47696" lon="-5.847251">
        <ele>206.8</ele>
        <time>2019-11-24T16:57:32Z</time>
      </trkpt>
      <trkpt lat="43.476965" lon="-5.847181">
        <ele>207.2</ele>
        <time>2019-11-24T16:57:33Z</time>
      </trkpt>
      <trkpt lat="43.476968" lon="-5.847112">
        <ele>207.4</ele>
        <time>2019-11-24T16:57:34Z</time>
      </trkpt>
      <trkpt lat="43.476969" lon="-5.847042">
        <ele>207.6</ele>
        <time>2019-11-24T16:57:35Z</time>
      </trkpt>
      <trkpt lat="43.476969" lon="-5.846972">
        <ele>207.8</ele>
        <time>2019-11-24T16:57:36Z</time>
      </trkpt>
      <trkpt lat="43.476967" lon="-5.846903">
        <ele>207.8</ele>
        <time>2019-11-24T16:57:37Z</time>
      </trkpt>
      <trkpt lat="43.476966" lon="-5.846833">
        <ele>208.2</ele>
        <time>2019-11-24T16:57:38Z</time>
      </trkpt>
      <trkpt lat="43.476962" lon="-5.846764">
        <ele>208.4</ele>
        <time>2019-11-24T16:57:39Z</time>
      </trkpt>
      <trkpt lat="43.476958" lon="-5.846695">
        <ele>208.6</ele>
        <time>2019-11-24T16:57:40Z</time>
      </trkpt>
      <trkpt lat="43.476954" lon="-5.846626">
        <ele>208.6</ele>
        <time>2019-11-24T16:57:41Z</time>
      </trkpt>
      <trkpt lat="43.476949" lon="-5.846557">
        <ele>208.8</ele>
        <time>2019-11-24T16:57:42Z</time>
      </trkpt>
      <trkpt lat="43.476944" lon="-5.846488">
        <ele>209</ele>
        <time>2019-11-24T16:57:43Z</time>
      </trkpt>
      <trkpt lat="43.476938" lon="-5.84642">
        <ele>209.2</ele>
        <time>2019-11-24T16:57:44Z</time>
      </trkpt>
      <trkpt lat="43.476933" lon="-5.846352">
        <ele>209.2</ele>
        <time>2019-11-24T16:57:45Z</time>
      </trkpt>
      <trkpt lat="43.476928" lon="-5.846285">
        <ele>209.4</ele>
        <time>2019-11-24T16:57:46Z</time>
      </trkpt>
      <trkpt lat="43.476921" lon="-5.846218">
        <ele>209.8</ele>
        <time>2019-11-24T16:57:47Z</time>
      </trkpt>
      <trkpt lat="43.476914" lon="-5.846151">
        <ele>209.8</ele>
        <time>2019-11-24T16:57:48Z</time>
      </trkpt>
      <trkpt lat="43.476906" lon="-5.846083">
        <ele>210</ele>
        <time>2019-11-24T16:57:49Z</time>
      </trkpt>
      <trkpt lat="43.476897" lon="-5.846016">
        <ele>210.4</ele>
        <time>2019-11-24T16:57:50Z</time>
      </trkpt>
      <trkpt lat="43.476888" lon="-5.845949">
        <ele>210.4</ele>
        <time>2019-11-24T16:57:51Z</time>
      </trkpt>
      <trkpt lat="43.476878" lon="-5.845883">
        <ele>210.8</ele>
        <time>2019-11-24T16:57:52Z</time>
      </trkpt>
      <trkpt lat="43.476866" lon="-5.845816">
        <ele>211</ele>
        <time>2019-11-24T16:57:53Z</time>
      </trkpt>
      <trkpt lat="43.476854" lon="-5.84575">
        <ele>211</ele>
        <time>2019-11-24T16:57:54Z</time>
      </trkpt>
      <trkpt lat="43.476838" lon="-5.845684">
        <ele>211</ele>
        <time>2019-11-24T16:57:55Z</time>
      </trkpt>
      <trkpt lat="43.476819" lon="-5.845618">
        <ele>211.8</ele>
        <time>2019-11-24T16:57:56Z</time>
      </trkpt>
      <trkpt lat="43.476796" lon="-5.845553">
        <ele>211.8</ele>
        <time>2019-11-24T16:57:57Z</time>
      </trkpt>
      <trkpt lat="43.476771" lon="-5.845489">
        <ele>211.6</ele>
        <time>2019-11-24T16:57:58Z</time>
      </trkpt>
      <trkpt lat="43.476743" lon="-5.845427">
        <ele>211.8</ele>
        <time>2019-11-24T16:57:59Z</time>
      </trkpt>
      <trkpt lat="43.476714" lon="-5.845364">
        <ele>212</ele>
        <time>2019-11-24T16:58:00Z</time>
      </trkpt>
      <trkpt lat="43.476684" lon="-5.845302">
        <ele>212</ele>
        <time>2019-11-24T16:58:01Z</time>
      </trkpt>
      <trkpt lat="43.476655" lon="-5.845241">
        <ele>211.8</ele>
        <time>2019-11-24T16:58:02Z</time>
      </trkpt>
      <trkpt lat="43.476626" lon="-5.845178">
        <ele>212.2</ele>
        <time>2019-11-24T16:58:03Z</time>
      </trkpt>
      <trkpt lat="43.476599" lon="-5.845116">
        <ele>212</ele>
        <time>2019-11-24T16:58:04Z</time>
      </trkpt>
      <trkpt lat="43.476573" lon="-5.845051">
        <ele>212.2</ele>
        <time>2019-11-24T16:58:05Z</time>
      </trkpt>
      <trkpt lat="43.476549" lon="-5.844985">
        <ele>212.6</ele>
        <time>2019-11-24T16:58:06Z</time>
      </trkpt>
      <trkpt lat="43.476526" lon="-5.844917">
        <ele>213</ele>
        <time>2019-11-24T16:58:07Z</time>
      </trkpt>
      <trkpt lat="43.476503" lon="-5.844848">
        <ele>213.4</ele>
        <time>2019-11-24T16:58:08Z</time>
      </trkpt>
      <trkpt lat="43.476482" lon="-5.844777">
        <ele>213</ele>
        <time>2019-11-24T16:58:09Z</time>
      </trkpt>
      <trkpt lat="43.476461" lon="-5.844705">
        <ele>213.6</ele>
        <time>2019-11-24T16:58:10Z</time>
      </trkpt>
      <trkpt lat="43.476441" lon="-5.844634">
        <ele>214</ele>
        <time>2019-11-24T16:58:11Z</time>
      </trkpt>
      <trkpt lat="43.47642" lon="-5.844563">
        <ele>213.2</ele>
        <time>2019-11-24T16:58:12Z</time>
      </trkpt>
      <trkpt lat="43.476398" lon="-5.844495">
        <ele>213.6</ele>
        <time>2019-11-24T16:58:13Z</time>
      </trkpt>
      <trkpt lat="43.476373" lon="-5.84443">
        <ele>214</ele>
        <time>2019-11-24T16:58:14Z</time>
      </trkpt>
      <trkpt lat="43.476344" lon="-5.844369">
        <ele>213.4</ele>
        <time>2019-11-24T16:58:15Z</time>
      </trkpt>
      <trkpt lat="43.476309" lon="-5.844313">
        <ele>214.4</ele>
        <time>2019-11-24T16:58:16Z</time>
      </trkpt>
      <trkpt lat="43.476267" lon="-5.844264">
        <ele>214.2</ele>
        <time>2019-11-24T16:58:17Z</time>
      </trkpt>
      <trkpt lat="43.476218" lon="-5.844226">
        <ele>214</ele>
        <time>2019-11-24T16:58:18Z</time>
      </trkpt>
      <trkpt lat="43.476164" lon="-5.844202">
        <ele>214.6</ele>
        <time>2019-11-24T16:58:19Z</time>
      </trkpt>
      <trkpt lat="43.476108" lon="-5.844191">
        <ele>214.8</ele>
        <time>2019-11-24T16:58:20Z</time>
      </trkpt>
      <trkpt lat="43.476051" lon="-5.844193">
        <ele>215</ele>
        <time>2019-11-24T16:58:21Z</time>
      </trkpt>
      <trkpt lat="43.475995" lon="-5.844207">
        <ele>215</ele>
        <time>2019-11-24T16:58:22Z</time>
      </trkpt>
      <trkpt lat="43.47594" lon="-5.844229">
        <ele>214.2</ele>
        <time>2019-11-24T16:58:23Z</time>
      </trkpt>
      <trkpt lat="43.475886" lon="-5.844254">
        <ele>215.2</ele>
        <time>2019-11-24T16:58:24Z</time>
      </trkpt>
      <trkpt lat="43.475831" lon="-5.844281">
        <ele>215.2</ele>
        <time>2019-11-24T16:58:25Z</time>
      </trkpt>
      <trkpt lat="43.475777" lon="-5.844309">
        <ele>215.6</ele>
        <time>2019-11-24T16:58:26Z</time>
      </trkpt>
      <trkpt lat="43.475722" lon="-5.844338">
        <ele>215</ele>
        <time>2019-11-24T16:58:27Z</time>
      </trkpt>
      <trkpt lat="43.475668" lon="-5.844367">
        <ele>215.2</ele>
        <time>2019-11-24T16:58:28Z</time>
      </trkpt>
      <trkpt lat="43.475613" lon="-5.844398">
        <ele>215.6</ele>
        <time>2019-11-24T16:58:29Z</time>
      </trkpt>
      <trkpt lat="43.475559" lon="-5.84443">
        <ele>215.8</ele>
        <time>2019-11-24T16:58:30Z</time>
      </trkpt>
      <trkpt lat="43.475505" lon="-5.844464">
        <ele>216</ele>
        <time>2019-11-24T16:58:31Z</time>
      </trkpt>
      <trkpt lat="43.475451" lon="-5.844497">
        <ele>216</ele>
        <time>2019-11-24T16:58:32Z</time>
      </trkpt>
      <trkpt lat="43.475398" lon="-5.844532">
        <ele>216.4</ele>
        <time>2019-11-24T16:58:33Z</time>
      </trkpt>
      <trkpt lat="43.475345" lon="-5.844568">
        <ele>216.2</ele>
        <time>2019-11-24T16:58:34Z</time>
      </trkpt>
      <trkpt lat="43.475292" lon="-5.844604">
        <ele>216.2</ele>
        <time>2019-11-24T16:58:35Z</time>
      </trkpt>
      <trkpt lat="43.47524" lon="-5.844641">
        <ele>216.6</ele>
        <time>2019-11-24T16:58:36Z</time>
      </trkpt>
      <trkpt lat="43.475189" lon="-5.844678">
        <ele>216.6</ele>
        <time>2019-11-24T16:58:37Z</time>
      </trkpt>
      <trkpt lat="43.475137" lon="-5.844717">
        <ele>216.8</ele>
        <time>2019-11-24T16:58:38Z</time>
      </trkpt>
      <trkpt lat="43.475087" lon="-5.844756">
        <ele>217</ele>
        <time>2019-11-24T16:58:39Z</time>
      </trkpt>
      <trkpt lat="43.475038" lon="-5.844798">
        <ele>217.2</ele>
        <time>2019-11-24T16:58:40Z</time>
      </trkpt>
      <trkpt lat="43.474989" lon="-5.84484">
        <ele>216.8</ele>
        <time>2019-11-24T16:58:41Z</time>
      </trkpt>
      <trkpt lat="43.474942" lon="-5.844883">
        <ele>217</ele>
        <time>2019-11-24T16:58:42Z</time>
      </trkpt>
      <trkpt lat="43.474895" lon="-5.844928">
        <ele>217.2</ele>
        <time>2019-11-24T16:58:43Z</time>
      </trkpt>
      <trkpt lat="43.47485" lon="-5.844974">
        <ele>217.4</ele>
        <time>2019-11-24T16:58:44Z</time>
      </trkpt>
      <trkpt lat="43.474805" lon="-5.845023">
        <ele>218.4</ele>
        <time>2019-11-24T16:58:45Z</time>
      </trkpt>
      <trkpt lat="43.474762" lon="-5.845075">
        <ele>218.8</ele>
        <time>2019-11-24T16:58:46Z</time>
      </trkpt>
      <trkpt lat="43.474719" lon="-5.84513">
        <ele>218.2</ele>
        <time>2019-11-24T16:58:47Z</time>
      </trkpt>
      <trkpt lat="43.474678" lon="-5.845188">
        <ele>218</ele>
        <time>2019-11-24T16:58:48Z</time>
      </trkpt>
      <trkpt lat="43.474638" lon="-5.845249">
        <ele>218.2</ele>
        <time>2019-11-24T16:58:49Z</time>
      </trkpt>
      <trkpt lat="43.474598" lon="-5.845311">
        <ele>218</ele>
        <time>2019-11-24T16:58:50Z</time>
      </trkpt>
      <trkpt lat="43.47456" lon="-5.845373">
        <ele>218.6</ele>
        <time>2019-11-24T16:58:51Z</time>
      </trkpt>
      <trkpt lat="43.474521" lon="-5.845434">
        <ele>218.2</ele>
        <time>2019-11-24T16:58:52Z</time>
      </trkpt>
      <trkpt lat="43.474481" lon="-5.845493">
        <ele>218</ele>
        <time>2019-11-24T16:58:53Z</time>
      </trkpt>
      <trkpt lat="43.474438" lon="-5.845548">
        <ele>218.4</ele>
        <time>2019-11-24T16:58:54Z</time>
      </trkpt>
      <trkpt lat="43.474392" lon="-5.8456">
        <ele>218.4</ele>
        <time>2019-11-24T16:58:55Z</time>
      </trkpt>
      <trkpt lat="43.474346" lon="-5.84565">
        <ele>218.8</ele>
        <time>2019-11-24T16:58:56Z</time>
      </trkpt>
      <trkpt lat="43.474297" lon="-5.845697">
        <ele>219.2</ele>
        <time>2019-11-24T16:58:57Z</time>
      </trkpt>
      <trkpt lat="43.474248" lon="-5.845741">
        <ele>219.4</ele>
        <time>2019-11-24T16:58:58Z</time>
      </trkpt>
      <trkpt lat="43.474199" lon="-5.845785">
        <ele>219</ele>
        <time>2019-11-24T16:58:59Z</time>
      </trkpt>
      <trkpt lat="43.474151" lon="-5.84583">
        <ele>219.4</ele>
        <time>2019-11-24T16:59:00Z</time>
      </trkpt>
      <trkpt lat="43.474103" lon="-5.845873">
        <ele>219.4</ele>
        <time>2019-11-24T16:59:01Z</time>
      </trkpt>
      <trkpt lat="43.474055" lon="-5.845914">
        <ele>220</ele>
        <time>2019-11-24T16:59:02Z</time>
      </trkpt>
      <trkpt lat="43.474007" lon="-5.845954">
        <ele>220.2</ele>
        <time>2019-11-24T16:59:03Z</time>
      </trkpt>
      <trkpt lat="43.473958" lon="-5.845992">
        <ele>220.2</ele>
        <time>2019-11-24T16:59:04Z</time>
      </trkpt>
      <trkpt lat="43.473908" lon="-5.84603">
        <ele>220.6</ele>
        <time>2019-11-24T16:59:05Z</time>
      </trkpt>
      <trkpt lat="43.473859" lon="-5.846067">
        <ele>220.4</ele>
        <time>2019-11-24T16:59:06Z</time>
      </trkpt>
      <trkpt lat="43.473809" lon="-5.846102">
        <ele>220.6</ele>
        <time>2019-11-24T16:59:07Z</time>
      </trkpt>
      <trkpt lat="43.473759" lon="-5.846133">
        <ele>221</ele>
        <time>2019-11-24T16:59:08Z</time>
      </trkpt>
      <trkpt lat="43.473707" lon="-5.846158">
        <ele>221.2</ele>
        <time>2019-11-24T16:59:09Z</time>
      </trkpt>
      <trkpt lat="43.473652" lon="-5.846178">
        <ele>221</ele>
        <time>2019-11-24T16:59:10Z</time>
      </trkpt>
      <trkpt lat="43.473596" lon="-5.846189">
        <ele>221</ele>
        <time>2019-11-24T16:59:11Z</time>
      </trkpt>
      <trkpt lat="43.47354" lon="-5.846194">
        <ele>221.2</ele>
        <time>2019-11-24T16:59:12Z</time>
      </trkpt>
      <trkpt lat="43.473482" lon="-5.846196">
        <ele>221.8</ele>
        <time>2019-11-24T16:59:13Z</time>
      </trkpt>
      <trkpt lat="43.473423" lon="-5.846197">
        <ele>221.8</ele>
        <time>2019-11-24T16:59:14Z</time>
      </trkpt>
      <trkpt lat="43.473365" lon="-5.846193">
        <ele>221.8</ele>
        <time>2019-11-24T16:59:15Z</time>
      </trkpt>
      <trkpt lat="43.473307" lon="-5.846187">
        <ele>222</ele>
        <time>2019-11-24T16:59:16Z</time>
      </trkpt>
      <trkpt lat="43.473249" lon="-5.846181">
        <ele>222.2</ele>
        <time>2019-11-24T16:59:17Z</time>
      </trkpt>
      <trkpt lat="43.473191" lon="-5.846175">
        <ele>222</ele>
        <time>2019-11-24T16:59:18Z</time>
      </trkpt>
      <trkpt lat="43.473133" lon="-5.846169">
        <ele>222.2</ele>
        <time>2019-11-24T16:59:19Z</time>
      </trkpt>
      <trkpt lat="43.473076" lon="-5.846166">
        <ele>222.2</ele>
        <time>2019-11-24T16:59:20Z</time>
      </trkpt>
      <trkpt lat="43.473018" lon="-5.846165">
        <ele>222.4</ele>
        <time>2019-11-24T16:59:21Z</time>
      </trkpt>
      <trkpt lat="43.472961" lon="-5.846167">
        <ele>222.4</ele>
        <time>2019-11-24T16:59:22Z</time>
      </trkpt>
      <trkpt lat="43.472905" lon="-5.846172">
        <ele>222</ele>
        <time>2019-11-24T16:59:23Z</time>
      </trkpt>
      <trkpt lat="43.472849" lon="-5.84618">
        <ele>222.4</ele>
        <time>2019-11-24T16:59:24Z</time>
      </trkpt>
      <trkpt lat="43.472794" lon="-5.846193">
        <ele>222.4</ele>
        <time>2019-11-24T16:59:25Z</time>
      </trkpt>
      <trkpt lat="43.472739" lon="-5.846207">
        <ele>222.4</ele>
        <time>2019-11-24T16:59:26Z</time>
      </trkpt>
      <trkpt lat="43.472687" lon="-5.846225">
        <ele>223.2</ele>
        <time>2019-11-24T16:59:27Z</time>
      </trkpt>
      <trkpt lat="43.472635" lon="-5.846246">
        <ele>223.2</ele>
        <time>2019-11-24T16:59:28Z</time>
      </trkpt>
      <trkpt lat="43.472584" lon="-5.846267">
        <ele>223.6</ele>
        <time>2019-11-24T16:59:29Z</time>
      </trkpt>
      <trkpt lat="43.472533" lon="-5.846289">
        <ele>224.2</ele>
        <time>2019-11-24T16:59:30Z</time>
      </trkpt>
      <trkpt lat="43.472482" lon="-5.846311">
        <ele>224</ele>
        <time>2019-11-24T16:59:31Z</time>
      </trkpt>
      <trkpt lat="43.472431" lon="-5.846331">
        <ele>224</ele>
        <time>2019-11-24T16:59:32Z</time>
      </trkpt>
      <trkpt lat="43.47238" lon="-5.84635">
        <ele>224</ele>
        <time>2019-11-24T16:59:33Z</time>
      </trkpt>
      <trkpt lat="43.472328" lon="-5.846365">
        <ele>224.4</ele>
        <time>2019-11-24T16:59:34Z</time>
      </trkpt>
      <trkpt lat="43.472276" lon="-5.846374">
        <ele>224.4</ele>
        <time>2019-11-24T16:59:35Z</time>
      </trkpt>
      <trkpt lat="43.472222" lon="-5.846377">
        <ele>224.6</ele>
        <time>2019-11-24T16:59:36Z</time>
      </trkpt>
      <trkpt lat="43.472168" lon="-5.846374">
        <ele>224.4</ele>
        <time>2019-11-24T16:59:37Z</time>
      </trkpt>
      <trkpt lat="43.472113" lon="-5.846362">
        <ele>224.2</ele>
        <time>2019-11-24T16:59:38Z</time>
      </trkpt>
      <trkpt lat="43.472058" lon="-5.846346">
        <ele>224.2</ele>
        <time>2019-11-24T16:59:39Z</time>
      </trkpt>
      <trkpt lat="43.472001" lon="-5.846326">
        <ele>224.8</ele>
        <time>2019-11-24T16:59:40Z</time>
      </trkpt>
      <trkpt lat="43.471945" lon="-5.846303">
        <ele>224.8</ele>
        <time>2019-11-24T16:59:41Z</time>
      </trkpt>
      <trkpt lat="43.47189" lon="-5.846278">
        <ele>224.8</ele>
        <time>2019-11-24T16:59:42Z</time>
      </trkpt>
      <trkpt lat="43.471835" lon="-5.846252">
        <ele>225</ele>
        <time>2019-11-24T16:59:43Z</time>
      </trkpt>
      <trkpt lat="43.47178" lon="-5.846224">
        <ele>224.8</ele>
        <time>2019-11-24T16:59:44Z</time>
      </trkpt>
      <trkpt lat="43.471724" lon="-5.846197">
        <ele>225.2</ele>
        <time>2019-11-24T16:59:45Z</time>
      </trkpt>
      <trkpt lat="43.471669" lon="-5.846172">
        <ele>225.6</ele>
        <time>2019-11-24T16:59:46Z</time>
      </trkpt>
      <trkpt lat="43.471612" lon="-5.846149">
        <ele>225.8</ele>
        <time>2019-11-24T16:59:47Z</time>
      </trkpt>
      <trkpt lat="43.471555" lon="-5.846129">
        <ele>225.8</ele>
        <time>2019-11-24T16:59:48Z</time>
      </trkpt>
      <trkpt lat="43.471497" lon="-5.846114">
        <ele>225.8</ele>
        <time>2019-11-24T16:59:49Z</time>
      </trkpt>
      <trkpt lat="43.471439" lon="-5.846105">
        <ele>226</ele>
        <time>2019-11-24T16:59:50Z</time>
      </trkpt>
      <trkpt lat="43.471381" lon="-5.846102">
        <ele>225.8</ele>
        <time>2019-11-24T16:59:51Z</time>
      </trkpt>
      <trkpt lat="43.471322" lon="-5.846102">
        <ele>226.4</ele>
        <time>2019-11-24T16:59:52Z</time>
      </trkpt>
      <trkpt lat="43.471263" lon="-5.846104">
        <ele>226.8</ele>
        <time>2019-11-24T16:59:53Z</time>
      </trkpt>
      <trkpt lat="43.471205" lon="-5.846109">
        <ele>226.8</ele>
        <time>2019-11-24T16:59:54Z</time>
      </trkpt>
      <trkpt lat="43.471148" lon="-5.846116">
        <ele>226.8</ele>
        <time>2019-11-24T16:59:55Z</time>
      </trkpt>
      <trkpt lat="43.471091" lon="-5.846125">
        <ele>227</ele>
        <time>2019-11-24T16:59:56Z</time>
      </trkpt>
      <trkpt lat="43.471035" lon="-5.846136">
        <ele>227</ele>
        <time>2019-11-24T16:59:57Z</time>
      </trkpt>
      <trkpt lat="43.470979" lon="-5.846146">
        <ele>227.2</ele>
        <time>2019-11-24T16:59:58Z</time>
      </trkpt>
      <trkpt lat="43.470923" lon="-5.846157">
        <ele>227.6</ele>
        <time>2019-11-24T16:59:59Z</time>
      </trkpt>
      <trkpt lat="43.470868" lon="-5.846167">
        <ele>227.6</ele>
        <time>2019-11-24T17:00:00Z</time>
      </trkpt>
      <trkpt lat="43.470812" lon="-5.846178">
        <ele>227.6</ele>
        <time>2019-11-24T17:00:01Z</time>
      </trkpt>
      <trkpt lat="43.470757" lon="-5.846188">
        <ele>228.2</ele>
        <time>2019-11-24T17:00:02Z</time>
      </trkpt>
      <trkpt lat="43.470703" lon="-5.846199">
        <ele>228.4</ele>
        <time>2019-11-24T17:00:03Z</time>
      </trkpt>
      <trkpt lat="43.470649" lon="-5.846212">
        <ele>228.6</ele>
        <time>2019-11-24T17:00:04Z</time>
      </trkpt>
      <trkpt lat="43.470594" lon="-5.846223">
        <ele>228.8</ele>
        <time>2019-11-24T17:00:05Z</time>
      </trkpt>
      <trkpt lat="43.47054" lon="-5.846233">
        <ele>229</ele>
        <time>2019-11-24T17:00:06Z</time>
      </trkpt>
      <trkpt lat="43.470485" lon="-5.846243">
        <ele>229</ele>
        <time>2019-11-24T17:00:07Z</time>
      </trkpt>
      <trkpt lat="43.470431" lon="-5.846254">
        <ele>229</ele>
        <time>2019-11-24T17:00:08Z</time>
      </trkpt>
      <trkpt lat="43.470376" lon="-5.846264">
        <ele>229</ele>
        <time>2019-11-24T17:00:09Z</time>
      </trkpt>
      <trkpt lat="43.470322" lon="-5.846274">
        <ele>229</ele>
        <time>2019-11-24T17:00:10Z</time>
      </trkpt>
      <trkpt lat="43.470267" lon="-5.846285">
        <ele>229</ele>
        <time>2019-11-24T17:00:11Z</time>
      </trkpt>
      <trkpt lat="43.470212" lon="-5.846297">
        <ele>229.4</ele>
        <time>2019-11-24T17:00:12Z</time>
      </trkpt>
      <trkpt lat="43.470157" lon="-5.846308">
        <ele>229.4</ele>
        <time>2019-11-24T17:00:13Z</time>
      </trkpt>
      <trkpt lat="43.470103" lon="-5.84632">
        <ele>229.4</ele>
        <time>2019-11-24T17:00:14Z</time>
      </trkpt>
      <trkpt lat="43.470048" lon="-5.84633">
        <ele>229.8</ele>
        <time>2019-11-24T17:00:15Z</time>
      </trkpt>
      <trkpt lat="43.469993" lon="-5.84634">
        <ele>230.4</ele>
        <time>2019-11-24T17:00:16Z</time>
      </trkpt>
      <trkpt lat="43.46994" lon="-5.846351">
        <ele>230.6</ele>
        <time>2019-11-24T17:00:17Z</time>
      </trkpt>
      <trkpt lat="43.469887" lon="-5.846363">
        <ele>230.6</ele>
        <time>2019-11-24T17:00:18Z</time>
      </trkpt>
      <trkpt lat="43.469834" lon="-5.846373">
        <ele>230.8</ele>
        <time>2019-11-24T17:00:19Z</time>
      </trkpt>
      <trkpt lat="43.469781" lon="-5.846384">
        <ele>231</ele>
        <time>2019-11-24T17:00:20Z</time>
      </trkpt>
      <trkpt lat="43.469728" lon="-5.846394">
        <ele>231.4</ele>
        <time>2019-11-24T17:00:21Z</time>
      </trkpt>
      <trkpt lat="43.469674" lon="-5.846406">
        <ele>231.6</ele>
        <time>2019-11-24T17:00:22Z</time>
      </trkpt>
      <trkpt lat="43.469621" lon="-5.846417">
        <ele>231.8</ele>
        <time>2019-11-24T17:00:23Z</time>
      </trkpt>
      <trkpt lat="43.469568" lon="-5.846427">
        <ele>231.4</ele>
        <time>2019-11-24T17:00:24Z</time>
      </trkpt>
      <trkpt lat="43.469516" lon="-5.846438">
        <ele>231.4</ele>
        <time>2019-11-24T17:00:25Z</time>
      </trkpt>
      <trkpt lat="43.469464" lon="-5.846452">
        <ele>231.8</ele>
        <time>2019-11-24T17:00:26Z</time>
      </trkpt>
      <trkpt lat="43.469413" lon="-5.846468">
        <ele>231.8</ele>
        <time>2019-11-24T17:00:27Z</time>
      </trkpt>
      <trkpt lat="43.469362" lon="-5.846485">
        <ele>232.2</ele>
        <time>2019-11-24T17:00:28Z</time>
      </trkpt>
      <trkpt lat="43.469312" lon="-5.846503">
        <ele>231.8</ele>
        <time>2019-11-24T17:00:29Z</time>
      </trkpt>
      <trkpt lat="43.469261" lon="-5.846523">
        <ele>231.8</ele>
        <time>2019-11-24T17:00:30Z</time>
      </trkpt>
      <trkpt lat="43.469211" lon="-5.846545">
        <ele>232.4</ele>
        <time>2019-11-24T17:00:31Z</time>
      </trkpt>
      <trkpt lat="43.469162" lon="-5.846568">
        <ele>232.8</ele>
        <time>2019-11-24T17:00:32Z</time>
      </trkpt>
      <trkpt lat="43.469112" lon="-5.846592">
        <ele>233</ele>
        <time>2019-11-24T17:00:33Z</time>
      </trkpt>
      <trkpt lat="43.469063" lon="-5.846618">
        <ele>233.2</ele>
        <time>2019-11-24T17:00:34Z</time>
      </trkpt>
      <trkpt lat="43.469014" lon="-5.846645">
        <ele>233.4</ele>
        <time>2019-11-24T17:00:35Z</time>
      </trkpt>
      <trkpt lat="43.468966" lon="-5.846673">
        <ele>233.6</ele>
        <time>2019-11-24T17:00:36Z</time>
      </trkpt>
      <trkpt lat="43.468918" lon="-5.846701">
        <ele>233.8</ele>
        <time>2019-11-24T17:00:37Z</time>
      </trkpt>
      <trkpt lat="43.468871" lon="-5.846729">
        <ele>234</ele>
        <time>2019-11-24T17:00:38Z</time>
      </trkpt>
      <trkpt lat="43.468823" lon="-5.84676">
        <ele>234</ele>
        <time>2019-11-24T17:00:39Z</time>
      </trkpt>
      <trkpt lat="43.468776" lon="-5.846791">
        <ele>234.4</ele>
        <time>2019-11-24T17:00:40Z</time>
      </trkpt>
      <trkpt lat="43.468729" lon="-5.846821">
        <ele>234.4</ele>
        <time>2019-11-24T17:00:41Z</time>
      </trkpt>
      <trkpt lat="43.468681" lon="-5.846851">
        <ele>234.6</ele>
        <time>2019-11-24T17:00:42Z</time>
      </trkpt>
      <trkpt lat="43.468632" lon="-5.84688">
        <ele>234.4</ele>
        <time>2019-11-24T17:00:43Z</time>
      </trkpt>
      <trkpt lat="43.468583" lon="-5.846909">
        <ele>234.6</ele>
        <time>2019-11-24T17:00:44Z</time>
      </trkpt>
      <trkpt lat="43.468533" lon="-5.846937">
        <ele>234.6</ele>
        <time>2019-11-24T17:00:45Z</time>
      </trkpt>
      <trkpt lat="43.468483" lon="-5.846964">
        <ele>234.8</ele>
        <time>2019-11-24T17:00:46Z</time>
      </trkpt>
      <trkpt lat="43.468433" lon="-5.84699">
        <ele>235.2</ele>
        <time>2019-11-24T17:00:47Z</time>
      </trkpt>
      <trkpt lat="43.468384" lon="-5.847015">
        <ele>234.8</ele>
        <time>2019-11-24T17:00:48Z</time>
      </trkpt>
      <trkpt lat="43.468337" lon="-5.84704">
        <ele>235.4</ele>
        <time>2019-11-24T17:00:49Z</time>
      </trkpt>
      <trkpt lat="43.46829" lon="-5.847065">
        <ele>235.8</ele>
        <time>2019-11-24T17:00:50Z</time>
      </trkpt>
      <trkpt lat="43.468243" lon="-5.847091">
        <ele>235.6</ele>
        <time>2019-11-24T17:00:51Z</time>
      </trkpt>
      <trkpt lat="43.468196" lon="-5.847117">
        <ele>236</ele>
        <time>2019-11-24T17:00:52Z</time>
      </trkpt>
      <trkpt lat="43.468149" lon="-5.847142">
        <ele>235.8</ele>
        <time>2019-11-24T17:00:53Z</time>
      </trkpt>
      <trkpt lat="43.468101" lon="-5.847165">
        <ele>236.2</ele>
        <time>2019-11-24T17:00:54Z</time>
      </trkpt>
      <trkpt lat="43.46805" lon="-5.847181">
        <ele>236</ele>
        <time>2019-11-24T17:00:55Z</time>
      </trkpt>
      <trkpt lat="43.467999" lon="-5.847194">
        <ele>235.8</ele>
        <time>2019-11-24T17:00:56Z</time>
      </trkpt>
      <trkpt lat="43.467946" lon="-5.847201">
        <ele>236.2</ele>
        <time>2019-11-24T17:00:57Z</time>
      </trkpt>
      <trkpt lat="43.467891" lon="-5.847201">
        <ele>236</ele>
        <time>2019-11-24T17:00:58Z</time>
      </trkpt>
      <trkpt lat="43.467835" lon="-5.847191">
        <ele>236</ele>
        <time>2019-11-24T17:00:59Z</time>
      </trkpt>
      <trkpt lat="43.467779" lon="-5.847172">
        <ele>236.8</ele>
        <time>2019-11-24T17:01:00Z</time>
      </trkpt>
      <trkpt lat="43.467724" lon="-5.847145">
        <ele>237</ele>
        <time>2019-11-24T17:01:01Z</time>
      </trkpt>
      <trkpt lat="43.467672" lon="-5.847112">
        <ele>237</ele>
        <time>2019-11-24T17:01:02Z</time>
      </trkpt>
      <trkpt lat="43.467619" lon="-5.847076">
        <ele>237.8</ele>
        <time>2019-11-24T17:01:03Z</time>
      </trkpt>
      <trkpt lat="43.467566" lon="-5.84704">
        <ele>237.8</ele>
        <time>2019-11-24T17:01:04Z</time>
      </trkpt>
      <trkpt lat="43.467512" lon="-5.847005">
        <ele>237.8</ele>
        <time>2019-11-24T17:01:05Z</time>
      </trkpt>
      <trkpt lat="43.467457" lon="-5.846973">
        <ele>237.6</ele>
        <time>2019-11-24T17:01:06Z</time>
      </trkpt>
      <trkpt lat="43.467401" lon="-5.846945">
        <ele>237.6</ele>
        <time>2019-11-24T17:01:07Z</time>
      </trkpt>
      <trkpt lat="43.467343" lon="-5.846922">
        <ele>237.6</ele>
        <time>2019-11-24T17:01:08Z</time>
      </trkpt>
      <trkpt lat="43.467286" lon="-5.846904">
        <ele>237.8</ele>
        <time>2019-11-24T17:01:09Z</time>
      </trkpt>
      <trkpt lat="43.467229" lon="-5.84689">
        <ele>238.4</ele>
        <time>2019-11-24T17:01:10Z</time>
      </trkpt>
      <trkpt lat="43.467172" lon="-5.846876">
        <ele>238.6</ele>
        <time>2019-11-24T17:01:11Z</time>
      </trkpt>
      <trkpt lat="43.467115" lon="-5.846863">
        <ele>237.8</ele>
        <time>2019-11-24T17:01:12Z</time>
      </trkpt>
      <trkpt lat="43.46706" lon="-5.846851">
        <ele>237.6</ele>
        <time>2019-11-24T17:01:13Z</time>
      </trkpt>
      <trkpt lat="43.467002" lon="-5.84684">
        <ele>237.2</ele>
        <time>2019-11-24T17:01:14Z</time>
      </trkpt>
      <trkpt lat="43.466943" lon="-5.846832">
        <ele>237</ele>
        <time>2019-11-24T17:01:15Z</time>
      </trkpt>
      <trkpt lat="43.466885" lon="-5.846825">
        <ele>237.6</ele>
        <time>2019-11-24T17:01:16Z</time>
      </trkpt>
      <trkpt lat="43.466825" lon="-5.84682">
        <ele>237.6</ele>
        <time>2019-11-24T17:01:17Z</time>
      </trkpt>
      <trkpt lat="43.466766" lon="-5.846815">
        <ele>237.8</ele>
        <time>2019-11-24T17:01:18Z</time>
      </trkpt>
      <trkpt lat="43.466707" lon="-5.846811">
        <ele>238.6</ele>
        <time>2019-11-24T17:01:19Z</time>
      </trkpt>
      <trkpt lat="43.466647" lon="-5.846806">
        <ele>239.4</ele>
        <time>2019-11-24T17:01:20Z</time>
      </trkpt>
      <trkpt lat="43.466589" lon="-5.846803">
        <ele>239.4</ele>
        <time>2019-11-24T17:01:21Z</time>
      </trkpt>
      <trkpt lat="43.466532" lon="-5.846803">
        <ele>239.4</ele>
        <time>2019-11-24T17:01:22Z</time>
      </trkpt>
      <trkpt lat="43.466476" lon="-5.846807">
        <ele>239.6</ele>
        <time>2019-11-24T17:01:23Z</time>
      </trkpt>
      <trkpt lat="43.46642" lon="-5.846817">
        <ele>239</ele>
        <time>2019-11-24T17:01:24Z</time>
      </trkpt>
      <trkpt lat="43.466366" lon="-5.846835">
        <ele>239</ele>
        <time>2019-11-24T17:01:25Z</time>
      </trkpt>
      <trkpt lat="43.466316" lon="-5.846865">
        <ele>239.6</ele>
        <time>2019-11-24T17:01:26Z</time>
      </trkpt>
      <trkpt lat="43.466269" lon="-5.846905">
        <ele>238.6</ele>
        <time>2019-11-24T17:01:27Z</time>
      </trkpt>
      <trkpt lat="43.466228" lon="-5.846952">
        <ele>239.8</ele>
        <time>2019-11-24T17:01:28Z</time>
      </trkpt>
      <trkpt lat="43.466188" lon="-5.847002">
        <ele>240.8</ele>
        <time>2019-11-24T17:01:29Z</time>
      </trkpt>
      <trkpt lat="43.466151" lon="-5.847056">
        <ele>240</ele>
        <time>2019-11-24T17:01:30Z</time>
      </trkpt>
      <trkpt lat="43.466117" lon="-5.847113">
        <ele>240.2</ele>
        <time>2019-11-24T17:01:31Z</time>
      </trkpt>
      <trkpt lat="43.466085" lon="-5.84717">
        <ele>240.2</ele>
        <time>2019-11-24T17:01:32Z</time>
      </trkpt>
      <trkpt lat="43.466054" lon="-5.847229">
        <ele>240.6</ele>
        <time>2019-11-24T17:01:33Z</time>
      </trkpt>
      <trkpt lat="43.466024" lon="-5.847288">
        <ele>241.2</ele>
        <time>2019-11-24T17:01:34Z</time>
      </trkpt>
      <trkpt lat="43.465994" lon="-5.847348">
        <ele>241.4</ele>
        <time>2019-11-24T17:01:35Z</time>
      </trkpt>
      <trkpt lat="43.465965" lon="-5.847409">
        <ele>241</ele>
        <time>2019-11-24T17:01:36Z</time>
      </trkpt>
      <trkpt lat="43.465935" lon="-5.847469">
        <ele>241.8</ele>
        <time>2019-11-24T17:01:37Z</time>
      </trkpt>
      <trkpt lat="43.465908" lon="-5.847532">
        <ele>242.2</ele>
        <time>2019-11-24T17:01:38Z</time>
      </trkpt>
      <trkpt lat="43.465882" lon="-5.847597">
        <ele>241.2</ele>
        <time>2019-11-24T17:01:39Z</time>
      </trkpt>
      <trkpt lat="43.465857" lon="-5.847663">
        <ele>242.4</ele>
        <time>2019-11-24T17:01:40Z</time>
      </trkpt>
      <trkpt lat="43.465832" lon="-5.847729">
        <ele>242.8</ele>
        <time>2019-11-24T17:01:41Z</time>
      </trkpt>
      <trkpt lat="43.465806" lon="-5.847794">
        <ele>242.6</ele>
        <time>2019-11-24T17:01:42Z</time>
      </trkpt>
      <trkpt lat="43.465782" lon="-5.84786">
        <ele>242.4</ele>
        <time>2019-11-24T17:01:43Z</time>
      </trkpt>
      <trkpt lat="43.465758" lon="-5.847925">
        <ele>242.6</ele>
        <time>2019-11-24T17:01:44Z</time>
      </trkpt>
      <trkpt lat="43.465735" lon="-5.847991">
        <ele>243</ele>
        <time>2019-11-24T17:01:45Z</time>
      </trkpt>
      <trkpt lat="43.46571" lon="-5.848057">
        <ele>243</ele>
        <time>2019-11-24T17:01:46Z</time>
      </trkpt>
      <trkpt lat="43.465684" lon="-5.848124">
        <ele>243</ele>
        <time>2019-11-24T17:01:47Z</time>
      </trkpt>
      <trkpt lat="43.465658" lon="-5.848192">
        <ele>242.6</ele>
        <time>2019-11-24T17:01:48Z</time>
      </trkpt>
      <trkpt lat="43.46563" lon="-5.848261">
        <ele>243.2</ele>
        <time>2019-11-24T17:01:49Z</time>
      </trkpt>
      <trkpt lat="43.465603" lon="-5.84833">
        <ele>243</ele>
        <time>2019-11-24T17:01:50Z</time>
      </trkpt>
      <trkpt lat="43.465576" lon="-5.848399">
        <ele>243</ele>
        <time>2019-11-24T17:01:51Z</time>
      </trkpt>
      <trkpt lat="43.465548" lon="-5.848468">
        <ele>243.6</ele>
        <time>2019-11-24T17:01:52Z</time>
      </trkpt>
      <trkpt lat="43.46552" lon="-5.848538">
        <ele>244.4</ele>
        <time>2019-11-24T17:01:53Z</time>
      </trkpt>
      <trkpt lat="43.465492" lon="-5.848609">
        <ele>244.6</ele>
        <time>2019-11-24T17:01:54Z</time>
      </trkpt>
      <trkpt lat="43.465464" lon="-5.84868">
        <ele>244.6</ele>
        <time>2019-11-24T17:01:55Z</time>
      </trkpt>
      <trkpt lat="43.465435" lon="-5.848751">
        <ele>244.6</ele>
        <time>2019-11-24T17:01:56Z</time>
      </trkpt>
      <trkpt lat="43.465406" lon="-5.848822">
        <ele>244.6</ele>
        <time>2019-11-24T17:01:57Z</time>
      </trkpt>
      <trkpt lat="43.465378" lon="-5.848894">
        <ele>244.2</ele>
        <time>2019-11-24T17:01:58Z</time>
      </trkpt>
      <trkpt lat="43.465351" lon="-5.848967">
        <ele>244.4</ele>
        <time>2019-11-24T17:01:59Z</time>
      </trkpt>
      <trkpt lat="43.465325" lon="-5.84904">
        <ele>244.6</ele>
        <time>2019-11-24T17:02:00Z</time>
      </trkpt>
      <trkpt lat="43.465299" lon="-5.849114">
        <ele>244.6</ele>
        <time>2019-11-24T17:02:01Z</time>
      </trkpt>
      <trkpt lat="43.465276" lon="-5.849188">
        <ele>244.8</ele>
        <time>2019-11-24T17:02:02Z</time>
      </trkpt>
      <trkpt lat="43.465255" lon="-5.849262">
        <ele>245</ele>
        <time>2019-11-24T17:02:03Z</time>
      </trkpt>
      <trkpt lat="43.465236" lon="-5.849339">
        <ele>245.2</ele>
        <time>2019-11-24T17:02:04Z</time>
      </trkpt>
      <trkpt lat="43.46522" lon="-5.849417">
        <ele>245.2</ele>
        <time>2019-11-24T17:02:05Z</time>
      </trkpt>
      <trkpt lat="43.465203" lon="-5.849493">
        <ele>245.4</ele>
        <time>2019-11-24T17:02:06Z</time>
      </trkpt>
      <trkpt lat="43.465186" lon="-5.849569">
        <ele>245.6</ele>
        <time>2019-11-24T17:02:07Z</time>
      </trkpt>
      <trkpt lat="43.46517" lon="-5.849644">
        <ele>246</ele>
        <time>2019-11-24T17:02:08Z</time>
      </trkpt>
      <trkpt lat="43.465154" lon="-5.84972">
        <ele>245.8</ele>
        <time>2019-11-24T17:02:09Z</time>
      </trkpt>
      <trkpt lat="43.465138" lon="-5.849795">
        <ele>245.8</ele>
        <time>2019-11-24T17:02:10Z</time>
      </trkpt>
      <trkpt lat="43.465121" lon="-5.849871">
        <ele>246.4</ele>
        <time>2019-11-24T17:02:11Z</time>
      </trkpt>
      <trkpt lat="43.465101" lon="-5.849946">
        <ele>246.4</ele>
        <time>2019-11-24T17:02:12Z</time>
      </trkpt>
      <trkpt lat="43.465079" lon="-5.850021">
        <ele>246.2</ele>
        <time>2019-11-24T17:02:13Z</time>
      </trkpt>
      <trkpt lat="43.465057" lon="-5.850095">
        <ele>246.8</ele>
        <time>2019-11-24T17:02:14Z</time>
      </trkpt>
      <trkpt lat="43.465031" lon="-5.850166">
        <ele>247</ele>
        <time>2019-11-24T17:02:15Z</time>
      </trkpt>
      <trkpt lat="43.465002" lon="-5.850235">
        <ele>247.2</ele>
        <time>2019-11-24T17:02:16Z</time>
      </trkpt>
      <trkpt lat="43.464969" lon="-5.850299">
        <ele>247.4</ele>
        <time>2019-11-24T17:02:17Z</time>
      </trkpt>
      <trkpt lat="43.464932" lon="-5.850356">
        <ele>247.6</ele>
        <time>2019-11-24T17:02:18Z</time>
      </trkpt>
      <trkpt lat="43.464889" lon="-5.850405">
        <ele>247.6</ele>
        <time>2019-11-24T17:02:19Z</time>
      </trkpt>
      <trkpt lat="43.464841" lon="-5.850447">
        <ele>246.8</ele>
        <time>2019-11-24T17:02:20Z</time>
      </trkpt>
      <trkpt lat="43.464788" lon="-5.850479">
        <ele>247</ele>
        <time>2019-11-24T17:02:21Z</time>
      </trkpt>
      <trkpt lat="43.464732" lon="-5.850501">
        <ele>247.2</ele>
        <time>2019-11-24T17:02:22Z</time>
      </trkpt>
      <trkpt lat="43.464673" lon="-5.850513">
        <ele>247.2</ele>
        <time>2019-11-24T17:02:23Z</time>
      </trkpt>
      <trkpt lat="43.464613" lon="-5.850514">
        <ele>247.4</ele>
        <time>2019-11-24T17:02:24Z</time>
      </trkpt>
      <trkpt lat="43.464552" lon="-5.850509">
        <ele>247.6</ele>
        <time>2019-11-24T17:02:25Z</time>
      </trkpt>
      <trkpt lat="43.464491" lon="-5.850497">
        <ele>247.4</ele>
        <time>2019-11-24T17:02:26Z</time>
      </trkpt>
      <trkpt lat="43.464431" lon="-5.850484">
        <ele>247.8</ele>
        <time>2019-11-24T17:02:27Z</time>
      </trkpt>
      <trkpt lat="43.46437" lon="-5.850471">
        <ele>248.2</ele>
        <time>2019-11-24T17:02:28Z</time>
      </trkpt>
      <trkpt lat="43.46431" lon="-5.850458">
        <ele>248.6</ele>
        <time>2019-11-24T17:02:29Z</time>
      </trkpt>
      <trkpt lat="43.464247" lon="-5.850446">
        <ele>248.8</ele>
        <time>2019-11-24T17:02:30Z</time>
      </trkpt>
      <trkpt lat="43.464181" lon="-5.850437">
        <ele>248.4</ele>
        <time>2019-11-24T17:02:31Z</time>
      </trkpt>
      <trkpt lat="43.464112" lon="-5.850429">
        <ele>247.4</ele>
        <time>2019-11-24T17:02:32Z</time>
      </trkpt>
      <trkpt lat="43.464039" lon="-5.850423">
        <ele>246.6</ele>
        <time>2019-11-24T17:02:33Z</time>
      </trkpt>
      <trkpt lat="43.463962" lon="-5.850419">
        <ele>246.4</ele>
        <time>2019-11-24T17:02:34Z</time>
      </trkpt>
      <trkpt lat="43.463881" lon="-5.850423">
        <ele>245.2</ele>
        <time>2019-11-24T17:02:35Z</time>
      </trkpt>
      <trkpt lat="43.463798" lon="-5.850433">
        <ele>243.2</ele>
        <time>2019-11-24T17:02:36Z</time>
      </trkpt>
      <trkpt lat="43.463713" lon="-5.850447">
        <ele>242</ele>
        <time>2019-11-24T17:02:37Z</time>
      </trkpt>
      <trkpt lat="43.463625" lon="-5.850464">
        <ele>241.6</ele>
        <time>2019-11-24T17:02:38Z</time>
      </trkpt>
      <trkpt lat="43.463538" lon="-5.850483">
        <ele>240.6</ele>
        <time>2019-11-24T17:02:39Z</time>
      </trkpt>
      <trkpt lat="43.46345" lon="-5.850505">
        <ele>240.6</ele>
        <time>2019-11-24T17:02:40Z</time>
      </trkpt>
      <trkpt lat="43.463361" lon="-5.850528">
        <ele>240.8</ele>
        <time>2019-11-24T17:02:41Z</time>
      </trkpt>
      <trkpt lat="43.463273" lon="-5.850552">
        <ele>240.4</ele>
        <time>2019-11-24T17:02:42Z</time>
      </trkpt>
      <trkpt lat="43.463185" lon="-5.850577">
        <ele>239.8</ele>
        <time>2019-11-24T17:02:43Z</time>
      </trkpt>
      <trkpt lat="43.463097" lon="-5.850602">
        <ele>239.8</ele>
        <time>2019-11-24T17:02:44Z</time>
      </trkpt>
      <trkpt lat="43.463006" lon="-5.850624">
        <ele>240</ele>
        <time>2019-11-24T17:02:45Z</time>
      </trkpt>
      <trkpt lat="43.462915" lon="-5.850645">
        <ele>240</ele>
        <time>2019-11-24T17:02:46Z</time>
      </trkpt>
      <trkpt lat="43.46282" lon="-5.850656">
        <ele>239.8</ele>
        <time>2019-11-24T17:02:47Z</time>
      </trkpt>
      <trkpt lat="43.462725" lon="-5.85065">
        <ele>239.6</ele>
        <time>2019-11-24T17:02:48Z</time>
      </trkpt>
      <trkpt lat="43.46263" lon="-5.850624">
        <ele>239.6</ele>
        <time>2019-11-24T17:02:49Z</time>
      </trkpt>
      <trkpt lat="43.462538" lon="-5.850578">
        <ele>239</ele>
        <time>2019-11-24T17:02:50Z</time>
      </trkpt>
      <trkpt lat="43.46245" lon="-5.850519">
        <ele>238.6</ele>
        <time>2019-11-24T17:02:51Z</time>
      </trkpt>
      <trkpt lat="43.462362" lon="-5.850457">
        <ele>237.8</ele>
        <time>2019-11-24T17:02:52Z</time>
      </trkpt>
      <trkpt lat="43.462272" lon="-5.850402">
        <ele>236.8</ele>
        <time>2019-11-24T17:02:53Z</time>
      </trkpt>
      <trkpt lat="43.462176" lon="-5.850361">
        <ele>237.2</ele>
        <time>2019-11-24T17:02:54Z</time>
      </trkpt>
      <trkpt lat="43.462075" lon="-5.850336">
        <ele>236.8</ele>
        <time>2019-11-24T17:02:55Z</time>
      </trkpt>
      <trkpt lat="43.461972" lon="-5.850323">
        <ele>236</ele>
        <time>2019-11-24T17:02:56Z</time>
      </trkpt>
      <trkpt lat="43.461818" lon="-5.850328">
        <ele>235.4</ele>
        <time>2019-11-24T17:02:57Z</time>
      </trkpt>
      <trkpt lat="43.461663" lon="-5.850332">
        <ele>235</ele>
        <time>2019-11-24T17:02:58Z</time>
      </trkpt>
      <trkpt lat="43.461561" lon="-5.850341">
        <ele>234.8</ele>
        <time>2019-11-24T17:02:59Z</time>
      </trkpt>
      <trkpt lat="43.461458" lon="-5.850351">
        <ele>234.6</ele>
        <time>2019-11-24T17:03:00Z</time>
      </trkpt>
      <trkpt lat="43.461408" lon="-5.850365">
        <ele>233.8</ele>
        <time>2019-11-24T17:03:01Z</time>
      </trkpt>
      <trkpt lat="43.461357" lon="-5.850379">
        <ele>232.4</ele>
        <time>2019-11-24T17:03:02Z</time>
      </trkpt>
      <trkpt lat="43.461256" lon="-5.850406">
        <ele>232.8</ele>
        <time>2019-11-24T17:03:03Z</time>
      </trkpt>
      <trkpt lat="43.461161" lon="-5.85046">
        <ele>232.6</ele>
        <time>2019-11-24T17:03:04Z</time>
      </trkpt>
      <trkpt lat="43.461072" lon="-5.850531">
        <ele>232.6</ele>
        <time>2019-11-24T17:03:05Z</time>
      </trkpt>
      <trkpt lat="43.460986" lon="-5.850612">
        <ele>232.4</ele>
        <time>2019-11-24T17:03:06Z</time>
      </trkpt>
      <trkpt lat="43.460898" lon="-5.850694">
        <ele>231.4</ele>
        <time>2019-11-24T17:03:07Z</time>
      </trkpt>
      <trkpt lat="43.460809" lon="-5.850775">
        <ele>231.2</ele>
        <time>2019-11-24T17:03:08Z</time>
      </trkpt>
      <trkpt lat="43.460716" lon="-5.850854">
        <ele>229.8</ele>
        <time>2019-11-24T17:03:09Z</time>
      </trkpt>
      <trkpt lat="43.46062" lon="-5.850926">
        <ele>229.6</ele>
        <time>2019-11-24T17:03:10Z</time>
      </trkpt>
      <trkpt lat="43.460477" lon="-5.851038">
        <ele>228.8</ele>
        <time>2019-11-24T17:03:11Z</time>
      </trkpt>
      <trkpt lat="43.460334" lon="-5.85115">
        <ele>228</ele>
        <time>2019-11-24T17:03:12Z</time>
      </trkpt>
      <trkpt lat="43.46024" lon="-5.851223">
        <ele>226.6</ele>
        <time>2019-11-24T17:03:13Z</time>
      </trkpt>
      <trkpt lat="43.460192" lon="-5.851256">
        <ele>227.2</ele>
        <time>2019-11-24T17:03:14Z</time>
      </trkpt>
      <trkpt lat="43.460143" lon="-5.851289">
        <ele>226.6</ele>
        <time>2019-11-24T17:03:15Z</time>
      </trkpt>
      <trkpt lat="43.460045" lon="-5.851355">
        <ele>225.6</ele>
        <time>2019-11-24T17:03:16Z</time>
      </trkpt>
      <trkpt lat="43.459945" lon="-5.851417">
        <ele>225</ele>
        <time>2019-11-24T17:03:17Z</time>
      </trkpt>
      <trkpt lat="43.459842" lon="-5.851475">
        <ele>224.6</ele>
        <time>2019-11-24T17:03:18Z</time>
      </trkpt>
      <trkpt lat="43.459736" lon="-5.851519">
        <ele>224.6</ele>
        <time>2019-11-24T17:03:19Z</time>
      </trkpt>
      <trkpt lat="43.459629" lon="-5.851549">
        <ele>223.8</ele>
        <time>2019-11-24T17:03:20Z</time>
      </trkpt>
      <trkpt lat="43.459518" lon="-5.851558">
        <ele>223</ele>
        <time>2019-11-24T17:03:21Z</time>
      </trkpt>
      <trkpt lat="43.459408" lon="-5.851548">
        <ele>221.6</ele>
        <time>2019-11-24T17:03:22Z</time>
      </trkpt>
      <trkpt lat="43.459304" lon="-5.851508">
        <ele>221.4</ele>
        <time>2019-11-24T17:03:23Z</time>
      </trkpt>
      <trkpt lat="43.459208" lon="-5.851438">
        <ele>220.8</ele>
        <time>2019-11-24T17:03:24Z</time>
      </trkpt>
      <trkpt lat="43.459117" lon="-5.85134">
        <ele>220</ele>
        <time>2019-11-24T17:03:25Z</time>
      </trkpt>
      <trkpt lat="43.459039" lon="-5.851218">
        <ele>219.6</ele>
        <time>2019-11-24T17:03:26Z</time>
      </trkpt>
      <trkpt lat="43.458973" lon="-5.851087">
        <ele>220</ele>
        <time>2019-11-24T17:03:27Z</time>
      </trkpt>
      <trkpt lat="43.458909" lon="-5.850951">
        <ele>219</ele>
        <time>2019-11-24T17:03:28Z</time>
      </trkpt>
      <trkpt lat="43.458837" lon="-5.850823">
        <ele>217.4</ele>
        <time>2019-11-24T17:03:29Z</time>
      </trkpt>
      <trkpt lat="43.458753" lon="-5.850713">
        <ele>217</ele>
        <time>2019-11-24T17:03:30Z</time>
      </trkpt>
      <trkpt lat="43.458658" lon="-5.850632">
        <ele>217</ele>
        <time>2019-11-24T17:03:31Z</time>
      </trkpt>
      <trkpt lat="43.45855" lon="-5.85059">
        <ele>217</ele>
        <time>2019-11-24T17:03:32Z</time>
      </trkpt>
      <trkpt lat="43.458439" lon="-5.85059">
        <ele>216.6</ele>
        <time>2019-11-24T17:03:33Z</time>
      </trkpt>
      <trkpt lat="43.458331" lon="-5.850629">
        <ele>216.2</ele>
        <time>2019-11-24T17:03:34Z</time>
      </trkpt>
      <trkpt lat="43.458236" lon="-5.850705">
        <ele>216.4</ele>
        <time>2019-11-24T17:03:35Z</time>
      </trkpt>
      <trkpt lat="43.45816" lon="-5.850805">
        <ele>216.4</ele>
        <time>2019-11-24T17:03:36Z</time>
      </trkpt>
      <trkpt lat="43.458112" lon="-5.850927">
        <ele>216.2</ele>
        <time>2019-11-24T17:03:37Z</time>
      </trkpt>
      <trkpt lat="43.45808" lon="-5.851061">
        <ele>216.4</ele>
        <time>2019-11-24T17:03:38Z</time>
      </trkpt>
      <trkpt lat="43.458055" lon="-5.851197">
        <ele>215.8</ele>
        <time>2019-11-24T17:03:39Z</time>
      </trkpt>
      <trkpt lat="43.45803" lon="-5.851333">
        <ele>215.8</ele>
        <time>2019-11-24T17:03:40Z</time>
      </trkpt>
      <trkpt lat="43.457999" lon="-5.851466">
        <ele>214.6</ele>
        <time>2019-11-24T17:03:41Z</time>
      </trkpt>
      <trkpt lat="43.457958" lon="-5.851599">
        <ele>214.6</ele>
        <time>2019-11-24T17:03:42Z</time>
      </trkpt>
      <trkpt lat="43.457892" lon="-5.851798">
        <ele>212.8</ele>
        <time>2019-11-24T17:03:43Z</time>
      </trkpt>
      <trkpt lat="43.457867" lon="-5.851864">
        <ele>213</ele>
        <time>2019-11-24T17:03:44Z</time>
      </trkpt>
      <trkpt lat="43.457817" lon="-5.851996">
        <ele>211.6</ele>
        <time>2019-11-24T17:03:45Z</time>
      </trkpt>
      <trkpt lat="43.457745" lon="-5.852203">
        <ele>212.4</ele>
        <time>2019-11-24T17:03:46Z</time>
      </trkpt>
      <trkpt lat="43.457672" lon="-5.85241">
        <ele>212.2</ele>
        <time>2019-11-24T17:03:47Z</time>
      </trkpt>
      <trkpt lat="43.457643" lon="-5.852475">
        <ele>211.6</ele>
        <time>2019-11-24T17:03:48Z</time>
      </trkpt>
      <trkpt lat="43.457613" lon="-5.852539">
        <ele>211.2</ele>
        <time>2019-11-24T17:03:49Z</time>
      </trkpt>
      <trkpt lat="43.457554" lon="-5.852668">
        <ele>210.8</ele>
        <time>2019-11-24T17:03:50Z</time>
      </trkpt>
      <trkpt lat="43.457478" lon="-5.852777">
        <ele>209.8</ele>
        <time>2019-11-24T17:03:51Z</time>
      </trkpt>
      <trkpt lat="43.457336" lon="-5.852939">
        <ele>208.8</ele>
        <time>2019-11-24T17:03:52Z</time>
      </trkpt>
      <trkpt lat="43.457271" lon="-5.852993">
        <ele>209</ele>
        <time>2019-11-24T17:03:53Z</time>
      </trkpt>
      <trkpt lat="43.457142" lon="-5.853102">
        <ele>208</ele>
        <time>2019-11-24T17:03:54Z</time>
      </trkpt>
      <trkpt lat="43.457012" lon="-5.85321">
        <ele>208</ele>
        <time>2019-11-24T17:03:55Z</time>
      </trkpt>
      <trkpt lat="43.456908" lon="-5.853283">
        <ele>207</ele>
        <time>2019-11-24T17:03:56Z</time>
      </trkpt>
      <trkpt lat="43.456804" lon="-5.853352">
        <ele>206</ele>
        <time>2019-11-24T17:03:57Z</time>
      </trkpt>
      <trkpt lat="43.456698" lon="-5.853422">
        <ele>205.8</ele>
        <time>2019-11-24T17:03:58Z</time>
      </trkpt>
      <trkpt lat="43.456591" lon="-5.85349">
        <ele>204.8</ele>
        <time>2019-11-24T17:03:59Z</time>
      </trkpt>
      <trkpt lat="43.456484" lon="-5.853558">
        <ele>204.2</ele>
        <time>2019-11-24T17:04:00Z</time>
      </trkpt>
      <trkpt lat="43.456376" lon="-5.853625">
        <ele>203.4</ele>
        <time>2019-11-24T17:04:01Z</time>
      </trkpt>
      <trkpt lat="43.456268" lon="-5.853694">
        <ele>203.2</ele>
        <time>2019-11-24T17:04:02Z</time>
      </trkpt>
      <trkpt lat="43.45616" lon="-5.853766">
        <ele>202.2</ele>
        <time>2019-11-24T17:04:03Z</time>
      </trkpt>
      <trkpt lat="43.456054" lon="-5.853845">
        <ele>201.4</ele>
        <time>2019-11-24T17:04:04Z</time>
      </trkpt>
      <trkpt lat="43.45595" lon="-5.853928">
        <ele>200.6</ele>
        <time>2019-11-24T17:04:05Z</time>
      </trkpt>
      <trkpt lat="43.455846" lon="-5.854015">
        <ele>200.6</ele>
        <time>2019-11-24T17:04:06Z</time>
      </trkpt>
      <trkpt lat="43.455742" lon="-5.854102">
        <ele>199.6</ele>
        <time>2019-11-24T17:04:07Z</time>
      </trkpt>
      <trkpt lat="43.455638" lon="-5.854189">
        <ele>198.8</ele>
        <time>2019-11-24T17:04:08Z</time>
      </trkpt>
      <trkpt lat="43.455585" lon="-5.854231">
        <ele>198.2</ele>
        <time>2019-11-24T17:04:09Z</time>
      </trkpt>
      <trkpt lat="43.455532" lon="-5.854273">
        <ele>198.4</ele>
        <time>2019-11-24T17:04:10Z</time>
      </trkpt>
      <trkpt lat="43.45537" lon="-5.854386">
        <ele>197.6</ele>
        <time>2019-11-24T17:04:11Z</time>
      </trkpt>
      <trkpt lat="43.455313" lon="-5.854416">
        <ele>196.8</ele>
        <time>2019-11-24T17:04:12Z</time>
      </trkpt>
      <trkpt lat="43.4552" lon="-5.854477">
        <ele>196.6</ele>
        <time>2019-11-24T17:04:13Z</time>
      </trkpt>
      <trkpt lat="43.455029" lon="-5.854545">
        <ele>195.8</ele>
        <time>2019-11-24T17:04:14Z</time>
      </trkpt>
      <trkpt lat="43.45497" lon="-5.854553">
        <ele>195.8</ele>
        <time>2019-11-24T17:04:15Z</time>
      </trkpt>
      <trkpt lat="43.454852" lon="-5.854568">
        <ele>194.8</ele>
        <time>2019-11-24T17:04:16Z</time>
      </trkpt>
      <trkpt lat="43.454673" lon="-5.854532">
        <ele>194.6</ele>
        <time>2019-11-24T17:04:17Z</time>
      </trkpt>
      <trkpt lat="43.454494" lon="-5.854496">
        <ele>193.4</ele>
        <time>2019-11-24T17:04:18Z</time>
      </trkpt>
      <trkpt lat="43.454371" lon="-5.854459">
        <ele>192.4</ele>
        <time>2019-11-24T17:04:19Z</time>
      </trkpt>
      <trkpt lat="43.454249" lon="-5.854435">
        <ele>192.2</ele>
        <time>2019-11-24T17:04:20Z</time>
      </trkpt>
      <trkpt lat="43.454126" lon="-5.85442">
        <ele>192</ele>
        <time>2019-11-24T17:04:21Z</time>
      </trkpt>
      <trkpt lat="43.454002" lon="-5.854411">
        <ele>191.2</ele>
        <time>2019-11-24T17:04:22Z</time>
      </trkpt>
      <trkpt lat="43.453878" lon="-5.854406">
        <ele>190.6</ele>
        <time>2019-11-24T17:04:23Z</time>
      </trkpt>
      <trkpt lat="43.453753" lon="-5.854401">
        <ele>189.4</ele>
        <time>2019-11-24T17:04:24Z</time>
      </trkpt>
      <trkpt lat="43.453628" lon="-5.8544">
        <ele>189.4</ele>
        <time>2019-11-24T17:04:25Z</time>
      </trkpt>
      <trkpt lat="43.453504" lon="-5.854403">
        <ele>188.8</ele>
        <time>2019-11-24T17:04:26Z</time>
      </trkpt>
      <trkpt lat="43.45338" lon="-5.854409">
        <ele>186</ele>
        <time>2019-11-24T17:04:27Z</time>
      </trkpt>
      <trkpt lat="43.453258" lon="-5.854415">
        <ele>185.2</ele>
        <time>2019-11-24T17:04:28Z</time>
      </trkpt>
      <trkpt lat="43.453136" lon="-5.85442">
        <ele>188</ele>
        <time>2019-11-24T17:04:29Z</time>
      </trkpt>
      <trkpt lat="43.453015" lon="-5.854426">
        <ele>186.2</ele>
        <time>2019-11-24T17:04:30Z</time>
      </trkpt>
      <trkpt lat="43.452896" lon="-5.85443">
        <ele>186.8</ele>
        <time>2019-11-24T17:04:31Z</time>
      </trkpt>
      <trkpt lat="43.452776" lon="-5.854432">
        <ele>186.2</ele>
        <time>2019-11-24T17:04:32Z</time>
      </trkpt>
      <trkpt lat="43.452658" lon="-5.854436">
        <ele>185.6</ele>
        <time>2019-11-24T17:04:33Z</time>
      </trkpt>
      <trkpt lat="43.452571" lon="-5.854442">
        <ele>185.6</ele>
        <time>2019-11-24T17:04:34Z</time>
      </trkpt>
      <trkpt lat="43.452483" lon="-5.854448">
        <ele>185.8</ele>
        <time>2019-11-24T17:04:35Z</time>
      </trkpt>
      <trkpt lat="43.452307" lon="-5.854459">
        <ele>183.8</ele>
        <time>2019-11-24T17:04:36Z</time>
      </trkpt>
      <trkpt lat="43.452191" lon="-5.854469">
        <ele>187.2</ele>
        <time>2019-11-24T17:04:37Z</time>
      </trkpt>
      <trkpt lat="43.452074" lon="-5.854475">
        <ele>183.6</ele>
        <time>2019-11-24T17:04:38Z</time>
      </trkpt>
      <trkpt lat="43.451958" lon="-5.85448">
        <ele>185.6</ele>
        <time>2019-11-24T17:04:39Z</time>
      </trkpt>
      <trkpt lat="43.451841" lon="-5.854487">
        <ele>184.8</ele>
        <time>2019-11-24T17:04:40Z</time>
      </trkpt>
      <trkpt lat="43.451724" lon="-5.854498">
        <ele>184.6</ele>
        <time>2019-11-24T17:04:41Z</time>
      </trkpt>
      <trkpt lat="43.451607" lon="-5.854511">
        <ele>184.8</ele>
        <time>2019-11-24T17:04:42Z</time>
      </trkpt>
      <trkpt lat="43.45149" lon="-5.854521">
        <ele>184</ele>
        <time>2019-11-24T17:04:43Z</time>
      </trkpt>
      <trkpt lat="43.451374" lon="-5.85453">
        <ele>183.4</ele>
        <time>2019-11-24T17:04:44Z</time>
      </trkpt>
      <trkpt lat="43.451257" lon="-5.854537">
        <ele>183</ele>
        <time>2019-11-24T17:04:45Z</time>
      </trkpt>
      <trkpt lat="43.451141" lon="-5.854543">
        <ele>183.4</ele>
        <time>2019-11-24T17:04:46Z</time>
      </trkpt>
      <trkpt lat="43.451027" lon="-5.854548">
        <ele>183</ele>
        <time>2019-11-24T17:04:47Z</time>
      </trkpt>
      <trkpt lat="43.450913" lon="-5.854555">
        <ele>183</ele>
        <time>2019-11-24T17:04:48Z</time>
      </trkpt>
      <trkpt lat="43.450801" lon="-5.854562">
        <ele>182.8</ele>
        <time>2019-11-24T17:04:49Z</time>
      </trkpt>
      <trkpt lat="43.450689" lon="-5.854569">
        <ele>182.8</ele>
        <time>2019-11-24T17:04:50Z</time>
      </trkpt>
      <trkpt lat="43.450578" lon="-5.854575">
        <ele>182.8</ele>
        <time>2019-11-24T17:04:51Z</time>
      </trkpt>
      <trkpt lat="43.450468" lon="-5.854579">
        <ele>184</ele>
        <time>2019-11-24T17:04:52Z</time>
      </trkpt>
      <trkpt lat="43.450358" lon="-5.854584">
        <ele>182.8</ele>
        <time>2019-11-24T17:04:53Z</time>
      </trkpt>
      <trkpt lat="43.450249" lon="-5.85459">
        <ele>183</ele>
        <time>2019-11-24T17:04:54Z</time>
      </trkpt>
      <trkpt lat="43.450141" lon="-5.854597">
        <ele>183</ele>
        <time>2019-11-24T17:04:55Z</time>
      </trkpt>
      <trkpt lat="43.450062" lon="-5.854601">
        <ele>182.6</ele>
        <time>2019-11-24T17:04:56Z</time>
      </trkpt>
      <trkpt lat="43.449983" lon="-5.854605">
        <ele>182.8</ele>
        <time>2019-11-24T17:04:57Z</time>
      </trkpt>
      <trkpt lat="43.449825" lon="-5.854612">
        <ele>182.6</ele>
        <time>2019-11-24T17:04:58Z</time>
      </trkpt>
      <trkpt lat="43.449722" lon="-5.854619">
        <ele>182.8</ele>
        <time>2019-11-24T17:04:59Z</time>
      </trkpt>
      <trkpt lat="43.44962" lon="-5.854625">
        <ele>183.4</ele>
        <time>2019-11-24T17:05:00Z</time>
      </trkpt>
      <trkpt lat="43.449519" lon="-5.85463">
        <ele>183.4</ele>
        <time>2019-11-24T17:05:01Z</time>
      </trkpt>
      <trkpt lat="43.449419" lon="-5.854636">
        <ele>183.4</ele>
        <time>2019-11-24T17:05:02Z</time>
      </trkpt>
      <trkpt lat="43.44932" lon="-5.854641">
        <ele>183.2</ele>
        <time>2019-11-24T17:05:03Z</time>
      </trkpt>
      <trkpt lat="43.449222" lon="-5.854646">
        <ele>182.6</ele>
        <time>2019-11-24T17:05:04Z</time>
      </trkpt>
      <trkpt lat="43.449123" lon="-5.854656">
        <ele>183</ele>
        <time>2019-11-24T17:05:05Z</time>
      </trkpt>
      <trkpt lat="43.449026" lon="-5.854671">
        <ele>182.6</ele>
        <time>2019-11-24T17:05:06Z</time>
      </trkpt>
      <trkpt lat="43.448956" lon="-5.854696">
        <ele>182.8</ele>
        <time>2019-11-24T17:05:07Z</time>
      </trkpt>
      <trkpt lat="43.448886" lon="-5.854721">
        <ele>182.4</ele>
        <time>2019-11-24T17:05:08Z</time>
      </trkpt>
      <trkpt lat="43.448745" lon="-5.854771">
        <ele>182.4</ele>
        <time>2019-11-24T17:05:09Z</time>
      </trkpt>
      <trkpt lat="43.448655" lon="-5.854823">
        <ele>182.2</ele>
        <time>2019-11-24T17:05:10Z</time>
      </trkpt>
      <trkpt lat="43.448566" lon="-5.85488">
        <ele>182.6</ele>
        <time>2019-11-24T17:05:11Z</time>
      </trkpt>
      <trkpt lat="43.448476" lon="-5.854939">
        <ele>182</ele>
        <time>2019-11-24T17:05:12Z</time>
      </trkpt>
      <trkpt lat="43.448386" lon="-5.855">
        <ele>181.4</ele>
        <time>2019-11-24T17:05:13Z</time>
      </trkpt>
      <trkpt lat="43.448295" lon="-5.855061">
        <ele>181.2</ele>
        <time>2019-11-24T17:05:14Z</time>
      </trkpt>
      <trkpt lat="43.448202" lon="-5.85512">
        <ele>180.6</ele>
        <time>2019-11-24T17:05:15Z</time>
      </trkpt>
      <trkpt lat="43.448108" lon="-5.85518">
        <ele>180.2</ele>
        <time>2019-11-24T17:05:16Z</time>
      </trkpt>
      <trkpt lat="43.448015" lon="-5.855241">
        <ele>179.6</ele>
        <time>2019-11-24T17:05:17Z</time>
      </trkpt>
      <trkpt lat="43.44792" lon="-5.855303">
        <ele>179.2</ele>
        <time>2019-11-24T17:05:18Z</time>
      </trkpt>
      <trkpt lat="43.447825" lon="-5.855365">
        <ele>179.2</ele>
        <time>2019-11-24T17:05:19Z</time>
      </trkpt>
      <trkpt lat="43.44773" lon="-5.855428">
        <ele>178.8</ele>
        <time>2019-11-24T17:05:20Z</time>
      </trkpt>
      <trkpt lat="43.447635" lon="-5.855493">
        <ele>178.6</ele>
        <time>2019-11-24T17:05:21Z</time>
      </trkpt>
      <trkpt lat="43.44754" lon="-5.855557">
        <ele>178.4</ele>
        <time>2019-11-24T17:05:22Z</time>
      </trkpt>
      <trkpt lat="43.447442" lon="-5.855622">
        <ele>178</ele>
        <time>2019-11-24T17:05:23Z</time>
      </trkpt>
      <trkpt lat="43.447345" lon="-5.855686">
        <ele>177.6</ele>
        <time>2019-11-24T17:05:24Z</time>
      </trkpt>
      <trkpt lat="43.447247" lon="-5.855751">
        <ele>177</ele>
        <time>2019-11-24T17:05:25Z</time>
      </trkpt>
      <trkpt lat="43.447149" lon="-5.855815">
        <ele>175.2</ele>
        <time>2019-11-24T17:05:26Z</time>
      </trkpt>
      <trkpt lat="43.447051" lon="-5.85588">
        <ele>175.6</ele>
        <time>2019-11-24T17:05:27Z</time>
      </trkpt>
      <trkpt lat="43.446953" lon="-5.855943">
        <ele>175.4</ele>
        <time>2019-11-24T17:05:28Z</time>
      </trkpt>
      <trkpt lat="43.446856" lon="-5.856006">
        <ele>174.8</ele>
        <time>2019-11-24T17:05:29Z</time>
      </trkpt>
      <trkpt lat="43.44676" lon="-5.856069">
        <ele>174.6</ele>
        <time>2019-11-24T17:05:30Z</time>
      </trkpt>
      <trkpt lat="43.446665" lon="-5.856133">
        <ele>174.6</ele>
        <time>2019-11-24T17:05:31Z</time>
      </trkpt>
      <trkpt lat="43.446571" lon="-5.856197">
        <ele>174.2</ele>
        <time>2019-11-24T17:05:32Z</time>
      </trkpt>
      <trkpt lat="43.446477" lon="-5.85626">
        <ele>174.2</ele>
        <time>2019-11-24T17:05:33Z</time>
      </trkpt>
      <trkpt lat="43.446384" lon="-5.85632">
        <ele>174.4</ele>
        <time>2019-11-24T17:05:34Z</time>
      </trkpt>
      <trkpt lat="43.446291" lon="-5.856377">
        <ele>174</ele>
        <time>2019-11-24T17:05:35Z</time>
      </trkpt>
      <trkpt lat="43.446197" lon="-5.856428">
        <ele>174</ele>
        <time>2019-11-24T17:05:36Z</time>
      </trkpt>
      <trkpt lat="43.44615" lon="-5.856445">
        <ele>173.8</ele>
        <time>2019-11-24T17:05:37Z</time>
      </trkpt>
      <trkpt lat="43.446102" lon="-5.856461">
        <ele>174.2</ele>
        <time>2019-11-24T17:05:38Z</time>
      </trkpt>
      <trkpt lat="43.446006" lon="-5.856494">
        <ele>174.2</ele>
        <time>2019-11-24T17:05:39Z</time>
      </trkpt>
      <trkpt lat="43.445909" lon="-5.856516">
        <ele>174.4</ele>
        <time>2019-11-24T17:05:40Z</time>
      </trkpt>
      <trkpt lat="43.445719" lon="-5.856548">
        <ele>174.2</ele>
        <time>2019-11-24T17:05:41Z</time>
      </trkpt>
      <trkpt lat="43.445624" lon="-5.85656">
        <ele>174.2</ele>
        <time>2019-11-24T17:05:42Z</time>
      </trkpt>
      <trkpt lat="43.44553" lon="-5.856568">
        <ele>175</ele>
        <time>2019-11-24T17:05:43Z</time>
      </trkpt>
      <trkpt lat="43.445436" lon="-5.856574">
        <ele>174.2</ele>
        <time>2019-11-24T17:05:44Z</time>
      </trkpt>
      <trkpt lat="43.445343" lon="-5.856574">
        <ele>174.2</ele>
        <time>2019-11-24T17:05:45Z</time>
      </trkpt>
      <trkpt lat="43.44525" lon="-5.856565">
        <ele>174.6</ele>
        <time>2019-11-24T17:05:46Z</time>
      </trkpt>
      <trkpt lat="43.44516" lon="-5.856549">
        <ele>174.8</ele>
        <time>2019-11-24T17:05:47Z</time>
      </trkpt>
      <trkpt lat="43.44507" lon="-5.856526">
        <ele>174.8</ele>
        <time>2019-11-24T17:05:48Z</time>
      </trkpt>
      <trkpt lat="43.444981" lon="-5.856497">
        <ele>174.4</ele>
        <time>2019-11-24T17:05:49Z</time>
      </trkpt>
      <trkpt lat="43.444894" lon="-5.856464">
        <ele>174.4</ele>
        <time>2019-11-24T17:05:50Z</time>
      </trkpt>
      <trkpt lat="43.444807" lon="-5.856429">
        <ele>174.4</ele>
        <time>2019-11-24T17:05:51Z</time>
      </trkpt>
      <trkpt lat="43.444721" lon="-5.856394">
        <ele>174.4</ele>
        <time>2019-11-24T17:05:52Z</time>
      </trkpt>
      <trkpt lat="43.444636" lon="-5.856359">
        <ele>174.2</ele>
        <time>2019-11-24T17:05:53Z</time>
      </trkpt>
      <trkpt lat="43.444551" lon="-5.856325">
        <ele>173.6</ele>
        <time>2019-11-24T17:05:54Z</time>
      </trkpt>
      <trkpt lat="43.444466" lon="-5.856291">
        <ele>174</ele>
        <time>2019-11-24T17:05:55Z</time>
      </trkpt>
      <trkpt lat="43.444383" lon="-5.856257">
        <ele>173.6</ele>
        <time>2019-11-24T17:05:56Z</time>
      </trkpt>
      <trkpt lat="43.444299" lon="-5.856224">
        <ele>174.4</ele>
        <time>2019-11-24T17:05:57Z</time>
      </trkpt>
      <trkpt lat="43.444217" lon="-5.85619">
        <ele>174</ele>
        <time>2019-11-24T17:05:58Z</time>
      </trkpt>
      <trkpt lat="43.444135" lon="-5.856157">
        <ele>174.8</ele>
        <time>2019-11-24T17:05:59Z</time>
      </trkpt>
      <trkpt lat="43.444053" lon="-5.856125">
        <ele>174.6</ele>
        <time>2019-11-24T17:06:00Z</time>
      </trkpt>
      <trkpt lat="43.443972" lon="-5.856092">
        <ele>174.6</ele>
        <time>2019-11-24T17:06:01Z</time>
      </trkpt>
      <trkpt lat="43.443892" lon="-5.856059">
        <ele>175</ele>
        <time>2019-11-24T17:06:02Z</time>
      </trkpt>
      <trkpt lat="43.443813" lon="-5.856025">
        <ele>174.4</ele>
        <time>2019-11-24T17:06:03Z</time>
      </trkpt>
      <trkpt lat="43.443734" lon="-5.855985">
        <ele>174.4</ele>
        <time>2019-11-24T17:06:04Z</time>
      </trkpt>
      <trkpt lat="43.443657" lon="-5.855936">
        <ele>174.2</ele>
        <time>2019-11-24T17:06:05Z</time>
      </trkpt>
      <trkpt lat="43.443582" lon="-5.855876">
        <ele>173.8</ele>
        <time>2019-11-24T17:06:06Z</time>
      </trkpt>
      <trkpt lat="43.443508" lon="-5.855809">
        <ele>173</ele>
        <time>2019-11-24T17:06:07Z</time>
      </trkpt>
      <trkpt lat="43.443435" lon="-5.855733">
        <ele>172.6</ele>
        <time>2019-11-24T17:06:08Z</time>
      </trkpt>
      <trkpt lat="43.443365" lon="-5.855653">
        <ele>172.6</ele>
        <time>2019-11-24T17:06:09Z</time>
      </trkpt>
      <trkpt lat="43.443295" lon="-5.855571">
        <ele>172.4</ele>
        <time>2019-11-24T17:06:10Z</time>
      </trkpt>
      <trkpt lat="43.443224" lon="-5.855487">
        <ele>172</ele>
        <time>2019-11-24T17:06:11Z</time>
      </trkpt>
      <trkpt lat="43.443152" lon="-5.855403">
        <ele>171.6</ele>
        <time>2019-11-24T17:06:12Z</time>
      </trkpt>
      <trkpt lat="43.44308" lon="-5.85532">
        <ele>171</ele>
        <time>2019-11-24T17:06:13Z</time>
      </trkpt>
      <trkpt lat="43.443008" lon="-5.855236">
        <ele>171.2</ele>
        <time>2019-11-24T17:06:14Z</time>
      </trkpt>
      <trkpt lat="43.442937" lon="-5.85515">
        <ele>171</ele>
        <time>2019-11-24T17:06:15Z</time>
      </trkpt>
      <trkpt lat="43.442864" lon="-5.855064">
        <ele>170.4</ele>
        <time>2019-11-24T17:06:16Z</time>
      </trkpt>
      <trkpt lat="43.442792" lon="-5.854978">
        <ele>170.4</ele>
        <time>2019-11-24T17:06:17Z</time>
      </trkpt>
      <trkpt lat="43.442718" lon="-5.854893">
        <ele>170.6</ele>
        <time>2019-11-24T17:06:18Z</time>
      </trkpt>
      <trkpt lat="43.442645" lon="-5.854808">
        <ele>170.2</ele>
        <time>2019-11-24T17:06:19Z</time>
      </trkpt>
      <trkpt lat="43.442573" lon="-5.854724">
        <ele>169.8</ele>
        <time>2019-11-24T17:06:20Z</time>
      </trkpt>
      <trkpt lat="43.4425" lon="-5.854639">
        <ele>169.8</ele>
        <time>2019-11-24T17:06:21Z</time>
      </trkpt>
      <trkpt lat="43.442427" lon="-5.854555">
        <ele>170</ele>
        <time>2019-11-24T17:06:22Z</time>
      </trkpt>
      <trkpt lat="43.442356" lon="-5.854471">
        <ele>170</ele>
        <time>2019-11-24T17:06:23Z</time>
      </trkpt>
      <trkpt lat="43.44232" lon="-5.854434">
        <ele>170.4</ele>
        <time>2019-11-24T17:06:24Z</time>
      </trkpt>
      <trkpt lat="43.442284" lon="-5.854397">
        <ele>170.4</ele>
        <time>2019-11-24T17:06:25Z</time>
      </trkpt>
      <trkpt lat="43.442213" lon="-5.85432">
        <ele>170</ele>
        <time>2019-11-24T17:06:26Z</time>
      </trkpt>
      <trkpt lat="43.442141" lon="-5.854238">
        <ele>170.2</ele>
        <time>2019-11-24T17:06:27Z</time>
      </trkpt>
      <trkpt lat="43.442071" lon="-5.85416">
        <ele>171</ele>
        <time>2019-11-24T17:06:28Z</time>
      </trkpt>
      <trkpt lat="43.442004" lon="-5.85408">
        <ele>171</ele>
        <time>2019-11-24T17:06:29Z</time>
      </trkpt>
      <trkpt lat="43.441936" lon="-5.854001">
        <ele>171</ele>
        <time>2019-11-24T17:06:30Z</time>
      </trkpt>
      <trkpt lat="43.441807" lon="-5.85386">
        <ele>170.8</ele>
        <time>2019-11-24T17:06:31Z</time>
      </trkpt>
      <trkpt lat="43.441775" lon="-5.853824">
        <ele>171.4</ele>
        <time>2019-11-24T17:06:32Z</time>
      </trkpt>
      <trkpt lat="43.441743" lon="-5.853789">
        <ele>171.2</ele>
        <time>2019-11-24T17:06:33Z</time>
      </trkpt>
      <trkpt lat="43.441616" lon="-5.853647">
        <ele>171.4</ele>
        <time>2019-11-24T17:06:34Z</time>
      </trkpt>
      <trkpt lat="43.44157" lon="-5.853595">
        <ele>171.2</ele>
        <time>2019-11-24T17:06:35Z</time>
      </trkpt>
      <trkpt lat="43.441523" lon="-5.853543">
        <ele>171.2</ele>
        <time>2019-11-24T17:06:36Z</time>
      </trkpt>
      <trkpt lat="43.441429" lon="-5.85344">
        <ele>170.4</ele>
        <time>2019-11-24T17:06:37Z</time>
      </trkpt>
      <trkpt lat="43.441367" lon="-5.853373">
        <ele>171.8</ele>
        <time>2019-11-24T17:06:38Z</time>
      </trkpt>
      <trkpt lat="43.441308" lon="-5.853304">
        <ele>172</ele>
        <time>2019-11-24T17:06:39Z</time>
      </trkpt>
      <trkpt lat="43.441251" lon="-5.853229">
        <ele>171.8</ele>
        <time>2019-11-24T17:06:40Z</time>
      </trkpt>
      <trkpt lat="43.441195" lon="-5.853162">
        <ele>171.8</ele>
        <time>2019-11-24T17:06:41Z</time>
      </trkpt>
      <trkpt lat="43.441138" lon="-5.853095">
        <ele>171.8</ele>
        <time>2019-11-24T17:06:42Z</time>
      </trkpt>
      <trkpt lat="43.441082" lon="-5.853027">
        <ele>172</ele>
        <time>2019-11-24T17:06:43Z</time>
      </trkpt>
      <trkpt lat="43.441025" lon="-5.852962">
        <ele>172.2</ele>
        <time>2019-11-24T17:06:44Z</time>
      </trkpt>
      <trkpt lat="43.440967" lon="-5.852896">
        <ele>172.6</ele>
        <time>2019-11-24T17:06:45Z</time>
      </trkpt>
      <trkpt lat="43.440911" lon="-5.85283">
        <ele>173</ele>
        <time>2019-11-24T17:06:46Z</time>
      </trkpt>
      <trkpt lat="43.440853" lon="-5.852767">
        <ele>173.4</ele>
        <time>2019-11-24T17:06:47Z</time>
      </trkpt>
      <trkpt lat="43.440825" lon="-5.852736">
        <ele>172.8</ele>
        <time>2019-11-24T17:06:48Z</time>
      </trkpt>
      <trkpt lat="43.440796" lon="-5.852706">
        <ele>172.2</ele>
        <time>2019-11-24T17:06:49Z</time>
      </trkpt>
      <trkpt lat="43.440738" lon="-5.852645">
        <ele>172.4</ele>
        <time>2019-11-24T17:06:50Z</time>
      </trkpt>
      <trkpt lat="43.440684" lon="-5.852584">
        <ele>173.4</ele>
        <time>2019-11-24T17:06:51Z</time>
      </trkpt>
      <trkpt lat="43.440633" lon="-5.852522">
        <ele>173</ele>
        <time>2019-11-24T17:06:52Z</time>
      </trkpt>
      <trkpt lat="43.440581" lon="-5.85246">
        <ele>173.4</ele>
        <time>2019-11-24T17:06:53Z</time>
      </trkpt>
      <trkpt lat="43.440491" lon="-5.852342">
        <ele>173</ele>
        <time>2019-11-24T17:06:54Z</time>
      </trkpt>
      <trkpt lat="43.440447" lon="-5.852292">
        <ele>172.8</ele>
        <time>2019-11-24T17:06:55Z</time>
      </trkpt>
      <trkpt lat="43.440403" lon="-5.852243">
        <ele>174.2</ele>
        <time>2019-11-24T17:06:56Z</time>
      </trkpt>
      <trkpt lat="43.440382" lon="-5.852221">
        <ele>174.2</ele>
        <time>2019-11-24T17:06:57Z</time>
      </trkpt>
      <trkpt lat="43.440361" lon="-5.8522">
        <ele>174.8</ele>
        <time>2019-11-24T17:06:58Z</time>
      </trkpt>
      <trkpt lat="43.440324" lon="-5.852155">
        <ele>174.4</ele>
        <time>2019-11-24T17:06:59Z</time>
      </trkpt>
      <trkpt lat="43.440288" lon="-5.852114">
        <ele>174.4</ele>
        <time>2019-11-24T17:07:00Z</time>
      </trkpt>
      <trkpt lat="43.440255" lon="-5.852082">
        <ele>174.8</ele>
        <time>2019-11-24T17:07:01Z</time>
      </trkpt>
      <trkpt lat="43.440229" lon="-5.852052">
        <ele>174.6</ele>
        <time>2019-11-24T17:07:02Z</time>
      </trkpt>
      <trkpt lat="43.44021" lon="-5.852033">
        <ele>175.2</ele>
        <time>2019-11-24T17:07:03Z</time>
      </trkpt>
      <trkpt lat="43.440192" lon="-5.852007">
        <ele>175.4</ele>
        <time>2019-11-24T17:07:04Z</time>
      </trkpt>
      <trkpt lat="43.440179" lon="-5.851989">
        <ele>175.2</ele>
        <time>2019-11-24T17:07:05Z</time>
      </trkpt>
      <trkpt lat="43.440165" lon="-5.851971">
        <ele>175.2</ele>
        <time>2019-11-24T17:07:06Z</time>
      </trkpt>
      <trkpt lat="43.440152" lon="-5.851953">
        <ele>175.4</ele>
        <time>2019-11-24T17:07:07Z</time>
      </trkpt>
      <trkpt lat="43.440138" lon="-5.851935">
        <ele>175.4</ele>
        <time>2019-11-24T17:07:08Z</time>
      </trkpt>
      <trkpt lat="43.440125" lon="-5.851917">
        <ele>174.8</ele>
        <time>2019-11-24T17:07:29Z</time>
      </trkpt>
      <trkpt lat="43.440111" lon="-5.851899">
        <ele>174.6</ele>
        <time>2019-11-24T17:07:30Z</time>
      </trkpt>
      <trkpt lat="43.440074" lon="-5.851856">
        <ele>173.6</ele>
        <time>2019-11-24T17:07:31Z</time>
      </trkpt>
      <trkpt lat="43.440034" lon="-5.851804">
        <ele>174.4</ele>
        <time>2019-11-24T17:07:32Z</time>
      </trkpt>
      <trkpt lat="43.439991" lon="-5.85175">
        <ele>174.2</ele>
        <time>2019-11-24T17:07:33Z</time>
      </trkpt>
      <trkpt lat="43.439893" lon="-5.851632">
        <ele>174</ele>
        <time>2019-11-24T17:07:34Z</time>
      </trkpt>
      <trkpt lat="43.439842" lon="-5.851572">
        <ele>174.6</ele>
        <time>2019-11-24T17:07:35Z</time>
      </trkpt>
      <trkpt lat="43.439787" lon="-5.851511">
        <ele>175.4</ele>
        <time>2019-11-24T17:07:36Z</time>
      </trkpt>
      <trkpt lat="43.43976" lon="-5.851479">
        <ele>174.8</ele>
        <time>2019-11-24T17:07:37Z</time>
      </trkpt>
      <trkpt lat="43.439733" lon="-5.851448">
        <ele>175.2</ele>
        <time>2019-11-24T17:07:38Z</time>
      </trkpt>
      <trkpt lat="43.439652" lon="-5.851351">
        <ele>175</ele>
        <time>2019-11-24T17:07:39Z</time>
      </trkpt>
      <trkpt lat="43.439626" lon="-5.851317">
        <ele>175</ele>
        <time>2019-11-24T17:07:40Z</time>
      </trkpt>
      <trkpt lat="43.439576" lon="-5.851251">
        <ele>175.6</ele>
        <time>2019-11-24T17:07:41Z</time>
      </trkpt>
      <trkpt lat="43.439462" lon="-5.851123">
        <ele>175</ele>
        <time>2019-11-24T17:07:42Z</time>
      </trkpt>
      <trkpt lat="43.439407" lon="-5.851061">
        <ele>174.6</ele>
        <time>2019-11-24T17:07:43Z</time>
      </trkpt>
      <trkpt lat="43.439356" lon="-5.850999">
        <ele>174.8</ele>
        <time>2019-11-24T17:07:44Z</time>
      </trkpt>
      <trkpt lat="43.43932" lon="-5.850959">
        <ele>175.2</ele>
        <time>2019-11-24T17:07:45Z</time>
      </trkpt>
      <trkpt lat="43.439283" lon="-5.850919">
        <ele>175.6</ele>
        <time>2019-11-24T17:07:46Z</time>
      </trkpt>
      <trkpt lat="43.43921" lon="-5.85084">
        <ele>176</ele>
        <time>2019-11-24T17:07:47Z</time>
      </trkpt>
      <trkpt lat="43.439167" lon="-5.850807">
        <ele>176</ele>
        <time>2019-11-24T17:07:48Z</time>
      </trkpt>
      <trkpt lat="43.439138" lon="-5.850788">
        <ele>176.4</ele>
        <time>2019-11-24T17:07:49Z</time>
      </trkpt>
      <trkpt lat="43.439121" lon="-5.850782">
        <ele>176.6</ele>
        <time>2019-11-24T17:07:50Z</time>
      </trkpt>
      <trkpt lat="43.439121" lon="-5.850782">
        <ele>176.8</ele>
        <time>2019-11-24T17:07:51Z</time>
      </trkpt>
      <trkpt lat="43.439114" lon="-5.850787">
        <ele>176.8</ele>
        <time>2019-11-24T17:07:52Z</time>
      </trkpt>
      <trkpt lat="43.43911" lon="-5.850799">
        <ele>177</ele>
        <time>2019-11-24T17:07:53Z</time>
      </trkpt>
      <trkpt lat="43.43911" lon="-5.850799">
        <ele>177</ele>
        <time>2019-11-24T17:07:54Z</time>
      </trkpt>
      <trkpt lat="43.439084" lon="-5.8507">
        <ele>177</ele>
        <time>2019-11-24T17:08:41Z</time>
      </trkpt>
      <trkpt lat="43.43907" lon="-5.850688">
        <ele>177.2</ele>
        <time>2019-11-24T17:08:42Z</time>
      </trkpt>
      <trkpt lat="43.439054" lon="-5.850673">
        <ele>177.2</ele>
        <time>2019-11-24T17:08:43Z</time>
      </trkpt>
      <trkpt lat="43.439034" lon="-5.850651">
        <ele>177.2</ele>
        <time>2019-11-24T17:08:44Z</time>
      </trkpt>
      <trkpt lat="43.439013" lon="-5.85063">
        <ele>177.2</ele>
        <time>2019-11-24T17:08:45Z</time>
      </trkpt>
      <trkpt lat="43.438989" lon="-5.850601">
        <ele>177</ele>
        <time>2019-11-24T17:08:46Z</time>
      </trkpt>
      <trkpt lat="43.438966" lon="-5.850569">
        <ele>177.2</ele>
        <time>2019-11-24T17:08:47Z</time>
      </trkpt>
      <trkpt lat="43.438943" lon="-5.850537">
        <ele>177</ele>
        <time>2019-11-24T17:08:48Z</time>
      </trkpt>
      <trkpt lat="43.438915" lon="-5.850507">
        <ele>177.2</ele>
        <time>2019-11-24T17:08:49Z</time>
      </trkpt>
      <trkpt lat="43.438885" lon="-5.850477">
        <ele>177.2</ele>
        <time>2019-11-24T17:08:50Z</time>
      </trkpt>
      <trkpt lat="43.438856" lon="-5.850448">
        <ele>177.4</ele>
        <time>2019-11-24T17:08:51Z</time>
      </trkpt>
      <trkpt lat="43.438826" lon="-5.850419">
        <ele>177.4</ele>
        <time>2019-11-24T17:08:52Z</time>
      </trkpt>
      <trkpt lat="43.438799" lon="-5.850391">
        <ele>177.6</ele>
        <time>2019-11-24T17:08:53Z</time>
      </trkpt>
      <trkpt lat="43.438774" lon="-5.850365">
        <ele>177.6</ele>
        <time>2019-11-24T17:08:54Z</time>
      </trkpt>
      <trkpt lat="43.438746" lon="-5.850335">
        <ele>177.6</ele>
        <time>2019-11-24T17:08:55Z</time>
      </trkpt>
      <trkpt lat="43.438719" lon="-5.850303">
        <ele>177.8</ele>
        <time>2019-11-24T17:08:56Z</time>
      </trkpt>
      <trkpt lat="43.438689" lon="-5.85027">
        <ele>177.6</ele>
        <time>2019-11-24T17:08:57Z</time>
      </trkpt>
      <trkpt lat="43.438661" lon="-5.850231">
        <ele>177.6</ele>
        <time>2019-11-24T17:08:58Z</time>
      </trkpt>
      <trkpt lat="43.438632" lon="-5.850192">
        <ele>177.2</ele>
        <time>2019-11-24T17:08:59Z</time>
      </trkpt>
      <trkpt lat="43.438604" lon="-5.850152">
        <ele>177.4</ele>
        <time>2019-11-24T17:09:00Z</time>
      </trkpt>
      <trkpt lat="43.438579" lon="-5.850106">
        <ele>177.4</ele>
        <time>2019-11-24T17:09:01Z</time>
      </trkpt>
      <trkpt lat="43.438552" lon="-5.850062">
        <ele>177.4</ele>
        <time>2019-11-24T17:09:02Z</time>
      </trkpt>
      <trkpt lat="43.438525" lon="-5.850019">
        <ele>177.6</ele>
        <time>2019-11-24T17:09:03Z</time>
      </trkpt>
      <trkpt lat="43.438502" lon="-5.849966">
        <ele>177.2</ele>
        <time>2019-11-24T17:09:04Z</time>
      </trkpt>
      <trkpt lat="43.438472" lon="-5.849918">
        <ele>177</ele>
        <time>2019-11-24T17:09:05Z</time>
      </trkpt>
      <trkpt lat="43.438439" lon="-5.849871">
        <ele>177</ele>
        <time>2019-11-24T17:09:06Z</time>
      </trkpt>
      <trkpt lat="43.438404" lon="-5.849824">
        <ele>176.6</ele>
        <time>2019-11-24T17:09:07Z</time>
      </trkpt>
      <trkpt lat="43.438367" lon="-5.849774">
        <ele>176.6</ele>
        <time>2019-11-24T17:09:08Z</time>
      </trkpt>
      <trkpt lat="43.438327" lon="-5.849724">
        <ele>176.2</ele>
        <time>2019-11-24T17:09:09Z</time>
      </trkpt>
      <trkpt lat="43.438285" lon="-5.849673">
        <ele>176.2</ele>
        <time>2019-11-24T17:09:10Z</time>
      </trkpt>
      <trkpt lat="43.438243" lon="-5.849619">
        <ele>176.4</ele>
        <time>2019-11-24T17:09:11Z</time>
      </trkpt>
      <trkpt lat="43.438201" lon="-5.849563">
        <ele>175.8</ele>
        <time>2019-11-24T17:09:12Z</time>
      </trkpt>
      <trkpt lat="43.438158" lon="-5.849505">
        <ele>175.4</ele>
        <time>2019-11-24T17:09:13Z</time>
      </trkpt>
      <trkpt lat="43.438115" lon="-5.849447">
        <ele>175.8</ele>
        <time>2019-11-24T17:09:14Z</time>
      </trkpt>
      <trkpt lat="43.43807" lon="-5.849387">
        <ele>174.8</ele>
        <time>2019-11-24T17:09:15Z</time>
      </trkpt>
      <trkpt lat="43.438024" lon="-5.849325">
        <ele>174.4</ele>
        <time>2019-11-24T17:09:16Z</time>
      </trkpt>
      <trkpt lat="43.437976" lon="-5.849263">
        <ele>174.4</ele>
        <time>2019-11-24T17:09:17Z</time>
      </trkpt>
      <trkpt lat="43.437927" lon="-5.849199">
        <ele>174.2</ele>
        <time>2019-11-24T17:09:18Z</time>
      </trkpt>
      <trkpt lat="43.437876" lon="-5.849133">
        <ele>173.8</ele>
        <time>2019-11-24T17:09:19Z</time>
      </trkpt>
      <trkpt lat="43.437824" lon="-5.849063">
        <ele>174.6</ele>
        <time>2019-11-24T17:09:20Z</time>
      </trkpt>
      <trkpt lat="43.437771" lon="-5.848992">
        <ele>173.4</ele>
        <time>2019-11-24T17:09:21Z</time>
      </trkpt>
      <trkpt lat="43.437718" lon="-5.84892">
        <ele>172.6</ele>
        <time>2019-11-24T17:09:22Z</time>
      </trkpt>
      <trkpt lat="43.437677" lon="-5.848865">
        <ele>172.6</ele>
        <time>2019-11-24T17:09:23Z</time>
      </trkpt>
      <trkpt lat="43.437635" lon="-5.84881">
        <ele>171.8</ele>
        <time>2019-11-24T17:09:24Z</time>
      </trkpt>
      <trkpt lat="43.437551" lon="-5.848701">
        <ele>171.2</ele>
        <time>2019-11-24T17:09:25Z</time>
      </trkpt>
      <trkpt lat="43.437495" lon="-5.848626">
        <ele>171.2</ele>
        <time>2019-11-24T17:09:26Z</time>
      </trkpt>
      <trkpt lat="43.43744" lon="-5.848552">
        <ele>170.8</ele>
        <time>2019-11-24T17:09:27Z</time>
      </trkpt>
      <trkpt lat="43.437385" lon="-5.848478">
        <ele>169.8</ele>
        <time>2019-11-24T17:09:28Z</time>
      </trkpt>
      <trkpt lat="43.437328" lon="-5.848403">
        <ele>170.2</ele>
        <time>2019-11-24T17:09:29Z</time>
      </trkpt>
      <trkpt lat="43.437273" lon="-5.848328">
        <ele>170.4</ele>
        <time>2019-11-24T17:09:30Z</time>
      </trkpt>
      <trkpt lat="43.437219" lon="-5.848252">
        <ele>170.2</ele>
        <time>2019-11-24T17:09:31Z</time>
      </trkpt>
      <trkpt lat="43.437165" lon="-5.84818">
        <ele>170.8</ele>
        <time>2019-11-24T17:09:32Z</time>
      </trkpt>
      <trkpt lat="43.437107" lon="-5.848111">
        <ele>170.6</ele>
        <time>2019-11-24T17:09:33Z</time>
      </trkpt>
      <trkpt lat="43.437051" lon="-5.848043">
        <ele>170.6</ele>
        <time>2019-11-24T17:09:34Z</time>
      </trkpt>
      <trkpt lat="43.436998" lon="-5.847973">
        <ele>170.4</ele>
        <time>2019-11-24T17:09:35Z</time>
      </trkpt>
      <trkpt lat="43.436945" lon="-5.847905">
        <ele>171.2</ele>
        <time>2019-11-24T17:09:36Z</time>
      </trkpt>
      <trkpt lat="43.436894" lon="-5.847838">
        <ele>170.8</ele>
        <time>2019-11-24T17:09:37Z</time>
      </trkpt>
      <trkpt lat="43.436844" lon="-5.847772">
        <ele>171.4</ele>
        <time>2019-11-24T17:09:38Z</time>
      </trkpt>
      <trkpt lat="43.436795" lon="-5.847708">
        <ele>171.4</ele>
        <time>2019-11-24T17:09:39Z</time>
      </trkpt>
      <trkpt lat="43.436747" lon="-5.847645">
        <ele>171.4</ele>
        <time>2019-11-24T17:09:40Z</time>
      </trkpt>
      <trkpt lat="43.436698" lon="-5.847583">
        <ele>171.8</ele>
        <time>2019-11-24T17:09:41Z</time>
      </trkpt>
      <trkpt lat="43.436651" lon="-5.847522">
        <ele>171.6</ele>
        <time>2019-11-24T17:09:42Z</time>
      </trkpt>
      <trkpt lat="43.436605" lon="-5.847459">
        <ele>172</ele>
        <time>2019-11-24T17:09:43Z</time>
      </trkpt>
      <trkpt lat="43.436558" lon="-5.847397">
        <ele>172.6</ele>
        <time>2019-11-24T17:09:44Z</time>
      </trkpt>
      <trkpt lat="43.436512" lon="-5.847335">
        <ele>172.8</ele>
        <time>2019-11-24T17:09:45Z</time>
      </trkpt>
      <trkpt lat="43.436468" lon="-5.847272">
        <ele>172.4</ele>
        <time>2019-11-24T17:09:46Z</time>
      </trkpt>
      <trkpt lat="43.436422" lon="-5.84721">
        <ele>172.8</ele>
        <time>2019-11-24T17:09:47Z</time>
      </trkpt>
      <trkpt lat="43.436376" lon="-5.847152">
        <ele>173.4</ele>
        <time>2019-11-24T17:09:48Z</time>
      </trkpt>
      <trkpt lat="43.43633" lon="-5.847092">
        <ele>172.6</ele>
        <time>2019-11-24T17:09:49Z</time>
      </trkpt>
      <trkpt lat="43.436289" lon="-5.847029">
        <ele>171.4</ele>
        <time>2019-11-24T17:09:50Z</time>
      </trkpt>
      <trkpt lat="43.436247" lon="-5.846968">
        <ele>173</ele>
        <time>2019-11-24T17:09:51Z</time>
      </trkpt>
      <trkpt lat="43.436202" lon="-5.846913">
        <ele>173.2</ele>
        <time>2019-11-24T17:09:52Z</time>
      </trkpt>
      <trkpt lat="43.436153" lon="-5.846864">
        <ele>173</ele>
        <time>2019-11-24T17:09:53Z</time>
      </trkpt>
      <trkpt lat="43.436104" lon="-5.84682">
        <ele>173</ele>
        <time>2019-11-24T17:09:54Z</time>
      </trkpt>
      <trkpt lat="43.436053" lon="-5.84678">
        <ele>173</ele>
        <time>2019-11-24T17:09:55Z</time>
      </trkpt>
      <trkpt lat="43.435999" lon="-5.84675">
        <ele>173.2</ele>
        <time>2019-11-24T17:09:56Z</time>
      </trkpt>
      <trkpt lat="43.435943" lon="-5.846731">
        <ele>173.2</ele>
        <time>2019-11-24T17:09:57Z</time>
      </trkpt>
      <trkpt lat="43.435887" lon="-5.846717">
        <ele>173.6</ele>
        <time>2019-11-24T17:09:58Z</time>
      </trkpt>
      <trkpt lat="43.43583" lon="-5.8467">
        <ele>173.4</ele>
        <time>2019-11-24T17:09:59Z</time>
      </trkpt>
      <trkpt lat="43.435775" lon="-5.846671">
        <ele>173.8</ele>
        <time>2019-11-24T17:10:00Z</time>
      </trkpt>
      <trkpt lat="43.435745" lon="-5.846628">
        <ele>173</ele>
        <time>2019-11-24T17:10:01Z</time>
      </trkpt>
      <trkpt lat="43.435714" lon="-5.846585">
        <ele>173.6</ele>
        <time>2019-11-24T17:10:02Z</time>
      </trkpt>
      <trkpt lat="43.435653" lon="-5.8465">
        <ele>173.6</ele>
        <time>2019-11-24T17:10:03Z</time>
      </trkpt>
      <trkpt lat="43.435644" lon="-5.84644">
        <ele>173.4</ele>
        <time>2019-11-24T17:10:04Z</time>
      </trkpt>
      <trkpt lat="43.435634" lon="-5.846381">
        <ele>172.8</ele>
        <time>2019-11-24T17:10:05Z</time>
      </trkpt>
      <trkpt lat="43.435614" lon="-5.846262">
        <ele>173</ele>
        <time>2019-11-24T17:10:06Z</time>
      </trkpt>
      <trkpt lat="43.435594" lon="-5.846184">
        <ele>173.6</ele>
        <time>2019-11-24T17:10:07Z</time>
      </trkpt>
      <trkpt lat="43.435564" lon="-5.846109">
        <ele>172.2</ele>
        <time>2019-11-24T17:10:08Z</time>
      </trkpt>
      <trkpt lat="43.435524" lon="-5.846038">
        <ele>172.4</ele>
        <time>2019-11-24T17:10:09Z</time>
      </trkpt>
      <trkpt lat="43.435479" lon="-5.84597">
        <ele>172</ele>
        <time>2019-11-24T17:10:10Z</time>
      </trkpt>
      <trkpt lat="43.435431" lon="-5.8459">
        <ele>172</ele>
        <time>2019-11-24T17:10:11Z</time>
      </trkpt>
      <trkpt lat="43.435382" lon="-5.845831">
        <ele>171.4</ele>
        <time>2019-11-24T17:10:12Z</time>
      </trkpt>
      <trkpt lat="43.435329" lon="-5.845761">
        <ele>171.2</ele>
        <time>2019-11-24T17:10:13Z</time>
      </trkpt>
      <trkpt lat="43.435277" lon="-5.845689">
        <ele>170.8</ele>
        <time>2019-11-24T17:10:14Z</time>
      </trkpt>
      <trkpt lat="43.435224" lon="-5.845616">
        <ele>171</ele>
        <time>2019-11-24T17:10:15Z</time>
      </trkpt>
      <trkpt lat="43.43517" lon="-5.845542">
        <ele>170.6</ele>
        <time>2019-11-24T17:10:16Z</time>
      </trkpt>
      <trkpt lat="43.435115" lon="-5.845468">
        <ele>170.2</ele>
        <time>2019-11-24T17:10:17Z</time>
      </trkpt>
      <trkpt lat="43.435058" lon="-5.845394">
        <ele>169.6</ele>
        <time>2019-11-24T17:10:18Z</time>
      </trkpt>
      <trkpt lat="43.435002" lon="-5.845319">
        <ele>169.8</ele>
        <time>2019-11-24T17:10:19Z</time>
      </trkpt>
      <trkpt lat="43.434947" lon="-5.845246">
        <ele>169.4</ele>
        <time>2019-11-24T17:10:20Z</time>
      </trkpt>
      <trkpt lat="43.434892" lon="-5.845172">
        <ele>169.4</ele>
        <time>2019-11-24T17:10:21Z</time>
      </trkpt>
      <trkpt lat="43.434838" lon="-5.845098">
        <ele>168.8</ele>
        <time>2019-11-24T17:10:22Z</time>
      </trkpt>
      <trkpt lat="43.434782" lon="-5.845026">
        <ele>169</ele>
        <time>2019-11-24T17:10:23Z</time>
      </trkpt>
      <trkpt lat="43.434726" lon="-5.844953">
        <ele>168.8</ele>
        <time>2019-11-24T17:10:24Z</time>
      </trkpt>
      <trkpt lat="43.434671" lon="-5.844878">
        <ele>168.8</ele>
        <time>2019-11-24T17:10:25Z</time>
      </trkpt>
      <trkpt lat="43.434616" lon="-5.844803">
        <ele>168.4</ele>
        <time>2019-11-24T17:10:26Z</time>
      </trkpt>
      <trkpt lat="43.434561" lon="-5.844731">
        <ele>168</ele>
        <time>2019-11-24T17:10:27Z</time>
      </trkpt>
      <trkpt lat="43.434505" lon="-5.844659">
        <ele>168</ele>
        <time>2019-11-24T17:10:28Z</time>
      </trkpt>
      <trkpt lat="43.434451" lon="-5.844585">
        <ele>167.8</ele>
        <time>2019-11-24T17:10:29Z</time>
      </trkpt>
      <trkpt lat="43.434396" lon="-5.844513">
        <ele>167.6</ele>
        <time>2019-11-24T17:10:30Z</time>
      </trkpt>
      <trkpt lat="43.43434" lon="-5.84444">
        <ele>167.4</ele>
        <time>2019-11-24T17:10:31Z</time>
      </trkpt>
      <trkpt lat="43.434285" lon="-5.844367">
        <ele>167.2</ele>
        <time>2019-11-24T17:10:32Z</time>
      </trkpt>
      <trkpt lat="43.434229" lon="-5.844295">
        <ele>167.6</ele>
        <time>2019-11-24T17:10:33Z</time>
      </trkpt>
      <trkpt lat="43.434174" lon="-5.844223">
        <ele>167.4</ele>
        <time>2019-11-24T17:10:34Z</time>
      </trkpt>
      <trkpt lat="43.434119" lon="-5.844148">
        <ele>167</ele>
        <time>2019-11-24T17:10:35Z</time>
      </trkpt>
      <trkpt lat="43.434064" lon="-5.844074">
        <ele>167</ele>
        <time>2019-11-24T17:10:36Z</time>
      </trkpt>
      <trkpt lat="43.434009" lon="-5.844">
        <ele>166.6</ele>
        <time>2019-11-24T17:10:37Z</time>
      </trkpt>
      <trkpt lat="43.433953" lon="-5.843926">
        <ele>166.8</ele>
        <time>2019-11-24T17:10:38Z</time>
      </trkpt>
      <trkpt lat="43.433897" lon="-5.843851">
        <ele>166.6</ele>
        <time>2019-11-24T17:10:39Z</time>
      </trkpt>
      <trkpt lat="43.43384" lon="-5.843777">
        <ele>166.4</ele>
        <time>2019-11-24T17:10:40Z</time>
      </trkpt>
      <trkpt lat="43.433783" lon="-5.843701">
        <ele>166.6</ele>
        <time>2019-11-24T17:10:41Z</time>
      </trkpt>
      <trkpt lat="43.433726" lon="-5.843624">
        <ele>166.4</ele>
        <time>2019-11-24T17:10:42Z</time>
      </trkpt>
      <trkpt lat="43.433669" lon="-5.843547">
        <ele>166</ele>
        <time>2019-11-24T17:10:43Z</time>
      </trkpt>
      <trkpt lat="43.433611" lon="-5.843469">
        <ele>166</ele>
        <time>2019-11-24T17:10:44Z</time>
      </trkpt>
      <trkpt lat="43.433554" lon="-5.84339">
        <ele>165.4</ele>
        <time>2019-11-24T17:10:45Z</time>
      </trkpt>
      <trkpt lat="43.433495" lon="-5.843311">
        <ele>165.6</ele>
        <time>2019-11-24T17:10:46Z</time>
      </trkpt>
      <trkpt lat="43.433437" lon="-5.843233">
        <ele>165.8</ele>
        <time>2019-11-24T17:10:47Z</time>
      </trkpt>
      <trkpt lat="43.433378" lon="-5.843155">
        <ele>165.4</ele>
        <time>2019-11-24T17:10:48Z</time>
      </trkpt>
      <trkpt lat="43.43332" lon="-5.843077">
        <ele>165.4</ele>
        <time>2019-11-24T17:10:49Z</time>
      </trkpt>
      <trkpt lat="43.433263" lon="-5.843">
        <ele>165.2</ele>
        <time>2019-11-24T17:10:50Z</time>
      </trkpt>
      <trkpt lat="43.433205" lon="-5.842924">
        <ele>164.6</ele>
        <time>2019-11-24T17:10:51Z</time>
      </trkpt>
      <trkpt lat="43.433149" lon="-5.842847">
        <ele>164.2</ele>
        <time>2019-11-24T17:10:52Z</time>
      </trkpt>
      <trkpt lat="43.433094" lon="-5.842771">
        <ele>164.6</ele>
        <time>2019-11-24T17:10:53Z</time>
      </trkpt>
      <trkpt lat="43.433036" lon="-5.842693">
        <ele>164.4</ele>
        <time>2019-11-24T17:10:54Z</time>
      </trkpt>
      <trkpt lat="43.432978" lon="-5.842616">
        <ele>164.6</ele>
        <time>2019-11-24T17:10:55Z</time>
      </trkpt>
      <trkpt lat="43.43292" lon="-5.84254">
        <ele>164.2</ele>
        <time>2019-11-24T17:10:56Z</time>
      </trkpt>
      <trkpt lat="43.432863" lon="-5.842465">
        <ele>163.8</ele>
        <time>2019-11-24T17:10:57Z</time>
      </trkpt>
      <trkpt lat="43.432806" lon="-5.842389">
        <ele>163</ele>
        <time>2019-11-24T17:10:58Z</time>
      </trkpt>
      <trkpt lat="43.432748" lon="-5.842312">
        <ele>163.4</ele>
        <time>2019-11-24T17:10:59Z</time>
      </trkpt>
      <trkpt lat="43.432688" lon="-5.842233">
        <ele>163.2</ele>
        <time>2019-11-24T17:11:00Z</time>
      </trkpt>
      <trkpt lat="43.432629" lon="-5.842152">
        <ele>162.8</ele>
        <time>2019-11-24T17:11:01Z</time>
      </trkpt>
      <trkpt lat="43.432569" lon="-5.842071">
        <ele>161.6</ele>
        <time>2019-11-24T17:11:02Z</time>
      </trkpt>
      <trkpt lat="43.43251" lon="-5.84199">
        <ele>162.8</ele>
        <time>2019-11-24T17:11:03Z</time>
      </trkpt>
      <trkpt lat="43.43245" lon="-5.84191">
        <ele>162.2</ele>
        <time>2019-11-24T17:11:04Z</time>
      </trkpt>
      <trkpt lat="43.432391" lon="-5.841831">
        <ele>161.6</ele>
        <time>2019-11-24T17:11:05Z</time>
      </trkpt>
      <trkpt lat="43.432332" lon="-5.841752">
        <ele>161.6</ele>
        <time>2019-11-24T17:11:06Z</time>
      </trkpt>
      <trkpt lat="43.432274" lon="-5.841674">
        <ele>162.2</ele>
        <time>2019-11-24T17:11:07Z</time>
      </trkpt>
      <trkpt lat="43.432218" lon="-5.841597">
        <ele>162</ele>
        <time>2019-11-24T17:11:08Z</time>
      </trkpt>
      <trkpt lat="43.43216" lon="-5.841519">
        <ele>163.2</ele>
        <time>2019-11-24T17:11:09Z</time>
      </trkpt>
      <trkpt lat="43.432103" lon="-5.841443">
        <ele>161.4</ele>
        <time>2019-11-24T17:11:10Z</time>
      </trkpt>
      <trkpt lat="43.432045" lon="-5.841366">
        <ele>162</ele>
        <time>2019-11-24T17:11:11Z</time>
      </trkpt>
      <trkpt lat="43.431987" lon="-5.841289">
        <ele>162.2</ele>
        <time>2019-11-24T17:11:12Z</time>
      </trkpt>
      <trkpt lat="43.431928" lon="-5.841212">
        <ele>162.4</ele>
        <time>2019-11-24T17:11:13Z</time>
      </trkpt>
      <trkpt lat="43.43187" lon="-5.841135">
        <ele>161.6</ele>
        <time>2019-11-24T17:11:14Z</time>
      </trkpt>
      <trkpt lat="43.431812" lon="-5.841057">
        <ele>161.8</ele>
        <time>2019-11-24T17:11:15Z</time>
      </trkpt>
      <trkpt lat="43.431754" lon="-5.840979">
        <ele>161.8</ele>
        <time>2019-11-24T17:11:16Z</time>
      </trkpt>
      <trkpt lat="43.431697" lon="-5.840902">
        <ele>161.8</ele>
        <time>2019-11-24T17:11:17Z</time>
      </trkpt>
      <trkpt lat="43.43164" lon="-5.840825">
        <ele>161.6</ele>
        <time>2019-11-24T17:11:18Z</time>
      </trkpt>
      <trkpt lat="43.431581" lon="-5.840749">
        <ele>161.4</ele>
        <time>2019-11-24T17:11:19Z</time>
      </trkpt>
      <trkpt lat="43.431523" lon="-5.840672">
        <ele>161.2</ele>
        <time>2019-11-24T17:11:20Z</time>
      </trkpt>
      <trkpt lat="43.431465" lon="-5.840596">
        <ele>161.2</ele>
        <time>2019-11-24T17:11:21Z</time>
      </trkpt>
      <trkpt lat="43.431408" lon="-5.840518">
        <ele>161</ele>
        <time>2019-11-24T17:11:22Z</time>
      </trkpt>
      <trkpt lat="43.43135" lon="-5.840439">
        <ele>160.8</ele>
        <time>2019-11-24T17:11:23Z</time>
      </trkpt>
      <trkpt lat="43.431294" lon="-5.840361">
        <ele>161.2</ele>
        <time>2019-11-24T17:11:24Z</time>
      </trkpt>
      <trkpt lat="43.431236" lon="-5.840283">
        <ele>161.2</ele>
        <time>2019-11-24T17:11:25Z</time>
      </trkpt>
      <trkpt lat="43.431177" lon="-5.840206">
        <ele>160.8</ele>
        <time>2019-11-24T17:11:26Z</time>
      </trkpt>
      <trkpt lat="43.431118" lon="-5.840129">
        <ele>160.8</ele>
        <time>2019-11-24T17:11:27Z</time>
      </trkpt>
      <trkpt lat="43.43106" lon="-5.840052">
        <ele>161</ele>
        <time>2019-11-24T17:11:28Z</time>
      </trkpt>
      <trkpt lat="43.431" lon="-5.839974">
        <ele>160.8</ele>
        <time>2019-11-24T17:11:29Z</time>
      </trkpt>
      <trkpt lat="43.430941" lon="-5.839896">
        <ele>160.4</ele>
        <time>2019-11-24T17:11:30Z</time>
      </trkpt>
      <trkpt lat="43.430882" lon="-5.839816">
        <ele>160.2</ele>
        <time>2019-11-24T17:11:31Z</time>
      </trkpt>
      <trkpt lat="43.430822" lon="-5.839737">
        <ele>160.6</ele>
        <time>2019-11-24T17:11:32Z</time>
      </trkpt>
      <trkpt lat="43.430763" lon="-5.839659">
        <ele>160.6</ele>
        <time>2019-11-24T17:11:33Z</time>
      </trkpt>
      <trkpt lat="43.430704" lon="-5.839581">
        <ele>160.8</ele>
        <time>2019-11-24T17:11:34Z</time>
      </trkpt>
      <trkpt lat="43.430646" lon="-5.839503">
        <ele>160.6</ele>
        <time>2019-11-24T17:11:35Z</time>
      </trkpt>
      <trkpt lat="43.430588" lon="-5.839427">
        <ele>161</ele>
        <time>2019-11-24T17:11:36Z</time>
      </trkpt>
      <trkpt lat="43.43053" lon="-5.83935">
        <ele>160.6</ele>
        <time>2019-11-24T17:11:37Z</time>
      </trkpt>
      <trkpt lat="43.430471" lon="-5.839273">
        <ele>161.2</ele>
        <time>2019-11-24T17:11:38Z</time>
      </trkpt>
      <trkpt lat="43.430413" lon="-5.839198">
        <ele>161</ele>
        <time>2019-11-24T17:11:39Z</time>
      </trkpt>
      <trkpt lat="43.430354" lon="-5.839122">
        <ele>160.6</ele>
        <time>2019-11-24T17:11:40Z</time>
      </trkpt>
      <trkpt lat="43.430297" lon="-5.839046">
        <ele>160.4</ele>
        <time>2019-11-24T17:11:41Z</time>
      </trkpt>
      <trkpt lat="43.43024" lon="-5.83897">
        <ele>160.6</ele>
        <time>2019-11-24T17:11:42Z</time>
      </trkpt>
      <trkpt lat="43.430184" lon="-5.838895">
        <ele>160.4</ele>
        <time>2019-11-24T17:11:43Z</time>
      </trkpt>
      <trkpt lat="43.430129" lon="-5.838818">
        <ele>160.4</ele>
        <time>2019-11-24T17:11:44Z</time>
      </trkpt>
      <trkpt lat="43.430073" lon="-5.838743">
        <ele>160.6</ele>
        <time>2019-11-24T17:11:45Z</time>
      </trkpt>
      <trkpt lat="43.430018" lon="-5.838669">
        <ele>160.8</ele>
        <time>2019-11-24T17:11:46Z</time>
      </trkpt>
      <trkpt lat="43.429964" lon="-5.838595">
        <ele>161</ele>
        <time>2019-11-24T17:11:47Z</time>
      </trkpt>
      <trkpt lat="43.429908" lon="-5.838522">
        <ele>161.4</ele>
        <time>2019-11-24T17:11:48Z</time>
      </trkpt>
      <trkpt lat="43.429854" lon="-5.838449">
        <ele>161.6</ele>
        <time>2019-11-24T17:11:49Z</time>
      </trkpt>
      <trkpt lat="43.429799" lon="-5.838376">
        <ele>161</ele>
        <time>2019-11-24T17:11:50Z</time>
      </trkpt>
      <trkpt lat="43.429744" lon="-5.838303">
        <ele>161.4</ele>
        <time>2019-11-24T17:11:51Z</time>
      </trkpt>
      <trkpt lat="43.429689" lon="-5.838231">
        <ele>161.6</ele>
        <time>2019-11-24T17:11:52Z</time>
      </trkpt>
      <trkpt lat="43.429635" lon="-5.838159">
        <ele>161.8</ele>
        <time>2019-11-24T17:11:53Z</time>
      </trkpt>
      <trkpt lat="43.429581" lon="-5.838087">
        <ele>162</ele>
        <time>2019-11-24T17:11:54Z</time>
      </trkpt>
      <trkpt lat="43.429526" lon="-5.838015">
        <ele>161.6</ele>
        <time>2019-11-24T17:11:55Z</time>
      </trkpt>
      <trkpt lat="43.429472" lon="-5.837945">
        <ele>161.8</ele>
        <time>2019-11-24T17:11:56Z</time>
      </trkpt>
      <trkpt lat="43.429419" lon="-5.837875">
        <ele>162.2</ele>
        <time>2019-11-24T17:11:57Z</time>
      </trkpt>
      <trkpt lat="43.429365" lon="-5.837806">
        <ele>162.4</ele>
        <time>2019-11-24T17:11:58Z</time>
      </trkpt>
      <trkpt lat="43.429312" lon="-5.837736">
        <ele>162.2</ele>
        <time>2019-11-24T17:11:59Z</time>
      </trkpt>
      <trkpt lat="43.429258" lon="-5.837666">
        <ele>162.4</ele>
        <time>2019-11-24T17:12:00Z</time>
      </trkpt>
      <trkpt lat="43.429204" lon="-5.837597">
        <ele>162.2</ele>
        <time>2019-11-24T17:12:01Z</time>
      </trkpt>
      <trkpt lat="43.42915" lon="-5.837528">
        <ele>162.4</ele>
        <time>2019-11-24T17:12:02Z</time>
      </trkpt>
      <trkpt lat="43.429096" lon="-5.837458">
        <ele>162.8</ele>
        <time>2019-11-24T17:12:03Z</time>
      </trkpt>
      <trkpt lat="43.429041" lon="-5.837389">
        <ele>162.4</ele>
        <time>2019-11-24T17:12:04Z</time>
      </trkpt>
      <trkpt lat="43.428986" lon="-5.837319">
        <ele>163</ele>
        <time>2019-11-24T17:12:05Z</time>
      </trkpt>
      <trkpt lat="43.428932" lon="-5.837249">
        <ele>163</ele>
        <time>2019-11-24T17:12:06Z</time>
      </trkpt>
      <trkpt lat="43.428878" lon="-5.837179">
        <ele>162.4</ele>
        <time>2019-11-24T17:12:07Z</time>
      </trkpt>
      <trkpt lat="43.428824" lon="-5.83711">
        <ele>163</ele>
        <time>2019-11-24T17:12:08Z</time>
      </trkpt>
      <trkpt lat="43.42877" lon="-5.837041">
        <ele>163.2</ele>
        <time>2019-11-24T17:12:09Z</time>
      </trkpt>
      <trkpt lat="43.428716" lon="-5.836971">
        <ele>163.2</ele>
        <time>2019-11-24T17:12:10Z</time>
      </trkpt>
      <trkpt lat="43.428662" lon="-5.836901">
        <ele>163.4</ele>
        <time>2019-11-24T17:12:11Z</time>
      </trkpt>
      <trkpt lat="43.428609" lon="-5.83683">
        <ele>163</ele>
        <time>2019-11-24T17:12:12Z</time>
      </trkpt>
      <trkpt lat="43.428556" lon="-5.836759">
        <ele>163.2</ele>
        <time>2019-11-24T17:12:13Z</time>
      </trkpt>
      <trkpt lat="43.428503" lon="-5.836688">
        <ele>163.2</ele>
        <time>2019-11-24T17:12:14Z</time>
      </trkpt>
      <trkpt lat="43.428449" lon="-5.836617">
        <ele>163.4</ele>
        <time>2019-11-24T17:12:15Z</time>
      </trkpt>
      <trkpt lat="43.428396" lon="-5.836547">
        <ele>163.2</ele>
        <time>2019-11-24T17:12:16Z</time>
      </trkpt>
      <trkpt lat="43.428344" lon="-5.836476">
        <ele>164</ele>
        <time>2019-11-24T17:12:17Z</time>
      </trkpt>
      <trkpt lat="43.428292" lon="-5.836405">
        <ele>163.6</ele>
        <time>2019-11-24T17:12:18Z</time>
      </trkpt>
      <trkpt lat="43.428239" lon="-5.836333">
        <ele>164</ele>
        <time>2019-11-24T17:12:19Z</time>
      </trkpt>
      <trkpt lat="43.428186" lon="-5.836262">
        <ele>163.2</ele>
        <time>2019-11-24T17:12:20Z</time>
      </trkpt>
      <trkpt lat="43.428133" lon="-5.836191">
        <ele>163.2</ele>
        <time>2019-11-24T17:12:21Z</time>
      </trkpt>
      <trkpt lat="43.428081" lon="-5.83612">
        <ele>163.2</ele>
        <time>2019-11-24T17:12:22Z</time>
      </trkpt>
      <trkpt lat="43.42803" lon="-5.836048">
        <ele>163.2</ele>
        <time>2019-11-24T17:12:23Z</time>
      </trkpt>
      <trkpt lat="43.427978" lon="-5.835976">
        <ele>163.4</ele>
        <time>2019-11-24T17:12:24Z</time>
      </trkpt>
      <trkpt lat="43.427927" lon="-5.835902">
        <ele>164.2</ele>
        <time>2019-11-24T17:12:25Z</time>
      </trkpt>
      <trkpt lat="43.427876" lon="-5.835828">
        <ele>163.8</ele>
        <time>2019-11-24T17:12:26Z</time>
      </trkpt>
      <trkpt lat="43.427826" lon="-5.835753">
        <ele>163.6</ele>
        <time>2019-11-24T17:12:27Z</time>
      </trkpt>
      <trkpt lat="43.427775" lon="-5.835679">
        <ele>162.8</ele>
        <time>2019-11-24T17:12:28Z</time>
      </trkpt>
      <trkpt lat="43.427724" lon="-5.835605">
        <ele>163.2</ele>
        <time>2019-11-24T17:12:29Z</time>
      </trkpt>
      <trkpt lat="43.427674" lon="-5.835531">
        <ele>163.4</ele>
        <time>2019-11-24T17:12:30Z</time>
      </trkpt>
      <trkpt lat="43.427624" lon="-5.835456">
        <ele>164</ele>
        <time>2019-11-24T17:12:31Z</time>
      </trkpt>
      <trkpt lat="43.427574" lon="-5.83538">
        <ele>163.2</ele>
        <time>2019-11-24T17:12:32Z</time>
      </trkpt>
      <trkpt lat="43.427525" lon="-5.835307">
        <ele>163.6</ele>
        <time>2019-11-24T17:12:33Z</time>
      </trkpt>
      <trkpt lat="43.427474" lon="-5.835233">
        <ele>163.6</ele>
        <time>2019-11-24T17:12:34Z</time>
      </trkpt>
      <trkpt lat="43.427422" lon="-5.83516">
        <ele>164</ele>
        <time>2019-11-24T17:12:35Z</time>
      </trkpt>
      <trkpt lat="43.427368" lon="-5.835089">
        <ele>164.4</ele>
        <time>2019-11-24T17:12:36Z</time>
      </trkpt>
      <trkpt lat="43.427314" lon="-5.83502">
        <ele>164.2</ele>
        <time>2019-11-24T17:12:37Z</time>
      </trkpt>
      <trkpt lat="43.427259" lon="-5.834951">
        <ele>164.8</ele>
        <time>2019-11-24T17:12:38Z</time>
      </trkpt>
      <trkpt lat="43.427204" lon="-5.834883">
        <ele>164.2</ele>
        <time>2019-11-24T17:12:39Z</time>
      </trkpt>
      <trkpt lat="43.427149" lon="-5.834814">
        <ele>164.4</ele>
        <time>2019-11-24T17:12:40Z</time>
      </trkpt>
      <trkpt lat="43.427094" lon="-5.834746">
        <ele>164.6</ele>
        <time>2019-11-24T17:12:41Z</time>
      </trkpt>
      <trkpt lat="43.427038" lon="-5.834679">
        <ele>164.2</ele>
        <time>2019-11-24T17:12:42Z</time>
      </trkpt>
      <trkpt lat="43.426982" lon="-5.83461">
        <ele>164.6</ele>
        <time>2019-11-24T17:12:43Z</time>
      </trkpt>
      <trkpt lat="43.426926" lon="-5.834541">
        <ele>164.2</ele>
        <time>2019-11-24T17:12:44Z</time>
      </trkpt>
      <trkpt lat="43.42687" lon="-5.834473">
        <ele>164</ele>
        <time>2019-11-24T17:12:45Z</time>
      </trkpt>
      <trkpt lat="43.426814" lon="-5.834405">
        <ele>163.8</ele>
        <time>2019-11-24T17:12:46Z</time>
      </trkpt>
      <trkpt lat="43.426758" lon="-5.834336">
        <ele>164</ele>
        <time>2019-11-24T17:12:47Z</time>
      </trkpt>
      <trkpt lat="43.426701" lon="-5.834268">
        <ele>164.2</ele>
        <time>2019-11-24T17:12:48Z</time>
      </trkpt>
      <trkpt lat="43.426645" lon="-5.8342">
        <ele>164.2</ele>
        <time>2019-11-24T17:12:49Z</time>
      </trkpt>
      <trkpt lat="43.426589" lon="-5.834133">
        <ele>164.4</ele>
        <time>2019-11-24T17:12:50Z</time>
      </trkpt>
      <trkpt lat="43.426534" lon="-5.834067">
        <ele>164.6</ele>
        <time>2019-11-24T17:12:51Z</time>
      </trkpt>
      <trkpt lat="43.42648" lon="-5.834002">
        <ele>164.4</ele>
        <time>2019-11-24T17:12:52Z</time>
      </trkpt>
      <trkpt lat="43.426427" lon="-5.833939">
        <ele>165.2</ele>
        <time>2019-11-24T17:12:53Z</time>
      </trkpt>
      <trkpt lat="43.426374" lon="-5.833877">
        <ele>165.4</ele>
        <time>2019-11-24T17:12:54Z</time>
      </trkpt>
      <trkpt lat="43.426322" lon="-5.833818">
        <ele>165.6</ele>
        <time>2019-11-24T17:12:55Z</time>
      </trkpt>
      <trkpt lat="43.426273" lon="-5.833761">
        <ele>165.8</ele>
        <time>2019-11-24T17:12:56Z</time>
      </trkpt>
      <trkpt lat="43.426226" lon="-5.833704">
        <ele>166.4</ele>
        <time>2019-11-24T17:12:57Z</time>
      </trkpt>
      <trkpt lat="43.42618" lon="-5.83365">
        <ele>167</ele>
        <time>2019-11-24T17:12:58Z</time>
      </trkpt>
      <trkpt lat="43.426134" lon="-5.833596">
        <ele>167.6</ele>
        <time>2019-11-24T17:12:59Z</time>
      </trkpt>
      <trkpt lat="43.426089" lon="-5.833543">
        <ele>167.8</ele>
        <time>2019-11-24T17:13:00Z</time>
      </trkpt>
      <trkpt lat="43.426044" lon="-5.833491">
        <ele>168.4</ele>
        <time>2019-11-24T17:13:01Z</time>
      </trkpt>
      <trkpt lat="43.426" lon="-5.833439">
        <ele>169.2</ele>
        <time>2019-11-24T17:13:02Z</time>
      </trkpt>
      <trkpt lat="43.425958" lon="-5.833389">
        <ele>169.6</ele>
        <time>2019-11-24T17:13:03Z</time>
      </trkpt>
      <trkpt lat="43.425916" lon="-5.83334">
        <ele>170</ele>
        <time>2019-11-24T17:13:04Z</time>
      </trkpt>
      <trkpt lat="43.425875" lon="-5.833292">
        <ele>170.4</ele>
        <time>2019-11-24T17:13:05Z</time>
      </trkpt>
      <trkpt lat="43.425836" lon="-5.833246">
        <ele>170.8</ele>
        <time>2019-11-24T17:13:06Z</time>
      </trkpt>
      <trkpt lat="43.425797" lon="-5.833202">
        <ele>171.2</ele>
        <time>2019-11-24T17:13:07Z</time>
      </trkpt>
      <trkpt lat="43.425759" lon="-5.833159">
        <ele>171.8</ele>
        <time>2019-11-24T17:13:08Z</time>
      </trkpt>
      <trkpt lat="43.425724" lon="-5.833118">
        <ele>172.4</ele>
        <time>2019-11-24T17:13:09Z</time>
      </trkpt>
      <trkpt lat="43.425689" lon="-5.833076">
        <ele>172.6</ele>
        <time>2019-11-24T17:13:10Z</time>
      </trkpt>
      <trkpt lat="43.425653" lon="-5.833035">
        <ele>173</ele>
        <time>2019-11-24T17:13:11Z</time>
      </trkpt>
      <trkpt lat="43.425618" lon="-5.832993">
        <ele>173.4</ele>
        <time>2019-11-24T17:13:12Z</time>
      </trkpt>
      <trkpt lat="43.425581" lon="-5.832953">
        <ele>173.6</ele>
        <time>2019-11-24T17:13:13Z</time>
      </trkpt>
      <trkpt lat="43.425542" lon="-5.832914">
        <ele>173.8</ele>
        <time>2019-11-24T17:13:14Z</time>
      </trkpt>
      <trkpt lat="43.425501" lon="-5.832879">
        <ele>174</ele>
        <time>2019-11-24T17:13:15Z</time>
      </trkpt>
      <trkpt lat="43.42546" lon="-5.832851">
        <ele>173.8</ele>
        <time>2019-11-24T17:13:16Z</time>
      </trkpt>
      <trkpt lat="43.425418" lon="-5.832835">
        <ele>173.8</ele>
        <time>2019-11-24T17:13:17Z</time>
      </trkpt>
      <trkpt lat="43.425372" lon="-5.832833">
        <ele>174</ele>
        <time>2019-11-24T17:13:18Z</time>
      </trkpt>
      <trkpt lat="43.425327" lon="-5.832843">
        <ele>174.4</ele>
        <time>2019-11-24T17:13:19Z</time>
      </trkpt>
      <trkpt lat="43.425283" lon="-5.832863">
        <ele>174.4</ele>
        <time>2019-11-24T17:13:20Z</time>
      </trkpt>
      <trkpt lat="43.425242" lon="-5.832892">
        <ele>174.4</ele>
        <time>2019-11-24T17:13:21Z</time>
      </trkpt>
      <trkpt lat="43.425204" lon="-5.832926">
        <ele>174</ele>
        <time>2019-11-24T17:13:22Z</time>
      </trkpt>
      <trkpt lat="43.425168" lon="-5.832965">
        <ele>174.2</ele>
        <time>2019-11-24T17:13:23Z</time>
      </trkpt>
      <trkpt lat="43.425132" lon="-5.833006">
        <ele>174.4</ele>
        <time>2019-11-24T17:13:24Z</time>
      </trkpt>
      <trkpt lat="43.425095" lon="-5.833045">
        <ele>174.6</ele>
        <time>2019-11-24T17:13:25Z</time>
      </trkpt>
      <trkpt lat="43.425059" lon="-5.833086">
        <ele>174.4</ele>
        <time>2019-11-24T17:13:26Z</time>
      </trkpt>
      <trkpt lat="43.425023" lon="-5.833126">
        <ele>175</ele>
        <time>2019-11-24T17:13:27Z</time>
      </trkpt>
      <trkpt lat="43.424987" lon="-5.833165">
        <ele>174.6</ele>
        <time>2019-11-24T17:13:28Z</time>
      </trkpt>
      <trkpt lat="43.424952" lon="-5.833206">
        <ele>173.2</ele>
        <time>2019-11-24T17:13:29Z</time>
      </trkpt>
      <trkpt lat="43.424916" lon="-5.833244">
        <ele>174.6</ele>
        <time>2019-11-24T17:13:30Z</time>
      </trkpt>
      <trkpt lat="43.424876" lon="-5.833273">
        <ele>174.8</ele>
        <time>2019-11-24T17:13:31Z</time>
      </trkpt>
      <trkpt lat="43.424833" lon="-5.833287">
        <ele>175.4</ele>
        <time>2019-11-24T17:13:32Z</time>
      </trkpt>
      <trkpt lat="43.42479" lon="-5.8333">
        <ele>175.2</ele>
        <time>2019-11-24T17:13:33Z</time>
      </trkpt>
      <trkpt lat="43.424753" lon="-5.833292">
        <ele>174.4</ele>
        <time>2019-11-24T17:13:34Z</time>
      </trkpt>
      <trkpt lat="43.42472" lon="-5.833257">
        <ele>174.4</ele>
        <time>2019-11-24T17:13:35Z</time>
      </trkpt>
      <trkpt lat="43.424696" lon="-5.833197">
        <ele>174.8</ele>
        <time>2019-11-24T17:13:36Z</time>
      </trkpt>
      <trkpt lat="43.424679" lon="-5.833124">
        <ele>175</ele>
        <time>2019-11-24T17:13:37Z</time>
      </trkpt>
      <trkpt lat="43.42467" lon="-5.833045">
        <ele>175</ele>
        <time>2019-11-24T17:13:38Z</time>
      </trkpt>
      <trkpt lat="43.424665" lon="-5.832962">
        <ele>174.8</ele>
        <time>2019-11-24T17:13:39Z</time>
      </trkpt>
      <trkpt lat="43.424661" lon="-5.832876">
        <ele>174.8</ele>
        <time>2019-11-24T17:13:40Z</time>
      </trkpt>
      <trkpt lat="43.424658" lon="-5.83279">
        <ele>174.8</ele>
        <time>2019-11-24T17:13:41Z</time>
      </trkpt>
      <trkpt lat="43.424657" lon="-5.832703">
        <ele>174.4</ele>
        <time>2019-11-24T17:13:42Z</time>
      </trkpt>
      <trkpt lat="43.424655" lon="-5.832611">
        <ele>174.4</ele>
        <time>2019-11-24T17:13:43Z</time>
      </trkpt>
      <trkpt lat="43.424653" lon="-5.832517">
        <ele>174</ele>
        <time>2019-11-24T17:13:44Z</time>
      </trkpt>
      <trkpt lat="43.424651" lon="-5.832422">
        <ele>173.8</ele>
        <time>2019-11-24T17:13:45Z</time>
      </trkpt>
      <trkpt lat="43.42465" lon="-5.832326">
        <ele>173.8</ele>
        <time>2019-11-24T17:13:46Z</time>
      </trkpt>
      <trkpt lat="43.424649" lon="-5.832227">
        <ele>173.6</ele>
        <time>2019-11-24T17:13:47Z</time>
      </trkpt>
      <trkpt lat="43.424648" lon="-5.832126">
        <ele>173.2</ele>
        <time>2019-11-24T17:13:48Z</time>
      </trkpt>
      <trkpt lat="43.424644" lon="-5.832024">
        <ele>173</ele>
        <time>2019-11-24T17:13:49Z</time>
      </trkpt>
      <trkpt lat="43.424637" lon="-5.831923">
        <ele>172.6</ele>
        <time>2019-11-24T17:13:50Z</time>
      </trkpt>
      <trkpt lat="43.424625" lon="-5.831824">
        <ele>172.6</ele>
        <time>2019-11-24T17:13:51Z</time>
      </trkpt>
      <trkpt lat="43.424605" lon="-5.831724">
        <ele>172.4</ele>
        <time>2019-11-24T17:13:52Z</time>
      </trkpt>
      <trkpt lat="43.424579" lon="-5.831627">
        <ele>172.4</ele>
        <time>2019-11-24T17:13:53Z</time>
      </trkpt>
      <trkpt lat="43.424544" lon="-5.831533">
        <ele>172.2</ele>
        <time>2019-11-24T17:13:54Z</time>
      </trkpt>
      <trkpt lat="43.424504" lon="-5.831447">
        <ele>172</ele>
        <time>2019-11-24T17:13:55Z</time>
      </trkpt>
      <trkpt lat="43.424457" lon="-5.831365">
        <ele>171.8</ele>
        <time>2019-11-24T17:13:56Z</time>
      </trkpt>
      <trkpt lat="43.424406" lon="-5.831288">
        <ele>172</ele>
        <time>2019-11-24T17:13:57Z</time>
      </trkpt>
      <trkpt lat="43.424356" lon="-5.831215">
        <ele>171</ele>
        <time>2019-11-24T17:13:58Z</time>
      </trkpt>
      <trkpt lat="43.424306" lon="-5.831143">
        <ele>171</ele>
        <time>2019-11-24T17:13:59Z</time>
      </trkpt>
      <trkpt lat="43.424256" lon="-5.831073">
        <ele>171.2</ele>
        <time>2019-11-24T17:14:00Z</time>
      </trkpt>
      <trkpt lat="43.424207" lon="-5.831003">
        <ele>171</ele>
        <time>2019-11-24T17:14:01Z</time>
      </trkpt>
      <trkpt lat="43.424155" lon="-5.830933">
        <ele>171.2</ele>
        <time>2019-11-24T17:14:02Z</time>
      </trkpt>
      <trkpt lat="43.424103" lon="-5.830863">
        <ele>171.2</ele>
        <time>2019-11-24T17:14:03Z</time>
      </trkpt>
      <trkpt lat="43.424054" lon="-5.830792">
        <ele>171.4</ele>
        <time>2019-11-24T17:14:04Z</time>
      </trkpt>
      <trkpt lat="43.424004" lon="-5.830721">
        <ele>171.4</ele>
        <time>2019-11-24T17:14:05Z</time>
      </trkpt>
      <trkpt lat="43.423955" lon="-5.83065">
        <ele>171.4</ele>
        <time>2019-11-24T17:14:06Z</time>
      </trkpt>
      <trkpt lat="43.423906" lon="-5.83058">
        <ele>171.6</ele>
        <time>2019-11-24T17:14:07Z</time>
      </trkpt>
      <trkpt lat="43.423857" lon="-5.830509">
        <ele>171.4</ele>
        <time>2019-11-24T17:14:08Z</time>
      </trkpt>
      <trkpt lat="43.423808" lon="-5.830438">
        <ele>171.6</ele>
        <time>2019-11-24T17:14:09Z</time>
      </trkpt>
      <trkpt lat="43.423759" lon="-5.830366">
        <ele>171.8</ele>
        <time>2019-11-24T17:14:10Z</time>
      </trkpt>
      <trkpt lat="43.423709" lon="-5.830294">
        <ele>172</ele>
        <time>2019-11-24T17:14:11Z</time>
      </trkpt>
      <trkpt lat="43.423658" lon="-5.830222">
        <ele>172</ele>
        <time>2019-11-24T17:14:12Z</time>
      </trkpt>
      <trkpt lat="43.423608" lon="-5.830149">
        <ele>171.6</ele>
        <time>2019-11-24T17:14:13Z</time>
      </trkpt>
      <trkpt lat="43.423558" lon="-5.830075">
        <ele>171.8</ele>
        <time>2019-11-24T17:14:14Z</time>
      </trkpt>
      <trkpt lat="43.423508" lon="-5.830001">
        <ele>171.8</ele>
        <time>2019-11-24T17:14:15Z</time>
      </trkpt>
      <trkpt lat="43.423459" lon="-5.829928">
        <ele>172</ele>
        <time>2019-11-24T17:14:16Z</time>
      </trkpt>
      <trkpt lat="43.42341" lon="-5.829855">
        <ele>172.2</ele>
        <time>2019-11-24T17:14:17Z</time>
      </trkpt>
      <trkpt lat="43.423362" lon="-5.829784">
        <ele>171.4</ele>
        <time>2019-11-24T17:14:18Z</time>
      </trkpt>
      <trkpt lat="43.423314" lon="-5.829713">
        <ele>171.8</ele>
        <time>2019-11-24T17:14:19Z</time>
      </trkpt>
      <trkpt lat="43.423266" lon="-5.829643">
        <ele>172</ele>
        <time>2019-11-24T17:14:20Z</time>
      </trkpt>
      <trkpt lat="43.423216" lon="-5.829571">
        <ele>172.2</ele>
        <time>2019-11-24T17:14:21Z</time>
      </trkpt>
      <trkpt lat="43.423167" lon="-5.829502">
        <ele>172.2</ele>
        <time>2019-11-24T17:14:22Z</time>
      </trkpt>
      <trkpt lat="43.423118" lon="-5.829433">
        <ele>172.4</ele>
        <time>2019-11-24T17:14:23Z</time>
      </trkpt>
      <trkpt lat="43.42307" lon="-5.829365">
        <ele>172.6</ele>
        <time>2019-11-24T17:14:24Z</time>
      </trkpt>
      <trkpt lat="43.423022" lon="-5.829298">
        <ele>172.6</ele>
        <time>2019-11-24T17:14:25Z</time>
      </trkpt>
      <trkpt lat="43.422973" lon="-5.829233">
        <ele>172.6</ele>
        <time>2019-11-24T17:14:26Z</time>
      </trkpt>
      <trkpt lat="43.422924" lon="-5.829166">
        <ele>172.6</ele>
        <time>2019-11-24T17:14:27Z</time>
      </trkpt>
      <trkpt lat="43.422875" lon="-5.8291">
        <ele>172.8</ele>
        <time>2019-11-24T17:14:28Z</time>
      </trkpt>
      <trkpt lat="43.422826" lon="-5.829035">
        <ele>173</ele>
        <time>2019-11-24T17:14:29Z</time>
      </trkpt>
      <trkpt lat="43.422777" lon="-5.828971">
        <ele>173</ele>
        <time>2019-11-24T17:14:30Z</time>
      </trkpt>
      <trkpt lat="43.422728" lon="-5.828906">
        <ele>172.8</ele>
        <time>2019-11-24T17:14:31Z</time>
      </trkpt>
      <trkpt lat="43.42268" lon="-5.828842">
        <ele>173</ele>
        <time>2019-11-24T17:14:32Z</time>
      </trkpt>
      <trkpt lat="43.422631" lon="-5.828775">
        <ele>173.2</ele>
        <time>2019-11-24T17:14:33Z</time>
      </trkpt>
      <trkpt lat="43.422583" lon="-5.82871">
        <ele>173.2</ele>
        <time>2019-11-24T17:14:34Z</time>
      </trkpt>
      <trkpt lat="43.422534" lon="-5.828646">
        <ele>173.4</ele>
        <time>2019-11-24T17:14:35Z</time>
      </trkpt>
      <trkpt lat="43.422485" lon="-5.828583">
        <ele>173.2</ele>
        <time>2019-11-24T17:14:36Z</time>
      </trkpt>
      <trkpt lat="43.422436" lon="-5.828519">
        <ele>173.2</ele>
        <time>2019-11-24T17:14:37Z</time>
      </trkpt>
      <trkpt lat="43.422387" lon="-5.828453">
        <ele>173.2</ele>
        <time>2019-11-24T17:14:38Z</time>
      </trkpt>
      <trkpt lat="43.422337" lon="-5.828388">
        <ele>173.2</ele>
        <time>2019-11-24T17:14:39Z</time>
      </trkpt>
      <trkpt lat="43.422288" lon="-5.828321">
        <ele>173.4</ele>
        <time>2019-11-24T17:14:40Z</time>
      </trkpt>
      <trkpt lat="43.422238" lon="-5.828255">
        <ele>173.6</ele>
        <time>2019-11-24T17:14:41Z</time>
      </trkpt>
      <trkpt lat="43.422188" lon="-5.828187">
        <ele>173.4</ele>
        <time>2019-11-24T17:14:42Z</time>
      </trkpt>
      <trkpt lat="43.422137" lon="-5.82812">
        <ele>173.6</ele>
        <time>2019-11-24T17:14:43Z</time>
      </trkpt>
      <trkpt lat="43.422087" lon="-5.828053">
        <ele>173.6</ele>
        <time>2019-11-24T17:14:44Z</time>
      </trkpt>
      <trkpt lat="43.422035" lon="-5.827984">
        <ele>173.4</ele>
        <time>2019-11-24T17:14:45Z</time>
      </trkpt>
      <trkpt lat="43.421985" lon="-5.827915">
        <ele>173.6</ele>
        <time>2019-11-24T17:14:46Z</time>
      </trkpt>
      <trkpt lat="43.421934" lon="-5.827846">
        <ele>173.4</ele>
        <time>2019-11-24T17:14:47Z</time>
      </trkpt>
      <trkpt lat="43.421885" lon="-5.827777">
        <ele>173.4</ele>
        <time>2019-11-24T17:14:48Z</time>
      </trkpt>
      <trkpt lat="43.421836" lon="-5.82771">
        <ele>173.6</ele>
        <time>2019-11-24T17:14:49Z</time>
      </trkpt>
      <trkpt lat="43.421787" lon="-5.827643">
        <ele>173.4</ele>
        <time>2019-11-24T17:14:50Z</time>
      </trkpt>
      <trkpt lat="43.421738" lon="-5.827577">
        <ele>173.6</ele>
        <time>2019-11-24T17:14:51Z</time>
      </trkpt>
      <trkpt lat="43.42169" lon="-5.827512">
        <ele>173.4</ele>
        <time>2019-11-24T17:14:52Z</time>
      </trkpt>
      <trkpt lat="43.421642" lon="-5.827448">
        <ele>173.8</ele>
        <time>2019-11-24T17:14:53Z</time>
      </trkpt>
      <trkpt lat="43.421595" lon="-5.827382">
        <ele>174</ele>
        <time>2019-11-24T17:14:54Z</time>
      </trkpt>
      <trkpt lat="43.421547" lon="-5.827319">
        <ele>174</ele>
        <time>2019-11-24T17:14:55Z</time>
      </trkpt>
      <trkpt lat="43.421498" lon="-5.827257">
        <ele>174.2</ele>
        <time>2019-11-24T17:14:56Z</time>
      </trkpt>
      <trkpt lat="43.421449" lon="-5.827194">
        <ele>174.2</ele>
        <time>2019-11-24T17:14:57Z</time>
      </trkpt>
      <trkpt lat="43.421401" lon="-5.82713">
        <ele>174.2</ele>
        <time>2019-11-24T17:14:58Z</time>
      </trkpt>
      <trkpt lat="43.421354" lon="-5.827066">
        <ele>174.4</ele>
        <time>2019-11-24T17:14:59Z</time>
      </trkpt>
      <trkpt lat="43.421307" lon="-5.827002">
        <ele>174.4</ele>
        <time>2019-11-24T17:15:00Z</time>
      </trkpt>
      <trkpt lat="43.421259" lon="-5.82694">
        <ele>174.6</ele>
        <time>2019-11-24T17:15:01Z</time>
      </trkpt>
      <trkpt lat="43.421211" lon="-5.826877">
        <ele>174.6</ele>
        <time>2019-11-24T17:15:02Z</time>
      </trkpt>
      <trkpt lat="43.421164" lon="-5.826814">
        <ele>174.6</ele>
        <time>2019-11-24T17:15:03Z</time>
      </trkpt>
      <trkpt lat="43.421118" lon="-5.826752">
        <ele>175</ele>
        <time>2019-11-24T17:15:04Z</time>
      </trkpt>
      <trkpt lat="43.421071" lon="-5.82669">
        <ele>175</ele>
        <time>2019-11-24T17:15:05Z</time>
      </trkpt>
      <trkpt lat="43.421024" lon="-5.826626">
        <ele>175.6</ele>
        <time>2019-11-24T17:15:06Z</time>
      </trkpt>
      <trkpt lat="43.420976" lon="-5.826563">
        <ele>175.6</ele>
        <time>2019-11-24T17:15:07Z</time>
      </trkpt>
      <trkpt lat="43.420929" lon="-5.8265">
        <ele>175.8</ele>
        <time>2019-11-24T17:15:08Z</time>
      </trkpt>
      <trkpt lat="43.420883" lon="-5.826436">
        <ele>175.8</ele>
        <time>2019-11-24T17:15:09Z</time>
      </trkpt>
      <trkpt lat="43.420836" lon="-5.826374">
        <ele>176.2</ele>
        <time>2019-11-24T17:15:10Z</time>
      </trkpt>
      <trkpt lat="43.420789" lon="-5.826311">
        <ele>176.4</ele>
        <time>2019-11-24T17:15:11Z</time>
      </trkpt>
      <trkpt lat="43.420741" lon="-5.826248">
        <ele>176.6</ele>
        <time>2019-11-24T17:15:12Z</time>
      </trkpt>
      <trkpt lat="43.420694" lon="-5.826185">
        <ele>176.8</ele>
        <time>2019-11-24T17:15:13Z</time>
      </trkpt>
      <trkpt lat="43.420648" lon="-5.826124">
        <ele>177.2</ele>
        <time>2019-11-24T17:15:14Z</time>
      </trkpt>
      <trkpt lat="43.420602" lon="-5.826064">
        <ele>177</ele>
        <time>2019-11-24T17:15:15Z</time>
      </trkpt>
      <trkpt lat="43.420554" lon="-5.826002">
        <ele>176.8</ele>
        <time>2019-11-24T17:15:16Z</time>
      </trkpt>
      <trkpt lat="43.420508" lon="-5.82594">
        <ele>176.8</ele>
        <time>2019-11-24T17:15:17Z</time>
      </trkpt>
      <trkpt lat="43.420461" lon="-5.825878">
        <ele>177.4</ele>
        <time>2019-11-24T17:15:18Z</time>
      </trkpt>
      <trkpt lat="43.420415" lon="-5.825814">
        <ele>177.2</ele>
        <time>2019-11-24T17:15:19Z</time>
      </trkpt>
      <trkpt lat="43.420368" lon="-5.825752">
        <ele>177.4</ele>
        <time>2019-11-24T17:15:20Z</time>
      </trkpt>
      <trkpt lat="43.420322" lon="-5.825689">
        <ele>177.4</ele>
        <time>2019-11-24T17:15:21Z</time>
      </trkpt>
      <trkpt lat="43.420275" lon="-5.825626">
        <ele>177.4</ele>
        <time>2019-11-24T17:15:22Z</time>
      </trkpt>
      <trkpt lat="43.420227" lon="-5.825561">
        <ele>177.6</ele>
        <time>2019-11-24T17:15:23Z</time>
      </trkpt>
      <trkpt lat="43.420179" lon="-5.825497">
        <ele>176.6</ele>
        <time>2019-11-24T17:15:24Z</time>
      </trkpt>
      <trkpt lat="43.42013" lon="-5.825432">
        <ele>176.6</ele>
        <time>2019-11-24T17:15:25Z</time>
      </trkpt>
      <trkpt lat="43.420081" lon="-5.825367">
        <ele>177</ele>
        <time>2019-11-24T17:15:26Z</time>
      </trkpt>
      <trkpt lat="43.420031" lon="-5.825301">
        <ele>177</ele>
        <time>2019-11-24T17:15:27Z</time>
      </trkpt>
      <trkpt lat="43.419981" lon="-5.825234">
        <ele>176.4</ele>
        <time>2019-11-24T17:15:28Z</time>
      </trkpt>
      <trkpt lat="43.419932" lon="-5.825167">
        <ele>175.6</ele>
        <time>2019-11-24T17:15:29Z</time>
      </trkpt>
      <trkpt lat="43.419882" lon="-5.825102">
        <ele>176.4</ele>
        <time>2019-11-24T17:15:30Z</time>
      </trkpt>
      <trkpt lat="43.419831" lon="-5.825037">
        <ele>176.6</ele>
        <time>2019-11-24T17:15:31Z</time>
      </trkpt>
      <trkpt lat="43.419783" lon="-5.824973">
        <ele>176.2</ele>
        <time>2019-11-24T17:15:32Z</time>
      </trkpt>
      <trkpt lat="43.419733" lon="-5.824908">
        <ele>176.2</ele>
        <time>2019-11-24T17:15:33Z</time>
      </trkpt>
      <trkpt lat="43.419683" lon="-5.824842">
        <ele>176.4</ele>
        <time>2019-11-24T17:15:34Z</time>
      </trkpt>
      <trkpt lat="43.419633" lon="-5.824774">
        <ele>176.4</ele>
        <time>2019-11-24T17:15:35Z</time>
      </trkpt>
      <trkpt lat="43.419582" lon="-5.824706">
        <ele>176.4</ele>
        <time>2019-11-24T17:15:36Z</time>
      </trkpt>
      <trkpt lat="43.419531" lon="-5.824638">
        <ele>176.4</ele>
        <time>2019-11-24T17:15:37Z</time>
      </trkpt>
      <trkpt lat="43.41948" lon="-5.824572">
        <ele>175.8</ele>
        <time>2019-11-24T17:15:38Z</time>
      </trkpt>
      <trkpt lat="43.419427" lon="-5.824505">
        <ele>176</ele>
        <time>2019-11-24T17:15:39Z</time>
      </trkpt>
      <trkpt lat="43.419376" lon="-5.824435">
        <ele>175.8</ele>
        <time>2019-11-24T17:15:40Z</time>
      </trkpt>
      <trkpt lat="43.419324" lon="-5.824364">
        <ele>175.6</ele>
        <time>2019-11-24T17:15:41Z</time>
      </trkpt>
      <trkpt lat="43.419271" lon="-5.824291">
        <ele>175.6</ele>
        <time>2019-11-24T17:15:42Z</time>
      </trkpt>
      <trkpt lat="43.419217" lon="-5.824219">
        <ele>175.4</ele>
        <time>2019-11-24T17:15:43Z</time>
      </trkpt>
      <trkpt lat="43.419163" lon="-5.824146">
        <ele>175.4</ele>
        <time>2019-11-24T17:15:44Z</time>
      </trkpt>
      <trkpt lat="43.419109" lon="-5.824072">
        <ele>175.2</ele>
        <time>2019-11-24T17:15:45Z</time>
      </trkpt>
      <trkpt lat="43.419054" lon="-5.823996">
        <ele>175.2</ele>
        <time>2019-11-24T17:15:46Z</time>
      </trkpt>
      <trkpt lat="43.418998" lon="-5.823921">
        <ele>175</ele>
        <time>2019-11-24T17:15:47Z</time>
      </trkpt>
      <trkpt lat="43.418943" lon="-5.823847">
        <ele>175</ele>
        <time>2019-11-24T17:15:48Z</time>
      </trkpt>
      <trkpt lat="43.418888" lon="-5.82377">
        <ele>174.8</ele>
        <time>2019-11-24T17:15:49Z</time>
      </trkpt>
      <trkpt lat="43.418833" lon="-5.823694">
        <ele>174.6</ele>
        <time>2019-11-24T17:15:50Z</time>
      </trkpt>
      <trkpt lat="43.418778" lon="-5.823619">
        <ele>174.6</ele>
        <time>2019-11-24T17:15:51Z</time>
      </trkpt>
      <trkpt lat="43.418721" lon="-5.823542">
        <ele>174.6</ele>
        <time>2019-11-24T17:15:52Z</time>
      </trkpt>
      <trkpt lat="43.418665" lon="-5.823466">
        <ele>174.8</ele>
        <time>2019-11-24T17:15:53Z</time>
      </trkpt>
      <trkpt lat="43.418608" lon="-5.823389">
        <ele>174.4</ele>
        <time>2019-11-24T17:15:54Z</time>
      </trkpt>
      <trkpt lat="43.418551" lon="-5.823312">
        <ele>174</ele>
        <time>2019-11-24T17:15:55Z</time>
      </trkpt>
      <trkpt lat="43.418493" lon="-5.823234">
        <ele>173.8</ele>
        <time>2019-11-24T17:15:56Z</time>
      </trkpt>
      <trkpt lat="43.418436" lon="-5.823157">
        <ele>173.8</ele>
        <time>2019-11-24T17:15:57Z</time>
      </trkpt>
      <trkpt lat="43.41838" lon="-5.823081">
        <ele>173.6</ele>
        <time>2019-11-24T17:15:58Z</time>
      </trkpt>
      <trkpt lat="43.418324" lon="-5.823004">
        <ele>173.6</ele>
        <time>2019-11-24T17:15:59Z</time>
      </trkpt>
      <trkpt lat="43.418268" lon="-5.822927">
        <ele>173.6</ele>
        <time>2019-11-24T17:16:00Z</time>
      </trkpt>
      <trkpt lat="43.418212" lon="-5.822851">
        <ele>173.4</ele>
        <time>2019-11-24T17:16:01Z</time>
      </trkpt>
      <trkpt lat="43.418156" lon="-5.822773">
        <ele>173.2</ele>
        <time>2019-11-24T17:16:02Z</time>
      </trkpt>
      <trkpt lat="43.418101" lon="-5.822695">
        <ele>173</ele>
        <time>2019-11-24T17:16:03Z</time>
      </trkpt>
      <trkpt lat="43.418045" lon="-5.822617">
        <ele>173</ele>
        <time>2019-11-24T17:16:04Z</time>
      </trkpt>
      <trkpt lat="43.417989" lon="-5.82254">
        <ele>172.8</ele>
        <time>2019-11-24T17:16:05Z</time>
      </trkpt>
      <trkpt lat="43.417933" lon="-5.822465">
        <ele>173</ele>
        <time>2019-11-24T17:16:06Z</time>
      </trkpt>
      <trkpt lat="43.417878" lon="-5.82239">
        <ele>172.6</ele>
        <time>2019-11-24T17:16:07Z</time>
      </trkpt>
      <trkpt lat="43.417823" lon="-5.822314">
        <ele>172</ele>
        <time>2019-11-24T17:16:08Z</time>
      </trkpt>
      <trkpt lat="43.417769" lon="-5.822238">
        <ele>172.2</ele>
        <time>2019-11-24T17:16:09Z</time>
      </trkpt>
      <trkpt lat="43.417715" lon="-5.822161">
        <ele>172.4</ele>
        <time>2019-11-24T17:16:10Z</time>
      </trkpt>
      <trkpt lat="43.41766" lon="-5.822084">
        <ele>172.4</ele>
        <time>2019-11-24T17:16:11Z</time>
      </trkpt>
      <trkpt lat="43.417604" lon="-5.822005">
        <ele>172.2</ele>
        <time>2019-11-24T17:16:12Z</time>
      </trkpt>
      <trkpt lat="43.417548" lon="-5.821925">
        <ele>171.8</ele>
        <time>2019-11-24T17:16:13Z</time>
      </trkpt>
      <trkpt lat="43.417491" lon="-5.821846">
        <ele>171.4</ele>
        <time>2019-11-24T17:16:14Z</time>
      </trkpt>
      <trkpt lat="43.417432" lon="-5.821767">
        <ele>171</ele>
        <time>2019-11-24T17:16:15Z</time>
      </trkpt>
      <trkpt lat="43.417371" lon="-5.821685">
        <ele>170.6</ele>
        <time>2019-11-24T17:16:16Z</time>
      </trkpt>
      <trkpt lat="43.417311" lon="-5.821602">
        <ele>170</ele>
        <time>2019-11-24T17:16:17Z</time>
      </trkpt>
      <trkpt lat="43.417251" lon="-5.821517">
        <ele>169.8</ele>
        <time>2019-11-24T17:16:18Z</time>
      </trkpt>
      <trkpt lat="43.417192" lon="-5.821431">
        <ele>169</ele>
        <time>2019-11-24T17:16:19Z</time>
      </trkpt>
      <trkpt lat="43.417132" lon="-5.821344">
        <ele>169.2</ele>
        <time>2019-11-24T17:16:20Z</time>
      </trkpt>
      <trkpt lat="43.417071" lon="-5.821257">
        <ele>168.8</ele>
        <time>2019-11-24T17:16:21Z</time>
      </trkpt>
      <trkpt lat="43.417008" lon="-5.821168">
        <ele>168</ele>
        <time>2019-11-24T17:16:22Z</time>
      </trkpt>
      <trkpt lat="43.416943" lon="-5.821079">
        <ele>167.2</ele>
        <time>2019-11-24T17:16:23Z</time>
      </trkpt>
      <trkpt lat="43.416877" lon="-5.820991">
        <ele>167</ele>
        <time>2019-11-24T17:16:24Z</time>
      </trkpt>
      <trkpt lat="43.416813" lon="-5.820904">
        <ele>166.6</ele>
        <time>2019-11-24T17:16:25Z</time>
      </trkpt>
      <trkpt lat="43.416749" lon="-5.820816">
        <ele>166.6</ele>
        <time>2019-11-24T17:16:26Z</time>
      </trkpt>
      <trkpt lat="43.416686" lon="-5.820728">
        <ele>166.2</ele>
        <time>2019-11-24T17:16:27Z</time>
      </trkpt>
      <trkpt lat="43.416624" lon="-5.820642">
        <ele>166.4</ele>
        <time>2019-11-24T17:16:28Z</time>
      </trkpt>
      <trkpt lat="43.416561" lon="-5.820557">
        <ele>165.8</ele>
        <time>2019-11-24T17:16:29Z</time>
      </trkpt>
      <trkpt lat="43.416499" lon="-5.82047">
        <ele>165.6</ele>
        <time>2019-11-24T17:16:30Z</time>
      </trkpt>
      <trkpt lat="43.416436" lon="-5.820383">
        <ele>165.2</ele>
        <time>2019-11-24T17:16:31Z</time>
      </trkpt>
      <trkpt lat="43.416373" lon="-5.820294">
        <ele>165.4</ele>
        <time>2019-11-24T17:16:32Z</time>
      </trkpt>
      <trkpt lat="43.416307" lon="-5.820205">
        <ele>165</ele>
        <time>2019-11-24T17:16:33Z</time>
      </trkpt>
      <trkpt lat="43.416242" lon="-5.820114">
        <ele>164.6</ele>
        <time>2019-11-24T17:16:34Z</time>
      </trkpt>
      <trkpt lat="43.41618" lon="-5.820024">
        <ele>164.2</ele>
        <time>2019-11-24T17:16:35Z</time>
      </trkpt>
      <trkpt lat="43.416117" lon="-5.819937">
        <ele>164</ele>
        <time>2019-11-24T17:16:36Z</time>
      </trkpt>
      <trkpt lat="43.416055" lon="-5.819851">
        <ele>163.8</ele>
        <time>2019-11-24T17:16:37Z</time>
      </trkpt>
      <trkpt lat="43.415993" lon="-5.819765">
        <ele>163.4</ele>
        <time>2019-11-24T17:16:38Z</time>
      </trkpt>
      <trkpt lat="43.415929" lon="-5.819677">
        <ele>162.8</ele>
        <time>2019-11-24T17:16:39Z</time>
      </trkpt>
      <trkpt lat="43.415866" lon="-5.81959">
        <ele>162.6</ele>
        <time>2019-11-24T17:16:40Z</time>
      </trkpt>
      <trkpt lat="43.415802" lon="-5.819505">
        <ele>162</ele>
        <time>2019-11-24T17:16:41Z</time>
      </trkpt>
      <trkpt lat="43.415738" lon="-5.819415">
        <ele>161.8</ele>
        <time>2019-11-24T17:16:42Z</time>
      </trkpt>
      <trkpt lat="43.415674" lon="-5.819325">
        <ele>161.4</ele>
        <time>2019-11-24T17:16:43Z</time>
      </trkpt>
      <trkpt lat="43.415609" lon="-5.819235">
        <ele>161.2</ele>
        <time>2019-11-24T17:16:44Z</time>
      </trkpt>
      <trkpt lat="43.415544" lon="-5.819143">
        <ele>161</ele>
        <time>2019-11-24T17:16:45Z</time>
      </trkpt>
      <trkpt lat="43.415479" lon="-5.819052">
        <ele>160.8</ele>
        <time>2019-11-24T17:16:46Z</time>
      </trkpt>
      <trkpt lat="43.415413" lon="-5.81896">
        <ele>160.6</ele>
        <time>2019-11-24T17:16:47Z</time>
      </trkpt>
      <trkpt lat="43.415348" lon="-5.81887">
        <ele>160.4</ele>
        <time>2019-11-24T17:16:48Z</time>
      </trkpt>
      <trkpt lat="43.415283" lon="-5.81878">
        <ele>159.6</ele>
        <time>2019-11-24T17:16:49Z</time>
      </trkpt>
      <trkpt lat="43.41522" lon="-5.818689">
        <ele>159</ele>
        <time>2019-11-24T17:16:50Z</time>
      </trkpt>
      <trkpt lat="43.415158" lon="-5.818595">
        <ele>159</ele>
        <time>2019-11-24T17:16:51Z</time>
      </trkpt>
      <trkpt lat="43.415094" lon="-5.818503">
        <ele>158.8</ele>
        <time>2019-11-24T17:16:52Z</time>
      </trkpt>
      <trkpt lat="43.415027" lon="-5.818415">
        <ele>158.4</ele>
        <time>2019-11-24T17:16:53Z</time>
      </trkpt>
      <trkpt lat="43.41496" lon="-5.818328">
        <ele>158.6</ele>
        <time>2019-11-24T17:16:54Z</time>
      </trkpt>
      <trkpt lat="43.414895" lon="-5.818245">
        <ele>158.6</ele>
        <time>2019-11-24T17:16:55Z</time>
      </trkpt>
      <trkpt lat="43.414837" lon="-5.818148">
        <ele>158.6</ele>
        <time>2019-11-24T17:16:56Z</time>
      </trkpt>
      <trkpt lat="43.414778" lon="-5.818057">
        <ele>158.4</ele>
        <time>2019-11-24T17:16:57Z</time>
      </trkpt>
      <trkpt lat="43.414716" lon="-5.817972">
        <ele>158.8</ele>
        <time>2019-11-24T17:16:58Z</time>
      </trkpt>
      <trkpt lat="43.414657" lon="-5.81789">
        <ele>158.4</ele>
        <time>2019-11-24T17:16:59Z</time>
      </trkpt>
      <trkpt lat="43.414598" lon="-5.817807">
        <ele>158.4</ele>
        <time>2019-11-24T17:17:00Z</time>
      </trkpt>
      <trkpt lat="43.41454" lon="-5.817722">
        <ele>158.4</ele>
        <time>2019-11-24T17:17:01Z</time>
      </trkpt>
      <trkpt lat="43.414481" lon="-5.817637">
        <ele>158.4</ele>
        <time>2019-11-24T17:17:02Z</time>
      </trkpt>
      <trkpt lat="43.41442" lon="-5.817558">
        <ele>158.2</ele>
        <time>2019-11-24T17:17:03Z</time>
      </trkpt>
      <trkpt lat="43.414361" lon="-5.817476">
        <ele>158.2</ele>
        <time>2019-11-24T17:17:04Z</time>
      </trkpt>
      <trkpt lat="43.414302" lon="-5.817394">
        <ele>158.2</ele>
        <time>2019-11-24T17:17:05Z</time>
      </trkpt>
      <trkpt lat="43.414242" lon="-5.817312">
        <ele>158</ele>
        <time>2019-11-24T17:17:06Z</time>
      </trkpt>
      <trkpt lat="43.414184" lon="-5.817234">
        <ele>158</ele>
        <time>2019-11-24T17:17:07Z</time>
      </trkpt>
      <trkpt lat="43.414126" lon="-5.817151">
        <ele>158.6</ele>
        <time>2019-11-24T17:17:08Z</time>
      </trkpt>
      <trkpt lat="43.41407" lon="-5.81707">
        <ele>158</ele>
        <time>2019-11-24T17:17:09Z</time>
      </trkpt>
      <trkpt lat="43.414016" lon="-5.816994">
        <ele>157.8</ele>
        <time>2019-11-24T17:17:10Z</time>
      </trkpt>
      <trkpt lat="43.413963" lon="-5.816918">
        <ele>158</ele>
        <time>2019-11-24T17:17:11Z</time>
      </trkpt>
      <trkpt lat="43.41391" lon="-5.816845">
        <ele>158.4</ele>
        <time>2019-11-24T17:17:12Z</time>
      </trkpt>
      <trkpt lat="43.413857" lon="-5.816771">
        <ele>158.6</ele>
        <time>2019-11-24T17:17:13Z</time>
      </trkpt>
      <trkpt lat="43.413806" lon="-5.816697">
        <ele>158.6</ele>
        <time>2019-11-24T17:17:14Z</time>
      </trkpt>
      <trkpt lat="43.413756" lon="-5.816624">
        <ele>158.8</ele>
        <time>2019-11-24T17:17:15Z</time>
      </trkpt>
      <trkpt lat="43.413705" lon="-5.81655">
        <ele>158.8</ele>
        <time>2019-11-24T17:17:16Z</time>
      </trkpt>
      <trkpt lat="43.413656" lon="-5.816477">
        <ele>159</ele>
        <time>2019-11-24T17:17:17Z</time>
      </trkpt>
      <trkpt lat="43.413608" lon="-5.816403">
        <ele>159</ele>
        <time>2019-11-24T17:17:18Z</time>
      </trkpt>
      <trkpt lat="43.413562" lon="-5.816328">
        <ele>158.8</ele>
        <time>2019-11-24T17:17:19Z</time>
      </trkpt>
      <trkpt lat="43.413515" lon="-5.816254">
        <ele>158.8</ele>
        <time>2019-11-24T17:17:20Z</time>
      </trkpt>
      <trkpt lat="43.413469" lon="-5.816181">
        <ele>159</ele>
        <time>2019-11-24T17:17:21Z</time>
      </trkpt>
      <trkpt lat="43.413421" lon="-5.816111">
        <ele>159.4</ele>
        <time>2019-11-24T17:17:22Z</time>
      </trkpt>
      <trkpt lat="43.413373" lon="-5.816043">
        <ele>159.2</ele>
        <time>2019-11-24T17:17:23Z</time>
      </trkpt>
      <trkpt lat="43.413322" lon="-5.815978">
        <ele>159.4</ele>
        <time>2019-11-24T17:17:24Z</time>
      </trkpt>
      <trkpt lat="43.413271" lon="-5.815914">
        <ele>159.4</ele>
        <time>2019-11-24T17:17:25Z</time>
      </trkpt>
      <trkpt lat="43.413223" lon="-5.815854">
        <ele>159.6</ele>
        <time>2019-11-24T17:17:26Z</time>
      </trkpt>
      <trkpt lat="43.413179" lon="-5.815798">
        <ele>159.6</ele>
        <time>2019-11-24T17:17:27Z</time>
      </trkpt>
      <trkpt lat="43.413137" lon="-5.815745">
        <ele>159.8</ele>
        <time>2019-11-24T17:17:28Z</time>
      </trkpt>
      <trkpt lat="43.413098" lon="-5.815693">
        <ele>160</ele>
        <time>2019-11-24T17:17:29Z</time>
      </trkpt>
      <trkpt lat="43.413059" lon="-5.815643">
        <ele>160.2</ele>
        <time>2019-11-24T17:17:30Z</time>
      </trkpt>
      <trkpt lat="43.41302" lon="-5.815592">
        <ele>160.4</ele>
        <time>2019-11-24T17:17:31Z</time>
      </trkpt>
      <trkpt lat="43.412982" lon="-5.815539">
        <ele>161</ele>
        <time>2019-11-24T17:17:32Z</time>
      </trkpt>
      <trkpt lat="43.412944" lon="-5.815488">
        <ele>161.6</ele>
        <time>2019-11-24T17:17:33Z</time>
      </trkpt>
      <trkpt lat="43.412907" lon="-5.815436">
        <ele>161.6</ele>
        <time>2019-11-24T17:17:34Z</time>
      </trkpt>
      <trkpt lat="43.412872" lon="-5.815389">
        <ele>161.8</ele>
        <time>2019-11-24T17:17:35Z</time>
      </trkpt>
      <trkpt lat="43.412837" lon="-5.81534">
        <ele>162</ele>
        <time>2019-11-24T17:17:36Z</time>
      </trkpt>
      <trkpt lat="43.412802" lon="-5.815291">
        <ele>162.2</ele>
        <time>2019-11-24T17:17:37Z</time>
      </trkpt>
      <trkpt lat="43.412767" lon="-5.815241">
        <ele>162.4</ele>
        <time>2019-11-24T17:17:38Z</time>
      </trkpt>
      <trkpt lat="43.41273" lon="-5.815192">
        <ele>162.4</ele>
        <time>2019-11-24T17:17:39Z</time>
      </trkpt>
      <trkpt lat="43.412694" lon="-5.815143">
        <ele>162.6</ele>
        <time>2019-11-24T17:17:40Z</time>
      </trkpt>
      <trkpt lat="43.412658" lon="-5.815093">
        <ele>162.8</ele>
        <time>2019-11-24T17:17:41Z</time>
      </trkpt>
      <trkpt lat="43.412622" lon="-5.815042">
        <ele>163</ele>
        <time>2019-11-24T17:17:42Z</time>
      </trkpt>
      <trkpt lat="43.412585" lon="-5.814991">
        <ele>163.4</ele>
        <time>2019-11-24T17:17:43Z</time>
      </trkpt>
      <trkpt lat="43.412549" lon="-5.814941">
        <ele>163.8</ele>
        <time>2019-11-24T17:17:44Z</time>
      </trkpt>
      <trkpt lat="43.412512" lon="-5.81489">
        <ele>164.2</ele>
        <time>2019-11-24T17:17:45Z</time>
      </trkpt>
      <trkpt lat="43.412476" lon="-5.814837">
        <ele>164.4</ele>
        <time>2019-11-24T17:17:46Z</time>
      </trkpt>
      <trkpt lat="43.412439" lon="-5.814784">
        <ele>164.4</ele>
        <time>2019-11-24T17:17:47Z</time>
      </trkpt>
      <trkpt lat="43.412401" lon="-5.81473">
        <ele>164.8</ele>
        <time>2019-11-24T17:17:48Z</time>
      </trkpt>
      <trkpt lat="43.412362" lon="-5.814675">
        <ele>165</ele>
        <time>2019-11-24T17:17:49Z</time>
      </trkpt>
      <trkpt lat="43.412323" lon="-5.81462">
        <ele>165.4</ele>
        <time>2019-11-24T17:17:50Z</time>
      </trkpt>
      <trkpt lat="43.412285" lon="-5.814567">
        <ele>165.6</ele>
        <time>2019-11-24T17:17:51Z</time>
      </trkpt>
      <trkpt lat="43.412246" lon="-5.814513">
        <ele>165.6</ele>
        <time>2019-11-24T17:17:52Z</time>
      </trkpt>
      <trkpt lat="43.412205" lon="-5.81446">
        <ele>166.2</ele>
        <time>2019-11-24T17:17:53Z</time>
      </trkpt>
      <trkpt lat="43.412165" lon="-5.81441">
        <ele>166.4</ele>
        <time>2019-11-24T17:17:54Z</time>
      </trkpt>
      <trkpt lat="43.412123" lon="-5.814364">
        <ele>167</ele>
        <time>2019-11-24T17:17:55Z</time>
      </trkpt>
      <trkpt lat="43.41208" lon="-5.814322">
        <ele>167.2</ele>
        <time>2019-11-24T17:17:56Z</time>
      </trkpt>
      <trkpt lat="43.412033" lon="-5.814288">
        <ele>167.2</ele>
        <time>2019-11-24T17:17:57Z</time>
      </trkpt>
      <trkpt lat="43.411985" lon="-5.81426">
        <ele>167.6</ele>
        <time>2019-11-24T17:17:58Z</time>
      </trkpt>
      <trkpt lat="43.411935" lon="-5.814238">
        <ele>168</ele>
        <time>2019-11-24T17:17:59Z</time>
      </trkpt>
      <trkpt lat="43.411882" lon="-5.814226">
        <ele>168</ele>
        <time>2019-11-24T17:18:00Z</time>
      </trkpt>
      <trkpt lat="43.411827" lon="-5.814219">
        <ele>168.6</ele>
        <time>2019-11-24T17:18:01Z</time>
      </trkpt>
      <trkpt lat="43.411772" lon="-5.81422">
        <ele>168.8</ele>
        <time>2019-11-24T17:18:02Z</time>
      </trkpt>
      <trkpt lat="43.411715" lon="-5.814222">
        <ele>168.8</ele>
        <time>2019-11-24T17:18:03Z</time>
      </trkpt>
      <trkpt lat="43.411657" lon="-5.814223">
        <ele>169.2</ele>
        <time>2019-11-24T17:18:04Z</time>
      </trkpt>
      <trkpt lat="43.411598" lon="-5.814225">
        <ele>169.2</ele>
        <time>2019-11-24T17:18:05Z</time>
      </trkpt>
      <trkpt lat="43.411539" lon="-5.814227">
        <ele>169.2</ele>
        <time>2019-11-24T17:18:06Z</time>
      </trkpt>
      <trkpt lat="43.411479" lon="-5.814231">
        <ele>169.4</ele>
        <time>2019-11-24T17:18:07Z</time>
      </trkpt>
      <trkpt lat="43.41142" lon="-5.814234">
        <ele>169.4</ele>
        <time>2019-11-24T17:18:08Z</time>
      </trkpt>
      <trkpt lat="43.41136" lon="-5.814235">
        <ele>169.4</ele>
        <time>2019-11-24T17:18:09Z</time>
      </trkpt>
      <trkpt lat="43.411299" lon="-5.814235">
        <ele>169.8</ele>
        <time>2019-11-24T17:18:10Z</time>
      </trkpt>
      <trkpt lat="43.411236" lon="-5.814236">
        <ele>169.8</ele>
        <time>2019-11-24T17:18:11Z</time>
      </trkpt>
      <trkpt lat="43.411171" lon="-5.814238">
        <ele>169.6</ele>
        <time>2019-11-24T17:18:12Z</time>
      </trkpt>
      <trkpt lat="43.411103" lon="-5.814239">
        <ele>169.2</ele>
        <time>2019-11-24T17:18:13Z</time>
      </trkpt>
      <trkpt lat="43.411033" lon="-5.81424">
        <ele>169</ele>
        <time>2019-11-24T17:18:14Z</time>
      </trkpt>
      <trkpt lat="43.410962" lon="-5.81424">
        <ele>168.8</ele>
        <time>2019-11-24T17:18:15Z</time>
      </trkpt>
      <trkpt lat="43.410891" lon="-5.81424">
        <ele>168.6</ele>
        <time>2019-11-24T17:18:16Z</time>
      </trkpt>
      <trkpt lat="43.410819" lon="-5.814238">
        <ele>168.4</ele>
        <time>2019-11-24T17:18:17Z</time>
      </trkpt>
      <trkpt lat="43.410748" lon="-5.814234">
        <ele>168.4</ele>
        <time>2019-11-24T17:18:18Z</time>
      </trkpt>
      <trkpt lat="43.410677" lon="-5.814227">
        <ele>168.2</ele>
        <time>2019-11-24T17:18:19Z</time>
      </trkpt>
      <trkpt lat="43.410603" lon="-5.814221">
        <ele>168.4</ele>
        <time>2019-11-24T17:18:20Z</time>
      </trkpt>
      <trkpt lat="43.41053" lon="-5.814214">
        <ele>168.2</ele>
        <time>2019-11-24T17:18:21Z</time>
      </trkpt>
      <trkpt lat="43.410457" lon="-5.814207">
        <ele>168</ele>
        <time>2019-11-24T17:18:22Z</time>
      </trkpt>
      <trkpt lat="43.410384" lon="-5.814199">
        <ele>167.6</ele>
        <time>2019-11-24T17:18:23Z</time>
      </trkpt>
      <trkpt lat="43.410311" lon="-5.81419">
        <ele>167.8</ele>
        <time>2019-11-24T17:18:24Z</time>
      </trkpt>
      <trkpt lat="43.410239" lon="-5.81418">
        <ele>167.8</ele>
        <time>2019-11-24T17:18:25Z</time>
      </trkpt>
      <trkpt lat="43.410167" lon="-5.814169">
        <ele>167.6</ele>
        <time>2019-11-24T17:18:26Z</time>
      </trkpt>
      <trkpt lat="43.410096" lon="-5.814157">
        <ele>167.6</ele>
        <time>2019-11-24T17:18:27Z</time>
      </trkpt>
      <trkpt lat="43.410025" lon="-5.814144">
        <ele>167.6</ele>
        <time>2019-11-24T17:18:28Z</time>
      </trkpt>
      <trkpt lat="43.409955" lon="-5.814131">
        <ele>167.4</ele>
        <time>2019-11-24T17:18:29Z</time>
      </trkpt>
      <trkpt lat="43.409884" lon="-5.814116">
        <ele>167.6</ele>
        <time>2019-11-24T17:18:30Z</time>
      </trkpt>
      <trkpt lat="43.409814" lon="-5.8141">
        <ele>167.6</ele>
        <time>2019-11-24T17:18:31Z</time>
      </trkpt>
      <trkpt lat="43.409746" lon="-5.814082">
        <ele>167.6</ele>
        <time>2019-11-24T17:18:32Z</time>
      </trkpt>
      <trkpt lat="43.409678" lon="-5.814063">
        <ele>167.6</ele>
        <time>2019-11-24T17:18:33Z</time>
      </trkpt>
      <trkpt lat="43.409609" lon="-5.814044">
        <ele>167.8</ele>
        <time>2019-11-24T17:18:34Z</time>
      </trkpt>
      <trkpt lat="43.409542" lon="-5.814024">
        <ele>168</ele>
        <time>2019-11-24T17:18:35Z</time>
      </trkpt>
      <trkpt lat="43.409476" lon="-5.814004">
        <ele>168.2</ele>
        <time>2019-11-24T17:18:36Z</time>
      </trkpt>
      <trkpt lat="43.40941" lon="-5.813983">
        <ele>168.4</ele>
        <time>2019-11-24T17:18:37Z</time>
      </trkpt>
      <trkpt lat="43.409345" lon="-5.813962">
        <ele>168.2</ele>
        <time>2019-11-24T17:18:38Z</time>
      </trkpt>
      <trkpt lat="43.409281" lon="-5.813942">
        <ele>168.6</ele>
        <time>2019-11-24T17:18:39Z</time>
      </trkpt>
      <trkpt lat="43.409218" lon="-5.813921">
        <ele>168.8</ele>
        <time>2019-11-24T17:18:40Z</time>
      </trkpt>
      <trkpt lat="43.409156" lon="-5.8139">
        <ele>169</ele>
        <time>2019-11-24T17:18:41Z</time>
      </trkpt>
      <trkpt lat="43.409095" lon="-5.813879">
        <ele>169.4</ele>
        <time>2019-11-24T17:18:42Z</time>
      </trkpt>
      <trkpt lat="43.409034" lon="-5.813855">
        <ele>169.4</ele>
        <time>2019-11-24T17:18:43Z</time>
      </trkpt>
      <trkpt lat="43.408975" lon="-5.813831">
        <ele>169.8</ele>
        <time>2019-11-24T17:18:44Z</time>
      </trkpt>
      <trkpt lat="43.408916" lon="-5.813804">
        <ele>170</ele>
        <time>2019-11-24T17:18:45Z</time>
      </trkpt>
      <trkpt lat="43.408859" lon="-5.813776">
        <ele>170.2</ele>
        <time>2019-11-24T17:18:46Z</time>
      </trkpt>
      <trkpt lat="43.408804" lon="-5.813747">
        <ele>170.4</ele>
        <time>2019-11-24T17:18:47Z</time>
      </trkpt>
      <trkpt lat="43.408752" lon="-5.813715">
        <ele>170.6</ele>
        <time>2019-11-24T17:18:48Z</time>
      </trkpt>
      <trkpt lat="43.4087" lon="-5.813682">
        <ele>171.2</ele>
        <time>2019-11-24T17:18:49Z</time>
      </trkpt>
      <trkpt lat="43.408649" lon="-5.813649">
        <ele>170.8</ele>
        <time>2019-11-24T17:18:50Z</time>
      </trkpt>
      <trkpt lat="43.408597" lon="-5.813615">
        <ele>170.8</ele>
        <time>2019-11-24T17:18:51Z</time>
      </trkpt>
      <trkpt lat="43.408545" lon="-5.813578">
        <ele>170.8</ele>
        <time>2019-11-24T17:18:52Z</time>
      </trkpt>
      <trkpt lat="43.408494" lon="-5.813541">
        <ele>171.2</ele>
        <time>2019-11-24T17:18:53Z</time>
      </trkpt>
      <trkpt lat="43.408442" lon="-5.813502">
        <ele>171.2</ele>
        <time>2019-11-24T17:18:54Z</time>
      </trkpt>
      <trkpt lat="43.408392" lon="-5.813463">
        <ele>171.4</ele>
        <time>2019-11-24T17:18:55Z</time>
      </trkpt>
      <trkpt lat="43.408342" lon="-5.813424">
        <ele>171.6</ele>
        <time>2019-11-24T17:18:56Z</time>
      </trkpt>
      <trkpt lat="43.408292" lon="-5.813387">
        <ele>171.4</ele>
        <time>2019-11-24T17:18:57Z</time>
      </trkpt>
      <trkpt lat="43.408242" lon="-5.81335">
        <ele>171.6</ele>
        <time>2019-11-24T17:18:58Z</time>
      </trkpt>
      <trkpt lat="43.408192" lon="-5.813313">
        <ele>171.8</ele>
        <time>2019-11-24T17:18:59Z</time>
      </trkpt>
      <trkpt lat="43.408142" lon="-5.813276">
        <ele>171.8</ele>
        <time>2019-11-24T17:19:00Z</time>
      </trkpt>
      <trkpt lat="43.408092" lon="-5.813237">
        <ele>172.2</ele>
        <time>2019-11-24T17:19:01Z</time>
      </trkpt>
      <trkpt lat="43.408044" lon="-5.813199">
        <ele>172</ele>
        <time>2019-11-24T17:19:02Z</time>
      </trkpt>
      <trkpt lat="43.407995" lon="-5.81316">
        <ele>172.4</ele>
        <time>2019-11-24T17:19:03Z</time>
      </trkpt>
      <trkpt lat="43.407945" lon="-5.813124">
        <ele>172.6</ele>
        <time>2019-11-24T17:19:04Z</time>
      </trkpt>
      <trkpt lat="43.407896" lon="-5.813086">
        <ele>172.8</ele>
        <time>2019-11-24T17:19:05Z</time>
      </trkpt>
      <trkpt lat="43.407847" lon="-5.813046">
        <ele>173</ele>
        <time>2019-11-24T17:19:06Z</time>
      </trkpt>
      <trkpt lat="43.407798" lon="-5.813007">
        <ele>172.8</ele>
        <time>2019-11-24T17:19:07Z</time>
      </trkpt>
      <trkpt lat="43.40775" lon="-5.812969">
        <ele>173.2</ele>
        <time>2019-11-24T17:19:08Z</time>
      </trkpt>
      <trkpt lat="43.407701" lon="-5.812933">
        <ele>172.4</ele>
        <time>2019-11-24T17:19:09Z</time>
      </trkpt>
      <trkpt lat="43.407653" lon="-5.812897">
        <ele>173.8</ele>
        <time>2019-11-24T17:19:10Z</time>
      </trkpt>
      <trkpt lat="43.407607" lon="-5.812862">
        <ele>173.8</ele>
        <time>2019-11-24T17:19:11Z</time>
      </trkpt>
      <trkpt lat="43.407559" lon="-5.812826">
        <ele>174</ele>
        <time>2019-11-24T17:19:12Z</time>
      </trkpt>
      <trkpt lat="43.40751" lon="-5.812789">
        <ele>173.8</ele>
        <time>2019-11-24T17:19:13Z</time>
      </trkpt>
      <trkpt lat="43.407461" lon="-5.812752">
        <ele>173.8</ele>
        <time>2019-11-24T17:19:14Z</time>
      </trkpt>
      <trkpt lat="43.407412" lon="-5.812716">
        <ele>174.2</ele>
        <time>2019-11-24T17:19:15Z</time>
      </trkpt>
      <trkpt lat="43.407363" lon="-5.81268">
        <ele>174.4</ele>
        <time>2019-11-24T17:19:16Z</time>
      </trkpt>
      <trkpt lat="43.407315" lon="-5.812643">
        <ele>174.6</ele>
        <time>2019-11-24T17:19:17Z</time>
      </trkpt>
      <trkpt lat="43.407267" lon="-5.812605">
        <ele>174.6</ele>
        <time>2019-11-24T17:19:18Z</time>
      </trkpt>
      <trkpt lat="43.407219" lon="-5.812568">
        <ele>175</ele>
        <time>2019-11-24T17:19:19Z</time>
      </trkpt>
      <trkpt lat="43.407171" lon="-5.812531">
        <ele>175.2</ele>
        <time>2019-11-24T17:19:20Z</time>
      </trkpt>
      <trkpt lat="43.407123" lon="-5.812492">
        <ele>175.4</ele>
        <time>2019-11-24T17:19:21Z</time>
      </trkpt>
      <trkpt lat="43.407075" lon="-5.812456">
        <ele>175.6</ele>
        <time>2019-11-24T17:19:22Z</time>
      </trkpt>
      <trkpt lat="43.407026" lon="-5.812421">
        <ele>175.6</ele>
        <time>2019-11-24T17:19:23Z</time>
      </trkpt>
      <trkpt lat="43.406977" lon="-5.812384">
        <ele>175.6</ele>
        <time>2019-11-24T17:19:24Z</time>
      </trkpt>
      <trkpt lat="43.406928" lon="-5.812346">
        <ele>175.8</ele>
        <time>2019-11-24T17:19:25Z</time>
      </trkpt>
      <trkpt lat="43.406879" lon="-5.81231">
        <ele>175.6</ele>
        <time>2019-11-24T17:19:26Z</time>
      </trkpt>
      <trkpt lat="43.406832" lon="-5.812273">
        <ele>175.8</ele>
        <time>2019-11-24T17:19:27Z</time>
      </trkpt>
      <trkpt lat="43.406782" lon="-5.812234">
        <ele>175.6</ele>
        <time>2019-11-24T17:19:28Z</time>
      </trkpt>
      <trkpt lat="43.40673" lon="-5.812196">
        <ele>175.6</ele>
        <time>2019-11-24T17:19:29Z</time>
      </trkpt>
      <trkpt lat="43.406677" lon="-5.812157">
        <ele>175.4</ele>
        <time>2019-11-24T17:19:30Z</time>
      </trkpt>
      <trkpt lat="43.406623" lon="-5.812117">
        <ele>175.2</ele>
        <time>2019-11-24T17:19:31Z</time>
      </trkpt>
      <trkpt lat="43.406567" lon="-5.812076">
        <ele>175.4</ele>
        <time>2019-11-24T17:19:32Z</time>
      </trkpt>
      <trkpt lat="43.406511" lon="-5.812035">
        <ele>175.2</ele>
        <time>2019-11-24T17:19:33Z</time>
      </trkpt>
      <trkpt lat="43.406455" lon="-5.811994">
        <ele>175.2</ele>
        <time>2019-11-24T17:19:34Z</time>
      </trkpt>
      <trkpt lat="43.406398" lon="-5.811951">
        <ele>175.2</ele>
        <time>2019-11-24T17:19:35Z</time>
      </trkpt>
      <trkpt lat="43.406341" lon="-5.811907">
        <ele>175.2</ele>
        <time>2019-11-24T17:19:36Z</time>
      </trkpt>
      <trkpt lat="43.406283" lon="-5.811863">
        <ele>175.2</ele>
        <time>2019-11-24T17:19:37Z</time>
      </trkpt>
      <trkpt lat="43.406226" lon="-5.811818">
        <ele>175.2</ele>
        <time>2019-11-24T17:19:38Z</time>
      </trkpt>
      <trkpt lat="43.406169" lon="-5.811774">
        <ele>175.2</ele>
        <time>2019-11-24T17:19:39Z</time>
      </trkpt>
      <trkpt lat="43.406111" lon="-5.811731">
        <ele>175.2</ele>
        <time>2019-11-24T17:19:40Z</time>
      </trkpt>
      <trkpt lat="43.406055" lon="-5.811688">
        <ele>175.2</ele>
        <time>2019-11-24T17:19:41Z</time>
      </trkpt>
      <trkpt lat="43.406" lon="-5.811646">
        <ele>175.2</ele>
        <time>2019-11-24T17:19:42Z</time>
      </trkpt>
      <trkpt lat="43.405947" lon="-5.811604">
        <ele>175</ele>
        <time>2019-11-24T17:19:43Z</time>
      </trkpt>
      <trkpt lat="43.405895" lon="-5.81156">
        <ele>175.2</ele>
        <time>2019-11-24T17:19:44Z</time>
      </trkpt>
      <trkpt lat="43.405845" lon="-5.811515">
        <ele>175.4</ele>
        <time>2019-11-24T17:19:45Z</time>
      </trkpt>
      <trkpt lat="43.405796" lon="-5.811467">
        <ele>175.4</ele>
        <time>2019-11-24T17:19:46Z</time>
      </trkpt>
      <trkpt lat="43.405749" lon="-5.811413">
        <ele>175.2</ele>
        <time>2019-11-24T17:19:47Z</time>
      </trkpt>
      <trkpt lat="43.405704" lon="-5.811355">
        <ele>175.2</ele>
        <time>2019-11-24T17:19:48Z</time>
      </trkpt>
      <trkpt lat="43.405661" lon="-5.811293">
        <ele>174.8</ele>
        <time>2019-11-24T17:19:49Z</time>
      </trkpt>
      <trkpt lat="43.405622" lon="-5.811229">
        <ele>174.6</ele>
        <time>2019-11-24T17:19:50Z</time>
      </trkpt>
      <trkpt lat="43.405584" lon="-5.811162">
        <ele>174.4</ele>
        <time>2019-11-24T17:19:51Z</time>
      </trkpt>
      <trkpt lat="43.405549" lon="-5.811091">
        <ele>174.8</ele>
        <time>2019-11-24T17:19:52Z</time>
      </trkpt>
      <trkpt lat="43.405513" lon="-5.81102">
        <ele>174.8</ele>
        <time>2019-11-24T17:19:53Z</time>
      </trkpt>
      <trkpt lat="43.405477" lon="-5.81095">
        <ele>174.8</ele>
        <time>2019-11-24T17:19:54Z</time>
      </trkpt>
      <trkpt lat="43.405442" lon="-5.81088">
        <ele>174.8</ele>
        <time>2019-11-24T17:19:55Z</time>
      </trkpt>
      <trkpt lat="43.405407" lon="-5.810811">
        <ele>174.6</ele>
        <time>2019-11-24T17:19:56Z</time>
      </trkpt>
      <trkpt lat="43.405372" lon="-5.810741">
        <ele>174.6</ele>
        <time>2019-11-24T17:19:57Z</time>
      </trkpt>
      <trkpt lat="43.405338" lon="-5.810672">
        <ele>174.8</ele>
        <time>2019-11-24T17:19:58Z</time>
      </trkpt>
      <trkpt lat="43.405302" lon="-5.810602">
        <ele>174.8</ele>
        <time>2019-11-24T17:19:59Z</time>
      </trkpt>
      <trkpt lat="43.405266" lon="-5.810531">
        <ele>174.8</ele>
        <time>2019-11-24T17:20:00Z</time>
      </trkpt>
      <trkpt lat="43.40523" lon="-5.81046">
        <ele>174.8</ele>
        <time>2019-11-24T17:20:01Z</time>
      </trkpt>
      <trkpt lat="43.405194" lon="-5.810389">
        <ele>174.6</ele>
        <time>2019-11-24T17:20:02Z</time>
      </trkpt>
      <trkpt lat="43.405157" lon="-5.810316">
        <ele>174.2</ele>
        <time>2019-11-24T17:20:03Z</time>
      </trkpt>
      <trkpt lat="43.405118" lon="-5.810242">
        <ele>173.8</ele>
        <time>2019-11-24T17:20:04Z</time>
      </trkpt>
      <trkpt lat="43.405079" lon="-5.810165">
        <ele>172.8</ele>
        <time>2019-11-24T17:20:05Z</time>
      </trkpt>
      <trkpt lat="43.405038" lon="-5.810084">
        <ele>173</ele>
        <time>2019-11-24T17:20:06Z</time>
      </trkpt>
      <trkpt lat="43.404996" lon="-5.81">
        <ele>172.2</ele>
        <time>2019-11-24T17:20:07Z</time>
      </trkpt>
      <trkpt lat="43.404953" lon="-5.809915">
        <ele>172</ele>
        <time>2019-11-24T17:20:08Z</time>
      </trkpt>
      <trkpt lat="43.404908" lon="-5.809828">
        <ele>171.8</ele>
        <time>2019-11-24T17:20:09Z</time>
      </trkpt>
      <trkpt lat="43.404862" lon="-5.809739">
        <ele>171.4</ele>
        <time>2019-11-24T17:20:10Z</time>
      </trkpt>
      <trkpt lat="43.404816" lon="-5.809648">
        <ele>170.8</ele>
        <time>2019-11-24T17:20:11Z</time>
      </trkpt>
      <trkpt lat="43.40477" lon="-5.809557">
        <ele>170</ele>
        <time>2019-11-24T17:20:12Z</time>
      </trkpt>
      <trkpt lat="43.404723" lon="-5.809465">
        <ele>169.4</ele>
        <time>2019-11-24T17:20:13Z</time>
      </trkpt>
      <trkpt lat="43.404674" lon="-5.809371">
        <ele>168.6</ele>
        <time>2019-11-24T17:20:14Z</time>
      </trkpt>
      <trkpt lat="43.404625" lon="-5.809276">
        <ele>168.2</ele>
        <time>2019-11-24T17:20:15Z</time>
      </trkpt>
      <trkpt lat="43.404575" lon="-5.80918">
        <ele>168</ele>
        <time>2019-11-24T17:20:16Z</time>
      </trkpt>
      <trkpt lat="43.404526" lon="-5.809082">
        <ele>167.2</ele>
        <time>2019-11-24T17:20:17Z</time>
      </trkpt>
      <trkpt lat="43.404476" lon="-5.808982">
        <ele>166.8</ele>
        <time>2019-11-24T17:20:18Z</time>
      </trkpt>
      <trkpt lat="43.404426" lon="-5.808883">
        <ele>166.2</ele>
        <time>2019-11-24T17:20:19Z</time>
      </trkpt>
      <trkpt lat="43.404377" lon="-5.80879">
        <ele>165.8</ele>
        <time>2019-11-24T17:20:20Z</time>
      </trkpt>
      <trkpt lat="43.404329" lon="-5.808701">
        <ele>165.4</ele>
        <time>2019-11-24T17:20:21Z</time>
      </trkpt>
      <trkpt lat="43.404281" lon="-5.808616">
        <ele>165.8</ele>
        <time>2019-11-24T17:20:22Z</time>
      </trkpt>
      <trkpt lat="43.40423" lon="-5.808535">
        <ele>165.4</ele>
        <time>2019-11-24T17:20:23Z</time>
      </trkpt>
      <trkpt lat="43.404166" lon="-5.808472">
        <ele>166</ele>
        <time>2019-11-24T17:20:24Z</time>
      </trkpt>
      <trkpt lat="43.404097" lon="-5.808427">
        <ele>166</ele>
        <time>2019-11-24T17:20:25Z</time>
      </trkpt>
      <trkpt lat="43.404029" lon="-5.808388">
        <ele>165.4</ele>
        <time>2019-11-24T17:20:26Z</time>
      </trkpt>
      <trkpt lat="43.403966" lon="-5.808345">
        <ele>166</ele>
        <time>2019-11-24T17:20:27Z</time>
      </trkpt>
      <trkpt lat="43.403906" lon="-5.808303">
        <ele>166</ele>
        <time>2019-11-24T17:20:28Z</time>
      </trkpt>
      <trkpt lat="43.403846" lon="-5.808268">
        <ele>164.8</ele>
        <time>2019-11-24T17:20:29Z</time>
      </trkpt>
      <trkpt lat="43.403783" lon="-5.808248">
        <ele>165.4</ele>
        <time>2019-11-24T17:20:30Z</time>
      </trkpt>
      <trkpt lat="43.403727" lon="-5.808249">
        <ele>165.4</ele>
        <time>2019-11-24T17:20:31Z</time>
      </trkpt>
      <trkpt lat="43.403687" lon="-5.808264">
        <ele>165.8</ele>
        <time>2019-11-24T17:20:32Z</time>
      </trkpt>
      <trkpt lat="43.403663" lon="-5.808277">
        <ele>166.2</ele>
        <time>2019-11-24T17:20:33Z</time>
      </trkpt>
      <trkpt lat="43.403649" lon="-5.808285">
        <ele>166.2</ele>
        <time>2019-11-24T17:20:34Z</time>
      </trkpt>
      <trkpt lat="43.403641" lon="-5.808289">
        <ele>166.2</ele>
        <time>2019-11-24T17:20:35Z</time>
      </trkpt>
      <trkpt lat="43.403638" lon="-5.808291">
        <ele>166.2</ele>
        <time>2019-11-24T17:20:36Z</time>
      </trkpt>
      <trkpt lat="43.403636" lon="-5.808291">
        <ele>166.2</ele>
        <time>2019-11-24T17:20:37Z</time>
      </trkpt>
      <trkpt lat="43.403606" lon="-5.808308">
        <ele>166.4</ele>
        <time>2019-11-24T17:20:54Z</time>
      </trkpt>
      <trkpt lat="43.403592" lon="-5.808317">
        <ele>166</ele>
        <time>2019-11-24T17:20:55Z</time>
      </trkpt>
      <trkpt lat="43.40358" lon="-5.808325">
        <ele>166</ele>
        <time>2019-11-24T17:20:56Z</time>
      </trkpt>
      <trkpt lat="43.403563" lon="-5.808337">
        <ele>166</ele>
        <time>2019-11-24T17:20:57Z</time>
      </trkpt>
      <trkpt lat="43.403536" lon="-5.808349">
        <ele>166</ele>
        <time>2019-11-24T17:20:58Z</time>
      </trkpt>
      <trkpt lat="43.403506" lon="-5.808362">
        <ele>166</ele>
        <time>2019-11-24T17:20:59Z</time>
      </trkpt>
      <trkpt lat="43.403473" lon="-5.808384">
        <ele>166.2</ele>
        <time>2019-11-24T17:21:00Z</time>
      </trkpt>
      <trkpt lat="43.403438" lon="-5.808412">
        <ele>166.2</ele>
        <time>2019-11-24T17:21:01Z</time>
      </trkpt>
      <trkpt lat="43.4034" lon="-5.80844">
        <ele>166</ele>
        <time>2019-11-24T17:21:02Z</time>
      </trkpt>
      <trkpt lat="43.403361" lon="-5.808472">
        <ele>165.8</ele>
        <time>2019-11-24T17:21:03Z</time>
      </trkpt>
      <trkpt lat="43.403317" lon="-5.808506">
        <ele>166</ele>
        <time>2019-11-24T17:21:04Z</time>
      </trkpt>
      <trkpt lat="43.403269" lon="-5.808541">
        <ele>166.2</ele>
        <time>2019-11-24T17:21:05Z</time>
      </trkpt>
      <trkpt lat="43.403223" lon="-5.808581">
        <ele>165.8</ele>
        <time>2019-11-24T17:21:06Z</time>
      </trkpt>
      <trkpt lat="43.403176" lon="-5.808623">
        <ele>166</ele>
        <time>2019-11-24T17:21:07Z</time>
      </trkpt>
      <trkpt lat="43.40313" lon="-5.808664">
        <ele>166</ele>
        <time>2019-11-24T17:21:08Z</time>
      </trkpt>
      <trkpt lat="43.403083" lon="-5.808704">
        <ele>166.4</ele>
        <time>2019-11-24T17:21:09Z</time>
      </trkpt>
      <trkpt lat="43.403038" lon="-5.808746">
        <ele>166.6</ele>
        <time>2019-11-24T17:21:10Z</time>
      </trkpt>
      <trkpt lat="43.402994" lon="-5.808786">
        <ele>166.4</ele>
        <time>2019-11-24T17:21:11Z</time>
      </trkpt>
      <trkpt lat="43.40295" lon="-5.808826">
        <ele>166.4</ele>
        <time>2019-11-24T17:21:12Z</time>
      </trkpt>
      <trkpt lat="43.402908" lon="-5.808865">
        <ele>167</ele>
        <time>2019-11-24T17:21:13Z</time>
      </trkpt>
      <trkpt lat="43.402866" lon="-5.808904">
        <ele>167</ele>
        <time>2019-11-24T17:21:14Z</time>
      </trkpt>
      <trkpt lat="43.402825" lon="-5.808941">
        <ele>167</ele>
        <time>2019-11-24T17:21:15Z</time>
      </trkpt>
      <trkpt lat="43.402783" lon="-5.808976">
        <ele>167.2</ele>
        <time>2019-11-24T17:21:16Z</time>
      </trkpt>
      <trkpt lat="43.402742" lon="-5.809013">
        <ele>167</ele>
        <time>2019-11-24T17:21:17Z</time>
      </trkpt>
      <trkpt lat="43.402703" lon="-5.80905">
        <ele>167</ele>
        <time>2019-11-24T17:21:18Z</time>
      </trkpt>
      <trkpt lat="43.402668" lon="-5.809085">
        <ele>167</ele>
        <time>2019-11-24T17:21:19Z</time>
      </trkpt>
      <trkpt lat="43.402629" lon="-5.809114">
        <ele>167.4</ele>
        <time>2019-11-24T17:21:20Z</time>
      </trkpt>
      <trkpt lat="43.402596" lon="-5.809143">
        <ele>167.6</ele>
        <time>2019-11-24T17:21:21Z</time>
      </trkpt>
      <trkpt lat="43.402567" lon="-5.809169">
        <ele>167.6</ele>
        <time>2019-11-24T17:21:22Z</time>
      </trkpt>
      <trkpt lat="43.402542" lon="-5.809194">
        <ele>167.6</ele>
        <time>2019-11-24T17:21:23Z</time>
      </trkpt>
      <trkpt lat="43.402529" lon="-5.809221">
        <ele>167.8</ele>
        <time>2019-11-24T17:21:24Z</time>
      </trkpt>
      <trkpt lat="43.402518" lon="-5.809246">
        <ele>167.8</ele>
        <time>2019-11-24T17:21:25Z</time>
      </trkpt>
      <trkpt lat="43.402506" lon="-5.809263">
        <ele>168</ele>
        <time>2019-11-24T17:21:26Z</time>
      </trkpt>
      <trkpt lat="43.402492" lon="-5.809277">
        <ele>168</ele>
        <time>2019-11-24T17:21:27Z</time>
      </trkpt>
      <trkpt lat="43.402484" lon="-5.809292">
        <ele>168</ele>
        <time>2019-11-24T17:21:28Z</time>
      </trkpt>
      <trkpt lat="43.402473" lon="-5.809299">
        <ele>168</ele>
        <time>2019-11-24T17:21:29Z</time>
      </trkpt>
      <trkpt lat="43.402461" lon="-5.809305">
        <ele>168</ele>
        <time>2019-11-24T17:21:30Z</time>
      </trkpt>
      <trkpt lat="43.402453" lon="-5.809309">
        <ele>167.8</ele>
        <time>2019-11-24T17:21:31Z</time>
      </trkpt>
      <trkpt lat="43.402446" lon="-5.809314">
        <ele>167.8</ele>
        <time>2019-11-24T17:21:32Z</time>
      </trkpt>
      <trkpt lat="43.40244" lon="-5.809318">
        <ele>167.6</ele>
        <time>2019-11-24T17:21:33Z</time>
      </trkpt>
      <trkpt lat="43.40243" lon="-5.809325">
        <ele>167.8</ele>
        <time>2019-11-24T17:21:34Z</time>
      </trkpt>
      <trkpt lat="43.402412" lon="-5.809335">
        <ele>167.8</ele>
        <time>2019-11-24T17:21:35Z</time>
      </trkpt>
      <trkpt lat="43.402395" lon="-5.809349">
        <ele>167.8</ele>
        <time>2019-11-24T17:21:36Z</time>
      </trkpt>
      <trkpt lat="43.402378" lon="-5.809361">
        <ele>168</ele>
        <time>2019-11-24T17:21:37Z</time>
      </trkpt>
      <trkpt lat="43.40236" lon="-5.809375">
        <ele>167.8</ele>
        <time>2019-11-24T17:21:38Z</time>
      </trkpt>
      <trkpt lat="43.402336" lon="-5.809394">
        <ele>167.8</ele>
        <time>2019-11-24T17:21:39Z</time>
      </trkpt>
      <trkpt lat="43.402305" lon="-5.809417">
        <ele>167.8</ele>
        <time>2019-11-24T17:21:40Z</time>
      </trkpt>
      <trkpt lat="43.40227" lon="-5.809443">
        <ele>167.8</ele>
        <time>2019-11-24T17:21:41Z</time>
      </trkpt>
      <trkpt lat="43.402232" lon="-5.809475">
        <ele>167.6</ele>
        <time>2019-11-24T17:21:42Z</time>
      </trkpt>
      <trkpt lat="43.402186" lon="-5.809511">
        <ele>167.6</ele>
        <time>2019-11-24T17:21:43Z</time>
      </trkpt>
      <trkpt lat="43.402136" lon="-5.809552">
        <ele>167.4</ele>
        <time>2019-11-24T17:21:44Z</time>
      </trkpt>
      <trkpt lat="43.402087" lon="-5.809599">
        <ele>167.2</ele>
        <time>2019-11-24T17:21:45Z</time>
      </trkpt>
      <trkpt lat="43.402037" lon="-5.809643">
        <ele>167.6</ele>
        <time>2019-11-24T17:21:46Z</time>
      </trkpt>
      <trkpt lat="43.401986" lon="-5.80969">
        <ele>167.8</ele>
        <time>2019-11-24T17:21:47Z</time>
      </trkpt>
      <trkpt lat="43.401933" lon="-5.809735">
        <ele>167.6</ele>
        <time>2019-11-24T17:21:48Z</time>
      </trkpt>
      <trkpt lat="43.401877" lon="-5.809779">
        <ele>167.6</ele>
        <time>2019-11-24T17:21:49Z</time>
      </trkpt>
      <trkpt lat="43.401824" lon="-5.809824">
        <ele>167.8</ele>
        <time>2019-11-24T17:21:50Z</time>
      </trkpt>
      <trkpt lat="43.401774" lon="-5.809869">
        <ele>168.2</ele>
        <time>2019-11-24T17:21:51Z</time>
      </trkpt>
      <trkpt lat="43.401725" lon="-5.809914">
        <ele>168</ele>
        <time>2019-11-24T17:21:52Z</time>
      </trkpt>
      <trkpt lat="43.401679" lon="-5.809958">
        <ele>168.4</ele>
        <time>2019-11-24T17:21:53Z</time>
      </trkpt>
      <trkpt lat="43.401632" lon="-5.810002">
        <ele>168.4</ele>
        <time>2019-11-24T17:21:54Z</time>
      </trkpt>
      <trkpt lat="43.401593" lon="-5.810051">
        <ele>168.6</ele>
        <time>2019-11-24T17:21:55Z</time>
      </trkpt>
      <trkpt lat="43.401548" lon="-5.810099">
        <ele>168.6</ele>
        <time>2019-11-24T17:21:56Z</time>
      </trkpt>
      <trkpt lat="43.401508" lon="-5.81015">
        <ele>168.8</ele>
        <time>2019-11-24T17:21:57Z</time>
      </trkpt>
      <trkpt lat="43.401461" lon="-5.810195">
        <ele>169</ele>
        <time>2019-11-24T17:21:58Z</time>
      </trkpt>
      <trkpt lat="43.401415" lon="-5.81024">
        <ele>168.8</ele>
        <time>2019-11-24T17:21:59Z</time>
      </trkpt>
      <trkpt lat="43.401367" lon="-5.810284">
        <ele>168.8</ele>
        <time>2019-11-24T17:22:00Z</time>
      </trkpt>
      <trkpt lat="43.401322" lon="-5.810331">
        <ele>168.6</ele>
        <time>2019-11-24T17:22:01Z</time>
      </trkpt>
      <trkpt lat="43.401281" lon="-5.810374">
        <ele>168.8</ele>
        <time>2019-11-24T17:22:02Z</time>
      </trkpt>
      <trkpt lat="43.401239" lon="-5.810422">
        <ele>169.6</ele>
        <time>2019-11-24T17:22:03Z</time>
      </trkpt>
      <trkpt lat="43.401192" lon="-5.810466">
        <ele>169.4</ele>
        <time>2019-11-24T17:22:04Z</time>
      </trkpt>
      <trkpt lat="43.401144" lon="-5.810508">
        <ele>169.4</ele>
        <time>2019-11-24T17:22:05Z</time>
      </trkpt>
      <trkpt lat="43.401097" lon="-5.81055">
        <ele>169.2</ele>
        <time>2019-11-24T17:22:06Z</time>
      </trkpt>
      <trkpt lat="43.401053" lon="-5.810592">
        <ele>169.4</ele>
        <time>2019-11-24T17:22:07Z</time>
      </trkpt>
      <trkpt lat="43.401007" lon="-5.810634">
        <ele>169.4</ele>
        <time>2019-11-24T17:22:08Z</time>
      </trkpt>
      <trkpt lat="43.400961" lon="-5.810676">
        <ele>169.4</ele>
        <time>2019-11-24T17:22:09Z</time>
      </trkpt>
      <trkpt lat="43.400913" lon="-5.810718">
        <ele>169.2</ele>
        <time>2019-11-24T17:22:10Z</time>
      </trkpt>
      <trkpt lat="43.400865" lon="-5.810761">
        <ele>169</ele>
        <time>2019-11-24T17:22:11Z</time>
      </trkpt>
      <trkpt lat="43.400818" lon="-5.810804">
        <ele>169.4</ele>
        <time>2019-11-24T17:22:12Z</time>
      </trkpt>
      <trkpt lat="43.400769" lon="-5.810849">
        <ele>168.8</ele>
        <time>2019-11-24T17:22:13Z</time>
      </trkpt>
      <trkpt lat="43.400722" lon="-5.810894">
        <ele>168.8</ele>
        <time>2019-11-24T17:22:14Z</time>
      </trkpt>
      <trkpt lat="43.400675" lon="-5.810935">
        <ele>168.6</ele>
        <time>2019-11-24T17:22:15Z</time>
      </trkpt>
      <trkpt lat="43.400633" lon="-5.810975">
        <ele>168</ele>
        <time>2019-11-24T17:22:16Z</time>
      </trkpt>
      <trkpt lat="43.400595" lon="-5.811026">
        <ele>167.4</ele>
        <time>2019-11-24T17:22:17Z</time>
      </trkpt>
      <trkpt lat="43.400567" lon="-5.81109">
        <ele>168.4</ele>
        <time>2019-11-24T17:22:18Z</time>
      </trkpt>
      <trkpt lat="43.400541" lon="-5.81116">
        <ele>168.2</ele>
        <time>2019-11-24T17:22:19Z</time>
      </trkpt>
      <trkpt lat="43.400503" lon="-5.81122">
        <ele>167.8</ele>
        <time>2019-11-24T17:22:20Z</time>
      </trkpt>
      <trkpt lat="43.400451" lon="-5.811261">
        <ele>167.8</ele>
        <time>2019-11-24T17:22:21Z</time>
      </trkpt>
      <trkpt lat="43.400393" lon="-5.811271">
        <ele>167.6</ele>
        <time>2019-11-24T17:22:22Z</time>
      </trkpt>
      <trkpt lat="43.400343" lon="-5.811242">
        <ele>167.8</ele>
        <time>2019-11-24T17:22:23Z</time>
      </trkpt>
      <trkpt lat="43.400311" lon="-5.811188">
        <ele>167.8</ele>
        <time>2019-11-24T17:22:24Z</time>
      </trkpt>
      <trkpt lat="43.400291" lon="-5.811127">
        <ele>167.4</ele>
        <time>2019-11-24T17:22:25Z</time>
      </trkpt>
      <trkpt lat="43.400276" lon="-5.811061">
        <ele>167.4</ele>
        <time>2019-11-24T17:22:26Z</time>
      </trkpt>
      <trkpt lat="43.400264" lon="-5.81099">
        <ele>167.6</ele>
        <time>2019-11-24T17:22:27Z</time>
      </trkpt>
      <trkpt lat="43.400252" lon="-5.810916">
        <ele>167.6</ele>
        <time>2019-11-24T17:22:28Z</time>
      </trkpt>
      <trkpt lat="43.40024" lon="-5.81084">
        <ele>167.6</ele>
        <time>2019-11-24T17:22:29Z</time>
      </trkpt>
      <trkpt lat="43.400225" lon="-5.810762">
        <ele>167.6</ele>
        <time>2019-11-24T17:22:30Z</time>
      </trkpt>
      <trkpt lat="43.400214" lon="-5.810683">
        <ele>168.2</ele>
        <time>2019-11-24T17:22:31Z</time>
      </trkpt>
      <trkpt lat="43.400208" lon="-5.810603">
        <ele>167.4</ele>
        <time>2019-11-24T17:22:32Z</time>
      </trkpt>
      <trkpt lat="43.400201" lon="-5.810524">
        <ele>167.6</ele>
        <time>2019-11-24T17:22:33Z</time>
      </trkpt>
      <trkpt lat="43.400196" lon="-5.810446">
        <ele>167.8</ele>
        <time>2019-11-24T17:22:34Z</time>
      </trkpt>
      <trkpt lat="43.40019" lon="-5.810372">
        <ele>167.6</ele>
        <time>2019-11-24T17:22:35Z</time>
      </trkpt>
      <trkpt lat="43.400187" lon="-5.810299">
        <ele>168.8</ele>
        <time>2019-11-24T17:22:36Z</time>
      </trkpt>
      <trkpt lat="43.400183" lon="-5.810228">
        <ele>168.6</ele>
        <time>2019-11-24T17:22:37Z</time>
      </trkpt>
      <trkpt lat="43.400186" lon="-5.810163">
        <ele>168.4</ele>
        <time>2019-11-24T17:22:38Z</time>
      </trkpt>
      <trkpt lat="43.400189" lon="-5.810098">
        <ele>167.8</ele>
        <time>2019-11-24T17:22:39Z</time>
      </trkpt>
      <trkpt lat="43.40019" lon="-5.810034">
        <ele>167.8</ele>
        <time>2019-11-24T17:22:40Z</time>
      </trkpt>
      <trkpt lat="43.400193" lon="-5.809968">
        <ele>168</ele>
        <time>2019-11-24T17:22:41Z</time>
      </trkpt>
      <trkpt lat="43.400196" lon="-5.8099">
        <ele>168.2</ele>
        <time>2019-11-24T17:22:42Z</time>
      </trkpt>
      <trkpt lat="43.400203" lon="-5.809833">
        <ele>168.2</ele>
        <time>2019-11-24T17:22:43Z</time>
      </trkpt>
      <trkpt lat="43.400212" lon="-5.809766">
        <ele>168.6</ele>
        <time>2019-11-24T17:22:44Z</time>
      </trkpt>
      <trkpt lat="43.400218" lon="-5.809698">
        <ele>167.8</ele>
        <time>2019-11-24T17:22:45Z</time>
      </trkpt>
      <trkpt lat="43.400217" lon="-5.809628">
        <ele>168.2</ele>
        <time>2019-11-24T17:22:46Z</time>
      </trkpt>
      <trkpt lat="43.400216" lon="-5.809557">
        <ele>168.6</ele>
        <time>2019-11-24T17:22:47Z</time>
      </trkpt>
      <trkpt lat="43.400218" lon="-5.809485">
        <ele>168</ele>
        <time>2019-11-24T17:22:48Z</time>
      </trkpt>
      <trkpt lat="43.400216" lon="-5.809413">
        <ele>168</ele>
        <time>2019-11-24T17:22:49Z</time>
      </trkpt>
      <trkpt lat="43.400212" lon="-5.809342">
        <ele>167.6</ele>
        <time>2019-11-24T17:22:50Z</time>
      </trkpt>
      <trkpt lat="43.400207" lon="-5.809272">
        <ele>169</ele>
        <time>2019-11-24T17:22:51Z</time>
      </trkpt>
      <trkpt lat="43.400204" lon="-5.809203">
        <ele>167.8</ele>
        <time>2019-11-24T17:22:52Z</time>
      </trkpt>
      <trkpt lat="43.400203" lon="-5.809133">
        <ele>168.6</ele>
        <time>2019-11-24T17:22:53Z</time>
      </trkpt>
      <trkpt lat="43.400201" lon="-5.80906">
        <ele>167.2</ele>
        <time>2019-11-24T17:22:54Z</time>
      </trkpt>
      <trkpt lat="43.400198" lon="-5.808988">
        <ele>167.8</ele>
        <time>2019-11-24T17:22:55Z</time>
      </trkpt>
      <trkpt lat="43.400194" lon="-5.808915">
        <ele>167.8</ele>
        <time>2019-11-24T17:22:56Z</time>
      </trkpt>
      <trkpt lat="43.40019" lon="-5.808845">
        <ele>168.6</ele>
        <time>2019-11-24T17:22:57Z</time>
      </trkpt>
      <trkpt lat="43.400184" lon="-5.808777">
        <ele>167.4</ele>
        <time>2019-11-24T17:22:58Z</time>
      </trkpt>
      <trkpt lat="43.400169" lon="-5.808714">
        <ele>167.8</ele>
        <time>2019-11-24T17:22:59Z</time>
      </trkpt>
      <trkpt lat="43.400141" lon="-5.808658">
        <ele>167.6</ele>
        <time>2019-11-24T17:23:00Z</time>
      </trkpt>
      <trkpt lat="43.40011" lon="-5.808603">
        <ele>167.6</ele>
        <time>2019-11-24T17:23:01Z</time>
      </trkpt>
      <trkpt lat="43.400088" lon="-5.80854">
        <ele>167.8</ele>
        <time>2019-11-24T17:23:02Z</time>
      </trkpt>
      <trkpt lat="43.40008" lon="-5.808471">
        <ele>167.8</ele>
        <time>2019-11-24T17:23:03Z</time>
      </trkpt>
      <trkpt lat="43.400088" lon="-5.808401">
        <ele>167.8</ele>
        <time>2019-11-24T17:23:04Z</time>
      </trkpt>
      <trkpt lat="43.400107" lon="-5.808333">
        <ele>167.8</ele>
        <time>2019-11-24T17:23:05Z</time>
      </trkpt>
      <trkpt lat="43.400129" lon="-5.808268">
        <ele>168</ele>
        <time>2019-11-24T17:23:06Z</time>
      </trkpt>
      <trkpt lat="43.400148" lon="-5.808202">
        <ele>168</ele>
        <time>2019-11-24T17:23:07Z</time>
      </trkpt>
      <trkpt lat="43.400158" lon="-5.808133">
        <ele>167.8</ele>
        <time>2019-11-24T17:23:08Z</time>
      </trkpt>
      <trkpt lat="43.400158" lon="-5.808062">
        <ele>167.8</ele>
        <time>2019-11-24T17:23:09Z</time>
      </trkpt>
      <trkpt lat="43.400155" lon="-5.80799">
        <ele>167.8</ele>
        <time>2019-11-24T17:23:10Z</time>
      </trkpt>
      <trkpt lat="43.400152" lon="-5.807917">
        <ele>168</ele>
        <time>2019-11-24T17:23:11Z</time>
      </trkpt>
      <trkpt lat="43.400148" lon="-5.807845">
        <ele>168.2</ele>
        <time>2019-11-24T17:23:12Z</time>
      </trkpt>
      <trkpt lat="43.400142" lon="-5.807774">
        <ele>168</ele>
        <time>2019-11-24T17:23:13Z</time>
      </trkpt>
      <trkpt lat="43.400138" lon="-5.807701">
        <ele>168.2</ele>
        <time>2019-11-24T17:23:14Z</time>
      </trkpt>
      <trkpt lat="43.400136" lon="-5.807629">
        <ele>167.8</ele>
        <time>2019-11-24T17:23:15Z</time>
      </trkpt>
      <trkpt lat="43.400133" lon="-5.807557">
        <ele>167.8</ele>
        <time>2019-11-24T17:23:16Z</time>
      </trkpt>
      <trkpt lat="43.40013" lon="-5.807483">
        <ele>167.8</ele>
        <time>2019-11-24T17:23:17Z</time>
      </trkpt>
      <trkpt lat="43.400126" lon="-5.807408">
        <ele>168</ele>
        <time>2019-11-24T17:23:18Z</time>
      </trkpt>
      <trkpt lat="43.400121" lon="-5.807334">
        <ele>167.8</ele>
        <time>2019-11-24T17:23:19Z</time>
      </trkpt>
      <trkpt lat="43.400115" lon="-5.807258">
        <ele>168.4</ele>
        <time>2019-11-24T17:23:20Z</time>
      </trkpt>
      <trkpt lat="43.400111" lon="-5.807181">
        <ele>168.2</ele>
        <time>2019-11-24T17:23:21Z</time>
      </trkpt>
      <trkpt lat="43.400107" lon="-5.807104">
        <ele>169.2</ele>
        <time>2019-11-24T17:23:22Z</time>
      </trkpt>
      <trkpt lat="43.400105" lon="-5.80703">
        <ele>168.4</ele>
        <time>2019-11-24T17:23:23Z</time>
      </trkpt>
      <trkpt lat="43.400102" lon="-5.806955">
        <ele>168.8</ele>
        <time>2019-11-24T17:23:24Z</time>
      </trkpt>
      <trkpt lat="43.4001" lon="-5.806878">
        <ele>168.8</ele>
        <time>2019-11-24T17:23:25Z</time>
      </trkpt>
      <trkpt lat="43.400097" lon="-5.8068">
        <ele>169.2</ele>
        <time>2019-11-24T17:23:26Z</time>
      </trkpt>
      <trkpt lat="43.40009" lon="-5.806729">
        <ele>168.4</ele>
        <time>2019-11-24T17:23:27Z</time>
      </trkpt>
      <trkpt lat="43.400085" lon="-5.806654">
        <ele>168.4</ele>
        <time>2019-11-24T17:23:28Z</time>
      </trkpt>
      <trkpt lat="43.400082" lon="-5.806579">
        <ele>169.4</ele>
        <time>2019-11-24T17:23:29Z</time>
      </trkpt>
      <trkpt lat="43.400078" lon="-5.806504">
        <ele>169</ele>
        <time>2019-11-24T17:23:30Z</time>
      </trkpt>
      <trkpt lat="43.400075" lon="-5.80643">
        <ele>169</ele>
        <time>2019-11-24T17:23:31Z</time>
      </trkpt>
      <trkpt lat="43.400072" lon="-5.806355">
        <ele>169.6</ele>
        <time>2019-11-24T17:23:32Z</time>
      </trkpt>
      <trkpt lat="43.400069" lon="-5.806281">
        <ele>169.8</ele>
        <time>2019-11-24T17:23:33Z</time>
      </trkpt>
      <trkpt lat="43.400066" lon="-5.806206">
        <ele>170.2</ele>
        <time>2019-11-24T17:23:34Z</time>
      </trkpt>
      <trkpt lat="43.400062" lon="-5.806131">
        <ele>170.2</ele>
        <time>2019-11-24T17:23:35Z</time>
      </trkpt>
      <trkpt lat="43.400059" lon="-5.806055">
        <ele>169.4</ele>
        <time>2019-11-24T17:23:36Z</time>
      </trkpt>
      <trkpt lat="43.400056" lon="-5.80598">
        <ele>169.8</ele>
        <time>2019-11-24T17:23:37Z</time>
      </trkpt>
      <trkpt lat="43.400052" lon="-5.805904">
        <ele>170.8</ele>
        <time>2019-11-24T17:23:38Z</time>
      </trkpt>
      <trkpt lat="43.400047" lon="-5.805829">
        <ele>170.2</ele>
        <time>2019-11-24T17:23:39Z</time>
      </trkpt>
      <trkpt lat="43.400043" lon="-5.805753">
        <ele>170.6</ele>
        <time>2019-11-24T17:23:40Z</time>
      </trkpt>
      <trkpt lat="43.400041" lon="-5.805678">
        <ele>171.8</ele>
        <time>2019-11-24T17:23:41Z</time>
      </trkpt>
      <trkpt lat="43.400038" lon="-5.805604">
        <ele>169.8</ele>
        <time>2019-11-24T17:23:42Z</time>
      </trkpt>
      <trkpt lat="43.400036" lon="-5.80553">
        <ele>169.8</ele>
        <time>2019-11-24T17:23:43Z</time>
      </trkpt>
      <trkpt lat="43.400033" lon="-5.805457">
        <ele>170.6</ele>
        <time>2019-11-24T17:23:44Z</time>
      </trkpt>
      <trkpt lat="43.400029" lon="-5.805385">
        <ele>170.6</ele>
        <time>2019-11-24T17:23:45Z</time>
      </trkpt>
      <trkpt lat="43.400027" lon="-5.805315">
        <ele>170.6</ele>
        <time>2019-11-24T17:23:46Z</time>
      </trkpt>
      <trkpt lat="43.400026" lon="-5.805245">
        <ele>171</ele>
        <time>2019-11-24T17:23:47Z</time>
      </trkpt>
      <trkpt lat="43.400023" lon="-5.805179">
        <ele>171</ele>
        <time>2019-11-24T17:23:48Z</time>
      </trkpt>
      <trkpt lat="43.40002" lon="-5.805115">
        <ele>171.2</ele>
        <time>2019-11-24T17:23:49Z</time>
      </trkpt>
      <trkpt lat="43.400016" lon="-5.805056">
        <ele>171.2</ele>
        <time>2019-11-24T17:23:50Z</time>
      </trkpt>
      <trkpt lat="43.400013" lon="-5.805001">
        <ele>171.4</ele>
        <time>2019-11-24T17:23:51Z</time>
      </trkpt>
      <trkpt lat="43.400009" lon="-5.804955">
        <ele>171</ele>
        <time>2019-11-24T17:23:52Z</time>
      </trkpt>
      <trkpt lat="43.400005" lon="-5.80492">
        <ele>171.6</ele>
        <time>2019-11-24T17:23:53Z</time>
      </trkpt>
      <trkpt lat="43.400001" lon="-5.804892">
        <ele>171.4</ele>
        <time>2019-11-24T17:23:54Z</time>
      </trkpt>
      <trkpt lat="43.399998" lon="-5.804866">
        <ele>171.6</ele>
        <time>2019-11-24T17:23:55Z</time>
      </trkpt>
      <trkpt lat="43.399997" lon="-5.804845">
        <ele>171.6</ele>
        <time>2019-11-24T17:23:56Z</time>
      </trkpt>
      <trkpt lat="43.399996" lon="-5.80483">
        <ele>171.8</ele>
        <time>2019-11-24T17:23:57Z</time>
      </trkpt>
      <trkpt lat="43.399996" lon="-5.804819">
        <ele>171.8</ele>
        <time>2019-11-24T17:23:58Z</time>
      </trkpt>
      <trkpt lat="43.399997" lon="-5.804814">
        <ele>171.8</ele>
        <time>2019-11-24T17:23:59Z</time>
      </trkpt>
      <trkpt lat="43.399997" lon="-5.804813">
        <ele>171.6</ele>
        <time>2019-11-24T17:24:00Z</time>
      </trkpt>
      <trkpt lat="43.399996" lon="-5.804783">
        <ele>171.2</ele>
        <time>2019-11-24T17:24:15Z</time>
      </trkpt>
      <trkpt lat="43.399997" lon="-5.804762">
        <ele>171.4</ele>
        <time>2019-11-24T17:24:16Z</time>
      </trkpt>
      <trkpt lat="43.399995" lon="-5.804737">
        <ele>171.2</ele>
        <time>2019-11-24T17:24:17Z</time>
      </trkpt>
      <trkpt lat="43.399992" lon="-5.804704">
        <ele>172.2</ele>
        <time>2019-11-24T17:24:18Z</time>
      </trkpt>
      <trkpt lat="43.39999" lon="-5.804665">
        <ele>172</ele>
        <time>2019-11-24T17:24:19Z</time>
      </trkpt>
      <trkpt lat="43.399989" lon="-5.80462">
        <ele>173.6</ele>
        <time>2019-11-24T17:24:20Z</time>
      </trkpt>
      <trkpt lat="43.399987" lon="-5.804571">
        <ele>172.8</ele>
        <time>2019-11-24T17:24:21Z</time>
      </trkpt>
      <trkpt lat="43.399984" lon="-5.804519">
        <ele>171</ele>
        <time>2019-11-24T17:24:22Z</time>
      </trkpt>
      <trkpt lat="43.399982" lon="-5.804465">
        <ele>170.4</ele>
        <time>2019-11-24T17:24:23Z</time>
      </trkpt>
      <trkpt lat="43.399982" lon="-5.804408">
        <ele>170.8</ele>
        <time>2019-11-24T17:24:24Z</time>
      </trkpt>
      <trkpt lat="43.399983" lon="-5.804348">
        <ele>172</ele>
        <time>2019-11-24T17:24:25Z</time>
      </trkpt>
      <trkpt lat="43.399982" lon="-5.804283">
        <ele>171.8</ele>
        <time>2019-11-24T17:24:26Z</time>
      </trkpt>
      <trkpt lat="43.39998" lon="-5.804215">
        <ele>172</ele>
        <time>2019-11-24T17:24:27Z</time>
      </trkpt>
      <trkpt lat="43.399976" lon="-5.804143">
        <ele>172.8</ele>
        <time>2019-11-24T17:24:28Z</time>
      </trkpt>
      <trkpt lat="43.399974" lon="-5.80407">
        <ele>171</ele>
        <time>2019-11-24T17:24:29Z</time>
      </trkpt>
      <trkpt lat="43.399971" lon="-5.803996">
        <ele>172.2</ele>
        <time>2019-11-24T17:24:30Z</time>
      </trkpt>
      <trkpt lat="43.399967" lon="-5.803921">
        <ele>172.8</ele>
        <time>2019-11-24T17:24:31Z</time>
      </trkpt>
      <trkpt lat="43.399964" lon="-5.803846">
        <ele>171.8</ele>
        <time>2019-11-24T17:24:32Z</time>
      </trkpt>
      <trkpt lat="43.399961" lon="-5.80377">
        <ele>173.8</ele>
        <time>2019-11-24T17:24:33Z</time>
      </trkpt>
      <trkpt lat="43.399958" lon="-5.803693">
        <ele>173</ele>
        <time>2019-11-24T17:24:34Z</time>
      </trkpt>
      <trkpt lat="43.399957" lon="-5.803619">
        <ele>172.6</ele>
        <time>2019-11-24T17:24:35Z</time>
      </trkpt>
      <trkpt lat="43.399954" lon="-5.803541">
        <ele>172.4</ele>
        <time>2019-11-24T17:24:36Z</time>
      </trkpt>
      <trkpt lat="43.399951" lon="-5.80346">
        <ele>171.2</ele>
        <time>2019-11-24T17:24:37Z</time>
      </trkpt>
      <trkpt lat="43.399947" lon="-5.803381">
        <ele>171.8</ele>
        <time>2019-11-24T17:24:38Z</time>
      </trkpt>
      <trkpt lat="43.399942" lon="-5.803302">
        <ele>171.2</ele>
        <time>2019-11-24T17:24:39Z</time>
      </trkpt>
      <trkpt lat="43.399939" lon="-5.803226">
        <ele>171.4</ele>
        <time>2019-11-24T17:24:40Z</time>
      </trkpt>
      <trkpt lat="43.399936" lon="-5.803148">
        <ele>172.2</ele>
        <time>2019-11-24T17:24:41Z</time>
      </trkpt>
      <trkpt lat="43.399936" lon="-5.803069">
        <ele>172.8</ele>
        <time>2019-11-24T17:24:42Z</time>
      </trkpt>
      <trkpt lat="43.399935" lon="-5.802988">
        <ele>173.6</ele>
        <time>2019-11-24T17:24:43Z</time>
      </trkpt>
      <trkpt lat="43.399934" lon="-5.802906">
        <ele>174</ele>
        <time>2019-11-24T17:24:44Z</time>
      </trkpt>
      <trkpt lat="43.399932" lon="-5.802824">
        <ele>174.2</ele>
        <time>2019-11-24T17:24:45Z</time>
      </trkpt>
      <trkpt lat="43.399929" lon="-5.802741">
        <ele>173.4</ele>
        <time>2019-11-24T17:24:46Z</time>
      </trkpt>
      <trkpt lat="43.399925" lon="-5.80266">
        <ele>173.2</ele>
        <time>2019-11-24T17:24:47Z</time>
      </trkpt>
      <trkpt lat="43.399921" lon="-5.802578">
        <ele>173.2</ele>
        <time>2019-11-24T17:24:48Z</time>
      </trkpt>
      <trkpt lat="43.399917" lon="-5.802496">
        <ele>174.2</ele>
        <time>2019-11-24T17:24:49Z</time>
      </trkpt>
      <trkpt lat="43.399914" lon="-5.802414">
        <ele>173.6</ele>
        <time>2019-11-24T17:24:50Z</time>
      </trkpt>
      <trkpt lat="43.39991" lon="-5.802332">
        <ele>172.6</ele>
        <time>2019-11-24T17:24:51Z</time>
      </trkpt>
      <trkpt lat="43.399906" lon="-5.80225">
        <ele>173.8</ele>
        <time>2019-11-24T17:24:52Z</time>
      </trkpt>
      <trkpt lat="43.399902" lon="-5.802167">
        <ele>174</ele>
        <time>2019-11-24T17:24:53Z</time>
      </trkpt>
      <trkpt lat="43.399899" lon="-5.802085">
        <ele>173.6</ele>
        <time>2019-11-24T17:24:54Z</time>
      </trkpt>
      <trkpt lat="43.399895" lon="-5.802001">
        <ele>173.6</ele>
        <time>2019-11-24T17:24:55Z</time>
      </trkpt>
      <trkpt lat="43.399891" lon="-5.801918">
        <ele>173.6</ele>
        <time>2019-11-24T17:24:56Z</time>
      </trkpt>
      <trkpt lat="43.399892" lon="-5.801841">
        <ele>174.6</ele>
        <time>2019-11-24T17:24:57Z</time>
      </trkpt>
      <trkpt lat="43.39989" lon="-5.801761">
        <ele>174.6</ele>
        <time>2019-11-24T17:24:58Z</time>
      </trkpt>
      <trkpt lat="43.399886" lon="-5.80168">
        <ele>175.2</ele>
        <time>2019-11-24T17:24:59Z</time>
      </trkpt>
      <trkpt lat="43.399881" lon="-5.801598">
        <ele>174.6</ele>
        <time>2019-11-24T17:25:00Z</time>
      </trkpt>
      <trkpt lat="43.399876" lon="-5.801515">
        <ele>175.2</ele>
        <time>2019-11-24T17:25:01Z</time>
      </trkpt>
      <trkpt lat="43.399872" lon="-5.801432">
        <ele>175</ele>
        <time>2019-11-24T17:25:02Z</time>
      </trkpt>
      <trkpt lat="43.399868" lon="-5.801347">
        <ele>175</ele>
        <time>2019-11-24T17:25:03Z</time>
      </trkpt>
      <trkpt lat="43.399864" lon="-5.801264">
        <ele>174.8</ele>
        <time>2019-11-24T17:25:04Z</time>
      </trkpt>
      <trkpt lat="43.399859" lon="-5.80118">
        <ele>175</ele>
        <time>2019-11-24T17:25:05Z</time>
      </trkpt>
      <trkpt lat="43.399856" lon="-5.801097">
        <ele>175</ele>
        <time>2019-11-24T17:25:06Z</time>
      </trkpt>
      <trkpt lat="43.399853" lon="-5.801016">
        <ele>174.8</ele>
        <time>2019-11-24T17:25:07Z</time>
      </trkpt>
      <trkpt lat="43.399849" lon="-5.800935">
        <ele>174.8</ele>
        <time>2019-11-24T17:25:08Z</time>
      </trkpt>
      <trkpt lat="43.399846" lon="-5.800853">
        <ele>174.8</ele>
        <time>2019-11-24T17:25:09Z</time>
      </trkpt>
      <trkpt lat="43.399842" lon="-5.80077">
        <ele>175</ele>
        <time>2019-11-24T17:25:10Z</time>
      </trkpt>
      <trkpt lat="43.39984" lon="-5.800686">
        <ele>174.6</ele>
        <time>2019-11-24T17:25:11Z</time>
      </trkpt>
      <trkpt lat="43.399837" lon="-5.800602">
        <ele>175.2</ele>
        <time>2019-11-24T17:25:12Z</time>
      </trkpt>
      <trkpt lat="43.399834" lon="-5.800516">
        <ele>174.8</ele>
        <time>2019-11-24T17:25:13Z</time>
      </trkpt>
      <trkpt lat="43.399831" lon="-5.80043">
        <ele>174.4</ele>
        <time>2019-11-24T17:25:14Z</time>
      </trkpt>
      <trkpt lat="43.399829" lon="-5.800342">
        <ele>174.4</ele>
        <time>2019-11-24T17:25:15Z</time>
      </trkpt>
      <trkpt lat="43.399826" lon="-5.800252">
        <ele>174</ele>
        <time>2019-11-24T17:25:16Z</time>
      </trkpt>
      <trkpt lat="43.399822" lon="-5.800161">
        <ele>174</ele>
        <time>2019-11-24T17:25:17Z</time>
      </trkpt>
      <trkpt lat="43.399816" lon="-5.800067">
        <ele>174</ele>
        <time>2019-11-24T17:25:18Z</time>
      </trkpt>
      <trkpt lat="43.39981" lon="-5.799972">
        <ele>173.6</ele>
        <time>2019-11-24T17:25:19Z</time>
      </trkpt>
      <trkpt lat="43.399804" lon="-5.799875">
        <ele>173.2</ele>
        <time>2019-11-24T17:25:20Z</time>
      </trkpt>
      <trkpt lat="43.399798" lon="-5.799777">
        <ele>172.4</ele>
        <time>2019-11-24T17:25:21Z</time>
      </trkpt>
      <trkpt lat="43.399792" lon="-5.799679">
        <ele>172.4</ele>
        <time>2019-11-24T17:25:22Z</time>
      </trkpt>
      <trkpt lat="43.399786" lon="-5.799577">
        <ele>172.4</ele>
        <time>2019-11-24T17:25:23Z</time>
      </trkpt>
      <trkpt lat="43.399782" lon="-5.799476">
        <ele>172.6</ele>
        <time>2019-11-24T17:25:24Z</time>
      </trkpt>
      <trkpt lat="43.399779" lon="-5.799375">
        <ele>172.6</ele>
        <time>2019-11-24T17:25:25Z</time>
      </trkpt>
      <trkpt lat="43.399778" lon="-5.799271">
        <ele>172.4</ele>
        <time>2019-11-24T17:25:26Z</time>
      </trkpt>
      <trkpt lat="43.399775" lon="-5.799164">
        <ele>172.2</ele>
        <time>2019-11-24T17:25:27Z</time>
      </trkpt>
      <trkpt lat="43.399773" lon="-5.799062">
        <ele>171.6</ele>
        <time>2019-11-24T17:25:28Z</time>
      </trkpt>
      <trkpt lat="43.399763" lon="-5.798978">
        <ele>171.8</ele>
        <time>2019-11-24T17:25:29Z</time>
      </trkpt>
      <trkpt lat="43.399755" lon="-5.798878">
        <ele>171.4</ele>
        <time>2019-11-24T17:25:30Z</time>
      </trkpt>
      <trkpt lat="43.399749" lon="-5.798777">
        <ele>171.6</ele>
        <time>2019-11-24T17:25:31Z</time>
      </trkpt>
      <trkpt lat="43.399743" lon="-5.798676">
        <ele>171.6</ele>
        <time>2019-11-24T17:25:32Z</time>
      </trkpt>
      <trkpt lat="43.399741" lon="-5.798575">
        <ele>171</ele>
        <time>2019-11-24T17:25:33Z</time>
      </trkpt>
      <trkpt lat="43.399737" lon="-5.798472">
        <ele>171.8</ele>
        <time>2019-11-24T17:25:34Z</time>
      </trkpt>
      <trkpt lat="43.399732" lon="-5.79837">
        <ele>171.8</ele>
        <time>2019-11-24T17:25:35Z</time>
      </trkpt>
      <trkpt lat="43.399729" lon="-5.79827">
        <ele>172.8</ele>
        <time>2019-11-24T17:25:36Z</time>
      </trkpt>
      <trkpt lat="43.399723" lon="-5.798169">
        <ele>171.6</ele>
        <time>2019-11-24T17:25:37Z</time>
      </trkpt>
      <trkpt lat="43.399718" lon="-5.798067">
        <ele>171.6</ele>
        <time>2019-11-24T17:25:38Z</time>
      </trkpt>
      <trkpt lat="43.399714" lon="-5.797965">
        <ele>171.8</ele>
        <time>2019-11-24T17:25:39Z</time>
      </trkpt>
      <trkpt lat="43.399708" lon="-5.797862">
        <ele>171.4</ele>
        <time>2019-11-24T17:25:40Z</time>
      </trkpt>
      <trkpt lat="43.399702" lon="-5.79776">
        <ele>171.2</ele>
        <time>2019-11-24T17:25:41Z</time>
      </trkpt>
      <trkpt lat="43.399699" lon="-5.797659">
        <ele>171</ele>
        <time>2019-11-24T17:25:42Z</time>
      </trkpt>
      <trkpt lat="43.399694" lon="-5.797557">
        <ele>171.2</ele>
        <time>2019-11-24T17:25:43Z</time>
      </trkpt>
      <trkpt lat="43.399689" lon="-5.797454">
        <ele>171.4</ele>
        <time>2019-11-24T17:25:44Z</time>
      </trkpt>
      <trkpt lat="43.399683" lon="-5.797351">
        <ele>171.4</ele>
        <time>2019-11-24T17:25:45Z</time>
      </trkpt>
      <trkpt lat="43.399678" lon="-5.797246">
        <ele>171.4</ele>
        <time>2019-11-24T17:25:46Z</time>
      </trkpt>
      <trkpt lat="43.399673" lon="-5.797141">
        <ele>171.4</ele>
        <time>2019-11-24T17:25:47Z</time>
      </trkpt>
      <trkpt lat="43.399669" lon="-5.797035">
        <ele>171.2</ele>
        <time>2019-11-24T17:25:48Z</time>
      </trkpt>
      <trkpt lat="43.399664" lon="-5.796931">
        <ele>171.4</ele>
        <time>2019-11-24T17:25:49Z</time>
      </trkpt>
      <trkpt lat="43.399659" lon="-5.796824">
        <ele>171.4</ele>
        <time>2019-11-24T17:25:50Z</time>
      </trkpt>
      <trkpt lat="43.399654" lon="-5.796719">
        <ele>171</ele>
        <time>2019-11-24T17:25:51Z</time>
      </trkpt>
      <trkpt lat="43.399649" lon="-5.796612">
        <ele>171.2</ele>
        <time>2019-11-24T17:25:52Z</time>
      </trkpt>
      <trkpt lat="43.399642" lon="-5.796505">
        <ele>171.4</ele>
        <time>2019-11-24T17:25:53Z</time>
      </trkpt>
      <trkpt lat="43.399635" lon="-5.796399">
        <ele>171.4</ele>
        <time>2019-11-24T17:25:54Z</time>
      </trkpt>
      <trkpt lat="43.39963" lon="-5.796294">
        <ele>171.4</ele>
        <time>2019-11-24T17:25:55Z</time>
      </trkpt>
      <trkpt lat="43.399626" lon="-5.796189">
        <ele>171.2</ele>
        <time>2019-11-24T17:25:56Z</time>
      </trkpt>
      <trkpt lat="43.399621" lon="-5.796085">
        <ele>171</ele>
        <time>2019-11-24T17:25:57Z</time>
      </trkpt>
      <trkpt lat="43.399615" lon="-5.79598">
        <ele>171</ele>
        <time>2019-11-24T17:25:58Z</time>
      </trkpt>
      <trkpt lat="43.399611" lon="-5.795877">
        <ele>171.2</ele>
        <time>2019-11-24T17:25:59Z</time>
      </trkpt>
      <trkpt lat="43.399605" lon="-5.795774">
        <ele>171.2</ele>
        <time>2019-11-24T17:26:00Z</time>
      </trkpt>
      <trkpt lat="43.399598" lon="-5.795672">
        <ele>171</ele>
        <time>2019-11-24T17:26:01Z</time>
      </trkpt>
      <trkpt lat="43.399592" lon="-5.795568">
        <ele>171</ele>
        <time>2019-11-24T17:26:02Z</time>
      </trkpt>
      <trkpt lat="43.399586" lon="-5.795465">
        <ele>170.8</ele>
        <time>2019-11-24T17:26:03Z</time>
      </trkpt>
      <trkpt lat="43.39958" lon="-5.795361">
        <ele>170.8</ele>
        <time>2019-11-24T17:26:04Z</time>
      </trkpt>
      <trkpt lat="43.399576" lon="-5.795257">
        <ele>170.8</ele>
        <time>2019-11-24T17:26:05Z</time>
      </trkpt>
      <trkpt lat="43.399571" lon="-5.795153">
        <ele>170.8</ele>
        <time>2019-11-24T17:26:06Z</time>
      </trkpt>
      <trkpt lat="43.399565" lon="-5.79505">
        <ele>170.6</ele>
        <time>2019-11-24T17:26:07Z</time>
      </trkpt>
      <trkpt lat="43.399559" lon="-5.794946">
        <ele>170.6</ele>
        <time>2019-11-24T17:26:08Z</time>
      </trkpt>
      <trkpt lat="43.399554" lon="-5.794841">
        <ele>170.4</ele>
        <time>2019-11-24T17:26:09Z</time>
      </trkpt>
      <trkpt lat="43.399549" lon="-5.794737">
        <ele>170.4</ele>
        <time>2019-11-24T17:26:10Z</time>
      </trkpt>
      <trkpt lat="43.399544" lon="-5.794632">
        <ele>170.6</ele>
        <time>2019-11-24T17:26:11Z</time>
      </trkpt>
      <trkpt lat="43.399539" lon="-5.794528">
        <ele>170.4</ele>
        <time>2019-11-24T17:26:12Z</time>
      </trkpt>
      <trkpt lat="43.399534" lon="-5.794424">
        <ele>170</ele>
        <time>2019-11-24T17:26:13Z</time>
      </trkpt>
      <trkpt lat="43.399529" lon="-5.79432">
        <ele>170.6</ele>
        <time>2019-11-24T17:26:14Z</time>
      </trkpt>
      <trkpt lat="43.399523" lon="-5.794215">
        <ele>170.8</ele>
        <time>2019-11-24T17:26:15Z</time>
      </trkpt>
      <trkpt lat="43.399518" lon="-5.79411">
        <ele>170.2</ele>
        <time>2019-11-24T17:26:16Z</time>
      </trkpt>
      <trkpt lat="43.399512" lon="-5.794004">
        <ele>170.6</ele>
        <time>2019-11-24T17:26:17Z</time>
      </trkpt>
      <trkpt lat="43.399508" lon="-5.7939">
        <ele>170.6</ele>
        <time>2019-11-24T17:26:18Z</time>
      </trkpt>
      <trkpt lat="43.399504" lon="-5.793796">
        <ele>170.4</ele>
        <time>2019-11-24T17:26:19Z</time>
      </trkpt>
      <trkpt lat="43.399497" lon="-5.793692">
        <ele>170</ele>
        <time>2019-11-24T17:26:20Z</time>
      </trkpt>
      <trkpt lat="43.399491" lon="-5.793587">
        <ele>170</ele>
        <time>2019-11-24T17:26:21Z</time>
      </trkpt>
      <trkpt lat="43.399486" lon="-5.793481">
        <ele>170</ele>
        <time>2019-11-24T17:26:22Z</time>
      </trkpt>
      <trkpt lat="43.399481" lon="-5.793375">
        <ele>171.2</ele>
        <time>2019-11-24T17:26:23Z</time>
      </trkpt>
      <trkpt lat="43.399477" lon="-5.79327">
        <ele>170.6</ele>
        <time>2019-11-24T17:26:24Z</time>
      </trkpt>
      <trkpt lat="43.399472" lon="-5.793165">
        <ele>170.4</ele>
        <time>2019-11-24T17:26:25Z</time>
      </trkpt>
      <trkpt lat="43.399466" lon="-5.793059">
        <ele>170.2</ele>
        <time>2019-11-24T17:26:26Z</time>
      </trkpt>
      <trkpt lat="43.399461" lon="-5.792954">
        <ele>170.2</ele>
        <time>2019-11-24T17:26:27Z</time>
      </trkpt>
      <trkpt lat="43.399457" lon="-5.79285">
        <ele>170</ele>
        <time>2019-11-24T17:26:28Z</time>
      </trkpt>
      <trkpt lat="43.399452" lon="-5.792745">
        <ele>170.2</ele>
        <time>2019-11-24T17:26:29Z</time>
      </trkpt>
      <trkpt lat="43.399448" lon="-5.792641">
        <ele>170</ele>
        <time>2019-11-24T17:26:30Z</time>
      </trkpt>
      <trkpt lat="43.399443" lon="-5.792537">
        <ele>170.6</ele>
        <time>2019-11-24T17:26:31Z</time>
      </trkpt>
      <trkpt lat="43.39944" lon="-5.792434">
        <ele>170.2</ele>
        <time>2019-11-24T17:26:32Z</time>
      </trkpt>
      <trkpt lat="43.399435" lon="-5.792331">
        <ele>169.2</ele>
        <time>2019-11-24T17:26:33Z</time>
      </trkpt>
      <trkpt lat="43.399429" lon="-5.792229">
        <ele>170.2</ele>
        <time>2019-11-24T17:26:34Z</time>
      </trkpt>
      <trkpt lat="43.399423" lon="-5.792128">
        <ele>170.6</ele>
        <time>2019-11-24T17:26:35Z</time>
      </trkpt>
      <trkpt lat="43.399419" lon="-5.792027">
        <ele>169.8</ele>
        <time>2019-11-24T17:26:36Z</time>
      </trkpt>
      <trkpt lat="43.399414" lon="-5.791926">
        <ele>170</ele>
        <time>2019-11-24T17:26:37Z</time>
      </trkpt>
      <trkpt lat="43.39941" lon="-5.791826">
        <ele>170.6</ele>
        <time>2019-11-24T17:26:38Z</time>
      </trkpt>
      <trkpt lat="43.399406" lon="-5.791726">
        <ele>169.8</ele>
        <time>2019-11-24T17:26:39Z</time>
      </trkpt>
      <trkpt lat="43.399402" lon="-5.791627">
        <ele>169.4</ele>
        <time>2019-11-24T17:26:40Z</time>
      </trkpt>
      <trkpt lat="43.399398" lon="-5.79153">
        <ele>170.2</ele>
        <time>2019-11-24T17:26:41Z</time>
      </trkpt>
      <trkpt lat="43.39939" lon="-5.791436">
        <ele>170</ele>
        <time>2019-11-24T17:26:42Z</time>
      </trkpt>
      <trkpt lat="43.399373" lon="-5.791348">
        <ele>170.8</ele>
        <time>2019-11-24T17:26:43Z</time>
      </trkpt>
      <trkpt lat="43.399347" lon="-5.791266">
        <ele>170.2</ele>
        <time>2019-11-24T17:26:44Z</time>
      </trkpt>
      <trkpt lat="43.399322" lon="-5.791187">
        <ele>170.4</ele>
        <time>2019-11-24T17:26:45Z</time>
      </trkpt>
      <trkpt lat="43.399309" lon="-5.7911">
        <ele>170</ele>
        <time>2019-11-24T17:26:46Z</time>
      </trkpt>
      <trkpt lat="43.399313" lon="-5.791009">
        <ele>170.4</ele>
        <time>2019-11-24T17:26:47Z</time>
      </trkpt>
      <trkpt lat="43.399327" lon="-5.79092">
        <ele>169.8</ele>
        <time>2019-11-24T17:26:48Z</time>
      </trkpt>
      <trkpt lat="43.399342" lon="-5.790828">
        <ele>169.8</ele>
        <time>2019-11-24T17:26:49Z</time>
      </trkpt>
      <trkpt lat="43.399353" lon="-5.790732">
        <ele>169.2</ele>
        <time>2019-11-24T17:26:50Z</time>
      </trkpt>
      <trkpt lat="43.399357" lon="-5.790631">
        <ele>169.8</ele>
        <time>2019-11-24T17:26:51Z</time>
      </trkpt>
      <trkpt lat="43.399354" lon="-5.790525">
        <ele>169.2</ele>
        <time>2019-11-24T17:26:52Z</time>
      </trkpt>
      <trkpt lat="43.399349" lon="-5.790419">
        <ele>169.2</ele>
        <time>2019-11-24T17:26:53Z</time>
      </trkpt>
      <trkpt lat="43.399345" lon="-5.790312">
        <ele>169.8</ele>
        <time>2019-11-24T17:26:54Z</time>
      </trkpt>
      <trkpt lat="43.39934" lon="-5.790204">
        <ele>169.8</ele>
        <time>2019-11-24T17:26:55Z</time>
      </trkpt>
      <trkpt lat="43.399334" lon="-5.790097">
        <ele>169.8</ele>
        <time>2019-11-24T17:26:56Z</time>
      </trkpt>
      <trkpt lat="43.399328" lon="-5.789994">
        <ele>169.4</ele>
        <time>2019-11-24T17:26:57Z</time>
      </trkpt>
      <trkpt lat="43.399321" lon="-5.789894">
        <ele>169.8</ele>
        <time>2019-11-24T17:26:58Z</time>
      </trkpt>
      <trkpt lat="43.399316" lon="-5.789796">
        <ele>170.2</ele>
        <time>2019-11-24T17:26:59Z</time>
      </trkpt>
      <trkpt lat="43.39931" lon="-5.7897">
        <ele>170.6</ele>
        <time>2019-11-24T17:27:00Z</time>
      </trkpt>
      <trkpt lat="43.399304" lon="-5.789605">
        <ele>170.6</ele>
        <time>2019-11-24T17:27:01Z</time>
      </trkpt>
      <trkpt lat="43.399299" lon="-5.789511">
        <ele>171</ele>
        <time>2019-11-24T17:27:02Z</time>
      </trkpt>
      <trkpt lat="43.399295" lon="-5.789417">
        <ele>171</ele>
        <time>2019-11-24T17:27:03Z</time>
      </trkpt>
      <trkpt lat="43.399291" lon="-5.789324">
        <ele>171.4</ele>
        <time>2019-11-24T17:27:04Z</time>
      </trkpt>
      <trkpt lat="43.399286" lon="-5.789232">
        <ele>171.6</ele>
        <time>2019-11-24T17:27:05Z</time>
      </trkpt>
      <trkpt lat="43.399282" lon="-5.789142">
        <ele>171.2</ele>
        <time>2019-11-24T17:27:06Z</time>
      </trkpt>
      <trkpt lat="43.399276" lon="-5.789051">
        <ele>172</ele>
        <time>2019-11-24T17:27:07Z</time>
      </trkpt>
      <trkpt lat="43.399272" lon="-5.788961">
        <ele>171.8</ele>
        <time>2019-11-24T17:27:08Z</time>
      </trkpt>
      <trkpt lat="43.399266" lon="-5.78887">
        <ele>171</ele>
        <time>2019-11-24T17:27:09Z</time>
      </trkpt>
      <trkpt lat="43.39926" lon="-5.788779">
        <ele>172</ele>
        <time>2019-11-24T17:27:10Z</time>
      </trkpt>
      <trkpt lat="43.399255" lon="-5.788688">
        <ele>173</ele>
        <time>2019-11-24T17:27:11Z</time>
      </trkpt>
      <trkpt lat="43.39925" lon="-5.788599">
        <ele>172.6</ele>
        <time>2019-11-24T17:27:12Z</time>
      </trkpt>
      <trkpt lat="43.399245" lon="-5.788511">
        <ele>172.8</ele>
        <time>2019-11-24T17:27:13Z</time>
      </trkpt>
      <trkpt lat="43.39924" lon="-5.788425">
        <ele>173.2</ele>
        <time>2019-11-24T17:27:14Z</time>
      </trkpt>
      <trkpt lat="43.399236" lon="-5.788339">
        <ele>173.2</ele>
        <time>2019-11-24T17:27:15Z</time>
      </trkpt>
      <trkpt lat="43.399232" lon="-5.788253">
        <ele>173.2</ele>
        <time>2019-11-24T17:27:16Z</time>
      </trkpt>
      <trkpt lat="43.399228" lon="-5.788167">
        <ele>173</ele>
        <time>2019-11-24T17:27:17Z</time>
      </trkpt>
      <trkpt lat="43.399223" lon="-5.788081">
        <ele>173.2</ele>
        <time>2019-11-24T17:27:18Z</time>
      </trkpt>
      <trkpt lat="43.399219" lon="-5.787994">
        <ele>173.2</ele>
        <time>2019-11-24T17:27:19Z</time>
      </trkpt>
      <trkpt lat="43.399215" lon="-5.787906">
        <ele>173.6</ele>
        <time>2019-11-24T17:27:20Z</time>
      </trkpt>
      <trkpt lat="43.399211" lon="-5.787818">
        <ele>173.8</ele>
        <time>2019-11-24T17:27:21Z</time>
      </trkpt>
      <trkpt lat="43.399207" lon="-5.787731">
        <ele>174</ele>
        <time>2019-11-24T17:27:22Z</time>
      </trkpt>
      <trkpt lat="43.399203" lon="-5.787643">
        <ele>174.2</ele>
        <time>2019-11-24T17:27:23Z</time>
      </trkpt>
      <trkpt lat="43.399199" lon="-5.787555">
        <ele>173.8</ele>
        <time>2019-11-24T17:27:24Z</time>
      </trkpt>
      <trkpt lat="43.399195" lon="-5.787467">
        <ele>174</ele>
        <time>2019-11-24T17:27:25Z</time>
      </trkpt>
      <trkpt lat="43.399191" lon="-5.787378">
        <ele>174</ele>
        <time>2019-11-24T17:27:26Z</time>
      </trkpt>
      <trkpt lat="43.399187" lon="-5.787289">
        <ele>174.4</ele>
        <time>2019-11-24T17:27:27Z</time>
      </trkpt>
      <trkpt lat="43.399183" lon="-5.7872">
        <ele>174.6</ele>
        <time>2019-11-24T17:27:28Z</time>
      </trkpt>
      <trkpt lat="43.399179" lon="-5.787112">
        <ele>175</ele>
        <time>2019-11-24T17:27:29Z</time>
      </trkpt>
      <trkpt lat="43.399176" lon="-5.787025">
        <ele>174.8</ele>
        <time>2019-11-24T17:27:30Z</time>
      </trkpt>
      <trkpt lat="43.399172" lon="-5.786937">
        <ele>174.6</ele>
        <time>2019-11-24T17:27:31Z</time>
      </trkpt>
      <trkpt lat="43.399167" lon="-5.786849">
        <ele>175</ele>
        <time>2019-11-24T17:27:32Z</time>
      </trkpt>
      <trkpt lat="43.399164" lon="-5.78676">
        <ele>175.2</ele>
        <time>2019-11-24T17:27:33Z</time>
      </trkpt>
      <trkpt lat="43.39916" lon="-5.78667">
        <ele>175.2</ele>
        <time>2019-11-24T17:27:34Z</time>
      </trkpt>
      <trkpt lat="43.399155" lon="-5.786581">
        <ele>175.2</ele>
        <time>2019-11-24T17:27:35Z</time>
      </trkpt>
      <trkpt lat="43.399151" lon="-5.786491">
        <ele>175.6</ele>
        <time>2019-11-24T17:27:36Z</time>
      </trkpt>
      <trkpt lat="43.399146" lon="-5.786401">
        <ele>175.2</ele>
        <time>2019-11-24T17:27:37Z</time>
      </trkpt>
      <trkpt lat="43.399141" lon="-5.786309">
        <ele>175.2</ele>
        <time>2019-11-24T17:27:38Z</time>
      </trkpt>
      <trkpt lat="43.399135" lon="-5.786216">
        <ele>175.2</ele>
        <time>2019-11-24T17:27:39Z</time>
      </trkpt>
      <trkpt lat="43.399131" lon="-5.786123">
        <ele>175.2</ele>
        <time>2019-11-24T17:27:40Z</time>
      </trkpt>
      <trkpt lat="43.399126" lon="-5.786028">
        <ele>175</ele>
        <time>2019-11-24T17:27:41Z</time>
      </trkpt>
      <trkpt lat="43.399122" lon="-5.785932">
        <ele>174.8</ele>
        <time>2019-11-24T17:27:42Z</time>
      </trkpt>
      <trkpt lat="43.399117" lon="-5.785836">
        <ele>175</ele>
        <time>2019-11-24T17:27:43Z</time>
      </trkpt>
      <trkpt lat="43.399112" lon="-5.78574">
        <ele>174.8</ele>
        <time>2019-11-24T17:27:44Z</time>
      </trkpt>
      <trkpt lat="43.399108" lon="-5.785641">
        <ele>174.8</ele>
        <time>2019-11-24T17:27:45Z</time>
      </trkpt>
      <trkpt lat="43.399104" lon="-5.785542">
        <ele>174.6</ele>
        <time>2019-11-24T17:27:46Z</time>
      </trkpt>
      <trkpt lat="43.399098" lon="-5.785441">
        <ele>174.6</ele>
        <time>2019-11-24T17:27:47Z</time>
      </trkpt>
      <trkpt lat="43.399093" lon="-5.78534">
        <ele>174.6</ele>
        <time>2019-11-24T17:27:48Z</time>
      </trkpt>
      <trkpt lat="43.399087" lon="-5.785237">
        <ele>174.4</ele>
        <time>2019-11-24T17:27:49Z</time>
      </trkpt>
      <trkpt lat="43.399082" lon="-5.785134">
        <ele>174.4</ele>
        <time>2019-11-24T17:27:50Z</time>
      </trkpt>
      <trkpt lat="43.399076" lon="-5.785031">
        <ele>174.6</ele>
        <time>2019-11-24T17:27:51Z</time>
      </trkpt>
      <trkpt lat="43.399071" lon="-5.784928">
        <ele>174.2</ele>
        <time>2019-11-24T17:27:52Z</time>
      </trkpt>
      <trkpt lat="43.399066" lon="-5.784826">
        <ele>174</ele>
        <time>2019-11-24T17:27:53Z</time>
      </trkpt>
      <trkpt lat="43.399061" lon="-5.784724">
        <ele>174.8</ele>
        <time>2019-11-24T17:27:54Z</time>
      </trkpt>
      <trkpt lat="43.399055" lon="-5.784622">
        <ele>174.4</ele>
        <time>2019-11-24T17:27:55Z</time>
      </trkpt>
      <trkpt lat="43.399049" lon="-5.784521">
        <ele>173.6</ele>
        <time>2019-11-24T17:27:56Z</time>
      </trkpt>
      <trkpt lat="43.399044" lon="-5.784419">
        <ele>174</ele>
        <time>2019-11-24T17:27:57Z</time>
      </trkpt>
      <trkpt lat="43.399039" lon="-5.784316">
        <ele>173.8</ele>
        <time>2019-11-24T17:27:58Z</time>
      </trkpt>
      <trkpt lat="43.399034" lon="-5.784213">
        <ele>173.8</ele>
        <time>2019-11-24T17:27:59Z</time>
      </trkpt>
      <trkpt lat="43.399027" lon="-5.78411">
        <ele>173.8</ele>
        <time>2019-11-24T17:28:00Z</time>
      </trkpt>
      <trkpt lat="43.399021" lon="-5.784007">
        <ele>173.8</ele>
        <time>2019-11-24T17:28:01Z</time>
      </trkpt>
      <trkpt lat="43.399015" lon="-5.783903">
        <ele>173.6</ele>
        <time>2019-11-24T17:28:02Z</time>
      </trkpt>
      <trkpt lat="43.39901" lon="-5.783798">
        <ele>173.2</ele>
        <time>2019-11-24T17:28:03Z</time>
      </trkpt>
      <trkpt lat="43.399005" lon="-5.783693">
        <ele>173</ele>
        <time>2019-11-24T17:28:04Z</time>
      </trkpt>
      <trkpt lat="43.399" lon="-5.783589">
        <ele>173.2</ele>
        <time>2019-11-24T17:28:05Z</time>
      </trkpt>
      <trkpt lat="43.398995" lon="-5.783487">
        <ele>173.2</ele>
        <time>2019-11-24T17:28:06Z</time>
      </trkpt>
      <trkpt lat="43.39899" lon="-5.783384">
        <ele>173.2</ele>
        <time>2019-11-24T17:28:07Z</time>
      </trkpt>
      <trkpt lat="43.398985" lon="-5.783281">
        <ele>173.2</ele>
        <time>2019-11-24T17:28:08Z</time>
      </trkpt>
      <trkpt lat="43.398979" lon="-5.783179">
        <ele>173.2</ele>
        <time>2019-11-24T17:28:09Z</time>
      </trkpt>
      <trkpt lat="43.398974" lon="-5.783076">
        <ele>173</ele>
        <time>2019-11-24T17:28:10Z</time>
      </trkpt>
      <trkpt lat="43.398968" lon="-5.782973">
        <ele>173</ele>
        <time>2019-11-24T17:28:11Z</time>
      </trkpt>
      <trkpt lat="43.398962" lon="-5.782871">
        <ele>173.4</ele>
        <time>2019-11-24T17:28:12Z</time>
      </trkpt>
      <trkpt lat="43.398954" lon="-5.782768">
        <ele>173</ele>
        <time>2019-11-24T17:28:13Z</time>
      </trkpt>
      <trkpt lat="43.398945" lon="-5.782664">
        <ele>173.2</ele>
        <time>2019-11-24T17:28:14Z</time>
      </trkpt>
      <trkpt lat="43.398934" lon="-5.782562">
        <ele>173.4</ele>
        <time>2019-11-24T17:28:15Z</time>
      </trkpt>
      <trkpt lat="43.39892" lon="-5.782462">
        <ele>173.6</ele>
        <time>2019-11-24T17:28:16Z</time>
      </trkpt>
      <trkpt lat="43.398906" lon="-5.782363">
        <ele>173.8</ele>
        <time>2019-11-24T17:28:17Z</time>
      </trkpt>
      <trkpt lat="43.39889" lon="-5.782265">
        <ele>174.4</ele>
        <time>2019-11-24T17:28:18Z</time>
      </trkpt>
      <trkpt lat="43.398876" lon="-5.782171">
        <ele>173.8</ele>
        <time>2019-11-24T17:28:19Z</time>
      </trkpt>
      <trkpt lat="43.398861" lon="-5.782078">
        <ele>174.4</ele>
        <time>2019-11-24T17:28:20Z</time>
      </trkpt>
      <trkpt lat="43.398845" lon="-5.781984">
        <ele>174.4</ele>
        <time>2019-11-24T17:28:21Z</time>
      </trkpt>
      <trkpt lat="43.398833" lon="-5.781892">
        <ele>174.8</ele>
        <time>2019-11-24T17:28:22Z</time>
      </trkpt>
      <trkpt lat="43.398819" lon="-5.781799">
        <ele>174.6</ele>
        <time>2019-11-24T17:28:23Z</time>
      </trkpt>
      <trkpt lat="43.398805" lon="-5.781708">
        <ele>174.6</ele>
        <time>2019-11-24T17:28:24Z</time>
      </trkpt>
      <trkpt lat="43.39879" lon="-5.781618">
        <ele>174.8</ele>
        <time>2019-11-24T17:28:25Z</time>
      </trkpt>
      <trkpt lat="43.398776" lon="-5.781528">
        <ele>175.2</ele>
        <time>2019-11-24T17:28:26Z</time>
      </trkpt>
      <trkpt lat="43.398762" lon="-5.78144">
        <ele>175.2</ele>
        <time>2019-11-24T17:28:27Z</time>
      </trkpt>
      <trkpt lat="43.398747" lon="-5.781351">
        <ele>175</ele>
        <time>2019-11-24T17:28:28Z</time>
      </trkpt>
      <trkpt lat="43.398734" lon="-5.781262">
        <ele>175</ele>
        <time>2019-11-24T17:28:29Z</time>
      </trkpt>
      <trkpt lat="43.39872" lon="-5.781173">
        <ele>175.2</ele>
        <time>2019-11-24T17:28:30Z</time>
      </trkpt>
      <trkpt lat="43.398707" lon="-5.781084">
        <ele>175.8</ele>
        <time>2019-11-24T17:28:31Z</time>
      </trkpt>
      <trkpt lat="43.398695" lon="-5.780995">
        <ele>175.6</ele>
        <time>2019-11-24T17:28:32Z</time>
      </trkpt>
      <trkpt lat="43.398683" lon="-5.780906">
        <ele>175.8</ele>
        <time>2019-11-24T17:28:33Z</time>
      </trkpt>
      <trkpt lat="43.398668" lon="-5.780816">
        <ele>176</ele>
        <time>2019-11-24T17:28:34Z</time>
      </trkpt>
      <trkpt lat="43.398653" lon="-5.780727">
        <ele>176</ele>
        <time>2019-11-24T17:28:35Z</time>
      </trkpt>
      <trkpt lat="43.398639" lon="-5.780637">
        <ele>175.8</ele>
        <time>2019-11-24T17:28:36Z</time>
      </trkpt>
      <trkpt lat="43.398625" lon="-5.780547">
        <ele>176.2</ele>
        <time>2019-11-24T17:28:37Z</time>
      </trkpt>
      <trkpt lat="43.39861" lon="-5.780456">
        <ele>176.4</ele>
        <time>2019-11-24T17:28:38Z</time>
      </trkpt>
      <trkpt lat="43.398596" lon="-5.780364">
        <ele>176.4</ele>
        <time>2019-11-24T17:28:39Z</time>
      </trkpt>
      <trkpt lat="43.398584" lon="-5.780273">
        <ele>176.4</ele>
        <time>2019-11-24T17:28:40Z</time>
      </trkpt>
      <trkpt lat="43.39857" lon="-5.78018">
        <ele>176.6</ele>
        <time>2019-11-24T17:28:41Z</time>
      </trkpt>
      <trkpt lat="43.398555" lon="-5.780088">
        <ele>177</ele>
        <time>2019-11-24T17:28:42Z</time>
      </trkpt>
      <trkpt lat="43.39854" lon="-5.779996">
        <ele>177.4</ele>
        <time>2019-11-24T17:28:43Z</time>
      </trkpt>
      <trkpt lat="43.398526" lon="-5.779904">
        <ele>177.8</ele>
        <time>2019-11-24T17:28:44Z</time>
      </trkpt>
      <trkpt lat="43.398514" lon="-5.779813">
        <ele>177.4</ele>
        <time>2019-11-24T17:28:45Z</time>
      </trkpt>
      <trkpt lat="43.398502" lon="-5.779723">
        <ele>177.4</ele>
        <time>2019-11-24T17:28:46Z</time>
      </trkpt>
      <trkpt lat="43.398489" lon="-5.779633">
        <ele>177.2</ele>
        <time>2019-11-24T17:28:47Z</time>
      </trkpt>
      <trkpt lat="43.398475" lon="-5.779544">
        <ele>177.4</ele>
        <time>2019-11-24T17:28:48Z</time>
      </trkpt>
      <trkpt lat="43.398461" lon="-5.779455">
        <ele>177.8</ele>
        <time>2019-11-24T17:28:49Z</time>
      </trkpt>
      <trkpt lat="43.398447" lon="-5.779365">
        <ele>178.4</ele>
        <time>2019-11-24T17:28:50Z</time>
      </trkpt>
      <trkpt lat="43.398433" lon="-5.779274">
        <ele>178.2</ele>
        <time>2019-11-24T17:28:51Z</time>
      </trkpt>
      <trkpt lat="43.398418" lon="-5.779183">
        <ele>178.2</ele>
        <time>2019-11-24T17:28:52Z</time>
      </trkpt>
      <trkpt lat="43.398403" lon="-5.779092">
        <ele>178.6</ele>
        <time>2019-11-24T17:28:53Z</time>
      </trkpt>
      <trkpt lat="43.39839" lon="-5.779">
        <ele>179</ele>
        <time>2019-11-24T17:28:54Z</time>
      </trkpt>
      <trkpt lat="43.398377" lon="-5.778905">
        <ele>178.8</ele>
        <time>2019-11-24T17:28:55Z</time>
      </trkpt>
      <trkpt lat="43.398364" lon="-5.778809">
        <ele>179</ele>
        <time>2019-11-24T17:28:56Z</time>
      </trkpt>
      <trkpt lat="43.398349" lon="-5.778713">
        <ele>179</ele>
        <time>2019-11-24T17:28:57Z</time>
      </trkpt>
      <trkpt lat="43.398335" lon="-5.778619">
        <ele>178.6</ele>
        <time>2019-11-24T17:28:58Z</time>
      </trkpt>
      <trkpt lat="43.39832" lon="-5.778526">
        <ele>178.8</ele>
        <time>2019-11-24T17:28:59Z</time>
      </trkpt>
      <trkpt lat="43.398305" lon="-5.77843">
        <ele>178.8</ele>
        <time>2019-11-24T17:29:00Z</time>
      </trkpt>
      <trkpt lat="43.39829" lon="-5.778336">
        <ele>179</ele>
        <time>2019-11-24T17:29:01Z</time>
      </trkpt>
      <trkpt lat="43.398275" lon="-5.778241">
        <ele>179</ele>
        <time>2019-11-24T17:29:02Z</time>
      </trkpt>
      <trkpt lat="43.39826" lon="-5.778144">
        <ele>179</ele>
        <time>2019-11-24T17:29:03Z</time>
      </trkpt>
      <trkpt lat="43.398244" lon="-5.778047">
        <ele>179</ele>
        <time>2019-11-24T17:29:04Z</time>
      </trkpt>
      <trkpt lat="43.39823" lon="-5.77795">
        <ele>178.8</ele>
        <time>2019-11-24T17:29:05Z</time>
      </trkpt>
      <trkpt lat="43.398215" lon="-5.777853">
        <ele>179</ele>
        <time>2019-11-24T17:29:06Z</time>
      </trkpt>
      <trkpt lat="43.3982" lon="-5.777755">
        <ele>179</ele>
        <time>2019-11-24T17:29:07Z</time>
      </trkpt>
      <trkpt lat="43.398186" lon="-5.777658">
        <ele>178.8</ele>
        <time>2019-11-24T17:29:08Z</time>
      </trkpt>
      <trkpt lat="43.398171" lon="-5.777563">
        <ele>178.8</ele>
        <time>2019-11-24T17:29:09Z</time>
      </trkpt>
      <trkpt lat="43.398155" lon="-5.777467">
        <ele>178.4</ele>
        <time>2019-11-24T17:29:10Z</time>
      </trkpt>
      <trkpt lat="43.39814" lon="-5.777372">
        <ele>178.6</ele>
        <time>2019-11-24T17:29:11Z</time>
      </trkpt>
      <trkpt lat="43.398125" lon="-5.777276">
        <ele>178.6</ele>
        <time>2019-11-24T17:29:12Z</time>
      </trkpt>
      <trkpt lat="43.398111" lon="-5.777181">
        <ele>178.4</ele>
        <time>2019-11-24T17:29:13Z</time>
      </trkpt>
      <trkpt lat="43.398096" lon="-5.777087">
        <ele>178.2</ele>
        <time>2019-11-24T17:29:14Z</time>
      </trkpt>
      <trkpt lat="43.398081" lon="-5.776992">
        <ele>178.2</ele>
        <time>2019-11-24T17:29:15Z</time>
      </trkpt>
      <trkpt lat="43.398064" lon="-5.776898">
        <ele>178</ele>
        <time>2019-11-24T17:29:16Z</time>
      </trkpt>
      <trkpt lat="43.398048" lon="-5.776803">
        <ele>177.6</ele>
        <time>2019-11-24T17:29:17Z</time>
      </trkpt>
      <trkpt lat="43.398032" lon="-5.776707">
        <ele>177.6</ele>
        <time>2019-11-24T17:29:18Z</time>
      </trkpt>
      <trkpt lat="43.398017" lon="-5.776609">
        <ele>177.6</ele>
        <time>2019-11-24T17:29:19Z</time>
      </trkpt>
      <trkpt lat="43.398001" lon="-5.77651">
        <ele>177.6</ele>
        <time>2019-11-24T17:29:20Z</time>
      </trkpt>
      <trkpt lat="43.397986" lon="-5.776411">
        <ele>177.2</ele>
        <time>2019-11-24T17:29:21Z</time>
      </trkpt>
      <trkpt lat="43.397971" lon="-5.776312">
        <ele>176.8</ele>
        <time>2019-11-24T17:29:22Z</time>
      </trkpt>
      <trkpt lat="43.397954" lon="-5.776213">
        <ele>176.8</ele>
        <time>2019-11-24T17:29:23Z</time>
      </trkpt>
      <trkpt lat="43.39794" lon="-5.776115">
        <ele>177</ele>
        <time>2019-11-24T17:29:24Z</time>
      </trkpt>
      <trkpt lat="43.397928" lon="-5.776019">
        <ele>177.6</ele>
        <time>2019-11-24T17:29:25Z</time>
      </trkpt>
      <trkpt lat="43.397917" lon="-5.775922">
        <ele>177.4</ele>
        <time>2019-11-24T17:29:26Z</time>
      </trkpt>
      <trkpt lat="43.397911" lon="-5.775826">
        <ele>177.2</ele>
        <time>2019-11-24T17:29:27Z</time>
      </trkpt>
      <trkpt lat="43.39791" lon="-5.77573">
        <ele>177.2</ele>
        <time>2019-11-24T17:29:28Z</time>
      </trkpt>
      <trkpt lat="43.397914" lon="-5.775632">
        <ele>177</ele>
        <time>2019-11-24T17:29:29Z</time>
      </trkpt>
      <trkpt lat="43.397918" lon="-5.775534">
        <ele>176.8</ele>
        <time>2019-11-24T17:29:30Z</time>
      </trkpt>
      <trkpt lat="43.397919" lon="-5.775433">
        <ele>176.4</ele>
        <time>2019-11-24T17:29:31Z</time>
      </trkpt>
      <trkpt lat="43.397917" lon="-5.775332">
        <ele>176.2</ele>
        <time>2019-11-24T17:29:32Z</time>
      </trkpt>
      <trkpt lat="43.39791" lon="-5.775229">
        <ele>176</ele>
        <time>2019-11-24T17:29:33Z</time>
      </trkpt>
      <trkpt lat="43.397898" lon="-5.775128">
        <ele>176</ele>
        <time>2019-11-24T17:29:34Z</time>
      </trkpt>
      <trkpt lat="43.397881" lon="-5.775029">
        <ele>175.6</ele>
        <time>2019-11-24T17:29:35Z</time>
      </trkpt>
      <trkpt lat="43.397861" lon="-5.774934">
        <ele>175.4</ele>
        <time>2019-11-24T17:29:36Z</time>
      </trkpt>
      <trkpt lat="43.397835" lon="-5.774848">
        <ele>175.2</ele>
        <time>2019-11-24T17:29:37Z</time>
      </trkpt>
      <trkpt lat="43.397798" lon="-5.774779">
        <ele>175</ele>
        <time>2019-11-24T17:29:38Z</time>
      </trkpt>
      <trkpt lat="43.397748" lon="-5.774732">
        <ele>174.8</ele>
        <time>2019-11-24T17:29:39Z</time>
      </trkpt>
      <trkpt lat="43.397689" lon="-5.7747">
        <ele>174.6</ele>
        <time>2019-11-24T17:29:40Z</time>
      </trkpt>
      <trkpt lat="43.397626" lon="-5.774665">
        <ele>174.6</ele>
        <time>2019-11-24T17:29:41Z</time>
      </trkpt>
      <trkpt lat="43.397566" lon="-5.774614">
        <ele>174</ele>
        <time>2019-11-24T17:29:42Z</time>
      </trkpt>
      <trkpt lat="43.397509" lon="-5.77455">
        <ele>173.4</ele>
        <time>2019-11-24T17:29:43Z</time>
      </trkpt>
      <trkpt lat="43.397455" lon="-5.774477">
        <ele>173.4</ele>
        <time>2019-11-24T17:29:44Z</time>
      </trkpt>
      <trkpt lat="43.397397" lon="-5.774402">
        <ele>173.4</ele>
        <time>2019-11-24T17:29:45Z</time>
      </trkpt>
      <trkpt lat="43.397336" lon="-5.774329">
        <ele>173.2</ele>
        <time>2019-11-24T17:29:46Z</time>
      </trkpt>
      <trkpt lat="43.397273" lon="-5.774259">
        <ele>173.8</ele>
        <time>2019-11-24T17:29:47Z</time>
      </trkpt>
      <trkpt lat="43.397213" lon="-5.774192">
        <ele>174.2</ele>
        <time>2019-11-24T17:29:48Z</time>
      </trkpt>
      <trkpt lat="43.397156" lon="-5.774129">
        <ele>175.2</ele>
        <time>2019-11-24T17:29:49Z</time>
      </trkpt>
      <trkpt lat="43.397101" lon="-5.77407">
        <ele>176.4</ele>
        <time>2019-11-24T17:29:50Z</time>
      </trkpt>
      <trkpt lat="43.397045" lon="-5.774012">
        <ele>176.6</ele>
        <time>2019-11-24T17:29:51Z</time>
      </trkpt>
      <trkpt lat="43.396991" lon="-5.773955">
        <ele>177.4</ele>
        <time>2019-11-24T17:29:52Z</time>
      </trkpt>
      <trkpt lat="43.396937" lon="-5.773894">
        <ele>177.6</ele>
        <time>2019-11-24T17:29:53Z</time>
      </trkpt>
      <trkpt lat="43.396879" lon="-5.77383">
        <ele>177.4</ele>
        <time>2019-11-24T17:29:54Z</time>
      </trkpt>
      <trkpt lat="43.396819" lon="-5.773766">
        <ele>177.2</ele>
        <time>2019-11-24T17:29:55Z</time>
      </trkpt>
      <trkpt lat="43.39676" lon="-5.773702">
        <ele>176.6</ele>
        <time>2019-11-24T17:29:56Z</time>
      </trkpt>
      <trkpt lat="43.396701" lon="-5.77364">
        <ele>177</ele>
        <time>2019-11-24T17:29:57Z</time>
      </trkpt>
      <trkpt lat="43.396643" lon="-5.773579">
        <ele>178.2</ele>
        <time>2019-11-24T17:29:58Z</time>
      </trkpt>
      <trkpt lat="43.396586" lon="-5.773515">
        <ele>177.2</ele>
        <time>2019-11-24T17:29:59Z</time>
      </trkpt>
      <trkpt lat="43.396528" lon="-5.773448">
        <ele>177.2</ele>
        <time>2019-11-24T17:30:00Z</time>
      </trkpt>
      <trkpt lat="43.396469" lon="-5.773381">
        <ele>177.8</ele>
        <time>2019-11-24T17:30:01Z</time>
      </trkpt>
      <trkpt lat="43.396409" lon="-5.773313">
        <ele>177.8</ele>
        <time>2019-11-24T17:30:02Z</time>
      </trkpt>
      <trkpt lat="43.396351" lon="-5.773244">
        <ele>178.2</ele>
        <time>2019-11-24T17:30:03Z</time>
      </trkpt>
      <trkpt lat="43.396293" lon="-5.773174">
        <ele>178.2</ele>
        <time>2019-11-24T17:30:04Z</time>
      </trkpt>
      <trkpt lat="43.396237" lon="-5.773103">
        <ele>178</ele>
        <time>2019-11-24T17:30:05Z</time>
      </trkpt>
      <trkpt lat="43.396183" lon="-5.773028">
        <ele>178.4</ele>
        <time>2019-11-24T17:30:06Z</time>
      </trkpt>
      <trkpt lat="43.39613" lon="-5.772951">
        <ele>178.4</ele>
        <time>2019-11-24T17:30:07Z</time>
      </trkpt>
      <trkpt lat="43.39608" lon="-5.772872">
        <ele>178.4</ele>
        <time>2019-11-24T17:30:08Z</time>
      </trkpt>
      <trkpt lat="43.396032" lon="-5.772789">
        <ele>178</ele>
        <time>2019-11-24T17:30:09Z</time>
      </trkpt>
      <trkpt lat="43.395986" lon="-5.772704">
        <ele>178.6</ele>
        <time>2019-11-24T17:30:10Z</time>
      </trkpt>
      <trkpt lat="43.395942" lon="-5.772616">
        <ele>178.2</ele>
        <time>2019-11-24T17:30:11Z</time>
      </trkpt>
      <trkpt lat="43.395901" lon="-5.772529">
        <ele>178.2</ele>
        <time>2019-11-24T17:30:12Z</time>
      </trkpt>
      <trkpt lat="43.395863" lon="-5.772445">
        <ele>178.6</ele>
        <time>2019-11-24T17:30:13Z</time>
      </trkpt>
      <trkpt lat="43.39583" lon="-5.77236">
        <ele>178.8</ele>
        <time>2019-11-24T17:30:14Z</time>
      </trkpt>
      <trkpt lat="43.395798" lon="-5.772274">
        <ele>179.6</ele>
        <time>2019-11-24T17:30:15Z</time>
      </trkpt>
      <trkpt lat="43.395766" lon="-5.772186">
        <ele>179.2</ele>
        <time>2019-11-24T17:30:16Z</time>
      </trkpt>
      <trkpt lat="43.395734" lon="-5.772097">
        <ele>179</ele>
        <time>2019-11-24T17:30:17Z</time>
      </trkpt>
      <trkpt lat="43.395703" lon="-5.772006">
        <ele>179.2</ele>
        <time>2019-11-24T17:30:18Z</time>
      </trkpt>
      <trkpt lat="43.395674" lon="-5.771912">
        <ele>178.8</ele>
        <time>2019-11-24T17:30:19Z</time>
      </trkpt>
      <trkpt lat="43.395645" lon="-5.771818">
        <ele>178.6</ele>
        <time>2019-11-24T17:30:20Z</time>
      </trkpt>
      <trkpt lat="43.395616" lon="-5.771722">
        <ele>179.2</ele>
        <time>2019-11-24T17:30:21Z</time>
      </trkpt>
      <trkpt lat="43.395586" lon="-5.771626">
        <ele>179.2</ele>
        <time>2019-11-24T17:30:22Z</time>
      </trkpt>
      <trkpt lat="43.395555" lon="-5.77153">
        <ele>179</ele>
        <time>2019-11-24T17:30:23Z</time>
      </trkpt>
      <trkpt lat="43.395525" lon="-5.771435">
        <ele>179.2</ele>
        <time>2019-11-24T17:30:24Z</time>
      </trkpt>
      <trkpt lat="43.395495" lon="-5.771341">
        <ele>179.4</ele>
        <time>2019-11-24T17:30:25Z</time>
      </trkpt>
      <trkpt lat="43.395465" lon="-5.771248">
        <ele>179.2</ele>
        <time>2019-11-24T17:30:26Z</time>
      </trkpt>
      <trkpt lat="43.395434" lon="-5.771153">
        <ele>179.2</ele>
        <time>2019-11-24T17:30:27Z</time>
      </trkpt>
      <trkpt lat="43.395407" lon="-5.771063">
        <ele>179.4</ele>
        <time>2019-11-24T17:30:28Z</time>
      </trkpt>
      <trkpt lat="43.395378" lon="-5.770971">
        <ele>180.4</ele>
        <time>2019-11-24T17:30:29Z</time>
      </trkpt>
      <trkpt lat="43.39535" lon="-5.770882">
        <ele>180.6</ele>
        <time>2019-11-24T17:30:30Z</time>
      </trkpt>
      <trkpt lat="43.395322" lon="-5.770794">
        <ele>181</ele>
        <time>2019-11-24T17:30:31Z</time>
      </trkpt>
      <trkpt lat="43.395296" lon="-5.770711">
        <ele>181.4</ele>
        <time>2019-11-24T17:30:32Z</time>
      </trkpt>
      <trkpt lat="43.395271" lon="-5.77063">
        <ele>181.8</ele>
        <time>2019-11-24T17:30:33Z</time>
      </trkpt>
      <trkpt lat="43.395246" lon="-5.770549">
        <ele>182.4</ele>
        <time>2019-11-24T17:30:34Z</time>
      </trkpt>
      <trkpt lat="43.395221" lon="-5.770467">
        <ele>182.2</ele>
        <time>2019-11-24T17:30:35Z</time>
      </trkpt>
      <trkpt lat="43.395196" lon="-5.770384">
        <ele>182.6</ele>
        <time>2019-11-24T17:30:36Z</time>
      </trkpt>
      <trkpt lat="43.395173" lon="-5.770298">
        <ele>183</ele>
        <time>2019-11-24T17:30:37Z</time>
      </trkpt>
      <trkpt lat="43.395152" lon="-5.770209">
        <ele>183</ele>
        <time>2019-11-24T17:30:38Z</time>
      </trkpt>
      <trkpt lat="43.395131" lon="-5.770117">
        <ele>182.8</ele>
        <time>2019-11-24T17:30:39Z</time>
      </trkpt>
      <trkpt lat="43.395113" lon="-5.770023">
        <ele>182.8</ele>
        <time>2019-11-24T17:30:40Z</time>
      </trkpt>
      <trkpt lat="43.395096" lon="-5.769927">
        <ele>183</ele>
        <time>2019-11-24T17:30:41Z</time>
      </trkpt>
      <trkpt lat="43.395081" lon="-5.769831">
        <ele>183</ele>
        <time>2019-11-24T17:30:42Z</time>
      </trkpt>
      <trkpt lat="43.395066" lon="-5.769736">
        <ele>183.6</ele>
        <time>2019-11-24T17:30:43Z</time>
      </trkpt>
      <trkpt lat="43.395054" lon="-5.769642">
        <ele>183.4</ele>
        <time>2019-11-24T17:30:44Z</time>
      </trkpt>
      <trkpt lat="43.395043" lon="-5.769549">
        <ele>183.4</ele>
        <time>2019-11-24T17:30:45Z</time>
      </trkpt>
      <trkpt lat="43.395032" lon="-5.769457">
        <ele>183.8</ele>
        <time>2019-11-24T17:30:46Z</time>
      </trkpt>
      <trkpt lat="43.39502" lon="-5.769364">
        <ele>184.4</ele>
        <time>2019-11-24T17:30:47Z</time>
      </trkpt>
      <trkpt lat="43.395008" lon="-5.769272">
        <ele>184.4</ele>
        <time>2019-11-24T17:30:48Z</time>
      </trkpt>
      <trkpt lat="43.394997" lon="-5.769179">
        <ele>185</ele>
        <time>2019-11-24T17:30:49Z</time>
      </trkpt>
      <trkpt lat="43.394986" lon="-5.769088">
        <ele>185.4</ele>
        <time>2019-11-24T17:30:50Z</time>
      </trkpt>
      <trkpt lat="43.394976" lon="-5.768997">
        <ele>185.6</ele>
        <time>2019-11-24T17:30:51Z</time>
      </trkpt>
      <trkpt lat="43.394964" lon="-5.76891">
        <ele>186</ele>
        <time>2019-11-24T17:30:52Z</time>
      </trkpt>
      <trkpt lat="43.394954" lon="-5.768825">
        <ele>186</ele>
        <time>2019-11-24T17:30:53Z</time>
      </trkpt>
      <trkpt lat="43.394946" lon="-5.768741">
        <ele>186.6</ele>
        <time>2019-11-24T17:30:54Z</time>
      </trkpt>
      <trkpt lat="43.394939" lon="-5.768657">
        <ele>187</ele>
        <time>2019-11-24T17:30:55Z</time>
      </trkpt>
      <trkpt lat="43.394932" lon="-5.768575">
        <ele>186.8</ele>
        <time>2019-11-24T17:30:56Z</time>
      </trkpt>
      <trkpt lat="43.394921" lon="-5.768492">
        <ele>187.2</ele>
        <time>2019-11-24T17:30:57Z</time>
      </trkpt>
      <trkpt lat="43.394909" lon="-5.768407">
        <ele>187.6</ele>
        <time>2019-11-24T17:30:58Z</time>
      </trkpt>
      <trkpt lat="43.394895" lon="-5.768322">
        <ele>188.2</ele>
        <time>2019-11-24T17:30:59Z</time>
      </trkpt>
      <trkpt lat="43.394881" lon="-5.768235">
        <ele>188.6</ele>
        <time>2019-11-24T17:31:00Z</time>
      </trkpt>
      <trkpt lat="43.394869" lon="-5.76815">
        <ele>188.6</ele>
        <time>2019-11-24T17:31:01Z</time>
      </trkpt>
      <trkpt lat="43.394858" lon="-5.768065">
        <ele>189.4</ele>
        <time>2019-11-24T17:31:02Z</time>
      </trkpt>
      <trkpt lat="43.394846" lon="-5.76798">
        <ele>189.6</ele>
        <time>2019-11-24T17:31:03Z</time>
      </trkpt>
      <trkpt lat="43.394835" lon="-5.767895">
        <ele>190.2</ele>
        <time>2019-11-24T17:31:04Z</time>
      </trkpt>
      <trkpt lat="43.394822" lon="-5.76781">
        <ele>189.6</ele>
        <time>2019-11-24T17:31:05Z</time>
      </trkpt>
      <trkpt lat="43.394809" lon="-5.767724">
        <ele>189.8</ele>
        <time>2019-11-24T17:31:06Z</time>
      </trkpt>
      <trkpt lat="43.394795" lon="-5.767636">
        <ele>189.8</ele>
        <time>2019-11-24T17:31:07Z</time>
      </trkpt>
      <trkpt lat="43.394781" lon="-5.767547">
        <ele>190.4</ele>
        <time>2019-11-24T17:31:08Z</time>
      </trkpt>
      <trkpt lat="43.394767" lon="-5.767459">
        <ele>190.2</ele>
        <time>2019-11-24T17:31:09Z</time>
      </trkpt>
      <trkpt lat="43.394753" lon="-5.767371">
        <ele>190.6</ele>
        <time>2019-11-24T17:31:10Z</time>
      </trkpt>
      <trkpt lat="43.394738" lon="-5.767283">
        <ele>190.8</ele>
        <time>2019-11-24T17:31:11Z</time>
      </trkpt>
      <trkpt lat="43.394722" lon="-5.767195">
        <ele>190.6</ele>
        <time>2019-11-24T17:31:12Z</time>
      </trkpt>
      <trkpt lat="43.394707" lon="-5.767109">
        <ele>191</ele>
        <time>2019-11-24T17:31:13Z</time>
      </trkpt>
      <trkpt lat="43.394691" lon="-5.767023">
        <ele>191</ele>
        <time>2019-11-24T17:31:14Z</time>
      </trkpt>
      <trkpt lat="43.394675" lon="-5.766938">
        <ele>190.6</ele>
        <time>2019-11-24T17:31:15Z</time>
      </trkpt>
      <trkpt lat="43.394658" lon="-5.766852">
        <ele>191.6</ele>
        <time>2019-11-24T17:31:16Z</time>
      </trkpt>
      <trkpt lat="43.394641" lon="-5.766767">
        <ele>191.8</ele>
        <time>2019-11-24T17:31:17Z</time>
      </trkpt>
      <trkpt lat="43.394623" lon="-5.766682">
        <ele>192.2</ele>
        <time>2019-11-24T17:31:18Z</time>
      </trkpt>
      <trkpt lat="43.394606" lon="-5.766596">
        <ele>192.6</ele>
        <time>2019-11-24T17:31:19Z</time>
      </trkpt>
      <trkpt lat="43.394587" lon="-5.766509">
        <ele>192.2</ele>
        <time>2019-11-24T17:31:20Z</time>
      </trkpt>
      <trkpt lat="43.394569" lon="-5.766422">
        <ele>192.2</ele>
        <time>2019-11-24T17:31:21Z</time>
      </trkpt>
      <trkpt lat="43.39455" lon="-5.766333">
        <ele>192.4</ele>
        <time>2019-11-24T17:31:22Z</time>
      </trkpt>
      <trkpt lat="43.394531" lon="-5.766244">
        <ele>192</ele>
        <time>2019-11-24T17:31:23Z</time>
      </trkpt>
      <trkpt lat="43.394512" lon="-5.766153">
        <ele>192</ele>
        <time>2019-11-24T17:31:24Z</time>
      </trkpt>
      <trkpt lat="43.394492" lon="-5.766058">
        <ele>191.8</ele>
        <time>2019-11-24T17:31:25Z</time>
      </trkpt>
      <trkpt lat="43.394472" lon="-5.765959">
        <ele>192.2</ele>
        <time>2019-11-24T17:31:26Z</time>
      </trkpt>
      <trkpt lat="43.39445" lon="-5.765858">
        <ele>191.8</ele>
        <time>2019-11-24T17:31:27Z</time>
      </trkpt>
      <trkpt lat="43.394428" lon="-5.765756">
        <ele>192.4</ele>
        <time>2019-11-24T17:31:28Z</time>
      </trkpt>
      <trkpt lat="43.394407" lon="-5.765651">
        <ele>190.4</ele>
        <time>2019-11-24T17:31:29Z</time>
      </trkpt>
      <trkpt lat="43.394385" lon="-5.765546">
        <ele>191.2</ele>
        <time>2019-11-24T17:31:30Z</time>
      </trkpt>
      <trkpt lat="43.394361" lon="-5.76544">
        <ele>191.2</ele>
        <time>2019-11-24T17:31:31Z</time>
      </trkpt>
      <trkpt lat="43.394337" lon="-5.765332">
        <ele>191</ele>
        <time>2019-11-24T17:31:32Z</time>
      </trkpt>
      <trkpt lat="43.394313" lon="-5.765221">
        <ele>190.8</ele>
        <time>2019-11-24T17:31:33Z</time>
      </trkpt>
      <trkpt lat="43.39429" lon="-5.765108">
        <ele>191.2</ele>
        <time>2019-11-24T17:31:34Z</time>
      </trkpt>
      <trkpt lat="43.394267" lon="-5.764993">
        <ele>191.2</ele>
        <time>2019-11-24T17:31:35Z</time>
      </trkpt>
      <trkpt lat="43.394245" lon="-5.764877">
        <ele>191.2</ele>
        <time>2019-11-24T17:31:36Z</time>
      </trkpt>
      <trkpt lat="43.394221" lon="-5.764762">
        <ele>191.2</ele>
        <time>2019-11-24T17:31:37Z</time>
      </trkpt>
      <trkpt lat="43.394196" lon="-5.764646">
        <ele>191.4</ele>
        <time>2019-11-24T17:31:38Z</time>
      </trkpt>
      <trkpt lat="43.394172" lon="-5.764531">
        <ele>191.2</ele>
        <time>2019-11-24T17:31:39Z</time>
      </trkpt>
      <trkpt lat="43.394149" lon="-5.764415">
        <ele>191.2</ele>
        <time>2019-11-24T17:31:40Z</time>
      </trkpt>
      <trkpt lat="43.394124" lon="-5.7643">
        <ele>192.4</ele>
        <time>2019-11-24T17:31:41Z</time>
      </trkpt>
      <trkpt lat="43.3941" lon="-5.764186">
        <ele>191.4</ele>
        <time>2019-11-24T17:31:42Z</time>
      </trkpt>
      <trkpt lat="43.394076" lon="-5.764071">
        <ele>192</ele>
        <time>2019-11-24T17:31:43Z</time>
      </trkpt>
      <trkpt lat="43.394054" lon="-5.763957">
        <ele>193</ele>
        <time>2019-11-24T17:31:44Z</time>
      </trkpt>
      <trkpt lat="43.39403" lon="-5.763844">
        <ele>193.2</ele>
        <time>2019-11-24T17:31:45Z</time>
      </trkpt>
      <trkpt lat="43.394006" lon="-5.763732">
        <ele>193.4</ele>
        <time>2019-11-24T17:31:46Z</time>
      </trkpt>
      <trkpt lat="43.393983" lon="-5.76362">
        <ele>192.8</ele>
        <time>2019-11-24T17:31:47Z</time>
      </trkpt>
      <trkpt lat="43.39396" lon="-5.763507">
        <ele>193.2</ele>
        <time>2019-11-24T17:31:48Z</time>
      </trkpt>
      <trkpt lat="43.393937" lon="-5.763397">
        <ele>194</ele>
        <time>2019-11-24T17:31:49Z</time>
      </trkpt>
      <trkpt lat="43.393914" lon="-5.763286">
        <ele>193.6</ele>
        <time>2019-11-24T17:31:50Z</time>
      </trkpt>
      <trkpt lat="43.393892" lon="-5.763177">
        <ele>194.4</ele>
        <time>2019-11-24T17:31:51Z</time>
      </trkpt>
      <trkpt lat="43.39387" lon="-5.763071">
        <ele>194.4</ele>
        <time>2019-11-24T17:31:52Z</time>
      </trkpt>
      <trkpt lat="43.393849" lon="-5.762967">
        <ele>195.2</ele>
        <time>2019-11-24T17:31:53Z</time>
      </trkpt>
      <trkpt lat="43.393829" lon="-5.762864">
        <ele>195.2</ele>
        <time>2019-11-24T17:31:54Z</time>
      </trkpt>
      <trkpt lat="43.393809" lon="-5.762762">
        <ele>195.8</ele>
        <time>2019-11-24T17:31:55Z</time>
      </trkpt>
      <trkpt lat="43.393788" lon="-5.762661">
        <ele>196</ele>
        <time>2019-11-24T17:31:56Z</time>
      </trkpt>
      <trkpt lat="43.393768" lon="-5.762562">
        <ele>196.8</ele>
        <time>2019-11-24T17:31:57Z</time>
      </trkpt>
      <trkpt lat="43.393747" lon="-5.762464">
        <ele>196.8</ele>
        <time>2019-11-24T17:31:58Z</time>
      </trkpt>
      <trkpt lat="43.393727" lon="-5.762363">
        <ele>197.4</ele>
        <time>2019-11-24T17:31:59Z</time>
      </trkpt>
      <trkpt lat="43.393706" lon="-5.762261">
        <ele>197.8</ele>
        <time>2019-11-24T17:32:00Z</time>
      </trkpt>
      <trkpt lat="43.393684" lon="-5.762159">
        <ele>197.6</ele>
        <time>2019-11-24T17:32:01Z</time>
      </trkpt>
      <trkpt lat="43.393663" lon="-5.762057">
        <ele>198.2</ele>
        <time>2019-11-24T17:32:02Z</time>
      </trkpt>
      <trkpt lat="43.393642" lon="-5.761956">
        <ele>198.4</ele>
        <time>2019-11-24T17:32:03Z</time>
      </trkpt>
      <trkpt lat="43.39362" lon="-5.761855">
        <ele>199.2</ele>
        <time>2019-11-24T17:32:04Z</time>
      </trkpt>
      <trkpt lat="43.393598" lon="-5.761753">
        <ele>199.6</ele>
        <time>2019-11-24T17:32:05Z</time>
      </trkpt>
      <trkpt lat="43.393576" lon="-5.76165">
        <ele>200</ele>
        <time>2019-11-24T17:32:06Z</time>
      </trkpt>
      <trkpt lat="43.393555" lon="-5.761547">
        <ele>199.8</ele>
        <time>2019-11-24T17:32:07Z</time>
      </trkpt>
      <trkpt lat="43.393534" lon="-5.761442">
        <ele>200</ele>
        <time>2019-11-24T17:32:08Z</time>
      </trkpt>
      <trkpt lat="43.393513" lon="-5.761337">
        <ele>200.8</ele>
        <time>2019-11-24T17:32:09Z</time>
      </trkpt>
      <trkpt lat="43.393492" lon="-5.761232">
        <ele>201.2</ele>
        <time>2019-11-24T17:32:10Z</time>
      </trkpt>
      <trkpt lat="43.39347" lon="-5.761128">
        <ele>201.4</ele>
        <time>2019-11-24T17:32:11Z</time>
      </trkpt>
      <trkpt lat="43.393447" lon="-5.761024">
        <ele>201.8</ele>
        <time>2019-11-24T17:32:12Z</time>
      </trkpt>
      <trkpt lat="43.393426" lon="-5.76092">
        <ele>202.2</ele>
        <time>2019-11-24T17:32:13Z</time>
      </trkpt>
      <trkpt lat="43.393405" lon="-5.760817">
        <ele>202.6</ele>
        <time>2019-11-24T17:32:14Z</time>
      </trkpt>
      <trkpt lat="43.393382" lon="-5.760712">
        <ele>203</ele>
        <time>2019-11-24T17:32:15Z</time>
      </trkpt>
      <trkpt lat="43.39336" lon="-5.760608">
        <ele>203</ele>
        <time>2019-11-24T17:32:16Z</time>
      </trkpt>
      <trkpt lat="43.393339" lon="-5.760504">
        <ele>203.6</ele>
        <time>2019-11-24T17:32:17Z</time>
      </trkpt>
      <trkpt lat="43.393318" lon="-5.760399">
        <ele>204</ele>
        <time>2019-11-24T17:32:18Z</time>
      </trkpt>
      <trkpt lat="43.393296" lon="-5.760295">
        <ele>204.2</ele>
        <time>2019-11-24T17:32:19Z</time>
      </trkpt>
      <trkpt lat="43.393274" lon="-5.760191">
        <ele>204.6</ele>
        <time>2019-11-24T17:32:20Z</time>
      </trkpt>
      <trkpt lat="43.393253" lon="-5.76009">
        <ele>204.8</ele>
        <time>2019-11-24T17:32:21Z</time>
      </trkpt>
      <trkpt lat="43.393231" lon="-5.759988">
        <ele>205.2</ele>
        <time>2019-11-24T17:32:22Z</time>
      </trkpt>
      <trkpt lat="43.393211" lon="-5.759888">
        <ele>205.4</ele>
        <time>2019-11-24T17:32:23Z</time>
      </trkpt>
      <trkpt lat="43.393191" lon="-5.759789">
        <ele>205.8</ele>
        <time>2019-11-24T17:32:24Z</time>
      </trkpt>
      <trkpt lat="43.393172" lon="-5.759692">
        <ele>206</ele>
        <time>2019-11-24T17:32:25Z</time>
      </trkpt>
      <trkpt lat="43.393152" lon="-5.759596">
        <ele>206.4</ele>
        <time>2019-11-24T17:32:26Z</time>
      </trkpt>
      <trkpt lat="43.393132" lon="-5.759502">
        <ele>206.6</ele>
        <time>2019-11-24T17:32:27Z</time>
      </trkpt>
      <trkpt lat="43.393112" lon="-5.759409">
        <ele>206.8</ele>
        <time>2019-11-24T17:32:28Z</time>
      </trkpt>
      <trkpt lat="43.393093" lon="-5.759317">
        <ele>207.2</ele>
        <time>2019-11-24T17:32:29Z</time>
      </trkpt>
      <trkpt lat="43.393074" lon="-5.759226">
        <ele>207.4</ele>
        <time>2019-11-24T17:32:30Z</time>
      </trkpt>
      <trkpt lat="43.393055" lon="-5.759136">
        <ele>207.8</ele>
        <time>2019-11-24T17:32:31Z</time>
      </trkpt>
      <trkpt lat="43.393036" lon="-5.759049">
        <ele>207.8</ele>
        <time>2019-11-24T17:32:32Z</time>
      </trkpt>
      <trkpt lat="43.393018" lon="-5.758963">
        <ele>207.8</ele>
        <time>2019-11-24T17:32:33Z</time>
      </trkpt>
      <trkpt lat="43.392999" lon="-5.758878">
        <ele>208</ele>
        <time>2019-11-24T17:32:34Z</time>
      </trkpt>
      <trkpt lat="43.392981" lon="-5.758793">
        <ele>208</ele>
        <time>2019-11-24T17:32:35Z</time>
      </trkpt>
      <trkpt lat="43.392961" lon="-5.758709">
        <ele>207.8</ele>
        <time>2019-11-24T17:32:36Z</time>
      </trkpt>
      <trkpt lat="43.392939" lon="-5.758625">
        <ele>207.6</ele>
        <time>2019-11-24T17:32:37Z</time>
      </trkpt>
      <trkpt lat="43.392917" lon="-5.75854">
        <ele>207.4</ele>
        <time>2019-11-24T17:32:38Z</time>
      </trkpt>
      <trkpt lat="43.392895" lon="-5.758455">
        <ele>207.6</ele>
        <time>2019-11-24T17:32:39Z</time>
      </trkpt>
      <trkpt lat="43.392874" lon="-5.758371">
        <ele>207.8</ele>
        <time>2019-11-24T17:32:40Z</time>
      </trkpt>
      <trkpt lat="43.392852" lon="-5.758287">
        <ele>207.6</ele>
        <time>2019-11-24T17:32:41Z</time>
      </trkpt>
      <trkpt lat="43.39283" lon="-5.758204">
        <ele>207.2</ele>
        <time>2019-11-24T17:32:42Z</time>
      </trkpt>
      <trkpt lat="43.392807" lon="-5.75812">
        <ele>206.6</ele>
        <time>2019-11-24T17:32:43Z</time>
      </trkpt>
      <trkpt lat="43.392784" lon="-5.758035">
        <ele>206.6</ele>
        <time>2019-11-24T17:32:44Z</time>
      </trkpt>
      <trkpt lat="43.392759" lon="-5.757949">
        <ele>207</ele>
        <time>2019-11-24T17:32:45Z</time>
      </trkpt>
      <trkpt lat="43.392734" lon="-5.757859">
        <ele>206.4</ele>
        <time>2019-11-24T17:32:46Z</time>
      </trkpt>
      <trkpt lat="43.392708" lon="-5.757767">
        <ele>206.6</ele>
        <time>2019-11-24T17:32:47Z</time>
      </trkpt>
      <trkpt lat="43.39268" lon="-5.757672">
        <ele>205.4</ele>
        <time>2019-11-24T17:32:48Z</time>
      </trkpt>
      <trkpt lat="43.392651" lon="-5.757574">
        <ele>204.8</ele>
        <time>2019-11-24T17:32:49Z</time>
      </trkpt>
      <trkpt lat="43.39262" lon="-5.757473">
        <ele>205</ele>
        <time>2019-11-24T17:32:50Z</time>
      </trkpt>
      <trkpt lat="43.392589" lon="-5.757368">
        <ele>204.4</ele>
        <time>2019-11-24T17:32:51Z</time>
      </trkpt>
      <trkpt lat="43.392555" lon="-5.75726">
        <ele>203.6</ele>
        <time>2019-11-24T17:32:52Z</time>
      </trkpt>
      <trkpt lat="43.392519" lon="-5.757148">
        <ele>202.8</ele>
        <time>2019-11-24T17:32:53Z</time>
      </trkpt>
      <trkpt lat="43.392482" lon="-5.757032">
        <ele>202.2</ele>
        <time>2019-11-24T17:32:54Z</time>
      </trkpt>
      <trkpt lat="43.392444" lon="-5.756913">
        <ele>201.8</ele>
        <time>2019-11-24T17:32:55Z</time>
      </trkpt>
      <trkpt lat="43.392404" lon="-5.756791">
        <ele>201.2</ele>
        <time>2019-11-24T17:32:56Z</time>
      </trkpt>
      <trkpt lat="43.392363" lon="-5.756666">
        <ele>200.8</ele>
        <time>2019-11-24T17:32:57Z</time>
      </trkpt>
      <trkpt lat="43.39232" lon="-5.756538">
        <ele>200</ele>
        <time>2019-11-24T17:32:58Z</time>
      </trkpt>
      <trkpt lat="43.392276" lon="-5.756405">
        <ele>199</ele>
        <time>2019-11-24T17:32:59Z</time>
      </trkpt>
      <trkpt lat="43.392233" lon="-5.756269">
        <ele>198.8</ele>
        <time>2019-11-24T17:33:00Z</time>
      </trkpt>
      <trkpt lat="43.392189" lon="-5.75613">
        <ele>198.2</ele>
        <time>2019-11-24T17:33:01Z</time>
      </trkpt>
      <trkpt lat="43.392144" lon="-5.755988">
        <ele>197.4</ele>
        <time>2019-11-24T17:33:02Z</time>
      </trkpt>
      <trkpt lat="43.392099" lon="-5.755845">
        <ele>196.6</ele>
        <time>2019-11-24T17:33:03Z</time>
      </trkpt>
      <trkpt lat="43.392053" lon="-5.755701">
        <ele>196</ele>
        <time>2019-11-24T17:33:04Z</time>
      </trkpt>
      <trkpt lat="43.392006" lon="-5.755556">
        <ele>195</ele>
        <time>2019-11-24T17:33:05Z</time>
      </trkpt>
      <trkpt lat="43.391962" lon="-5.755409">
        <ele>194.2</ele>
        <time>2019-11-24T17:33:06Z</time>
      </trkpt>
      <trkpt lat="43.391917" lon="-5.75526">
        <ele>193</ele>
        <time>2019-11-24T17:33:07Z</time>
      </trkpt>
      <trkpt lat="43.391872" lon="-5.755113">
        <ele>193.4</ele>
        <time>2019-11-24T17:33:08Z</time>
      </trkpt>
      <trkpt lat="43.391824" lon="-5.754966">
        <ele>193.2</ele>
        <time>2019-11-24T17:33:09Z</time>
      </trkpt>
      <trkpt lat="43.391777" lon="-5.75482">
        <ele>193.2</ele>
        <time>2019-11-24T17:33:10Z</time>
      </trkpt>
      <trkpt lat="43.391732" lon="-5.754675">
        <ele>192.6</ele>
        <time>2019-11-24T17:33:11Z</time>
      </trkpt>
      <trkpt lat="43.391685" lon="-5.754528">
        <ele>193</ele>
        <time>2019-11-24T17:33:12Z</time>
      </trkpt>
      <trkpt lat="43.391641" lon="-5.754384">
        <ele>192</ele>
        <time>2019-11-24T17:33:13Z</time>
      </trkpt>
      <trkpt lat="43.391596" lon="-5.754241">
        <ele>191.6</ele>
        <time>2019-11-24T17:33:14Z</time>
      </trkpt>
      <trkpt lat="43.391551" lon="-5.754099">
        <ele>191.4</ele>
        <time>2019-11-24T17:33:15Z</time>
      </trkpt>
      <trkpt lat="43.391505" lon="-5.753959">
        <ele>191.2</ele>
        <time>2019-11-24T17:33:16Z</time>
      </trkpt>
      <trkpt lat="43.391462" lon="-5.753818">
        <ele>190.8</ele>
        <time>2019-11-24T17:33:17Z</time>
      </trkpt>
      <trkpt lat="43.391421" lon="-5.753678">
        <ele>191.2</ele>
        <time>2019-11-24T17:33:18Z</time>
      </trkpt>
      <trkpt lat="43.39138" lon="-5.75354">
        <ele>190.8</ele>
        <time>2019-11-24T17:33:19Z</time>
      </trkpt>
      <trkpt lat="43.391335" lon="-5.753408">
        <ele>190.8</ele>
        <time>2019-11-24T17:33:20Z</time>
      </trkpt>
      <trkpt lat="43.391276" lon="-5.753291">
        <ele>190.2</ele>
        <time>2019-11-24T17:33:21Z</time>
      </trkpt>
      <trkpt lat="43.3912" lon="-5.753201">
        <ele>190</ele>
        <time>2019-11-24T17:33:22Z</time>
      </trkpt>
      <trkpt lat="43.391113" lon="-5.753137">
        <ele>190.6</ele>
        <time>2019-11-24T17:33:23Z</time>
      </trkpt>
      <trkpt lat="43.391025" lon="-5.753085">
        <ele>190.4</ele>
        <time>2019-11-24T17:33:24Z</time>
      </trkpt>
      <trkpt lat="43.390945" lon="-5.753019">
        <ele>190.6</ele>
        <time>2019-11-24T17:33:25Z</time>
      </trkpt>
      <trkpt lat="43.390881" lon="-5.752928">
        <ele>190.8</ele>
        <time>2019-11-24T17:33:26Z</time>
      </trkpt>
      <trkpt lat="43.390839" lon="-5.752816">
        <ele>191.2</ele>
        <time>2019-11-24T17:33:27Z</time>
      </trkpt>
      <trkpt lat="43.390819" lon="-5.752691">
        <ele>191.2</ele>
        <time>2019-11-24T17:33:28Z</time>
      </trkpt>
      <trkpt lat="43.390817" lon="-5.752563">
        <ele>190.6</ele>
        <time>2019-11-24T17:33:29Z</time>
      </trkpt>
      <trkpt lat="43.390827" lon="-5.752435">
        <ele>190.6</ele>
        <time>2019-11-24T17:33:30Z</time>
      </trkpt>
      <trkpt lat="43.39084" lon="-5.752307">
        <ele>190.6</ele>
        <time>2019-11-24T17:33:31Z</time>
      </trkpt>
      <trkpt lat="43.390849" lon="-5.752173">
        <ele>190.6</ele>
        <time>2019-11-24T17:33:32Z</time>
      </trkpt>
      <trkpt lat="43.390848" lon="-5.752038">
        <ele>190.2</ele>
        <time>2019-11-24T17:33:33Z</time>
      </trkpt>
      <trkpt lat="43.390832" lon="-5.751905">
        <ele>190.6</ele>
        <time>2019-11-24T17:33:34Z</time>
      </trkpt>
      <trkpt lat="43.390805" lon="-5.751775">
        <ele>190.8</ele>
        <time>2019-11-24T17:33:35Z</time>
      </trkpt>
      <trkpt lat="43.39077" lon="-5.751647">
        <ele>191</ele>
        <time>2019-11-24T17:33:36Z</time>
      </trkpt>
      <trkpt lat="43.390735" lon="-5.75152">
        <ele>190.8</ele>
        <time>2019-11-24T17:33:37Z</time>
      </trkpt>
      <trkpt lat="43.390696" lon="-5.751394">
        <ele>191.2</ele>
        <time>2019-11-24T17:33:38Z</time>
      </trkpt>
      <trkpt lat="43.390657" lon="-5.75127">
        <ele>191.6</ele>
        <time>2019-11-24T17:33:39Z</time>
      </trkpt>
      <trkpt lat="43.390617" lon="-5.751145">
        <ele>191.8</ele>
        <time>2019-11-24T17:33:40Z</time>
      </trkpt>
      <trkpt lat="43.390576" lon="-5.75102">
        <ele>191.8</ele>
        <time>2019-11-24T17:33:41Z</time>
      </trkpt>
      <trkpt lat="43.390537" lon="-5.750897">
        <ele>192.2</ele>
        <time>2019-11-24T17:33:42Z</time>
      </trkpt>
      <trkpt lat="43.390497" lon="-5.750775">
        <ele>192.8</ele>
        <time>2019-11-24T17:33:43Z</time>
      </trkpt>
      <trkpt lat="43.390459" lon="-5.750655">
        <ele>193</ele>
        <time>2019-11-24T17:33:44Z</time>
      </trkpt>
      <trkpt lat="43.390423" lon="-5.750536">
        <ele>193.6</ele>
        <time>2019-11-24T17:33:45Z</time>
      </trkpt>
      <trkpt lat="43.390388" lon="-5.750418">
        <ele>194</ele>
        <time>2019-11-24T17:33:46Z</time>
      </trkpt>
      <trkpt lat="43.390352" lon="-5.750302">
        <ele>194.4</ele>
        <time>2019-11-24T17:33:47Z</time>
      </trkpt>
      <trkpt lat="43.390316" lon="-5.750187">
        <ele>195.2</ele>
        <time>2019-11-24T17:33:48Z</time>
      </trkpt>
      <trkpt lat="43.390281" lon="-5.750073">
        <ele>194.8</ele>
        <time>2019-11-24T17:33:49Z</time>
      </trkpt>
      <trkpt lat="43.390246" lon="-5.749958">
        <ele>195.8</ele>
        <time>2019-11-24T17:33:50Z</time>
      </trkpt>
      <trkpt lat="43.390212" lon="-5.749844">
        <ele>196.2</ele>
        <time>2019-11-24T17:33:51Z</time>
      </trkpt>
      <trkpt lat="43.390177" lon="-5.749731">
        <ele>197.2</ele>
        <time>2019-11-24T17:33:52Z</time>
      </trkpt>
      <trkpt lat="43.390143" lon="-5.749618">
        <ele>197.2</ele>
        <time>2019-11-24T17:33:53Z</time>
      </trkpt>
      <trkpt lat="43.390108" lon="-5.749507">
        <ele>197.4</ele>
        <time>2019-11-24T17:33:54Z</time>
      </trkpt>
      <trkpt lat="43.39007" lon="-5.749399">
        <ele>198.6</ele>
        <time>2019-11-24T17:33:55Z</time>
      </trkpt>
      <trkpt lat="43.390033" lon="-5.74929">
        <ele>197.4</ele>
        <time>2019-11-24T17:33:56Z</time>
      </trkpt>
      <trkpt lat="43.389998" lon="-5.749181">
        <ele>198</ele>
        <time>2019-11-24T17:33:57Z</time>
      </trkpt>
      <trkpt lat="43.389965" lon="-5.749071">
        <ele>198.4</ele>
        <time>2019-11-24T17:33:58Z</time>
      </trkpt>
      <trkpt lat="43.389931" lon="-5.748962">
        <ele>199.2</ele>
        <time>2019-11-24T17:33:59Z</time>
      </trkpt>
      <trkpt lat="43.389897" lon="-5.748853">
        <ele>199.2</ele>
        <time>2019-11-24T17:34:00Z</time>
      </trkpt>
      <trkpt lat="43.389862" lon="-5.748744">
        <ele>199.8</ele>
        <time>2019-11-24T17:34:01Z</time>
      </trkpt>
      <trkpt lat="43.389827" lon="-5.748637">
        <ele>200.8</ele>
        <time>2019-11-24T17:34:02Z</time>
      </trkpt>
      <trkpt lat="43.389792" lon="-5.74853">
        <ele>200.4</ele>
        <time>2019-11-24T17:34:03Z</time>
      </trkpt>
      <trkpt lat="43.389757" lon="-5.748422">
        <ele>201</ele>
        <time>2019-11-24T17:34:04Z</time>
      </trkpt>
      <trkpt lat="43.389722" lon="-5.748317">
        <ele>201.4</ele>
        <time>2019-11-24T17:34:05Z</time>
      </trkpt>
      <trkpt lat="43.389689" lon="-5.748215">
        <ele>201.8</ele>
        <time>2019-11-24T17:34:06Z</time>
      </trkpt>
      <trkpt lat="43.389658" lon="-5.748116">
        <ele>202.4</ele>
        <time>2019-11-24T17:34:07Z</time>
      </trkpt>
      <trkpt lat="43.389627" lon="-5.748019">
        <ele>202.6</ele>
        <time>2019-11-24T17:34:08Z</time>
      </trkpt>
      <trkpt lat="43.389595" lon="-5.747924">
        <ele>203.6</ele>
        <time>2019-11-24T17:34:09Z</time>
      </trkpt>
      <trkpt lat="43.38956" lon="-5.747831">
        <ele>204</ele>
        <time>2019-11-24T17:34:10Z</time>
      </trkpt>
      <trkpt lat="43.389523" lon="-5.74774">
        <ele>202.8</ele>
        <time>2019-11-24T17:34:11Z</time>
      </trkpt>
      <trkpt lat="43.389485" lon="-5.747652">
        <ele>203.2</ele>
        <time>2019-11-24T17:34:12Z</time>
      </trkpt>
      <trkpt lat="43.389444" lon="-5.747566">
        <ele>203.4</ele>
        <time>2019-11-24T17:34:13Z</time>
      </trkpt>
      <trkpt lat="43.389401" lon="-5.747482">
        <ele>203.8</ele>
        <time>2019-11-24T17:34:14Z</time>
      </trkpt>
      <trkpt lat="43.389359" lon="-5.7474">
        <ele>203.8</ele>
        <time>2019-11-24T17:34:15Z</time>
      </trkpt>
      <trkpt lat="43.389316" lon="-5.747321">
        <ele>204.4</ele>
        <time>2019-11-24T17:34:16Z</time>
      </trkpt>
      <trkpt lat="43.389274" lon="-5.747244">
        <ele>205</ele>
        <time>2019-11-24T17:34:17Z</time>
      </trkpt>
      <trkpt lat="43.389232" lon="-5.74717">
        <ele>205</ele>
        <time>2019-11-24T17:34:18Z</time>
      </trkpt>
      <trkpt lat="43.389191" lon="-5.747098">
        <ele>204.8</ele>
        <time>2019-11-24T17:34:19Z</time>
      </trkpt>
      <trkpt lat="43.389149" lon="-5.747026">
        <ele>204.4</ele>
        <time>2019-11-24T17:34:20Z</time>
      </trkpt>
      <trkpt lat="43.389108" lon="-5.746953">
        <ele>205</ele>
        <time>2019-11-24T17:34:21Z</time>
      </trkpt>
      <trkpt lat="43.389066" lon="-5.74688">
        <ele>205.2</ele>
        <time>2019-11-24T17:34:22Z</time>
      </trkpt>
      <trkpt lat="43.389025" lon="-5.746807">
        <ele>204</ele>
        <time>2019-11-24T17:34:23Z</time>
      </trkpt>
      <trkpt lat="43.388984" lon="-5.746734">
        <ele>204</ele>
        <time>2019-11-24T17:34:24Z</time>
      </trkpt>
      <trkpt lat="43.388942" lon="-5.746664">
        <ele>205.2</ele>
        <time>2019-11-24T17:34:25Z</time>
      </trkpt>
      <trkpt lat="43.388899" lon="-5.746594">
        <ele>205.4</ele>
        <time>2019-11-24T17:34:26Z</time>
      </trkpt>
      <trkpt lat="43.388856" lon="-5.746523">
        <ele>205</ele>
        <time>2019-11-24T17:34:27Z</time>
      </trkpt>
      <trkpt lat="43.388813" lon="-5.746451">
        <ele>204.8</ele>
        <time>2019-11-24T17:34:28Z</time>
      </trkpt>
      <trkpt lat="43.388769" lon="-5.746376">
        <ele>204.4</ele>
        <time>2019-11-24T17:34:29Z</time>
      </trkpt>
      <trkpt lat="43.388725" lon="-5.746301">
        <ele>204.8</ele>
        <time>2019-11-24T17:34:30Z</time>
      </trkpt>
      <trkpt lat="43.388679" lon="-5.746225">
        <ele>204.2</ele>
        <time>2019-11-24T17:34:31Z</time>
      </trkpt>
      <trkpt lat="43.388633" lon="-5.746147">
        <ele>204</ele>
        <time>2019-11-24T17:34:32Z</time>
      </trkpt>
      <trkpt lat="43.388586" lon="-5.746069">
        <ele>203.8</ele>
        <time>2019-11-24T17:34:33Z</time>
      </trkpt>
      <trkpt lat="43.388539" lon="-5.74599">
        <ele>204.8</ele>
        <time>2019-11-24T17:34:34Z</time>
      </trkpt>
      <trkpt lat="43.388491" lon="-5.74591">
        <ele>204</ele>
        <time>2019-11-24T17:34:35Z</time>
      </trkpt>
      <trkpt lat="43.388443" lon="-5.745828">
        <ele>203.4</ele>
        <time>2019-11-24T17:34:36Z</time>
      </trkpt>
      <trkpt lat="43.388394" lon="-5.745746">
        <ele>203.4</ele>
        <time>2019-11-24T17:34:37Z</time>
      </trkpt>
      <trkpt lat="43.388346" lon="-5.745663">
        <ele>203.2</ele>
        <time>2019-11-24T17:34:38Z</time>
      </trkpt>
      <trkpt lat="43.388297" lon="-5.74558">
        <ele>203</ele>
        <time>2019-11-24T17:34:39Z</time>
      </trkpt>
      <trkpt lat="43.388245" lon="-5.745498">
        <ele>203</ele>
        <time>2019-11-24T17:34:40Z</time>
      </trkpt>
      <trkpt lat="43.388189" lon="-5.745422">
        <ele>203</ele>
        <time>2019-11-24T17:34:41Z</time>
      </trkpt>
      <trkpt lat="43.388122" lon="-5.745362">
        <ele>203.2</ele>
        <time>2019-11-24T17:34:42Z</time>
      </trkpt>
      <trkpt lat="43.388048" lon="-5.745317">
        <ele>202.4</ele>
        <time>2019-11-24T17:34:43Z</time>
      </trkpt>
      <trkpt lat="43.387974" lon="-5.745275">
        <ele>202.8</ele>
        <time>2019-11-24T17:34:44Z</time>
      </trkpt>
      <trkpt lat="43.387905" lon="-5.745218">
        <ele>202.4</ele>
        <time>2019-11-24T17:34:45Z</time>
      </trkpt>
      <trkpt lat="43.387847" lon="-5.745141">
        <ele>202.6</ele>
        <time>2019-11-24T17:34:46Z</time>
      </trkpt>
      <trkpt lat="43.387805" lon="-5.745046">
        <ele>201.8</ele>
        <time>2019-11-24T17:34:47Z</time>
      </trkpt>
      <trkpt lat="43.38778" lon="-5.744939">
        <ele>202</ele>
        <time>2019-11-24T17:34:48Z</time>
      </trkpt>
      <trkpt lat="43.387763" lon="-5.744831">
        <ele>202</ele>
        <time>2019-11-24T17:34:49Z</time>
      </trkpt>
      <trkpt lat="43.387744" lon="-5.744722">
        <ele>201.4</ele>
        <time>2019-11-24T17:34:50Z</time>
      </trkpt>
      <trkpt lat="43.387717" lon="-5.744617">
        <ele>200.8</ele>
        <time>2019-11-24T17:34:51Z</time>
      </trkpt>
      <trkpt lat="43.387677" lon="-5.744519">
        <ele>200.6</ele>
        <time>2019-11-24T17:34:52Z</time>
      </trkpt>
      <trkpt lat="43.387627" lon="-5.744428">
        <ele>200.2</ele>
        <time>2019-11-24T17:34:53Z</time>
      </trkpt>
      <trkpt lat="43.387574" lon="-5.74434">
        <ele>200.8</ele>
        <time>2019-11-24T17:34:54Z</time>
      </trkpt>
      <trkpt lat="43.387519" lon="-5.744251">
        <ele>199.4</ele>
        <time>2019-11-24T17:34:55Z</time>
      </trkpt>
      <trkpt lat="43.387463" lon="-5.744162">
        <ele>199.4</ele>
        <time>2019-11-24T17:34:56Z</time>
      </trkpt>
      <trkpt lat="43.387406" lon="-5.744073">
        <ele>199.8</ele>
        <time>2019-11-24T17:34:57Z</time>
      </trkpt>
      <trkpt lat="43.387348" lon="-5.743983">
        <ele>199.6</ele>
        <time>2019-11-24T17:34:58Z</time>
      </trkpt>
      <trkpt lat="43.387291" lon="-5.743893">
        <ele>199</ele>
        <time>2019-11-24T17:34:59Z</time>
      </trkpt>
      <trkpt lat="43.387233" lon="-5.743801">
        <ele>199.8</ele>
        <time>2019-11-24T17:35:00Z</time>
      </trkpt>
      <trkpt lat="43.387173" lon="-5.743709">
        <ele>199.4</ele>
        <time>2019-11-24T17:35:01Z</time>
      </trkpt>
      <trkpt lat="43.387112" lon="-5.743617">
        <ele>199.4</ele>
        <time>2019-11-24T17:35:02Z</time>
      </trkpt>
      <trkpt lat="43.38705" lon="-5.743523">
        <ele>199</ele>
        <time>2019-11-24T17:35:03Z</time>
      </trkpt>
      <trkpt lat="43.386986" lon="-5.743428">
        <ele>198.4</ele>
        <time>2019-11-24T17:35:04Z</time>
      </trkpt>
      <trkpt lat="43.386921" lon="-5.743334">
        <ele>198.4</ele>
        <time>2019-11-24T17:35:05Z</time>
      </trkpt>
      <trkpt lat="43.386856" lon="-5.743239">
        <ele>197.8</ele>
        <time>2019-11-24T17:35:06Z</time>
      </trkpt>
      <trkpt lat="43.38679" lon="-5.743146">
        <ele>197.8</ele>
        <time>2019-11-24T17:35:07Z</time>
      </trkpt>
      <trkpt lat="43.386724" lon="-5.743055">
        <ele>198.2</ele>
        <time>2019-11-24T17:35:08Z</time>
      </trkpt>
      <trkpt lat="43.386659" lon="-5.742965">
        <ele>198</ele>
        <time>2019-11-24T17:35:09Z</time>
      </trkpt>
      <trkpt lat="43.386594" lon="-5.742878">
        <ele>199</ele>
        <time>2019-11-24T17:35:10Z</time>
      </trkpt>
      <trkpt lat="43.386531" lon="-5.742792">
        <ele>199.4</ele>
        <time>2019-11-24T17:35:11Z</time>
      </trkpt>
      <trkpt lat="43.386469" lon="-5.742709">
        <ele>199.2</ele>
        <time>2019-11-24T17:35:12Z</time>
      </trkpt>
      <trkpt lat="43.38641" lon="-5.742626">
        <ele>200.8</ele>
        <time>2019-11-24T17:35:13Z</time>
      </trkpt>
      <trkpt lat="43.386356" lon="-5.742538">
        <ele>200.4</ele>
        <time>2019-11-24T17:35:14Z</time>
      </trkpt>
      <trkpt lat="43.386313" lon="-5.742444">
        <ele>201.6</ele>
        <time>2019-11-24T17:35:15Z</time>
      </trkpt>
      <trkpt lat="43.386281" lon="-5.74234">
        <ele>201.6</ele>
        <time>2019-11-24T17:35:16Z</time>
      </trkpt>
      <trkpt lat="43.38626" lon="-5.742231">
        <ele>202.2</ele>
        <time>2019-11-24T17:35:17Z</time>
      </trkpt>
      <trkpt lat="43.386253" lon="-5.742118">
        <ele>202.2</ele>
        <time>2019-11-24T17:35:18Z</time>
      </trkpt>
      <trkpt lat="43.386256" lon="-5.742002">
        <ele>202.4</ele>
        <time>2019-11-24T17:35:19Z</time>
      </trkpt>
      <trkpt lat="43.386259" lon="-5.741883">
        <ele>202.8</ele>
        <time>2019-11-24T17:35:20Z</time>
      </trkpt>
      <trkpt lat="43.386249" lon="-5.741763">
        <ele>201.6</ele>
        <time>2019-11-24T17:35:21Z</time>
      </trkpt>
      <trkpt lat="43.386222" lon="-5.741646">
        <ele>202.2</ele>
        <time>2019-11-24T17:35:22Z</time>
      </trkpt>
      <trkpt lat="43.386182" lon="-5.741535">
        <ele>201.6</ele>
        <time>2019-11-24T17:35:23Z</time>
      </trkpt>
      <trkpt lat="43.386135" lon="-5.741426">
        <ele>201.4</ele>
        <time>2019-11-24T17:35:24Z</time>
      </trkpt>
      <trkpt lat="43.386085" lon="-5.741315">
        <ele>201.6</ele>
        <time>2019-11-24T17:35:25Z</time>
      </trkpt>
      <trkpt lat="43.386034" lon="-5.741202">
        <ele>201.2</ele>
        <time>2019-11-24T17:35:26Z</time>
      </trkpt>
      <trkpt lat="43.385982" lon="-5.741087">
        <ele>200.2</ele>
        <time>2019-11-24T17:35:27Z</time>
      </trkpt>
      <trkpt lat="43.38593" lon="-5.740968">
        <ele>198.8</ele>
        <time>2019-11-24T17:35:28Z</time>
      </trkpt>
      <trkpt lat="43.385881" lon="-5.740844">
        <ele>198.8</ele>
        <time>2019-11-24T17:35:29Z</time>
      </trkpt>
      <trkpt lat="43.385838" lon="-5.740711">
        <ele>198</ele>
        <time>2019-11-24T17:35:30Z</time>
      </trkpt>
      <trkpt lat="43.385806" lon="-5.74057">
        <ele>196.8</ele>
        <time>2019-11-24T17:35:31Z</time>
      </trkpt>
      <trkpt lat="43.385787" lon="-5.740421">
        <ele>196</ele>
        <time>2019-11-24T17:35:32Z</time>
      </trkpt>
      <trkpt lat="43.385781" lon="-5.740268">
        <ele>195.4</ele>
        <time>2019-11-24T17:35:33Z</time>
      </trkpt>
      <trkpt lat="43.385786" lon="-5.740113">
        <ele>195</ele>
        <time>2019-11-24T17:35:34Z</time>
      </trkpt>
      <trkpt lat="43.385799" lon="-5.739958">
        <ele>195</ele>
        <time>2019-11-24T17:35:35Z</time>
      </trkpt>
      <trkpt lat="43.385814" lon="-5.739803">
        <ele>194.6</ele>
        <time>2019-11-24T17:35:36Z</time>
      </trkpt>
      <trkpt lat="43.38583" lon="-5.73965">
        <ele>194.8</ele>
        <time>2019-11-24T17:35:37Z</time>
      </trkpt>
      <trkpt lat="43.385845" lon="-5.739499">
        <ele>194.4</ele>
        <time>2019-11-24T17:35:38Z</time>
      </trkpt>
      <trkpt lat="43.38586" lon="-5.739351">
        <ele>194.4</ele>
        <time>2019-11-24T17:35:39Z</time>
      </trkpt>
      <trkpt lat="43.385874" lon="-5.739205">
        <ele>194.8</ele>
        <time>2019-11-24T17:35:40Z</time>
      </trkpt>
      <trkpt lat="43.385887" lon="-5.739062">
        <ele>195</ele>
        <time>2019-11-24T17:35:41Z</time>
      </trkpt>
      <trkpt lat="43.3859" lon="-5.738921">
        <ele>194.6</ele>
        <time>2019-11-24T17:35:42Z</time>
      </trkpt>
      <trkpt lat="43.385907" lon="-5.738781">
        <ele>194.8</ele>
        <time>2019-11-24T17:35:43Z</time>
      </trkpt>
      <trkpt lat="43.385905" lon="-5.738644">
        <ele>194.8</ele>
        <time>2019-11-24T17:35:44Z</time>
      </trkpt>
      <trkpt lat="43.385891" lon="-5.73851">
        <ele>194.6</ele>
        <time>2019-11-24T17:35:45Z</time>
      </trkpt>
      <trkpt lat="43.385867" lon="-5.73838">
        <ele>195</ele>
        <time>2019-11-24T17:35:46Z</time>
      </trkpt>
      <trkpt lat="43.385833" lon="-5.738254">
        <ele>195.6</ele>
        <time>2019-11-24T17:35:47Z</time>
      </trkpt>
      <trkpt lat="43.38579" lon="-5.738135">
        <ele>195</ele>
        <time>2019-11-24T17:35:48Z</time>
      </trkpt>
      <trkpt lat="43.385736" lon="-5.738023">
        <ele>194.2</ele>
        <time>2019-11-24T17:35:49Z</time>
      </trkpt>
      <trkpt lat="43.385675" lon="-5.73792">
        <ele>194.4</ele>
        <time>2019-11-24T17:35:50Z</time>
      </trkpt>
      <trkpt lat="43.385606" lon="-5.737826">
        <ele>194</ele>
        <time>2019-11-24T17:35:51Z</time>
      </trkpt>
      <trkpt lat="43.38553" lon="-5.737744">
        <ele>193.6</ele>
        <time>2019-11-24T17:35:52Z</time>
      </trkpt>
      <trkpt lat="43.385449" lon="-5.737671">
        <ele>193.2</ele>
        <time>2019-11-24T17:35:53Z</time>
      </trkpt>
      <trkpt lat="43.385365" lon="-5.737604">
        <ele>194</ele>
        <time>2019-11-24T17:35:54Z</time>
      </trkpt>
      <trkpt lat="43.385279" lon="-5.737544">
        <ele>193</ele>
        <time>2019-11-24T17:35:55Z</time>
      </trkpt>
      <trkpt lat="43.385195" lon="-5.737491">
        <ele>193.4</ele>
        <time>2019-11-24T17:35:56Z</time>
      </trkpt>
      <trkpt lat="43.385112" lon="-5.737441">
        <ele>193.2</ele>
        <time>2019-11-24T17:35:57Z</time>
      </trkpt>
      <trkpt lat="43.385029" lon="-5.7374">
        <ele>193.2</ele>
        <time>2019-11-24T17:35:58Z</time>
      </trkpt>
      <trkpt lat="43.384946" lon="-5.73738">
        <ele>193.6</ele>
        <time>2019-11-24T17:35:59Z</time>
      </trkpt>
      <trkpt lat="43.384863" lon="-5.737376">
        <ele>193.8</ele>
        <time>2019-11-24T17:36:00Z</time>
      </trkpt>
      <trkpt lat="43.384782" lon="-5.737365">
        <ele>193.8</ele>
        <time>2019-11-24T17:36:01Z</time>
      </trkpt>
      <trkpt lat="43.384707" lon="-5.737322">
        <ele>193.8</ele>
        <time>2019-11-24T17:36:02Z</time>
      </trkpt>
      <trkpt lat="43.384646" lon="-5.73725">
        <ele>194</ele>
        <time>2019-11-24T17:36:03Z</time>
      </trkpt>
      <trkpt lat="43.384606" lon="-5.737157">
        <ele>193.8</ele>
        <time>2019-11-24T17:36:04Z</time>
      </trkpt>
      <trkpt lat="43.384589" lon="-5.737054">
        <ele>194</ele>
        <time>2019-11-24T17:36:05Z</time>
      </trkpt>
      <trkpt lat="43.384591" lon="-5.73695">
        <ele>194</ele>
        <time>2019-11-24T17:36:06Z</time>
      </trkpt>
      <trkpt lat="43.384608" lon="-5.736847">
        <ele>194.2</ele>
        <time>2019-11-24T17:36:07Z</time>
      </trkpt>
      <trkpt lat="43.384629" lon="-5.736743">
        <ele>195</ele>
        <time>2019-11-24T17:36:08Z</time>
      </trkpt>
      <trkpt lat="43.384648" lon="-5.736636">
        <ele>195</ele>
        <time>2019-11-24T17:36:09Z</time>
      </trkpt>
      <trkpt lat="43.384667" lon="-5.736528">
        <ele>194.6</ele>
        <time>2019-11-24T17:36:10Z</time>
      </trkpt>
      <trkpt lat="43.384686" lon="-5.736421">
        <ele>194.4</ele>
        <time>2019-11-24T17:36:11Z</time>
      </trkpt>
      <trkpt lat="43.384706" lon="-5.736314">
        <ele>194.8</ele>
        <time>2019-11-24T17:36:12Z</time>
      </trkpt>
      <trkpt lat="43.384727" lon="-5.736205">
        <ele>194.8</ele>
        <time>2019-11-24T17:36:13Z</time>
      </trkpt>
      <trkpt lat="43.384749" lon="-5.736095">
        <ele>195.6</ele>
        <time>2019-11-24T17:36:14Z</time>
      </trkpt>
      <trkpt lat="43.384773" lon="-5.735986">
        <ele>195.2</ele>
        <time>2019-11-24T17:36:15Z</time>
      </trkpt>
      <trkpt lat="43.384797" lon="-5.735876">
        <ele>196.2</ele>
        <time>2019-11-24T17:36:16Z</time>
      </trkpt>
      <trkpt lat="43.384818" lon="-5.735766">
        <ele>196.2</ele>
        <time>2019-11-24T17:36:17Z</time>
      </trkpt>
      <trkpt lat="43.384839" lon="-5.735655">
        <ele>196.2</ele>
        <time>2019-11-24T17:36:18Z</time>
      </trkpt>
      <trkpt lat="43.38486" lon="-5.735544">
        <ele>196.4</ele>
        <time>2019-11-24T17:36:19Z</time>
      </trkpt>
      <trkpt lat="43.384884" lon="-5.735437">
        <ele>197</ele>
        <time>2019-11-24T17:36:20Z</time>
      </trkpt>
      <trkpt lat="43.384906" lon="-5.735328">
        <ele>197.4</ele>
        <time>2019-11-24T17:36:21Z</time>
      </trkpt>
      <trkpt lat="43.384929" lon="-5.735221">
        <ele>197.6</ele>
        <time>2019-11-24T17:36:22Z</time>
      </trkpt>
      <trkpt lat="43.384952" lon="-5.735115">
        <ele>198.4</ele>
        <time>2019-11-24T17:36:23Z</time>
      </trkpt>
      <trkpt lat="43.384973" lon="-5.735009">
        <ele>198.8</ele>
        <time>2019-11-24T17:36:24Z</time>
      </trkpt>
      <trkpt lat="43.384996" lon="-5.734906">
        <ele>199.2</ele>
        <time>2019-11-24T17:36:25Z</time>
      </trkpt>
      <trkpt lat="43.385017" lon="-5.734803">
        <ele>199.4</ele>
        <time>2019-11-24T17:36:26Z</time>
      </trkpt>
      <trkpt lat="43.38504" lon="-5.734699">
        <ele>199.6</ele>
        <time>2019-11-24T17:36:27Z</time>
      </trkpt>
      <trkpt lat="43.385064" lon="-5.734596">
        <ele>199.6</ele>
        <time>2019-11-24T17:36:28Z</time>
      </trkpt>
      <trkpt lat="43.385084" lon="-5.734494">
        <ele>199.6</ele>
        <time>2019-11-24T17:36:29Z</time>
      </trkpt>
      <trkpt lat="43.385107" lon="-5.734395">
        <ele>199.8</ele>
        <time>2019-11-24T17:36:30Z</time>
      </trkpt>
      <trkpt lat="43.38513" lon="-5.734296">
        <ele>200.6</ele>
        <time>2019-11-24T17:36:31Z</time>
      </trkpt>
      <trkpt lat="43.38515" lon="-5.734198">
        <ele>200.8</ele>
        <time>2019-11-24T17:36:32Z</time>
      </trkpt>
      <trkpt lat="43.385171" lon="-5.7341">
        <ele>201.4</ele>
        <time>2019-11-24T17:36:33Z</time>
      </trkpt>
      <trkpt lat="43.385191" lon="-5.734002">
        <ele>202.4</ele>
        <time>2019-11-24T17:36:34Z</time>
      </trkpt>
      <trkpt lat="43.38521" lon="-5.733904">
        <ele>202.2</ele>
        <time>2019-11-24T17:36:35Z</time>
      </trkpt>
      <trkpt lat="43.38523" lon="-5.733809">
        <ele>202.6</ele>
        <time>2019-11-24T17:36:36Z</time>
      </trkpt>
      <trkpt lat="43.385249" lon="-5.733714">
        <ele>202.6</ele>
        <time>2019-11-24T17:36:37Z</time>
      </trkpt>
      <trkpt lat="43.385266" lon="-5.733619">
        <ele>202.6</ele>
        <time>2019-11-24T17:36:38Z</time>
      </trkpt>
      <trkpt lat="43.385286" lon="-5.733527">
        <ele>202.8</ele>
        <time>2019-11-24T17:36:39Z</time>
      </trkpt>
      <trkpt lat="43.385305" lon="-5.733437">
        <ele>203.4</ele>
        <time>2019-11-24T17:36:40Z</time>
      </trkpt>
      <trkpt lat="43.385324" lon="-5.733347">
        <ele>203.6</ele>
        <time>2019-11-24T17:36:41Z</time>
      </trkpt>
      <trkpt lat="43.385343" lon="-5.733258">
        <ele>203.8</ele>
        <time>2019-11-24T17:36:42Z</time>
      </trkpt>
      <trkpt lat="43.385362" lon="-5.733171">
        <ele>204.2</ele>
        <time>2019-11-24T17:36:43Z</time>
      </trkpt>
      <trkpt lat="43.385379" lon="-5.733086">
        <ele>204.6</ele>
        <time>2019-11-24T17:36:44Z</time>
      </trkpt>
      <trkpt lat="43.385396" lon="-5.733001">
        <ele>204.4</ele>
        <time>2019-11-24T17:36:45Z</time>
      </trkpt>
      <trkpt lat="43.385413" lon="-5.732916">
        <ele>204.2</ele>
        <time>2019-11-24T17:36:46Z</time>
      </trkpt>
      <trkpt lat="43.38543" lon="-5.732832">
        <ele>204.4</ele>
        <time>2019-11-24T17:36:47Z</time>
      </trkpt>
      <trkpt lat="43.385449" lon="-5.732749">
        <ele>204.4</ele>
        <time>2019-11-24T17:36:48Z</time>
      </trkpt>
      <trkpt lat="43.385469" lon="-5.732665">
        <ele>204.4</ele>
        <time>2019-11-24T17:36:49Z</time>
      </trkpt>
      <trkpt lat="43.385486" lon="-5.73258">
        <ele>204.4</ele>
        <time>2019-11-24T17:36:50Z</time>
      </trkpt>
      <trkpt lat="43.3855" lon="-5.732493">
        <ele>204.2</ele>
        <time>2019-11-24T17:36:51Z</time>
      </trkpt>
      <trkpt lat="43.385512" lon="-5.732404">
        <ele>204</ele>
        <time>2019-11-24T17:36:52Z</time>
      </trkpt>
      <trkpt lat="43.385522" lon="-5.732313">
        <ele>204.2</ele>
        <time>2019-11-24T17:36:53Z</time>
      </trkpt>
      <trkpt lat="43.385533" lon="-5.732219">
        <ele>204</ele>
        <time>2019-11-24T17:36:54Z</time>
      </trkpt>
      <trkpt lat="43.385545" lon="-5.732124">
        <ele>204</ele>
        <time>2019-11-24T17:36:55Z</time>
      </trkpt>
      <trkpt lat="43.385558" lon="-5.732027">
        <ele>203.6</ele>
        <time>2019-11-24T17:36:56Z</time>
      </trkpt>
      <trkpt lat="43.385569" lon="-5.731928">
        <ele>203.4</ele>
        <time>2019-11-24T17:36:57Z</time>
      </trkpt>
      <trkpt lat="43.385581" lon="-5.731826">
        <ele>203</ele>
        <time>2019-11-24T17:36:58Z</time>
      </trkpt>
      <trkpt lat="43.385593" lon="-5.731724">
        <ele>203</ele>
        <time>2019-11-24T17:36:59Z</time>
      </trkpt>
      <trkpt lat="43.385605" lon="-5.731621">
        <ele>202.8</ele>
        <time>2019-11-24T17:37:00Z</time>
      </trkpt>
      <trkpt lat="43.385615" lon="-5.731516">
        <ele>202.4</ele>
        <time>2019-11-24T17:37:01Z</time>
      </trkpt>
      <trkpt lat="43.385625" lon="-5.73141">
        <ele>202.4</ele>
        <time>2019-11-24T17:37:02Z</time>
      </trkpt>
      <trkpt lat="43.385633" lon="-5.7313">
        <ele>201.4</ele>
        <time>2019-11-24T17:37:03Z</time>
      </trkpt>
      <trkpt lat="43.385641" lon="-5.731187">
        <ele>201.4</ele>
        <time>2019-11-24T17:37:04Z</time>
      </trkpt>
      <trkpt lat="43.385649" lon="-5.731072">
        <ele>201.2</ele>
        <time>2019-11-24T17:37:05Z</time>
      </trkpt>
      <trkpt lat="43.385659" lon="-5.730955">
        <ele>200.8</ele>
        <time>2019-11-24T17:37:06Z</time>
      </trkpt>
      <trkpt lat="43.38567" lon="-5.730838">
        <ele>200.4</ele>
        <time>2019-11-24T17:37:07Z</time>
      </trkpt>
      <trkpt lat="43.385679" lon="-5.730721">
        <ele>200.2</ele>
        <time>2019-11-24T17:37:08Z</time>
      </trkpt>
      <trkpt lat="43.385689" lon="-5.730605">
        <ele>199.6</ele>
        <time>2019-11-24T17:37:09Z</time>
      </trkpt>
      <trkpt lat="43.3857" lon="-5.730488">
        <ele>199.6</ele>
        <time>2019-11-24T17:37:10Z</time>
      </trkpt>
      <trkpt lat="43.38571" lon="-5.730372">
        <ele>199.6</ele>
        <time>2019-11-24T17:37:11Z</time>
      </trkpt>
      <trkpt lat="43.385721" lon="-5.730258">
        <ele>199.8</ele>
        <time>2019-11-24T17:37:12Z</time>
      </trkpt>
      <trkpt lat="43.385732" lon="-5.730144">
        <ele>199.6</ele>
        <time>2019-11-24T17:37:13Z</time>
      </trkpt>
      <trkpt lat="43.385742" lon="-5.73003">
        <ele>199.4</ele>
        <time>2019-11-24T17:37:14Z</time>
      </trkpt>
      <trkpt lat="43.385753" lon="-5.729917">
        <ele>199.2</ele>
        <time>2019-11-24T17:37:15Z</time>
      </trkpt>
      <trkpt lat="43.385763" lon="-5.729805">
        <ele>199.6</ele>
        <time>2019-11-24T17:37:16Z</time>
      </trkpt>
      <trkpt lat="43.385772" lon="-5.729693">
        <ele>199.4</ele>
        <time>2019-11-24T17:37:17Z</time>
      </trkpt>
      <trkpt lat="43.38578" lon="-5.72958">
        <ele>199.6</ele>
        <time>2019-11-24T17:37:18Z</time>
      </trkpt>
      <trkpt lat="43.385787" lon="-5.729467">
        <ele>199.4</ele>
        <time>2019-11-24T17:37:19Z</time>
      </trkpt>
      <trkpt lat="43.385793" lon="-5.729353">
        <ele>199.2</ele>
        <time>2019-11-24T17:37:20Z</time>
      </trkpt>
      <trkpt lat="43.385801" lon="-5.72924">
        <ele>199.4</ele>
        <time>2019-11-24T17:37:21Z</time>
      </trkpt>
      <trkpt lat="43.38581" lon="-5.729127">
        <ele>199.8</ele>
        <time>2019-11-24T17:37:22Z</time>
      </trkpt>
      <trkpt lat="43.385819" lon="-5.729015">
        <ele>199.8</ele>
        <time>2019-11-24T17:37:23Z</time>
      </trkpt>
      <trkpt lat="43.385827" lon="-5.728904">
        <ele>200</ele>
        <time>2019-11-24T17:37:24Z</time>
      </trkpt>
      <trkpt lat="43.385835" lon="-5.728793">
        <ele>199.8</ele>
        <time>2019-11-24T17:37:25Z</time>
      </trkpt>
      <trkpt lat="43.385843" lon="-5.728683">
        <ele>200.2</ele>
        <time>2019-11-24T17:37:26Z</time>
      </trkpt>
      <trkpt lat="43.38585" lon="-5.728572">
        <ele>200.2</ele>
        <time>2019-11-24T17:37:27Z</time>
      </trkpt>
      <trkpt lat="43.385857" lon="-5.728463">
        <ele>200.2</ele>
        <time>2019-11-24T17:37:28Z</time>
      </trkpt>
      <trkpt lat="43.385866" lon="-5.728354">
        <ele>200</ele>
        <time>2019-11-24T17:37:29Z</time>
      </trkpt>
      <trkpt lat="43.385876" lon="-5.728247">
        <ele>200</ele>
        <time>2019-11-24T17:37:30Z</time>
      </trkpt>
      <trkpt lat="43.385885" lon="-5.728142">
        <ele>200.2</ele>
        <time>2019-11-24T17:37:31Z</time>
      </trkpt>
      <trkpt lat="43.385892" lon="-5.728036">
        <ele>200.8</ele>
        <time>2019-11-24T17:37:32Z</time>
      </trkpt>
      <trkpt lat="43.385898" lon="-5.727931">
        <ele>200.6</ele>
        <time>2019-11-24T17:37:33Z</time>
      </trkpt>
      <trkpt lat="43.385906" lon="-5.727828">
        <ele>200.8</ele>
        <time>2019-11-24T17:37:34Z</time>
      </trkpt>
      <trkpt lat="43.385914" lon="-5.727725">
        <ele>200.8</ele>
        <time>2019-11-24T17:37:35Z</time>
      </trkpt>
      <trkpt lat="43.385922" lon="-5.727623">
        <ele>201.4</ele>
        <time>2019-11-24T17:37:36Z</time>
      </trkpt>
      <trkpt lat="43.385929" lon="-5.727523">
        <ele>201.4</ele>
        <time>2019-11-24T17:37:37Z</time>
      </trkpt>
      <trkpt lat="43.385937" lon="-5.727426">
        <ele>201.6</ele>
        <time>2019-11-24T17:37:38Z</time>
      </trkpt>
      <trkpt lat="43.385945" lon="-5.727329">
        <ele>201.8</ele>
        <time>2019-11-24T17:37:39Z</time>
      </trkpt>
      <trkpt lat="43.385952" lon="-5.727232">
        <ele>201.8</ele>
        <time>2019-11-24T17:37:40Z</time>
      </trkpt>
      <trkpt lat="43.38596" lon="-5.727136">
        <ele>202</ele>
        <time>2019-11-24T17:37:41Z</time>
      </trkpt>
      <trkpt lat="43.385967" lon="-5.72704">
        <ele>202.4</ele>
        <time>2019-11-24T17:37:42Z</time>
      </trkpt>
      <trkpt lat="43.385975" lon="-5.726945">
        <ele>203</ele>
        <time>2019-11-24T17:37:43Z</time>
      </trkpt>
      <trkpt lat="43.385983" lon="-5.726848">
        <ele>202.8</ele>
        <time>2019-11-24T17:37:44Z</time>
      </trkpt>
      <trkpt lat="43.385991" lon="-5.726751">
        <ele>202.8</ele>
        <time>2019-11-24T17:37:45Z</time>
      </trkpt>
      <trkpt lat="43.385999" lon="-5.726652">
        <ele>202.6</ele>
        <time>2019-11-24T17:37:46Z</time>
      </trkpt>
      <trkpt lat="43.386006" lon="-5.726551">
        <ele>202.6</ele>
        <time>2019-11-24T17:37:47Z</time>
      </trkpt>
      <trkpt lat="43.386014" lon="-5.726452">
        <ele>203.2</ele>
        <time>2019-11-24T17:37:48Z</time>
      </trkpt>
      <trkpt lat="43.386021" lon="-5.726354">
        <ele>202.6</ele>
        <time>2019-11-24T17:37:49Z</time>
      </trkpt>
      <trkpt lat="43.386027" lon="-5.726256">
        <ele>202.4</ele>
        <time>2019-11-24T17:37:50Z</time>
      </trkpt>
      <trkpt lat="43.386035" lon="-5.726158">
        <ele>202.8</ele>
        <time>2019-11-24T17:37:51Z</time>
      </trkpt>
      <trkpt lat="43.386045" lon="-5.72606">
        <ele>202.8</ele>
        <time>2019-11-24T17:37:52Z</time>
      </trkpt>
      <trkpt lat="43.386054" lon="-5.725962">
        <ele>202.8</ele>
        <time>2019-11-24T17:37:53Z</time>
      </trkpt>
      <trkpt lat="43.386062" lon="-5.725866">
        <ele>201.8</ele>
        <time>2019-11-24T17:37:54Z</time>
      </trkpt>
      <trkpt lat="43.38607" lon="-5.725774">
        <ele>202.6</ele>
        <time>2019-11-24T17:37:55Z</time>
      </trkpt>
      <trkpt lat="43.386075" lon="-5.725691">
        <ele>202.6</ele>
        <time>2019-11-24T17:37:56Z</time>
      </trkpt>
      <trkpt lat="43.386078" lon="-5.72562">
        <ele>202.4</ele>
        <time>2019-11-24T17:37:57Z</time>
      </trkpt>
      <trkpt lat="43.386079" lon="-5.725562">
        <ele>202.6</ele>
        <time>2019-11-24T17:37:58Z</time>
      </trkpt>
      <trkpt lat="43.386078" lon="-5.725506">
        <ele>202.8</ele>
        <time>2019-11-24T17:37:59Z</time>
      </trkpt>
      <trkpt lat="43.386073" lon="-5.725447">
        <ele>202.6</ele>
        <time>2019-11-24T17:38:00Z</time>
      </trkpt>
      <trkpt lat="43.386061" lon="-5.725386">
        <ele>202.6</ele>
        <time>2019-11-24T17:38:01Z</time>
      </trkpt>
      <trkpt lat="43.386043" lon="-5.72532">
        <ele>202.6</ele>
        <time>2019-11-24T17:38:02Z</time>
      </trkpt>
      <trkpt lat="43.386027" lon="-5.72525">
        <ele>202.2</ele>
        <time>2019-11-24T17:38:03Z</time>
      </trkpt>
      <trkpt lat="43.386015" lon="-5.725173">
        <ele>202.6</ele>
        <time>2019-11-24T17:38:04Z</time>
      </trkpt>
      <trkpt lat="43.386003" lon="-5.72509">
        <ele>202.6</ele>
        <time>2019-11-24T17:38:05Z</time>
      </trkpt>
      <trkpt lat="43.385998" lon="-5.725003">
        <ele>202.4</ele>
        <time>2019-11-24T17:38:06Z</time>
      </trkpt>
      <trkpt lat="43.386005" lon="-5.724914">
        <ele>202.4</ele>
        <time>2019-11-24T17:38:07Z</time>
      </trkpt>
      <trkpt lat="43.386023" lon="-5.724826">
        <ele>202.6</ele>
        <time>2019-11-24T17:38:08Z</time>
      </trkpt>
      <trkpt lat="43.386045" lon="-5.724739">
        <ele>202.4</ele>
        <time>2019-11-24T17:38:09Z</time>
      </trkpt>
      <trkpt lat="43.386069" lon="-5.724652">
        <ele>202.4</ele>
        <time>2019-11-24T17:38:10Z</time>
      </trkpt>
      <trkpt lat="43.386097" lon="-5.724564">
        <ele>202.2</ele>
        <time>2019-11-24T17:38:11Z</time>
      </trkpt>
      <trkpt lat="43.386123" lon="-5.724472">
        <ele>202.4</ele>
        <time>2019-11-24T17:38:12Z</time>
      </trkpt>
      <trkpt lat="43.386146" lon="-5.724377">
        <ele>202.4</ele>
        <time>2019-11-24T17:38:13Z</time>
      </trkpt>
      <trkpt lat="43.386166" lon="-5.724278">
        <ele>202.2</ele>
        <time>2019-11-24T17:38:14Z</time>
      </trkpt>
      <trkpt lat="43.386182" lon="-5.724176">
        <ele>202.2</ele>
        <time>2019-11-24T17:38:15Z</time>
      </trkpt>
      <trkpt lat="43.386194" lon="-5.724072">
        <ele>202.4</ele>
        <time>2019-11-24T17:38:16Z</time>
      </trkpt>
      <trkpt lat="43.386203" lon="-5.723967">
        <ele>202.4</ele>
        <time>2019-11-24T17:38:17Z</time>
      </trkpt>
      <trkpt lat="43.386211" lon="-5.723862">
        <ele>202.6</ele>
        <time>2019-11-24T17:38:18Z</time>
      </trkpt>
      <trkpt lat="43.386219" lon="-5.723758">
        <ele>202.4</ele>
        <time>2019-11-24T17:38:19Z</time>
      </trkpt>
      <trkpt lat="43.386226" lon="-5.723654">
        <ele>202.8</ele>
        <time>2019-11-24T17:38:20Z</time>
      </trkpt>
      <trkpt lat="43.386233" lon="-5.723548">
        <ele>202.4</ele>
        <time>2019-11-24T17:38:21Z</time>
      </trkpt>
      <trkpt lat="43.386239" lon="-5.723442">
        <ele>202.6</ele>
        <time>2019-11-24T17:38:22Z</time>
      </trkpt>
      <trkpt lat="43.386245" lon="-5.723335">
        <ele>202.8</ele>
        <time>2019-11-24T17:38:23Z</time>
      </trkpt>
      <trkpt lat="43.386249" lon="-5.723227">
        <ele>202.8</ele>
        <time>2019-11-24T17:38:24Z</time>
      </trkpt>
      <trkpt lat="43.386253" lon="-5.72312">
        <ele>202.8</ele>
        <time>2019-11-24T17:38:25Z</time>
      </trkpt>
      <trkpt lat="43.386255" lon="-5.723013">
        <ele>202.6</ele>
        <time>2019-11-24T17:38:26Z</time>
      </trkpt>
      <trkpt lat="43.386255" lon="-5.722906">
        <ele>202.8</ele>
        <time>2019-11-24T17:38:27Z</time>
      </trkpt>
      <trkpt lat="43.386254" lon="-5.722799">
        <ele>202.8</ele>
        <time>2019-11-24T17:38:28Z</time>
      </trkpt>
      <trkpt lat="43.386254" lon="-5.722693">
        <ele>202.6</ele>
        <time>2019-11-24T17:38:29Z</time>
      </trkpt>
      <trkpt lat="43.386252" lon="-5.722587">
        <ele>202.8</ele>
        <time>2019-11-24T17:38:30Z</time>
      </trkpt>
      <trkpt lat="43.386249" lon="-5.722481">
        <ele>202.6</ele>
        <time>2019-11-24T17:38:31Z</time>
      </trkpt>
      <trkpt lat="43.386245" lon="-5.722375">
        <ele>202.6</ele>
        <time>2019-11-24T17:38:32Z</time>
      </trkpt>
      <trkpt lat="43.386241" lon="-5.72227">
        <ele>203</ele>
        <time>2019-11-24T17:38:33Z</time>
      </trkpt>
      <trkpt lat="43.386236" lon="-5.722165">
        <ele>202.8</ele>
        <time>2019-11-24T17:38:34Z</time>
      </trkpt>
      <trkpt lat="43.38623" lon="-5.72206">
        <ele>203</ele>
        <time>2019-11-24T17:38:35Z</time>
      </trkpt>
      <trkpt lat="43.386224" lon="-5.721954">
        <ele>202.6</ele>
        <time>2019-11-24T17:38:36Z</time>
      </trkpt>
      <trkpt lat="43.386216" lon="-5.721848">
        <ele>202.8</ele>
        <time>2019-11-24T17:38:37Z</time>
      </trkpt>
      <trkpt lat="43.386208" lon="-5.721742">
        <ele>202.4</ele>
        <time>2019-11-24T17:38:38Z</time>
      </trkpt>
      <trkpt lat="43.386199" lon="-5.721636">
        <ele>202.6</ele>
        <time>2019-11-24T17:38:39Z</time>
      </trkpt>
      <trkpt lat="43.386193" lon="-5.721532">
        <ele>203</ele>
        <time>2019-11-24T17:38:40Z</time>
      </trkpt>
      <trkpt lat="43.386189" lon="-5.721428">
        <ele>202.6</ele>
        <time>2019-11-24T17:38:41Z</time>
      </trkpt>
      <trkpt lat="43.386184" lon="-5.721325">
        <ele>202.6</ele>
        <time>2019-11-24T17:38:42Z</time>
      </trkpt>
      <trkpt lat="43.386176" lon="-5.721221">
        <ele>202.4</ele>
        <time>2019-11-24T17:38:43Z</time>
      </trkpt>
      <trkpt lat="43.386168" lon="-5.721116">
        <ele>202.4</ele>
        <time>2019-11-24T17:38:44Z</time>
      </trkpt>
      <trkpt lat="43.38616" lon="-5.721011">
        <ele>202.6</ele>
        <time>2019-11-24T17:38:45Z</time>
      </trkpt>
      <trkpt lat="43.386151" lon="-5.720907">
        <ele>202.6</ele>
        <time>2019-11-24T17:38:46Z</time>
      </trkpt>
      <trkpt lat="43.386143" lon="-5.720803">
        <ele>202.8</ele>
        <time>2019-11-24T17:38:47Z</time>
      </trkpt>
      <trkpt lat="43.386136" lon="-5.7207">
        <ele>202.8</ele>
        <time>2019-11-24T17:38:48Z</time>
      </trkpt>
      <trkpt lat="43.386129" lon="-5.720597">
        <ele>202.6</ele>
        <time>2019-11-24T17:38:49Z</time>
      </trkpt>
      <trkpt lat="43.386123" lon="-5.720496">
        <ele>202.6</ele>
        <time>2019-11-24T17:38:50Z</time>
      </trkpt>
      <trkpt lat="43.386115" lon="-5.720394">
        <ele>202.4</ele>
        <time>2019-11-24T17:38:51Z</time>
      </trkpt>
      <trkpt lat="43.386106" lon="-5.720292">
        <ele>202.4</ele>
        <time>2019-11-24T17:38:52Z</time>
      </trkpt>
      <trkpt lat="43.386097" lon="-5.720188">
        <ele>202.6</ele>
        <time>2019-11-24T17:38:53Z</time>
      </trkpt>
      <trkpt lat="43.386088" lon="-5.720085">
        <ele>202.6</ele>
        <time>2019-11-24T17:38:54Z</time>
      </trkpt>
      <trkpt lat="43.38608" lon="-5.71998">
        <ele>202.6</ele>
        <time>2019-11-24T17:38:55Z</time>
      </trkpt>
      <trkpt lat="43.386072" lon="-5.719877">
        <ele>203</ele>
        <time>2019-11-24T17:38:56Z</time>
      </trkpt>
      <trkpt lat="43.386063" lon="-5.719775">
        <ele>203.4</ele>
        <time>2019-11-24T17:38:57Z</time>
      </trkpt>
      <trkpt lat="43.386055" lon="-5.719674">
        <ele>203.4</ele>
        <time>2019-11-24T17:38:58Z</time>
      </trkpt>
      <trkpt lat="43.386047" lon="-5.719575">
        <ele>203.6</ele>
        <time>2019-11-24T17:38:59Z</time>
      </trkpt>
      <trkpt lat="43.38604" lon="-5.719478">
        <ele>204</ele>
        <time>2019-11-24T17:39:00Z</time>
      </trkpt>
      <trkpt lat="43.386031" lon="-5.719381">
        <ele>204</ele>
        <time>2019-11-24T17:39:01Z</time>
      </trkpt>
      <trkpt lat="43.386024" lon="-5.719286">
        <ele>204</ele>
        <time>2019-11-24T17:39:02Z</time>
      </trkpt>
      <trkpt lat="43.386017" lon="-5.719192">
        <ele>204.6</ele>
        <time>2019-11-24T17:39:03Z</time>
      </trkpt>
      <trkpt lat="43.38601" lon="-5.719099">
        <ele>204.8</ele>
        <time>2019-11-24T17:39:04Z</time>
      </trkpt>
      <trkpt lat="43.386003" lon="-5.719006">
        <ele>205</ele>
        <time>2019-11-24T17:39:05Z</time>
      </trkpt>
      <trkpt lat="43.385996" lon="-5.718916">
        <ele>205</ele>
        <time>2019-11-24T17:39:06Z</time>
      </trkpt>
      <trkpt lat="43.385991" lon="-5.718826">
        <ele>205.2</ele>
        <time>2019-11-24T17:39:07Z</time>
      </trkpt>
      <trkpt lat="43.385986" lon="-5.718736">
        <ele>205.4</ele>
        <time>2019-11-24T17:39:08Z</time>
      </trkpt>
      <trkpt lat="43.385981" lon="-5.718647">
        <ele>205.8</ele>
        <time>2019-11-24T17:39:09Z</time>
      </trkpt>
      <trkpt lat="43.385975" lon="-5.718559">
        <ele>206</ele>
        <time>2019-11-24T17:39:10Z</time>
      </trkpt>
      <trkpt lat="43.385968" lon="-5.718472">
        <ele>206</ele>
        <time>2019-11-24T17:39:11Z</time>
      </trkpt>
      <trkpt lat="43.385962" lon="-5.718387">
        <ele>206.6</ele>
        <time>2019-11-24T17:39:12Z</time>
      </trkpt>
      <trkpt lat="43.385956" lon="-5.718301">
        <ele>206.8</ele>
        <time>2019-11-24T17:39:13Z</time>
      </trkpt>
      <trkpt lat="43.385949" lon="-5.718215">
        <ele>207.2</ele>
        <time>2019-11-24T17:39:14Z</time>
      </trkpt>
      <trkpt lat="43.385942" lon="-5.718129">
        <ele>207.2</ele>
        <time>2019-11-24T17:39:15Z</time>
      </trkpt>
      <trkpt lat="43.385936" lon="-5.718043">
        <ele>207.4</ele>
        <time>2019-11-24T17:39:16Z</time>
      </trkpt>
      <trkpt lat="43.385929" lon="-5.717958">
        <ele>207.6</ele>
        <time>2019-11-24T17:39:17Z</time>
      </trkpt>
      <trkpt lat="43.385922" lon="-5.717872">
        <ele>207.6</ele>
        <time>2019-11-24T17:39:18Z</time>
      </trkpt>
      <trkpt lat="43.385916" lon="-5.717787">
        <ele>207.8</ele>
        <time>2019-11-24T17:39:19Z</time>
      </trkpt>
      <trkpt lat="43.38591" lon="-5.717702">
        <ele>207.8</ele>
        <time>2019-11-24T17:39:20Z</time>
      </trkpt>
      <trkpt lat="43.385904" lon="-5.717617">
        <ele>207.8</ele>
        <time>2019-11-24T17:39:21Z</time>
      </trkpt>
      <trkpt lat="43.385897" lon="-5.717533">
        <ele>207.8</ele>
        <time>2019-11-24T17:39:22Z</time>
      </trkpt>
      <trkpt lat="43.385891" lon="-5.717449">
        <ele>208.2</ele>
        <time>2019-11-24T17:39:23Z</time>
      </trkpt>
      <trkpt lat="43.385884" lon="-5.717365">
        <ele>208.4</ele>
        <time>2019-11-24T17:39:24Z</time>
      </trkpt>
      <trkpt lat="43.385878" lon="-5.717281">
        <ele>208.4</ele>
        <time>2019-11-24T17:39:25Z</time>
      </trkpt>
      <trkpt lat="43.385872" lon="-5.717198">
        <ele>208.6</ele>
        <time>2019-11-24T17:39:26Z</time>
      </trkpt>
      <trkpt lat="43.385866" lon="-5.717114">
        <ele>208.8</ele>
        <time>2019-11-24T17:39:27Z</time>
      </trkpt>
      <trkpt lat="43.38586" lon="-5.71703">
        <ele>208.8</ele>
        <time>2019-11-24T17:39:28Z</time>
      </trkpt>
      <trkpt lat="43.385855" lon="-5.716945">
        <ele>209</ele>
        <time>2019-11-24T17:39:29Z</time>
      </trkpt>
      <trkpt lat="43.385848" lon="-5.716859">
        <ele>209</ele>
        <time>2019-11-24T17:39:30Z</time>
      </trkpt>
      <trkpt lat="43.385842" lon="-5.716773">
        <ele>209</ele>
        <time>2019-11-24T17:39:31Z</time>
      </trkpt>
      <trkpt lat="43.385837" lon="-5.716687">
        <ele>209</ele>
        <time>2019-11-24T17:39:32Z</time>
      </trkpt>
      <trkpt lat="43.385831" lon="-5.7166">
        <ele>209.2</ele>
        <time>2019-11-24T17:39:33Z</time>
      </trkpt>
      <trkpt lat="43.385825" lon="-5.716512">
        <ele>209.4</ele>
        <time>2019-11-24T17:39:34Z</time>
      </trkpt>
      <trkpt lat="43.385819" lon="-5.716422">
        <ele>209.4</ele>
        <time>2019-11-24T17:39:35Z</time>
      </trkpt>
      <trkpt lat="43.385813" lon="-5.71633">
        <ele>209.2</ele>
        <time>2019-11-24T17:39:36Z</time>
      </trkpt>
      <trkpt lat="43.385809" lon="-5.716236">
        <ele>209.6</ele>
        <time>2019-11-24T17:39:37Z</time>
      </trkpt>
      <trkpt lat="43.385806" lon="-5.716139">
        <ele>209</ele>
        <time>2019-11-24T17:39:38Z</time>
      </trkpt>
      <trkpt lat="43.385802" lon="-5.716039">
        <ele>208.8</ele>
        <time>2019-11-24T17:39:39Z</time>
      </trkpt>
      <trkpt lat="43.385798" lon="-5.715937">
        <ele>208.8</ele>
        <time>2019-11-24T17:39:40Z</time>
      </trkpt>
      <trkpt lat="43.385793" lon="-5.715834">
        <ele>208.6</ele>
        <time>2019-11-24T17:39:41Z</time>
      </trkpt>
      <trkpt lat="43.385788" lon="-5.71573">
        <ele>208.2</ele>
        <time>2019-11-24T17:39:42Z</time>
      </trkpt>
      <trkpt lat="43.385782" lon="-5.715625">
        <ele>208.2</ele>
        <time>2019-11-24T17:39:43Z</time>
      </trkpt>
      <trkpt lat="43.385775" lon="-5.715519">
        <ele>208</ele>
        <time>2019-11-24T17:39:44Z</time>
      </trkpt>
      <trkpt lat="43.385768" lon="-5.715413">
        <ele>208</ele>
        <time>2019-11-24T17:39:45Z</time>
      </trkpt>
      <trkpt lat="43.38576" lon="-5.715307">
        <ele>207.6</ele>
        <time>2019-11-24T17:39:46Z</time>
      </trkpt>
      <trkpt lat="43.385752" lon="-5.715201">
        <ele>207.8</ele>
        <time>2019-11-24T17:39:47Z</time>
      </trkpt>
      <trkpt lat="43.385745" lon="-5.715095">
        <ele>208.2</ele>
        <time>2019-11-24T17:39:48Z</time>
      </trkpt>
      <trkpt lat="43.385739" lon="-5.714991">
        <ele>208.2</ele>
        <time>2019-11-24T17:39:49Z</time>
      </trkpt>
      <trkpt lat="43.385732" lon="-5.714888">
        <ele>208.6</ele>
        <time>2019-11-24T17:39:50Z</time>
      </trkpt>
      <trkpt lat="43.385724" lon="-5.714784">
        <ele>208.8</ele>
        <time>2019-11-24T17:39:51Z</time>
      </trkpt>
      <trkpt lat="43.385715" lon="-5.71468">
        <ele>209</ele>
        <time>2019-11-24T17:39:52Z</time>
      </trkpt>
      <trkpt lat="43.385705" lon="-5.714577">
        <ele>209.2</ele>
        <time>2019-11-24T17:39:53Z</time>
      </trkpt>
      <trkpt lat="43.385695" lon="-5.714474">
        <ele>209.8</ele>
        <time>2019-11-24T17:39:54Z</time>
      </trkpt>
      <trkpt lat="43.385687" lon="-5.714373">
        <ele>210</ele>
        <time>2019-11-24T17:39:55Z</time>
      </trkpt>
      <trkpt lat="43.38568" lon="-5.714273">
        <ele>210.2</ele>
        <time>2019-11-24T17:39:56Z</time>
      </trkpt>
      <trkpt lat="43.385674" lon="-5.714173">
        <ele>210.6</ele>
        <time>2019-11-24T17:39:57Z</time>
      </trkpt>
      <trkpt lat="43.385669" lon="-5.714074">
        <ele>210.8</ele>
        <time>2019-11-24T17:39:58Z</time>
      </trkpt>
      <trkpt lat="43.385663" lon="-5.713976">
        <ele>210.8</ele>
        <time>2019-11-24T17:39:59Z</time>
      </trkpt>
      <trkpt lat="43.385658" lon="-5.713878">
        <ele>211</ele>
        <time>2019-11-24T17:40:00Z</time>
      </trkpt>
      <trkpt lat="43.385652" lon="-5.713779">
        <ele>211.2</ele>
        <time>2019-11-24T17:40:01Z</time>
      </trkpt>
      <trkpt lat="43.385647" lon="-5.713679">
        <ele>211.6</ele>
        <time>2019-11-24T17:40:02Z</time>
      </trkpt>
      <trkpt lat="43.385643" lon="-5.71358">
        <ele>211.8</ele>
        <time>2019-11-24T17:40:03Z</time>
      </trkpt>
      <trkpt lat="43.385639" lon="-5.71348">
        <ele>211.6</ele>
        <time>2019-11-24T17:40:04Z</time>
      </trkpt>
      <trkpt lat="43.385634" lon="-5.71338">
        <ele>211.6</ele>
        <time>2019-11-24T17:40:05Z</time>
      </trkpt>
      <trkpt lat="43.385628" lon="-5.71328">
        <ele>211.8</ele>
        <time>2019-11-24T17:40:06Z</time>
      </trkpt>
      <trkpt lat="43.385622" lon="-5.71318">
        <ele>212</ele>
        <time>2019-11-24T17:40:07Z</time>
      </trkpt>
      <trkpt lat="43.385617" lon="-5.71308">
        <ele>212.2</ele>
        <time>2019-11-24T17:40:08Z</time>
      </trkpt>
      <trkpt lat="43.385613" lon="-5.71298">
        <ele>212.4</ele>
        <time>2019-11-24T17:40:09Z</time>
      </trkpt>
      <trkpt lat="43.385608" lon="-5.712881">
        <ele>212.2</ele>
        <time>2019-11-24T17:40:10Z</time>
      </trkpt>
      <trkpt lat="43.385601" lon="-5.712782">
        <ele>212.6</ele>
        <time>2019-11-24T17:40:11Z</time>
      </trkpt>
      <trkpt lat="43.385595" lon="-5.712683">
        <ele>212.6</ele>
        <time>2019-11-24T17:40:12Z</time>
      </trkpt>
      <trkpt lat="43.385588" lon="-5.712585">
        <ele>212.8</ele>
        <time>2019-11-24T17:40:13Z</time>
      </trkpt>
      <trkpt lat="43.38558" lon="-5.712487">
        <ele>212.4</ele>
        <time>2019-11-24T17:40:14Z</time>
      </trkpt>
      <trkpt lat="43.385572" lon="-5.712387">
        <ele>212.4</ele>
        <time>2019-11-24T17:40:15Z</time>
      </trkpt>
      <trkpt lat="43.385562" lon="-5.712286">
        <ele>212.2</ele>
        <time>2019-11-24T17:40:16Z</time>
      </trkpt>
      <trkpt lat="43.385549" lon="-5.712184">
        <ele>212.2</ele>
        <time>2019-11-24T17:40:17Z</time>
      </trkpt>
      <trkpt lat="43.385536" lon="-5.712082">
        <ele>212</ele>
        <time>2019-11-24T17:40:18Z</time>
      </trkpt>
      <trkpt lat="43.385522" lon="-5.711979">
        <ele>212.2</ele>
        <time>2019-11-24T17:40:19Z</time>
      </trkpt>
      <trkpt lat="43.385509" lon="-5.711875">
        <ele>211.6</ele>
        <time>2019-11-24T17:40:20Z</time>
      </trkpt>
      <trkpt lat="43.385495" lon="-5.711771">
        <ele>211.4</ele>
        <time>2019-11-24T17:40:21Z</time>
      </trkpt>
      <trkpt lat="43.385479" lon="-5.711667">
        <ele>211.2</ele>
        <time>2019-11-24T17:40:22Z</time>
      </trkpt>
      <trkpt lat="43.385463" lon="-5.711563">
        <ele>211.4</ele>
        <time>2019-11-24T17:40:23Z</time>
      </trkpt>
      <trkpt lat="43.385447" lon="-5.711458">
        <ele>210.8</ele>
        <time>2019-11-24T17:40:24Z</time>
      </trkpt>
      <trkpt lat="43.38543" lon="-5.711352">
        <ele>210.6</ele>
        <time>2019-11-24T17:40:25Z</time>
      </trkpt>
      <trkpt lat="43.385413" lon="-5.711246">
        <ele>210.8</ele>
        <time>2019-11-24T17:40:26Z</time>
      </trkpt>
      <trkpt lat="43.385395" lon="-5.71114">
        <ele>210.8</ele>
        <time>2019-11-24T17:40:27Z</time>
      </trkpt>
      <trkpt lat="43.385376" lon="-5.711036">
        <ele>211</ele>
        <time>2019-11-24T17:40:28Z</time>
      </trkpt>
      <trkpt lat="43.385358" lon="-5.710931">
        <ele>210.8</ele>
        <time>2019-11-24T17:40:29Z</time>
      </trkpt>
      <trkpt lat="43.38534" lon="-5.710825">
        <ele>210.6</ele>
        <time>2019-11-24T17:40:30Z</time>
      </trkpt>
      <trkpt lat="43.385322" lon="-5.71072">
        <ele>210</ele>
        <time>2019-11-24T17:40:31Z</time>
      </trkpt>
      <trkpt lat="43.385304" lon="-5.710613">
        <ele>210.4</ele>
        <time>2019-11-24T17:40:32Z</time>
      </trkpt>
      <trkpt lat="43.385285" lon="-5.710507">
        <ele>210.2</ele>
        <time>2019-11-24T17:40:33Z</time>
      </trkpt>
      <trkpt lat="43.385266" lon="-5.710401">
        <ele>210.4</ele>
        <time>2019-11-24T17:40:34Z</time>
      </trkpt>
      <trkpt lat="43.385247" lon="-5.710294">
        <ele>210.2</ele>
        <time>2019-11-24T17:40:35Z</time>
      </trkpt>
      <trkpt lat="43.385229" lon="-5.710189">
        <ele>210.6</ele>
        <time>2019-11-24T17:40:36Z</time>
      </trkpt>
      <trkpt lat="43.385211" lon="-5.710083">
        <ele>211.2</ele>
        <time>2019-11-24T17:40:37Z</time>
      </trkpt>
      <trkpt lat="43.385194" lon="-5.709978">
        <ele>210.8</ele>
        <time>2019-11-24T17:40:38Z</time>
      </trkpt>
      <trkpt lat="43.385178" lon="-5.709871">
        <ele>211.6</ele>
        <time>2019-11-24T17:40:39Z</time>
      </trkpt>
      <trkpt lat="43.385162" lon="-5.709763">
        <ele>211.2</ele>
        <time>2019-11-24T17:40:40Z</time>
      </trkpt>
      <trkpt lat="43.385145" lon="-5.709655">
        <ele>211</ele>
        <time>2019-11-24T17:40:41Z</time>
      </trkpt>
      <trkpt lat="43.385126" lon="-5.709548">
        <ele>210.6</ele>
        <time>2019-11-24T17:40:42Z</time>
      </trkpt>
      <trkpt lat="43.385105" lon="-5.709441">
        <ele>210.8</ele>
        <time>2019-11-24T17:40:43Z</time>
      </trkpt>
      <trkpt lat="43.385084" lon="-5.709336">
        <ele>210.2</ele>
        <time>2019-11-24T17:40:44Z</time>
      </trkpt>
      <trkpt lat="43.385063" lon="-5.70923">
        <ele>210.2</ele>
        <time>2019-11-24T17:40:45Z</time>
      </trkpt>
      <trkpt lat="43.385043" lon="-5.709123">
        <ele>210.2</ele>
        <time>2019-11-24T17:40:46Z</time>
      </trkpt>
      <trkpt lat="43.385023" lon="-5.709017">
        <ele>210.4</ele>
        <time>2019-11-24T17:40:47Z</time>
      </trkpt>
      <trkpt lat="43.385004" lon="-5.708911">
        <ele>210.4</ele>
        <time>2019-11-24T17:40:48Z</time>
      </trkpt>
      <trkpt lat="43.384986" lon="-5.708805">
        <ele>210.2</ele>
        <time>2019-11-24T17:40:49Z</time>
      </trkpt>
      <trkpt lat="43.384969" lon="-5.708699">
        <ele>210.2</ele>
        <time>2019-11-24T17:40:50Z</time>
      </trkpt>
      <trkpt lat="43.384952" lon="-5.708594">
        <ele>210</ele>
        <time>2019-11-24T17:40:51Z</time>
      </trkpt>
      <trkpt lat="43.384935" lon="-5.708489">
        <ele>210</ele>
        <time>2019-11-24T17:40:52Z</time>
      </trkpt>
      <trkpt lat="43.384917" lon="-5.708384">
        <ele>210</ele>
        <time>2019-11-24T17:40:53Z</time>
      </trkpt>
      <trkpt lat="43.384899" lon="-5.708278">
        <ele>210.4</ele>
        <time>2019-11-24T17:40:54Z</time>
      </trkpt>
      <trkpt lat="43.384882" lon="-5.708171">
        <ele>210.4</ele>
        <time>2019-11-24T17:40:55Z</time>
      </trkpt>
      <trkpt lat="43.384866" lon="-5.708065">
        <ele>210.2</ele>
        <time>2019-11-24T17:40:56Z</time>
      </trkpt>
      <trkpt lat="43.384848" lon="-5.707961">
        <ele>210.2</ele>
        <time>2019-11-24T17:40:57Z</time>
      </trkpt>
      <trkpt lat="43.38483" lon="-5.707858">
        <ele>210.2</ele>
        <time>2019-11-24T17:40:58Z</time>
      </trkpt>
      <trkpt lat="43.384812" lon="-5.707756">
        <ele>210.2</ele>
        <time>2019-11-24T17:40:59Z</time>
      </trkpt>
      <trkpt lat="43.384796" lon="-5.707655">
        <ele>210.6</ele>
        <time>2019-11-24T17:41:00Z</time>
      </trkpt>
      <trkpt lat="43.384782" lon="-5.707556">
        <ele>211</ele>
        <time>2019-11-24T17:41:01Z</time>
      </trkpt>
      <trkpt lat="43.384768" lon="-5.707457">
        <ele>210.6</ele>
        <time>2019-11-24T17:41:02Z</time>
      </trkpt>
      <trkpt lat="43.384752" lon="-5.707362">
        <ele>211</ele>
        <time>2019-11-24T17:41:03Z</time>
      </trkpt>
      <trkpt lat="43.384733" lon="-5.707268">
        <ele>211.2</ele>
        <time>2019-11-24T17:41:04Z</time>
      </trkpt>
      <trkpt lat="43.384715" lon="-5.707178">
        <ele>211.2</ele>
        <time>2019-11-24T17:41:05Z</time>
      </trkpt>
      <trkpt lat="43.384697" lon="-5.70709">
        <ele>211.6</ele>
        <time>2019-11-24T17:41:06Z</time>
      </trkpt>
      <trkpt lat="43.384681" lon="-5.707006">
        <ele>211.6</ele>
        <time>2019-11-24T17:41:07Z</time>
      </trkpt>
      <trkpt lat="43.384663" lon="-5.706924">
        <ele>212.2</ele>
        <time>2019-11-24T17:41:08Z</time>
      </trkpt>
      <trkpt lat="43.384645" lon="-5.706845">
        <ele>211.8</ele>
        <time>2019-11-24T17:41:09Z</time>
      </trkpt>
      <trkpt lat="43.384629" lon="-5.706767">
        <ele>211.4</ele>
        <time>2019-11-24T17:41:10Z</time>
      </trkpt>
      <trkpt lat="43.384614" lon="-5.706687">
        <ele>211.4</ele>
        <time>2019-11-24T17:41:11Z</time>
      </trkpt>
      <trkpt lat="43.384598" lon="-5.706608">
        <ele>212.2</ele>
        <time>2019-11-24T17:41:12Z</time>
      </trkpt>
      <trkpt lat="43.384581" lon="-5.706529">
        <ele>212.2</ele>
        <time>2019-11-24T17:41:13Z</time>
      </trkpt>
      <trkpt lat="43.384566" lon="-5.706452">
        <ele>212.8</ele>
        <time>2019-11-24T17:41:14Z</time>
      </trkpt>
      <trkpt lat="43.384553" lon="-5.706377">
        <ele>213.4</ele>
        <time>2019-11-24T17:41:15Z</time>
      </trkpt>
      <trkpt lat="43.384539" lon="-5.706305">
        <ele>213.4</ele>
        <time>2019-11-24T17:41:16Z</time>
      </trkpt>
      <trkpt lat="43.384528" lon="-5.706239">
        <ele>213.2</ele>
        <time>2019-11-24T17:41:17Z</time>
      </trkpt>
      <trkpt lat="43.38452" lon="-5.706179">
        <ele>214.2</ele>
        <time>2019-11-24T17:41:18Z</time>
      </trkpt>
      <trkpt lat="43.384512" lon="-5.706124">
        <ele>214.2</ele>
        <time>2019-11-24T17:41:19Z</time>
      </trkpt>
      <trkpt lat="43.384497" lon="-5.706078">
        <ele>214.8</ele>
        <time>2019-11-24T17:41:20Z</time>
      </trkpt>
      <trkpt lat="43.384481" lon="-5.706039">
        <ele>214.6</ele>
        <time>2019-11-24T17:41:21Z</time>
      </trkpt>
      <trkpt lat="43.38447" lon="-5.706">
        <ele>214.8</ele>
        <time>2019-11-24T17:41:22Z</time>
      </trkpt>
      <trkpt lat="43.384466" lon="-5.705965">
        <ele>215</ele>
        <time>2019-11-24T17:41:23Z</time>
      </trkpt>
      <trkpt lat="43.384465" lon="-5.705936">
        <ele>215</ele>
        <time>2019-11-24T17:41:24Z</time>
      </trkpt>
      <trkpt lat="43.384466" lon="-5.705915">
        <ele>215</ele>
        <time>2019-11-24T17:41:25Z</time>
      </trkpt>
      <trkpt lat="43.384468" lon="-5.705904">
        <ele>215</ele>
        <time>2019-11-24T17:41:26Z</time>
      </trkpt>
      <trkpt lat="43.384468" lon="-5.7059">
        <ele>214.8</ele>
        <time>2019-11-24T17:41:27Z</time>
      </trkpt>
      <trkpt lat="43.384513" lon="-5.70595">
        <ele>215.2</ele>
        <time>2019-11-24T17:43:58Z</time>
      </trkpt>
      <trkpt lat="43.384512" lon="-5.705971">
        <ele>215</ele>
        <time>2019-11-24T17:43:59Z</time>
      </trkpt>
      <trkpt lat="43.384501" lon="-5.705985">
        <ele>215.2</ele>
        <time>2019-11-24T17:44:00Z</time>
      </trkpt>
      <trkpt lat="43.38449" lon="-5.705988">
        <ele>215.2</ele>
        <time>2019-11-24T17:44:01Z</time>
      </trkpt>
      <trkpt lat="43.384483" lon="-5.705982">
        <ele>215.2</ele>
        <time>2019-11-24T17:44:02Z</time>
      </trkpt>
      <trkpt lat="43.384482" lon="-5.70597">
        <ele>215.4</ele>
        <time>2019-11-24T17:44:03Z</time>
      </trkpt>
      <trkpt lat="43.384484" lon="-5.705953">
        <ele>215.4</ele>
        <time>2019-11-24T17:44:04Z</time>
      </trkpt>
      <trkpt lat="43.384491" lon="-5.705932">
        <ele>215.4</ele>
        <time>2019-11-24T17:44:05Z</time>
      </trkpt>
      <trkpt lat="43.384503" lon="-5.705917">
        <ele>215</ele>
        <time>2019-11-24T17:44:06Z</time>
      </trkpt>
      <trkpt lat="43.38452" lon="-5.705915">
        <ele>215.2</ele>
        <time>2019-11-24T17:44:07Z</time>
      </trkpt>
      <trkpt lat="43.384531" lon="-5.705928">
        <ele>215</ele>
        <time>2019-11-24T17:44:08Z</time>
      </trkpt>
      <trkpt lat="43.384525" lon="-5.705948">
        <ele>215</ele>
        <time>2019-11-24T17:44:09Z</time>
      </trkpt>
      <trkpt lat="43.384508" lon="-5.705961">
        <ele>215</ele>
        <time>2019-11-24T17:44:10Z</time>
      </trkpt>
      <trkpt lat="43.384493" lon="-5.705961">
        <ele>215.2</ele>
        <time>2019-11-24T17:44:11Z</time>
      </trkpt>
      <trkpt lat="43.384481" lon="-5.705948">
        <ele>215.4</ele>
        <time>2019-11-24T17:44:12Z</time>
      </trkpt>
      <trkpt lat="43.384475" lon="-5.705925">
        <ele>215.4</ele>
        <time>2019-11-24T17:44:13Z</time>
      </trkpt>
      <trkpt lat="43.384477" lon="-5.705897">
        <ele>215.2</ele>
        <time>2019-11-24T17:44:14Z</time>
      </trkpt>
      <trkpt lat="43.384488" lon="-5.705869">
        <ele>215.2</ele>
        <time>2019-11-24T17:44:15Z</time>
      </trkpt>
      <trkpt lat="43.384508" lon="-5.705856">
        <ele>215</ele>
        <time>2019-11-24T17:44:16Z</time>
      </trkpt>
      <trkpt lat="43.384532" lon="-5.705866">
        <ele>215</ele>
        <time>2019-11-24T17:44:17Z</time>
      </trkpt>
      <trkpt lat="43.384546" lon="-5.705892">
        <ele>215</ele>
        <time>2019-11-24T17:44:18Z</time>
      </trkpt>
      <trkpt lat="43.384548" lon="-5.705924">
        <ele>214.8</ele>
        <time>2019-11-24T17:44:19Z</time>
      </trkpt>
      <trkpt lat="43.384542" lon="-5.705957">
        <ele>215.2</ele>
        <time>2019-11-24T17:44:20Z</time>
      </trkpt>
      <trkpt lat="43.384534" lon="-5.705991">
        <ele>215.2</ele>
        <time>2019-11-24T17:44:21Z</time>
      </trkpt>
      <trkpt lat="43.384524" lon="-5.706024">
        <ele>215.2</ele>
        <time>2019-11-24T17:44:22Z</time>
      </trkpt>
      <trkpt lat="43.384511" lon="-5.706049">
        <ele>215.2</ele>
        <time>2019-11-24T17:44:23Z</time>
      </trkpt>
      <trkpt lat="43.384494" lon="-5.706057">
        <ele>215.2</ele>
        <time>2019-11-24T17:44:24Z</time>
      </trkpt>
      <trkpt lat="43.384481" lon="-5.706048">
        <ele>215.2</ele>
        <time>2019-11-24T17:44:25Z</time>
      </trkpt>
      <trkpt lat="43.384478" lon="-5.706027">
        <ele>215.2</ele>
        <time>2019-11-24T17:44:26Z</time>
      </trkpt>
      <trkpt lat="43.384482" lon="-5.706002">
        <ele>215.2</ele>
        <time>2019-11-24T17:44:27Z</time>
      </trkpt>
      <trkpt lat="43.384491" lon="-5.705979">
        <ele>214.8</ele>
        <time>2019-11-24T17:44:28Z</time>
      </trkpt>
      <trkpt lat="43.384504" lon="-5.705968">
        <ele>214.8</ele>
        <time>2019-11-24T17:44:29Z</time>
      </trkpt>
      <trkpt lat="43.384519" lon="-5.705978">
        <ele>214.8</ele>
        <time>2019-11-24T17:44:30Z</time>
      </trkpt>
      <trkpt lat="43.384528" lon="-5.706001">
        <ele>214.8</ele>
        <time>2019-11-24T17:44:31Z</time>
      </trkpt>
      <trkpt lat="43.384527" lon="-5.706026">
        <ele>215</ele>
        <time>2019-11-24T17:44:32Z</time>
      </trkpt>
      <trkpt lat="43.384523" lon="-5.706041">
        <ele>215</ele>
        <time>2019-11-24T17:44:33Z</time>
      </trkpt>
      <trkpt lat="43.384523" lon="-5.706045">
        <ele>215</ele>
        <time>2019-11-24T17:44:34Z</time>
      </trkpt>
      <trkpt lat="43.384523" lon="-5.706048">
        <ele>215</ele>
        <time>2019-11-24T17:44:35Z</time>
      </trkpt>
      <trkpt lat="43.384484" lon="-5.706059">
        <ele>215.2</ele>
        <time>2019-11-24T17:44:51Z</time>
      </trkpt>
      <trkpt lat="43.384472" lon="-5.70605">
        <ele>215.2</ele>
        <time>2019-11-24T17:44:52Z</time>
      </trkpt>
      <trkpt lat="43.384463" lon="-5.706037">
        <ele>215.4</ele>
        <time>2019-11-24T17:44:53Z</time>
      </trkpt>
      <trkpt lat="43.384458" lon="-5.706018">
        <ele>215.6</ele>
        <time>2019-11-24T17:44:54Z</time>
      </trkpt>
      <trkpt lat="43.384461" lon="-5.705997">
        <ele>215.6</ele>
        <time>2019-11-24T17:44:55Z</time>
      </trkpt>
      <trkpt lat="43.384467" lon="-5.705984">
        <ele>215.6</ele>
        <time>2019-11-24T17:44:56Z</time>
      </trkpt>
      <trkpt lat="43.384471" lon="-5.70598">
        <ele>215.6</ele>
        <time>2019-11-24T17:44:57Z</time>
      </trkpt>
      <trkpt lat="43.384473" lon="-5.705981">
        <ele>215.6</ele>
        <time>2019-11-24T17:44:58Z</time>
      </trkpt>
      <trkpt lat="43.384494" lon="-5.70595">
        <ele>215.6</ele>
        <time>2019-11-24T17:45:42Z</time>
      </trkpt>
      <trkpt lat="43.384499" lon="-5.705928">
        <ele>215.6</ele>
        <time>2019-11-24T17:45:43Z</time>
      </trkpt>
      <trkpt lat="43.384501" lon="-5.705906">
        <ele>215.8</ele>
        <time>2019-11-24T17:45:44Z</time>
      </trkpt>
      <trkpt lat="43.384503" lon="-5.705882">
        <ele>215.8</ele>
        <time>2019-11-24T17:45:45Z</time>
      </trkpt>
      <trkpt lat="43.384507" lon="-5.705858">
        <ele>215.6</ele>
        <time>2019-11-24T17:45:46Z</time>
      </trkpt>
      <trkpt lat="43.384511" lon="-5.705831">
        <ele>215.4</ele>
        <time>2019-11-24T17:45:47Z</time>
      </trkpt>
      <trkpt lat="43.384516" lon="-5.705803">
        <ele>215.4</ele>
        <time>2019-11-24T17:45:48Z</time>
      </trkpt>
      <trkpt lat="43.384523" lon="-5.70577">
        <ele>215.4</ele>
        <time>2019-11-24T17:45:49Z</time>
      </trkpt>
      <trkpt lat="43.384533" lon="-5.705734">
        <ele>215.4</ele>
        <time>2019-11-24T17:45:50Z</time>
      </trkpt>
      <trkpt lat="43.384543" lon="-5.705693">
        <ele>215</ele>
        <time>2019-11-24T17:45:51Z</time>
      </trkpt>
      <trkpt lat="43.384553" lon="-5.705649">
        <ele>214.8</ele>
        <time>2019-11-24T17:45:52Z</time>
      </trkpt>
      <trkpt lat="43.384564" lon="-5.705602">
        <ele>214.8</ele>
        <time>2019-11-24T17:45:53Z</time>
      </trkpt>
      <trkpt lat="43.384571" lon="-5.705552">
        <ele>214.6</ele>
        <time>2019-11-24T17:45:54Z</time>
      </trkpt>
      <trkpt lat="43.384576" lon="-5.705501">
        <ele>214.4</ele>
        <time>2019-11-24T17:45:55Z</time>
      </trkpt>
      <trkpt lat="43.384585" lon="-5.705447">
        <ele>214.2</ele>
        <time>2019-11-24T17:45:56Z</time>
      </trkpt>
      <trkpt lat="43.384594" lon="-5.705391">
        <ele>214.2</ele>
        <time>2019-11-24T17:45:57Z</time>
      </trkpt>
      <trkpt lat="43.384602" lon="-5.705332">
        <ele>213.6</ele>
        <time>2019-11-24T17:45:58Z</time>
      </trkpt>
      <trkpt lat="43.38461" lon="-5.705268">
        <ele>213.4</ele>
        <time>2019-11-24T17:45:59Z</time>
      </trkpt>
      <trkpt lat="43.384621" lon="-5.705207">
        <ele>213.4</ele>
        <time>2019-11-24T17:46:00Z</time>
      </trkpt>
      <trkpt lat="43.384631" lon="-5.705145">
        <ele>213.4</ele>
        <time>2019-11-24T17:46:01Z</time>
      </trkpt>
      <trkpt lat="43.384639" lon="-5.705079">
        <ele>213.2</ele>
        <time>2019-11-24T17:46:02Z</time>
      </trkpt>
      <trkpt lat="43.384651" lon="-5.705012">
        <ele>213</ele>
        <time>2019-11-24T17:46:03Z</time>
      </trkpt>
      <trkpt lat="43.384662" lon="-5.704942">
        <ele>212.6</ele>
        <time>2019-11-24T17:46:04Z</time>
      </trkpt>
      <trkpt lat="43.38467" lon="-5.704866">
        <ele>212.2</ele>
        <time>2019-11-24T17:46:05Z</time>
      </trkpt>
      <trkpt lat="43.384678" lon="-5.704788">
        <ele>211.8</ele>
        <time>2019-11-24T17:46:06Z</time>
      </trkpt>
      <trkpt lat="43.384689" lon="-5.70471">
        <ele>211.6</ele>
        <time>2019-11-24T17:46:07Z</time>
      </trkpt>
      <trkpt lat="43.384698" lon="-5.704631">
        <ele>211.4</ele>
        <time>2019-11-24T17:46:08Z</time>
      </trkpt>
      <trkpt lat="43.384709" lon="-5.704553">
        <ele>211.6</ele>
        <time>2019-11-24T17:46:09Z</time>
      </trkpt>
      <trkpt lat="43.384719" lon="-5.704471">
        <ele>211.6</ele>
        <time>2019-11-24T17:46:10Z</time>
      </trkpt>
      <trkpt lat="43.384731" lon="-5.70439">
        <ele>211.2</ele>
        <time>2019-11-24T17:46:11Z</time>
      </trkpt>
      <trkpt lat="43.384742" lon="-5.704307">
        <ele>211.2</ele>
        <time>2019-11-24T17:46:12Z</time>
      </trkpt>
      <trkpt lat="43.384753" lon="-5.704223">
        <ele>211</ele>
        <time>2019-11-24T17:46:13Z</time>
      </trkpt>
      <trkpt lat="43.384762" lon="-5.704138">
        <ele>211</ele>
        <time>2019-11-24T17:46:14Z</time>
      </trkpt>
      <trkpt lat="43.384773" lon="-5.704054">
        <ele>210.6</ele>
        <time>2019-11-24T17:46:15Z</time>
      </trkpt>
      <trkpt lat="43.384784" lon="-5.70397">
        <ele>210.6</ele>
        <time>2019-11-24T17:46:16Z</time>
      </trkpt>
      <trkpt lat="43.384796" lon="-5.703889">
        <ele>210.6</ele>
        <time>2019-11-24T17:46:17Z</time>
      </trkpt>
      <trkpt lat="43.384808" lon="-5.703807">
        <ele>211</ele>
        <time>2019-11-24T17:46:18Z</time>
      </trkpt>
      <trkpt lat="43.384818" lon="-5.703722">
        <ele>210.6</ele>
        <time>2019-11-24T17:46:19Z</time>
      </trkpt>
      <trkpt lat="43.384829" lon="-5.703639">
        <ele>210.4</ele>
        <time>2019-11-24T17:46:20Z</time>
      </trkpt>
      <trkpt lat="43.384842" lon="-5.703557">
        <ele>210.2</ele>
        <time>2019-11-24T17:46:21Z</time>
      </trkpt>
      <trkpt lat="43.384856" lon="-5.703473">
        <ele>209.8</ele>
        <time>2019-11-24T17:46:22Z</time>
      </trkpt>
      <trkpt lat="43.384867" lon="-5.703395">
        <ele>209.8</ele>
        <time>2019-11-24T17:46:23Z</time>
      </trkpt>
      <trkpt lat="43.384876" lon="-5.703321">
        <ele>210</ele>
        <time>2019-11-24T17:46:24Z</time>
      </trkpt>
      <trkpt lat="43.384888" lon="-5.703255">
        <ele>209.8</ele>
        <time>2019-11-24T17:46:25Z</time>
      </trkpt>
      <trkpt lat="43.384899" lon="-5.703197">
        <ele>209.8</ele>
        <time>2019-11-24T17:46:26Z</time>
      </trkpt>
      <trkpt lat="43.384907" lon="-5.703132">
        <ele>209.8</ele>
        <time>2019-11-24T17:46:27Z</time>
      </trkpt>
      <trkpt lat="43.384915" lon="-5.703064">
        <ele>209.8</ele>
        <time>2019-11-24T17:46:28Z</time>
      </trkpt>
      <trkpt lat="43.384922" lon="-5.702984">
        <ele>209.6</ele>
        <time>2019-11-24T17:46:29Z</time>
      </trkpt>
      <trkpt lat="43.384935" lon="-5.702915">
        <ele>209.4</ele>
        <time>2019-11-24T17:46:30Z</time>
      </trkpt>
      <trkpt lat="43.384942" lon="-5.702844">
        <ele>209.8</ele>
        <time>2019-11-24T17:46:31Z</time>
      </trkpt>
      <trkpt lat="43.384954" lon="-5.702779">
        <ele>209.4</ele>
        <time>2019-11-24T17:46:32Z</time>
      </trkpt>
      <trkpt lat="43.384963" lon="-5.702716">
        <ele>209.6</ele>
        <time>2019-11-24T17:46:33Z</time>
      </trkpt>
      <trkpt lat="43.384968" lon="-5.702656">
        <ele>209.6</ele>
        <time>2019-11-24T17:46:34Z</time>
      </trkpt>
      <trkpt lat="43.384977" lon="-5.702603">
        <ele>209.4</ele>
        <time>2019-11-24T17:46:35Z</time>
      </trkpt>
      <trkpt lat="43.384986" lon="-5.702554">
        <ele>209.2</ele>
        <time>2019-11-24T17:46:36Z</time>
      </trkpt>
      <trkpt lat="43.384991" lon="-5.702505">
        <ele>209.6</ele>
        <time>2019-11-24T17:46:37Z</time>
      </trkpt>
      <trkpt lat="43.385" lon="-5.702467">
        <ele>209.2</ele>
        <time>2019-11-24T17:46:38Z</time>
      </trkpt>
      <trkpt lat="43.38501" lon="-5.702434">
        <ele>209.4</ele>
        <time>2019-11-24T17:46:39Z</time>
      </trkpt>
      <trkpt lat="43.38502" lon="-5.702399">
        <ele>209</ele>
        <time>2019-11-24T17:46:40Z</time>
      </trkpt>
      <trkpt lat="43.385033" lon="-5.702364">
        <ele>209.2</ele>
        <time>2019-11-24T17:46:41Z</time>
      </trkpt>
      <trkpt lat="43.385049" lon="-5.702337">
        <ele>208.6</ele>
        <time>2019-11-24T17:46:42Z</time>
      </trkpt>
      <trkpt lat="43.385065" lon="-5.702321">
        <ele>208.6</ele>
        <time>2019-11-24T17:46:43Z</time>
      </trkpt>
      <trkpt lat="43.385077" lon="-5.702309">
        <ele>209</ele>
        <time>2019-11-24T17:46:44Z</time>
      </trkpt>
      <trkpt lat="43.385081" lon="-5.702303">
        <ele>209.6</ele>
        <time>2019-11-24T17:46:45Z</time>
      </trkpt>
      <trkpt lat="43.385082" lon="-5.702303">
        <ele>209.8</ele>
        <time>2019-11-24T17:46:46Z</time>
      </trkpt>
      <trkpt lat="43.385011" lon="-5.702362">
        <ele>209.2</ele>
        <time>2019-11-24T16:30:36Z</time>
      </trkpt>
      <trkpt lat="43.385011" lon="-5.702361">
        <ele>209.8</ele>
        <time>2019-11-24T16:30:37Z</time>
      </trkpt>
      <trkpt lat="43.384944" lon="-5.70231">
        <ele>209.6</ele>
        <time>2019-11-24T16:30:51Z</time>
      </trkpt>
      <trkpt lat="43.384941" lon="-5.702284">
        <ele>209.6</ele>
        <time>2019-11-24T16:30:52Z</time>
      </trkpt>
      <trkpt lat="43.384945" lon="-5.70226">
        <ele>209.4</ele>
        <time>2019-11-24T16:30:53Z</time>
      </trkpt>
      <trkpt lat="43.384955" lon="-5.702233">
        <ele>209</ele>
        <time>2019-11-24T16:30:54Z</time>
      </trkpt>
      <trkpt lat="43.384963" lon="-5.702207">
        <ele>208.8</ele>
        <time>2019-11-24T16:30:55Z</time>
      </trkpt>
      <trkpt lat="43.384967" lon="-5.702178">
        <ele>208.8</ele>
        <time>2019-11-24T16:30:56Z</time>
      </trkpt>
      <trkpt lat="43.38497" lon="-5.702146">
        <ele>209</ele>
        <time>2019-11-24T16:30:57Z</time>
      </trkpt>
      <trkpt lat="43.384974" lon="-5.702112">
        <ele>208.8</ele>
        <time>2019-11-24T16:30:58Z</time>
      </trkpt>
      <trkpt lat="43.384978" lon="-5.702077">
        <ele>208.8</ele>
        <time>2019-11-24T16:30:59Z</time>
      </trkpt>
      <trkpt lat="43.384984" lon="-5.702042">
        <ele>208.6</ele>
        <time>2019-11-24T16:31:00Z</time>
      </trkpt>
      <trkpt lat="43.384992" lon="-5.702001">
        <ele>208.6</ele>
        <time>2019-11-24T16:31:01Z</time>
      </trkpt>
      <trkpt lat="43.385" lon="-5.701954">
        <ele>208.4</ele>
        <time>2019-11-24T16:31:02Z</time>
      </trkpt>
      <trkpt lat="43.385007" lon="-5.701903">
        <ele>208.4</ele>
        <time>2019-11-24T16:31:03Z</time>
      </trkpt>
      <trkpt lat="43.385014" lon="-5.701849">
        <ele>208.6</ele>
        <time>2019-11-24T16:31:04Z</time>
      </trkpt>
      <trkpt lat="43.385023" lon="-5.70179">
        <ele>208.4</ele>
        <time>2019-11-24T16:31:05Z</time>
      </trkpt>
      <trkpt lat="43.385034" lon="-5.701732">
        <ele>208.6</ele>
        <time>2019-11-24T16:31:06Z</time>
      </trkpt>
      <trkpt lat="43.385042" lon="-5.701672">
        <ele>208.6</ele>
        <time>2019-11-24T16:31:07Z</time>
      </trkpt>
      <trkpt lat="43.385047" lon="-5.701612">
        <ele>208.6</ele>
        <time>2019-11-24T16:31:08Z</time>
      </trkpt>
      <trkpt lat="43.385055" lon="-5.70155">
        <ele>208</ele>
        <time>2019-11-24T16:31:09Z</time>
      </trkpt>
      <trkpt lat="43.385064" lon="-5.701492">
        <ele>207.8</ele>
        <time>2019-11-24T16:31:10Z</time>
      </trkpt>
      <trkpt lat="43.385072" lon="-5.701432">
        <ele>208.2</ele>
        <time>2019-11-24T16:31:11Z</time>
      </trkpt>
      <trkpt lat="43.385078" lon="-5.701376">
        <ele>208.4</ele>
        <time>2019-11-24T16:31:12Z</time>
      </trkpt>
      <trkpt lat="43.385118" lon="-5.701335">
        <ele>208.4</ele>
        <time>2019-11-24T16:31:13Z</time>
      </trkpt>
      <trkpt lat="43.38512" lon="-5.701298">
        <ele>208.2</ele>
        <time>2019-11-24T16:31:14Z</time>
      </trkpt>
      <trkpt lat="43.385098" lon="-5.701269">
        <ele>208.4</ele>
        <time>2019-11-24T16:31:15Z</time>
      </trkpt>
      <trkpt lat="43.385059" lon="-5.701254">
        <ele>208</ele>
        <time>2019-11-24T16:31:16Z</time>
      </trkpt>
      <trkpt lat="43.38501" lon="-5.701244">
        <ele>207.6</ele>
        <time>2019-11-24T16:31:17Z</time>
      </trkpt>
      <trkpt lat="43.384958" lon="-5.701225">
        <ele>207</ele>
        <time>2019-11-24T16:31:18Z</time>
      </trkpt>
      <trkpt lat="43.384905" lon="-5.701202">
        <ele>207.2</ele>
        <time>2019-11-24T16:31:19Z</time>
      </trkpt>
      <trkpt lat="43.384852" lon="-5.701172">
        <ele>207</ele>
        <time>2019-11-24T16:31:20Z</time>
      </trkpt>
      <trkpt lat="43.384794" lon="-5.70114">
        <ele>206.6</ele>
        <time>2019-11-24T16:31:21Z</time>
      </trkpt>
      <trkpt lat="43.384732" lon="-5.701112">
        <ele>206.2</ele>
        <time>2019-11-24T16:31:22Z</time>
      </trkpt>
      <trkpt lat="43.384665" lon="-5.70109">
        <ele>206</ele>
        <time>2019-11-24T16:31:23Z</time>
      </trkpt>
      <trkpt lat="43.3846" lon="-5.70106">
        <ele>206</ele>
        <time>2019-11-24T16:31:24Z</time>
      </trkpt>
      <trkpt lat="43.384531" lon="-5.701031">
        <ele>205.6</ele>
        <time>2019-11-24T16:31:25Z</time>
      </trkpt>
      <trkpt lat="43.384459" lon="-5.701002">
        <ele>205</ele>
        <time>2019-11-24T16:31:26Z</time>
      </trkpt>
      <trkpt lat="43.384391" lon="-5.700973">
        <ele>205</ele>
        <time>2019-11-24T16:31:27Z</time>
      </trkpt>
      <trkpt lat="43.384323" lon="-5.700943">
        <ele>204.8</ele>
        <time>2019-11-24T16:31:28Z</time>
      </trkpt>
      <trkpt lat="43.384254" lon="-5.700912">
        <ele>204.6</ele>
        <time>2019-11-24T16:31:29Z</time>
      </trkpt>
      <trkpt lat="43.384182" lon="-5.700883">
        <ele>204.2</ele>
        <time>2019-11-24T16:31:30Z</time>
      </trkpt>
      <trkpt lat="43.384108" lon="-5.700854">
        <ele>204</ele>
        <time>2019-11-24T16:31:31Z</time>
      </trkpt>
      <trkpt lat="43.384034" lon="-5.700823">
        <ele>203.6</ele>
        <time>2019-11-24T16:31:32Z</time>
      </trkpt>
      <trkpt lat="43.383961" lon="-5.70079">
        <ele>203</ele>
        <time>2019-11-24T16:31:33Z</time>
      </trkpt>
      <trkpt lat="43.383885" lon="-5.700756">
        <ele>202.8</ele>
        <time>2019-11-24T16:31:34Z</time>
      </trkpt>
      <trkpt lat="43.383807" lon="-5.700725">
        <ele>202.6</ele>
        <time>2019-11-24T16:31:35Z</time>
      </trkpt>
      <trkpt lat="43.383727" lon="-5.700699">
        <ele>201.8</ele>
        <time>2019-11-24T16:31:36Z</time>
      </trkpt>
      <trkpt lat="43.383644" lon="-5.700675">
        <ele>201</ele>
        <time>2019-11-24T16:31:37Z</time>
      </trkpt>
      <trkpt lat="43.383561" lon="-5.700652">
        <ele>200.8</ele>
        <time>2019-11-24T16:31:38Z</time>
      </trkpt>
      <trkpt lat="43.383475" lon="-5.700631">
        <ele>200.8</ele>
        <time>2019-11-24T16:31:39Z</time>
      </trkpt>
      <trkpt lat="43.38339" lon="-5.700611">
        <ele>200.6</ele>
        <time>2019-11-24T16:31:40Z</time>
      </trkpt>
      <trkpt lat="43.383305" lon="-5.700589">
        <ele>200.8</ele>
        <time>2019-11-24T16:31:41Z</time>
      </trkpt>
      <trkpt lat="43.383225" lon="-5.700561">
        <ele>201</ele>
        <time>2019-11-24T16:31:42Z</time>
      </trkpt>
      <trkpt lat="43.383149" lon="-5.70053">
        <ele>201.2</ele>
        <time>2019-11-24T16:31:43Z</time>
      </trkpt>
      <trkpt lat="43.383075" lon="-5.7005">
        <ele>201.6</ele>
        <time>2019-11-24T16:31:44Z</time>
      </trkpt>
      <trkpt lat="43.383005" lon="-5.70047">
        <ele>201.2</ele>
        <time>2019-11-24T16:31:45Z</time>
      </trkpt>
      <trkpt lat="43.382936" lon="-5.700442">
        <ele>202.4</ele>
        <time>2019-11-24T16:31:46Z</time>
      </trkpt>
      <trkpt lat="43.382868" lon="-5.700412">
        <ele>203.4</ele>
        <time>2019-11-24T16:31:47Z</time>
      </trkpt>
      <trkpt lat="43.382802" lon="-5.70038">
        <ele>203.6</ele>
        <time>2019-11-24T16:31:48Z</time>
      </trkpt>
      <trkpt lat="43.382736" lon="-5.700352">
        <ele>203.8</ele>
        <time>2019-11-24T16:31:49Z</time>
      </trkpt>
      <trkpt lat="43.382667" lon="-5.700324">
        <ele>203.6</ele>
        <time>2019-11-24T16:31:50Z</time>
      </trkpt>
      <trkpt lat="43.382598" lon="-5.700297">
        <ele>204.6</ele>
        <time>2019-11-24T16:31:51Z</time>
      </trkpt>
      <trkpt lat="43.382528" lon="-5.700271">
        <ele>205</ele>
        <time>2019-11-24T16:31:52Z</time>
      </trkpt>
      <trkpt lat="43.382458" lon="-5.700245">
        <ele>204.8</ele>
        <time>2019-11-24T16:31:53Z</time>
      </trkpt>
      <trkpt lat="43.382389" lon="-5.700222">
        <ele>204.6</ele>
        <time>2019-11-24T16:31:54Z</time>
      </trkpt>
      <trkpt lat="43.382318" lon="-5.700198">
        <ele>203.2</ele>
        <time>2019-11-24T16:31:55Z</time>
      </trkpt>
      <trkpt lat="43.382247" lon="-5.700173">
        <ele>202.2</ele>
        <time>2019-11-24T16:31:56Z</time>
      </trkpt>
      <trkpt lat="43.382175" lon="-5.700149">
        <ele>202</ele>
        <time>2019-11-24T16:31:57Z</time>
      </trkpt>
      <trkpt lat="43.382101" lon="-5.700126">
        <ele>202</ele>
        <time>2019-11-24T16:31:58Z</time>
      </trkpt>
      <trkpt lat="43.382029" lon="-5.7001">
        <ele>202.4</ele>
        <time>2019-11-24T16:31:59Z</time>
      </trkpt>
      <trkpt lat="43.381957" lon="-5.700075">
        <ele>200.8</ele>
        <time>2019-11-24T16:32:00Z</time>
      </trkpt>
      <trkpt lat="43.381884" lon="-5.700052">
        <ele>200.2</ele>
        <time>2019-11-24T16:32:01Z</time>
      </trkpt>
      <trkpt lat="43.381814" lon="-5.700032">
        <ele>199</ele>
        <time>2019-11-24T16:32:02Z</time>
      </trkpt>
      <trkpt lat="43.381744" lon="-5.70002">
        <ele>199.2</ele>
        <time>2019-11-24T16:32:03Z</time>
      </trkpt>
      <trkpt lat="43.381674" lon="-5.700028">
        <ele>198.8</ele>
        <time>2019-11-24T16:32:04Z</time>
      </trkpt>
      <trkpt lat="43.381608" lon="-5.70006">
        <ele>198.6</ele>
        <time>2019-11-24T16:32:05Z</time>
      </trkpt>
      <trkpt lat="43.381548" lon="-5.7001">
        <ele>198.6</ele>
        <time>2019-11-24T16:32:06Z</time>
      </trkpt>
      <trkpt lat="43.381488" lon="-5.700126">
        <ele>198.2</ele>
        <time>2019-11-24T16:32:07Z</time>
      </trkpt>
      <trkpt lat="43.381426" lon="-5.700128">
        <ele>198.2</ele>
        <time>2019-11-24T16:32:08Z</time>
      </trkpt>
      <trkpt lat="43.38137" lon="-5.700096">
        <ele>198</ele>
        <time>2019-11-24T16:32:09Z</time>
      </trkpt>
      <trkpt lat="43.381324" lon="-5.70004">
        <ele>197.2</ele>
        <time>2019-11-24T16:32:10Z</time>
      </trkpt>
      <trkpt lat="43.381292" lon="-5.699967">
        <ele>197.2</ele>
        <time>2019-11-24T16:32:11Z</time>
      </trkpt>
      <trkpt lat="43.381277" lon="-5.699886">
        <ele>196.6</ele>
        <time>2019-11-24T16:32:12Z</time>
      </trkpt>
      <trkpt lat="43.381265" lon="-5.6998">
        <ele>196.2</ele>
        <time>2019-11-24T16:32:13Z</time>
      </trkpt>
      <trkpt lat="43.381241" lon="-5.699721">
        <ele>195.8</ele>
        <time>2019-11-24T16:32:14Z</time>
      </trkpt>
      <trkpt lat="43.381202" lon="-5.699654">
        <ele>196</ele>
        <time>2019-11-24T16:32:15Z</time>
      </trkpt>
      <trkpt lat="43.381152" lon="-5.699603">
        <ele>195.8</ele>
        <time>2019-11-24T16:32:16Z</time>
      </trkpt>
      <trkpt lat="43.381094" lon="-5.699563">
        <ele>195.6</ele>
        <time>2019-11-24T16:32:17Z</time>
      </trkpt>
      <trkpt lat="43.381034" lon="-5.69953">
        <ele>196</ele>
        <time>2019-11-24T16:32:18Z</time>
      </trkpt>
      <trkpt lat="43.380969" lon="-5.699499">
        <ele>196.6</ele>
        <time>2019-11-24T16:32:19Z</time>
      </trkpt>
      <trkpt lat="43.380906" lon="-5.699471">
        <ele>196</ele>
        <time>2019-11-24T16:32:20Z</time>
      </trkpt>
      <trkpt lat="43.380842" lon="-5.699443">
        <ele>195.6</ele>
        <time>2019-11-24T16:32:21Z</time>
      </trkpt>
      <trkpt lat="43.380778" lon="-5.699416">
        <ele>196</ele>
        <time>2019-11-24T16:32:22Z</time>
      </trkpt>
      <trkpt lat="43.380714" lon="-5.699387">
        <ele>196</ele>
        <time>2019-11-24T16:32:23Z</time>
      </trkpt>
      <trkpt lat="43.380651" lon="-5.699359">
        <ele>195.6</ele>
        <time>2019-11-24T16:32:24Z</time>
      </trkpt>
      <trkpt lat="43.380587" lon="-5.699332">
        <ele>195.6</ele>
        <time>2019-11-24T16:32:25Z</time>
      </trkpt>
      <trkpt lat="43.380523" lon="-5.699303">
        <ele>195.6</ele>
        <time>2019-11-24T16:32:26Z</time>
      </trkpt>
      <trkpt lat="43.380459" lon="-5.699273">
        <ele>196.2</ele>
        <time>2019-11-24T16:32:27Z</time>
      </trkpt>
      <trkpt lat="43.380395" lon="-5.699244">
        <ele>196.4</ele>
        <time>2019-11-24T16:32:28Z</time>
      </trkpt>
      <trkpt lat="43.380331" lon="-5.699216">
        <ele>196.4</ele>
        <time>2019-11-24T16:32:29Z</time>
      </trkpt>
      <trkpt lat="43.380269" lon="-5.699189">
        <ele>196.4</ele>
        <time>2019-11-24T16:32:30Z</time>
      </trkpt>
      <trkpt lat="43.380208" lon="-5.699164">
        <ele>196.8</ele>
        <time>2019-11-24T16:32:31Z</time>
      </trkpt>
      <trkpt lat="43.380146" lon="-5.699141">
        <ele>197.2</ele>
        <time>2019-11-24T16:32:32Z</time>
      </trkpt>
      <trkpt lat="43.380084" lon="-5.699124">
        <ele>197.8</ele>
        <time>2019-11-24T16:32:33Z</time>
      </trkpt>
      <trkpt lat="43.380022" lon="-5.699113">
        <ele>198</ele>
        <time>2019-11-24T16:32:34Z</time>
      </trkpt>
      <trkpt lat="43.379961" lon="-5.699103">
        <ele>199</ele>
        <time>2019-11-24T16:32:35Z</time>
      </trkpt>
      <trkpt lat="43.379901" lon="-5.69909">
        <ele>198.8</ele>
        <time>2019-11-24T16:32:36Z</time>
      </trkpt>
      <trkpt lat="43.379844" lon="-5.699067">
        <ele>199</ele>
        <time>2019-11-24T16:32:37Z</time>
      </trkpt>
      <trkpt lat="43.37979" lon="-5.699031">
        <ele>199</ele>
        <time>2019-11-24T16:32:38Z</time>
      </trkpt>
      <trkpt lat="43.379737" lon="-5.698994">
        <ele>199.6</ele>
        <time>2019-11-24T16:32:39Z</time>
      </trkpt>
      <trkpt lat="43.379683" lon="-5.698957">
        <ele>199.4</ele>
        <time>2019-11-24T16:32:40Z</time>
      </trkpt>
      <trkpt lat="43.379628" lon="-5.698924">
        <ele>200</ele>
        <time>2019-11-24T16:32:41Z</time>
      </trkpt>
      <trkpt lat="43.379572" lon="-5.698896">
        <ele>201.2</ele>
        <time>2019-11-24T16:32:42Z</time>
      </trkpt>
      <trkpt lat="43.379516" lon="-5.69887">
        <ele>202</ele>
        <time>2019-11-24T16:32:43Z</time>
      </trkpt>
      <trkpt lat="43.379461" lon="-5.698845">
        <ele>200.4</ele>
        <time>2019-11-24T16:32:44Z</time>
      </trkpt>
      <trkpt lat="43.379407" lon="-5.698822">
        <ele>201.2</ele>
        <time>2019-11-24T16:32:45Z</time>
      </trkpt>
      <trkpt lat="43.379355" lon="-5.698798">
        <ele>202</ele>
        <time>2019-11-24T16:32:46Z</time>
      </trkpt>
      <trkpt lat="43.379304" lon="-5.698773">
        <ele>201.8</ele>
        <time>2019-11-24T16:32:47Z</time>
      </trkpt>
      <trkpt lat="43.379252" lon="-5.69875">
        <ele>202.6</ele>
        <time>2019-11-24T16:32:48Z</time>
      </trkpt>
      <trkpt lat="43.379201" lon="-5.698729">
        <ele>202.4</ele>
        <time>2019-11-24T16:32:49Z</time>
      </trkpt>
      <trkpt lat="43.379149" lon="-5.698709">
        <ele>202.2</ele>
        <time>2019-11-24T16:32:50Z</time>
      </trkpt>
      <trkpt lat="43.379098" lon="-5.698687">
        <ele>204.2</ele>
        <time>2019-11-24T16:32:51Z</time>
      </trkpt>
      <trkpt lat="43.379048" lon="-5.698665">
        <ele>203.2</ele>
        <time>2019-11-24T16:32:52Z</time>
      </trkpt>
      <trkpt lat="43.378999" lon="-5.698642">
        <ele>202.8</ele>
        <time>2019-11-24T16:32:53Z</time>
      </trkpt>
      <trkpt lat="43.378949" lon="-5.698621">
        <ele>203.4</ele>
        <time>2019-11-24T16:32:54Z</time>
      </trkpt>
      <trkpt lat="43.378899" lon="-5.698602">
        <ele>203.4</ele>
        <time>2019-11-24T16:32:55Z</time>
      </trkpt>
      <trkpt lat="43.378848" lon="-5.698588">
        <ele>203.8</ele>
        <time>2019-11-24T16:32:56Z</time>
      </trkpt>
      <trkpt lat="43.378795" lon="-5.698581">
        <ele>204</ele>
        <time>2019-11-24T16:32:57Z</time>
      </trkpt>
      <trkpt lat="43.378742" lon="-5.698576">
        <ele>204.6</ele>
        <time>2019-11-24T16:32:58Z</time>
      </trkpt>
      <trkpt lat="43.378689" lon="-5.698571">
        <ele>205.4</ele>
        <time>2019-11-24T16:32:59Z</time>
      </trkpt>
      <trkpt lat="43.378636" lon="-5.698564">
        <ele>205</ele>
        <time>2019-11-24T16:33:00Z</time>
      </trkpt>
      <trkpt lat="43.378583" lon="-5.698555">
        <ele>205.6</ele>
        <time>2019-11-24T16:33:01Z</time>
      </trkpt>
      <trkpt lat="43.378529" lon="-5.698547">
        <ele>205.8</ele>
        <time>2019-11-24T16:33:02Z</time>
      </trkpt>
      <trkpt lat="43.378477" lon="-5.698539">
        <ele>206.4</ele>
        <time>2019-11-24T16:33:03Z</time>
      </trkpt>
      <trkpt lat="43.378426" lon="-5.698529">
        <ele>206.2</ele>
        <time>2019-11-24T16:33:04Z</time>
      </trkpt>
      <trkpt lat="43.378376" lon="-5.698512">
        <ele>206.4</ele>
        <time>2019-11-24T16:33:05Z</time>
      </trkpt>
      <trkpt lat="43.378329" lon="-5.698486">
        <ele>207</ele>
        <time>2019-11-24T16:33:06Z</time>
      </trkpt>
      <trkpt lat="43.378282" lon="-5.698457">
        <ele>207.2</ele>
        <time>2019-11-24T16:33:07Z</time>
      </trkpt>
      <trkpt lat="43.378237" lon="-5.698424">
        <ele>207.2</ele>
        <time>2019-11-24T16:33:08Z</time>
      </trkpt>
      <trkpt lat="43.378192" lon="-5.69839">
        <ele>207.2</ele>
        <time>2019-11-24T16:33:09Z</time>
      </trkpt>
      <trkpt lat="43.378148" lon="-5.698353">
        <ele>207.8</ele>
        <time>2019-11-24T16:33:10Z</time>
      </trkpt>
      <trkpt lat="43.378103" lon="-5.698316">
        <ele>208.2</ele>
        <time>2019-11-24T16:33:11Z</time>
      </trkpt>
      <trkpt lat="43.378058" lon="-5.698281">
        <ele>208</ele>
        <time>2019-11-24T16:33:12Z</time>
      </trkpt>
      <trkpt lat="43.378013" lon="-5.698247">
        <ele>208.6</ele>
        <time>2019-11-24T16:33:13Z</time>
      </trkpt>
      <trkpt lat="43.377968" lon="-5.698214">
        <ele>208.8</ele>
        <time>2019-11-24T16:33:14Z</time>
      </trkpt>
      <trkpt lat="43.377922" lon="-5.698183">
        <ele>209</ele>
        <time>2019-11-24T16:33:15Z</time>
      </trkpt>
      <trkpt lat="43.377876" lon="-5.698153">
        <ele>209</ele>
        <time>2019-11-24T16:33:16Z</time>
      </trkpt>
      <trkpt lat="43.377829" lon="-5.698126">
        <ele>208.8</ele>
        <time>2019-11-24T16:33:17Z</time>
      </trkpt>
      <trkpt lat="43.377783" lon="-5.698101">
        <ele>209.2</ele>
        <time>2019-11-24T16:33:18Z</time>
      </trkpt>
      <trkpt lat="43.377739" lon="-5.698078">
        <ele>209.6</ele>
        <time>2019-11-24T16:33:19Z</time>
      </trkpt>
      <trkpt lat="43.377693" lon="-5.698055">
        <ele>209.6</ele>
        <time>2019-11-24T16:33:20Z</time>
      </trkpt>
      <trkpt lat="43.377647" lon="-5.698031">
        <ele>210.6</ele>
        <time>2019-11-24T16:33:21Z</time>
      </trkpt>
      <trkpt lat="43.3776" lon="-5.698004">
        <ele>211</ele>
        <time>2019-11-24T16:33:22Z</time>
      </trkpt>
      <trkpt lat="43.377552" lon="-5.697977">
        <ele>210.4</ele>
        <time>2019-11-24T16:33:23Z</time>
      </trkpt>
      <trkpt lat="43.377503" lon="-5.697951">
        <ele>210.4</ele>
        <time>2019-11-24T16:33:24Z</time>
      </trkpt>
      <trkpt lat="43.377454" lon="-5.697926">
        <ele>209.8</ele>
        <time>2019-11-24T16:33:25Z</time>
      </trkpt>
      <trkpt lat="43.377406" lon="-5.697899">
        <ele>210.8</ele>
        <time>2019-11-24T16:33:26Z</time>
      </trkpt>
      <trkpt lat="43.377359" lon="-5.69787">
        <ele>210.8</ele>
        <time>2019-11-24T16:33:27Z</time>
      </trkpt>
      <trkpt lat="43.377311" lon="-5.697841">
        <ele>211.6</ele>
        <time>2019-11-24T16:33:28Z</time>
      </trkpt>
      <trkpt lat="43.377263" lon="-5.697814">
        <ele>211.2</ele>
        <time>2019-11-24T16:33:29Z</time>
      </trkpt>
      <trkpt lat="43.377218" lon="-5.697788">
        <ele>211</ele>
        <time>2019-11-24T16:33:30Z</time>
      </trkpt>
      <trkpt lat="43.377172" lon="-5.697759">
        <ele>211.8</ele>
        <time>2019-11-24T16:33:31Z</time>
      </trkpt>
      <trkpt lat="43.377123" lon="-5.69773">
        <ele>211.6</ele>
        <time>2019-11-24T16:33:32Z</time>
      </trkpt>
      <trkpt lat="43.377073" lon="-5.697701">
        <ele>212</ele>
        <time>2019-11-24T16:33:33Z</time>
      </trkpt>
      <trkpt lat="43.377022" lon="-5.697671">
        <ele>211.6</ele>
        <time>2019-11-24T16:33:34Z</time>
      </trkpt>
      <trkpt lat="43.376971" lon="-5.69764">
        <ele>211.6</ele>
        <time>2019-11-24T16:33:35Z</time>
      </trkpt>
      <trkpt lat="43.376917" lon="-5.697609">
        <ele>211.6</ele>
        <time>2019-11-24T16:33:36Z</time>
      </trkpt>
      <trkpt lat="43.376864" lon="-5.697576">
        <ele>211.2</ele>
        <time>2019-11-24T16:33:37Z</time>
      </trkpt>
      <trkpt lat="43.37681" lon="-5.697544">
        <ele>210.8</ele>
        <time>2019-11-24T16:33:38Z</time>
      </trkpt>
      <trkpt lat="43.376756" lon="-5.697512">
        <ele>210.8</ele>
        <time>2019-11-24T16:33:39Z</time>
      </trkpt>
      <trkpt lat="43.3767" lon="-5.697477">
        <ele>210.8</ele>
        <time>2019-11-24T16:33:40Z</time>
      </trkpt>
      <trkpt lat="43.376644" lon="-5.697443">
        <ele>211.6</ele>
        <time>2019-11-24T16:33:41Z</time>
      </trkpt>
      <trkpt lat="43.376587" lon="-5.697408">
        <ele>211</ele>
        <time>2019-11-24T16:33:42Z</time>
      </trkpt>
      <trkpt lat="43.376528" lon="-5.697374">
        <ele>210.6</ele>
        <time>2019-11-24T16:33:43Z</time>
      </trkpt>
      <trkpt lat="43.376469" lon="-5.697339">
        <ele>210.2</ele>
        <time>2019-11-24T16:33:44Z</time>
      </trkpt>
      <trkpt lat="43.37641" lon="-5.697303">
        <ele>210.2</ele>
        <time>2019-11-24T16:33:45Z</time>
      </trkpt>
      <trkpt lat="43.37635" lon="-5.697267">
        <ele>210.4</ele>
        <time>2019-11-24T16:33:46Z</time>
      </trkpt>
      <trkpt lat="43.376288" lon="-5.697233">
        <ele>210.4</ele>
        <time>2019-11-24T16:33:47Z</time>
      </trkpt>
      <trkpt lat="43.376224" lon="-5.697199">
        <ele>210.2</ele>
        <time>2019-11-24T16:33:48Z</time>
      </trkpt>
      <trkpt lat="43.376159" lon="-5.697163">
        <ele>209.6</ele>
        <time>2019-11-24T16:33:49Z</time>
      </trkpt>
      <trkpt lat="43.376093" lon="-5.697125">
        <ele>209.8</ele>
        <time>2019-11-24T16:33:50Z</time>
      </trkpt>
      <trkpt lat="43.376027" lon="-5.697086">
        <ele>209.2</ele>
        <time>2019-11-24T16:33:51Z</time>
      </trkpt>
      <trkpt lat="43.37596" lon="-5.697048">
        <ele>208.6</ele>
        <time>2019-11-24T16:33:52Z</time>
      </trkpt>
      <trkpt lat="43.375891" lon="-5.697008">
        <ele>207.8</ele>
        <time>2019-11-24T16:33:53Z</time>
      </trkpt>
      <trkpt lat="43.375822" lon="-5.696969">
        <ele>208.2</ele>
        <time>2019-11-24T16:33:54Z</time>
      </trkpt>
      <trkpt lat="43.375754" lon="-5.696929">
        <ele>208</ele>
        <time>2019-11-24T16:33:55Z</time>
      </trkpt>
      <trkpt lat="43.375683" lon="-5.69689">
        <ele>208</ele>
        <time>2019-11-24T16:33:56Z</time>
      </trkpt>
      <trkpt lat="43.375613" lon="-5.696849">
        <ele>208</ele>
        <time>2019-11-24T16:33:57Z</time>
      </trkpt>
      <trkpt lat="43.375544" lon="-5.696808">
        <ele>208.8</ele>
        <time>2019-11-24T16:33:58Z</time>
      </trkpt>
      <trkpt lat="43.375476" lon="-5.696766">
        <ele>207.6</ele>
        <time>2019-11-24T16:33:59Z</time>
      </trkpt>
      <trkpt lat="43.375409" lon="-5.696723">
        <ele>207.4</ele>
        <time>2019-11-24T16:34:00Z</time>
      </trkpt>
      <trkpt lat="43.375342" lon="-5.696681">
        <ele>208</ele>
        <time>2019-11-24T16:34:01Z</time>
      </trkpt>
      <trkpt lat="43.375276" lon="-5.696637">
        <ele>207.4</ele>
        <time>2019-11-24T16:34:02Z</time>
      </trkpt>
      <trkpt lat="43.375214" lon="-5.69659">
        <ele>207.6</ele>
        <time>2019-11-24T16:34:03Z</time>
      </trkpt>
      <trkpt lat="43.375156" lon="-5.696539">
        <ele>208</ele>
        <time>2019-11-24T16:34:04Z</time>
      </trkpt>
      <trkpt lat="43.375101" lon="-5.696484">
        <ele>207.8</ele>
        <time>2019-11-24T16:34:05Z</time>
      </trkpt>
      <trkpt lat="43.375046" lon="-5.696425">
        <ele>207.6</ele>
        <time>2019-11-24T16:34:06Z</time>
      </trkpt>
      <trkpt lat="43.374992" lon="-5.696361">
        <ele>207.4</ele>
        <time>2019-11-24T16:34:07Z</time>
      </trkpt>
      <trkpt lat="43.37494" lon="-5.696292">
        <ele>206.6</ele>
        <time>2019-11-24T16:34:08Z</time>
      </trkpt>
      <trkpt lat="43.374889" lon="-5.69622">
        <ele>206.4</ele>
        <time>2019-11-24T16:34:09Z</time>
      </trkpt>
      <trkpt lat="43.37484" lon="-5.696142">
        <ele>206</ele>
        <time>2019-11-24T16:34:10Z</time>
      </trkpt>
      <trkpt lat="43.374791" lon="-5.696062">
        <ele>206.2</ele>
        <time>2019-11-24T16:34:11Z</time>
      </trkpt>
      <trkpt lat="43.374742" lon="-5.69598">
        <ele>205.4</ele>
        <time>2019-11-24T16:34:12Z</time>
      </trkpt>
      <trkpt lat="43.374693" lon="-5.695894">
        <ele>205</ele>
        <time>2019-11-24T16:34:13Z</time>
      </trkpt>
      <trkpt lat="43.374646" lon="-5.695808">
        <ele>204.6</ele>
        <time>2019-11-24T16:34:14Z</time>
      </trkpt>
      <trkpt lat="43.374599" lon="-5.69572">
        <ele>204.4</ele>
        <time>2019-11-24T16:34:15Z</time>
      </trkpt>
      <trkpt lat="43.374551" lon="-5.695631">
        <ele>204.2</ele>
        <time>2019-11-24T16:34:16Z</time>
      </trkpt>
      <trkpt lat="43.374504" lon="-5.695539">
        <ele>203.8</ele>
        <time>2019-11-24T16:34:17Z</time>
      </trkpt>
      <trkpt lat="43.374454" lon="-5.695447">
        <ele>203.6</ele>
        <time>2019-11-24T16:34:18Z</time>
      </trkpt>
      <trkpt lat="43.374402" lon="-5.695357">
        <ele>203</ele>
        <time>2019-11-24T16:34:19Z</time>
      </trkpt>
      <trkpt lat="43.374348" lon="-5.69527">
        <ele>202.4</ele>
        <time>2019-11-24T16:34:20Z</time>
      </trkpt>
      <trkpt lat="43.37429" lon="-5.695189">
        <ele>202.2</ele>
        <time>2019-11-24T16:34:21Z</time>
      </trkpt>
      <trkpt lat="43.374227" lon="-5.695115">
        <ele>201.4</ele>
        <time>2019-11-24T16:34:22Z</time>
      </trkpt>
      <trkpt lat="43.374158" lon="-5.695044">
        <ele>200.4</ele>
        <time>2019-11-24T16:34:23Z</time>
      </trkpt>
      <trkpt lat="43.374084" lon="-5.694981">
        <ele>199.6</ele>
        <time>2019-11-24T16:34:24Z</time>
      </trkpt>
      <trkpt lat="43.374" lon="-5.694929">
        <ele>199.4</ele>
        <time>2019-11-24T16:34:25Z</time>
      </trkpt>
      <trkpt lat="43.373911" lon="-5.694889">
        <ele>198.2</ele>
        <time>2019-11-24T16:34:26Z</time>
      </trkpt>
      <trkpt lat="43.373819" lon="-5.694856">
        <ele>198.2</ele>
        <time>2019-11-24T16:34:27Z</time>
      </trkpt>
      <trkpt lat="43.373727" lon="-5.694829">
        <ele>198.4</ele>
        <time>2019-11-24T16:34:28Z</time>
      </trkpt>
      <trkpt lat="43.373635" lon="-5.694808">
        <ele>198.6</ele>
        <time>2019-11-24T16:34:29Z</time>
      </trkpt>
      <trkpt lat="43.373543" lon="-5.694789">
        <ele>197.8</ele>
        <time>2019-11-24T16:34:30Z</time>
      </trkpt>
      <trkpt lat="43.373454" lon="-5.694774">
        <ele>198.8</ele>
        <time>2019-11-24T16:34:31Z</time>
      </trkpt>
      <trkpt lat="43.373367" lon="-5.694759">
        <ele>198.2</ele>
        <time>2019-11-24T16:34:32Z</time>
      </trkpt>
      <trkpt lat="43.373282" lon="-5.694744">
        <ele>198</ele>
        <time>2019-11-24T16:34:33Z</time>
      </trkpt>
      <trkpt lat="43.373197" lon="-5.694729">
        <ele>198.2</ele>
        <time>2019-11-24T16:34:34Z</time>
      </trkpt>
      <trkpt lat="43.373114" lon="-5.694713">
        <ele>198</ele>
        <time>2019-11-24T16:34:35Z</time>
      </trkpt>
      <trkpt lat="43.373032" lon="-5.694696">
        <ele>197.8</ele>
        <time>2019-11-24T16:34:36Z</time>
      </trkpt>
      <trkpt lat="43.372951" lon="-5.694677">
        <ele>197.8</ele>
        <time>2019-11-24T16:34:37Z</time>
      </trkpt>
      <trkpt lat="43.37287" lon="-5.694661">
        <ele>197.8</ele>
        <time>2019-11-24T16:34:38Z</time>
      </trkpt>
      <trkpt lat="43.372788" lon="-5.694649">
        <ele>197.8</ele>
        <time>2019-11-24T16:34:39Z</time>
      </trkpt>
      <trkpt lat="43.372707" lon="-5.694634">
        <ele>197.6</ele>
        <time>2019-11-24T16:34:40Z</time>
      </trkpt>
      <trkpt lat="43.372625" lon="-5.694618">
        <ele>197.2</ele>
        <time>2019-11-24T16:34:41Z</time>
      </trkpt>
      <trkpt lat="43.372541" lon="-5.694603">
        <ele>196.2</ele>
        <time>2019-11-24T16:34:42Z</time>
      </trkpt>
      <trkpt lat="43.372458" lon="-5.694587">
        <ele>195.6</ele>
        <time>2019-11-24T16:34:43Z</time>
      </trkpt>
      <trkpt lat="43.37237" lon="-5.694568">
        <ele>195</ele>
        <time>2019-11-24T16:34:44Z</time>
      </trkpt>
      <trkpt lat="43.372278" lon="-5.694546">
        <ele>194.4</ele>
        <time>2019-11-24T16:34:45Z</time>
      </trkpt>
      <trkpt lat="43.372183" lon="-5.694521">
        <ele>193.4</ele>
        <time>2019-11-24T16:34:46Z</time>
      </trkpt>
      <trkpt lat="43.372084" lon="-5.694491">
        <ele>192.4</ele>
        <time>2019-11-24T16:34:47Z</time>
      </trkpt>
      <trkpt lat="43.371983" lon="-5.694452">
        <ele>191.8</ele>
        <time>2019-11-24T16:34:48Z</time>
      </trkpt>
      <trkpt lat="43.371882" lon="-5.694405">
        <ele>191.2</ele>
        <time>2019-11-24T16:34:49Z</time>
      </trkpt>
      <trkpt lat="43.371786" lon="-5.694352">
        <ele>190.6</ele>
        <time>2019-11-24T16:34:50Z</time>
      </trkpt>
      <trkpt lat="43.371697" lon="-5.694299">
        <ele>190.4</ele>
        <time>2019-11-24T16:34:51Z</time>
      </trkpt>
      <trkpt lat="43.371608" lon="-5.694246">
        <ele>190.2</ele>
        <time>2019-11-24T16:34:52Z</time>
      </trkpt>
      <trkpt lat="43.371521" lon="-5.694188">
        <ele>190.2</ele>
        <time>2019-11-24T16:34:53Z</time>
      </trkpt>
      <trkpt lat="43.371441" lon="-5.694108">
        <ele>190.8</ele>
        <time>2019-11-24T16:34:54Z</time>
      </trkpt>
      <trkpt lat="43.371369" lon="-5.694017">
        <ele>190.8</ele>
        <time>2019-11-24T16:34:55Z</time>
      </trkpt>
      <trkpt lat="43.371302" lon="-5.693918">
        <ele>191</ele>
        <time>2019-11-24T16:34:56Z</time>
      </trkpt>
      <trkpt lat="43.371225" lon="-5.69384">
        <ele>191</ele>
        <time>2019-11-24T16:34:57Z</time>
      </trkpt>
      <trkpt lat="43.371152" lon="-5.693763">
        <ele>191.4</ele>
        <time>2019-11-24T16:34:58Z</time>
      </trkpt>
      <trkpt lat="43.371086" lon="-5.693679">
        <ele>192.4</ele>
        <time>2019-11-24T16:34:59Z</time>
      </trkpt>
      <trkpt lat="43.371025" lon="-5.693593">
        <ele>192.8</ele>
        <time>2019-11-24T16:35:00Z</time>
      </trkpt>
      <trkpt lat="43.370962" lon="-5.693515">
        <ele>193</ele>
        <time>2019-11-24T16:35:01Z</time>
      </trkpt>
      <trkpt lat="43.370893" lon="-5.693444">
        <ele>193</ele>
        <time>2019-11-24T16:35:02Z</time>
      </trkpt>
      <trkpt lat="43.370822" lon="-5.693377">
        <ele>193.6</ele>
        <time>2019-11-24T16:35:03Z</time>
      </trkpt>
      <trkpt lat="43.370752" lon="-5.693307">
        <ele>194.6</ele>
        <time>2019-11-24T16:35:04Z</time>
      </trkpt>
      <trkpt lat="43.370678" lon="-5.693241">
        <ele>194.4</ele>
        <time>2019-11-24T16:35:05Z</time>
      </trkpt>
      <trkpt lat="43.370606" lon="-5.693171">
        <ele>195</ele>
        <time>2019-11-24T16:35:06Z</time>
      </trkpt>
      <trkpt lat="43.370533" lon="-5.693102">
        <ele>195.2</ele>
        <time>2019-11-24T16:35:07Z</time>
      </trkpt>
      <trkpt lat="43.370459" lon="-5.693034">
        <ele>195.8</ele>
        <time>2019-11-24T16:35:08Z</time>
      </trkpt>
      <trkpt lat="43.370386" lon="-5.692971">
        <ele>196.2</ele>
        <time>2019-11-24T16:35:09Z</time>
      </trkpt>
      <trkpt lat="43.370313" lon="-5.692909">
        <ele>195.8</ele>
        <time>2019-11-24T16:35:10Z</time>
      </trkpt>
      <trkpt lat="43.370245" lon="-5.692847">
        <ele>196.4</ele>
        <time>2019-11-24T16:35:11Z</time>
      </trkpt>
      <trkpt lat="43.370175" lon="-5.692784">
        <ele>196.4</ele>
        <time>2019-11-24T16:35:12Z</time>
      </trkpt>
      <trkpt lat="43.370105" lon="-5.692722">
        <ele>196.4</ele>
        <time>2019-11-24T16:35:13Z</time>
      </trkpt>
      <trkpt lat="43.370036" lon="-5.692662">
        <ele>196.4</ele>
        <time>2019-11-24T16:35:14Z</time>
      </trkpt>
      <trkpt lat="43.369967" lon="-5.692605">
        <ele>196.2</ele>
        <time>2019-11-24T16:35:15Z</time>
      </trkpt>
      <trkpt lat="43.369896" lon="-5.692549">
        <ele>195.6</ele>
        <time>2019-11-24T16:35:16Z</time>
      </trkpt>
      <trkpt lat="43.369823" lon="-5.692493">
        <ele>195.6</ele>
        <time>2019-11-24T16:35:17Z</time>
      </trkpt>
      <trkpt lat="43.36975" lon="-5.692434">
        <ele>195.2</ele>
        <time>2019-11-24T16:35:18Z</time>
      </trkpt>
      <trkpt lat="43.369679" lon="-5.692374">
        <ele>194.8</ele>
        <time>2019-11-24T16:35:19Z</time>
      </trkpt>
      <trkpt lat="43.369607" lon="-5.692314">
        <ele>194.6</ele>
        <time>2019-11-24T16:35:20Z</time>
      </trkpt>
      <trkpt lat="43.369535" lon="-5.692254">
        <ele>194.8</ele>
        <time>2019-11-24T16:35:21Z</time>
      </trkpt>
      <trkpt lat="43.369465" lon="-5.692195">
        <ele>194.8</ele>
        <time>2019-11-24T16:35:22Z</time>
      </trkpt>
      <trkpt lat="43.369396" lon="-5.692136">
        <ele>194.6</ele>
        <time>2019-11-24T16:35:23Z</time>
      </trkpt>
      <trkpt lat="43.369328" lon="-5.692077">
        <ele>194.8</ele>
        <time>2019-11-24T16:35:24Z</time>
      </trkpt>
      <trkpt lat="43.369261" lon="-5.692019">
        <ele>195.2</ele>
        <time>2019-11-24T16:35:25Z</time>
      </trkpt>
      <trkpt lat="43.369194" lon="-5.691961">
        <ele>195.2</ele>
        <time>2019-11-24T16:35:26Z</time>
      </trkpt>
      <trkpt lat="43.369127" lon="-5.691903">
        <ele>196</ele>
        <time>2019-11-24T16:35:27Z</time>
      </trkpt>
      <trkpt lat="43.369061" lon="-5.691846">
        <ele>195.4</ele>
        <time>2019-11-24T16:35:28Z</time>
      </trkpt>
      <trkpt lat="43.368995" lon="-5.691787">
        <ele>195.4</ele>
        <time>2019-11-24T16:35:29Z</time>
      </trkpt>
      <trkpt lat="43.368928" lon="-5.691728">
        <ele>195.8</ele>
        <time>2019-11-24T16:35:30Z</time>
      </trkpt>
      <trkpt lat="43.368862" lon="-5.691669">
        <ele>195.4</ele>
        <time>2019-11-24T16:35:31Z</time>
      </trkpt>
      <trkpt lat="43.368797" lon="-5.691611">
        <ele>195.8</ele>
        <time>2019-11-24T16:35:32Z</time>
      </trkpt>
      <trkpt lat="43.368731" lon="-5.691554">
        <ele>195.2</ele>
        <time>2019-11-24T16:35:33Z</time>
      </trkpt>
      <trkpt lat="43.368666" lon="-5.691496">
        <ele>195.8</ele>
        <time>2019-11-24T16:35:34Z</time>
      </trkpt>
      <trkpt lat="43.368601" lon="-5.691438">
        <ele>195.8</ele>
        <time>2019-11-24T16:35:35Z</time>
      </trkpt>
      <trkpt lat="43.368536" lon="-5.691379">
        <ele>195.4</ele>
        <time>2019-11-24T16:35:36Z</time>
      </trkpt>
      <trkpt lat="43.368471" lon="-5.691321">
        <ele>195.4</ele>
        <time>2019-11-24T16:35:37Z</time>
      </trkpt>
      <trkpt lat="43.368405" lon="-5.691262">
        <ele>195</ele>
        <time>2019-11-24T16:35:38Z</time>
      </trkpt>
      <trkpt lat="43.36834" lon="-5.691204">
        <ele>194.8</ele>
        <time>2019-11-24T16:35:39Z</time>
      </trkpt>
      <trkpt lat="43.368274" lon="-5.691146">
        <ele>195</ele>
        <time>2019-11-24T16:35:40Z</time>
      </trkpt>
      <trkpt lat="43.368207" lon="-5.691086">
        <ele>195.4</ele>
        <time>2019-11-24T16:35:41Z</time>
      </trkpt>
      <trkpt lat="43.368142" lon="-5.691027">
        <ele>195.6</ele>
        <time>2019-11-24T16:35:42Z</time>
      </trkpt>
      <trkpt lat="43.368077" lon="-5.690968">
        <ele>195.2</ele>
        <time>2019-11-24T16:35:43Z</time>
      </trkpt>
      <trkpt lat="43.368011" lon="-5.690912">
        <ele>196</ele>
        <time>2019-11-24T16:35:44Z</time>
      </trkpt>
      <trkpt lat="43.367946" lon="-5.690856">
        <ele>195.8</ele>
        <time>2019-11-24T16:35:45Z</time>
      </trkpt>
      <trkpt lat="43.367879" lon="-5.690796">
        <ele>195.4</ele>
        <time>2019-11-24T16:35:46Z</time>
      </trkpt>
      <trkpt lat="43.367814" lon="-5.690739">
        <ele>196.4</ele>
        <time>2019-11-24T16:35:47Z</time>
      </trkpt>
      <trkpt lat="43.367749" lon="-5.690683">
        <ele>196.8</ele>
        <time>2019-11-24T16:35:48Z</time>
      </trkpt>
      <trkpt lat="43.367684" lon="-5.690627">
        <ele>196.6</ele>
        <time>2019-11-24T16:35:49Z</time>
      </trkpt>
      <trkpt lat="43.367619" lon="-5.690573">
        <ele>197.4</ele>
        <time>2019-11-24T16:35:50Z</time>
      </trkpt>
      <trkpt lat="43.367555" lon="-5.69052">
        <ele>198</ele>
        <time>2019-11-24T16:35:51Z</time>
      </trkpt>
      <trkpt lat="43.367492" lon="-5.690469">
        <ele>197.8</ele>
        <time>2019-11-24T16:35:52Z</time>
      </trkpt>
      <trkpt lat="43.367429" lon="-5.690416">
        <ele>197.4</ele>
        <time>2019-11-24T16:35:53Z</time>
      </trkpt>
      <trkpt lat="43.367365" lon="-5.69036">
        <ele>198.2</ele>
        <time>2019-11-24T16:35:54Z</time>
      </trkpt>
      <trkpt lat="43.367304" lon="-5.690304">
        <ele>198.2</ele>
        <time>2019-11-24T16:35:55Z</time>
      </trkpt>
      <trkpt lat="43.367248" lon="-5.690246">
        <ele>198.4</ele>
        <time>2019-11-24T16:35:56Z</time>
      </trkpt>
      <trkpt lat="43.367193" lon="-5.690184">
        <ele>198.4</ele>
        <time>2019-11-24T16:35:57Z</time>
      </trkpt>
      <trkpt lat="43.367135" lon="-5.690119">
        <ele>198.4</ele>
        <time>2019-11-24T16:35:58Z</time>
      </trkpt>
      <trkpt lat="43.367079" lon="-5.690051">
        <ele>198.2</ele>
        <time>2019-11-24T16:35:59Z</time>
      </trkpt>
      <trkpt lat="43.36702" lon="-5.689977">
        <ele>198.4</ele>
        <time>2019-11-24T16:36:00Z</time>
      </trkpt>
      <trkpt lat="43.366961" lon="-5.689903">
        <ele>198</ele>
        <time>2019-11-24T16:36:01Z</time>
      </trkpt>
      <trkpt lat="43.366903" lon="-5.689826">
        <ele>198</ele>
        <time>2019-11-24T16:36:02Z</time>
      </trkpt>
      <trkpt lat="43.366847" lon="-5.689748">
        <ele>198</ele>
        <time>2019-11-24T16:36:03Z</time>
      </trkpt>
      <trkpt lat="43.366792" lon="-5.689668">
        <ele>198.2</ele>
        <time>2019-11-24T16:36:04Z</time>
      </trkpt>
      <trkpt lat="43.366738" lon="-5.689587">
        <ele>197.8</ele>
        <time>2019-11-24T16:36:05Z</time>
      </trkpt>
      <trkpt lat="43.366684" lon="-5.689507">
        <ele>197.6</ele>
        <time>2019-11-24T16:36:06Z</time>
      </trkpt>
      <trkpt lat="43.366631" lon="-5.689429">
        <ele>197.2</ele>
        <time>2019-11-24T16:36:07Z</time>
      </trkpt>
      <trkpt lat="43.366579" lon="-5.68935">
        <ele>197.6</ele>
        <time>2019-11-24T16:36:08Z</time>
      </trkpt>
      <trkpt lat="43.366526" lon="-5.689271">
        <ele>197.4</ele>
        <time>2019-11-24T16:36:09Z</time>
      </trkpt>
      <trkpt lat="43.366475" lon="-5.689194">
        <ele>197.4</ele>
        <time>2019-11-24T16:36:10Z</time>
      </trkpt>
      <trkpt lat="43.366425" lon="-5.689117">
        <ele>197</ele>
        <time>2019-11-24T16:36:11Z</time>
      </trkpt>
      <trkpt lat="43.366375" lon="-5.68904">
        <ele>197.2</ele>
        <time>2019-11-24T16:36:12Z</time>
      </trkpt>
      <trkpt lat="43.366325" lon="-5.688963">
        <ele>198</ele>
        <time>2019-11-24T16:36:13Z</time>
      </trkpt>
      <trkpt lat="43.366276" lon="-5.688885">
        <ele>198.8</ele>
        <time>2019-11-24T16:36:14Z</time>
      </trkpt>
      <trkpt lat="43.366225" lon="-5.688808">
        <ele>198.8</ele>
        <time>2019-11-24T16:36:15Z</time>
      </trkpt>
      <trkpt lat="43.366174" lon="-5.68873">
        <ele>198.8</ele>
        <time>2019-11-24T16:36:16Z</time>
      </trkpt>
      <trkpt lat="43.366123" lon="-5.688653">
        <ele>199.2</ele>
        <time>2019-11-24T16:36:17Z</time>
      </trkpt>
      <trkpt lat="43.366071" lon="-5.688577">
        <ele>199.6</ele>
        <time>2019-11-24T16:36:18Z</time>
      </trkpt>
      <trkpt lat="43.366019" lon="-5.688499">
        <ele>198.6</ele>
        <time>2019-11-24T16:36:19Z</time>
      </trkpt>
      <trkpt lat="43.365967" lon="-5.688421">
        <ele>199.4</ele>
        <time>2019-11-24T16:36:20Z</time>
      </trkpt>
      <trkpt lat="43.365914" lon="-5.688343">
        <ele>199.6</ele>
        <time>2019-11-24T16:36:21Z</time>
      </trkpt>
      <trkpt lat="43.365863" lon="-5.688265">
        <ele>199.4</ele>
        <time>2019-11-24T16:36:22Z</time>
      </trkpt>
      <trkpt lat="43.365814" lon="-5.688188">
        <ele>200</ele>
        <time>2019-11-24T16:36:23Z</time>
      </trkpt>
      <trkpt lat="43.365765" lon="-5.688111">
        <ele>200</ele>
        <time>2019-11-24T16:36:24Z</time>
      </trkpt>
      <trkpt lat="43.365717" lon="-5.688035">
        <ele>200.2</ele>
        <time>2019-11-24T16:36:25Z</time>
      </trkpt>
      <trkpt lat="43.365666" lon="-5.687963">
        <ele>200.2</ele>
        <time>2019-11-24T16:36:26Z</time>
      </trkpt>
      <trkpt lat="43.365611" lon="-5.687894">
        <ele>200.4</ele>
        <time>2019-11-24T16:36:27Z</time>
      </trkpt>
      <trkpt lat="43.365553" lon="-5.687828">
        <ele>200.6</ele>
        <time>2019-11-24T16:36:28Z</time>
      </trkpt>
      <trkpt lat="43.365496" lon="-5.687764">
        <ele>200</ele>
        <time>2019-11-24T16:36:29Z</time>
      </trkpt>
      <trkpt lat="43.365438" lon="-5.687702">
        <ele>200</ele>
        <time>2019-11-24T16:36:30Z</time>
      </trkpt>
      <trkpt lat="43.365381" lon="-5.687642">
        <ele>200</ele>
        <time>2019-11-24T16:36:31Z</time>
      </trkpt>
      <trkpt lat="43.365323" lon="-5.68758">
        <ele>200</ele>
        <time>2019-11-24T16:36:32Z</time>
      </trkpt>
      <trkpt lat="43.365265" lon="-5.687518">
        <ele>200</ele>
        <time>2019-11-24T16:36:33Z</time>
      </trkpt>
      <trkpt lat="43.365205" lon="-5.687457">
        <ele>199.8</ele>
        <time>2019-11-24T16:36:34Z</time>
      </trkpt>
      <trkpt lat="43.365146" lon="-5.687397">
        <ele>200.2</ele>
        <time>2019-11-24T16:36:35Z</time>
      </trkpt>
      <trkpt lat="43.365089" lon="-5.687335">
        <ele>200.6</ele>
        <time>2019-11-24T16:36:36Z</time>
      </trkpt>
      <trkpt lat="43.365031" lon="-5.687272">
        <ele>200.6</ele>
        <time>2019-11-24T16:36:37Z</time>
      </trkpt>
      <trkpt lat="43.364974" lon="-5.687208">
        <ele>201.2</ele>
        <time>2019-11-24T16:36:38Z</time>
      </trkpt>
      <trkpt lat="43.364915" lon="-5.687146">
        <ele>201</ele>
        <time>2019-11-24T16:36:39Z</time>
      </trkpt>
      <trkpt lat="43.364857" lon="-5.687081">
        <ele>201</ele>
        <time>2019-11-24T16:36:40Z</time>
      </trkpt>
      <trkpt lat="43.364797" lon="-5.687019">
        <ele>200.8</ele>
        <time>2019-11-24T16:36:41Z</time>
      </trkpt>
      <trkpt lat="43.364736" lon="-5.686956">
        <ele>200.6</ele>
        <time>2019-11-24T16:36:42Z</time>
      </trkpt>
      <trkpt lat="43.364676" lon="-5.686891">
        <ele>200.8</ele>
        <time>2019-11-24T16:36:43Z</time>
      </trkpt>
      <trkpt lat="43.364621" lon="-5.686829">
        <ele>201.4</ele>
        <time>2019-11-24T16:36:44Z</time>
      </trkpt>
      <trkpt lat="43.36457" lon="-5.686768">
        <ele>201.4</ele>
        <time>2019-11-24T16:36:45Z</time>
      </trkpt>
      <trkpt lat="43.364518" lon="-5.686699">
        <ele>201.4</ele>
        <time>2019-11-24T16:36:46Z</time>
      </trkpt>
      <trkpt lat="43.364465" lon="-5.686626">
        <ele>201.6</ele>
        <time>2019-11-24T16:36:47Z</time>
      </trkpt>
      <trkpt lat="43.364415" lon="-5.686556">
        <ele>201.6</ele>
        <time>2019-11-24T16:36:48Z</time>
      </trkpt>
      <trkpt lat="43.364367" lon="-5.686486">
        <ele>201.6</ele>
        <time>2019-11-24T16:36:49Z</time>
      </trkpt>
      <trkpt lat="43.364318" lon="-5.686415">
        <ele>201.8</ele>
        <time>2019-11-24T16:36:50Z</time>
      </trkpt>
      <trkpt lat="43.364269" lon="-5.686345">
        <ele>202</ele>
        <time>2019-11-24T16:36:51Z</time>
      </trkpt>
      <trkpt lat="43.364221" lon="-5.686277">
        <ele>202</ele>
        <time>2019-11-24T16:36:52Z</time>
      </trkpt>
      <trkpt lat="43.364174" lon="-5.68621">
        <ele>202</ele>
        <time>2019-11-24T16:36:53Z</time>
      </trkpt>
      <trkpt lat="43.364126" lon="-5.686143">
        <ele>202.6</ele>
        <time>2019-11-24T16:36:54Z</time>
      </trkpt>
      <trkpt lat="43.364079" lon="-5.686076">
        <ele>202.8</ele>
        <time>2019-11-24T16:36:55Z</time>
      </trkpt>
      <trkpt lat="43.364033" lon="-5.686011">
        <ele>202</ele>
        <time>2019-11-24T16:36:56Z</time>
      </trkpt>
      <trkpt lat="43.363988" lon="-5.685946">
        <ele>202.6</ele>
        <time>2019-11-24T16:36:57Z</time>
      </trkpt>
      <trkpt lat="43.363943" lon="-5.685879">
        <ele>203.2</ele>
        <time>2019-11-24T16:36:58Z</time>
      </trkpt>
      <trkpt lat="43.363897" lon="-5.685813">
        <ele>202.6</ele>
        <time>2019-11-24T16:36:59Z</time>
      </trkpt>
      <trkpt lat="43.36385" lon="-5.685745">
        <ele>202.8</ele>
        <time>2019-11-24T16:37:00Z</time>
      </trkpt>
      <trkpt lat="43.363804" lon="-5.685677">
        <ele>202.8</ele>
        <time>2019-11-24T16:37:01Z</time>
      </trkpt>
      <trkpt lat="43.363712" lon="-5.685541">
        <ele>203.2</ele>
        <time>2019-11-24T16:37:03Z</time>
      </trkpt>
      <trkpt lat="43.363666" lon="-5.685474">
        <ele>203</ele>
        <time>2019-11-24T16:37:05Z</time>
      </trkpt>
      <trkpt lat="43.363618" lon="-5.685406">
        <ele>202.8</ele>
        <time>2019-11-24T16:37:06Z</time>
      </trkpt>
      <trkpt lat="43.36357" lon="-5.685338">
        <ele>203</ele>
        <time>2019-11-24T16:37:07Z</time>
      </trkpt>
      <trkpt lat="43.363522" lon="-5.685269">
        <ele>203</ele>
        <time>2019-11-24T16:37:08Z</time>
      </trkpt>
      <trkpt lat="43.363474" lon="-5.685201">
        <ele>202.8</ele>
        <time>2019-11-24T16:37:09Z</time>
      </trkpt>
      <trkpt lat="43.363428" lon="-5.685134">
        <ele>202.4</ele>
        <time>2019-11-24T16:37:10Z</time>
      </trkpt>
      <trkpt lat="43.363383" lon="-5.685068">
        <ele>202.8</ele>
        <time>2019-11-24T16:37:11Z</time>
      </trkpt>
      <trkpt lat="43.363336" lon="-5.685001">
        <ele>203</ele>
        <time>2019-11-24T16:37:12Z</time>
      </trkpt>
      <trkpt lat="43.36329" lon="-5.684934">
        <ele>203.2</ele>
        <time>2019-11-24T16:37:13Z</time>
      </trkpt>
      <trkpt lat="43.363244" lon="-5.684865">
        <ele>202.4</ele>
        <time>2019-11-24T16:37:14Z</time>
      </trkpt>
      <trkpt lat="43.363198" lon="-5.684796">
        <ele>202.8</ele>
        <time>2019-11-24T16:37:15Z</time>
      </trkpt>
      <trkpt lat="43.363151" lon="-5.684727">
        <ele>203</ele>
        <time>2019-11-24T16:37:16Z</time>
      </trkpt>
      <trkpt lat="43.363105" lon="-5.684659">
        <ele>203</ele>
        <time>2019-11-24T16:37:17Z</time>
      </trkpt>
      <trkpt lat="43.363057" lon="-5.684591">
        <ele>203</ele>
        <time>2019-11-24T16:37:18Z</time>
      </trkpt>
      <trkpt lat="43.363011" lon="-5.684522">
        <ele>203.2</ele>
        <time>2019-11-24T16:37:19Z</time>
      </trkpt>
      <trkpt lat="43.362964" lon="-5.684454">
        <ele>203.6</ele>
        <time>2019-11-24T16:37:20Z</time>
      </trkpt>
      <trkpt lat="43.362918" lon="-5.684385">
        <ele>203.8</ele>
        <time>2019-11-24T16:37:21Z</time>
      </trkpt>
      <trkpt lat="43.362873" lon="-5.684314">
        <ele>204</ele>
        <time>2019-11-24T16:37:22Z</time>
      </trkpt>
      <trkpt lat="43.362827" lon="-5.684242">
        <ele>204</ele>
        <time>2019-11-24T16:37:23Z</time>
      </trkpt>
      <trkpt lat="43.362781" lon="-5.684172">
        <ele>204</ele>
        <time>2019-11-24T16:37:24Z</time>
      </trkpt>
      <trkpt lat="43.362735" lon="-5.684103">
        <ele>203.8</ele>
        <time>2019-11-24T16:37:25Z</time>
      </trkpt>
      <trkpt lat="43.362689" lon="-5.684035">
        <ele>204.4</ele>
        <time>2019-11-24T16:37:26Z</time>
      </trkpt>
      <trkpt lat="43.362641" lon="-5.683969">
        <ele>204.6</ele>
        <time>2019-11-24T16:37:27Z</time>
      </trkpt>
      <trkpt lat="43.362593" lon="-5.683904">
        <ele>205.2</ele>
        <time>2019-11-24T16:37:28Z</time>
      </trkpt>
      <trkpt lat="43.362544" lon="-5.683837">
        <ele>204.4</ele>
        <time>2019-11-24T16:37:29Z</time>
      </trkpt>
      <trkpt lat="43.362498" lon="-5.683772">
        <ele>205.2</ele>
        <time>2019-11-24T16:37:30Z</time>
      </trkpt>
      <trkpt lat="43.362455" lon="-5.683706">
        <ele>205</ele>
        <time>2019-11-24T16:37:31Z</time>
      </trkpt>
      <trkpt lat="43.362413" lon="-5.683642">
        <ele>206</ele>
        <time>2019-11-24T16:37:32Z</time>
      </trkpt>
      <trkpt lat="43.362372" lon="-5.68358">
        <ele>206</ele>
        <time>2019-11-24T16:37:33Z</time>
      </trkpt>
      <trkpt lat="43.362332" lon="-5.683519">
        <ele>207</ele>
        <time>2019-11-24T16:37:34Z</time>
      </trkpt>
      <trkpt lat="43.362293" lon="-5.683464">
        <ele>207</ele>
        <time>2019-11-24T16:37:35Z</time>
      </trkpt>
      <trkpt lat="43.362252" lon="-5.683408">
        <ele>207.4</ele>
        <time>2019-11-24T16:37:36Z</time>
      </trkpt>
      <trkpt lat="43.362211" lon="-5.683352">
        <ele>207</ele>
        <time>2019-11-24T16:37:37Z</time>
      </trkpt>
      <trkpt lat="43.36217" lon="-5.683296">
        <ele>207.2</ele>
        <time>2019-11-24T16:37:38Z</time>
      </trkpt>
      <trkpt lat="43.362133" lon="-5.683239">
        <ele>208</ele>
        <time>2019-11-24T16:37:39Z</time>
      </trkpt>
      <trkpt lat="43.362105" lon="-5.683179">
        <ele>208.4</ele>
        <time>2019-11-24T16:37:40Z</time>
      </trkpt>
      <trkpt lat="43.36207" lon="-5.683121">
        <ele>208.2</ele>
        <time>2019-11-24T16:37:41Z</time>
      </trkpt>
      <trkpt lat="43.362032" lon="-5.683063">
        <ele>208.4</ele>
        <time>2019-11-24T16:37:42Z</time>
      </trkpt>
      <trkpt lat="43.362001" lon="-5.683004">
        <ele>208.8</ele>
        <time>2019-11-24T16:37:43Z</time>
      </trkpt>
      <trkpt lat="43.361968" lon="-5.682951">
        <ele>208.8</ele>
        <time>2019-11-24T16:37:44Z</time>
      </trkpt>
      <trkpt lat="43.361934" lon="-5.682895">
        <ele>209</ele>
        <time>2019-11-24T16:37:45Z</time>
      </trkpt>
      <trkpt lat="43.361897" lon="-5.682834">
        <ele>209.2</ele>
        <time>2019-11-24T16:37:46Z</time>
      </trkpt>
      <trkpt lat="43.361856" lon="-5.682771">
        <ele>209.6</ele>
        <time>2019-11-24T16:37:47Z</time>
      </trkpt>
      <trkpt lat="43.361813" lon="-5.682708">
        <ele>210</ele>
        <time>2019-11-24T16:37:48Z</time>
      </trkpt>
      <trkpt lat="43.361773" lon="-5.682649">
        <ele>209.8</ele>
        <time>2019-11-24T16:37:49Z</time>
      </trkpt>
      <trkpt lat="43.361728" lon="-5.682589">
        <ele>210</ele>
        <time>2019-11-24T16:37:50Z</time>
      </trkpt>
      <trkpt lat="43.361683" lon="-5.682529">
        <ele>210.2</ele>
        <time>2019-11-24T16:37:51Z</time>
      </trkpt>
      <trkpt lat="43.361637" lon="-5.682465">
        <ele>210.4</ele>
        <time>2019-11-24T16:37:52Z</time>
      </trkpt>
      <trkpt lat="43.361595" lon="-5.682406">
        <ele>210.6</ele>
        <time>2019-11-24T16:37:53Z</time>
      </trkpt>
      <trkpt lat="43.361552" lon="-5.682349">
        <ele>210.4</ele>
        <time>2019-11-24T16:37:54Z</time>
      </trkpt>
      <trkpt lat="43.36151" lon="-5.682294">
        <ele>210.4</ele>
        <time>2019-11-24T16:37:55Z</time>
      </trkpt>
      <trkpt lat="43.361472" lon="-5.682241">
        <ele>210.4</ele>
        <time>2019-11-24T16:37:56Z</time>
      </trkpt>
      <trkpt lat="43.361436" lon="-5.682188">
        <ele>210.6</ele>
        <time>2019-11-24T16:37:57Z</time>
      </trkpt>
      <trkpt lat="43.361401" lon="-5.682138">
        <ele>210.6</ele>
        <time>2019-11-24T16:37:58Z</time>
      </trkpt>
      <trkpt lat="43.361365" lon="-5.682087">
        <ele>210.6</ele>
        <time>2019-11-24T16:37:59Z</time>
      </trkpt>
      <trkpt lat="43.361328" lon="-5.682038">
        <ele>210.4</ele>
        <time>2019-11-24T16:38:00Z</time>
      </trkpt>
      <trkpt lat="43.361295" lon="-5.68199">
        <ele>210.4</ele>
        <time>2019-11-24T16:38:01Z</time>
      </trkpt>
      <trkpt lat="43.361262" lon="-5.681947">
        <ele>210.4</ele>
        <time>2019-11-24T16:38:02Z</time>
      </trkpt>
      <trkpt lat="43.361229" lon="-5.681902">
        <ele>210.4</ele>
        <time>2019-11-24T16:38:03Z</time>
      </trkpt>
      <trkpt lat="43.361198" lon="-5.681858">
        <ele>210.6</ele>
        <time>2019-11-24T16:38:04Z</time>
      </trkpt>
      <trkpt lat="43.361168" lon="-5.681817">
        <ele>210.8</ele>
        <time>2019-11-24T16:38:05Z</time>
      </trkpt>
      <trkpt lat="43.361144" lon="-5.681783">
        <ele>211</ele>
        <time>2019-11-24T16:38:06Z</time>
      </trkpt>
      <trkpt lat="43.361123" lon="-5.681752">
        <ele>211</ele>
        <time>2019-11-24T16:38:07Z</time>
      </trkpt>
      <trkpt lat="43.361102" lon="-5.681722">
        <ele>211</ele>
        <time>2019-11-24T16:38:08Z</time>
      </trkpt>
      <trkpt lat="43.361081" lon="-5.681694">
        <ele>211</ele>
        <time>2019-11-24T16:38:09Z</time>
      </trkpt>
      <trkpt lat="43.361061" lon="-5.681667">
        <ele>211.2</ele>
        <time>2019-11-24T16:38:10Z</time>
      </trkpt>
      <trkpt lat="43.361044" lon="-5.681643">
        <ele>211.2</ele>
        <time>2019-11-24T16:38:11Z</time>
      </trkpt>
      <trkpt lat="43.36103" lon="-5.68162">
        <ele>211.2</ele>
        <time>2019-11-24T16:38:12Z</time>
      </trkpt>
      <trkpt lat="43.361026" lon="-5.681596">
        <ele>211</ele>
        <time>2019-11-24T16:38:13Z</time>
      </trkpt>
      <trkpt lat="43.361035" lon="-5.681568">
        <ele>211</ele>
        <time>2019-11-24T16:38:14Z</time>
      </trkpt>
      <trkpt lat="43.361055" lon="-5.681553">
        <ele>210.8</ele>
        <time>2019-11-24T16:38:15Z</time>
      </trkpt>
      <trkpt lat="43.36108" lon="-5.68156">
        <ele>210.6</ele>
        <time>2019-11-24T16:38:16Z</time>
      </trkpt>
      <trkpt lat="43.361103" lon="-5.681587">
        <ele>210.8</ele>
        <time>2019-11-24T16:38:17Z</time>
      </trkpt>
      <trkpt lat="43.361126" lon="-5.681624">
        <ele>210.8</ele>
        <time>2019-11-24T16:38:18Z</time>
      </trkpt>
      <trkpt lat="43.361152" lon="-5.681665">
        <ele>210.8</ele>
        <time>2019-11-24T16:38:19Z</time>
      </trkpt>
      <trkpt lat="43.36118" lon="-5.681708">
        <ele>210.6</ele>
        <time>2019-11-24T16:38:20Z</time>
      </trkpt>
      <trkpt lat="43.361211" lon="-5.681755">
        <ele>210.6</ele>
        <time>2019-11-24T16:38:21Z</time>
      </trkpt>
      <trkpt lat="43.361245" lon="-5.681809">
        <ele>210.4</ele>
        <time>2019-11-24T16:38:22Z</time>
      </trkpt>
      <trkpt lat="43.361286" lon="-5.68187">
        <ele>210.4</ele>
        <time>2019-11-24T16:38:23Z</time>
      </trkpt>
      <trkpt lat="43.361329" lon="-5.681935">
        <ele>210.2</ele>
        <time>2019-11-24T16:38:24Z</time>
      </trkpt>
      <trkpt lat="43.361376" lon="-5.682008">
        <ele>210.4</ele>
        <time>2019-11-24T16:38:25Z</time>
      </trkpt>
      <trkpt lat="43.361426" lon="-5.682083">
        <ele>210.4</ele>
        <time>2019-11-24T16:38:26Z</time>
      </trkpt>
      <trkpt lat="43.361477" lon="-5.682154">
        <ele>210.6</ele>
        <time>2019-11-24T16:38:27Z</time>
      </trkpt>
      <trkpt lat="43.361528" lon="-5.682223">
        <ele>210.8</ele>
        <time>2019-11-24T16:38:28Z</time>
      </trkpt>
      <trkpt lat="43.361575" lon="-5.682292">
        <ele>210.6</ele>
        <time>2019-11-24T16:38:29Z</time>
      </trkpt>
      <trkpt lat="43.361621" lon="-5.68236">
        <ele>210.8</ele>
        <time>2019-11-24T16:38:30Z</time>
      </trkpt>
      <trkpt lat="43.361668" lon="-5.682429">
        <ele>210.4</ele>
        <time>2019-11-24T16:38:31Z</time>
      </trkpt>
      <trkpt lat="43.361714" lon="-5.682497">
        <ele>210.4</ele>
        <time>2019-11-24T16:38:32Z</time>
      </trkpt>
      <trkpt lat="43.361761" lon="-5.682564">
        <ele>210.2</ele>
        <time>2019-11-24T16:38:33Z</time>
      </trkpt>
      <trkpt lat="43.361808" lon="-5.682633">
        <ele>210.2</ele>
        <time>2019-11-24T16:38:34Z</time>
      </trkpt>
      <trkpt lat="43.361855" lon="-5.682702">
        <ele>209.8</ele>
        <time>2019-11-24T16:38:35Z</time>
      </trkpt>
      <trkpt lat="43.361903" lon="-5.682772">
        <ele>209.6</ele>
        <time>2019-11-24T16:38:36Z</time>
      </trkpt>
      <trkpt lat="43.361952" lon="-5.682844">
        <ele>209.2</ele>
        <time>2019-11-24T16:38:37Z</time>
      </trkpt>
      <trkpt lat="43.362002" lon="-5.682919">
        <ele>209</ele>
        <time>2019-11-24T16:38:38Z</time>
      </trkpt>
      <trkpt lat="43.362055" lon="-5.682997">
        <ele>208.6</ele>
        <time>2019-11-24T16:38:39Z</time>
      </trkpt>
      <trkpt lat="43.362109" lon="-5.68308">
        <ele>207.8</ele>
        <time>2019-11-24T16:38:40Z</time>
      </trkpt>
      <trkpt lat="43.362165" lon="-5.683165">
        <ele>206.8</ele>
        <time>2019-11-24T16:38:41Z</time>
      </trkpt>
      <trkpt lat="43.362221" lon="-5.683253">
        <ele>206.6</ele>
        <time>2019-11-24T16:38:42Z</time>
      </trkpt>
      <trkpt lat="43.362278" lon="-5.683342">
        <ele>205.8</ele>
        <time>2019-11-24T16:38:43Z</time>
      </trkpt>
      <trkpt lat="43.362339" lon="-5.683433">
        <ele>204.8</ele>
        <time>2019-11-24T16:38:44Z</time>
      </trkpt>
      <trkpt lat="43.3624" lon="-5.683527">
        <ele>204.4</ele>
        <time>2019-11-24T16:38:45Z</time>
      </trkpt>
      <trkpt lat="43.362461" lon="-5.683624">
        <ele>203.4</ele>
        <time>2019-11-24T16:38:46Z</time>
      </trkpt>
      <trkpt lat="43.362523" lon="-5.683722">
        <ele>204</ele>
        <time>2019-11-24T16:38:47Z</time>
      </trkpt>
      <trkpt lat="43.362587" lon="-5.68382">
        <ele>204.6</ele>
        <time>2019-11-24T16:38:48Z</time>
      </trkpt>
      <trkpt lat="43.362652" lon="-5.683919">
        <ele>203.6</ele>
        <time>2019-11-24T16:38:49Z</time>
      </trkpt>
      <trkpt lat="43.362718" lon="-5.68402">
        <ele>202.6</ele>
        <time>2019-11-24T16:38:50Z</time>
      </trkpt>
      <trkpt lat="43.362788" lon="-5.684122">
        <ele>203</ele>
        <time>2019-11-24T16:38:51Z</time>
      </trkpt>
      <trkpt lat="43.362858" lon="-5.684225">
        <ele>202.4</ele>
        <time>2019-11-24T16:38:52Z</time>
      </trkpt>
      <trkpt lat="43.362927" lon="-5.684327">
        <ele>201.8</ele>
        <time>2019-11-24T16:38:53Z</time>
      </trkpt>
      <trkpt lat="43.362997" lon="-5.684429">
        <ele>201.6</ele>
        <time>2019-11-24T16:38:54Z</time>
      </trkpt>
      <trkpt lat="43.363068" lon="-5.684531">
        <ele>201.8</ele>
        <time>2019-11-24T16:38:55Z</time>
      </trkpt>
      <trkpt lat="43.363137" lon="-5.684635">
        <ele>201.2</ele>
        <time>2019-11-24T16:38:56Z</time>
      </trkpt>
      <trkpt lat="43.363207" lon="-5.684737">
        <ele>201.2</ele>
        <time>2019-11-24T16:38:57Z</time>
      </trkpt>
      <trkpt lat="43.363276" lon="-5.684841">
        <ele>201.4</ele>
        <time>2019-11-24T16:38:58Z</time>
      </trkpt>
      <trkpt lat="43.363345" lon="-5.684943">
        <ele>201.2</ele>
        <time>2019-11-24T16:38:59Z</time>
      </trkpt>
      <trkpt lat="43.363416" lon="-5.685045">
        <ele>201.2</ele>
        <time>2019-11-24T16:39:00Z</time>
      </trkpt>
      <trkpt lat="43.363486" lon="-5.685147">
        <ele>201.2</ele>
        <time>2019-11-24T16:39:01Z</time>
      </trkpt>
      <trkpt lat="43.363556" lon="-5.685248">
        <ele>201.6</ele>
        <time>2019-11-24T16:39:02Z</time>
      </trkpt>
      <trkpt lat="43.363627" lon="-5.685349">
        <ele>201.2</ele>
        <time>2019-11-24T16:39:03Z</time>
      </trkpt>
      <trkpt lat="43.363699" lon="-5.685449">
        <ele>201.2</ele>
        <time>2019-11-24T16:39:04Z</time>
      </trkpt>
      <trkpt lat="43.36377" lon="-5.685551">
        <ele>201.6</ele>
        <time>2019-11-24T16:39:05Z</time>
      </trkpt>
      <trkpt lat="43.36384" lon="-5.685653">
        <ele>201.6</ele>
        <time>2019-11-24T16:39:06Z</time>
      </trkpt>
      <trkpt lat="43.363911" lon="-5.685755">
        <ele>201.2</ele>
        <time>2019-11-24T16:39:07Z</time>
      </trkpt>
      <trkpt lat="43.363982" lon="-5.685856">
        <ele>200.8</ele>
        <time>2019-11-24T16:39:08Z</time>
      </trkpt>
      <trkpt lat="43.364052" lon="-5.685958">
        <ele>201.2</ele>
        <time>2019-11-24T16:39:09Z</time>
      </trkpt>
      <trkpt lat="43.364123" lon="-5.686061">
        <ele>200.8</ele>
        <time>2019-11-24T16:39:10Z</time>
      </trkpt>
      <trkpt lat="43.364193" lon="-5.686165">
        <ele>201</ele>
        <time>2019-11-24T16:39:11Z</time>
      </trkpt>
      <trkpt lat="43.364265" lon="-5.686269">
        <ele>201.2</ele>
        <time>2019-11-24T16:39:12Z</time>
      </trkpt>
      <trkpt lat="43.364336" lon="-5.686374">
        <ele>200.8</ele>
        <time>2019-11-24T16:39:13Z</time>
      </trkpt>
      <trkpt lat="43.364407" lon="-5.686479">
        <ele>200.8</ele>
        <time>2019-11-24T16:39:14Z</time>
      </trkpt>
      <trkpt lat="43.364479" lon="-5.686582">
        <ele>200.8</ele>
        <time>2019-11-24T16:39:15Z</time>
      </trkpt>
      <trkpt lat="43.364553" lon="-5.686682">
        <ele>200.2</ele>
        <time>2019-11-24T16:39:16Z</time>
      </trkpt>
      <trkpt lat="43.364629" lon="-5.686778">
        <ele>200.2</ele>
        <time>2019-11-24T16:39:17Z</time>
      </trkpt>
      <trkpt lat="43.364706" lon="-5.68687">
        <ele>199.8</ele>
        <time>2019-11-24T16:39:18Z</time>
      </trkpt>
      <trkpt lat="43.364785" lon="-5.686959">
        <ele>199.2</ele>
        <time>2019-11-24T16:39:19Z</time>
      </trkpt>
      <trkpt lat="43.364864" lon="-5.687044">
        <ele>199.8</ele>
        <time>2019-11-24T16:39:20Z</time>
      </trkpt>
      <trkpt lat="43.364944" lon="-5.687126">
        <ele>201.4</ele>
        <time>2019-11-24T16:39:21Z</time>
      </trkpt>
      <trkpt lat="43.365023" lon="-5.687209">
        <ele>200.4</ele>
        <time>2019-11-24T16:39:22Z</time>
      </trkpt>
      <trkpt lat="43.365103" lon="-5.68729">
        <ele>200.4</ele>
        <time>2019-11-24T16:39:23Z</time>
      </trkpt>
      <trkpt lat="43.365182" lon="-5.68737">
        <ele>199</ele>
        <time>2019-11-24T16:39:24Z</time>
      </trkpt>
      <trkpt lat="43.36526" lon="-5.687451">
        <ele>199.4</ele>
        <time>2019-11-24T16:39:25Z</time>
      </trkpt>
      <trkpt lat="43.365336" lon="-5.68753">
        <ele>199.2</ele>
        <time>2019-11-24T16:39:26Z</time>
      </trkpt>
      <trkpt lat="43.365409" lon="-5.687607">
        <ele>200</ele>
        <time>2019-11-24T16:39:27Z</time>
      </trkpt>
      <trkpt lat="43.365481" lon="-5.687683">
        <ele>200.4</ele>
        <time>2019-11-24T16:39:28Z</time>
      </trkpt>
      <trkpt lat="43.365551" lon="-5.687758">
        <ele>200.6</ele>
        <time>2019-11-24T16:39:29Z</time>
      </trkpt>
      <trkpt lat="43.365619" lon="-5.687834">
        <ele>201</ele>
        <time>2019-11-24T16:39:30Z</time>
      </trkpt>
      <trkpt lat="43.365685" lon="-5.687914">
        <ele>200.4</ele>
        <time>2019-11-24T16:39:31Z</time>
      </trkpt>
      <trkpt lat="43.365749" lon="-5.688003">
        <ele>200.6</ele>
        <time>2019-11-24T16:39:32Z</time>
      </trkpt>
      <trkpt lat="43.365814" lon="-5.688098">
        <ele>200.2</ele>
        <time>2019-11-24T16:39:33Z</time>
      </trkpt>
      <trkpt lat="43.365878" lon="-5.688195">
        <ele>199.6</ele>
        <time>2019-11-24T16:39:34Z</time>
      </trkpt>
      <trkpt lat="43.365941" lon="-5.688293">
        <ele>199.4</ele>
        <time>2019-11-24T16:39:35Z</time>
      </trkpt>
      <trkpt lat="43.366004" lon="-5.68839">
        <ele>199.4</ele>
        <time>2019-11-24T16:39:36Z</time>
      </trkpt>
      <trkpt lat="43.366066" lon="-5.688485">
        <ele>199.8</ele>
        <time>2019-11-24T16:39:37Z</time>
      </trkpt>
      <trkpt lat="43.366131" lon="-5.688578">
        <ele>199.2</ele>
        <time>2019-11-24T16:39:38Z</time>
      </trkpt>
      <trkpt lat="43.366192" lon="-5.688672">
        <ele>198.8</ele>
        <time>2019-11-24T16:39:39Z</time>
      </trkpt>
      <trkpt lat="43.36625" lon="-5.688767">
        <ele>198.2</ele>
        <time>2019-11-24T16:39:40Z</time>
      </trkpt>
      <trkpt lat="43.366309" lon="-5.688857">
        <ele>197.6</ele>
        <time>2019-11-24T16:39:41Z</time>
      </trkpt>
      <trkpt lat="43.366367" lon="-5.688944">
        <ele>197.6</ele>
        <time>2019-11-24T16:39:42Z</time>
      </trkpt>
      <trkpt lat="43.366424" lon="-5.68903">
        <ele>197.6</ele>
        <time>2019-11-24T16:39:43Z</time>
      </trkpt>
      <trkpt lat="43.36648" lon="-5.689115">
        <ele>197.4</ele>
        <time>2019-11-24T16:39:44Z</time>
      </trkpt>
      <trkpt lat="43.366536" lon="-5.689197">
        <ele>197.2</ele>
        <time>2019-11-24T16:39:45Z</time>
      </trkpt>
      <trkpt lat="43.366593" lon="-5.689278">
        <ele>198.2</ele>
        <time>2019-11-24T16:39:46Z</time>
      </trkpt>
      <trkpt lat="43.366649" lon="-5.68936">
        <ele>198</ele>
        <time>2019-11-24T16:39:47Z</time>
      </trkpt>
      <trkpt lat="43.366704" lon="-5.689442">
        <ele>197.4</ele>
        <time>2019-11-24T16:39:48Z</time>
      </trkpt>
      <trkpt lat="43.366758" lon="-5.689522">
        <ele>197.4</ele>
        <time>2019-11-24T16:39:49Z</time>
      </trkpt>
      <trkpt lat="43.366814" lon="-5.689601">
        <ele>197.8</ele>
        <time>2019-11-24T16:39:50Z</time>
      </trkpt>
      <trkpt lat="43.36687" lon="-5.689677">
        <ele>197.8</ele>
        <time>2019-11-24T16:39:51Z</time>
      </trkpt>
      <trkpt lat="43.366924" lon="-5.689754">
        <ele>198</ele>
        <time>2019-11-24T16:39:52Z</time>
      </trkpt>
      <trkpt lat="43.366978" lon="-5.689828">
        <ele>198</ele>
        <time>2019-11-24T16:39:53Z</time>
      </trkpt>
      <trkpt lat="43.367032" lon="-5.689901">
        <ele>197.6</ele>
        <time>2019-11-24T16:39:54Z</time>
      </trkpt>
      <trkpt lat="43.367087" lon="-5.689972">
        <ele>198</ele>
        <time>2019-11-24T16:39:55Z</time>
      </trkpt>
      <trkpt lat="43.367143" lon="-5.69004">
        <ele>198</ele>
        <time>2019-11-24T16:39:56Z</time>
      </trkpt>
      <trkpt lat="43.3672" lon="-5.690107">
        <ele>198.6</ele>
        <time>2019-11-24T16:39:57Z</time>
      </trkpt>
      <trkpt lat="43.367257" lon="-5.690171">
        <ele>198.6</ele>
        <time>2019-11-24T16:39:58Z</time>
      </trkpt>
      <trkpt lat="43.367314" lon="-5.690232">
        <ele>198.4</ele>
        <time>2019-11-24T16:39:59Z</time>
      </trkpt>
      <trkpt lat="43.367372" lon="-5.69029">
        <ele>198.6</ele>
        <time>2019-11-24T16:40:00Z</time>
      </trkpt>
      <trkpt lat="43.367432" lon="-5.690346">
        <ele>198.2</ele>
        <time>2019-11-24T16:40:01Z</time>
      </trkpt>
      <trkpt lat="43.367494" lon="-5.690403">
        <ele>197.8</ele>
        <time>2019-11-24T16:40:02Z</time>
      </trkpt>
      <trkpt lat="43.367558" lon="-5.690459">
        <ele>197.4</ele>
        <time>2019-11-24T16:40:03Z</time>
      </trkpt>
      <trkpt lat="43.367625" lon="-5.690515">
        <ele>197</ele>
        <time>2019-11-24T16:40:04Z</time>
      </trkpt>
      <trkpt lat="43.367694" lon="-5.69057">
        <ele>196.8</ele>
        <time>2019-11-24T16:40:05Z</time>
      </trkpt>
      <trkpt lat="43.367763" lon="-5.690628">
        <ele>197</ele>
        <time>2019-11-24T16:40:06Z</time>
      </trkpt>
      <trkpt lat="43.367832" lon="-5.690688">
        <ele>196.2</ele>
        <time>2019-11-24T16:40:07Z</time>
      </trkpt>
      <trkpt lat="43.367903" lon="-5.690749">
        <ele>195.6</ele>
        <time>2019-11-24T16:40:08Z</time>
      </trkpt>
      <trkpt lat="43.367974" lon="-5.690808">
        <ele>195.8</ele>
        <time>2019-11-24T16:40:09Z</time>
      </trkpt>
      <trkpt lat="43.368045" lon="-5.69087">
        <ele>194.8</ele>
        <time>2019-11-24T16:40:10Z</time>
      </trkpt>
      <trkpt lat="43.368118" lon="-5.690932">
        <ele>194.6</ele>
        <time>2019-11-24T16:40:11Z</time>
      </trkpt>
      <trkpt lat="43.36819" lon="-5.690993">
        <ele>194.8</ele>
        <time>2019-11-24T16:40:12Z</time>
      </trkpt>
      <trkpt lat="43.368261" lon="-5.691054">
        <ele>194.8</ele>
        <time>2019-11-24T16:40:13Z</time>
      </trkpt>
      <trkpt lat="43.368333" lon="-5.691115">
        <ele>195</ele>
        <time>2019-11-24T16:40:14Z</time>
      </trkpt>
      <trkpt lat="43.368403" lon="-5.691176">
        <ele>194.4</ele>
        <time>2019-11-24T16:40:15Z</time>
      </trkpt>
      <trkpt lat="43.368472" lon="-5.691239">
        <ele>194.4</ele>
        <time>2019-11-24T16:40:16Z</time>
      </trkpt>
      <trkpt lat="43.36854" lon="-5.6913">
        <ele>194.4</ele>
        <time>2019-11-24T16:40:17Z</time>
      </trkpt>
      <trkpt lat="43.368609" lon="-5.691361">
        <ele>194.4</ele>
        <time>2019-11-24T16:40:18Z</time>
      </trkpt>
      <trkpt lat="43.368678" lon="-5.69142">
        <ele>195</ele>
        <time>2019-11-24T16:40:19Z</time>
      </trkpt>
      <trkpt lat="43.368747" lon="-5.691478">
        <ele>194.8</ele>
        <time>2019-11-24T16:40:20Z</time>
      </trkpt>
      <trkpt lat="43.368814" lon="-5.691536">
        <ele>194.4</ele>
        <time>2019-11-24T16:40:21Z</time>
      </trkpt>
      <trkpt lat="43.368882" lon="-5.691595">
        <ele>194.8</ele>
        <time>2019-11-24T16:40:22Z</time>
      </trkpt>
      <trkpt lat="43.368949" lon="-5.691653">
        <ele>194.4</ele>
        <time>2019-11-24T16:40:23Z</time>
      </trkpt>
      <trkpt lat="43.369016" lon="-5.691713">
        <ele>195</ele>
        <time>2019-11-24T16:40:24Z</time>
      </trkpt>
      <trkpt lat="43.369082" lon="-5.691772">
        <ele>194.8</ele>
        <time>2019-11-24T16:40:25Z</time>
      </trkpt>
      <trkpt lat="43.369147" lon="-5.691831">
        <ele>194.4</ele>
        <time>2019-11-24T16:40:26Z</time>
      </trkpt>
      <trkpt lat="43.369213" lon="-5.691889">
        <ele>194</ele>
        <time>2019-11-24T16:40:27Z</time>
      </trkpt>
      <trkpt lat="43.369278" lon="-5.691946">
        <ele>194.8</ele>
        <time>2019-11-24T16:40:28Z</time>
      </trkpt>
      <trkpt lat="43.369343" lon="-5.692002">
        <ele>194</ele>
        <time>2019-11-24T16:40:29Z</time>
      </trkpt>
      <trkpt lat="43.369408" lon="-5.692058">
        <ele>194.2</ele>
        <time>2019-11-24T16:40:30Z</time>
      </trkpt>
      <trkpt lat="43.369471" lon="-5.692115">
        <ele>194.2</ele>
        <time>2019-11-24T16:40:31Z</time>
      </trkpt>
      <trkpt lat="43.369533" lon="-5.69217">
        <ele>194</ele>
        <time>2019-11-24T16:40:32Z</time>
      </trkpt>
      <trkpt lat="43.369595" lon="-5.692223">
        <ele>193.6</ele>
        <time>2019-11-24T16:40:33Z</time>
      </trkpt>
      <trkpt lat="43.369656" lon="-5.692276">
        <ele>193.8</ele>
        <time>2019-11-24T16:40:34Z</time>
      </trkpt>
      <trkpt lat="43.369717" lon="-5.692328">
        <ele>193.8</ele>
        <time>2019-11-24T16:40:35Z</time>
      </trkpt>
      <trkpt lat="43.369776" lon="-5.69238">
        <ele>194.4</ele>
        <time>2019-11-24T16:40:36Z</time>
      </trkpt>
      <trkpt lat="43.369835" lon="-5.692429">
        <ele>194.4</ele>
        <time>2019-11-24T16:40:37Z</time>
      </trkpt>
      <trkpt lat="43.369893" lon="-5.692477">
        <ele>195</ele>
        <time>2019-11-24T16:40:38Z</time>
      </trkpt>
      <trkpt lat="43.369951" lon="-5.692525">
        <ele>195.6</ele>
        <time>2019-11-24T16:40:39Z</time>
      </trkpt>
      <trkpt lat="43.370007" lon="-5.692573">
        <ele>196.2</ele>
        <time>2019-11-24T16:40:40Z</time>
      </trkpt>
      <trkpt lat="43.370062" lon="-5.692621">
        <ele>196.8</ele>
        <time>2019-11-24T16:40:41Z</time>
      </trkpt>
      <trkpt lat="43.370116" lon="-5.692669">
        <ele>196.8</ele>
        <time>2019-11-24T16:40:42Z</time>
      </trkpt>
      <trkpt lat="43.37017" lon="-5.692719">
        <ele>196.8</ele>
        <time>2019-11-24T16:40:43Z</time>
      </trkpt>
      <trkpt lat="43.370225" lon="-5.692768">
        <ele>196.4</ele>
        <time>2019-11-24T16:40:44Z</time>
      </trkpt>
      <trkpt lat="43.370281" lon="-5.692816">
        <ele>196.4</ele>
        <time>2019-11-24T16:40:45Z</time>
      </trkpt>
      <trkpt lat="43.370337" lon="-5.692866">
        <ele>196.4</ele>
        <time>2019-11-24T16:40:46Z</time>
      </trkpt>
      <trkpt lat="43.370392" lon="-5.692919">
        <ele>196.2</ele>
        <time>2019-11-24T16:40:47Z</time>
      </trkpt>
      <trkpt lat="43.370448" lon="-5.692972">
        <ele>196</ele>
        <time>2019-11-24T16:40:48Z</time>
      </trkpt>
      <trkpt lat="43.370505" lon="-5.693026">
        <ele>195.8</ele>
        <time>2019-11-24T16:40:49Z</time>
      </trkpt>
      <trkpt lat="43.370563" lon="-5.693082">
        <ele>195.8</ele>
        <time>2019-11-24T16:40:50Z</time>
      </trkpt>
      <trkpt lat="43.370622" lon="-5.69314">
        <ele>195.2</ele>
        <time>2019-11-24T16:40:51Z</time>
      </trkpt>
      <trkpt lat="43.370683" lon="-5.693198">
        <ele>194.8</ele>
        <time>2019-11-24T16:40:52Z</time>
      </trkpt>
      <trkpt lat="43.370745" lon="-5.69326">
        <ele>194.4</ele>
        <time>2019-11-24T16:40:53Z</time>
      </trkpt>
      <trkpt lat="43.370807" lon="-5.693323">
        <ele>193.8</ele>
        <time>2019-11-24T16:40:54Z</time>
      </trkpt>
      <trkpt lat="43.370871" lon="-5.693388">
        <ele>193.8</ele>
        <time>2019-11-24T16:40:55Z</time>
      </trkpt>
      <trkpt lat="43.370936" lon="-5.693454">
        <ele>193.4</ele>
        <time>2019-11-24T16:40:56Z</time>
      </trkpt>
      <trkpt lat="43.371002" lon="-5.69352">
        <ele>193</ele>
        <time>2019-11-24T16:40:57Z</time>
      </trkpt>
      <trkpt lat="43.37107" lon="-5.693589">
        <ele>192.2</ele>
        <time>2019-11-24T16:40:58Z</time>
      </trkpt>
      <trkpt lat="43.37114" lon="-5.69366">
        <ele>191.8</ele>
        <time>2019-11-24T16:40:59Z</time>
      </trkpt>
      <trkpt lat="43.371211" lon="-5.693732">
        <ele>191.4</ele>
        <time>2019-11-24T16:41:00Z</time>
      </trkpt>
      <trkpt lat="43.371284" lon="-5.693805">
        <ele>191.2</ele>
        <time>2019-11-24T16:41:01Z</time>
      </trkpt>
      <trkpt lat="43.371358" lon="-5.693881">
        <ele>190.6</ele>
        <time>2019-11-24T16:41:02Z</time>
      </trkpt>
      <trkpt lat="43.371434" lon="-5.693958">
        <ele>190.4</ele>
        <time>2019-11-24T16:41:03Z</time>
      </trkpt>
      <trkpt lat="43.37151" lon="-5.694035">
        <ele>190</ele>
        <time>2019-11-24T16:41:04Z</time>
      </trkpt>
      <trkpt lat="43.371585" lon="-5.694111">
        <ele>189.8</ele>
        <time>2019-11-24T16:41:05Z</time>
      </trkpt>
      <trkpt lat="43.371662" lon="-5.694186">
        <ele>189.4</ele>
        <time>2019-11-24T16:41:06Z</time>
      </trkpt>
      <trkpt lat="43.371737" lon="-5.69426">
        <ele>189.8</ele>
        <time>2019-11-24T16:41:07Z</time>
      </trkpt>
      <trkpt lat="43.371815" lon="-5.694325">
        <ele>190</ele>
        <time>2019-11-24T16:41:08Z</time>
      </trkpt>
      <trkpt lat="43.371893" lon="-5.69438">
        <ele>190.2</ele>
        <time>2019-11-24T16:41:09Z</time>
      </trkpt>
      <trkpt lat="43.371967" lon="-5.694427">
        <ele>190.6</ele>
        <time>2019-11-24T16:41:10Z</time>
      </trkpt>
      <trkpt lat="43.372039" lon="-5.694458">
        <ele>191.2</ele>
        <time>2019-11-24T16:41:11Z</time>
      </trkpt>
      <trkpt lat="43.372107" lon="-5.694489">
        <ele>192.2</ele>
        <time>2019-11-24T16:41:12Z</time>
      </trkpt>
      <trkpt lat="43.372171" lon="-5.694508">
        <ele>192.8</ele>
        <time>2019-11-24T16:41:13Z</time>
      </trkpt>
      <trkpt lat="43.372233" lon="-5.694516">
        <ele>193.4</ele>
        <time>2019-11-24T16:41:14Z</time>
      </trkpt>
      <trkpt lat="43.372292" lon="-5.694527">
        <ele>194</ele>
        <time>2019-11-24T16:41:15Z</time>
      </trkpt>
      <trkpt lat="43.37235" lon="-5.69454">
        <ele>194.4</ele>
        <time>2019-11-24T16:41:16Z</time>
      </trkpt>
      <trkpt lat="43.372407" lon="-5.694549">
        <ele>195</ele>
        <time>2019-11-24T16:41:17Z</time>
      </trkpt>
      <trkpt lat="43.372461" lon="-5.694556">
        <ele>195.4</ele>
        <time>2019-11-24T16:41:18Z</time>
      </trkpt>
      <trkpt lat="43.372518" lon="-5.694568">
        <ele>196</ele>
        <time>2019-11-24T16:41:19Z</time>
      </trkpt>
      <trkpt lat="43.372575" lon="-5.694581">
        <ele>196.4</ele>
        <time>2019-11-24T16:41:20Z</time>
      </trkpt>
      <trkpt lat="43.372632" lon="-5.694589">
        <ele>196.6</ele>
        <time>2019-11-24T16:41:21Z</time>
      </trkpt>
      <trkpt lat="43.37269" lon="-5.694598">
        <ele>197.2</ele>
        <time>2019-11-24T16:41:22Z</time>
      </trkpt>
      <trkpt lat="43.372748" lon="-5.69461">
        <ele>197.2</ele>
        <time>2019-11-24T16:41:23Z</time>
      </trkpt>
      <trkpt lat="43.372807" lon="-5.69462">
        <ele>197.6</ele>
        <time>2019-11-24T16:41:24Z</time>
      </trkpt>
      <trkpt lat="43.372869" lon="-5.694634">
        <ele>197.6</ele>
        <time>2019-11-24T16:41:25Z</time>
      </trkpt>
      <trkpt lat="43.372933" lon="-5.694649">
        <ele>198</ele>
        <time>2019-11-24T16:41:26Z</time>
      </trkpt>
      <trkpt lat="43.372997" lon="-5.694666">
        <ele>197.8</ele>
        <time>2019-11-24T16:41:27Z</time>
      </trkpt>
      <trkpt lat="43.373062" lon="-5.694681">
        <ele>197.8</ele>
        <time>2019-11-24T16:41:28Z</time>
      </trkpt>
      <trkpt lat="43.373128" lon="-5.694692">
        <ele>198.2</ele>
        <time>2019-11-24T16:41:29Z</time>
      </trkpt>
      <trkpt lat="43.373195" lon="-5.694704">
        <ele>198.2</ele>
        <time>2019-11-24T16:41:30Z</time>
      </trkpt>
      <trkpt lat="43.373261" lon="-5.694717">
        <ele>197.8</ele>
        <time>2019-11-24T16:41:31Z</time>
      </trkpt>
      <trkpt lat="43.373327" lon="-5.694728">
        <ele>198</ele>
        <time>2019-11-24T16:41:32Z</time>
      </trkpt>
      <trkpt lat="43.373393" lon="-5.694738">
        <ele>198</ele>
        <time>2019-11-24T16:41:33Z</time>
      </trkpt>
      <trkpt lat="43.37346" lon="-5.694746">
        <ele>197.8</ele>
        <time>2019-11-24T16:41:34Z</time>
      </trkpt>
      <trkpt lat="43.373526" lon="-5.694757">
        <ele>198</ele>
        <time>2019-11-24T16:41:35Z</time>
      </trkpt>
      <trkpt lat="43.373592" lon="-5.694771">
        <ele>198</ele>
        <time>2019-11-24T16:41:36Z</time>
      </trkpt>
      <trkpt lat="43.373656" lon="-5.694785">
        <ele>197.6</ele>
        <time>2019-11-24T16:41:37Z</time>
      </trkpt>
      <trkpt lat="43.37372" lon="-5.694799">
        <ele>198.2</ele>
        <time>2019-11-24T16:41:38Z</time>
      </trkpt>
      <trkpt lat="43.373785" lon="-5.694812">
        <ele>198.8</ele>
        <time>2019-11-24T16:41:39Z</time>
      </trkpt>
      <trkpt lat="43.373848" lon="-5.694828">
        <ele>199.4</ele>
        <time>2019-11-24T16:41:40Z</time>
      </trkpt>
      <trkpt lat="43.373909" lon="-5.694845">
        <ele>200.4</ele>
        <time>2019-11-24T16:41:41Z</time>
      </trkpt>
      <trkpt lat="43.373967" lon="-5.694865">
        <ele>200</ele>
        <time>2019-11-24T16:41:42Z</time>
      </trkpt>
      <trkpt lat="43.374023" lon="-5.694889">
        <ele>200.6</ele>
        <time>2019-11-24T16:41:43Z</time>
      </trkpt>
      <trkpt lat="43.374077" lon="-5.694915">
        <ele>200.6</ele>
        <time>2019-11-24T16:41:44Z</time>
      </trkpt>
      <trkpt lat="43.37413" lon="-5.694945">
        <ele>201.4</ele>
        <time>2019-11-24T16:41:45Z</time>
      </trkpt>
      <trkpt lat="43.374181" lon="-5.69498">
        <ele>201.4</ele>
        <time>2019-11-24T16:41:46Z</time>
      </trkpt>
      <trkpt lat="43.374231" lon="-5.695022">
        <ele>201.6</ele>
        <time>2019-11-24T16:41:47Z</time>
      </trkpt>
      <trkpt lat="43.374279" lon="-5.695068">
        <ele>202.2</ele>
        <time>2019-11-24T16:41:48Z</time>
      </trkpt>
      <trkpt lat="43.374324" lon="-5.695117">
        <ele>201.8</ele>
        <time>2019-11-24T16:41:49Z</time>
      </trkpt>
      <trkpt lat="43.374368" lon="-5.695171">
        <ele>202.8</ele>
        <time>2019-11-24T16:41:50Z</time>
      </trkpt>
      <trkpt lat="43.37441" lon="-5.695228">
        <ele>202</ele>
        <time>2019-11-24T16:41:51Z</time>
      </trkpt>
      <trkpt lat="43.37445" lon="-5.695286">
        <ele>203.2</ele>
        <time>2019-11-24T16:41:52Z</time>
      </trkpt>
      <trkpt lat="43.374488" lon="-5.695348">
        <ele>203.6</ele>
        <time>2019-11-24T16:41:53Z</time>
      </trkpt>
      <trkpt lat="43.374524" lon="-5.695409">
        <ele>203.6</ele>
        <time>2019-11-24T16:41:54Z</time>
      </trkpt>
      <trkpt lat="43.374558" lon="-5.695468">
        <ele>203.8</ele>
        <time>2019-11-24T16:41:55Z</time>
      </trkpt>
      <trkpt lat="43.374593" lon="-5.695527">
        <ele>204.6</ele>
        <time>2019-11-24T16:41:56Z</time>
      </trkpt>
      <trkpt lat="43.374628" lon="-5.69559">
        <ele>204.8</ele>
        <time>2019-11-24T16:41:57Z</time>
      </trkpt>
      <trkpt lat="43.374663" lon="-5.695653">
        <ele>204.2</ele>
        <time>2019-11-24T16:41:58Z</time>
      </trkpt>
      <trkpt lat="43.374698" lon="-5.695713">
        <ele>204.2</ele>
        <time>2019-11-24T16:41:59Z</time>
      </trkpt>
      <trkpt lat="43.374733" lon="-5.695772">
        <ele>205.2</ele>
        <time>2019-11-24T16:42:00Z</time>
      </trkpt>
      <trkpt lat="43.374767" lon="-5.695831">
        <ele>204.8</ele>
        <time>2019-11-24T16:42:01Z</time>
      </trkpt>
      <trkpt lat="43.3748" lon="-5.695888">
        <ele>205.4</ele>
        <time>2019-11-24T16:42:02Z</time>
      </trkpt>
      <trkpt lat="43.374833" lon="-5.695944">
        <ele>205.4</ele>
        <time>2019-11-24T16:42:03Z</time>
      </trkpt>
      <trkpt lat="43.374869" lon="-5.696003">
        <ele>206</ele>
        <time>2019-11-24T16:42:04Z</time>
      </trkpt>
      <trkpt lat="43.374906" lon="-5.696062">
        <ele>206.2</ele>
        <time>2019-11-24T16:42:05Z</time>
      </trkpt>
      <trkpt lat="43.374943" lon="-5.696121">
        <ele>206</ele>
        <time>2019-11-24T16:42:06Z</time>
      </trkpt>
      <trkpt lat="43.374981" lon="-5.696182">
        <ele>206.2</ele>
        <time>2019-11-24T16:42:07Z</time>
      </trkpt>
      <trkpt lat="43.375018" lon="-5.696238">
        <ele>207</ele>
        <time>2019-11-24T16:42:08Z</time>
      </trkpt>
      <trkpt lat="43.375057" lon="-5.696294">
        <ele>207</ele>
        <time>2019-11-24T16:42:09Z</time>
      </trkpt>
      <trkpt lat="43.375099" lon="-5.696347">
        <ele>207</ele>
        <time>2019-11-24T16:42:10Z</time>
      </trkpt>
      <trkpt lat="43.375141" lon="-5.696396">
        <ele>207.8</ele>
        <time>2019-11-24T16:42:11Z</time>
      </trkpt>
      <trkpt lat="43.375186" lon="-5.696442">
        <ele>207.8</ele>
        <time>2019-11-24T16:42:12Z</time>
      </trkpt>
      <trkpt lat="43.375233" lon="-5.696487">
        <ele>207.6</ele>
        <time>2019-11-24T16:42:13Z</time>
      </trkpt>
      <trkpt lat="43.375283" lon="-5.696529">
        <ele>207.4</ele>
        <time>2019-11-24T16:42:14Z</time>
      </trkpt>
      <trkpt lat="43.375335" lon="-5.69657">
        <ele>207.4</ele>
        <time>2019-11-24T16:42:15Z</time>
      </trkpt>
      <trkpt lat="43.37539" lon="-5.69661">
        <ele>207.2</ele>
        <time>2019-11-24T16:42:16Z</time>
      </trkpt>
      <trkpt lat="43.375445" lon="-5.696649">
        <ele>207.2</ele>
        <time>2019-11-24T16:42:17Z</time>
      </trkpt>
      <trkpt lat="43.375501" lon="-5.696688">
        <ele>206.6</ele>
        <time>2019-11-24T16:42:18Z</time>
      </trkpt>
      <trkpt lat="43.375558" lon="-5.696724">
        <ele>207.2</ele>
        <time>2019-11-24T16:42:19Z</time>
      </trkpt>
      <trkpt lat="43.375613" lon="-5.696759">
        <ele>207.4</ele>
        <time>2019-11-24T16:42:20Z</time>
      </trkpt>
      <trkpt lat="43.375668" lon="-5.696794">
        <ele>208</ele>
        <time>2019-11-24T16:42:21Z</time>
      </trkpt>
      <trkpt lat="43.375722" lon="-5.69683">
        <ele>208.2</ele>
        <time>2019-11-24T16:42:22Z</time>
      </trkpt>
      <trkpt lat="43.375777" lon="-5.696866">
        <ele>207.8</ele>
        <time>2019-11-24T16:42:23Z</time>
      </trkpt>
      <trkpt lat="43.375832" lon="-5.696901">
        <ele>208.6</ele>
        <time>2019-11-24T16:42:24Z</time>
      </trkpt>
      <trkpt lat="43.375887" lon="-5.696935">
        <ele>208.8</ele>
        <time>2019-11-24T16:42:25Z</time>
      </trkpt>
      <trkpt lat="43.375942" lon="-5.696968">
        <ele>208.6</ele>
        <time>2019-11-24T16:42:26Z</time>
      </trkpt>
      <trkpt lat="43.375998" lon="-5.697001">
        <ele>209</ele>
        <time>2019-11-24T16:42:27Z</time>
      </trkpt>
      <trkpt lat="43.376053" lon="-5.697034">
        <ele>209.4</ele>
        <time>2019-11-24T16:42:28Z</time>
      </trkpt>
      <trkpt lat="43.376109" lon="-5.697067">
        <ele>209.6</ele>
        <time>2019-11-24T16:42:29Z</time>
      </trkpt>
      <trkpt lat="43.376163" lon="-5.6971">
        <ele>209.8</ele>
        <time>2019-11-24T16:42:30Z</time>
      </trkpt>
      <trkpt lat="43.376218" lon="-5.697135">
        <ele>209.8</ele>
        <time>2019-11-24T16:42:31Z</time>
      </trkpt>
      <trkpt lat="43.376274" lon="-5.697167">
        <ele>209.4</ele>
        <time>2019-11-24T16:42:32Z</time>
      </trkpt>
      <trkpt lat="43.37633" lon="-5.697199">
        <ele>209.8</ele>
        <time>2019-11-24T16:42:33Z</time>
      </trkpt>
      <trkpt lat="43.376385" lon="-5.697232">
        <ele>210</ele>
        <time>2019-11-24T16:42:34Z</time>
      </trkpt>
      <trkpt lat="43.37644" lon="-5.697264">
        <ele>210</ele>
        <time>2019-11-24T16:42:35Z</time>
      </trkpt>
      <trkpt lat="43.376495" lon="-5.697297">
        <ele>210.2</ele>
        <time>2019-11-24T16:42:36Z</time>
      </trkpt>
      <trkpt lat="43.376551" lon="-5.69733">
        <ele>210.8</ele>
        <time>2019-11-24T16:42:37Z</time>
      </trkpt>
      <trkpt lat="43.376607" lon="-5.697363">
        <ele>211.4</ele>
        <time>2019-11-24T16:42:38Z</time>
      </trkpt>
      <trkpt lat="43.376663" lon="-5.697397">
        <ele>211.2</ele>
        <time>2019-11-24T16:42:39Z</time>
      </trkpt>
      <trkpt lat="43.37672" lon="-5.69743">
        <ele>210.6</ele>
        <time>2019-11-24T16:42:40Z</time>
      </trkpt>
      <trkpt lat="43.376777" lon="-5.697464">
        <ele>211</ele>
        <time>2019-11-24T16:42:41Z</time>
      </trkpt>
      <trkpt lat="43.376834" lon="-5.697499">
        <ele>211.2</ele>
        <time>2019-11-24T16:42:42Z</time>
      </trkpt>
      <trkpt lat="43.376892" lon="-5.697534">
        <ele>211.2</ele>
        <time>2019-11-24T16:42:43Z</time>
      </trkpt>
      <trkpt lat="43.37695" lon="-5.697569">
        <ele>211.2</ele>
        <time>2019-11-24T16:42:44Z</time>
      </trkpt>
      <trkpt lat="43.377008" lon="-5.697603">
        <ele>211.6</ele>
        <time>2019-11-24T16:42:45Z</time>
      </trkpt>
      <trkpt lat="43.377066" lon="-5.697639">
        <ele>211.4</ele>
        <time>2019-11-24T16:42:46Z</time>
      </trkpt>
      <trkpt lat="43.377124" lon="-5.697676">
        <ele>211.4</ele>
        <time>2019-11-24T16:42:47Z</time>
      </trkpt>
      <trkpt lat="43.377181" lon="-5.697713">
        <ele>211.2</ele>
        <time>2019-11-24T16:42:48Z</time>
      </trkpt>
      <trkpt lat="43.377239" lon="-5.697747">
        <ele>210.6</ele>
        <time>2019-11-24T16:42:49Z</time>
      </trkpt>
      <trkpt lat="43.377298" lon="-5.697782">
        <ele>210.6</ele>
        <time>2019-11-24T16:42:50Z</time>
      </trkpt>
      <trkpt lat="43.377358" lon="-5.697819">
        <ele>210.4</ele>
        <time>2019-11-24T16:42:51Z</time>
      </trkpt>
      <trkpt lat="43.377421" lon="-5.697854">
        <ele>210</ele>
        <time>2019-11-24T16:42:52Z</time>
      </trkpt>
      <trkpt lat="43.377484" lon="-5.697889">
        <ele>209.8</ele>
        <time>2019-11-24T16:42:53Z</time>
      </trkpt>
      <trkpt lat="43.377548" lon="-5.697924">
        <ele>209.8</ele>
        <time>2019-11-24T16:42:54Z</time>
      </trkpt>
      <trkpt lat="43.377613" lon="-5.697959">
        <ele>209.2</ele>
        <time>2019-11-24T16:42:55Z</time>
      </trkpt>
      <trkpt lat="43.377679" lon="-5.697994">
        <ele>209</ele>
        <time>2019-11-24T16:42:56Z</time>
      </trkpt>
      <trkpt lat="43.377747" lon="-5.698029">
        <ele>208.6</ele>
        <time>2019-11-24T16:42:57Z</time>
      </trkpt>
      <trkpt lat="43.377817" lon="-5.698065">
        <ele>208.2</ele>
        <time>2019-11-24T16:42:58Z</time>
      </trkpt>
      <trkpt lat="43.377887" lon="-5.6981">
        <ele>207.6</ele>
        <time>2019-11-24T16:42:59Z</time>
      </trkpt>
      <trkpt lat="43.377957" lon="-5.698138">
        <ele>208</ele>
        <time>2019-11-24T16:43:00Z</time>
      </trkpt>
      <trkpt lat="43.378027" lon="-5.69818">
        <ele>207.6</ele>
        <time>2019-11-24T16:43:01Z</time>
      </trkpt>
      <trkpt lat="43.378097" lon="-5.698227">
        <ele>207</ele>
        <time>2019-11-24T16:43:02Z</time>
      </trkpt>
      <trkpt lat="43.378165" lon="-5.698282">
        <ele>206.6</ele>
        <time>2019-11-24T16:43:03Z</time>
      </trkpt>
      <trkpt lat="43.378233" lon="-5.698338">
        <ele>205.8</ele>
        <time>2019-11-24T16:43:04Z</time>
      </trkpt>
      <trkpt lat="43.378304" lon="-5.698392">
        <ele>205</ele>
        <time>2019-11-24T16:43:05Z</time>
      </trkpt>
      <trkpt lat="43.37838" lon="-5.698435">
        <ele>205</ele>
        <time>2019-11-24T16:43:06Z</time>
      </trkpt>
      <trkpt lat="43.378461" lon="-5.698462">
        <ele>204.2</ele>
        <time>2019-11-24T16:43:07Z</time>
      </trkpt>
      <trkpt lat="43.378545" lon="-5.698471">
        <ele>204.2</ele>
        <time>2019-11-24T16:43:08Z</time>
      </trkpt>
      <trkpt lat="43.378632" lon="-5.698462">
        <ele>204.4</ele>
        <time>2019-11-24T16:43:09Z</time>
      </trkpt>
      <trkpt lat="43.378722" lon="-5.698459">
        <ele>203.6</ele>
        <time>2019-11-24T16:43:10Z</time>
      </trkpt>
      <trkpt lat="43.37881" lon="-5.698477">
        <ele>202.8</ele>
        <time>2019-11-24T16:43:11Z</time>
      </trkpt>
      <trkpt lat="43.378893" lon="-5.698511">
        <ele>202.6</ele>
        <time>2019-11-24T16:43:12Z</time>
      </trkpt>
      <trkpt lat="43.378973" lon="-5.698548">
        <ele>202.6</ele>
        <time>2019-11-24T16:43:13Z</time>
      </trkpt>
      <trkpt lat="43.379054" lon="-5.698583">
        <ele>202</ele>
        <time>2019-11-24T16:43:14Z</time>
      </trkpt>
      <trkpt lat="43.379136" lon="-5.698618">
        <ele>202.2</ele>
        <time>2019-11-24T16:43:15Z</time>
      </trkpt>
      <trkpt lat="43.379219" lon="-5.698655">
        <ele>201.2</ele>
        <time>2019-11-24T16:43:16Z</time>
      </trkpt>
      <trkpt lat="43.379302" lon="-5.698692">
        <ele>200.4</ele>
        <time>2019-11-24T16:43:17Z</time>
      </trkpt>
      <trkpt lat="43.379388" lon="-5.698728">
        <ele>199.8</ele>
        <time>2019-11-24T16:43:18Z</time>
      </trkpt>
      <trkpt lat="43.379475" lon="-5.698766">
        <ele>199.4</ele>
        <time>2019-11-24T16:43:19Z</time>
      </trkpt>
      <trkpt lat="43.379561" lon="-5.698804">
        <ele>199.4</ele>
        <time>2019-11-24T16:43:20Z</time>
      </trkpt>
      <trkpt lat="43.379646" lon="-5.69884">
        <ele>198.6</ele>
        <time>2019-11-24T16:43:21Z</time>
      </trkpt>
      <trkpt lat="43.379731" lon="-5.698875">
        <ele>198.2</ele>
        <time>2019-11-24T16:43:22Z</time>
      </trkpt>
      <trkpt lat="43.379816" lon="-5.698903">
        <ele>198</ele>
        <time>2019-11-24T16:43:23Z</time>
      </trkpt>
      <trkpt lat="43.379901" lon="-5.698927">
        <ele>197.8</ele>
        <time>2019-11-24T16:43:24Z</time>
      </trkpt>
      <trkpt lat="43.379986" lon="-5.698959">
        <ele>197.8</ele>
        <time>2019-11-24T16:43:25Z</time>
      </trkpt>
      <trkpt lat="43.380069" lon="-5.699001">
        <ele>197.2</ele>
        <time>2019-11-24T16:43:26Z</time>
      </trkpt>
      <trkpt lat="43.380152" lon="-5.699047">
        <ele>196.6</ele>
        <time>2019-11-24T16:43:27Z</time>
      </trkpt>
      <trkpt lat="43.380234" lon="-5.69909">
        <ele>196.2</ele>
        <time>2019-11-24T16:43:28Z</time>
      </trkpt>
      <trkpt lat="43.380318" lon="-5.699132">
        <ele>197.6</ele>
        <time>2019-11-24T16:43:29Z</time>
      </trkpt>
      <trkpt lat="43.380402" lon="-5.699173">
        <ele>195.8</ele>
        <time>2019-11-24T16:43:30Z</time>
      </trkpt>
      <trkpt lat="43.380488" lon="-5.69921">
        <ele>194.6</ele>
        <time>2019-11-24T16:43:31Z</time>
      </trkpt>
      <trkpt lat="43.380573" lon="-5.699246">
        <ele>194.6</ele>
        <time>2019-11-24T16:43:32Z</time>
      </trkpt>
      <trkpt lat="43.380655" lon="-5.699281">
        <ele>194</ele>
        <time>2019-11-24T16:43:33Z</time>
      </trkpt>
      <trkpt lat="43.380737" lon="-5.699314">
        <ele>194.8</ele>
        <time>2019-11-24T16:43:34Z</time>
      </trkpt>
      <trkpt lat="43.380818" lon="-5.699347">
        <ele>194.4</ele>
        <time>2019-11-24T16:43:35Z</time>
      </trkpt>
      <trkpt lat="43.380899" lon="-5.699382">
        <ele>194.2</ele>
        <time>2019-11-24T16:43:36Z</time>
      </trkpt>
      <trkpt lat="43.38098" lon="-5.699415">
        <ele>194.2</ele>
        <time>2019-11-24T16:43:37Z</time>
      </trkpt>
      <trkpt lat="43.381058" lon="-5.699447">
        <ele>194.6</ele>
        <time>2019-11-24T16:43:38Z</time>
      </trkpt>
      <trkpt lat="43.381132" lon="-5.69948">
        <ele>194.6</ele>
        <time>2019-11-24T16:43:39Z</time>
      </trkpt>
      <trkpt lat="43.381204" lon="-5.699509">
        <ele>194.8</ele>
        <time>2019-11-24T16:43:40Z</time>
      </trkpt>
      <trkpt lat="43.381273" lon="-5.699538">
        <ele>195.4</ele>
        <time>2019-11-24T16:43:41Z</time>
      </trkpt>
      <trkpt lat="43.381341" lon="-5.699569">
        <ele>196</ele>
        <time>2019-11-24T16:43:42Z</time>
      </trkpt>
      <trkpt lat="43.381406" lon="-5.699601">
        <ele>196.2</ele>
        <time>2019-11-24T16:43:43Z</time>
      </trkpt>
      <trkpt lat="43.381469" lon="-5.699634">
        <ele>195.8</ele>
        <time>2019-11-24T16:43:44Z</time>
      </trkpt>
      <trkpt lat="43.381529" lon="-5.699672">
        <ele>195.8</ele>
        <time>2019-11-24T16:43:45Z</time>
      </trkpt>
      <trkpt lat="43.381582" lon="-5.699714">
        <ele>196</ele>
        <time>2019-11-24T16:43:46Z</time>
      </trkpt>
      <trkpt lat="43.381628" lon="-5.699762">
        <ele>196.8</ele>
        <time>2019-11-24T16:43:47Z</time>
      </trkpt>
      <trkpt lat="43.381668" lon="-5.699814">
        <ele>197</ele>
        <time>2019-11-24T16:43:48Z</time>
      </trkpt>
      <trkpt lat="43.381706" lon="-5.699869">
        <ele>197.4</ele>
        <time>2019-11-24T16:43:49Z</time>
      </trkpt>
      <trkpt lat="43.381744" lon="-5.69992">
        <ele>198.2</ele>
        <time>2019-11-24T16:43:50Z</time>
      </trkpt>
      <trkpt lat="43.381784" lon="-5.699958">
        <ele>198.4</ele>
        <time>2019-11-24T16:43:51Z</time>
      </trkpt>
      <trkpt lat="43.381828" lon="-5.699985">
        <ele>199.6</ele>
        <time>2019-11-24T16:43:52Z</time>
      </trkpt>
      <trkpt lat="43.381875" lon="-5.700004">
        <ele>200</ele>
        <time>2019-11-24T16:43:53Z</time>
      </trkpt>
      <trkpt lat="43.381923" lon="-5.70002">
        <ele>200.4</ele>
        <time>2019-11-24T16:43:54Z</time>
      </trkpt>
      <trkpt lat="43.381969" lon="-5.700037">
        <ele>200.8</ele>
        <time>2019-11-24T16:43:55Z</time>
      </trkpt>
      <trkpt lat="43.382015" lon="-5.700049">
        <ele>201</ele>
        <time>2019-11-24T16:43:56Z</time>
      </trkpt>
      <trkpt lat="43.38206" lon="-5.700062">
        <ele>201.6</ele>
        <time>2019-11-24T16:43:57Z</time>
      </trkpt>
      <trkpt lat="43.382103" lon="-5.700077">
        <ele>201.4</ele>
        <time>2019-11-24T16:43:58Z</time>
      </trkpt>
      <trkpt lat="43.382145" lon="-5.70009">
        <ele>202.6</ele>
        <time>2019-11-24T16:43:59Z</time>
      </trkpt>
      <trkpt lat="43.382184" lon="-5.700103">
        <ele>202.8</ele>
        <time>2019-11-24T16:44:00Z</time>
      </trkpt>
      <trkpt lat="43.382224" lon="-5.700117">
        <ele>203.4</ele>
        <time>2019-11-24T16:44:01Z</time>
      </trkpt>
      <trkpt lat="43.382264" lon="-5.700132">
        <ele>203.4</ele>
        <time>2019-11-24T16:44:02Z</time>
      </trkpt>
      <trkpt lat="43.382303" lon="-5.700147">
        <ele>203.6</ele>
        <time>2019-11-24T16:44:03Z</time>
      </trkpt>
      <trkpt lat="43.382344" lon="-5.700162">
        <ele>203.8</ele>
        <time>2019-11-24T16:44:04Z</time>
      </trkpt>
      <trkpt lat="43.382384" lon="-5.700176">
        <ele>204.6</ele>
        <time>2019-11-24T16:44:05Z</time>
      </trkpt>
      <trkpt lat="43.382427" lon="-5.70019">
        <ele>204.4</ele>
        <time>2019-11-24T16:44:06Z</time>
      </trkpt>
      <trkpt lat="43.382471" lon="-5.700206">
        <ele>204</ele>
        <time>2019-11-24T16:44:07Z</time>
      </trkpt>
      <trkpt lat="43.382516" lon="-5.700222">
        <ele>204.2</ele>
        <time>2019-11-24T16:44:08Z</time>
      </trkpt>
      <trkpt lat="43.382562" lon="-5.700239">
        <ele>204.4</ele>
        <time>2019-11-24T16:44:09Z</time>
      </trkpt>
      <trkpt lat="43.382609" lon="-5.700257">
        <ele>204.4</ele>
        <time>2019-11-24T16:44:10Z</time>
      </trkpt>
      <trkpt lat="43.382657" lon="-5.700275">
        <ele>204.8</ele>
        <time>2019-11-24T16:44:11Z</time>
      </trkpt>
      <trkpt lat="43.382707" lon="-5.700294">
        <ele>204.2</ele>
        <time>2019-11-24T16:44:12Z</time>
      </trkpt>
      <trkpt lat="43.382758" lon="-5.700315">
        <ele>204.4</ele>
        <time>2019-11-24T16:44:13Z</time>
      </trkpt>
      <trkpt lat="43.382812" lon="-5.700337">
        <ele>203.2</ele>
        <time>2019-11-24T16:44:14Z</time>
      </trkpt>
      <trkpt lat="43.382868" lon="-5.700359">
        <ele>203.6</ele>
        <time>2019-11-24T16:44:15Z</time>
      </trkpt>
      <trkpt lat="43.382926" lon="-5.700382">
        <ele>202.8</ele>
        <time>2019-11-24T16:44:16Z</time>
      </trkpt>
      <trkpt lat="43.382987" lon="-5.700408">
        <ele>203</ele>
        <time>2019-11-24T16:44:17Z</time>
      </trkpt>
      <trkpt lat="43.383051" lon="-5.700436">
        <ele>202.2</ele>
        <time>2019-11-24T16:44:18Z</time>
      </trkpt>
      <trkpt lat="43.383118" lon="-5.700463">
        <ele>201.4</ele>
        <time>2019-11-24T16:44:19Z</time>
      </trkpt>
      <trkpt lat="43.383189" lon="-5.700491">
        <ele>201.4</ele>
        <time>2019-11-24T16:44:20Z</time>
      </trkpt>
      <trkpt lat="43.383262" lon="-5.700516">
        <ele>200.8</ele>
        <time>2019-11-24T16:44:21Z</time>
      </trkpt>
      <trkpt lat="43.383336" lon="-5.700539">
        <ele>200.6</ele>
        <time>2019-11-24T16:44:22Z</time>
      </trkpt>
      <trkpt lat="43.383411" lon="-5.700557">
        <ele>200.4</ele>
        <time>2019-11-24T16:44:23Z</time>
      </trkpt>
      <trkpt lat="43.383486" lon="-5.700572">
        <ele>200.2</ele>
        <time>2019-11-24T16:44:24Z</time>
      </trkpt>
      <trkpt lat="43.383559" lon="-5.700585">
        <ele>200</ele>
        <time>2019-11-24T16:44:25Z</time>
      </trkpt>
      <trkpt lat="43.38363" lon="-5.700598">
        <ele>200.4</ele>
        <time>2019-11-24T16:44:26Z</time>
      </trkpt>
      <trkpt lat="43.383698" lon="-5.700613">
        <ele>201.4</ele>
        <time>2019-11-24T16:44:27Z</time>
      </trkpt>
      <trkpt lat="43.383764" lon="-5.700629">
        <ele>201.8</ele>
        <time>2019-11-24T16:44:28Z</time>
      </trkpt>
      <trkpt lat="43.383827" lon="-5.700647">
        <ele>202</ele>
        <time>2019-11-24T16:44:29Z</time>
      </trkpt>
      <trkpt lat="43.38389" lon="-5.700666">
        <ele>202.6</ele>
        <time>2019-11-24T16:44:30Z</time>
      </trkpt>
      <trkpt lat="43.38395" lon="-5.700687">
        <ele>203.6</ele>
        <time>2019-11-24T16:44:31Z</time>
      </trkpt>
      <trkpt lat="43.384009" lon="-5.700708">
        <ele>203</ele>
        <time>2019-11-24T16:44:32Z</time>
      </trkpt>
      <trkpt lat="43.384067" lon="-5.700729">
        <ele>203</ele>
        <time>2019-11-24T16:44:33Z</time>
      </trkpt>
      <trkpt lat="43.384123" lon="-5.700751">
        <ele>203.6</ele>
        <time>2019-11-24T16:44:34Z</time>
      </trkpt>
      <trkpt lat="43.384178" lon="-5.700774">
        <ele>204.4</ele>
        <time>2019-11-24T16:44:35Z</time>
      </trkpt>
      <trkpt lat="43.384232" lon="-5.700798">
        <ele>204</ele>
        <time>2019-11-24T16:44:36Z</time>
      </trkpt>
      <trkpt lat="43.384286" lon="-5.700822">
        <ele>204.6</ele>
        <time>2019-11-24T16:44:37Z</time>
      </trkpt>
      <trkpt lat="43.384339" lon="-5.700843">
        <ele>204.6</ele>
        <time>2019-11-24T16:44:38Z</time>
      </trkpt>
      <trkpt lat="43.384391" lon="-5.700866">
        <ele>204.8</ele>
        <time>2019-11-24T16:44:39Z</time>
      </trkpt>
      <trkpt lat="43.384442" lon="-5.700889">
        <ele>204.4</ele>
        <time>2019-11-24T16:44:40Z</time>
      </trkpt>
      <trkpt lat="43.384491" lon="-5.700911">
        <ele>204.8</ele>
        <time>2019-11-24T16:44:41Z</time>
      </trkpt>
      <trkpt lat="43.384538" lon="-5.700933">
        <ele>205.6</ele>
        <time>2019-11-24T16:44:42Z</time>
      </trkpt>
      <trkpt lat="43.384585" lon="-5.700953">
        <ele>205.8</ele>
        <time>2019-11-24T16:44:43Z</time>
      </trkpt>
      <trkpt lat="43.384631" lon="-5.700974">
        <ele>206</ele>
        <time>2019-11-24T16:44:44Z</time>
      </trkpt>
      <trkpt lat="43.384675" lon="-5.700996">
        <ele>206.8</ele>
        <time>2019-11-24T16:44:45Z</time>
      </trkpt>
      <trkpt lat="43.384716" lon="-5.701014">
        <ele>206.8</ele>
        <time>2019-11-24T16:44:46Z</time>
      </trkpt>
      <trkpt lat="43.384755" lon="-5.701031">
        <ele>206.8</ele>
        <time>2019-11-24T16:44:47Z</time>
      </trkpt>
      <trkpt lat="43.384791" lon="-5.701045">
        <ele>207.2</ele>
        <time>2019-11-24T16:44:48Z</time>
      </trkpt>
      <trkpt lat="43.384825" lon="-5.701058">
        <ele>207.2</ele>
        <time>2019-11-24T16:44:49Z</time>
      </trkpt>
      <trkpt lat="43.384856" lon="-5.701065">
        <ele>207.6</ele>
        <time>2019-11-24T16:44:50Z</time>
      </trkpt>
      <trkpt lat="43.384884" lon="-5.701071">
        <ele>207.8</ele>
        <time>2019-11-24T16:44:51Z</time>
      </trkpt>
      <trkpt lat="43.384909" lon="-5.701084">
        <ele>208</ele>
        <time>2019-11-24T16:44:52Z</time>
      </trkpt>
      <trkpt lat="43.384932" lon="-5.701094">
        <ele>208.4</ele>
        <time>2019-11-24T16:44:53Z</time>
      </trkpt>
      <trkpt lat="43.384949" lon="-5.701101">
        <ele>208.4</ele>
        <time>2019-11-24T16:44:54Z</time>
      </trkpt>
      <trkpt lat="43.384965" lon="-5.701107">
        <ele>208.4</ele>
        <time>2019-11-24T16:44:55Z</time>
      </trkpt>
      <trkpt lat="43.384977" lon="-5.701113">
        <ele>208.4</ele>
        <time>2019-11-24T16:44:56Z</time>
      </trkpt>
      <trkpt lat="43.384985" lon="-5.701118">
        <ele>208.6</ele>
        <time>2019-11-24T16:44:57Z</time>
      </trkpt>
      <trkpt lat="43.384989" lon="-5.701122">
        <ele>208.6</ele>
        <time>2019-11-24T16:44:58Z</time>
      </trkpt>
      <trkpt lat="43.38499" lon="-5.701129">
        <ele>208.8</ele>
        <time>2019-11-24T16:44:59Z</time>
      </trkpt>
      <trkpt lat="43.385015" lon="-5.701155">
        <ele>208.8</ele>
        <time>2019-11-24T16:45:13Z</time>
      </trkpt>
      <trkpt lat="43.385033" lon="-5.701162">
        <ele>208.6</ele>
        <time>2019-11-24T16:45:14Z</time>
      </trkpt>
      <trkpt lat="43.385056" lon="-5.701171">
        <ele>209</ele>
        <time>2019-11-24T16:45:15Z</time>
      </trkpt>
      <trkpt lat="43.385084" lon="-5.701183">
        <ele>209.2</ele>
        <time>2019-11-24T16:45:16Z</time>
      </trkpt>
      <trkpt lat="43.385117" lon="-5.701195">
        <ele>209.4</ele>
        <time>2019-11-24T16:45:17Z</time>
      </trkpt>
      <trkpt lat="43.385155" lon="-5.701209">
        <ele>209.4</ele>
        <time>2019-11-24T16:45:18Z</time>
      </trkpt>
      <trkpt lat="43.385194" lon="-5.701225">
        <ele>209.6</ele>
        <time>2019-11-24T16:45:19Z</time>
      </trkpt>
      <trkpt lat="43.385233" lon="-5.701242">
        <ele>209.2</ele>
        <time>2019-11-24T16:45:20Z</time>
      </trkpt>
      <trkpt lat="43.38527" lon="-5.701258">
        <ele>209.4</ele>
        <time>2019-11-24T16:45:21Z</time>
      </trkpt>
      <trkpt lat="43.385307" lon="-5.701273">
        <ele>209.6</ele>
        <time>2019-11-24T16:45:22Z</time>
      </trkpt>
      <trkpt lat="43.385345" lon="-5.701289">
        <ele>209.2</ele>
        <time>2019-11-24T16:45:23Z</time>
      </trkpt>
      <trkpt lat="43.385385" lon="-5.701307">
        <ele>209</ele>
        <time>2019-11-24T16:45:24Z</time>
      </trkpt>
      <trkpt lat="43.385425" lon="-5.701321">
        <ele>209.4</ele>
        <time>2019-11-24T16:45:25Z</time>
      </trkpt>
      <trkpt lat="43.385472" lon="-5.701344">
        <ele>209.2</ele>
        <time>2019-11-24T16:45:26Z</time>
      </trkpt>
      <trkpt lat="43.385523" lon="-5.701369">
        <ele>209.6</ele>
        <time>2019-11-24T16:45:27Z</time>
      </trkpt>
      <trkpt lat="43.385576" lon="-5.701397">
        <ele>209.6</ele>
        <time>2019-11-24T16:45:28Z</time>
      </trkpt>
      <trkpt lat="43.38563" lon="-5.701423">
        <ele>209.4</ele>
        <time>2019-11-24T16:45:29Z</time>
      </trkpt>
      <trkpt lat="43.385685" lon="-5.701446">
        <ele>209.4</ele>
        <time>2019-11-24T16:45:30Z</time>
      </trkpt>
      <trkpt lat="43.38575" lon="-5.701458">
        <ele>209.4</ele>
        <time>2019-11-24T16:45:31Z</time>
      </trkpt>
      <trkpt lat="43.385809" lon="-5.701477">
        <ele>209.4</ele>
        <time>2019-11-24T16:45:32Z</time>
      </trkpt>
      <trkpt lat="43.385855" lon="-5.701514">
        <ele>209.2</ele>
        <time>2019-11-24T16:45:33Z</time>
      </trkpt>
      <trkpt lat="43.3859" lon="-5.70156">
        <ele>209.6</ele>
        <time>2019-11-24T16:45:34Z</time>
      </trkpt>
      <trkpt lat="43.385929" lon="-5.701624">
        <ele>209.4</ele>
        <time>2019-11-24T16:45:35Z</time>
      </trkpt>
      <trkpt lat="43.385947" lon="-5.701694">
        <ele>209.4</ele>
        <time>2019-11-24T16:45:36Z</time>
      </trkpt>
      <trkpt lat="43.385952" lon="-5.701771">
        <ele>209.4</ele>
        <time>2019-11-24T16:45:37Z</time>
      </trkpt>
      <trkpt lat="43.385949" lon="-5.701849">
        <ele>209.4</ele>
        <time>2019-11-24T16:45:38Z</time>
      </trkpt>
      <trkpt lat="43.38594" lon="-5.70193">
        <ele>209.4</ele>
        <time>2019-11-24T16:45:39Z</time>
      </trkpt>
      <trkpt lat="43.385928" lon="-5.702013">
        <ele>209.4</ele>
        <time>2019-11-24T16:45:40Z</time>
      </trkpt>
      <trkpt lat="43.385917" lon="-5.7021">
        <ele>209.8</ele>
        <time>2019-11-24T16:45:41Z</time>
      </trkpt>
      <trkpt lat="43.385905" lon="-5.702189">
        <ele>209.6</ele>
        <time>2019-11-24T16:45:42Z</time>
      </trkpt>
      <trkpt lat="43.385893" lon="-5.702283">
        <ele>209.8</ele>
        <time>2019-11-24T16:45:43Z</time>
      </trkpt>
      <trkpt lat="43.385881" lon="-5.702379">
        <ele>209.8</ele>
        <time>2019-11-24T16:45:44Z</time>
      </trkpt>
      <trkpt lat="43.38587" lon="-5.702475">
        <ele>209.8</ele>
        <time>2019-11-24T16:45:45Z</time>
      </trkpt>
      <trkpt lat="43.385861" lon="-5.702573">
        <ele>210</ele>
        <time>2019-11-24T16:45:46Z</time>
      </trkpt>
      <trkpt lat="43.385852" lon="-5.702675">
        <ele>210</ele>
        <time>2019-11-24T16:45:47Z</time>
      </trkpt>
      <trkpt lat="43.385842" lon="-5.702776">
        <ele>210.2</ele>
        <time>2019-11-24T16:45:48Z</time>
      </trkpt>
      <trkpt lat="43.385832" lon="-5.702874">
        <ele>210.6</ele>
        <time>2019-11-24T16:45:49Z</time>
      </trkpt>
      <trkpt lat="43.385819" lon="-5.702972">
        <ele>210.8</ele>
        <time>2019-11-24T16:45:50Z</time>
      </trkpt>
      <trkpt lat="43.385805" lon="-5.70307">
        <ele>210.6</ele>
        <time>2019-11-24T16:45:51Z</time>
      </trkpt>
      <trkpt lat="43.38579" lon="-5.703163">
        <ele>211.2</ele>
        <time>2019-11-24T16:45:52Z</time>
      </trkpt>
      <trkpt lat="43.385773" lon="-5.703253">
        <ele>211.4</ele>
        <time>2019-11-24T16:45:53Z</time>
      </trkpt>
      <trkpt lat="43.385755" lon="-5.703341">
        <ele>212</ele>
        <time>2019-11-24T16:45:54Z</time>
      </trkpt>
      <trkpt lat="43.385736" lon="-5.703429">
        <ele>212</ele>
        <time>2019-11-24T16:45:55Z</time>
      </trkpt>
      <trkpt lat="43.385715" lon="-5.703515">
        <ele>212</ele>
        <time>2019-11-24T16:45:56Z</time>
      </trkpt>
      <trkpt lat="43.385693" lon="-5.7036">
        <ele>212.2</ele>
        <time>2019-11-24T16:45:57Z</time>
      </trkpt>
      <trkpt lat="43.38567" lon="-5.703684">
        <ele>212.8</ele>
        <time>2019-11-24T16:45:58Z</time>
      </trkpt>
      <trkpt lat="43.385647" lon="-5.703767">
        <ele>212.6</ele>
        <time>2019-11-24T16:45:59Z</time>
      </trkpt>
      <trkpt lat="43.385624" lon="-5.703848">
        <ele>212.8</ele>
        <time>2019-11-24T16:46:00Z</time>
      </trkpt>
      <trkpt lat="43.3856" lon="-5.703928">
        <ele>213</ele>
        <time>2019-11-24T16:46:01Z</time>
      </trkpt>
      <trkpt lat="43.385575" lon="-5.704006">
        <ele>213.2</ele>
        <time>2019-11-24T16:46:02Z</time>
      </trkpt>
      <trkpt lat="43.385551" lon="-5.704083">
        <ele>213.8</ele>
        <time>2019-11-24T16:46:03Z</time>
      </trkpt>
      <trkpt lat="43.385526" lon="-5.70416">
        <ele>214</ele>
        <time>2019-11-24T16:46:04Z</time>
      </trkpt>
      <trkpt lat="43.385501" lon="-5.704235">
        <ele>213.8</ele>
        <time>2019-11-24T16:46:05Z</time>
      </trkpt>
      <trkpt lat="43.385476" lon="-5.70431">
        <ele>214.4</ele>
        <time>2019-11-24T16:46:06Z</time>
      </trkpt>
      <trkpt lat="43.385452" lon="-5.704385">
        <ele>214.6</ele>
        <time>2019-11-24T16:46:07Z</time>
      </trkpt>
      <trkpt lat="43.385427" lon="-5.704461">
        <ele>214.4</ele>
        <time>2019-11-24T16:46:08Z</time>
      </trkpt>
      <trkpt lat="43.385401" lon="-5.704537">
        <ele>214.8</ele>
        <time>2019-11-24T16:46:09Z</time>
      </trkpt>
      <trkpt lat="43.385375" lon="-5.704612">
        <ele>215.2</ele>
        <time>2019-11-24T16:46:10Z</time>
      </trkpt>
      <trkpt lat="43.385349" lon="-5.704684">
        <ele>215.2</ele>
        <time>2019-11-24T16:46:11Z</time>
      </trkpt>
      <trkpt lat="43.385321" lon="-5.704757">
        <ele>215.6</ele>
        <time>2019-11-24T16:46:12Z</time>
      </trkpt>
      <trkpt lat="43.385296" lon="-5.704829">
        <ele>215.2</ele>
        <time>2019-11-24T16:46:13Z</time>
      </trkpt>
      <trkpt lat="43.38527" lon="-5.704903">
        <ele>215.4</ele>
        <time>2019-11-24T16:46:14Z</time>
      </trkpt>
      <trkpt lat="43.385245" lon="-5.704977">
        <ele>215.4</ele>
        <time>2019-11-24T16:46:15Z</time>
      </trkpt>
      <trkpt lat="43.385222" lon="-5.705052">
        <ele>215.6</ele>
        <time>2019-11-24T16:46:16Z</time>
      </trkpt>
      <trkpt lat="43.385198" lon="-5.705127">
        <ele>215.4</ele>
        <time>2019-11-24T16:46:17Z</time>
      </trkpt>
      <trkpt lat="43.385173" lon="-5.705202">
        <ele>215.4</ele>
        <time>2019-11-24T16:46:18Z</time>
      </trkpt>
      <trkpt lat="43.385147" lon="-5.705277">
        <ele>215.6</ele>
        <time>2019-11-24T16:46:19Z</time>
      </trkpt>
      <trkpt lat="43.385122" lon="-5.705354">
        <ele>215.4</ele>
        <time>2019-11-24T16:46:20Z</time>
      </trkpt>
      <trkpt lat="43.385098" lon="-5.705432">
        <ele>215.6</ele>
        <time>2019-11-24T16:46:21Z</time>
      </trkpt>
      <trkpt lat="43.385074" lon="-5.705513">
        <ele>215.6</ele>
        <time>2019-11-24T16:46:22Z</time>
      </trkpt>
      <trkpt lat="43.38505" lon="-5.705595">
        <ele>215.2</ele>
        <time>2019-11-24T16:46:23Z</time>
      </trkpt>
      <trkpt lat="43.385025" lon="-5.705677">
        <ele>215.4</ele>
        <time>2019-11-24T16:46:24Z</time>
      </trkpt>
      <trkpt lat="43.385002" lon="-5.705762">
        <ele>215.4</ele>
        <time>2019-11-24T16:46:25Z</time>
      </trkpt>
      <trkpt lat="43.384977" lon="-5.705849">
        <ele>215.2</ele>
        <time>2019-11-24T16:46:26Z</time>
      </trkpt>
      <trkpt lat="43.384952" lon="-5.705938">
        <ele>215.2</ele>
        <time>2019-11-24T16:46:27Z</time>
      </trkpt>
      <trkpt lat="43.384928" lon="-5.706031">
        <ele>215</ele>
        <time>2019-11-24T16:46:28Z</time>
      </trkpt>
      <trkpt lat="43.384906" lon="-5.706127">
        <ele>214.2</ele>
        <time>2019-11-24T16:46:29Z</time>
      </trkpt>
      <trkpt lat="43.384886" lon="-5.706227">
        <ele>214</ele>
        <time>2019-11-24T16:46:30Z</time>
      </trkpt>
      <trkpt lat="43.384867" lon="-5.706329">
        <ele>213.4</ele>
        <time>2019-11-24T16:46:31Z</time>
      </trkpt>
      <trkpt lat="43.384849" lon="-5.706434">
        <ele>212.6</ele>
        <time>2019-11-24T16:46:32Z</time>
      </trkpt>
      <trkpt lat="43.384833" lon="-5.706542">
        <ele>212.6</ele>
        <time>2019-11-24T16:46:33Z</time>
      </trkpt>
      <trkpt lat="43.384821" lon="-5.706651">
        <ele>212.4</ele>
        <time>2019-11-24T16:46:34Z</time>
      </trkpt>
      <trkpt lat="43.384812" lon="-5.706763">
        <ele>212</ele>
        <time>2019-11-24T16:46:35Z</time>
      </trkpt>
      <trkpt lat="43.384806" lon="-5.706876">
        <ele>211.4</ele>
        <time>2019-11-24T16:46:36Z</time>
      </trkpt>
      <trkpt lat="43.384805" lon="-5.706991">
        <ele>211.4</ele>
        <time>2019-11-24T16:46:37Z</time>
      </trkpt>
      <trkpt lat="43.384806" lon="-5.707106">
        <ele>211</ele>
        <time>2019-11-24T16:46:38Z</time>
      </trkpt>
      <trkpt lat="43.38481" lon="-5.707222">
        <ele>210.8</ele>
        <time>2019-11-24T16:46:39Z</time>
      </trkpt>
      <trkpt lat="43.384816" lon="-5.707338">
        <ele>210.6</ele>
        <time>2019-11-24T16:46:40Z</time>
      </trkpt>
      <trkpt lat="43.384826" lon="-5.707452">
        <ele>210.6</ele>
        <time>2019-11-24T16:46:41Z</time>
      </trkpt>
      <trkpt lat="43.384838" lon="-5.707564">
        <ele>210.4</ele>
        <time>2019-11-24T16:46:42Z</time>
      </trkpt>
      <trkpt lat="43.384852" lon="-5.707675">
        <ele>210.4</ele>
        <time>2019-11-24T16:46:43Z</time>
      </trkpt>
      <trkpt lat="43.384867" lon="-5.707784">
        <ele>210.4</ele>
        <time>2019-11-24T16:46:44Z</time>
      </trkpt>
      <trkpt lat="43.384884" lon="-5.707892">
        <ele>210.4</ele>
        <time>2019-11-24T16:46:45Z</time>
      </trkpt>
      <trkpt lat="43.384902" lon="-5.707998">
        <ele>210.2</ele>
        <time>2019-11-24T16:46:46Z</time>
      </trkpt>
      <trkpt lat="43.384923" lon="-5.708104">
        <ele>210</ele>
        <time>2019-11-24T16:46:47Z</time>
      </trkpt>
      <trkpt lat="43.384943" lon="-5.708209">
        <ele>210.2</ele>
        <time>2019-11-24T16:46:48Z</time>
      </trkpt>
      <trkpt lat="43.384961" lon="-5.708315">
        <ele>210.4</ele>
        <time>2019-11-24T16:46:49Z</time>
      </trkpt>
      <trkpt lat="43.384979" lon="-5.70842">
        <ele>210.2</ele>
        <time>2019-11-24T16:46:50Z</time>
      </trkpt>
      <trkpt lat="43.384998" lon="-5.708524">
        <ele>210.4</ele>
        <time>2019-11-24T16:46:51Z</time>
      </trkpt>
      <trkpt lat="43.385017" lon="-5.708627">
        <ele>210</ele>
        <time>2019-11-24T16:46:52Z</time>
      </trkpt>
      <trkpt lat="43.385035" lon="-5.708729">
        <ele>210.4</ele>
        <time>2019-11-24T16:46:53Z</time>
      </trkpt>
      <trkpt lat="43.385052" lon="-5.708831">
        <ele>210.4</ele>
        <time>2019-11-24T16:46:54Z</time>
      </trkpt>
      <trkpt lat="43.38507" lon="-5.708934">
        <ele>210.6</ele>
        <time>2019-11-24T16:46:55Z</time>
      </trkpt>
      <trkpt lat="43.38509" lon="-5.709037">
        <ele>210.6</ele>
        <time>2019-11-24T16:46:56Z</time>
      </trkpt>
      <trkpt lat="43.385108" lon="-5.709138">
        <ele>210.4</ele>
        <time>2019-11-24T16:46:57Z</time>
      </trkpt>
      <trkpt lat="43.385125" lon="-5.709238">
        <ele>210.2</ele>
        <time>2019-11-24T16:46:58Z</time>
      </trkpt>
      <trkpt lat="43.385143" lon="-5.70934">
        <ele>210.2</ele>
        <time>2019-11-24T16:46:59Z</time>
      </trkpt>
      <trkpt lat="43.38516" lon="-5.709442">
        <ele>210.2</ele>
        <time>2019-11-24T16:47:00Z</time>
      </trkpt>
      <trkpt lat="43.385178" lon="-5.709543">
        <ele>210.8</ele>
        <time>2019-11-24T16:47:01Z</time>
      </trkpt>
      <trkpt lat="43.385197" lon="-5.709646">
        <ele>211</ele>
        <time>2019-11-24T16:47:02Z</time>
      </trkpt>
      <trkpt lat="43.385216" lon="-5.709749">
        <ele>211</ele>
        <time>2019-11-24T16:47:03Z</time>
      </trkpt>
      <trkpt lat="43.385236" lon="-5.709852">
        <ele>211.4</ele>
        <time>2019-11-24T16:47:04Z</time>
      </trkpt>
      <trkpt lat="43.385255" lon="-5.709957">
        <ele>210.8</ele>
        <time>2019-11-24T16:47:05Z</time>
      </trkpt>
      <trkpt lat="43.385274" lon="-5.710061">
        <ele>210.6</ele>
        <time>2019-11-24T16:47:06Z</time>
      </trkpt>
      <trkpt lat="43.385293" lon="-5.710165">
        <ele>210.8</ele>
        <time>2019-11-24T16:47:07Z</time>
      </trkpt>
      <trkpt lat="43.385312" lon="-5.710268">
        <ele>211</ele>
        <time>2019-11-24T16:47:08Z</time>
      </trkpt>
      <trkpt lat="43.38533" lon="-5.710372">
        <ele>211</ele>
        <time>2019-11-24T16:47:09Z</time>
      </trkpt>
      <trkpt lat="43.385348" lon="-5.710477">
        <ele>210.8</ele>
        <time>2019-11-24T16:47:10Z</time>
      </trkpt>
      <trkpt lat="43.385366" lon="-5.710583">
        <ele>211.4</ele>
        <time>2019-11-24T16:47:11Z</time>
      </trkpt>
      <trkpt lat="43.385386" lon="-5.71069">
        <ele>210.6</ele>
        <time>2019-11-24T16:47:12Z</time>
      </trkpt>
      <trkpt lat="43.385406" lon="-5.710797">
        <ele>210.8</ele>
        <time>2019-11-24T16:47:13Z</time>
      </trkpt>
      <trkpt lat="43.385425" lon="-5.710904">
        <ele>211.4</ele>
        <time>2019-11-24T16:47:14Z</time>
      </trkpt>
      <trkpt lat="43.385444" lon="-5.71101">
        <ele>211</ele>
        <time>2019-11-24T16:47:15Z</time>
      </trkpt>
      <trkpt lat="43.385463" lon="-5.711116">
        <ele>211</ele>
        <time>2019-11-24T16:47:16Z</time>
      </trkpt>
      <trkpt lat="43.385481" lon="-5.711221">
        <ele>210.8</ele>
        <time>2019-11-24T16:47:17Z</time>
      </trkpt>
      <trkpt lat="43.3855" lon="-5.711328">
        <ele>211.4</ele>
        <time>2019-11-24T16:47:18Z</time>
      </trkpt>
      <trkpt lat="43.385519" lon="-5.711434">
        <ele>211.4</ele>
        <time>2019-11-24T16:47:19Z</time>
      </trkpt>
      <trkpt lat="43.385537" lon="-5.711541">
        <ele>211.4</ele>
        <time>2019-11-24T16:47:20Z</time>
      </trkpt>
      <trkpt lat="43.385553" lon="-5.711647">
        <ele>211.6</ele>
        <time>2019-11-24T16:47:21Z</time>
      </trkpt>
      <trkpt lat="43.385569" lon="-5.711752">
        <ele>211.4</ele>
        <time>2019-11-24T16:47:22Z</time>
      </trkpt>
      <trkpt lat="43.385585" lon="-5.711855">
        <ele>211.4</ele>
        <time>2019-11-24T16:47:23Z</time>
      </trkpt>
      <trkpt lat="43.3856" lon="-5.711956">
        <ele>211.8</ele>
        <time>2019-11-24T16:47:24Z</time>
      </trkpt>
      <trkpt lat="43.385614" lon="-5.712056">
        <ele>211.6</ele>
        <time>2019-11-24T16:47:25Z</time>
      </trkpt>
      <trkpt lat="43.385627" lon="-5.712156">
        <ele>211.4</ele>
        <time>2019-11-24T16:47:26Z</time>
      </trkpt>
      <trkpt lat="43.385639" lon="-5.712256">
        <ele>212</ele>
        <time>2019-11-24T16:47:27Z</time>
      </trkpt>
      <trkpt lat="43.38565" lon="-5.712356">
        <ele>212</ele>
        <time>2019-11-24T16:47:28Z</time>
      </trkpt>
      <trkpt lat="43.38566" lon="-5.712458">
        <ele>212.4</ele>
        <time>2019-11-24T16:47:29Z</time>
      </trkpt>
      <trkpt lat="43.385669" lon="-5.712559">
        <ele>212.4</ele>
        <time>2019-11-24T16:47:30Z</time>
      </trkpt>
      <trkpt lat="43.385678" lon="-5.712661">
        <ele>212.6</ele>
        <time>2019-11-24T16:47:31Z</time>
      </trkpt>
      <trkpt lat="43.385686" lon="-5.712764">
        <ele>213</ele>
        <time>2019-11-24T16:47:32Z</time>
      </trkpt>
      <trkpt lat="43.385693" lon="-5.712867">
        <ele>212.6</ele>
        <time>2019-11-24T16:47:33Z</time>
      </trkpt>
      <trkpt lat="43.385699" lon="-5.712971">
        <ele>212.4</ele>
        <time>2019-11-24T16:47:34Z</time>
      </trkpt>
      <trkpt lat="43.385704" lon="-5.713076">
        <ele>212.2</ele>
        <time>2019-11-24T16:47:35Z</time>
      </trkpt>
      <trkpt lat="43.385709" lon="-5.713181">
        <ele>212.8</ele>
        <time>2019-11-24T16:47:36Z</time>
      </trkpt>
      <trkpt lat="43.385715" lon="-5.713288">
        <ele>212.2</ele>
        <time>2019-11-24T16:47:37Z</time>
      </trkpt>
      <trkpt lat="43.38572" lon="-5.713395">
        <ele>212.4</ele>
        <time>2019-11-24T16:47:38Z</time>
      </trkpt>
      <trkpt lat="43.385725" lon="-5.713503">
        <ele>211.8</ele>
        <time>2019-11-24T16:47:39Z</time>
      </trkpt>
      <trkpt lat="43.385731" lon="-5.713611">
        <ele>211.8</ele>
        <time>2019-11-24T16:47:40Z</time>
      </trkpt>
      <trkpt lat="43.385736" lon="-5.71372">
        <ele>211.4</ele>
        <time>2019-11-24T16:47:41Z</time>
      </trkpt>
      <trkpt lat="43.385742" lon="-5.713829">
        <ele>211.8</ele>
        <time>2019-11-24T16:47:42Z</time>
      </trkpt>
      <trkpt lat="43.385748" lon="-5.713941">
        <ele>211.2</ele>
        <time>2019-11-24T16:47:43Z</time>
      </trkpt>
      <trkpt lat="43.385754" lon="-5.714053">
        <ele>211</ele>
        <time>2019-11-24T16:47:44Z</time>
      </trkpt>
      <trkpt lat="43.385759" lon="-5.714167">
        <ele>210.8</ele>
        <time>2019-11-24T16:47:45Z</time>
      </trkpt>
      <trkpt lat="43.385768" lon="-5.714284">
        <ele>210.8</ele>
        <time>2019-11-24T16:47:46Z</time>
      </trkpt>
      <trkpt lat="43.385775" lon="-5.714402">
        <ele>209.8</ele>
        <time>2019-11-24T16:47:47Z</time>
      </trkpt>
      <trkpt lat="43.385782" lon="-5.714521">
        <ele>209.6</ele>
        <time>2019-11-24T16:47:48Z</time>
      </trkpt>
      <trkpt lat="43.38579" lon="-5.714642">
        <ele>209.4</ele>
        <time>2019-11-24T16:47:49Z</time>
      </trkpt>
      <trkpt lat="43.385797" lon="-5.714766">
        <ele>209</ele>
        <time>2019-11-24T16:47:50Z</time>
      </trkpt>
      <trkpt lat="43.385805" lon="-5.714891">
        <ele>208.6</ele>
        <time>2019-11-24T16:47:51Z</time>
      </trkpt>
      <trkpt lat="43.385813" lon="-5.715019">
        <ele>208.2</ele>
        <time>2019-11-24T16:47:52Z</time>
      </trkpt>
      <trkpt lat="43.385822" lon="-5.715148">
        <ele>208</ele>
        <time>2019-11-24T16:47:53Z</time>
      </trkpt>
      <trkpt lat="43.38583" lon="-5.715277">
        <ele>208</ele>
        <time>2019-11-24T16:47:54Z</time>
      </trkpt>
      <trkpt lat="43.385839" lon="-5.715406">
        <ele>207.4</ele>
        <time>2019-11-24T16:47:55Z</time>
      </trkpt>
      <trkpt lat="43.385847" lon="-5.715534">
        <ele>208</ele>
        <time>2019-11-24T16:47:56Z</time>
      </trkpt>
      <trkpt lat="43.385854" lon="-5.715661">
        <ele>208.2</ele>
        <time>2019-11-24T16:47:57Z</time>
      </trkpt>
      <trkpt lat="43.385862" lon="-5.715786">
        <ele>207.8</ele>
        <time>2019-11-24T16:47:58Z</time>
      </trkpt>
      <trkpt lat="43.385871" lon="-5.715906">
        <ele>207.8</ele>
        <time>2019-11-24T16:47:59Z</time>
      </trkpt>
      <trkpt lat="43.385878" lon="-5.716026">
        <ele>207.8</ele>
        <time>2019-11-24T16:48:00Z</time>
      </trkpt>
      <trkpt lat="43.385886" lon="-5.716142">
        <ele>208.8</ele>
        <time>2019-11-24T16:48:01Z</time>
      </trkpt>
      <trkpt lat="43.385893" lon="-5.716256">
        <ele>208.8</ele>
        <time>2019-11-24T16:48:02Z</time>
      </trkpt>
      <trkpt lat="43.385901" lon="-5.716369">
        <ele>208.8</ele>
        <time>2019-11-24T16:48:03Z</time>
      </trkpt>
      <trkpt lat="43.385908" lon="-5.716481">
        <ele>208.4</ele>
        <time>2019-11-24T16:48:04Z</time>
      </trkpt>
      <trkpt lat="43.385914" lon="-5.716592">
        <ele>208.8</ele>
        <time>2019-11-24T16:48:05Z</time>
      </trkpt>
      <trkpt lat="43.385923" lon="-5.716702">
        <ele>209</ele>
        <time>2019-11-24T16:48:06Z</time>
      </trkpt>
      <trkpt lat="43.385931" lon="-5.716813">
        <ele>208.8</ele>
        <time>2019-11-24T16:48:07Z</time>
      </trkpt>
      <trkpt lat="43.385939" lon="-5.716924">
        <ele>208.6</ele>
        <time>2019-11-24T16:48:08Z</time>
      </trkpt>
      <trkpt lat="43.385945" lon="-5.717035">
        <ele>208.2</ele>
        <time>2019-11-24T16:48:09Z</time>
      </trkpt>
      <trkpt lat="43.385952" lon="-5.717148">
        <ele>208.2</ele>
        <time>2019-11-24T16:48:10Z</time>
      </trkpt>
      <trkpt lat="43.385962" lon="-5.717261">
        <ele>207.8</ele>
        <time>2019-11-24T16:48:11Z</time>
      </trkpt>
      <trkpt lat="43.385971" lon="-5.717375">
        <ele>207.4</ele>
        <time>2019-11-24T16:48:12Z</time>
      </trkpt>
      <trkpt lat="43.385981" lon="-5.71749">
        <ele>208.2</ele>
        <time>2019-11-24T16:48:13Z</time>
      </trkpt>
      <trkpt lat="43.38599" lon="-5.717607">
        <ele>207.4</ele>
        <time>2019-11-24T16:48:14Z</time>
      </trkpt>
      <trkpt lat="43.386" lon="-5.717724">
        <ele>207.2</ele>
        <time>2019-11-24T16:48:15Z</time>
      </trkpt>
      <trkpt lat="43.386011" lon="-5.717842">
        <ele>207.4</ele>
        <time>2019-11-24T16:48:16Z</time>
      </trkpt>
      <trkpt lat="43.38602" lon="-5.71796">
        <ele>206</ele>
        <time>2019-11-24T16:48:17Z</time>
      </trkpt>
      <trkpt lat="43.38603" lon="-5.718077">
        <ele>206.8</ele>
        <time>2019-11-24T16:48:18Z</time>
      </trkpt>
      <trkpt lat="43.386039" lon="-5.718195">
        <ele>205.4</ele>
        <time>2019-11-24T16:48:19Z</time>
      </trkpt>
      <trkpt lat="43.386048" lon="-5.718312">
        <ele>205.4</ele>
        <time>2019-11-24T16:48:20Z</time>
      </trkpt>
      <trkpt lat="43.386058" lon="-5.718431">
        <ele>204.8</ele>
        <time>2019-11-24T16:48:21Z</time>
      </trkpt>
      <trkpt lat="43.386067" lon="-5.718551">
        <ele>204.4</ele>
        <time>2019-11-24T16:48:22Z</time>
      </trkpt>
      <trkpt lat="43.386076" lon="-5.718673">
        <ele>204.4</ele>
        <time>2019-11-24T16:48:23Z</time>
      </trkpt>
      <trkpt lat="43.386086" lon="-5.718797">
        <ele>204</ele>
        <time>2019-11-24T16:48:24Z</time>
      </trkpt>
      <trkpt lat="43.386094" lon="-5.718921">
        <ele>203.6</ele>
        <time>2019-11-24T16:48:25Z</time>
      </trkpt>
      <trkpt lat="43.386103" lon="-5.719046">
        <ele>203.4</ele>
        <time>2019-11-24T16:48:26Z</time>
      </trkpt>
      <trkpt lat="43.386113" lon="-5.719173">
        <ele>202.2</ele>
        <time>2019-11-24T16:48:27Z</time>
      </trkpt>
      <trkpt lat="43.386121" lon="-5.719299">
        <ele>202.2</ele>
        <time>2019-11-24T16:48:28Z</time>
      </trkpt>
      <trkpt lat="43.38613" lon="-5.719424">
        <ele>201.6</ele>
        <time>2019-11-24T16:48:29Z</time>
      </trkpt>
      <trkpt lat="43.386138" lon="-5.719549">
        <ele>201.8</ele>
        <time>2019-11-24T16:48:30Z</time>
      </trkpt>
      <trkpt lat="43.386148" lon="-5.719672">
        <ele>201.4</ele>
        <time>2019-11-24T16:48:31Z</time>
      </trkpt>
      <trkpt lat="43.386156" lon="-5.719795">
        <ele>201.8</ele>
        <time>2019-11-24T16:48:32Z</time>
      </trkpt>
      <trkpt lat="43.386165" lon="-5.719917">
        <ele>201.8</ele>
        <time>2019-11-24T16:48:33Z</time>
      </trkpt>
      <trkpt lat="43.386176" lon="-5.720037">
        <ele>200.6</ele>
        <time>2019-11-24T16:48:34Z</time>
      </trkpt>
      <trkpt lat="43.386187" lon="-5.720156">
        <ele>201</ele>
        <time>2019-11-24T16:48:35Z</time>
      </trkpt>
      <trkpt lat="43.386196" lon="-5.720276">
        <ele>200.8</ele>
        <time>2019-11-24T16:48:36Z</time>
      </trkpt>
      <trkpt lat="43.386205" lon="-5.720394">
        <ele>200.8</ele>
        <time>2019-11-24T16:48:37Z</time>
      </trkpt>
      <trkpt lat="43.386215" lon="-5.720512">
        <ele>201</ele>
        <time>2019-11-24T16:48:38Z</time>
      </trkpt>
      <trkpt lat="43.386223" lon="-5.720628">
        <ele>201</ele>
        <time>2019-11-24T16:48:39Z</time>
      </trkpt>
      <trkpt lat="43.386232" lon="-5.720745">
        <ele>201.4</ele>
        <time>2019-11-24T16:48:40Z</time>
      </trkpt>
      <trkpt lat="43.38624" lon="-5.720859">
        <ele>201.2</ele>
        <time>2019-11-24T16:48:41Z</time>
      </trkpt>
      <trkpt lat="43.386247" lon="-5.720974">
        <ele>201</ele>
        <time>2019-11-24T16:48:42Z</time>
      </trkpt>
      <trkpt lat="43.386254" lon="-5.721087">
        <ele>201</ele>
        <time>2019-11-24T16:48:43Z</time>
      </trkpt>
      <trkpt lat="43.386262" lon="-5.7212">
        <ele>201</ele>
        <time>2019-11-24T16:48:44Z</time>
      </trkpt>
      <trkpt lat="43.38627" lon="-5.721312">
        <ele>201.4</ele>
        <time>2019-11-24T16:48:45Z</time>
      </trkpt>
      <trkpt lat="43.386279" lon="-5.721424">
        <ele>201.2</ele>
        <time>2019-11-24T16:48:46Z</time>
      </trkpt>
      <trkpt lat="43.386286" lon="-5.721536">
        <ele>201.4</ele>
        <time>2019-11-24T16:48:47Z</time>
      </trkpt>
      <trkpt lat="43.386294" lon="-5.721648">
        <ele>200.8</ele>
        <time>2019-11-24T16:48:48Z</time>
      </trkpt>
      <trkpt lat="43.386301" lon="-5.721759">
        <ele>201.2</ele>
        <time>2019-11-24T16:48:49Z</time>
      </trkpt>
      <trkpt lat="43.386309" lon="-5.721871">
        <ele>201.2</ele>
        <time>2019-11-24T16:48:50Z</time>
      </trkpt>
      <trkpt lat="43.386316" lon="-5.721982">
        <ele>201</ele>
        <time>2019-11-24T16:48:51Z</time>
      </trkpt>
      <trkpt lat="43.386323" lon="-5.722093">
        <ele>201.2</ele>
        <time>2019-11-24T16:48:52Z</time>
      </trkpt>
      <trkpt lat="43.386329" lon="-5.722204">
        <ele>201.4</ele>
        <time>2019-11-24T16:48:53Z</time>
      </trkpt>
      <trkpt lat="43.386334" lon="-5.722315">
        <ele>201.2</ele>
        <time>2019-11-24T16:48:54Z</time>
      </trkpt>
      <trkpt lat="43.386341" lon="-5.722427">
        <ele>201.2</ele>
        <time>2019-11-24T16:48:55Z</time>
      </trkpt>
      <trkpt lat="43.386347" lon="-5.722538">
        <ele>201.4</ele>
        <time>2019-11-24T16:48:56Z</time>
      </trkpt>
      <trkpt lat="43.386351" lon="-5.722649">
        <ele>201.6</ele>
        <time>2019-11-24T16:48:57Z</time>
      </trkpt>
      <trkpt lat="43.386353" lon="-5.72276">
        <ele>201.2</ele>
        <time>2019-11-24T16:48:58Z</time>
      </trkpt>
      <trkpt lat="43.386353" lon="-5.722871">
        <ele>201.6</ele>
        <time>2019-11-24T16:48:59Z</time>
      </trkpt>
      <trkpt lat="43.386351" lon="-5.722983">
        <ele>201.6</ele>
        <time>2019-11-24T16:49:00Z</time>
      </trkpt>
      <trkpt lat="43.38635" lon="-5.723095">
        <ele>201</ele>
        <time>2019-11-24T16:49:01Z</time>
      </trkpt>
      <trkpt lat="43.386347" lon="-5.723205">
        <ele>201</ele>
        <time>2019-11-24T16:49:02Z</time>
      </trkpt>
      <trkpt lat="43.386344" lon="-5.723315">
        <ele>201.2</ele>
        <time>2019-11-24T16:49:03Z</time>
      </trkpt>
      <trkpt lat="43.38634" lon="-5.723425">
        <ele>201.8</ele>
        <time>2019-11-24T16:49:04Z</time>
      </trkpt>
      <trkpt lat="43.386334" lon="-5.723536">
        <ele>201.8</ele>
        <time>2019-11-24T16:49:05Z</time>
      </trkpt>
      <trkpt lat="43.386328" lon="-5.723649">
        <ele>201.2</ele>
        <time>2019-11-24T16:49:06Z</time>
      </trkpt>
      <trkpt lat="43.386321" lon="-5.72376">
        <ele>201.6</ele>
        <time>2019-11-24T16:49:07Z</time>
      </trkpt>
      <trkpt lat="43.386313" lon="-5.723872">
        <ele>201.6</ele>
        <time>2019-11-24T16:49:08Z</time>
      </trkpt>
      <trkpt lat="43.386305" lon="-5.723982">
        <ele>201.2</ele>
        <time>2019-11-24T16:49:09Z</time>
      </trkpt>
      <trkpt lat="43.386296" lon="-5.724092">
        <ele>201.4</ele>
        <time>2019-11-24T16:49:10Z</time>
      </trkpt>
      <trkpt lat="43.386288" lon="-5.724203">
        <ele>201.2</ele>
        <time>2019-11-24T16:49:11Z</time>
      </trkpt>
      <trkpt lat="43.386282" lon="-5.724315">
        <ele>201.4</ele>
        <time>2019-11-24T16:49:12Z</time>
      </trkpt>
      <trkpt lat="43.386282" lon="-5.724428">
        <ele>201.2</ele>
        <time>2019-11-24T16:49:13Z</time>
      </trkpt>
      <trkpt lat="43.386293" lon="-5.724539">
        <ele>201</ele>
        <time>2019-11-24T16:49:14Z</time>
      </trkpt>
      <trkpt lat="43.386319" lon="-5.724644">
        <ele>200.6</ele>
        <time>2019-11-24T16:49:15Z</time>
      </trkpt>
      <trkpt lat="43.386362" lon="-5.724739">
        <ele>200.6</ele>
        <time>2019-11-24T16:49:16Z</time>
      </trkpt>
      <trkpt lat="43.38642" lon="-5.724825">
        <ele>200.6</ele>
        <time>2019-11-24T16:49:17Z</time>
      </trkpt>
      <trkpt lat="43.386472" lon="-5.724911">
        <ele>200.6</ele>
        <time>2019-11-24T16:49:18Z</time>
      </trkpt>
      <trkpt lat="43.38651" lon="-5.725008">
        <ele>200.8</ele>
        <time>2019-11-24T16:49:19Z</time>
      </trkpt>
      <trkpt lat="43.386527" lon="-5.725111">
        <ele>200.8</ele>
        <time>2019-11-24T16:49:20Z</time>
      </trkpt>
      <trkpt lat="43.386524" lon="-5.725214">
        <ele>201</ele>
        <time>2019-11-24T16:49:21Z</time>
      </trkpt>
      <trkpt lat="43.386504" lon="-5.725314">
        <ele>201</ele>
        <time>2019-11-24T16:49:22Z</time>
      </trkpt>
      <trkpt lat="43.386474" lon="-5.725407">
        <ele>201</ele>
        <time>2019-11-24T16:49:23Z</time>
      </trkpt>
      <trkpt lat="43.386435" lon="-5.725493">
        <ele>201.4</ele>
        <time>2019-11-24T16:49:24Z</time>
      </trkpt>
      <trkpt lat="43.386393" lon="-5.725572">
        <ele>201.6</ele>
        <time>2019-11-24T16:49:25Z</time>
      </trkpt>
      <trkpt lat="43.38635" lon="-5.725646">
        <ele>201.4</ele>
        <time>2019-11-24T16:49:26Z</time>
      </trkpt>
      <trkpt lat="43.386308" lon="-5.72572">
        <ele>201.6</ele>
        <time>2019-11-24T16:49:27Z</time>
      </trkpt>
      <trkpt lat="43.386267" lon="-5.725799">
        <ele>201.6</ele>
        <time>2019-11-24T16:49:28Z</time>
      </trkpt>
      <trkpt lat="43.386231" lon="-5.725881">
        <ele>202</ele>
        <time>2019-11-24T16:49:29Z</time>
      </trkpt>
      <trkpt lat="43.386199" lon="-5.725968">
        <ele>201.8</ele>
        <time>2019-11-24T16:49:30Z</time>
      </trkpt>
      <trkpt lat="43.386172" lon="-5.726058">
        <ele>201.6</ele>
        <time>2019-11-24T16:49:31Z</time>
      </trkpt>
      <trkpt lat="43.38615" lon="-5.726152">
        <ele>201.4</ele>
        <time>2019-11-24T16:49:32Z</time>
      </trkpt>
      <trkpt lat="43.386134" lon="-5.726249">
        <ele>202</ele>
        <time>2019-11-24T16:49:33Z</time>
      </trkpt>
      <trkpt lat="43.386121" lon="-5.72635">
        <ele>201.6</ele>
        <time>2019-11-24T16:49:34Z</time>
      </trkpt>
      <trkpt lat="43.38611" lon="-5.726452">
        <ele>201.4</ele>
        <time>2019-11-24T16:49:35Z</time>
      </trkpt>
      <trkpt lat="43.3861" lon="-5.726555">
        <ele>201.4</ele>
        <time>2019-11-24T16:49:36Z</time>
      </trkpt>
      <trkpt lat="43.386091" lon="-5.726659">
        <ele>201.8</ele>
        <time>2019-11-24T16:49:37Z</time>
      </trkpt>
      <trkpt lat="43.386083" lon="-5.726763">
        <ele>201.6</ele>
        <time>2019-11-24T16:49:38Z</time>
      </trkpt>
      <trkpt lat="43.386075" lon="-5.726868">
        <ele>201.2</ele>
        <time>2019-11-24T16:49:39Z</time>
      </trkpt>
      <trkpt lat="43.386065" lon="-5.726973">
        <ele>201.6</ele>
        <time>2019-11-24T16:49:40Z</time>
      </trkpt>
      <trkpt lat="43.386055" lon="-5.727078">
        <ele>200.6</ele>
        <time>2019-11-24T16:49:41Z</time>
      </trkpt>
      <trkpt lat="43.386045" lon="-5.727183">
        <ele>201.4</ele>
        <time>2019-11-24T16:49:42Z</time>
      </trkpt>
      <trkpt lat="43.386036" lon="-5.72729">
        <ele>201.4</ele>
        <time>2019-11-24T16:49:43Z</time>
      </trkpt>
      <trkpt lat="43.386027" lon="-5.727397">
        <ele>201.4</ele>
        <time>2019-11-24T16:49:44Z</time>
      </trkpt>
      <trkpt lat="43.386018" lon="-5.727505">
        <ele>201.4</ele>
        <time>2019-11-24T16:49:45Z</time>
      </trkpt>
      <trkpt lat="43.386009" lon="-5.727612">
        <ele>201.2</ele>
        <time>2019-11-24T16:49:46Z</time>
      </trkpt>
      <trkpt lat="43.386001" lon="-5.727721">
        <ele>200.8</ele>
        <time>2019-11-24T16:49:47Z</time>
      </trkpt>
      <trkpt lat="43.385993" lon="-5.727831">
        <ele>200.6</ele>
        <time>2019-11-24T16:49:48Z</time>
      </trkpt>
      <trkpt lat="43.385985" lon="-5.727941">
        <ele>200.4</ele>
        <time>2019-11-24T16:49:49Z</time>
      </trkpt>
      <trkpt lat="43.385976" lon="-5.728052">
        <ele>200.6</ele>
        <time>2019-11-24T16:49:50Z</time>
      </trkpt>
      <trkpt lat="43.385967" lon="-5.728163">
        <ele>200.4</ele>
        <time>2019-11-24T16:49:51Z</time>
      </trkpt>
      <trkpt lat="43.385958" lon="-5.728276">
        <ele>200.4</ele>
        <time>2019-11-24T16:49:52Z</time>
      </trkpt>
      <trkpt lat="43.385949" lon="-5.728389">
        <ele>200.2</ele>
        <time>2019-11-24T16:49:53Z</time>
      </trkpt>
      <trkpt lat="43.38594" lon="-5.728503">
        <ele>199.8</ele>
        <time>2019-11-24T16:49:54Z</time>
      </trkpt>
      <trkpt lat="43.385931" lon="-5.728618">
        <ele>200</ele>
        <time>2019-11-24T16:49:55Z</time>
      </trkpt>
      <trkpt lat="43.385922" lon="-5.728733">
        <ele>199.6</ele>
        <time>2019-11-24T16:49:56Z</time>
      </trkpt>
      <trkpt lat="43.385913" lon="-5.728848">
        <ele>199.8</ele>
        <time>2019-11-24T16:49:57Z</time>
      </trkpt>
      <trkpt lat="43.385904" lon="-5.728963">
        <ele>199.8</ele>
        <time>2019-11-24T16:49:58Z</time>
      </trkpt>
      <trkpt lat="43.385894" lon="-5.729077">
        <ele>199.6</ele>
        <time>2019-11-24T16:49:59Z</time>
      </trkpt>
      <trkpt lat="43.385886" lon="-5.729191">
        <ele>199.6</ele>
        <time>2019-11-24T16:50:00Z</time>
      </trkpt>
      <trkpt lat="43.385877" lon="-5.729306">
        <ele>199.6</ele>
        <time>2019-11-24T16:50:01Z</time>
      </trkpt>
      <trkpt lat="43.385868" lon="-5.729419">
        <ele>199.6</ele>
        <time>2019-11-24T16:50:02Z</time>
      </trkpt>
      <trkpt lat="43.385859" lon="-5.729532">
        <ele>200</ele>
        <time>2019-11-24T16:50:03Z</time>
      </trkpt>
      <trkpt lat="43.385849" lon="-5.729644">
        <ele>199.6</ele>
        <time>2019-11-24T16:50:04Z</time>
      </trkpt>
      <trkpt lat="43.38584" lon="-5.729754">
        <ele>199.6</ele>
        <time>2019-11-24T16:50:05Z</time>
      </trkpt>
      <trkpt lat="43.385831" lon="-5.729863">
        <ele>199.8</ele>
        <time>2019-11-24T16:50:06Z</time>
      </trkpt>
      <trkpt lat="43.385821" lon="-5.72997">
        <ele>199.2</ele>
        <time>2019-11-24T16:50:07Z</time>
      </trkpt>
      <trkpt lat="43.385813" lon="-5.730077">
        <ele>199.4</ele>
        <time>2019-11-24T16:50:08Z</time>
      </trkpt>
      <trkpt lat="43.385806" lon="-5.730185">
        <ele>199.4</ele>
        <time>2019-11-24T16:50:09Z</time>
      </trkpt>
      <trkpt lat="43.385798" lon="-5.730293">
        <ele>199.8</ele>
        <time>2019-11-24T16:50:10Z</time>
      </trkpt>
      <trkpt lat="43.385789" lon="-5.7304">
        <ele>200.2</ele>
        <time>2019-11-24T16:50:11Z</time>
      </trkpt>
      <trkpt lat="43.38578" lon="-5.730507">
        <ele>200.2</ele>
        <time>2019-11-24T16:50:12Z</time>
      </trkpt>
      <trkpt lat="43.385772" lon="-5.730613">
        <ele>200</ele>
        <time>2019-11-24T16:50:13Z</time>
      </trkpt>
      <trkpt lat="43.385765" lon="-5.730719">
        <ele>199.8</ele>
        <time>2019-11-24T16:50:14Z</time>
      </trkpt>
      <trkpt lat="43.385757" lon="-5.730824">
        <ele>200.6</ele>
        <time>2019-11-24T16:50:15Z</time>
      </trkpt>
      <trkpt lat="43.385748" lon="-5.730929">
        <ele>201</ele>
        <time>2019-11-24T16:50:16Z</time>
      </trkpt>
      <trkpt lat="43.385739" lon="-5.731033">
        <ele>200.8</ele>
        <time>2019-11-24T16:50:17Z</time>
      </trkpt>
      <trkpt lat="43.385731" lon="-5.731137">
        <ele>201</ele>
        <time>2019-11-24T16:50:18Z</time>
      </trkpt>
      <trkpt lat="43.385722" lon="-5.731239">
        <ele>201.2</ele>
        <time>2019-11-24T16:50:19Z</time>
      </trkpt>
      <trkpt lat="43.385714" lon="-5.731341">
        <ele>201.2</ele>
        <time>2019-11-24T16:50:20Z</time>
      </trkpt>
      <trkpt lat="43.385705" lon="-5.731442">
        <ele>201.4</ele>
        <time>2019-11-24T16:50:21Z</time>
      </trkpt>
      <trkpt lat="43.385696" lon="-5.731542">
        <ele>203</ele>
        <time>2019-11-24T16:50:22Z</time>
      </trkpt>
      <trkpt lat="43.385688" lon="-5.731641">
        <ele>201.8</ele>
        <time>2019-11-24T16:50:23Z</time>
      </trkpt>
      <trkpt lat="43.385679" lon="-5.73174">
        <ele>202.2</ele>
        <time>2019-11-24T16:50:24Z</time>
      </trkpt>
      <trkpt lat="43.38567" lon="-5.731839">
        <ele>202.4</ele>
        <time>2019-11-24T16:50:25Z</time>
      </trkpt>
      <trkpt lat="43.385661" lon="-5.731939">
        <ele>202.6</ele>
        <time>2019-11-24T16:50:26Z</time>
      </trkpt>
      <trkpt lat="43.385652" lon="-5.732038">
        <ele>202.2</ele>
        <time>2019-11-24T16:50:27Z</time>
      </trkpt>
      <trkpt lat="43.38564" lon="-5.732136">
        <ele>203</ele>
        <time>2019-11-24T16:50:28Z</time>
      </trkpt>
      <trkpt lat="43.385628" lon="-5.732233">
        <ele>203.2</ele>
        <time>2019-11-24T16:50:29Z</time>
      </trkpt>
      <trkpt lat="43.385616" lon="-5.732331">
        <ele>203.8</ele>
        <time>2019-11-24T16:50:30Z</time>
      </trkpt>
      <trkpt lat="43.385602" lon="-5.732428">
        <ele>203.4</ele>
        <time>2019-11-24T16:50:31Z</time>
      </trkpt>
      <trkpt lat="43.385587" lon="-5.732525">
        <ele>203.8</ele>
        <time>2019-11-24T16:50:32Z</time>
      </trkpt>
      <trkpt lat="43.385572" lon="-5.732621">
        <ele>203.8</ele>
        <time>2019-11-24T16:50:33Z</time>
      </trkpt>
      <trkpt lat="43.385556" lon="-5.732718">
        <ele>204</ele>
        <time>2019-11-24T16:50:34Z</time>
      </trkpt>
      <trkpt lat="43.385538" lon="-5.732816">
        <ele>204.4</ele>
        <time>2019-11-24T16:50:35Z</time>
      </trkpt>
      <trkpt lat="43.38552" lon="-5.732914">
        <ele>204</ele>
        <time>2019-11-24T16:50:36Z</time>
      </trkpt>
      <trkpt lat="43.385501" lon="-5.733013">
        <ele>204</ele>
        <time>2019-11-24T16:50:37Z</time>
      </trkpt>
      <trkpt lat="43.385482" lon="-5.733114">
        <ele>203.6</ele>
        <time>2019-11-24T16:50:38Z</time>
      </trkpt>
      <trkpt lat="43.385462" lon="-5.733216">
        <ele>203.6</ele>
        <time>2019-11-24T16:50:39Z</time>
      </trkpt>
      <trkpt lat="43.38544" lon="-5.733319">
        <ele>203.4</ele>
        <time>2019-11-24T16:50:40Z</time>
      </trkpt>
      <trkpt lat="43.385418" lon="-5.733424">
        <ele>203</ele>
        <time>2019-11-24T16:50:41Z</time>
      </trkpt>
      <trkpt lat="43.385396" lon="-5.733531">
        <ele>202.6</ele>
        <time>2019-11-24T16:50:42Z</time>
      </trkpt>
      <trkpt lat="43.385372" lon="-5.733639">
        <ele>202.8</ele>
        <time>2019-11-24T16:50:43Z</time>
      </trkpt>
      <trkpt lat="43.385349" lon="-5.733749">
        <ele>202.4</ele>
        <time>2019-11-24T16:50:44Z</time>
      </trkpt>
      <trkpt lat="43.385327" lon="-5.733859">
        <ele>202.6</ele>
        <time>2019-11-24T16:50:45Z</time>
      </trkpt>
      <trkpt lat="43.385304" lon="-5.73397">
        <ele>202.6</ele>
        <time>2019-11-24T16:50:46Z</time>
      </trkpt>
      <trkpt lat="43.385281" lon="-5.734083">
        <ele>201.8</ele>
        <time>2019-11-24T16:50:47Z</time>
      </trkpt>
      <trkpt lat="43.385256" lon="-5.734197">
        <ele>201.4</ele>
        <time>2019-11-24T16:50:48Z</time>
      </trkpt>
      <trkpt lat="43.385232" lon="-5.734312">
        <ele>200.6</ele>
        <time>2019-11-24T16:50:49Z</time>
      </trkpt>
      <trkpt lat="43.385208" lon="-5.734429">
        <ele>200.2</ele>
        <time>2019-11-24T16:50:50Z</time>
      </trkpt>
      <trkpt lat="43.385182" lon="-5.734547">
        <ele>199.6</ele>
        <time>2019-11-24T16:50:51Z</time>
      </trkpt>
      <trkpt lat="43.385158" lon="-5.734667">
        <ele>199</ele>
        <time>2019-11-24T16:50:52Z</time>
      </trkpt>
      <trkpt lat="43.385133" lon="-5.734788">
        <ele>198.4</ele>
        <time>2019-11-24T16:50:53Z</time>
      </trkpt>
      <trkpt lat="43.385108" lon="-5.734911">
        <ele>198.4</ele>
        <time>2019-11-24T16:50:54Z</time>
      </trkpt>
      <trkpt lat="43.385082" lon="-5.735037">
        <ele>198.2</ele>
        <time>2019-11-24T16:50:55Z</time>
      </trkpt>
      <trkpt lat="43.385057" lon="-5.735163">
        <ele>197.6</ele>
        <time>2019-11-24T16:50:56Z</time>
      </trkpt>
      <trkpt lat="43.385031" lon="-5.73529">
        <ele>197</ele>
        <time>2019-11-24T16:50:57Z</time>
      </trkpt>
      <trkpt lat="43.385004" lon="-5.735417">
        <ele>196.4</ele>
        <time>2019-11-24T16:50:58Z</time>
      </trkpt>
      <trkpt lat="43.384979" lon="-5.735545">
        <ele>195.6</ele>
        <time>2019-11-24T16:50:59Z</time>
      </trkpt>
      <trkpt lat="43.384956" lon="-5.735675">
        <ele>196</ele>
        <time>2019-11-24T16:51:00Z</time>
      </trkpt>
      <trkpt lat="43.384933" lon="-5.735804">
        <ele>196</ele>
        <time>2019-11-24T16:51:01Z</time>
      </trkpt>
      <trkpt lat="43.384912" lon="-5.735933">
        <ele>195</ele>
        <time>2019-11-24T16:51:02Z</time>
      </trkpt>
      <trkpt lat="43.384895" lon="-5.736062">
        <ele>194.8</ele>
        <time>2019-11-24T16:51:03Z</time>
      </trkpt>
      <trkpt lat="43.384879" lon="-5.73619">
        <ele>194.4</ele>
        <time>2019-11-24T16:51:04Z</time>
      </trkpt>
      <trkpt lat="43.384865" lon="-5.736318">
        <ele>194.4</ele>
        <time>2019-11-24T16:51:05Z</time>
      </trkpt>
      <trkpt lat="43.384858" lon="-5.736448">
        <ele>194.2</ele>
        <time>2019-11-24T16:51:06Z</time>
      </trkpt>
      <trkpt lat="43.384865" lon="-5.736579">
        <ele>193.4</ele>
        <time>2019-11-24T16:51:07Z</time>
      </trkpt>
      <trkpt lat="43.384893" lon="-5.736703">
        <ele>193.4</ele>
        <time>2019-11-24T16:51:08Z</time>
      </trkpt>
      <trkpt lat="43.384937" lon="-5.736816">
        <ele>193</ele>
        <time>2019-11-24T16:51:09Z</time>
      </trkpt>
      <trkpt lat="43.384989" lon="-5.736921">
        <ele>193.2</ele>
        <time>2019-11-24T16:51:10Z</time>
      </trkpt>
      <trkpt lat="43.385041" lon="-5.737027">
        <ele>192.4</ele>
        <time>2019-11-24T16:51:11Z</time>
      </trkpt>
      <trkpt lat="43.385089" lon="-5.737134">
        <ele>192.2</ele>
        <time>2019-11-24T16:51:12Z</time>
      </trkpt>
      <trkpt lat="43.385138" lon="-5.737239">
        <ele>192.2</ele>
        <time>2019-11-24T16:51:13Z</time>
      </trkpt>
      <trkpt lat="43.385194" lon="-5.737336">
        <ele>192</ele>
        <time>2019-11-24T16:51:14Z</time>
      </trkpt>
      <trkpt lat="43.385258" lon="-5.73742">
        <ele>192.2</ele>
        <time>2019-11-24T16:51:15Z</time>
      </trkpt>
      <trkpt lat="43.385328" lon="-5.737492">
        <ele>192.6</ele>
        <time>2019-11-24T16:51:16Z</time>
      </trkpt>
      <trkpt lat="43.385399" lon="-5.737559">
        <ele>193.2</ele>
        <time>2019-11-24T16:51:17Z</time>
      </trkpt>
      <trkpt lat="43.385471" lon="-5.737625">
        <ele>193.4</ele>
        <time>2019-11-24T16:51:18Z</time>
      </trkpt>
      <trkpt lat="43.385539" lon="-5.73769">
        <ele>193.8</ele>
        <time>2019-11-24T16:51:19Z</time>
      </trkpt>
      <trkpt lat="43.385606" lon="-5.737757">
        <ele>193.8</ele>
        <time>2019-11-24T16:51:20Z</time>
      </trkpt>
      <trkpt lat="43.385668" lon="-5.737828">
        <ele>194.6</ele>
        <time>2019-11-24T16:51:21Z</time>
      </trkpt>
      <trkpt lat="43.385726" lon="-5.737902">
        <ele>194.2</ele>
        <time>2019-11-24T16:51:22Z</time>
      </trkpt>
      <trkpt lat="43.385779" lon="-5.737981">
        <ele>194.4</ele>
        <time>2019-11-24T16:51:23Z</time>
      </trkpt>
      <trkpt lat="43.385825" lon="-5.738063">
        <ele>195.4</ele>
        <time>2019-11-24T16:51:24Z</time>
      </trkpt>
      <trkpt lat="43.385868" lon="-5.738148">
        <ele>195.6</ele>
        <time>2019-11-24T16:51:25Z</time>
      </trkpt>
      <trkpt lat="43.385906" lon="-5.738235">
        <ele>195.4</ele>
        <time>2019-11-24T16:51:26Z</time>
      </trkpt>
      <trkpt lat="43.38594" lon="-5.738325">
        <ele>195.6</ele>
        <time>2019-11-24T16:51:27Z</time>
      </trkpt>
      <trkpt lat="43.385969" lon="-5.738418">
        <ele>195.8</ele>
        <time>2019-11-24T16:51:28Z</time>
      </trkpt>
      <trkpt lat="43.385992" lon="-5.738513">
        <ele>196</ele>
        <time>2019-11-24T16:51:29Z</time>
      </trkpt>
      <trkpt lat="43.38601" lon="-5.738612">
        <ele>196.2</ele>
        <time>2019-11-24T16:51:30Z</time>
      </trkpt>
      <trkpt lat="43.386022" lon="-5.738712">
        <ele>196</ele>
        <time>2019-11-24T16:51:31Z</time>
      </trkpt>
      <trkpt lat="43.386029" lon="-5.738813">
        <ele>196</ele>
        <time>2019-11-24T16:51:32Z</time>
      </trkpt>
      <trkpt lat="43.38603" lon="-5.738916">
        <ele>196</ele>
        <time>2019-11-24T16:51:33Z</time>
      </trkpt>
      <trkpt lat="43.386028" lon="-5.739019">
        <ele>196</ele>
        <time>2019-11-24T16:51:34Z</time>
      </trkpt>
      <trkpt lat="43.386021" lon="-5.739124">
        <ele>195.8</ele>
        <time>2019-11-24T16:51:35Z</time>
      </trkpt>
      <trkpt lat="43.38601" lon="-5.739229">
        <ele>195.6</ele>
        <time>2019-11-24T16:51:36Z</time>
      </trkpt>
      <trkpt lat="43.385999" lon="-5.739337">
        <ele>195.4</ele>
        <time>2019-11-24T16:51:37Z</time>
      </trkpt>
      <trkpt lat="43.385989" lon="-5.739445">
        <ele>195.4</ele>
        <time>2019-11-24T16:51:38Z</time>
      </trkpt>
      <trkpt lat="43.385979" lon="-5.739555">
        <ele>195.4</ele>
        <time>2019-11-24T16:51:39Z</time>
      </trkpt>
      <trkpt lat="43.385968" lon="-5.739666">
        <ele>195.6</ele>
        <time>2019-11-24T16:51:40Z</time>
      </trkpt>
      <trkpt lat="43.385956" lon="-5.739779">
        <ele>195.6</ele>
        <time>2019-11-24T16:51:41Z</time>
      </trkpt>
      <trkpt lat="43.385944" lon="-5.739892">
        <ele>195.2</ele>
        <time>2019-11-24T16:51:42Z</time>
      </trkpt>
      <trkpt lat="43.385932" lon="-5.740006">
        <ele>194.8</ele>
        <time>2019-11-24T16:51:43Z</time>
      </trkpt>
      <trkpt lat="43.385922" lon="-5.740121">
        <ele>194.6</ele>
        <time>2019-11-24T16:51:44Z</time>
      </trkpt>
      <trkpt lat="43.385915" lon="-5.740237">
        <ele>194.8</ele>
        <time>2019-11-24T16:51:45Z</time>
      </trkpt>
      <trkpt lat="43.385914" lon="-5.740354">
        <ele>194.2</ele>
        <time>2019-11-24T16:51:46Z</time>
      </trkpt>
      <trkpt lat="43.385919" lon="-5.74047">
        <ele>194.4</ele>
        <time>2019-11-24T16:51:47Z</time>
      </trkpt>
      <trkpt lat="43.385933" lon="-5.740585">
        <ele>194.8</ele>
        <time>2019-11-24T16:51:48Z</time>
      </trkpt>
      <trkpt lat="43.385956" lon="-5.740697">
        <ele>195.2</ele>
        <time>2019-11-24T16:51:49Z</time>
      </trkpt>
      <trkpt lat="43.385986" lon="-5.740803">
        <ele>195</ele>
        <time>2019-11-24T16:51:50Z</time>
      </trkpt>
      <trkpt lat="43.386022" lon="-5.740904">
        <ele>194.4</ele>
        <time>2019-11-24T16:51:51Z</time>
      </trkpt>
      <trkpt lat="43.386062" lon="-5.741001">
        <ele>194.4</ele>
        <time>2019-11-24T16:51:52Z</time>
      </trkpt>
      <trkpt lat="43.386104" lon="-5.741095">
        <ele>194.4</ele>
        <time>2019-11-24T16:51:53Z</time>
      </trkpt>
      <trkpt lat="43.386147" lon="-5.741187">
        <ele>194.2</ele>
        <time>2019-11-24T16:51:54Z</time>
      </trkpt>
      <trkpt lat="43.386189" lon="-5.741277">
        <ele>194.2</ele>
        <time>2019-11-24T16:51:55Z</time>
      </trkpt>
      <trkpt lat="43.386232" lon="-5.741367">
        <ele>194.8</ele>
        <time>2019-11-24T16:51:56Z</time>
      </trkpt>
      <trkpt lat="43.386274" lon="-5.741457">
        <ele>194.2</ele>
        <time>2019-11-24T16:51:57Z</time>
      </trkpt>
      <trkpt lat="43.386313" lon="-5.741548">
        <ele>194.6</ele>
        <time>2019-11-24T16:51:58Z</time>
      </trkpt>
      <trkpt lat="43.386348" lon="-5.741644">
        <ele>194.6</ele>
        <time>2019-11-24T16:51:59Z</time>
      </trkpt>
      <trkpt lat="43.386376" lon="-5.74174">
        <ele>195.2</ele>
        <time>2019-11-24T16:52:00Z</time>
      </trkpt>
      <trkpt lat="43.386398" lon="-5.741838">
        <ele>195.4</ele>
        <time>2019-11-24T16:52:01Z</time>
      </trkpt>
      <trkpt lat="43.386415" lon="-5.741938">
        <ele>194.8</ele>
        <time>2019-11-24T16:52:02Z</time>
      </trkpt>
      <trkpt lat="43.386436" lon="-5.74204">
        <ele>195</ele>
        <time>2019-11-24T16:52:03Z</time>
      </trkpt>
      <trkpt lat="43.386464" lon="-5.742139">
        <ele>195</ele>
        <time>2019-11-24T16:52:04Z</time>
      </trkpt>
      <trkpt lat="43.386498" lon="-5.742235">
        <ele>195.4</ele>
        <time>2019-11-24T16:52:05Z</time>
      </trkpt>
      <trkpt lat="43.386536" lon="-5.742326">
        <ele>196.2</ele>
        <time>2019-11-24T16:52:06Z</time>
      </trkpt>
      <trkpt lat="43.38658" lon="-5.742414">
        <ele>195.6</ele>
        <time>2019-11-24T16:52:07Z</time>
      </trkpt>
      <trkpt lat="43.386624" lon="-5.742501">
        <ele>197.6</ele>
        <time>2019-11-24T16:52:08Z</time>
      </trkpt>
      <trkpt lat="43.386669" lon="-5.742584">
        <ele>196</ele>
        <time>2019-11-24T16:52:09Z</time>
      </trkpt>
      <trkpt lat="43.386714" lon="-5.742665">
        <ele>195.8</ele>
        <time>2019-11-24T16:52:10Z</time>
      </trkpt>
      <trkpt lat="43.386759" lon="-5.742743">
        <ele>196.4</ele>
        <time>2019-11-24T16:52:11Z</time>
      </trkpt>
      <trkpt lat="43.386804" lon="-5.742821">
        <ele>197.4</ele>
        <time>2019-11-24T16:52:12Z</time>
      </trkpt>
      <trkpt lat="43.386848" lon="-5.742899">
        <ele>197.6</ele>
        <time>2019-11-24T16:52:13Z</time>
      </trkpt>
      <trkpt lat="43.386891" lon="-5.742976">
        <ele>197.6</ele>
        <time>2019-11-24T16:52:14Z</time>
      </trkpt>
      <trkpt lat="43.386934" lon="-5.743052">
        <ele>198</ele>
        <time>2019-11-24T16:52:15Z</time>
      </trkpt>
      <trkpt lat="43.386978" lon="-5.743128">
        <ele>198.6</ele>
        <time>2019-11-24T16:52:16Z</time>
      </trkpt>
      <trkpt lat="43.387021" lon="-5.743205">
        <ele>198.4</ele>
        <time>2019-11-24T16:52:17Z</time>
      </trkpt>
      <trkpt lat="43.387064" lon="-5.74328">
        <ele>198.6</ele>
        <time>2019-11-24T16:52:18Z</time>
      </trkpt>
      <trkpt lat="43.387108" lon="-5.743354">
        <ele>199</ele>
        <time>2019-11-24T16:52:19Z</time>
      </trkpt>
      <trkpt lat="43.387151" lon="-5.74343">
        <ele>198.4</ele>
        <time>2019-11-24T16:52:20Z</time>
      </trkpt>
      <trkpt lat="43.387195" lon="-5.743504">
        <ele>199</ele>
        <time>2019-11-24T16:52:21Z</time>
      </trkpt>
      <trkpt lat="43.387239" lon="-5.743579">
        <ele>199</ele>
        <time>2019-11-24T16:52:22Z</time>
      </trkpt>
      <trkpt lat="43.387282" lon="-5.743654">
        <ele>198.6</ele>
        <time>2019-11-24T16:52:23Z</time>
      </trkpt>
      <trkpt lat="43.387325" lon="-5.743728">
        <ele>199</ele>
        <time>2019-11-24T16:52:24Z</time>
      </trkpt>
      <trkpt lat="43.387367" lon="-5.743802">
        <ele>199</ele>
        <time>2019-11-24T16:52:25Z</time>
      </trkpt>
      <trkpt lat="43.387409" lon="-5.743876">
        <ele>199.8</ele>
        <time>2019-11-24T16:52:26Z</time>
      </trkpt>
      <trkpt lat="43.387451" lon="-5.743949">
        <ele>199.2</ele>
        <time>2019-11-24T16:52:27Z</time>
      </trkpt>
      <trkpt lat="43.387493" lon="-5.744022">
        <ele>200.2</ele>
        <time>2019-11-24T16:52:28Z</time>
      </trkpt>
      <trkpt lat="43.387534" lon="-5.744094">
        <ele>200.4</ele>
        <time>2019-11-24T16:52:29Z</time>
      </trkpt>
      <trkpt lat="43.387577" lon="-5.744167">
        <ele>199.6</ele>
        <time>2019-11-24T16:52:30Z</time>
      </trkpt>
      <trkpt lat="43.38762" lon="-5.74424">
        <ele>200.8</ele>
        <time>2019-11-24T16:52:31Z</time>
      </trkpt>
      <trkpt lat="43.387663" lon="-5.744313">
        <ele>200.6</ele>
        <time>2019-11-24T16:52:32Z</time>
      </trkpt>
      <trkpt lat="43.387706" lon="-5.744387">
        <ele>200.8</ele>
        <time>2019-11-24T16:52:33Z</time>
      </trkpt>
      <trkpt lat="43.38775" lon="-5.744461">
        <ele>201.4</ele>
        <time>2019-11-24T16:52:34Z</time>
      </trkpt>
      <trkpt lat="43.387796" lon="-5.744532">
        <ele>200.6</ele>
        <time>2019-11-24T16:52:35Z</time>
      </trkpt>
      <trkpt lat="43.387848" lon="-5.744595">
        <ele>200.4</ele>
        <time>2019-11-24T16:52:36Z</time>
      </trkpt>
      <trkpt lat="43.387907" lon="-5.744643">
        <ele>200.8</ele>
        <time>2019-11-24T16:52:37Z</time>
      </trkpt>
      <trkpt lat="43.387972" lon="-5.744671">
        <ele>201.4</ele>
        <time>2019-11-24T16:52:38Z</time>
      </trkpt>
      <trkpt lat="43.388038" lon="-5.744691">
        <ele>202</ele>
        <time>2019-11-24T16:52:39Z</time>
      </trkpt>
      <trkpt lat="43.3881" lon="-5.744718">
        <ele>202.2</ele>
        <time>2019-11-24T16:52:40Z</time>
      </trkpt>
      <trkpt lat="43.388158" lon="-5.744758">
        <ele>202.8</ele>
        <time>2019-11-24T16:52:41Z</time>
      </trkpt>
      <trkpt lat="43.388208" lon="-5.744816">
        <ele>203</ele>
        <time>2019-11-24T16:52:42Z</time>
      </trkpt>
      <trkpt lat="43.388246" lon="-5.744888">
        <ele>202.8</ele>
        <time>2019-11-24T16:52:43Z</time>
      </trkpt>
      <trkpt lat="43.388268" lon="-5.744973">
        <ele>202.6</ele>
        <time>2019-11-24T16:52:44Z</time>
      </trkpt>
      <trkpt lat="43.388276" lon="-5.745063">
        <ele>202.4</ele>
        <time>2019-11-24T16:52:45Z</time>
      </trkpt>
      <trkpt lat="43.388275" lon="-5.745154">
        <ele>202.2</ele>
        <time>2019-11-24T16:52:46Z</time>
      </trkpt>
      <trkpt lat="43.388276" lon="-5.745247">
        <ele>202.2</ele>
        <time>2019-11-24T16:52:47Z</time>
      </trkpt>
      <trkpt lat="43.388292" lon="-5.745337">
        <ele>201.8</ele>
        <time>2019-11-24T16:52:48Z</time>
      </trkpt>
      <trkpt lat="43.388322" lon="-5.745421">
        <ele>202.8</ele>
        <time>2019-11-24T16:52:49Z</time>
      </trkpt>
      <trkpt lat="43.38836" lon="-5.745501">
        <ele>203</ele>
        <time>2019-11-24T16:52:50Z</time>
      </trkpt>
      <trkpt lat="43.388402" lon="-5.745577">
        <ele>203</ele>
        <time>2019-11-24T16:52:51Z</time>
      </trkpt>
      <trkpt lat="43.388446" lon="-5.745651">
        <ele>203.2</ele>
        <time>2019-11-24T16:52:52Z</time>
      </trkpt>
      <trkpt lat="43.388488" lon="-5.745725">
        <ele>203.6</ele>
        <time>2019-11-24T16:52:53Z</time>
      </trkpt>
      <trkpt lat="43.388531" lon="-5.745797">
        <ele>204</ele>
        <time>2019-11-24T16:52:54Z</time>
      </trkpt>
      <trkpt lat="43.388573" lon="-5.745868">
        <ele>203.8</ele>
        <time>2019-11-24T16:52:55Z</time>
      </trkpt>
      <trkpt lat="43.388615" lon="-5.745939">
        <ele>203.8</ele>
        <time>2019-11-24T16:52:56Z</time>
      </trkpt>
      <trkpt lat="43.388657" lon="-5.74601">
        <ele>203.8</ele>
        <time>2019-11-24T16:52:57Z</time>
      </trkpt>
      <trkpt lat="43.3887" lon="-5.746083">
        <ele>204</ele>
        <time>2019-11-24T16:52:58Z</time>
      </trkpt>
      <trkpt lat="43.388742" lon="-5.746155">
        <ele>204.2</ele>
        <time>2019-11-24T16:52:59Z</time>
      </trkpt>
      <trkpt lat="43.388785" lon="-5.746228">
        <ele>204.8</ele>
        <time>2019-11-24T16:53:00Z</time>
      </trkpt>
      <trkpt lat="43.388828" lon="-5.746301">
        <ele>204.2</ele>
        <time>2019-11-24T16:53:01Z</time>
      </trkpt>
      <trkpt lat="43.388871" lon="-5.746375">
        <ele>204.4</ele>
        <time>2019-11-24T16:53:02Z</time>
      </trkpt>
      <trkpt lat="43.388914" lon="-5.746449">
        <ele>204.8</ele>
        <time>2019-11-24T16:53:03Z</time>
      </trkpt>
      <trkpt lat="43.388958" lon="-5.746523">
        <ele>205.4</ele>
        <time>2019-11-24T16:53:04Z</time>
      </trkpt>
      <trkpt lat="43.389002" lon="-5.746598">
        <ele>204.6</ele>
        <time>2019-11-24T16:53:05Z</time>
      </trkpt>
      <trkpt lat="43.389047" lon="-5.746673">
        <ele>204.6</ele>
        <time>2019-11-24T16:53:06Z</time>
      </trkpt>
      <trkpt lat="43.389091" lon="-5.74675">
        <ele>204</ele>
        <time>2019-11-24T16:53:07Z</time>
      </trkpt>
      <trkpt lat="43.389134" lon="-5.746828">
        <ele>205.2</ele>
        <time>2019-11-24T16:53:08Z</time>
      </trkpt>
      <trkpt lat="43.389178" lon="-5.746906">
        <ele>204.6</ele>
        <time>2019-11-24T16:53:09Z</time>
      </trkpt>
      <trkpt lat="43.389222" lon="-5.746985">
        <ele>204.8</ele>
        <time>2019-11-24T16:53:10Z</time>
      </trkpt>
      <trkpt lat="43.389267" lon="-5.747063">
        <ele>205</ele>
        <time>2019-11-24T16:53:11Z</time>
      </trkpt>
      <trkpt lat="43.389312" lon="-5.747144">
        <ele>204.2</ele>
        <time>2019-11-24T16:53:12Z</time>
      </trkpt>
      <trkpt lat="43.389357" lon="-5.747224">
        <ele>204.6</ele>
        <time>2019-11-24T16:53:13Z</time>
      </trkpt>
      <trkpt lat="43.389403" lon="-5.747307">
        <ele>204.8</ele>
        <time>2019-11-24T16:53:14Z</time>
      </trkpt>
      <trkpt lat="43.389449" lon="-5.74739">
        <ele>204</ele>
        <time>2019-11-24T16:53:15Z</time>
      </trkpt>
      <trkpt lat="43.389494" lon="-5.747475">
        <ele>204.2</ele>
        <time>2019-11-24T16:53:16Z</time>
      </trkpt>
      <trkpt lat="43.389538" lon="-5.747561">
        <ele>203.6</ele>
        <time>2019-11-24T16:53:17Z</time>
      </trkpt>
      <trkpt lat="43.389581" lon="-5.747651">
        <ele>203.6</ele>
        <time>2019-11-24T16:53:18Z</time>
      </trkpt>
      <trkpt lat="43.389622" lon="-5.747744">
        <ele>204.4</ele>
        <time>2019-11-24T16:53:19Z</time>
      </trkpt>
      <trkpt lat="43.389662" lon="-5.747842">
        <ele>203.6</ele>
        <time>2019-11-24T16:53:20Z</time>
      </trkpt>
      <trkpt lat="43.389699" lon="-5.747943">
        <ele>203</ele>
        <time>2019-11-24T16:53:21Z</time>
      </trkpt>
      <trkpt lat="43.389735" lon="-5.748047">
        <ele>202.8</ele>
        <time>2019-11-24T16:53:22Z</time>
      </trkpt>
      <trkpt lat="43.389768" lon="-5.748154">
        <ele>201.2</ele>
        <time>2019-11-24T16:53:23Z</time>
      </trkpt>
      <trkpt lat="43.389803" lon="-5.748262">
        <ele>202.2</ele>
        <time>2019-11-24T16:53:24Z</time>
      </trkpt>
      <trkpt lat="43.389838" lon="-5.748372">
        <ele>202</ele>
        <time>2019-11-24T16:53:25Z</time>
      </trkpt>
      <trkpt lat="43.389874" lon="-5.748483">
        <ele>200.6</ele>
        <time>2019-11-24T16:53:26Z</time>
      </trkpt>
      <trkpt lat="43.389909" lon="-5.748596">
        <ele>199.4</ele>
        <time>2019-11-24T16:53:27Z</time>
      </trkpt>
      <trkpt lat="43.389946" lon="-5.74871">
        <ele>199.6</ele>
        <time>2019-11-24T16:53:28Z</time>
      </trkpt>
      <trkpt lat="43.389983" lon="-5.748826">
        <ele>199.6</ele>
        <time>2019-11-24T16:53:29Z</time>
      </trkpt>
      <trkpt lat="43.390021" lon="-5.748945">
        <ele>199.4</ele>
        <time>2019-11-24T16:53:30Z</time>
      </trkpt>
      <trkpt lat="43.390058" lon="-5.749066">
        <ele>198</ele>
        <time>2019-11-24T16:53:31Z</time>
      </trkpt>
      <trkpt lat="43.390096" lon="-5.749187">
        <ele>198</ele>
        <time>2019-11-24T16:53:32Z</time>
      </trkpt>
      <trkpt lat="43.390136" lon="-5.749308">
        <ele>197</ele>
        <time>2019-11-24T16:53:33Z</time>
      </trkpt>
      <trkpt lat="43.390175" lon="-5.74943">
        <ele>196.6</ele>
        <time>2019-11-24T16:53:34Z</time>
      </trkpt>
      <trkpt lat="43.390213" lon="-5.749553">
        <ele>196.6</ele>
        <time>2019-11-24T16:53:35Z</time>
      </trkpt>
      <trkpt lat="43.390252" lon="-5.749676">
        <ele>197.2</ele>
        <time>2019-11-24T16:53:36Z</time>
      </trkpt>
      <trkpt lat="43.390293" lon="-5.7498">
        <ele>195.4</ele>
        <time>2019-11-24T16:53:37Z</time>
      </trkpt>
      <trkpt lat="43.390332" lon="-5.749925">
        <ele>195.2</ele>
        <time>2019-11-24T16:53:38Z</time>
      </trkpt>
      <trkpt lat="43.390372" lon="-5.75005">
        <ele>194.6</ele>
        <time>2019-11-24T16:53:39Z</time>
      </trkpt>
      <trkpt lat="43.390411" lon="-5.750176">
        <ele>194.8</ele>
        <time>2019-11-24T16:53:40Z</time>
      </trkpt>
      <trkpt lat="43.39045" lon="-5.750301">
        <ele>194.6</ele>
        <time>2019-11-24T16:53:41Z</time>
      </trkpt>
      <trkpt lat="43.39049" lon="-5.750427">
        <ele>192.8</ele>
        <time>2019-11-24T16:53:42Z</time>
      </trkpt>
      <trkpt lat="43.390528" lon="-5.750551">
        <ele>193.2</ele>
        <time>2019-11-24T16:53:43Z</time>
      </trkpt>
      <trkpt lat="43.390567" lon="-5.750674">
        <ele>192.6</ele>
        <time>2019-11-24T16:53:44Z</time>
      </trkpt>
      <trkpt lat="43.390606" lon="-5.750796">
        <ele>191.8</ele>
        <time>2019-11-24T16:53:45Z</time>
      </trkpt>
      <trkpt lat="43.390645" lon="-5.750918">
        <ele>191.8</ele>
        <time>2019-11-24T16:53:46Z</time>
      </trkpt>
      <trkpt lat="43.390684" lon="-5.751042">
        <ele>191.2</ele>
        <time>2019-11-24T16:53:47Z</time>
      </trkpt>
      <trkpt lat="43.390723" lon="-5.751167">
        <ele>191</ele>
        <time>2019-11-24T16:53:48Z</time>
      </trkpt>
      <trkpt lat="43.390761" lon="-5.751292">
        <ele>190.6</ele>
        <time>2019-11-24T16:53:49Z</time>
      </trkpt>
      <trkpt lat="43.3908" lon="-5.751418">
        <ele>190.2</ele>
        <time>2019-11-24T16:53:50Z</time>
      </trkpt>
      <trkpt lat="43.390839" lon="-5.751543">
        <ele>189.4</ele>
        <time>2019-11-24T16:53:51Z</time>
      </trkpt>
      <trkpt lat="43.390878" lon="-5.751667">
        <ele>189.2</ele>
        <time>2019-11-24T16:53:52Z</time>
      </trkpt>
      <trkpt lat="43.390921" lon="-5.751789">
        <ele>189.4</ele>
        <time>2019-11-24T16:53:53Z</time>
      </trkpt>
      <trkpt lat="43.390969" lon="-5.751906">
        <ele>188.8</ele>
        <time>2019-11-24T16:53:54Z</time>
      </trkpt>
      <trkpt lat="43.391027" lon="-5.752014">
        <ele>188.6</ele>
        <time>2019-11-24T16:53:55Z</time>
      </trkpt>
      <trkpt lat="43.391091" lon="-5.752113">
        <ele>188.8</ele>
        <time>2019-11-24T16:53:56Z</time>
      </trkpt>
      <trkpt lat="43.391159" lon="-5.752206">
        <ele>188.4</ele>
        <time>2019-11-24T16:53:57Z</time>
      </trkpt>
      <trkpt lat="43.391233" lon="-5.752287">
        <ele>188.4</ele>
        <time>2019-11-24T16:53:58Z</time>
      </trkpt>
      <trkpt lat="43.39131" lon="-5.752357">
        <ele>188.8</ele>
        <time>2019-11-24T16:53:59Z</time>
      </trkpt>
      <trkpt lat="43.391384" lon="-5.752429">
        <ele>188.8</ele>
        <time>2019-11-24T16:54:00Z</time>
      </trkpt>
      <trkpt lat="43.391444" lon="-5.752517">
        <ele>188.2</ele>
        <time>2019-11-24T16:54:01Z</time>
      </trkpt>
      <trkpt lat="43.391484" lon="-5.752618">
        <ele>188.6</ele>
        <time>2019-11-24T16:54:02Z</time>
      </trkpt>
      <trkpt lat="43.391504" lon="-5.752729">
        <ele>189</ele>
        <time>2019-11-24T16:54:03Z</time>
      </trkpt>
      <trkpt lat="43.391506" lon="-5.752843">
        <ele>188.6</ele>
        <time>2019-11-24T16:54:04Z</time>
      </trkpt>
      <trkpt lat="43.391496" lon="-5.752957">
        <ele>188.6</ele>
        <time>2019-11-24T16:54:05Z</time>
      </trkpt>
      <trkpt lat="43.391484" lon="-5.753069">
        <ele>189.2</ele>
        <time>2019-11-24T16:54:06Z</time>
      </trkpt>
      <trkpt lat="43.391474" lon="-5.753183">
        <ele>189</ele>
        <time>2019-11-24T16:54:07Z</time>
      </trkpt>
      <trkpt lat="43.39147" lon="-5.753297">
        <ele>189.4</ele>
        <time>2019-11-24T16:54:08Z</time>
      </trkpt>
      <trkpt lat="43.391476" lon="-5.75341">
        <ele>190</ele>
        <time>2019-11-24T16:54:09Z</time>
      </trkpt>
      <trkpt lat="43.39149" lon="-5.753519">
        <ele>191.2</ele>
        <time>2019-11-24T16:54:10Z</time>
      </trkpt>
      <trkpt lat="43.39151" lon="-5.753624">
        <ele>191</ele>
        <time>2019-11-24T16:54:11Z</time>
      </trkpt>
      <trkpt lat="43.391535" lon="-5.753727">
        <ele>190.4</ele>
        <time>2019-11-24T16:54:12Z</time>
      </trkpt>
      <trkpt lat="43.391563" lon="-5.753827">
        <ele>191.4</ele>
        <time>2019-11-24T16:54:13Z</time>
      </trkpt>
      <trkpt lat="43.391591" lon="-5.753923">
        <ele>190.8</ele>
        <time>2019-11-24T16:54:14Z</time>
      </trkpt>
      <trkpt lat="43.39162" lon="-5.754018">
        <ele>190.6</ele>
        <time>2019-11-24T16:54:15Z</time>
      </trkpt>
      <trkpt lat="43.391648" lon="-5.75411">
        <ele>191</ele>
        <time>2019-11-24T16:54:16Z</time>
      </trkpt>
      <trkpt lat="43.391676" lon="-5.7542">
        <ele>191.2</ele>
        <time>2019-11-24T16:54:17Z</time>
      </trkpt>
      <trkpt lat="43.391703" lon="-5.754289">
        <ele>192</ele>
        <time>2019-11-24T16:54:18Z</time>
      </trkpt>
      <trkpt lat="43.391731" lon="-5.754377">
        <ele>191.8</ele>
        <time>2019-11-24T16:54:19Z</time>
      </trkpt>
      <trkpt lat="43.391759" lon="-5.754464">
        <ele>192</ele>
        <time>2019-11-24T16:54:20Z</time>
      </trkpt>
      <trkpt lat="43.391787" lon="-5.754549">
        <ele>191.6</ele>
        <time>2019-11-24T16:54:21Z</time>
      </trkpt>
      <trkpt lat="43.391815" lon="-5.754634">
        <ele>192.2</ele>
        <time>2019-11-24T16:54:22Z</time>
      </trkpt>
      <trkpt lat="43.391843" lon="-5.754719">
        <ele>192.2</ele>
        <time>2019-11-24T16:54:23Z</time>
      </trkpt>
      <trkpt lat="43.391871" lon="-5.754803">
        <ele>192.6</ele>
        <time>2019-11-24T16:54:24Z</time>
      </trkpt>
      <trkpt lat="43.391898" lon="-5.754887">
        <ele>193.4</ele>
        <time>2019-11-24T16:54:25Z</time>
      </trkpt>
      <trkpt lat="43.391926" lon="-5.754971">
        <ele>193.4</ele>
        <time>2019-11-24T16:54:26Z</time>
      </trkpt>
      <trkpt lat="43.391954" lon="-5.755054">
        <ele>193</ele>
        <time>2019-11-24T16:54:27Z</time>
      </trkpt>
      <trkpt lat="43.391981" lon="-5.755138">
        <ele>193.6</ele>
        <time>2019-11-24T16:54:28Z</time>
      </trkpt>
      <trkpt lat="43.392008" lon="-5.755222">
        <ele>194.2</ele>
        <time>2019-11-24T16:54:29Z</time>
      </trkpt>
      <trkpt lat="43.392033" lon="-5.755304">
        <ele>194.4</ele>
        <time>2019-11-24T16:54:30Z</time>
      </trkpt>
      <trkpt lat="43.392059" lon="-5.755386">
        <ele>194.6</ele>
        <time>2019-11-24T16:54:31Z</time>
      </trkpt>
      <trkpt lat="43.392084" lon="-5.755465">
        <ele>195</ele>
        <time>2019-11-24T16:54:32Z</time>
      </trkpt>
      <trkpt lat="43.392109" lon="-5.755544">
        <ele>195.2</ele>
        <time>2019-11-24T16:54:33Z</time>
      </trkpt>
      <trkpt lat="43.392134" lon="-5.755623">
        <ele>195.2</ele>
        <time>2019-11-24T16:54:34Z</time>
      </trkpt>
      <trkpt lat="43.392157" lon="-5.7557">
        <ele>195.8</ele>
        <time>2019-11-24T16:54:35Z</time>
      </trkpt>
      <trkpt lat="43.39218" lon="-5.755776">
        <ele>195.8</ele>
        <time>2019-11-24T16:54:36Z</time>
      </trkpt>
      <trkpt lat="43.392204" lon="-5.755851">
        <ele>195.8</ele>
        <time>2019-11-24T16:54:37Z</time>
      </trkpt>
      <trkpt lat="43.392227" lon="-5.755927">
        <ele>196.8</ele>
        <time>2019-11-24T16:54:38Z</time>
      </trkpt>
      <trkpt lat="43.392251" lon="-5.756003">
        <ele>197</ele>
        <time>2019-11-24T16:54:39Z</time>
      </trkpt>
      <trkpt lat="43.392275" lon="-5.756078">
        <ele>197</ele>
        <time>2019-11-24T16:54:40Z</time>
      </trkpt>
      <trkpt lat="43.392298" lon="-5.756152">
        <ele>197</ele>
        <time>2019-11-24T16:54:41Z</time>
      </trkpt>
      <trkpt lat="43.392321" lon="-5.756224">
        <ele>197.8</ele>
        <time>2019-11-24T16:54:42Z</time>
      </trkpt>
      <trkpt lat="43.392344" lon="-5.756295">
        <ele>198</ele>
        <time>2019-11-24T16:54:43Z</time>
      </trkpt>
      <trkpt lat="43.392366" lon="-5.756367">
        <ele>198.4</ele>
        <time>2019-11-24T16:54:44Z</time>
      </trkpt>
      <trkpt lat="43.39239" lon="-5.756439">
        <ele>198.8</ele>
        <time>2019-11-24T16:54:45Z</time>
      </trkpt>
      <trkpt lat="43.392413" lon="-5.756509">
        <ele>199.2</ele>
        <time>2019-11-24T16:54:46Z</time>
      </trkpt>
      <trkpt lat="43.392435" lon="-5.756581">
        <ele>199.2</ele>
        <time>2019-11-24T16:54:47Z</time>
      </trkpt>
      <trkpt lat="43.392458" lon="-5.75665">
        <ele>199.6</ele>
        <time>2019-11-24T16:54:48Z</time>
      </trkpt>
      <trkpt lat="43.39248" lon="-5.756719">
        <ele>200.4</ele>
        <time>2019-11-24T16:54:49Z</time>
      </trkpt>
      <trkpt lat="43.392502" lon="-5.756787">
        <ele>200.6</ele>
        <time>2019-11-24T16:54:50Z</time>
      </trkpt>
      <trkpt lat="43.392523" lon="-5.756857">
        <ele>200.6</ele>
        <time>2019-11-24T16:54:51Z</time>
      </trkpt>
      <trkpt lat="43.392545" lon="-5.756925">
        <ele>201</ele>
        <time>2019-11-24T16:54:52Z</time>
      </trkpt>
      <trkpt lat="43.392568" lon="-5.756992">
        <ele>201.8</ele>
        <time>2019-11-24T16:54:53Z</time>
      </trkpt>
      <trkpt lat="43.39259" lon="-5.757061">
        <ele>202</ele>
        <time>2019-11-24T16:54:54Z</time>
      </trkpt>
      <trkpt lat="43.39261" lon="-5.757129">
        <ele>202</ele>
        <time>2019-11-24T16:54:55Z</time>
      </trkpt>
      <trkpt lat="43.392632" lon="-5.757198">
        <ele>202.4</ele>
        <time>2019-11-24T16:54:56Z</time>
      </trkpt>
      <trkpt lat="43.392654" lon="-5.757267">
        <ele>202.8</ele>
        <time>2019-11-24T16:54:57Z</time>
      </trkpt>
      <trkpt lat="43.392676" lon="-5.757336">
        <ele>203.2</ele>
        <time>2019-11-24T16:54:58Z</time>
      </trkpt>
      <trkpt lat="43.392698" lon="-5.757407">
        <ele>203.6</ele>
        <time>2019-11-24T16:54:59Z</time>
      </trkpt>
      <trkpt lat="43.392719" lon="-5.757478">
        <ele>204</ele>
        <time>2019-11-24T16:55:00Z</time>
      </trkpt>
      <trkpt lat="43.39274" lon="-5.757549">
        <ele>204.2</ele>
        <time>2019-11-24T16:55:01Z</time>
      </trkpt>
      <trkpt lat="43.39276" lon="-5.75762">
        <ele>204.6</ele>
        <time>2019-11-24T16:55:02Z</time>
      </trkpt>
      <trkpt lat="43.392781" lon="-5.757693">
        <ele>204.6</ele>
        <time>2019-11-24T16:55:03Z</time>
      </trkpt>
      <trkpt lat="43.392802" lon="-5.757767">
        <ele>204.6</ele>
        <time>2019-11-24T16:55:04Z</time>
      </trkpt>
      <trkpt lat="43.392823" lon="-5.757843">
        <ele>205.2</ele>
        <time>2019-11-24T16:55:05Z</time>
      </trkpt>
      <trkpt lat="43.392844" lon="-5.75792">
        <ele>205</ele>
        <time>2019-11-24T16:55:06Z</time>
      </trkpt>
      <trkpt lat="43.392866" lon="-5.757997">
        <ele>204.6</ele>
        <time>2019-11-24T16:55:07Z</time>
      </trkpt>
      <trkpt lat="43.392887" lon="-5.758075">
        <ele>205.4</ele>
        <time>2019-11-24T16:55:08Z</time>
      </trkpt>
      <trkpt lat="43.392908" lon="-5.758153">
        <ele>205.8</ele>
        <time>2019-11-24T16:55:09Z</time>
      </trkpt>
      <trkpt lat="43.392929" lon="-5.758232">
        <ele>205.8</ele>
        <time>2019-11-24T16:55:10Z</time>
      </trkpt>
      <trkpt lat="43.39295" lon="-5.758312">
        <ele>206</ele>
        <time>2019-11-24T16:55:11Z</time>
      </trkpt>
      <trkpt lat="43.392971" lon="-5.758394">
        <ele>206.2</ele>
        <time>2019-11-24T16:55:12Z</time>
      </trkpt>
      <trkpt lat="43.392993" lon="-5.758477">
        <ele>206.2</ele>
        <time>2019-11-24T16:55:13Z</time>
      </trkpt>
      <trkpt lat="43.393014" lon="-5.758562">
        <ele>206.4</ele>
        <time>2019-11-24T16:55:14Z</time>
      </trkpt>
      <trkpt lat="43.393035" lon="-5.758646">
        <ele>206.2</ele>
        <time>2019-11-24T16:55:15Z</time>
      </trkpt>
      <trkpt lat="43.393056" lon="-5.758731">
        <ele>206.2</ele>
        <time>2019-11-24T16:55:16Z</time>
      </trkpt>
      <trkpt lat="43.393076" lon="-5.758817">
        <ele>206.4</ele>
        <time>2019-11-24T16:55:17Z</time>
      </trkpt>
      <trkpt lat="43.393096" lon="-5.758904">
        <ele>206.2</ele>
        <time>2019-11-24T16:55:18Z</time>
      </trkpt>
      <trkpt lat="43.393116" lon="-5.758992">
        <ele>206</ele>
        <time>2019-11-24T16:55:19Z</time>
      </trkpt>
      <trkpt lat="43.393137" lon="-5.759082">
        <ele>206.2</ele>
        <time>2019-11-24T16:55:20Z</time>
      </trkpt>
      <trkpt lat="43.393157" lon="-5.759172">
        <ele>206</ele>
        <time>2019-11-24T16:55:21Z</time>
      </trkpt>
      <trkpt lat="43.393178" lon="-5.759264">
        <ele>205.6</ele>
        <time>2019-11-24T16:55:22Z</time>
      </trkpt>
      <trkpt lat="43.393198" lon="-5.759358">
        <ele>205.6</ele>
        <time>2019-11-24T16:55:23Z</time>
      </trkpt>
      <trkpt lat="43.393216" lon="-5.759453">
        <ele>205</ele>
        <time>2019-11-24T16:55:24Z</time>
      </trkpt>
      <trkpt lat="43.393236" lon="-5.759551">
        <ele>204.6</ele>
        <time>2019-11-24T16:55:25Z</time>
      </trkpt>
      <trkpt lat="43.393257" lon="-5.759652">
        <ele>204.6</ele>
        <time>2019-11-24T16:55:26Z</time>
      </trkpt>
      <trkpt lat="43.393278" lon="-5.759756">
        <ele>203.4</ele>
        <time>2019-11-24T16:55:27Z</time>
      </trkpt>
      <trkpt lat="43.393299" lon="-5.759861">
        <ele>203.4</ele>
        <time>2019-11-24T16:55:28Z</time>
      </trkpt>
      <trkpt lat="43.393321" lon="-5.75997">
        <ele>203.2</ele>
        <time>2019-11-24T16:55:29Z</time>
      </trkpt>
      <trkpt lat="43.393343" lon="-5.760082">
        <ele>203.6</ele>
        <time>2019-11-24T16:55:30Z</time>
      </trkpt>
      <trkpt lat="43.393366" lon="-5.760197">
        <ele>202.4</ele>
        <time>2019-11-24T16:55:31Z</time>
      </trkpt>
      <trkpt lat="43.39339" lon="-5.760314">
        <ele>202</ele>
        <time>2019-11-24T16:55:32Z</time>
      </trkpt>
      <trkpt lat="43.393415" lon="-5.760433">
        <ele>201.8</ele>
        <time>2019-11-24T16:55:33Z</time>
      </trkpt>
      <trkpt lat="43.393441" lon="-5.760555">
        <ele>199</ele>
        <time>2019-11-24T16:55:34Z</time>
      </trkpt>
      <trkpt lat="43.393466" lon="-5.760678">
        <ele>199.2</ele>
        <time>2019-11-24T16:55:35Z</time>
      </trkpt>
      <trkpt lat="43.393491" lon="-5.760803">
        <ele>198.8</ele>
        <time>2019-11-24T16:55:36Z</time>
      </trkpt>
      <trkpt lat="43.393517" lon="-5.760927">
        <ele>199.2</ele>
        <time>2019-11-24T16:55:37Z</time>
      </trkpt>
      <trkpt lat="43.393545" lon="-5.761053">
        <ele>199</ele>
        <time>2019-11-24T16:55:38Z</time>
      </trkpt>
      <trkpt lat="43.393573" lon="-5.76118">
        <ele>199.2</ele>
        <time>2019-11-24T16:55:39Z</time>
      </trkpt>
      <trkpt lat="43.393601" lon="-5.761308">
        <ele>199.8</ele>
        <time>2019-11-24T16:55:40Z</time>
      </trkpt>
      <trkpt lat="43.393628" lon="-5.761438">
        <ele>197.8</ele>
        <time>2019-11-24T16:55:41Z</time>
      </trkpt>
      <trkpt lat="43.393655" lon="-5.76157">
        <ele>197</ele>
        <time>2019-11-24T16:55:42Z</time>
      </trkpt>
      <trkpt lat="43.393682" lon="-5.761704">
        <ele>196.4</ele>
        <time>2019-11-24T16:55:43Z</time>
      </trkpt>
      <trkpt lat="43.393709" lon="-5.761839">
        <ele>196.6</ele>
        <time>2019-11-24T16:55:44Z</time>
      </trkpt>
      <trkpt lat="43.393736" lon="-5.761974">
        <ele>195.8</ele>
        <time>2019-11-24T16:55:45Z</time>
      </trkpt>
      <trkpt lat="43.393765" lon="-5.762109">
        <ele>195.2</ele>
        <time>2019-11-24T16:55:46Z</time>
      </trkpt>
      <trkpt lat="43.393794" lon="-5.762245">
        <ele>194.4</ele>
        <time>2019-11-24T16:55:47Z</time>
      </trkpt>
      <trkpt lat="43.393822" lon="-5.762382">
        <ele>194.2</ele>
        <time>2019-11-24T16:55:48Z</time>
      </trkpt>
      <trkpt lat="43.393851" lon="-5.762519">
        <ele>194.2</ele>
        <time>2019-11-24T16:55:49Z</time>
      </trkpt>
      <trkpt lat="43.39388" lon="-5.762657">
        <ele>192.6</ele>
        <time>2019-11-24T16:55:50Z</time>
      </trkpt>
      <trkpt lat="43.393909" lon="-5.762796">
        <ele>191.8</ele>
        <time>2019-11-24T16:55:51Z</time>
      </trkpt>
      <trkpt lat="43.393938" lon="-5.762936">
        <ele>191.8</ele>
        <time>2019-11-24T16:55:52Z</time>
      </trkpt>
      <trkpt lat="43.393968" lon="-5.763075">
        <ele>191.2</ele>
        <time>2019-11-24T16:55:53Z</time>
      </trkpt>
      <trkpt lat="43.393997" lon="-5.763214">
        <ele>191.6</ele>
        <time>2019-11-24T16:55:54Z</time>
      </trkpt>
      <trkpt lat="43.394026" lon="-5.763354">
        <ele>190.6</ele>
        <time>2019-11-24T16:55:55Z</time>
      </trkpt>
      <trkpt lat="43.394056" lon="-5.763494">
        <ele>190.8</ele>
        <time>2019-11-24T16:55:56Z</time>
      </trkpt>
      <trkpt lat="43.394085" lon="-5.763634">
        <ele>190.2</ele>
        <time>2019-11-24T16:55:57Z</time>
      </trkpt>
      <trkpt lat="43.394115" lon="-5.763776">
        <ele>189.6</ele>
        <time>2019-11-24T16:55:58Z</time>
      </trkpt>
      <trkpt lat="43.394143" lon="-5.763917">
        <ele>189.6</ele>
        <time>2019-11-24T16:55:59Z</time>
      </trkpt>
      <trkpt lat="43.394172" lon="-5.764055">
        <ele>189.4</ele>
        <time>2019-11-24T16:56:00Z</time>
      </trkpt>
      <trkpt lat="43.394199" lon="-5.764194">
        <ele>189</ele>
        <time>2019-11-24T16:56:01Z</time>
      </trkpt>
      <trkpt lat="43.394227" lon="-5.764332">
        <ele>189.2</ele>
        <time>2019-11-24T16:56:02Z</time>
      </trkpt>
      <trkpt lat="43.394255" lon="-5.76447">
        <ele>189</ele>
        <time>2019-11-24T16:56:03Z</time>
      </trkpt>
      <trkpt lat="43.394283" lon="-5.764608">
        <ele>188.8</ele>
        <time>2019-11-24T16:56:04Z</time>
      </trkpt>
      <trkpt lat="43.394311" lon="-5.764745">
        <ele>188.2</ele>
        <time>2019-11-24T16:56:05Z</time>
      </trkpt>
      <trkpt lat="43.394339" lon="-5.764882">
        <ele>188.4</ele>
        <time>2019-11-24T16:56:06Z</time>
      </trkpt>
      <trkpt lat="43.394369" lon="-5.765017">
        <ele>188.8</ele>
        <time>2019-11-24T16:56:07Z</time>
      </trkpt>
      <trkpt lat="43.394398" lon="-5.76515">
        <ele>189.2</ele>
        <time>2019-11-24T16:56:08Z</time>
      </trkpt>
      <trkpt lat="43.394426" lon="-5.765283">
        <ele>188.6</ele>
        <time>2019-11-24T16:56:09Z</time>
      </trkpt>
      <trkpt lat="43.394453" lon="-5.765414">
        <ele>188.6</ele>
        <time>2019-11-24T16:56:10Z</time>
      </trkpt>
      <trkpt lat="43.39448" lon="-5.765545">
        <ele>188.6</ele>
        <time>2019-11-24T16:56:11Z</time>
      </trkpt>
      <trkpt lat="43.394508" lon="-5.765673">
        <ele>188.6</ele>
        <time>2019-11-24T16:56:12Z</time>
      </trkpt>
      <trkpt lat="43.394535" lon="-5.765802">
        <ele>188.4</ele>
        <time>2019-11-24T16:56:13Z</time>
      </trkpt>
      <trkpt lat="43.394563" lon="-5.765929">
        <ele>187.6</ele>
        <time>2019-11-24T16:56:14Z</time>
      </trkpt>
      <trkpt lat="43.39459" lon="-5.766056">
        <ele>187.8</ele>
        <time>2019-11-24T16:56:15Z</time>
      </trkpt>
      <trkpt lat="43.394617" lon="-5.766183">
        <ele>186.8</ele>
        <time>2019-11-24T16:56:16Z</time>
      </trkpt>
      <trkpt lat="43.394644" lon="-5.76631">
        <ele>188.6</ele>
        <time>2019-11-24T16:56:17Z</time>
      </trkpt>
      <trkpt lat="43.39467" lon="-5.766436">
        <ele>188</ele>
        <time>2019-11-24T16:56:18Z</time>
      </trkpt>
      <trkpt lat="43.394696" lon="-5.766561">
        <ele>189</ele>
        <time>2019-11-24T16:56:19Z</time>
      </trkpt>
      <trkpt lat="43.394721" lon="-5.766686">
        <ele>188.2</ele>
        <time>2019-11-24T16:56:20Z</time>
      </trkpt>
      <trkpt lat="43.394746" lon="-5.766809">
        <ele>187.6</ele>
        <time>2019-11-24T16:56:21Z</time>
      </trkpt>
      <trkpt lat="43.394772" lon="-5.766932">
        <ele>187.2</ele>
        <time>2019-11-24T16:56:22Z</time>
      </trkpt>
      <trkpt lat="43.394797" lon="-5.767055">
        <ele>187</ele>
        <time>2019-11-24T16:56:23Z</time>
      </trkpt>
      <trkpt lat="43.394819" lon="-5.767178">
        <ele>187.4</ele>
        <time>2019-11-24T16:56:24Z</time>
      </trkpt>
      <trkpt lat="43.39484" lon="-5.767302">
        <ele>187</ele>
        <time>2019-11-24T16:56:25Z</time>
      </trkpt>
      <trkpt lat="43.394861" lon="-5.767426">
        <ele>186.8</ele>
        <time>2019-11-24T16:56:26Z</time>
      </trkpt>
      <trkpt lat="43.394882" lon="-5.767551">
        <ele>185.8</ele>
        <time>2019-11-24T16:56:27Z</time>
      </trkpt>
      <trkpt lat="43.394903" lon="-5.767676">
        <ele>185.6</ele>
        <time>2019-11-24T16:56:28Z</time>
      </trkpt>
      <trkpt lat="43.394924" lon="-5.767802">
        <ele>185.4</ele>
        <time>2019-11-24T16:56:29Z</time>
      </trkpt>
      <trkpt lat="43.394945" lon="-5.76793">
        <ele>184.2</ele>
        <time>2019-11-24T16:56:30Z</time>
      </trkpt>
      <trkpt lat="43.394964" lon="-5.768059">
        <ele>184.2</ele>
        <time>2019-11-24T16:56:31Z</time>
      </trkpt>
      <trkpt lat="43.394984" lon="-5.768191">
        <ele>185</ele>
        <time>2019-11-24T16:56:32Z</time>
      </trkpt>
      <trkpt lat="43.395003" lon="-5.768323">
        <ele>184.2</ele>
        <time>2019-11-24T16:56:33Z</time>
      </trkpt>
      <trkpt lat="43.395021" lon="-5.768455">
        <ele>184</ele>
        <time>2019-11-24T16:56:34Z</time>
      </trkpt>
      <trkpt lat="43.395039" lon="-5.768587">
        <ele>183.4</ele>
        <time>2019-11-24T16:56:35Z</time>
      </trkpt>
      <trkpt lat="43.395055" lon="-5.768722">
        <ele>181.8</ele>
        <time>2019-11-24T16:56:36Z</time>
      </trkpt>
      <trkpt lat="43.395071" lon="-5.768859">
        <ele>181</ele>
        <time>2019-11-24T16:56:37Z</time>
      </trkpt>
      <trkpt lat="43.395088" lon="-5.768997">
        <ele>181</ele>
        <time>2019-11-24T16:56:38Z</time>
      </trkpt>
      <trkpt lat="43.395106" lon="-5.769138">
        <ele>181.2</ele>
        <time>2019-11-24T16:56:39Z</time>
      </trkpt>
      <trkpt lat="43.395123" lon="-5.769282">
        <ele>180.4</ele>
        <time>2019-11-24T16:56:40Z</time>
      </trkpt>
      <trkpt lat="43.395141" lon="-5.769428">
        <ele>180</ele>
        <time>2019-11-24T16:56:41Z</time>
      </trkpt>
      <trkpt lat="43.395157" lon="-5.769576">
        <ele>179.6</ele>
        <time>2019-11-24T16:56:42Z</time>
      </trkpt>
      <trkpt lat="43.395173" lon="-5.769725">
        <ele>177.6</ele>
        <time>2019-11-24T16:56:43Z</time>
      </trkpt>
      <trkpt lat="43.395191" lon="-5.769875">
        <ele>177</ele>
        <time>2019-11-24T16:56:44Z</time>
      </trkpt>
      <trkpt lat="43.395213" lon="-5.770023">
        <ele>177</ele>
        <time>2019-11-24T16:56:45Z</time>
      </trkpt>
      <trkpt lat="43.395242" lon="-5.770166">
        <ele>177.4</ele>
        <time>2019-11-24T16:56:46Z</time>
      </trkpt>
      <trkpt lat="43.395275" lon="-5.770304">
        <ele>177.6</ele>
        <time>2019-11-24T16:56:47Z</time>
      </trkpt>
      <trkpt lat="43.395311" lon="-5.770438">
        <ele>177.2</ele>
        <time>2019-11-24T16:56:48Z</time>
      </trkpt>
      <trkpt lat="43.395348" lon="-5.770571">
        <ele>177.2</ele>
        <time>2019-11-24T16:56:49Z</time>
      </trkpt>
      <trkpt lat="43.395387" lon="-5.770704">
        <ele>176.4</ele>
        <time>2019-11-24T16:56:50Z</time>
      </trkpt>
      <trkpt lat="43.395428" lon="-5.770837">
        <ele>175.6</ele>
        <time>2019-11-24T16:56:51Z</time>
      </trkpt>
      <trkpt lat="43.395471" lon="-5.770972">
        <ele>174.8</ele>
        <time>2019-11-24T16:56:52Z</time>
      </trkpt>
      <trkpt lat="43.395515" lon="-5.771108">
        <ele>174.4</ele>
        <time>2019-11-24T16:56:53Z</time>
      </trkpt>
      <trkpt lat="43.395558" lon="-5.771245">
        <ele>174</ele>
        <time>2019-11-24T16:56:54Z</time>
      </trkpt>
      <trkpt lat="43.395601" lon="-5.771379">
        <ele>174.2</ele>
        <time>2019-11-24T16:56:55Z</time>
      </trkpt>
      <trkpt lat="43.395643" lon="-5.771512">
        <ele>174</ele>
        <time>2019-11-24T16:56:56Z</time>
      </trkpt>
      <trkpt lat="43.395684" lon="-5.771642">
        <ele>173.4</ele>
        <time>2019-11-24T16:56:57Z</time>
      </trkpt>
      <trkpt lat="43.395725" lon="-5.77177">
        <ele>173.8</ele>
        <time>2019-11-24T16:56:58Z</time>
      </trkpt>
      <trkpt lat="43.395766" lon="-5.771895">
        <ele>173.8</ele>
        <time>2019-11-24T16:56:59Z</time>
      </trkpt>
      <trkpt lat="43.395806" lon="-5.772018">
        <ele>174.8</ele>
        <time>2019-11-24T16:57:00Z</time>
      </trkpt>
      <trkpt lat="43.395846" lon="-5.772138">
        <ele>174.8</ele>
        <time>2019-11-24T16:57:01Z</time>
      </trkpt>
      <trkpt lat="43.395888" lon="-5.772255">
        <ele>174</ele>
        <time>2019-11-24T16:57:02Z</time>
      </trkpt>
      <trkpt lat="43.395932" lon="-5.772368">
        <ele>173.8</ele>
        <time>2019-11-24T16:57:03Z</time>
      </trkpt>
      <trkpt lat="43.395978" lon="-5.772478">
        <ele>174.2</ele>
        <time>2019-11-24T16:57:04Z</time>
      </trkpt>
      <trkpt lat="43.396028" lon="-5.772585">
        <ele>173.8</ele>
        <time>2019-11-24T16:57:05Z</time>
      </trkpt>
      <trkpt lat="43.39608" lon="-5.772689">
        <ele>173.4</ele>
        <time>2019-11-24T16:57:06Z</time>
      </trkpt>
      <trkpt lat="43.396134" lon="-5.77279">
        <ele>172.8</ele>
        <time>2019-11-24T16:57:07Z</time>
      </trkpt>
      <trkpt lat="43.396192" lon="-5.772884">
        <ele>173.2</ele>
        <time>2019-11-24T16:57:08Z</time>
      </trkpt>
      <trkpt lat="43.396252" lon="-5.772975">
        <ele>173</ele>
        <time>2019-11-24T16:57:09Z</time>
      </trkpt>
      <trkpt lat="43.396315" lon="-5.773061">
        <ele>173.6</ele>
        <time>2019-11-24T16:57:10Z</time>
      </trkpt>
      <trkpt lat="43.396378" lon="-5.773145">
        <ele>172.8</ele>
        <time>2019-11-24T16:57:11Z</time>
      </trkpt>
      <trkpt lat="43.396441" lon="-5.773225">
        <ele>173.2</ele>
        <time>2019-11-24T16:57:12Z</time>
      </trkpt>
      <trkpt lat="43.396505" lon="-5.773301">
        <ele>173</ele>
        <time>2019-11-24T16:57:13Z</time>
      </trkpt>
      <trkpt lat="43.39657" lon="-5.773374">
        <ele>173.2</ele>
        <time>2019-11-24T16:57:14Z</time>
      </trkpt>
      <trkpt lat="43.396636" lon="-5.773444">
        <ele>172.8</ele>
        <time>2019-11-24T16:57:15Z</time>
      </trkpt>
      <trkpt lat="43.396701" lon="-5.773514">
        <ele>173.2</ele>
        <time>2019-11-24T16:57:16Z</time>
      </trkpt>
      <trkpt lat="43.396765" lon="-5.773585">
        <ele>173.2</ele>
        <time>2019-11-24T16:57:17Z</time>
      </trkpt>
      <trkpt lat="43.396828" lon="-5.773655">
        <ele>173.2</ele>
        <time>2019-11-24T16:57:18Z</time>
      </trkpt>
      <trkpt lat="43.396889" lon="-5.773725">
        <ele>173.2</ele>
        <time>2019-11-24T16:57:19Z</time>
      </trkpt>
      <trkpt lat="43.396951" lon="-5.773793">
        <ele>173.2</ele>
        <time>2019-11-24T16:57:20Z</time>
      </trkpt>
      <trkpt lat="43.397012" lon="-5.773861">
        <ele>173</ele>
        <time>2019-11-24T16:57:21Z</time>
      </trkpt>
      <trkpt lat="43.397074" lon="-5.773927">
        <ele>173.2</ele>
        <time>2019-11-24T16:57:22Z</time>
      </trkpt>
      <trkpt lat="43.397135" lon="-5.773993">
        <ele>172.6</ele>
        <time>2019-11-24T16:57:23Z</time>
      </trkpt>
      <trkpt lat="43.397197" lon="-5.774062">
        <ele>171.6</ele>
        <time>2019-11-24T16:57:24Z</time>
      </trkpt>
      <trkpt lat="43.397261" lon="-5.774134">
        <ele>171.2</ele>
        <time>2019-11-24T16:57:25Z</time>
      </trkpt>
      <trkpt lat="43.397326" lon="-5.774204">
        <ele>170.6</ele>
        <time>2019-11-24T16:57:26Z</time>
      </trkpt>
      <trkpt lat="43.39739" lon="-5.774269">
        <ele>170</ele>
        <time>2019-11-24T16:57:27Z</time>
      </trkpt>
      <trkpt lat="43.397458" lon="-5.774314">
        <ele>170</ele>
        <time>2019-11-24T16:57:28Z</time>
      </trkpt>
      <trkpt lat="43.397529" lon="-5.774327">
        <ele>169.6</ele>
        <time>2019-11-24T16:57:29Z</time>
      </trkpt>
      <trkpt lat="43.397598" lon="-5.774314">
        <ele>169.6</ele>
        <time>2019-11-24T16:57:30Z</time>
      </trkpt>
      <trkpt lat="43.397665" lon="-5.774289">
        <ele>169.8</ele>
        <time>2019-11-24T16:57:31Z</time>
      </trkpt>
      <trkpt lat="43.397733" lon="-5.774271">
        <ele>170</ele>
        <time>2019-11-24T16:57:32Z</time>
      </trkpt>
      <trkpt lat="43.397801" lon="-5.774268">
        <ele>169.8</ele>
        <time>2019-11-24T16:57:33Z</time>
      </trkpt>
      <trkpt lat="43.397867" lon="-5.77427">
        <ele>170</ele>
        <time>2019-11-24T16:57:34Z</time>
      </trkpt>
      <trkpt lat="43.397933" lon="-5.77427">
        <ele>170.2</ele>
        <time>2019-11-24T16:57:35Z</time>
      </trkpt>
      <trkpt lat="43.397998" lon="-5.774269">
        <ele>169.8</ele>
        <time>2019-11-24T16:57:36Z</time>
      </trkpt>
      <trkpt lat="43.398063" lon="-5.774264">
        <ele>169.2</ele>
        <time>2019-11-24T16:57:37Z</time>
      </trkpt>
      <trkpt lat="43.398128" lon="-5.774253">
        <ele>168.2</ele>
        <time>2019-11-24T16:57:38Z</time>
      </trkpt>
      <trkpt lat="43.398194" lon="-5.774233">
        <ele>167.4</ele>
        <time>2019-11-24T16:57:39Z</time>
      </trkpt>
      <trkpt lat="43.39826" lon="-5.774207">
        <ele>167</ele>
        <time>2019-11-24T16:57:40Z</time>
      </trkpt>
      <trkpt lat="43.398326" lon="-5.774178">
        <ele>166.4</ele>
        <time>2019-11-24T16:57:41Z</time>
      </trkpt>
      <trkpt lat="43.398392" lon="-5.774148">
        <ele>165.8</ele>
        <time>2019-11-24T16:57:42Z</time>
      </trkpt>
      <trkpt lat="43.398459" lon="-5.774121">
        <ele>165</ele>
        <time>2019-11-24T16:57:43Z</time>
      </trkpt>
      <trkpt lat="43.398526" lon="-5.774082">
        <ele>164.4</ele>
        <time>2019-11-24T16:57:44Z</time>
      </trkpt>
      <trkpt lat="43.398588" lon="-5.774032">
        <ele>164</ele>
        <time>2019-11-24T16:57:45Z</time>
      </trkpt>
      <trkpt lat="43.398632" lon="-5.773961">
        <ele>164.6</ele>
        <time>2019-11-24T16:57:46Z</time>
      </trkpt>
      <trkpt lat="43.398663" lon="-5.773877">
        <ele>164.2</ele>
        <time>2019-11-24T16:57:47Z</time>
      </trkpt>
      <trkpt lat="43.398688" lon="-5.77379">
        <ele>164.2</ele>
        <time>2019-11-24T16:57:48Z</time>
      </trkpt>
      <trkpt lat="43.398716" lon="-5.773709">
        <ele>164.4</ele>
        <time>2019-11-24T16:57:49Z</time>
      </trkpt>
      <trkpt lat="43.398755" lon="-5.773643">
        <ele>163.8</ele>
        <time>2019-11-24T16:57:50Z</time>
      </trkpt>
      <trkpt lat="43.398806" lon="-5.773601">
        <ele>164.6</ele>
        <time>2019-11-24T16:57:51Z</time>
      </trkpt>
      <trkpt lat="43.398865" lon="-5.773585">
        <ele>164.8</ele>
        <time>2019-11-24T16:57:52Z</time>
      </trkpt>
      <trkpt lat="43.398922" lon="-5.773598">
        <ele>164.8</ele>
        <time>2019-11-24T16:57:53Z</time>
      </trkpt>
      <trkpt lat="43.398972" lon="-5.773632">
        <ele>165</ele>
        <time>2019-11-24T16:57:54Z</time>
      </trkpt>
      <trkpt lat="43.399013" lon="-5.773682">
        <ele>165.2</ele>
        <time>2019-11-24T16:57:55Z</time>
      </trkpt>
      <trkpt lat="43.399042" lon="-5.773747">
        <ele>165</ele>
        <time>2019-11-24T16:57:56Z</time>
      </trkpt>
      <trkpt lat="43.399055" lon="-5.773819">
        <ele>165</ele>
        <time>2019-11-24T16:57:57Z</time>
      </trkpt>
      <trkpt lat="43.399042" lon="-5.773888">
        <ele>165.2</ele>
        <time>2019-11-24T16:57:58Z</time>
      </trkpt>
      <trkpt lat="43.399012" lon="-5.773946">
        <ele>165.2</ele>
        <time>2019-11-24T16:57:59Z</time>
      </trkpt>
      <trkpt lat="43.398969" lon="-5.773991">
        <ele>165.2</ele>
        <time>2019-11-24T16:58:00Z</time>
      </trkpt>
      <trkpt lat="43.39892" lon="-5.774021">
        <ele>165</ele>
        <time>2019-11-24T16:58:01Z</time>
      </trkpt>
      <trkpt lat="43.398868" lon="-5.774031">
        <ele>165</ele>
        <time>2019-11-24T16:58:02Z</time>
      </trkpt>
      <trkpt lat="43.398817" lon="-5.774022">
        <ele>165</ele>
        <time>2019-11-24T16:58:03Z</time>
      </trkpt>
      <trkpt lat="43.398767" lon="-5.774011">
        <ele>165.2</ele>
        <time>2019-11-24T16:58:04Z</time>
      </trkpt>
      <trkpt lat="43.398716" lon="-5.774011">
        <ele>165</ele>
        <time>2019-11-24T16:58:05Z</time>
      </trkpt>
      <trkpt lat="43.398664" lon="-5.774024">
        <ele>165</ele>
        <time>2019-11-24T16:58:06Z</time>
      </trkpt>
      <trkpt lat="43.398613" lon="-5.774047">
        <ele>165</ele>
        <time>2019-11-24T16:58:07Z</time>
      </trkpt>
      <trkpt lat="43.398562" lon="-5.774071">
        <ele>164.8</ele>
        <time>2019-11-24T16:58:08Z</time>
      </trkpt>
      <trkpt lat="43.398509" lon="-5.774097">
        <ele>165.6</ele>
        <time>2019-11-24T16:58:09Z</time>
      </trkpt>
      <trkpt lat="43.398455" lon="-5.774127">
        <ele>166.4</ele>
        <time>2019-11-24T16:58:10Z</time>
      </trkpt>
      <trkpt lat="43.398402" lon="-5.774159">
        <ele>166.8</ele>
        <time>2019-11-24T16:58:11Z</time>
      </trkpt>
      <trkpt lat="43.398348" lon="-5.774191">
        <ele>167.2</ele>
        <time>2019-11-24T16:58:12Z</time>
      </trkpt>
      <trkpt lat="43.398294" lon="-5.774221">
        <ele>167.4</ele>
        <time>2019-11-24T16:58:13Z</time>
      </trkpt>
      <trkpt lat="43.398236" lon="-5.774244">
        <ele>168.2</ele>
        <time>2019-11-24T16:58:14Z</time>
      </trkpt>
      <trkpt lat="43.398182" lon="-5.774265">
        <ele>169</ele>
        <time>2019-11-24T16:58:15Z</time>
      </trkpt>
      <trkpt lat="43.398125" lon="-5.774278">
        <ele>169.6</ele>
        <time>2019-11-24T16:58:16Z</time>
      </trkpt>
      <trkpt lat="43.398071" lon="-5.774287">
        <ele>170.2</ele>
        <time>2019-11-24T16:58:17Z</time>
      </trkpt>
      <trkpt lat="43.398022" lon="-5.7743">
        <ele>170.6</ele>
        <time>2019-11-24T16:58:18Z</time>
      </trkpt>
      <trkpt lat="43.397983" lon="-5.774329">
        <ele>171.2</ele>
        <time>2019-11-24T16:58:19Z</time>
      </trkpt>
      <trkpt lat="43.397952" lon="-5.774371">
        <ele>171.2</ele>
        <time>2019-11-24T16:58:20Z</time>
      </trkpt>
      <trkpt lat="43.397931" lon="-5.774424">
        <ele>171.6</ele>
        <time>2019-11-24T16:58:21Z</time>
      </trkpt>
      <trkpt lat="43.397921" lon="-5.77449">
        <ele>171.8</ele>
        <time>2019-11-24T16:58:22Z</time>
      </trkpt>
      <trkpt lat="43.397914" lon="-5.774565">
        <ele>171.6</ele>
        <time>2019-11-24T16:58:23Z</time>
      </trkpt>
      <trkpt lat="43.39791" lon="-5.774649">
        <ele>171.8</ele>
        <time>2019-11-24T16:58:24Z</time>
      </trkpt>
      <trkpt lat="43.397911" lon="-5.774739">
        <ele>171.6</ele>
        <time>2019-11-24T16:58:25Z</time>
      </trkpt>
      <trkpt lat="43.397917" lon="-5.774832">
        <ele>171.4</ele>
        <time>2019-11-24T16:58:26Z</time>
      </trkpt>
      <trkpt lat="43.397933" lon="-5.774925">
        <ele>171.8</ele>
        <time>2019-11-24T16:58:27Z</time>
      </trkpt>
      <trkpt lat="43.397954" lon="-5.775016">
        <ele>172</ele>
        <time>2019-11-24T16:58:28Z</time>
      </trkpt>
      <trkpt lat="43.397974" lon="-5.775108">
        <ele>172.2</ele>
        <time>2019-11-24T16:58:29Z</time>
      </trkpt>
      <trkpt lat="43.39799" lon="-5.775201">
        <ele>172.6</ele>
        <time>2019-11-24T16:58:30Z</time>
      </trkpt>
      <trkpt lat="43.397999" lon="-5.775297">
        <ele>172.6</ele>
        <time>2019-11-24T16:58:31Z</time>
      </trkpt>
      <trkpt lat="43.398003" lon="-5.775393">
        <ele>173</ele>
        <time>2019-11-24T16:58:32Z</time>
      </trkpt>
      <trkpt lat="43.398002" lon="-5.775491">
        <ele>173</ele>
        <time>2019-11-24T16:58:33Z</time>
      </trkpt>
      <trkpt lat="43.397999" lon="-5.775591">
        <ele>172.8</ele>
        <time>2019-11-24T16:58:34Z</time>
      </trkpt>
      <trkpt lat="43.397997" lon="-5.775692">
        <ele>173</ele>
        <time>2019-11-24T16:58:35Z</time>
      </trkpt>
      <trkpt lat="43.397997" lon="-5.775796">
        <ele>173</ele>
        <time>2019-11-24T16:58:36Z</time>
      </trkpt>
      <trkpt lat="43.398001" lon="-5.775901">
        <ele>173</ele>
        <time>2019-11-24T16:58:37Z</time>
      </trkpt>
      <trkpt lat="43.398007" lon="-5.776007">
        <ele>173.2</ele>
        <time>2019-11-24T16:58:38Z</time>
      </trkpt>
      <trkpt lat="43.398018" lon="-5.776109">
        <ele>173.4</ele>
        <time>2019-11-24T16:58:39Z</time>
      </trkpt>
      <trkpt lat="43.398033" lon="-5.776211">
        <ele>173.4</ele>
        <time>2019-11-24T16:58:40Z</time>
      </trkpt>
      <trkpt lat="43.398049" lon="-5.77631">
        <ele>173.2</ele>
        <time>2019-11-24T16:58:41Z</time>
      </trkpt>
      <trkpt lat="43.398064" lon="-5.776408">
        <ele>173.2</ele>
        <time>2019-11-24T16:58:42Z</time>
      </trkpt>
      <trkpt lat="43.398079" lon="-5.776505">
        <ele>173.6</ele>
        <time>2019-11-24T16:58:43Z</time>
      </trkpt>
      <trkpt lat="43.398095" lon="-5.776601">
        <ele>173.8</ele>
        <time>2019-11-24T16:58:44Z</time>
      </trkpt>
      <trkpt lat="43.398111" lon="-5.776697">
        <ele>173.6</ele>
        <time>2019-11-24T16:58:45Z</time>
      </trkpt>
      <trkpt lat="43.398127" lon="-5.776792">
        <ele>173.8</ele>
        <time>2019-11-24T16:58:46Z</time>
      </trkpt>
      <trkpt lat="43.398144" lon="-5.776886">
        <ele>174.2</ele>
        <time>2019-11-24T16:58:47Z</time>
      </trkpt>
      <trkpt lat="43.39816" lon="-5.776979">
        <ele>174.6</ele>
        <time>2019-11-24T16:58:48Z</time>
      </trkpt>
      <trkpt lat="43.398176" lon="-5.777074">
        <ele>175.2</ele>
        <time>2019-11-24T16:58:49Z</time>
      </trkpt>
      <trkpt lat="43.398192" lon="-5.77717">
        <ele>175</ele>
        <time>2019-11-24T16:58:50Z</time>
      </trkpt>
      <trkpt lat="43.398207" lon="-5.777269">
        <ele>175</ele>
        <time>2019-11-24T16:58:51Z</time>
      </trkpt>
      <trkpt lat="43.398223" lon="-5.777369">
        <ele>175</ele>
        <time>2019-11-24T16:58:52Z</time>
      </trkpt>
      <trkpt lat="43.398238" lon="-5.777472">
        <ele>175</ele>
        <time>2019-11-24T16:58:53Z</time>
      </trkpt>
      <trkpt lat="43.398253" lon="-5.777576">
        <ele>175.2</ele>
        <time>2019-11-24T16:58:54Z</time>
      </trkpt>
      <trkpt lat="43.398269" lon="-5.77768">
        <ele>175</ele>
        <time>2019-11-24T16:58:55Z</time>
      </trkpt>
      <trkpt lat="43.398284" lon="-5.777784">
        <ele>175</ele>
        <time>2019-11-24T16:58:56Z</time>
      </trkpt>
      <trkpt lat="43.3983" lon="-5.777887">
        <ele>175.6</ele>
        <time>2019-11-24T16:58:57Z</time>
      </trkpt>
      <trkpt lat="43.398315" lon="-5.777988">
        <ele>175.4</ele>
        <time>2019-11-24T16:58:58Z</time>
      </trkpt>
      <trkpt lat="43.398329" lon="-5.778091">
        <ele>175.2</ele>
        <time>2019-11-24T16:58:59Z</time>
      </trkpt>
      <trkpt lat="43.398344" lon="-5.778193">
        <ele>175.8</ele>
        <time>2019-11-24T16:59:00Z</time>
      </trkpt>
      <trkpt lat="43.398357" lon="-5.778296">
        <ele>175.2</ele>
        <time>2019-11-24T16:59:01Z</time>
      </trkpt>
      <trkpt lat="43.398373" lon="-5.7784">
        <ele>175.2</ele>
        <time>2019-11-24T16:59:02Z</time>
      </trkpt>
      <trkpt lat="43.398388" lon="-5.778503">
        <ele>175.4</ele>
        <time>2019-11-24T16:59:03Z</time>
      </trkpt>
      <trkpt lat="43.398404" lon="-5.778606">
        <ele>175.2</ele>
        <time>2019-11-24T16:59:04Z</time>
      </trkpt>
      <trkpt lat="43.39842" lon="-5.778709">
        <ele>175.2</ele>
        <time>2019-11-24T16:59:05Z</time>
      </trkpt>
      <trkpt lat="43.398436" lon="-5.778811">
        <ele>174.8</ele>
        <time>2019-11-24T16:59:06Z</time>
      </trkpt>
      <trkpt lat="43.398452" lon="-5.778914">
        <ele>175.2</ele>
        <time>2019-11-24T16:59:07Z</time>
      </trkpt>
      <trkpt lat="43.398467" lon="-5.779017">
        <ele>175</ele>
        <time>2019-11-24T16:59:08Z</time>
      </trkpt>
      <trkpt lat="43.398484" lon="-5.779122">
        <ele>174.6</ele>
        <time>2019-11-24T16:59:09Z</time>
      </trkpt>
      <trkpt lat="43.398501" lon="-5.779227">
        <ele>174.6</ele>
        <time>2019-11-24T16:59:10Z</time>
      </trkpt>
      <trkpt lat="43.398518" lon="-5.779334">
        <ele>174.2</ele>
        <time>2019-11-24T16:59:11Z</time>
      </trkpt>
      <trkpt lat="43.398534" lon="-5.779441">
        <ele>174.4</ele>
        <time>2019-11-24T16:59:12Z</time>
      </trkpt>
      <trkpt lat="43.39855" lon="-5.779549">
        <ele>174</ele>
        <time>2019-11-24T16:59:13Z</time>
      </trkpt>
      <trkpt lat="43.398566" lon="-5.779658">
        <ele>173.8</ele>
        <time>2019-11-24T16:59:14Z</time>
      </trkpt>
      <trkpt lat="43.398583" lon="-5.779769">
        <ele>174</ele>
        <time>2019-11-24T16:59:15Z</time>
      </trkpt>
      <trkpt lat="43.3986" lon="-5.77988">
        <ele>174</ele>
        <time>2019-11-24T16:59:16Z</time>
      </trkpt>
      <trkpt lat="43.398618" lon="-5.779992">
        <ele>174</ele>
        <time>2019-11-24T16:59:17Z</time>
      </trkpt>
      <trkpt lat="43.398636" lon="-5.780106">
        <ele>173.4</ele>
        <time>2019-11-24T16:59:18Z</time>
      </trkpt>
      <trkpt lat="43.398654" lon="-5.780221">
        <ele>173.2</ele>
        <time>2019-11-24T16:59:19Z</time>
      </trkpt>
      <trkpt lat="43.398672" lon="-5.780336">
        <ele>172.8</ele>
        <time>2019-11-24T16:59:20Z</time>
      </trkpt>
      <trkpt lat="43.398689" lon="-5.780453">
        <ele>172.4</ele>
        <time>2019-11-24T16:59:21Z</time>
      </trkpt>
      <trkpt lat="43.398707" lon="-5.780569">
        <ele>172.2</ele>
        <time>2019-11-24T16:59:22Z</time>
      </trkpt>
      <trkpt lat="43.398724" lon="-5.780685">
        <ele>172.4</ele>
        <time>2019-11-24T16:59:23Z</time>
      </trkpt>
      <trkpt lat="43.398742" lon="-5.780802">
        <ele>171.8</ele>
        <time>2019-11-24T16:59:24Z</time>
      </trkpt>
      <trkpt lat="43.398759" lon="-5.780918">
        <ele>171.6</ele>
        <time>2019-11-24T16:59:25Z</time>
      </trkpt>
      <trkpt lat="43.398777" lon="-5.781034">
        <ele>171.8</ele>
        <time>2019-11-24T16:59:26Z</time>
      </trkpt>
      <trkpt lat="43.398794" lon="-5.781149">
        <ele>171.8</ele>
        <time>2019-11-24T16:59:27Z</time>
      </trkpt>
      <trkpt lat="43.39881" lon="-5.781261">
        <ele>171.4</ele>
        <time>2019-11-24T16:59:28Z</time>
      </trkpt>
      <trkpt lat="43.398826" lon="-5.781371">
        <ele>171.2</ele>
        <time>2019-11-24T16:59:29Z</time>
      </trkpt>
      <trkpt lat="43.398842" lon="-5.78148">
        <ele>171.2</ele>
        <time>2019-11-24T16:59:30Z</time>
      </trkpt>
      <trkpt lat="43.398859" lon="-5.781589">
        <ele>171</ele>
        <time>2019-11-24T16:59:31Z</time>
      </trkpt>
      <trkpt lat="43.398875" lon="-5.781698">
        <ele>170.4</ele>
        <time>2019-11-24T16:59:32Z</time>
      </trkpt>
      <trkpt lat="43.398892" lon="-5.781805">
        <ele>170.2</ele>
        <time>2019-11-24T16:59:33Z</time>
      </trkpt>
      <trkpt lat="43.398909" lon="-5.781912">
        <ele>169.4</ele>
        <time>2019-11-24T16:59:34Z</time>
      </trkpt>
      <trkpt lat="43.398925" lon="-5.78202">
        <ele>169.8</ele>
        <time>2019-11-24T16:59:35Z</time>
      </trkpt>
      <trkpt lat="43.39894" lon="-5.782129">
        <ele>170</ele>
        <time>2019-11-24T16:59:36Z</time>
      </trkpt>
      <trkpt lat="43.398956" lon="-5.782238">
        <ele>170</ele>
        <time>2019-11-24T16:59:37Z</time>
      </trkpt>
      <trkpt lat="43.398973" lon="-5.782347">
        <ele>169.6</ele>
        <time>2019-11-24T16:59:38Z</time>
      </trkpt>
      <trkpt lat="43.398989" lon="-5.782458">
        <ele>169.2</ele>
        <time>2019-11-24T16:59:39Z</time>
      </trkpt>
      <trkpt lat="43.399005" lon="-5.78257">
        <ele>169</ele>
        <time>2019-11-24T16:59:40Z</time>
      </trkpt>
      <trkpt lat="43.399018" lon="-5.782682">
        <ele>168.8</ele>
        <time>2019-11-24T16:59:41Z</time>
      </trkpt>
      <trkpt lat="43.399028" lon="-5.782797">
        <ele>169</ele>
        <time>2019-11-24T16:59:42Z</time>
      </trkpt>
      <trkpt lat="43.399036" lon="-5.782913">
        <ele>169.4</ele>
        <time>2019-11-24T16:59:43Z</time>
      </trkpt>
      <trkpt lat="43.399042" lon="-5.783028">
        <ele>168.8</ele>
        <time>2019-11-24T16:59:44Z</time>
      </trkpt>
      <trkpt lat="43.399051" lon="-5.783143">
        <ele>169</ele>
        <time>2019-11-24T16:59:45Z</time>
      </trkpt>
      <trkpt lat="43.399058" lon="-5.783259">
        <ele>169</ele>
        <time>2019-11-24T16:59:46Z</time>
      </trkpt>
      <trkpt lat="43.399065" lon="-5.783375">
        <ele>169.2</ele>
        <time>2019-11-24T16:59:47Z</time>
      </trkpt>
      <trkpt lat="43.399072" lon="-5.783492">
        <ele>169.6</ele>
        <time>2019-11-24T16:59:48Z</time>
      </trkpt>
      <trkpt lat="43.399079" lon="-5.783607">
        <ele>169.6</ele>
        <time>2019-11-24T16:59:49Z</time>
      </trkpt>
      <trkpt lat="43.399087" lon="-5.783723">
        <ele>169</ele>
        <time>2019-11-24T16:59:50Z</time>
      </trkpt>
      <trkpt lat="43.399095" lon="-5.78384">
        <ele>168.8</ele>
        <time>2019-11-24T16:59:51Z</time>
      </trkpt>
      <trkpt lat="43.399105" lon="-5.783957">
        <ele>169.4</ele>
        <time>2019-11-24T16:59:52Z</time>
      </trkpt>
      <trkpt lat="43.399114" lon="-5.784074">
        <ele>169.6</ele>
        <time>2019-11-24T16:59:53Z</time>
      </trkpt>
      <trkpt lat="43.399122" lon="-5.78419">
        <ele>170.2</ele>
        <time>2019-11-24T16:59:54Z</time>
      </trkpt>
      <trkpt lat="43.399128" lon="-5.784306">
        <ele>169.6</ele>
        <time>2019-11-24T16:59:55Z</time>
      </trkpt>
      <trkpt lat="43.399133" lon="-5.784421">
        <ele>169.2</ele>
        <time>2019-11-24T16:59:56Z</time>
      </trkpt>
      <trkpt lat="43.399138" lon="-5.784537">
        <ele>169.6</ele>
        <time>2019-11-24T16:59:57Z</time>
      </trkpt>
      <trkpt lat="43.399143" lon="-5.784652">
        <ele>168</ele>
        <time>2019-11-24T16:59:58Z</time>
      </trkpt>
      <trkpt lat="43.399149" lon="-5.784768">
        <ele>169.6</ele>
        <time>2019-11-24T16:59:59Z</time>
      </trkpt>
      <trkpt lat="43.399154" lon="-5.784884">
        <ele>170.2</ele>
        <time>2019-11-24T17:00:00Z</time>
      </trkpt>
      <trkpt lat="43.39916" lon="-5.785">
        <ele>170.4</ele>
        <time>2019-11-24T17:00:01Z</time>
      </trkpt>
      <trkpt lat="43.399165" lon="-5.785115">
        <ele>169.8</ele>
        <time>2019-11-24T17:00:02Z</time>
      </trkpt>
      <trkpt lat="43.399171" lon="-5.78523">
        <ele>170.4</ele>
        <time>2019-11-24T17:00:03Z</time>
      </trkpt>
      <trkpt lat="43.399178" lon="-5.785344">
        <ele>170.8</ele>
        <time>2019-11-24T17:00:04Z</time>
      </trkpt>
      <trkpt lat="43.399184" lon="-5.785457">
        <ele>170.8</ele>
        <time>2019-11-24T17:00:05Z</time>
      </trkpt>
      <trkpt lat="43.399189" lon="-5.785572">
        <ele>170.6</ele>
        <time>2019-11-24T17:00:06Z</time>
      </trkpt>
      <trkpt lat="43.399195" lon="-5.785686">
        <ele>170.6</ele>
        <time>2019-11-24T17:00:07Z</time>
      </trkpt>
      <trkpt lat="43.399201" lon="-5.7858">
        <ele>171</ele>
        <time>2019-11-24T17:00:08Z</time>
      </trkpt>
      <trkpt lat="43.399208" lon="-5.785915">
        <ele>171</ele>
        <time>2019-11-24T17:00:09Z</time>
      </trkpt>
      <trkpt lat="43.399213" lon="-5.786029">
        <ele>171.2</ele>
        <time>2019-11-24T17:00:10Z</time>
      </trkpt>
      <trkpt lat="43.399218" lon="-5.786144">
        <ele>170.8</ele>
        <time>2019-11-24T17:00:11Z</time>
      </trkpt>
      <trkpt lat="43.399223" lon="-5.786259">
        <ele>171</ele>
        <time>2019-11-24T17:00:12Z</time>
      </trkpt>
      <trkpt lat="43.399229" lon="-5.786372">
        <ele>171.2</ele>
        <time>2019-11-24T17:00:13Z</time>
      </trkpt>
      <trkpt lat="43.399234" lon="-5.786485">
        <ele>171.2</ele>
        <time>2019-11-24T17:00:14Z</time>
      </trkpt>
      <trkpt lat="43.39924" lon="-5.786598">
        <ele>171.2</ele>
        <time>2019-11-24T17:00:15Z</time>
      </trkpt>
      <trkpt lat="43.399245" lon="-5.786713">
        <ele>171.6</ele>
        <time>2019-11-24T17:00:16Z</time>
      </trkpt>
      <trkpt lat="43.39925" lon="-5.786829">
        <ele>170.4</ele>
        <time>2019-11-24T17:00:17Z</time>
      </trkpt>
      <trkpt lat="43.399256" lon="-5.786945">
        <ele>170.8</ele>
        <time>2019-11-24T17:00:18Z</time>
      </trkpt>
      <trkpt lat="43.399261" lon="-5.787063">
        <ele>171.2</ele>
        <time>2019-11-24T17:00:19Z</time>
      </trkpt>
      <trkpt lat="43.399266" lon="-5.787181">
        <ele>170</ele>
        <time>2019-11-24T17:00:20Z</time>
      </trkpt>
      <trkpt lat="43.39927" lon="-5.7873">
        <ele>170.2</ele>
        <time>2019-11-24T17:00:21Z</time>
      </trkpt>
      <trkpt lat="43.399275" lon="-5.78742">
        <ele>169.8</ele>
        <time>2019-11-24T17:00:22Z</time>
      </trkpt>
      <trkpt lat="43.399281" lon="-5.787541">
        <ele>170.4</ele>
        <time>2019-11-24T17:00:23Z</time>
      </trkpt>
      <trkpt lat="43.399288" lon="-5.787663">
        <ele>170</ele>
        <time>2019-11-24T17:00:24Z</time>
      </trkpt>
      <trkpt lat="43.399295" lon="-5.787784">
        <ele>170.2</ele>
        <time>2019-11-24T17:00:25Z</time>
      </trkpt>
      <trkpt lat="43.399301" lon="-5.787905">
        <ele>169.8</ele>
        <time>2019-11-24T17:00:26Z</time>
      </trkpt>
      <trkpt lat="43.399308" lon="-5.788026">
        <ele>169.8</ele>
        <time>2019-11-24T17:00:27Z</time>
      </trkpt>
      <trkpt lat="43.399314" lon="-5.788147">
        <ele>169.6</ele>
        <time>2019-11-24T17:00:28Z</time>
      </trkpt>
      <trkpt lat="43.39932" lon="-5.788268">
        <ele>169.8</ele>
        <time>2019-11-24T17:00:29Z</time>
      </trkpt>
      <trkpt lat="43.399325" lon="-5.788387">
        <ele>169.2</ele>
        <time>2019-11-24T17:00:30Z</time>
      </trkpt>
      <trkpt lat="43.39933" lon="-5.788508">
        <ele>168.8</ele>
        <time>2019-11-24T17:00:31Z</time>
      </trkpt>
      <trkpt lat="43.399337" lon="-5.78863">
        <ele>168.6</ele>
        <time>2019-11-24T17:00:32Z</time>
      </trkpt>
      <trkpt lat="43.399343" lon="-5.788753">
        <ele>170.2</ele>
        <time>2019-11-24T17:00:33Z</time>
      </trkpt>
      <trkpt lat="43.399349" lon="-5.788876">
        <ele>169.2</ele>
        <time>2019-11-24T17:00:34Z</time>
      </trkpt>
      <trkpt lat="43.399355" lon="-5.789001">
        <ele>168</ele>
        <time>2019-11-24T17:00:35Z</time>
      </trkpt>
      <trkpt lat="43.399362" lon="-5.789126">
        <ele>167.8</ele>
        <time>2019-11-24T17:00:36Z</time>
      </trkpt>
      <trkpt lat="43.399368" lon="-5.789253">
        <ele>168</ele>
        <time>2019-11-24T17:00:37Z</time>
      </trkpt>
      <trkpt lat="43.399373" lon="-5.78938">
        <ele>168.4</ele>
        <time>2019-11-24T17:00:38Z</time>
      </trkpt>
      <trkpt lat="43.39938" lon="-5.789506">
        <ele>167.4</ele>
        <time>2019-11-24T17:00:39Z</time>
      </trkpt>
      <trkpt lat="43.399386" lon="-5.789634">
        <ele>167.2</ele>
        <time>2019-11-24T17:00:40Z</time>
      </trkpt>
      <trkpt lat="43.399394" lon="-5.789764">
        <ele>166.6</ele>
        <time>2019-11-24T17:00:41Z</time>
      </trkpt>
      <trkpt lat="43.399401" lon="-5.789895">
        <ele>167.4</ele>
        <time>2019-11-24T17:00:42Z</time>
      </trkpt>
      <trkpt lat="43.399407" lon="-5.790027">
        <ele>165.6</ele>
        <time>2019-11-24T17:00:43Z</time>
      </trkpt>
      <trkpt lat="43.399412" lon="-5.790159">
        <ele>165.4</ele>
        <time>2019-11-24T17:00:44Z</time>
      </trkpt>
      <trkpt lat="43.399419" lon="-5.79029">
        <ele>165.6</ele>
        <time>2019-11-24T17:00:45Z</time>
      </trkpt>
      <trkpt lat="43.399425" lon="-5.79042">
        <ele>165.8</ele>
        <time>2019-11-24T17:00:46Z</time>
      </trkpt>
      <trkpt lat="43.39943" lon="-5.790545">
        <ele>166</ele>
        <time>2019-11-24T17:00:47Z</time>
      </trkpt>
      <trkpt lat="43.399435" lon="-5.790664">
        <ele>166.2</ele>
        <time>2019-11-24T17:00:48Z</time>
      </trkpt>
      <trkpt lat="43.399446" lon="-5.790781">
        <ele>165.6</ele>
        <time>2019-11-24T17:00:49Z</time>
      </trkpt>
      <trkpt lat="43.399473" lon="-5.79089">
        <ele>166</ele>
        <time>2019-11-24T17:00:50Z</time>
      </trkpt>
      <trkpt lat="43.399508" lon="-5.790992">
        <ele>165.2</ele>
        <time>2019-11-24T17:00:51Z</time>
      </trkpt>
      <trkpt lat="43.399538" lon="-5.791096">
        <ele>165.8</ele>
        <time>2019-11-24T17:00:52Z</time>
      </trkpt>
      <trkpt lat="43.399551" lon="-5.791201">
        <ele>166.4</ele>
        <time>2019-11-24T17:00:53Z</time>
      </trkpt>
      <trkpt lat="43.399545" lon="-5.791302">
        <ele>166.6</ele>
        <time>2019-11-24T17:00:54Z</time>
      </trkpt>
      <trkpt lat="43.399522" lon="-5.791399">
        <ele>166.6</ele>
        <time>2019-11-24T17:00:55Z</time>
      </trkpt>
      <trkpt lat="43.399503" lon="-5.791497">
        <ele>166.8</ele>
        <time>2019-11-24T17:00:56Z</time>
      </trkpt>
      <trkpt lat="43.399496" lon="-5.791593">
        <ele>166.8</ele>
        <time>2019-11-24T17:00:57Z</time>
      </trkpt>
      <trkpt lat="43.399494" lon="-5.791689">
        <ele>167</ele>
        <time>2019-11-24T17:00:58Z</time>
      </trkpt>
      <trkpt lat="43.399496" lon="-5.791783">
        <ele>167</ele>
        <time>2019-11-24T17:00:59Z</time>
      </trkpt>
      <trkpt lat="43.399499" lon="-5.791876">
        <ele>166.8</ele>
        <time>2019-11-24T17:01:00Z</time>
      </trkpt>
      <trkpt lat="43.399506" lon="-5.791967">
        <ele>166.6</ele>
        <time>2019-11-24T17:01:01Z</time>
      </trkpt>
      <trkpt lat="43.399512" lon="-5.792057">
        <ele>167</ele>
        <time>2019-11-24T17:01:02Z</time>
      </trkpt>
      <trkpt lat="43.399515" lon="-5.792147">
        <ele>166.2</ele>
        <time>2019-11-24T17:01:03Z</time>
      </trkpt>
      <trkpt lat="43.399517" lon="-5.792235">
        <ele>167</ele>
        <time>2019-11-24T17:01:04Z</time>
      </trkpt>
      <trkpt lat="43.399522" lon="-5.792322">
        <ele>167</ele>
        <time>2019-11-24T17:01:05Z</time>
      </trkpt>
      <trkpt lat="43.399528" lon="-5.79241">
        <ele>167</ele>
        <time>2019-11-24T17:01:06Z</time>
      </trkpt>
      <trkpt lat="43.399534" lon="-5.792498">
        <ele>166.6</ele>
        <time>2019-11-24T17:01:07Z</time>
      </trkpt>
      <trkpt lat="43.399536" lon="-5.792586">
        <ele>167</ele>
        <time>2019-11-24T17:01:08Z</time>
      </trkpt>
      <trkpt lat="43.399539" lon="-5.792672">
        <ele>166.8</ele>
        <time>2019-11-24T17:01:09Z</time>
      </trkpt>
      <trkpt lat="43.399543" lon="-5.79276">
        <ele>166.8</ele>
        <time>2019-11-24T17:01:10Z</time>
      </trkpt>
      <trkpt lat="43.399544" lon="-5.792851">
        <ele>167.2</ele>
        <time>2019-11-24T17:01:11Z</time>
      </trkpt>
      <trkpt lat="43.399549" lon="-5.792944">
        <ele>167.2</ele>
        <time>2019-11-24T17:01:12Z</time>
      </trkpt>
      <trkpt lat="43.399557" lon="-5.793038">
        <ele>167.2</ele>
        <time>2019-11-24T17:01:13Z</time>
      </trkpt>
      <trkpt lat="43.399562" lon="-5.793134">
        <ele>167.2</ele>
        <time>2019-11-24T17:01:14Z</time>
      </trkpt>
      <trkpt lat="43.399566" lon="-5.793231">
        <ele>167</ele>
        <time>2019-11-24T17:01:15Z</time>
      </trkpt>
      <trkpt lat="43.39957" lon="-5.793328">
        <ele>167</ele>
        <time>2019-11-24T17:01:16Z</time>
      </trkpt>
      <trkpt lat="43.399575" lon="-5.793424">
        <ele>167.2</ele>
        <time>2019-11-24T17:01:17Z</time>
      </trkpt>
      <trkpt lat="43.39958" lon="-5.793521">
        <ele>167.2</ele>
        <time>2019-11-24T17:01:18Z</time>
      </trkpt>
      <trkpt lat="43.399585" lon="-5.793618">
        <ele>167.2</ele>
        <time>2019-11-24T17:01:19Z</time>
      </trkpt>
      <trkpt lat="43.399589" lon="-5.793716">
        <ele>167.4</ele>
        <time>2019-11-24T17:01:20Z</time>
      </trkpt>
      <trkpt lat="43.399594" lon="-5.793816">
        <ele>166.8</ele>
        <time>2019-11-24T17:01:21Z</time>
      </trkpt>
      <trkpt lat="43.3996" lon="-5.793915">
        <ele>166.2</ele>
        <time>2019-11-24T17:01:22Z</time>
      </trkpt>
      <trkpt lat="43.399604" lon="-5.794015">
        <ele>167</ele>
        <time>2019-11-24T17:01:23Z</time>
      </trkpt>
      <trkpt lat="43.399607" lon="-5.794117">
        <ele>167.6</ele>
        <time>2019-11-24T17:01:24Z</time>
      </trkpt>
      <trkpt lat="43.399612" lon="-5.79422">
        <ele>167.4</ele>
        <time>2019-11-24T17:01:25Z</time>
      </trkpt>
      <trkpt lat="43.399619" lon="-5.794325">
        <ele>167.4</ele>
        <time>2019-11-24T17:01:26Z</time>
      </trkpt>
      <trkpt lat="43.399624" lon="-5.794431">
        <ele>167.4</ele>
        <time>2019-11-24T17:01:27Z</time>
      </trkpt>
      <trkpt lat="43.399628" lon="-5.794535">
        <ele>167.6</ele>
        <time>2019-11-24T17:01:28Z</time>
      </trkpt>
      <trkpt lat="43.399632" lon="-5.794638">
        <ele>167.8</ele>
        <time>2019-11-24T17:01:29Z</time>
      </trkpt>
      <trkpt lat="43.399636" lon="-5.794741">
        <ele>167.6</ele>
        <time>2019-11-24T17:01:30Z</time>
      </trkpt>
      <trkpt lat="43.39964" lon="-5.794844">
        <ele>167.8</ele>
        <time>2019-11-24T17:01:31Z</time>
      </trkpt>
      <trkpt lat="43.399644" lon="-5.794946">
        <ele>167.4</ele>
        <time>2019-11-24T17:01:32Z</time>
      </trkpt>
      <trkpt lat="43.39965" lon="-5.795048">
        <ele>167.4</ele>
        <time>2019-11-24T17:01:33Z</time>
      </trkpt>
      <trkpt lat="43.399656" lon="-5.795148">
        <ele>167.6</ele>
        <time>2019-11-24T17:01:34Z</time>
      </trkpt>
      <trkpt lat="43.399661" lon="-5.795247">
        <ele>167.6</ele>
        <time>2019-11-24T17:01:35Z</time>
      </trkpt>
      <trkpt lat="43.399666" lon="-5.795346">
        <ele>167.6</ele>
        <time>2019-11-24T17:01:36Z</time>
      </trkpt>
      <trkpt lat="43.399671" lon="-5.795445">
        <ele>167.6</ele>
        <time>2019-11-24T17:01:37Z</time>
      </trkpt>
      <trkpt lat="43.399676" lon="-5.795544">
        <ele>168</ele>
        <time>2019-11-24T17:01:38Z</time>
      </trkpt>
      <trkpt lat="43.399681" lon="-5.795645">
        <ele>167.6</ele>
        <time>2019-11-24T17:01:39Z</time>
      </trkpt>
      <trkpt lat="43.399685" lon="-5.795746">
        <ele>168</ele>
        <time>2019-11-24T17:01:40Z</time>
      </trkpt>
      <trkpt lat="43.399692" lon="-5.795846">
        <ele>168</ele>
        <time>2019-11-24T17:01:41Z</time>
      </trkpt>
      <trkpt lat="43.399696" lon="-5.795947">
        <ele>168</ele>
        <time>2019-11-24T17:01:42Z</time>
      </trkpt>
      <trkpt lat="43.399701" lon="-5.796049">
        <ele>167.2</ele>
        <time>2019-11-24T17:01:43Z</time>
      </trkpt>
      <trkpt lat="43.399706" lon="-5.79615">
        <ele>167.2</ele>
        <time>2019-11-24T17:01:44Z</time>
      </trkpt>
      <trkpt lat="43.399712" lon="-5.796251">
        <ele>167.6</ele>
        <time>2019-11-24T17:01:45Z</time>
      </trkpt>
      <trkpt lat="43.399717" lon="-5.796353">
        <ele>167.8</ele>
        <time>2019-11-24T17:01:46Z</time>
      </trkpt>
      <trkpt lat="43.399723" lon="-5.796454">
        <ele>167.4</ele>
        <time>2019-11-24T17:01:47Z</time>
      </trkpt>
      <trkpt lat="43.399728" lon="-5.796557">
        <ele>168</ele>
        <time>2019-11-24T17:01:48Z</time>
      </trkpt>
      <trkpt lat="43.399733" lon="-5.79666">
        <ele>168</ele>
        <time>2019-11-24T17:01:49Z</time>
      </trkpt>
      <trkpt lat="43.399739" lon="-5.796762">
        <ele>167.8</ele>
        <time>2019-11-24T17:01:50Z</time>
      </trkpt>
      <trkpt lat="43.399743" lon="-5.796864">
        <ele>168</ele>
        <time>2019-11-24T17:01:51Z</time>
      </trkpt>
      <trkpt lat="43.399748" lon="-5.796966">
        <ele>168.2</ele>
        <time>2019-11-24T17:01:52Z</time>
      </trkpt>
      <trkpt lat="43.399754" lon="-5.797067">
        <ele>168</ele>
        <time>2019-11-24T17:01:53Z</time>
      </trkpt>
      <trkpt lat="43.399759" lon="-5.797168">
        <ele>168.2</ele>
        <time>2019-11-24T17:01:54Z</time>
      </trkpt>
      <trkpt lat="43.399764" lon="-5.797269">
        <ele>168.8</ele>
        <time>2019-11-24T17:01:55Z</time>
      </trkpt>
      <trkpt lat="43.399768" lon="-5.79737">
        <ele>168.4</ele>
        <time>2019-11-24T17:01:56Z</time>
      </trkpt>
      <trkpt lat="43.399772" lon="-5.797472">
        <ele>168.4</ele>
        <time>2019-11-24T17:01:57Z</time>
      </trkpt>
      <trkpt lat="43.399777" lon="-5.797574">
        <ele>168.2</ele>
        <time>2019-11-24T17:01:58Z</time>
      </trkpt>
      <trkpt lat="43.399781" lon="-5.797678">
        <ele>167.8</ele>
        <time>2019-11-24T17:01:59Z</time>
      </trkpt>
      <trkpt lat="43.399786" lon="-5.797782">
        <ele>168</ele>
        <time>2019-11-24T17:02:00Z</time>
      </trkpt>
      <trkpt lat="43.399793" lon="-5.797887">
        <ele>168.2</ele>
        <time>2019-11-24T17:02:01Z</time>
      </trkpt>
      <trkpt lat="43.399798" lon="-5.797992">
        <ele>167.8</ele>
        <time>2019-11-24T17:02:02Z</time>
      </trkpt>
      <trkpt lat="43.399804" lon="-5.798095">
        <ele>168</ele>
        <time>2019-11-24T17:02:03Z</time>
      </trkpt>
      <trkpt lat="43.399809" lon="-5.798199">
        <ele>168</ele>
        <time>2019-11-24T17:02:04Z</time>
      </trkpt>
      <trkpt lat="43.399813" lon="-5.798304">
        <ele>168.2</ele>
        <time>2019-11-24T17:02:05Z</time>
      </trkpt>
      <trkpt lat="43.399818" lon="-5.798409">
        <ele>168.2</ele>
        <time>2019-11-24T17:02:06Z</time>
      </trkpt>
      <trkpt lat="43.399824" lon="-5.798512">
        <ele>168</ele>
        <time>2019-11-24T17:02:07Z</time>
      </trkpt>
      <trkpt lat="43.399829" lon="-5.798615">
        <ele>168.4</ele>
        <time>2019-11-24T17:02:08Z</time>
      </trkpt>
      <trkpt lat="43.399834" lon="-5.798719">
        <ele>167.8</ele>
        <time>2019-11-24T17:02:09Z</time>
      </trkpt>
      <trkpt lat="43.399839" lon="-5.798823">
        <ele>168</ele>
        <time>2019-11-24T17:02:10Z</time>
      </trkpt>
      <trkpt lat="43.399843" lon="-5.798928">
        <ele>167.8</ele>
        <time>2019-11-24T17:02:11Z</time>
      </trkpt>
      <trkpt lat="43.399849" lon="-5.799031">
        <ele>168</ele>
        <time>2019-11-24T17:02:12Z</time>
      </trkpt>
      <trkpt lat="43.399854" lon="-5.799135">
        <ele>167.8</ele>
        <time>2019-11-24T17:02:13Z</time>
      </trkpt>
      <trkpt lat="43.399858" lon="-5.799239">
        <ele>167.8</ele>
        <time>2019-11-24T17:02:14Z</time>
      </trkpt>
      <trkpt lat="43.399863" lon="-5.799345">
        <ele>167.8</ele>
        <time>2019-11-24T17:02:15Z</time>
      </trkpt>
      <trkpt lat="43.399869" lon="-5.799448">
        <ele>168</ele>
        <time>2019-11-24T17:02:16Z</time>
      </trkpt>
      <trkpt lat="43.399879" lon="-5.799553">
        <ele>168.4</ele>
        <time>2019-11-24T17:02:17Z</time>
      </trkpt>
      <trkpt lat="43.399886" lon="-5.799657">
        <ele>168.2</ele>
        <time>2019-11-24T17:02:18Z</time>
      </trkpt>
      <trkpt lat="43.399895" lon="-5.799756">
        <ele>168.4</ele>
        <time>2019-11-24T17:02:19Z</time>
      </trkpt>
      <trkpt lat="43.399901" lon="-5.799853">
        <ele>168.6</ele>
        <time>2019-11-24T17:02:20Z</time>
      </trkpt>
      <trkpt lat="43.399907" lon="-5.79995">
        <ele>169.4</ele>
        <time>2019-11-24T17:02:21Z</time>
      </trkpt>
      <trkpt lat="43.399912" lon="-5.800048">
        <ele>169.8</ele>
        <time>2019-11-24T17:02:22Z</time>
      </trkpt>
      <trkpt lat="43.399919" lon="-5.800146">
        <ele>169.6</ele>
        <time>2019-11-24T17:02:23Z</time>
      </trkpt>
      <trkpt lat="43.399927" lon="-5.800243">
        <ele>170.4</ele>
        <time>2019-11-24T17:02:24Z</time>
      </trkpt>
      <trkpt lat="43.399934" lon="-5.800341">
        <ele>170.4</ele>
        <time>2019-11-24T17:02:25Z</time>
      </trkpt>
      <trkpt lat="43.399937" lon="-5.800441">
        <ele>171</ele>
        <time>2019-11-24T17:02:26Z</time>
      </trkpt>
      <trkpt lat="43.399941" lon="-5.800542">
        <ele>171.2</ele>
        <time>2019-11-24T17:02:27Z</time>
      </trkpt>
      <trkpt lat="43.399943" lon="-5.800643">
        <ele>171.4</ele>
        <time>2019-11-24T17:02:28Z</time>
      </trkpt>
      <trkpt lat="43.399946" lon="-5.800743">
        <ele>171.4</ele>
        <time>2019-11-24T17:02:29Z</time>
      </trkpt>
      <trkpt lat="43.399948" lon="-5.800843">
        <ele>171</ele>
        <time>2019-11-24T17:02:30Z</time>
      </trkpt>
      <trkpt lat="43.399952" lon="-5.80094">
        <ele>171.4</ele>
        <time>2019-11-24T17:02:31Z</time>
      </trkpt>
      <trkpt lat="43.399953" lon="-5.801036">
        <ele>171.4</ele>
        <time>2019-11-24T17:02:32Z</time>
      </trkpt>
      <trkpt lat="43.399957" lon="-5.801133">
        <ele>171.6</ele>
        <time>2019-11-24T17:02:33Z</time>
      </trkpt>
      <trkpt lat="43.399962" lon="-5.80123">
        <ele>171.8</ele>
        <time>2019-11-24T17:02:34Z</time>
      </trkpt>
      <trkpt lat="43.399966" lon="-5.801327">
        <ele>171.6</ele>
        <time>2019-11-24T17:02:35Z</time>
      </trkpt>
      <trkpt lat="43.39997" lon="-5.801424">
        <ele>171.2</ele>
        <time>2019-11-24T17:02:36Z</time>
      </trkpt>
      <trkpt lat="43.399976" lon="-5.801521">
        <ele>171.8</ele>
        <time>2019-11-24T17:02:37Z</time>
      </trkpt>
      <trkpt lat="43.399982" lon="-5.801618">
        <ele>171.2</ele>
        <time>2019-11-24T17:02:38Z</time>
      </trkpt>
      <trkpt lat="43.399985" lon="-5.801713">
        <ele>170.8</ele>
        <time>2019-11-24T17:02:39Z</time>
      </trkpt>
      <trkpt lat="43.399989" lon="-5.801808">
        <ele>171.4</ele>
        <time>2019-11-24T17:02:40Z</time>
      </trkpt>
      <trkpt lat="43.399995" lon="-5.801902">
        <ele>171.2</ele>
        <time>2019-11-24T17:02:41Z</time>
      </trkpt>
      <trkpt lat="43.400002" lon="-5.801998">
        <ele>170.6</ele>
        <time>2019-11-24T17:02:42Z</time>
      </trkpt>
      <trkpt lat="43.400007" lon="-5.802095">
        <ele>171.2</ele>
        <time>2019-11-24T17:02:43Z</time>
      </trkpt>
      <trkpt lat="43.40001" lon="-5.802193">
        <ele>171</ele>
        <time>2019-11-24T17:02:44Z</time>
      </trkpt>
      <trkpt lat="43.400014" lon="-5.802289">
        <ele>170.6</ele>
        <time>2019-11-24T17:02:45Z</time>
      </trkpt>
      <trkpt lat="43.400016" lon="-5.802386">
        <ele>170</ele>
        <time>2019-11-24T17:02:46Z</time>
      </trkpt>
      <trkpt lat="43.400018" lon="-5.802485">
        <ele>170.6</ele>
        <time>2019-11-24T17:02:47Z</time>
      </trkpt>
      <trkpt lat="43.400021" lon="-5.802584">
        <ele>169.2</ele>
        <time>2019-11-24T17:02:48Z</time>
      </trkpt>
      <trkpt lat="43.400023" lon="-5.802683">
        <ele>169.8</ele>
        <time>2019-11-24T17:02:49Z</time>
      </trkpt>
      <trkpt lat="43.400026" lon="-5.802783">
        <ele>170</ele>
        <time>2019-11-24T17:02:50Z</time>
      </trkpt>
      <trkpt lat="43.400029" lon="-5.802883">
        <ele>171.4</ele>
        <time>2019-11-24T17:02:51Z</time>
      </trkpt>
      <trkpt lat="43.400032" lon="-5.802983">
        <ele>169.2</ele>
        <time>2019-11-24T17:02:52Z</time>
      </trkpt>
      <trkpt lat="43.400034" lon="-5.803083">
        <ele>169.4</ele>
        <time>2019-11-24T17:02:53Z</time>
      </trkpt>
      <trkpt lat="43.400037" lon="-5.803181">
        <ele>169.8</ele>
        <time>2019-11-24T17:02:54Z</time>
      </trkpt>
      <trkpt lat="43.400041" lon="-5.803276">
        <ele>169.2</ele>
        <time>2019-11-24T17:02:55Z</time>
      </trkpt>
      <trkpt lat="43.400045" lon="-5.803369">
        <ele>169.6</ele>
        <time>2019-11-24T17:02:56Z</time>
      </trkpt>
      <trkpt lat="43.400048" lon="-5.80346">
        <ele>169</ele>
        <time>2019-11-24T17:02:57Z</time>
      </trkpt>
      <trkpt lat="43.400054" lon="-5.803553">
        <ele>169</ele>
        <time>2019-11-24T17:02:58Z</time>
      </trkpt>
      <trkpt lat="43.400055" lon="-5.803644">
        <ele>168.4</ele>
        <time>2019-11-24T17:02:59Z</time>
      </trkpt>
      <trkpt lat="43.40006" lon="-5.803735">
        <ele>168</ele>
        <time>2019-11-24T17:03:00Z</time>
      </trkpt>
      <trkpt lat="43.400066" lon="-5.803827">
        <ele>168</ele>
        <time>2019-11-24T17:03:01Z</time>
      </trkpt>
      <trkpt lat="43.400072" lon="-5.803916">
        <ele>168.4</ele>
        <time>2019-11-24T17:03:02Z</time>
      </trkpt>
      <trkpt lat="43.400074" lon="-5.804005">
        <ele>168</ele>
        <time>2019-11-24T17:03:03Z</time>
      </trkpt>
      <trkpt lat="43.400077" lon="-5.804095">
        <ele>168.4</ele>
        <time>2019-11-24T17:03:04Z</time>
      </trkpt>
      <trkpt lat="43.400076" lon="-5.804182">
        <ele>168</ele>
        <time>2019-11-24T17:03:05Z</time>
      </trkpt>
      <trkpt lat="43.400074" lon="-5.804262">
        <ele>167.6</ele>
        <time>2019-11-24T17:03:06Z</time>
      </trkpt>
      <trkpt lat="43.400077" lon="-5.804338">
        <ele>168.2</ele>
        <time>2019-11-24T17:03:07Z</time>
      </trkpt>
      <trkpt lat="43.400074" lon="-5.804412">
        <ele>168.4</ele>
        <time>2019-11-24T17:03:08Z</time>
      </trkpt>
      <trkpt lat="43.400074" lon="-5.804486">
        <ele>168.2</ele>
        <time>2019-11-24T17:03:09Z</time>
      </trkpt>
      <trkpt lat="43.400076" lon="-5.804564">
        <ele>168.4</ele>
        <time>2019-11-24T17:03:10Z</time>
      </trkpt>
      <trkpt lat="43.40008" lon="-5.804642">
        <ele>167.8</ele>
        <time>2019-11-24T17:03:11Z</time>
      </trkpt>
      <trkpt lat="43.400082" lon="-5.804726">
        <ele>167.4</ele>
        <time>2019-11-24T17:03:12Z</time>
      </trkpt>
      <trkpt lat="43.400085" lon="-5.804811">
        <ele>167.6</ele>
        <time>2019-11-24T17:03:13Z</time>
      </trkpt>
      <trkpt lat="43.400088" lon="-5.804896">
        <ele>167.8</ele>
        <time>2019-11-24T17:03:14Z</time>
      </trkpt>
      <trkpt lat="43.400103" lon="-5.804975">
        <ele>167.4</ele>
        <time>2019-11-24T17:03:15Z</time>
      </trkpt>
      <trkpt lat="43.400108" lon="-5.805061">
        <ele>166.8</ele>
        <time>2019-11-24T17:03:16Z</time>
      </trkpt>
      <trkpt lat="43.40011" lon="-5.805148">
        <ele>168.2</ele>
        <time>2019-11-24T17:03:17Z</time>
      </trkpt>
      <trkpt lat="43.400108" lon="-5.805234">
        <ele>167.4</ele>
        <time>2019-11-24T17:03:18Z</time>
      </trkpt>
      <trkpt lat="43.400108" lon="-5.80532">
        <ele>166.8</ele>
        <time>2019-11-24T17:03:19Z</time>
      </trkpt>
      <trkpt lat="43.40011" lon="-5.805406">
        <ele>166.6</ele>
        <time>2019-11-24T17:03:20Z</time>
      </trkpt>
      <trkpt lat="43.400115" lon="-5.805491">
        <ele>167</ele>
        <time>2019-11-24T17:03:21Z</time>
      </trkpt>
      <trkpt lat="43.400117" lon="-5.805576">
        <ele>166.8</ele>
        <time>2019-11-24T17:03:22Z</time>
      </trkpt>
      <trkpt lat="43.400119" lon="-5.805663">
        <ele>166.2</ele>
        <time>2019-11-24T17:03:23Z</time>
      </trkpt>
      <trkpt lat="43.40012" lon="-5.805749">
        <ele>166.2</ele>
        <time>2019-11-24T17:03:24Z</time>
      </trkpt>
      <trkpt lat="43.400121" lon="-5.805836">
        <ele>166.4</ele>
        <time>2019-11-24T17:03:25Z</time>
      </trkpt>
      <trkpt lat="43.400123" lon="-5.805925">
        <ele>166.4</ele>
        <time>2019-11-24T17:03:26Z</time>
      </trkpt>
      <trkpt lat="43.400126" lon="-5.806014">
        <ele>166.2</ele>
        <time>2019-11-24T17:03:27Z</time>
      </trkpt>
      <trkpt lat="43.400132" lon="-5.806105">
        <ele>166</ele>
        <time>2019-11-24T17:03:28Z</time>
      </trkpt>
      <trkpt lat="43.400138" lon="-5.806196">
        <ele>166</ele>
        <time>2019-11-24T17:03:29Z</time>
      </trkpt>
      <trkpt lat="43.400141" lon="-5.806287">
        <ele>165.6</ele>
        <time>2019-11-24T17:03:30Z</time>
      </trkpt>
      <trkpt lat="43.400143" lon="-5.806379">
        <ele>165.8</ele>
        <time>2019-11-24T17:03:31Z</time>
      </trkpt>
      <trkpt lat="43.400145" lon="-5.806472">
        <ele>165.8</ele>
        <time>2019-11-24T17:03:32Z</time>
      </trkpt>
      <trkpt lat="43.40015" lon="-5.806566">
        <ele>165</ele>
        <time>2019-11-24T17:03:33Z</time>
      </trkpt>
      <trkpt lat="43.400153" lon="-5.806662">
        <ele>165.4</ele>
        <time>2019-11-24T17:03:34Z</time>
      </trkpt>
      <trkpt lat="43.400155" lon="-5.806757">
        <ele>165.2</ele>
        <time>2019-11-24T17:03:35Z</time>
      </trkpt>
      <trkpt lat="43.400159" lon="-5.806851">
        <ele>164.4</ele>
        <time>2019-11-24T17:03:36Z</time>
      </trkpt>
      <trkpt lat="43.400161" lon="-5.806944">
        <ele>165.2</ele>
        <time>2019-11-24T17:03:37Z</time>
      </trkpt>
      <trkpt lat="43.400166" lon="-5.807037">
        <ele>164.8</ele>
        <time>2019-11-24T17:03:38Z</time>
      </trkpt>
      <trkpt lat="43.40017" lon="-5.807129">
        <ele>164.8</ele>
        <time>2019-11-24T17:03:39Z</time>
      </trkpt>
      <trkpt lat="43.400173" lon="-5.807222">
        <ele>164.2</ele>
        <time>2019-11-24T17:03:40Z</time>
      </trkpt>
      <trkpt lat="43.400177" lon="-5.807316">
        <ele>164.4</ele>
        <time>2019-11-24T17:03:41Z</time>
      </trkpt>
      <trkpt lat="43.400183" lon="-5.807411">
        <ele>164.4</ele>
        <time>2019-11-24T17:03:42Z</time>
      </trkpt>
      <trkpt lat="43.400189" lon="-5.807507">
        <ele>164.6</ele>
        <time>2019-11-24T17:03:43Z</time>
      </trkpt>
      <trkpt lat="43.400195" lon="-5.807604">
        <ele>164.4</ele>
        <time>2019-11-24T17:03:44Z</time>
      </trkpt>
      <trkpt lat="43.400194" lon="-5.807698">
        <ele>164.8</ele>
        <time>2019-11-24T17:03:45Z</time>
      </trkpt>
      <trkpt lat="43.4002" lon="-5.807789">
        <ele>164.4</ele>
        <time>2019-11-24T17:03:46Z</time>
      </trkpt>
      <trkpt lat="43.400203" lon="-5.80788">
        <ele>164.2</ele>
        <time>2019-11-24T17:03:47Z</time>
      </trkpt>
      <trkpt lat="43.400206" lon="-5.807972">
        <ele>163.8</ele>
        <time>2019-11-24T17:03:48Z</time>
      </trkpt>
      <trkpt lat="43.40021" lon="-5.808066">
        <ele>164</ele>
        <time>2019-11-24T17:03:49Z</time>
      </trkpt>
      <trkpt lat="43.400219" lon="-5.808158">
        <ele>163.8</ele>
        <time>2019-11-24T17:03:50Z</time>
      </trkpt>
      <trkpt lat="43.400237" lon="-5.808247">
        <ele>163.2</ele>
        <time>2019-11-24T17:03:51Z</time>
      </trkpt>
      <trkpt lat="43.400264" lon="-5.808331">
        <ele>163.6</ele>
        <time>2019-11-24T17:03:52Z</time>
      </trkpt>
      <trkpt lat="43.400288" lon="-5.808416">
        <ele>164</ele>
        <time>2019-11-24T17:03:53Z</time>
      </trkpt>
      <trkpt lat="43.400294" lon="-5.808503">
        <ele>164.2</ele>
        <time>2019-11-24T17:03:54Z</time>
      </trkpt>
      <trkpt lat="43.400276" lon="-5.808592">
        <ele>163.8</ele>
        <time>2019-11-24T17:03:55Z</time>
      </trkpt>
      <trkpt lat="43.400247" lon="-5.80867">
        <ele>163.4</ele>
        <time>2019-11-24T17:03:56Z</time>
      </trkpt>
      <trkpt lat="43.400227" lon="-5.808752">
        <ele>163.8</ele>
        <time>2019-11-24T17:03:57Z</time>
      </trkpt>
      <trkpt lat="43.40022" lon="-5.808837">
        <ele>163.4</ele>
        <time>2019-11-24T17:03:58Z</time>
      </trkpt>
      <trkpt lat="43.400223" lon="-5.808916">
        <ele>164</ele>
        <time>2019-11-24T17:03:59Z</time>
      </trkpt>
      <trkpt lat="43.400227" lon="-5.808982">
        <ele>164.2</ele>
        <time>2019-11-24T17:04:00Z</time>
      </trkpt>
      <trkpt lat="43.40023" lon="-5.809031">
        <ele>164.2</ele>
        <time>2019-11-24T17:04:01Z</time>
      </trkpt>
      <trkpt lat="43.400231" lon="-5.809065">
        <ele>164.6</ele>
        <time>2019-11-24T17:04:02Z</time>
      </trkpt>
      <trkpt lat="43.40023" lon="-5.809084">
        <ele>164.6</ele>
        <time>2019-11-24T17:04:03Z</time>
      </trkpt>
      <trkpt lat="43.400231" lon="-5.80909">
        <ele>164.6</ele>
        <time>2019-11-24T17:04:04Z</time>
      </trkpt>
      <trkpt lat="43.400232" lon="-5.809093">
        <ele>164.6</ele>
        <time>2019-11-24T17:04:05Z</time>
      </trkpt>
      <trkpt lat="43.400238" lon="-5.809164">
        <ele>163.8</ele>
        <time>2019-11-24T17:04:26Z</time>
      </trkpt>
      <trkpt lat="43.400241" lon="-5.809193">
        <ele>164.4</ele>
        <time>2019-11-24T17:04:27Z</time>
      </trkpt>
      <trkpt lat="43.400246" lon="-5.809229">
        <ele>164.4</ele>
        <time>2019-11-24T17:04:28Z</time>
      </trkpt>
      <trkpt lat="43.400252" lon="-5.809273">
        <ele>164</ele>
        <time>2019-11-24T17:04:29Z</time>
      </trkpt>
      <trkpt lat="43.400253" lon="-5.809324">
        <ele>164</ele>
        <time>2019-11-24T17:04:30Z</time>
      </trkpt>
      <trkpt lat="43.400255" lon="-5.809381">
        <ele>164.2</ele>
        <time>2019-11-24T17:04:31Z</time>
      </trkpt>
      <trkpt lat="43.400259" lon="-5.809442">
        <ele>164.4</ele>
        <time>2019-11-24T17:04:32Z</time>
      </trkpt>
      <trkpt lat="43.400266" lon="-5.809505">
        <ele>164.2</ele>
        <time>2019-11-24T17:04:33Z</time>
      </trkpt>
      <trkpt lat="43.400271" lon="-5.80957">
        <ele>163.8</ele>
        <time>2019-11-24T17:04:34Z</time>
      </trkpt>
      <trkpt lat="43.400275" lon="-5.809635">
        <ele>163.2</ele>
        <time>2019-11-24T17:04:35Z</time>
      </trkpt>
      <trkpt lat="43.400275" lon="-5.8097">
        <ele>163.4</ele>
        <time>2019-11-24T17:04:36Z</time>
      </trkpt>
      <trkpt lat="43.400273" lon="-5.809768">
        <ele>163.4</ele>
        <time>2019-11-24T17:04:37Z</time>
      </trkpt>
      <trkpt lat="43.400273" lon="-5.809837">
        <ele>163.4</ele>
        <time>2019-11-24T17:04:38Z</time>
      </trkpt>
      <trkpt lat="43.400272" lon="-5.809908">
        <ele>164</ele>
        <time>2019-11-24T17:04:39Z</time>
      </trkpt>
      <trkpt lat="43.400274" lon="-5.809979">
        <ele>164.6</ele>
        <time>2019-11-24T17:04:40Z</time>
      </trkpt>
      <trkpt lat="43.400277" lon="-5.810049">
        <ele>164.2</ele>
        <time>2019-11-24T17:04:41Z</time>
      </trkpt>
      <trkpt lat="43.40028" lon="-5.810117">
        <ele>163.6</ele>
        <time>2019-11-24T17:04:42Z</time>
      </trkpt>
      <trkpt lat="43.400286" lon="-5.810184">
        <ele>163.4</ele>
        <time>2019-11-24T17:04:43Z</time>
      </trkpt>
      <trkpt lat="43.400292" lon="-5.810252">
        <ele>164</ele>
        <time>2019-11-24T17:04:44Z</time>
      </trkpt>
      <trkpt lat="43.400297" lon="-5.810316">
        <ele>164</ele>
        <time>2019-11-24T17:04:45Z</time>
      </trkpt>
      <trkpt lat="43.400299" lon="-5.81037">
        <ele>163.6</ele>
        <time>2019-11-24T17:04:46Z</time>
      </trkpt>
      <trkpt lat="43.400301" lon="-5.810424">
        <ele>164</ele>
        <time>2019-11-24T17:04:47Z</time>
      </trkpt>
      <trkpt lat="43.400302" lon="-5.810479">
        <ele>164.2</ele>
        <time>2019-11-24T17:04:48Z</time>
      </trkpt>
      <trkpt lat="43.400306" lon="-5.810534">
        <ele>164</ele>
        <time>2019-11-24T17:04:49Z</time>
      </trkpt>
      <trkpt lat="43.400302" lon="-5.810591">
        <ele>163.8</ele>
        <time>2019-11-24T17:04:50Z</time>
      </trkpt>
      <trkpt lat="43.400304" lon="-5.810649">
        <ele>163.8</ele>
        <time>2019-11-24T17:04:51Z</time>
      </trkpt>
      <trkpt lat="43.400298" lon="-5.810707">
        <ele>163.6</ele>
        <time>2019-11-24T17:04:52Z</time>
      </trkpt>
      <trkpt lat="43.400302" lon="-5.810762">
        <ele>163.8</ele>
        <time>2019-11-24T17:04:53Z</time>
      </trkpt>
      <trkpt lat="43.400316" lon="-5.810806">
        <ele>163.8</ele>
        <time>2019-11-24T17:04:54Z</time>
      </trkpt>
      <trkpt lat="43.400333" lon="-5.810838">
        <ele>163.8</ele>
        <time>2019-11-24T17:04:55Z</time>
      </trkpt>
      <trkpt lat="43.400363" lon="-5.810858">
        <ele>164.2</ele>
        <time>2019-11-24T17:04:56Z</time>
      </trkpt>
      <trkpt lat="43.40039" lon="-5.810861">
        <ele>164.2</ele>
        <time>2019-11-24T17:04:57Z</time>
      </trkpt>
      <trkpt lat="43.400412" lon="-5.810863">
        <ele>164.2</ele>
        <time>2019-11-24T17:04:58Z</time>
      </trkpt>
      <trkpt lat="43.400434" lon="-5.810871">
        <ele>164.2</ele>
        <time>2019-11-24T17:04:59Z</time>
      </trkpt>
      <trkpt lat="43.400455" lon="-5.810876">
        <ele>164.2</ele>
        <time>2019-11-24T17:05:00Z</time>
      </trkpt>
      <trkpt lat="43.400474" lon="-5.810882">
        <ele>164.2</ele>
        <time>2019-11-24T17:05:01Z</time>
      </trkpt>
      <trkpt lat="43.400492" lon="-5.810887">
        <ele>164.4</ele>
        <time>2019-11-24T17:05:02Z</time>
      </trkpt>
      <trkpt lat="43.400509" lon="-5.810895">
        <ele>164.4</ele>
        <time>2019-11-24T17:05:03Z</time>
      </trkpt>
      <trkpt lat="43.400532" lon="-5.810891">
        <ele>164.4</ele>
        <time>2019-11-24T17:05:04Z</time>
      </trkpt>
      <trkpt lat="43.400556" lon="-5.810881">
        <ele>164.4</ele>
        <time>2019-11-24T17:05:05Z</time>
      </trkpt>
      <trkpt lat="43.400578" lon="-5.810869">
        <ele>164.6</ele>
        <time>2019-11-24T17:05:06Z</time>
      </trkpt>
      <trkpt lat="43.400602" lon="-5.810859">
        <ele>164.4</ele>
        <time>2019-11-24T17:05:07Z</time>
      </trkpt>
      <trkpt lat="43.40063" lon="-5.810839">
        <ele>164.4</ele>
        <time>2019-11-24T17:05:08Z</time>
      </trkpt>
      <trkpt lat="43.400663" lon="-5.810821">
        <ele>164.6</ele>
        <time>2019-11-24T17:05:09Z</time>
      </trkpt>
      <trkpt lat="43.400696" lon="-5.810798">
        <ele>164.8</ele>
        <time>2019-11-24T17:05:10Z</time>
      </trkpt>
      <trkpt lat="43.400731" lon="-5.81077">
        <ele>164.6</ele>
        <time>2019-11-24T17:05:11Z</time>
      </trkpt>
      <trkpt lat="43.400765" lon="-5.810742">
        <ele>164.8</ele>
        <time>2019-11-24T17:05:12Z</time>
      </trkpt>
      <trkpt lat="43.400805" lon="-5.810717">
        <ele>164.6</ele>
        <time>2019-11-24T17:05:13Z</time>
      </trkpt>
      <trkpt lat="43.400836" lon="-5.810692">
        <ele>165</ele>
        <time>2019-11-24T17:05:14Z</time>
      </trkpt>
      <trkpt lat="43.400872" lon="-5.810672">
        <ele>165</ele>
        <time>2019-11-24T17:05:15Z</time>
      </trkpt>
      <trkpt lat="43.400912" lon="-5.81065">
        <ele>165</ele>
        <time>2019-11-24T17:05:16Z</time>
      </trkpt>
      <trkpt lat="43.400947" lon="-5.810625">
        <ele>165.4</ele>
        <time>2019-11-24T17:05:17Z</time>
      </trkpt>
      <trkpt lat="43.400983" lon="-5.810596">
        <ele>165.2</ele>
        <time>2019-11-24T17:05:18Z</time>
      </trkpt>
      <trkpt lat="43.401018" lon="-5.810561">
        <ele>165</ele>
        <time>2019-11-24T17:05:19Z</time>
      </trkpt>
      <trkpt lat="43.401052" lon="-5.810527">
        <ele>165.2</ele>
        <time>2019-11-24T17:05:20Z</time>
      </trkpt>
      <trkpt lat="43.401088" lon="-5.810493">
        <ele>165.2</ele>
        <time>2019-11-24T17:05:21Z</time>
      </trkpt>
      <trkpt lat="43.401127" lon="-5.810462">
        <ele>165.2</ele>
        <time>2019-11-24T17:05:22Z</time>
      </trkpt>
      <trkpt lat="43.401167" lon="-5.810429">
        <ele>165.2</ele>
        <time>2019-11-24T17:05:23Z</time>
      </trkpt>
      <trkpt lat="43.401206" lon="-5.810398">
        <ele>164.8</ele>
        <time>2019-11-24T17:05:24Z</time>
      </trkpt>
      <trkpt lat="43.401241" lon="-5.810359">
        <ele>164.8</ele>
        <time>2019-11-24T17:05:25Z</time>
      </trkpt>
      <trkpt lat="43.401278" lon="-5.81032">
        <ele>164.8</ele>
        <time>2019-11-24T17:05:26Z</time>
      </trkpt>
      <trkpt lat="43.401317" lon="-5.810282">
        <ele>164.6</ele>
        <time>2019-11-24T17:05:27Z</time>
      </trkpt>
      <trkpt lat="43.401358" lon="-5.810245">
        <ele>164.6</ele>
        <time>2019-11-24T17:05:28Z</time>
      </trkpt>
      <trkpt lat="43.4014" lon="-5.810209">
        <ele>164.4</ele>
        <time>2019-11-24T17:05:29Z</time>
      </trkpt>
      <trkpt lat="43.401443" lon="-5.810169">
        <ele>164.2</ele>
        <time>2019-11-24T17:05:30Z</time>
      </trkpt>
      <trkpt lat="43.401484" lon="-5.810127">
        <ele>164.2</ele>
        <time>2019-11-24T17:05:31Z</time>
      </trkpt>
      <trkpt lat="43.401529" lon="-5.810082">
        <ele>164.2</ele>
        <time>2019-11-24T17:05:32Z</time>
      </trkpt>
      <trkpt lat="43.401576" lon="-5.810036">
        <ele>164</ele>
        <time>2019-11-24T17:05:33Z</time>
      </trkpt>
      <trkpt lat="43.401627" lon="-5.809997">
        <ele>164</ele>
        <time>2019-11-24T17:05:34Z</time>
      </trkpt>
      <trkpt lat="43.401678" lon="-5.809955">
        <ele>164</ele>
        <time>2019-11-24T17:05:35Z</time>
      </trkpt>
      <trkpt lat="43.401727" lon="-5.809908">
        <ele>164.8</ele>
        <time>2019-11-24T17:05:36Z</time>
      </trkpt>
      <trkpt lat="43.401777" lon="-5.809862">
        <ele>164</ele>
        <time>2019-11-24T17:05:37Z</time>
      </trkpt>
      <trkpt lat="43.401828" lon="-5.80982">
        <ele>164</ele>
        <time>2019-11-24T17:05:38Z</time>
      </trkpt>
      <trkpt lat="43.401879" lon="-5.809774">
        <ele>164</ele>
        <time>2019-11-24T17:05:39Z</time>
      </trkpt>
      <trkpt lat="43.401929" lon="-5.809731">
        <ele>163.8</ele>
        <time>2019-11-24T17:05:40Z</time>
      </trkpt>
      <trkpt lat="43.401979" lon="-5.80969">
        <ele>163.8</ele>
        <time>2019-11-24T17:05:41Z</time>
      </trkpt>
      <trkpt lat="43.402027" lon="-5.809645">
        <ele>163.8</ele>
        <time>2019-11-24T17:05:42Z</time>
      </trkpt>
      <trkpt lat="43.402075" lon="-5.809605">
        <ele>163.8</ele>
        <time>2019-11-24T17:05:43Z</time>
      </trkpt>
      <trkpt lat="43.402118" lon="-5.809568">
        <ele>163.8</ele>
        <time>2019-11-24T17:05:44Z</time>
      </trkpt>
      <trkpt lat="43.402159" lon="-5.809538">
        <ele>164</ele>
        <time>2019-11-24T17:05:45Z</time>
      </trkpt>
      <trkpt lat="43.402196" lon="-5.809505">
        <ele>163.8</ele>
        <time>2019-11-24T17:05:46Z</time>
      </trkpt>
      <trkpt lat="43.402233" lon="-5.80947">
        <ele>163.8</ele>
        <time>2019-11-24T17:05:47Z</time>
      </trkpt>
      <trkpt lat="43.402269" lon="-5.809435">
        <ele>163.8</ele>
        <time>2019-11-24T17:05:48Z</time>
      </trkpt>
      <trkpt lat="43.402306" lon="-5.809403">
        <ele>163.6</ele>
        <time>2019-11-24T17:05:49Z</time>
      </trkpt>
      <trkpt lat="43.402345" lon="-5.809368">
        <ele>163.6</ele>
        <time>2019-11-24T17:05:50Z</time>
      </trkpt>
      <trkpt lat="43.402383" lon="-5.80933">
        <ele>163.4</ele>
        <time>2019-11-24T17:05:51Z</time>
      </trkpt>
      <trkpt lat="43.402426" lon="-5.809294">
        <ele>163.4</ele>
        <time>2019-11-24T17:05:52Z</time>
      </trkpt>
      <trkpt lat="43.402472" lon="-5.809254">
        <ele>162.8</ele>
        <time>2019-11-24T17:05:53Z</time>
      </trkpt>
      <trkpt lat="43.402521" lon="-5.809216">
        <ele>162.6</ele>
        <time>2019-11-24T17:05:54Z</time>
      </trkpt>
      <trkpt lat="43.402569" lon="-5.809173">
        <ele>162.6</ele>
        <time>2019-11-24T17:05:55Z</time>
      </trkpt>
      <trkpt lat="43.402618" lon="-5.809131">
        <ele>162.6</ele>
        <time>2019-11-24T17:05:56Z</time>
      </trkpt>
      <trkpt lat="43.402672" lon="-5.809093">
        <ele>162.6</ele>
        <time>2019-11-24T17:05:57Z</time>
      </trkpt>
      <trkpt lat="43.402729" lon="-5.809053">
        <ele>162.6</ele>
        <time>2019-11-24T17:05:58Z</time>
      </trkpt>
      <trkpt lat="43.402786" lon="-5.809009">
        <ele>162.4</ele>
        <time>2019-11-24T17:05:59Z</time>
      </trkpt>
      <trkpt lat="43.402843" lon="-5.808965">
        <ele>162.6</ele>
        <time>2019-11-24T17:06:00Z</time>
      </trkpt>
      <trkpt lat="43.402904" lon="-5.808923">
        <ele>162.4</ele>
        <time>2019-11-24T17:06:01Z</time>
      </trkpt>
      <trkpt lat="43.402965" lon="-5.80888">
        <ele>162.2</ele>
        <time>2019-11-24T17:06:02Z</time>
      </trkpt>
      <trkpt lat="43.403024" lon="-5.808833">
        <ele>162</ele>
        <time>2019-11-24T17:06:03Z</time>
      </trkpt>
      <trkpt lat="43.403082" lon="-5.808784">
        <ele>162</ele>
        <time>2019-11-24T17:06:04Z</time>
      </trkpt>
      <trkpt lat="43.40314" lon="-5.808733">
        <ele>162.4</ele>
        <time>2019-11-24T17:06:05Z</time>
      </trkpt>
      <trkpt lat="43.4032" lon="-5.808686">
        <ele>162.2</ele>
        <time>2019-11-24T17:06:06Z</time>
      </trkpt>
      <trkpt lat="43.403258" lon="-5.808635">
        <ele>161.8</ele>
        <time>2019-11-24T17:06:07Z</time>
      </trkpt>
      <trkpt lat="43.403315" lon="-5.808583">
        <ele>161.8</ele>
        <time>2019-11-24T17:06:08Z</time>
      </trkpt>
      <trkpt lat="43.403373" lon="-5.808529">
        <ele>161.8</ele>
        <time>2019-11-24T17:06:09Z</time>
      </trkpt>
      <trkpt lat="43.403433" lon="-5.808477">
        <ele>161.6</ele>
        <time>2019-11-24T17:06:10Z</time>
      </trkpt>
      <trkpt lat="43.403493" lon="-5.808424">
        <ele>161.4</ele>
        <time>2019-11-24T17:06:11Z</time>
      </trkpt>
      <trkpt lat="43.40355" lon="-5.80837">
        <ele>161.4</ele>
        <time>2019-11-24T17:06:12Z</time>
      </trkpt>
      <trkpt lat="43.403608" lon="-5.808319">
        <ele>161.2</ele>
        <time>2019-11-24T17:06:13Z</time>
      </trkpt>
      <trkpt lat="43.403669" lon="-5.80827">
        <ele>161.4</ele>
        <time>2019-11-24T17:06:14Z</time>
      </trkpt>
      <trkpt lat="43.403736" lon="-5.80823">
        <ele>161</ele>
        <time>2019-11-24T17:06:15Z</time>
      </trkpt>
      <trkpt lat="43.403802" lon="-5.808197">
        <ele>160.6</ele>
        <time>2019-11-24T17:06:16Z</time>
      </trkpt>
      <trkpt lat="43.403869" lon="-5.808153">
        <ele>160.2</ele>
        <time>2019-11-24T17:06:17Z</time>
      </trkpt>
      <trkpt lat="43.403924" lon="-5.808097">
        <ele>160.6</ele>
        <time>2019-11-24T17:06:18Z</time>
      </trkpt>
      <trkpt lat="43.403974" lon="-5.808033">
        <ele>161</ele>
        <time>2019-11-24T17:06:19Z</time>
      </trkpt>
      <trkpt lat="43.404029" lon="-5.807976">
        <ele>161</ele>
        <time>2019-11-24T17:06:20Z</time>
      </trkpt>
      <trkpt lat="43.40409" lon="-5.807939">
        <ele>160.8</ele>
        <time>2019-11-24T17:06:21Z</time>
      </trkpt>
      <trkpt lat="43.40416" lon="-5.807933">
        <ele>160.4</ele>
        <time>2019-11-24T17:06:22Z</time>
      </trkpt>
      <trkpt lat="43.404222" lon="-5.807957">
        <ele>160.8</ele>
        <time>2019-11-24T17:06:23Z</time>
      </trkpt>
      <trkpt lat="43.404273" lon="-5.808011">
        <ele>161.2</ele>
        <time>2019-11-24T17:06:24Z</time>
      </trkpt>
      <trkpt lat="43.404305" lon="-5.808092">
        <ele>160.8</ele>
        <time>2019-11-24T17:06:25Z</time>
      </trkpt>
      <trkpt lat="43.404317" lon="-5.80818">
        <ele>161</ele>
        <time>2019-11-24T17:06:26Z</time>
      </trkpt>
      <trkpt lat="43.404322" lon="-5.808272">
        <ele>161.6</ele>
        <time>2019-11-24T17:06:27Z</time>
      </trkpt>
      <trkpt lat="43.404329" lon="-5.808362">
        <ele>161.4</ele>
        <time>2019-11-24T17:06:28Z</time>
      </trkpt>
      <trkpt lat="43.404342" lon="-5.808445">
        <ele>161.6</ele>
        <time>2019-11-24T17:06:29Z</time>
      </trkpt>
      <trkpt lat="43.404363" lon="-5.808521">
        <ele>161.8</ele>
        <time>2019-11-24T17:06:30Z</time>
      </trkpt>
      <trkpt lat="43.404388" lon="-5.808592">
        <ele>162</ele>
        <time>2019-11-24T17:06:31Z</time>
      </trkpt>
      <trkpt lat="43.40442" lon="-5.808659">
        <ele>162.2</ele>
        <time>2019-11-24T17:06:32Z</time>
      </trkpt>
      <trkpt lat="43.404455" lon="-5.808726">
        <ele>162.2</ele>
        <time>2019-11-24T17:06:33Z</time>
      </trkpt>
      <trkpt lat="43.40449" lon="-5.808794">
        <ele>162.4</ele>
        <time>2019-11-24T17:06:34Z</time>
      </trkpt>
      <trkpt lat="43.404526" lon="-5.808861">
        <ele>162.6</ele>
        <time>2019-11-24T17:06:35Z</time>
      </trkpt>
      <trkpt lat="43.404563" lon="-5.808928">
        <ele>162.8</ele>
        <time>2019-11-24T17:06:36Z</time>
      </trkpt>
      <trkpt lat="43.404598" lon="-5.808993">
        <ele>163</ele>
        <time>2019-11-24T17:06:37Z</time>
      </trkpt>
      <trkpt lat="43.404635" lon="-5.809055">
        <ele>163.2</ele>
        <time>2019-11-24T17:06:38Z</time>
      </trkpt>
      <trkpt lat="43.404669" lon="-5.809122">
        <ele>163.4</ele>
        <time>2019-11-24T17:06:39Z</time>
      </trkpt>
      <trkpt lat="43.404704" lon="-5.809189">
        <ele>163.6</ele>
        <time>2019-11-24T17:06:40Z</time>
      </trkpt>
      <trkpt lat="43.404741" lon="-5.809254">
        <ele>163.8</ele>
        <time>2019-11-24T17:06:41Z</time>
      </trkpt>
      <trkpt lat="43.404773" lon="-5.809324">
        <ele>164</ele>
        <time>2019-11-24T17:06:42Z</time>
      </trkpt>
      <trkpt lat="43.404808" lon="-5.809392">
        <ele>164.4</ele>
        <time>2019-11-24T17:06:43Z</time>
      </trkpt>
      <trkpt lat="43.404843" lon="-5.809458">
        <ele>165</ele>
        <time>2019-11-24T17:06:44Z</time>
      </trkpt>
      <trkpt lat="43.404878" lon="-5.809524">
        <ele>165.2</ele>
        <time>2019-11-24T17:06:45Z</time>
      </trkpt>
      <trkpt lat="43.404914" lon="-5.809588">
        <ele>165.4</ele>
        <time>2019-11-24T17:06:46Z</time>
      </trkpt>
      <trkpt lat="43.404949" lon="-5.809656">
        <ele>165.8</ele>
        <time>2019-11-24T17:06:47Z</time>
      </trkpt>
      <trkpt lat="43.404981" lon="-5.809725">
        <ele>166.4</ele>
        <time>2019-11-24T17:06:48Z</time>
      </trkpt>
      <trkpt lat="43.405015" lon="-5.809792">
        <ele>166.6</ele>
        <time>2019-11-24T17:06:49Z</time>
      </trkpt>
      <trkpt lat="43.405049" lon="-5.80986">
        <ele>166.8</ele>
        <time>2019-11-24T17:06:50Z</time>
      </trkpt>
      <trkpt lat="43.405083" lon="-5.809927">
        <ele>167</ele>
        <time>2019-11-24T17:06:51Z</time>
      </trkpt>
      <trkpt lat="43.405119" lon="-5.809994">
        <ele>167.4</ele>
        <time>2019-11-24T17:06:52Z</time>
      </trkpt>
      <trkpt lat="43.405155" lon="-5.810061">
        <ele>167.6</ele>
        <time>2019-11-24T17:06:53Z</time>
      </trkpt>
      <trkpt lat="43.405189" lon="-5.810129">
        <ele>168.2</ele>
        <time>2019-11-24T17:06:54Z</time>
      </trkpt>
      <trkpt lat="43.405226" lon="-5.810195">
        <ele>168.6</ele>
        <time>2019-11-24T17:06:55Z</time>
      </trkpt>
      <trkpt lat="43.405262" lon="-5.810263">
        <ele>169.2</ele>
        <time>2019-11-24T17:06:56Z</time>
      </trkpt>
      <trkpt lat="43.405293" lon="-5.810333">
        <ele>169.2</ele>
        <time>2019-11-24T17:06:57Z</time>
      </trkpt>
      <trkpt lat="43.405329" lon="-5.810405">
        <ele>169.4</ele>
        <time>2019-11-24T17:06:58Z</time>
      </trkpt>
      <trkpt lat="43.405365" lon="-5.810477">
        <ele>169.6</ele>
        <time>2019-11-24T17:06:59Z</time>
      </trkpt>
      <trkpt lat="43.405401" lon="-5.810548">
        <ele>169.8</ele>
        <time>2019-11-24T17:07:00Z</time>
      </trkpt>
      <trkpt lat="43.405436" lon="-5.81062">
        <ele>169.8</ele>
        <time>2019-11-24T17:07:01Z</time>
      </trkpt>
      <trkpt lat="43.40547" lon="-5.810691">
        <ele>169.6</ele>
        <time>2019-11-24T17:07:02Z</time>
      </trkpt>
      <trkpt lat="43.405506" lon="-5.810761">
        <ele>170</ele>
        <time>2019-11-24T17:07:03Z</time>
      </trkpt>
      <trkpt lat="43.405543" lon="-5.810833">
        <ele>169.2</ele>
        <time>2019-11-24T17:07:04Z</time>
      </trkpt>
      <trkpt lat="43.405579" lon="-5.810906">
        <ele>169.6</ele>
        <time>2019-11-24T17:07:05Z</time>
      </trkpt>
      <trkpt lat="43.405617" lon="-5.81098">
        <ele>169.6</ele>
        <time>2019-11-24T17:07:06Z</time>
      </trkpt>
      <trkpt lat="43.405655" lon="-5.811054">
        <ele>169.6</ele>
        <time>2019-11-24T17:07:07Z</time>
      </trkpt>
      <trkpt lat="43.405693" lon="-5.811127">
        <ele>169.8</ele>
        <time>2019-11-24T17:07:08Z</time>
      </trkpt>
      <trkpt lat="43.405733" lon="-5.811195">
        <ele>169.8</ele>
        <time>2019-11-24T17:07:09Z</time>
      </trkpt>
      <trkpt lat="43.405773" lon="-5.81126">
        <ele>169.8</ele>
        <time>2019-11-24T17:07:10Z</time>
      </trkpt>
      <trkpt lat="43.405817" lon="-5.81132">
        <ele>169.6</ele>
        <time>2019-11-24T17:07:11Z</time>
      </trkpt>
      <trkpt lat="43.405861" lon="-5.811375">
        <ele>169.6</ele>
        <time>2019-11-24T17:07:12Z</time>
      </trkpt>
      <trkpt lat="43.405906" lon="-5.811425">
        <ele>169.8</ele>
        <time>2019-11-24T17:07:13Z</time>
      </trkpt>
      <trkpt lat="43.40595" lon="-5.811469">
        <ele>170.2</ele>
        <time>2019-11-24T17:07:14Z</time>
      </trkpt>
      <trkpt lat="43.405995" lon="-5.811512">
        <ele>170.2</ele>
        <time>2019-11-24T17:07:15Z</time>
      </trkpt>
      <trkpt lat="43.406042" lon="-5.811551">
        <ele>170.2</ele>
        <time>2019-11-24T17:07:16Z</time>
      </trkpt>
      <trkpt lat="43.406091" lon="-5.81159">
        <ele>169.8</ele>
        <time>2019-11-24T17:07:17Z</time>
      </trkpt>
      <trkpt lat="43.406141" lon="-5.811629">
        <ele>170.4</ele>
        <time>2019-11-24T17:07:18Z</time>
      </trkpt>
      <trkpt lat="43.406189" lon="-5.811669">
        <ele>170.4</ele>
        <time>2019-11-24T17:07:19Z</time>
      </trkpt>
      <trkpt lat="43.406238" lon="-5.811705">
        <ele>170.4</ele>
        <time>2019-11-24T17:07:20Z</time>
      </trkpt>
      <trkpt lat="43.406288" lon="-5.811741">
        <ele>170</ele>
        <time>2019-11-24T17:07:21Z</time>
      </trkpt>
      <trkpt lat="43.406337" lon="-5.811778">
        <ele>169.6</ele>
        <time>2019-11-24T17:07:22Z</time>
      </trkpt>
      <trkpt lat="43.406386" lon="-5.811814">
        <ele>169.4</ele>
        <time>2019-11-24T17:07:23Z</time>
      </trkpt>
      <trkpt lat="43.406437" lon="-5.811852">
        <ele>169.8</ele>
        <time>2019-11-24T17:07:24Z</time>
      </trkpt>
      <trkpt lat="43.406487" lon="-5.811888">
        <ele>169.6</ele>
        <time>2019-11-24T17:07:25Z</time>
      </trkpt>
      <trkpt lat="43.406537" lon="-5.811925">
        <ele>169.8</ele>
        <time>2019-11-24T17:07:26Z</time>
      </trkpt>
      <trkpt lat="43.406588" lon="-5.811961">
        <ele>169.8</ele>
        <time>2019-11-24T17:07:27Z</time>
      </trkpt>
      <trkpt lat="43.406638" lon="-5.811997">
        <ele>169.6</ele>
        <time>2019-11-24T17:07:28Z</time>
      </trkpt>
      <trkpt lat="43.406688" lon="-5.812033">
        <ele>170.2</ele>
        <time>2019-11-24T17:07:29Z</time>
      </trkpt>
      <trkpt lat="43.406737" lon="-5.81207">
        <ele>170.2</ele>
        <time>2019-11-24T17:07:30Z</time>
      </trkpt>
      <trkpt lat="43.406786" lon="-5.812107">
        <ele>170.2</ele>
        <time>2019-11-24T17:07:31Z</time>
      </trkpt>
      <trkpt lat="43.406834" lon="-5.812145">
        <ele>170.6</ele>
        <time>2019-11-24T17:07:32Z</time>
      </trkpt>
      <trkpt lat="43.406883" lon="-5.812183">
        <ele>170.6</ele>
        <time>2019-11-24T17:07:33Z</time>
      </trkpt>
      <trkpt lat="43.406931" lon="-5.812221">
        <ele>170.8</ele>
        <time>2019-11-24T17:07:34Z</time>
      </trkpt>
      <trkpt lat="43.40698" lon="-5.812261">
        <ele>170.6</ele>
        <time>2019-11-24T17:07:35Z</time>
      </trkpt>
      <trkpt lat="43.407031" lon="-5.812299">
        <ele>170.6</ele>
        <time>2019-11-24T17:07:36Z</time>
      </trkpt>
      <trkpt lat="43.407082" lon="-5.812337">
        <ele>170.8</ele>
        <time>2019-11-24T17:07:37Z</time>
      </trkpt>
      <trkpt lat="43.407134" lon="-5.812376">
        <ele>170</ele>
        <time>2019-11-24T17:07:38Z</time>
      </trkpt>
      <trkpt lat="43.407185" lon="-5.812415">
        <ele>170</ele>
        <time>2019-11-24T17:07:39Z</time>
      </trkpt>
      <trkpt lat="43.407237" lon="-5.812454">
        <ele>170</ele>
        <time>2019-11-24T17:07:40Z</time>
      </trkpt>
      <trkpt lat="43.40729" lon="-5.812496">
        <ele>169.8</ele>
        <time>2019-11-24T17:07:41Z</time>
      </trkpt>
      <trkpt lat="43.407344" lon="-5.81254">
        <ele>169.2</ele>
        <time>2019-11-24T17:07:42Z</time>
      </trkpt>
      <trkpt lat="43.407401" lon="-5.812585">
        <ele>169.2</ele>
        <time>2019-11-24T17:07:43Z</time>
      </trkpt>
      <trkpt lat="43.40746" lon="-5.812631">
        <ele>169.2</ele>
        <time>2019-11-24T17:07:44Z</time>
      </trkpt>
      <trkpt lat="43.407519" lon="-5.812676">
        <ele>169</ele>
        <time>2019-11-24T17:07:45Z</time>
      </trkpt>
      <trkpt lat="43.40758" lon="-5.812721">
        <ele>168.8</ele>
        <time>2019-11-24T17:07:46Z</time>
      </trkpt>
      <trkpt lat="43.407642" lon="-5.812765">
        <ele>168.4</ele>
        <time>2019-11-24T17:07:47Z</time>
      </trkpt>
      <trkpt lat="43.407703" lon="-5.812809">
        <ele>168.2</ele>
        <time>2019-11-24T17:07:48Z</time>
      </trkpt>
      <trkpt lat="43.407764" lon="-5.812855">
        <ele>167.8</ele>
        <time>2019-11-24T17:07:49Z</time>
      </trkpt>
      <trkpt lat="43.407826" lon="-5.812901">
        <ele>167.4</ele>
        <time>2019-11-24T17:07:50Z</time>
      </trkpt>
      <trkpt lat="43.407887" lon="-5.812951">
        <ele>167.2</ele>
        <time>2019-11-24T17:07:51Z</time>
      </trkpt>
      <trkpt lat="43.407949" lon="-5.813001">
        <ele>167.2</ele>
        <time>2019-11-24T17:07:52Z</time>
      </trkpt>
      <trkpt lat="43.408012" lon="-5.813049">
        <ele>167.6</ele>
        <time>2019-11-24T17:07:53Z</time>
      </trkpt>
      <trkpt lat="43.408074" lon="-5.813098">
        <ele>167.4</ele>
        <time>2019-11-24T17:07:54Z</time>
      </trkpt>
      <trkpt lat="43.408139" lon="-5.813147">
        <ele>167.2</ele>
        <time>2019-11-24T17:07:55Z</time>
      </trkpt>
      <trkpt lat="43.408204" lon="-5.813196">
        <ele>167</ele>
        <time>2019-11-24T17:07:56Z</time>
      </trkpt>
      <trkpt lat="43.40827" lon="-5.813246">
        <ele>166.4</ele>
        <time>2019-11-24T17:07:57Z</time>
      </trkpt>
      <trkpt lat="43.408338" lon="-5.813298">
        <ele>166.4</ele>
        <time>2019-11-24T17:07:58Z</time>
      </trkpt>
      <trkpt lat="43.408407" lon="-5.813349">
        <ele>166.4</ele>
        <time>2019-11-24T17:07:59Z</time>
      </trkpt>
      <trkpt lat="43.408478" lon="-5.813401">
        <ele>166.2</ele>
        <time>2019-11-24T17:08:00Z</time>
      </trkpt>
      <trkpt lat="43.408549" lon="-5.813455">
        <ele>165.6</ele>
        <time>2019-11-24T17:08:01Z</time>
      </trkpt>
      <trkpt lat="43.408619" lon="-5.813508">
        <ele>165.2</ele>
        <time>2019-11-24T17:08:02Z</time>
      </trkpt>
      <trkpt lat="43.408688" lon="-5.813561">
        <ele>165</ele>
        <time>2019-11-24T17:08:03Z</time>
      </trkpt>
      <trkpt lat="43.408758" lon="-5.813611">
        <ele>166</ele>
        <time>2019-11-24T17:08:04Z</time>
      </trkpt>
      <trkpt lat="43.40883" lon="-5.813655">
        <ele>165.2</ele>
        <time>2019-11-24T17:08:05Z</time>
      </trkpt>
      <trkpt lat="43.408902" lon="-5.813695">
        <ele>164.8</ele>
        <time>2019-11-24T17:08:06Z</time>
      </trkpt>
      <trkpt lat="43.408976" lon="-5.813731">
        <ele>164.2</ele>
        <time>2019-11-24T17:08:07Z</time>
      </trkpt>
      <trkpt lat="43.409051" lon="-5.813765">
        <ele>163.8</ele>
        <time>2019-11-24T17:08:08Z</time>
      </trkpt>
      <trkpt lat="43.409127" lon="-5.813797">
        <ele>163.2</ele>
        <time>2019-11-24T17:08:09Z</time>
      </trkpt>
      <trkpt lat="43.409205" lon="-5.813827">
        <ele>163.2</ele>
        <time>2019-11-24T17:08:10Z</time>
      </trkpt>
      <trkpt lat="43.409284" lon="-5.813857">
        <ele>163.4</ele>
        <time>2019-11-24T17:08:11Z</time>
      </trkpt>
      <trkpt lat="43.409365" lon="-5.813884">
        <ele>163.4</ele>
        <time>2019-11-24T17:08:12Z</time>
      </trkpt>
      <trkpt lat="43.409448" lon="-5.813909">
        <ele>163</ele>
        <time>2019-11-24T17:08:13Z</time>
      </trkpt>
      <trkpt lat="43.40953" lon="-5.813934">
        <ele>162.6</ele>
        <time>2019-11-24T17:08:14Z</time>
      </trkpt>
      <trkpt lat="43.409614" lon="-5.813958">
        <ele>162.8</ele>
        <time>2019-11-24T17:08:15Z</time>
      </trkpt>
      <trkpt lat="43.409698" lon="-5.813981">
        <ele>163</ele>
        <time>2019-11-24T17:08:16Z</time>
      </trkpt>
      <trkpt lat="43.409782" lon="-5.814002">
        <ele>163</ele>
        <time>2019-11-24T17:08:17Z</time>
      </trkpt>
      <trkpt lat="43.409866" lon="-5.814023">
        <ele>162.4</ele>
        <time>2019-11-24T17:08:18Z</time>
      </trkpt>
      <trkpt lat="43.40995" lon="-5.814042">
        <ele>162.2</ele>
        <time>2019-11-24T17:08:19Z</time>
      </trkpt>
      <trkpt lat="43.410034" lon="-5.814059">
        <ele>162.6</ele>
        <time>2019-11-24T17:08:20Z</time>
      </trkpt>
      <trkpt lat="43.410119" lon="-5.814075">
        <ele>162.6</ele>
        <time>2019-11-24T17:08:21Z</time>
      </trkpt>
      <trkpt lat="43.410205" lon="-5.814088">
        <ele>162.4</ele>
        <time>2019-11-24T17:08:22Z</time>
      </trkpt>
      <trkpt lat="43.410289" lon="-5.814103">
        <ele>162.6</ele>
        <time>2019-11-24T17:08:23Z</time>
      </trkpt>
      <trkpt lat="43.410373" lon="-5.814115">
        <ele>162.6</ele>
        <time>2019-11-24T17:08:24Z</time>
      </trkpt>
      <trkpt lat="43.410457" lon="-5.814128">
        <ele>162.6</ele>
        <time>2019-11-24T17:08:25Z</time>
      </trkpt>
      <trkpt lat="43.410541" lon="-5.81414">
        <ele>162.8</ele>
        <time>2019-11-24T17:08:26Z</time>
      </trkpt>
      <trkpt lat="43.410624" lon="-5.814149">
        <ele>162.8</ele>
        <time>2019-11-24T17:08:27Z</time>
      </trkpt>
      <trkpt lat="43.410708" lon="-5.814155">
        <ele>162.6</ele>
        <time>2019-11-24T17:08:28Z</time>
      </trkpt>
      <trkpt lat="43.41079" lon="-5.814161">
        <ele>162.8</ele>
        <time>2019-11-24T17:08:29Z</time>
      </trkpt>
      <trkpt lat="43.410873" lon="-5.814166">
        <ele>163.2</ele>
        <time>2019-11-24T17:08:30Z</time>
      </trkpt>
      <trkpt lat="43.410956" lon="-5.814172">
        <ele>163</ele>
        <time>2019-11-24T17:08:31Z</time>
      </trkpt>
      <trkpt lat="43.411038" lon="-5.814176">
        <ele>163.2</ele>
        <time>2019-11-24T17:08:32Z</time>
      </trkpt>
      <trkpt lat="43.411119" lon="-5.814177">
        <ele>163.8</ele>
        <time>2019-11-24T17:08:33Z</time>
      </trkpt>
      <trkpt lat="43.4112" lon="-5.814176">
        <ele>163.8</ele>
        <time>2019-11-24T17:08:34Z</time>
      </trkpt>
      <trkpt lat="43.41128" lon="-5.814176">
        <ele>163.8</ele>
        <time>2019-11-24T17:08:35Z</time>
      </trkpt>
      <trkpt lat="43.411358" lon="-5.814176">
        <ele>164.2</ele>
        <time>2019-11-24T17:08:36Z</time>
      </trkpt>
      <trkpt lat="43.411436" lon="-5.814174">
        <ele>164.6</ele>
        <time>2019-11-24T17:08:37Z</time>
      </trkpt>
      <trkpt lat="43.411514" lon="-5.814172">
        <ele>164</ele>
        <time>2019-11-24T17:08:38Z</time>
      </trkpt>
      <trkpt lat="43.411593" lon="-5.814169">
        <ele>163.8</ele>
        <time>2019-11-24T17:08:39Z</time>
      </trkpt>
      <trkpt lat="43.411671" lon="-5.814167">
        <ele>163.8</ele>
        <time>2019-11-24T17:08:40Z</time>
      </trkpt>
      <trkpt lat="43.411751" lon="-5.814163">
        <ele>163.6</ele>
        <time>2019-11-24T17:08:41Z</time>
      </trkpt>
      <trkpt lat="43.41183" lon="-5.814161">
        <ele>163.2</ele>
        <time>2019-11-24T17:08:42Z</time>
      </trkpt>
      <trkpt lat="43.411909" lon="-5.814166">
        <ele>162.6</ele>
        <time>2019-11-24T17:08:43Z</time>
      </trkpt>
      <trkpt lat="43.411989" lon="-5.814181">
        <ele>162.2</ele>
        <time>2019-11-24T17:08:44Z</time>
      </trkpt>
      <trkpt lat="43.412068" lon="-5.814211">
        <ele>161.6</ele>
        <time>2019-11-24T17:08:45Z</time>
      </trkpt>
      <trkpt lat="43.412146" lon="-5.814256">
        <ele>160.8</ele>
        <time>2019-11-24T17:08:46Z</time>
      </trkpt>
      <trkpt lat="43.412221" lon="-5.814316">
        <ele>160.4</ele>
        <time>2019-11-24T17:08:47Z</time>
      </trkpt>
      <trkpt lat="43.412293" lon="-5.81439">
        <ele>160</ele>
        <time>2019-11-24T17:08:48Z</time>
      </trkpt>
      <trkpt lat="43.412364" lon="-5.814472">
        <ele>160</ele>
        <time>2019-11-24T17:08:49Z</time>
      </trkpt>
      <trkpt lat="43.412433" lon="-5.814562">
        <ele>159.4</ele>
        <time>2019-11-24T17:08:50Z</time>
      </trkpt>
      <trkpt lat="43.412501" lon="-5.814655">
        <ele>158.8</ele>
        <time>2019-11-24T17:08:51Z</time>
      </trkpt>
      <trkpt lat="43.412569" lon="-5.814752">
        <ele>158</ele>
        <time>2019-11-24T17:08:52Z</time>
      </trkpt>
      <trkpt lat="43.412639" lon="-5.81485">
        <ele>157.4</ele>
        <time>2019-11-24T17:08:53Z</time>
      </trkpt>
      <trkpt lat="43.412709" lon="-5.814949">
        <ele>156.6</ele>
        <time>2019-11-24T17:08:54Z</time>
      </trkpt>
      <trkpt lat="43.41278" lon="-5.815049">
        <ele>156.2</ele>
        <time>2019-11-24T17:08:55Z</time>
      </trkpt>
      <trkpt lat="43.412848" lon="-5.81515">
        <ele>155.8</ele>
        <time>2019-11-24T17:08:56Z</time>
      </trkpt>
      <trkpt lat="43.412917" lon="-5.815249">
        <ele>155.4</ele>
        <time>2019-11-24T17:08:57Z</time>
      </trkpt>
      <trkpt lat="43.412983" lon="-5.815343">
        <ele>155.2</ele>
        <time>2019-11-24T17:08:58Z</time>
      </trkpt>
      <trkpt lat="43.413048" lon="-5.815431">
        <ele>154.8</ele>
        <time>2019-11-24T17:08:59Z</time>
      </trkpt>
      <trkpt lat="43.413114" lon="-5.815507">
        <ele>154.6</ele>
        <time>2019-11-24T17:09:00Z</time>
      </trkpt>
      <trkpt lat="43.413183" lon="-5.815561">
        <ele>154.6</ele>
        <time>2019-11-24T17:09:01Z</time>
      </trkpt>
      <trkpt lat="43.413251" lon="-5.815582">
        <ele>154.6</ele>
        <time>2019-11-24T17:09:02Z</time>
      </trkpt>
      <trkpt lat="43.41332" lon="-5.815572">
        <ele>154.4</ele>
        <time>2019-11-24T17:09:03Z</time>
      </trkpt>
      <trkpt lat="43.41339" lon="-5.815554">
        <ele>153.8</ele>
        <time>2019-11-24T17:09:04Z</time>
      </trkpt>
      <trkpt lat="43.413463" lon="-5.815546">
        <ele>153.4</ele>
        <time>2019-11-24T17:09:05Z</time>
      </trkpt>
      <trkpt lat="43.413539" lon="-5.815568">
        <ele>153.2</ele>
        <time>2019-11-24T17:09:06Z</time>
      </trkpt>
      <trkpt lat="43.4136" lon="-5.815628">
        <ele>153</ele>
        <time>2019-11-24T17:09:07Z</time>
      </trkpt>
      <trkpt lat="43.413641" lon="-5.815717">
        <ele>153</ele>
        <time>2019-11-24T17:09:08Z</time>
      </trkpt>
      <trkpt lat="43.413664" lon="-5.81582">
        <ele>152.6</ele>
        <time>2019-11-24T17:09:09Z</time>
      </trkpt>
      <trkpt lat="43.413674" lon="-5.815929">
        <ele>152.4</ele>
        <time>2019-11-24T17:09:10Z</time>
      </trkpt>
      <trkpt lat="43.413679" lon="-5.816041">
        <ele>152.4</ele>
        <time>2019-11-24T17:09:11Z</time>
      </trkpt>
      <trkpt lat="43.413685" lon="-5.816153">
        <ele>152.6</ele>
        <time>2019-11-24T17:09:12Z</time>
      </trkpt>
      <trkpt lat="43.413704" lon="-5.816261">
        <ele>152.4</ele>
        <time>2019-11-24T17:09:13Z</time>
      </trkpt>
      <trkpt lat="43.413736" lon="-5.816365">
        <ele>152.2</ele>
        <time>2019-11-24T17:09:14Z</time>
      </trkpt>
      <trkpt lat="43.413779" lon="-5.816467">
        <ele>152.4</ele>
        <time>2019-11-24T17:09:15Z</time>
      </trkpt>
      <trkpt lat="43.413831" lon="-5.816567">
        <ele>152.2</ele>
        <time>2019-11-24T17:09:16Z</time>
      </trkpt>
      <trkpt lat="43.413889" lon="-5.816661">
        <ele>152.8</ele>
        <time>2019-11-24T17:09:17Z</time>
      </trkpt>
      <trkpt lat="43.413948" lon="-5.816753">
        <ele>153</ele>
        <time>2019-11-24T17:09:18Z</time>
      </trkpt>
      <trkpt lat="43.414008" lon="-5.816841">
        <ele>152.8</ele>
        <time>2019-11-24T17:09:19Z</time>
      </trkpt>
      <trkpt lat="43.41407" lon="-5.816925">
        <ele>152.8</ele>
        <time>2019-11-24T17:09:20Z</time>
      </trkpt>
      <trkpt lat="43.414133" lon="-5.817007">
        <ele>152</ele>
        <time>2019-11-24T17:09:21Z</time>
      </trkpt>
      <trkpt lat="43.414194" lon="-5.817089">
        <ele>151.8</ele>
        <time>2019-11-24T17:09:22Z</time>
      </trkpt>
      <trkpt lat="43.414254" lon="-5.817171">
        <ele>152.2</ele>
        <time>2019-11-24T17:09:23Z</time>
      </trkpt>
      <trkpt lat="43.414313" lon="-5.817251">
        <ele>152.6</ele>
        <time>2019-11-24T17:09:24Z</time>
      </trkpt>
      <trkpt lat="43.41437" lon="-5.817332">
        <ele>152.8</ele>
        <time>2019-11-24T17:09:25Z</time>
      </trkpt>
      <trkpt lat="43.414426" lon="-5.817412">
        <ele>152.8</ele>
        <time>2019-11-24T17:09:26Z</time>
      </trkpt>
      <trkpt lat="43.414482" lon="-5.817491">
        <ele>152.8</ele>
        <time>2019-11-24T17:09:27Z</time>
      </trkpt>
      <trkpt lat="43.414536" lon="-5.817569">
        <ele>152.8</ele>
        <time>2019-11-24T17:09:28Z</time>
      </trkpt>
      <trkpt lat="43.414592" lon="-5.817643">
        <ele>153</ele>
        <time>2019-11-24T17:09:29Z</time>
      </trkpt>
      <trkpt lat="43.414646" lon="-5.817717">
        <ele>152.8</ele>
        <time>2019-11-24T17:09:30Z</time>
      </trkpt>
      <trkpt lat="43.4147" lon="-5.817792">
        <ele>153.2</ele>
        <time>2019-11-24T17:09:31Z</time>
      </trkpt>
      <trkpt lat="43.414754" lon="-5.817867">
        <ele>153.4</ele>
        <time>2019-11-24T17:09:32Z</time>
      </trkpt>
      <trkpt lat="43.414808" lon="-5.817942">
        <ele>153.4</ele>
        <time>2019-11-24T17:09:33Z</time>
      </trkpt>
      <trkpt lat="43.414862" lon="-5.818017">
        <ele>153.4</ele>
        <time>2019-11-24T17:09:34Z</time>
      </trkpt>
      <trkpt lat="43.414916" lon="-5.818094">
        <ele>153.6</ele>
        <time>2019-11-24T17:09:35Z</time>
      </trkpt>
      <trkpt lat="43.414969" lon="-5.818169">
        <ele>153.8</ele>
        <time>2019-11-24T17:09:36Z</time>
      </trkpt>
      <trkpt lat="43.415021" lon="-5.818246">
        <ele>153.6</ele>
        <time>2019-11-24T17:09:37Z</time>
      </trkpt>
      <trkpt lat="43.415075" lon="-5.818323">
        <ele>153.4</ele>
        <time>2019-11-24T17:09:38Z</time>
      </trkpt>
      <trkpt lat="43.415133" lon="-5.818399">
        <ele>153.2</ele>
        <time>2019-11-24T17:09:39Z</time>
      </trkpt>
      <trkpt lat="43.415193" lon="-5.818474">
        <ele>153</ele>
        <time>2019-11-24T17:09:40Z</time>
      </trkpt>
      <trkpt lat="43.415254" lon="-5.818549">
        <ele>153.6</ele>
        <time>2019-11-24T17:09:41Z</time>
      </trkpt>
      <trkpt lat="43.415303" lon="-5.818629">
        <ele>153.8</ele>
        <time>2019-11-24T17:09:42Z</time>
      </trkpt>
      <trkpt lat="43.415356" lon="-5.818706">
        <ele>153.6</ele>
        <time>2019-11-24T17:09:43Z</time>
      </trkpt>
      <trkpt lat="43.415407" lon="-5.818782">
        <ele>154.2</ele>
        <time>2019-11-24T17:09:44Z</time>
      </trkpt>
      <trkpt lat="43.415458" lon="-5.81885">
        <ele>154.8</ele>
        <time>2019-11-24T17:09:45Z</time>
      </trkpt>
      <trkpt lat="43.41551" lon="-5.818913">
        <ele>154.8</ele>
        <time>2019-11-24T17:09:46Z</time>
      </trkpt>
      <trkpt lat="43.415557" lon="-5.818972">
        <ele>154.8</ele>
        <time>2019-11-24T17:09:47Z</time>
      </trkpt>
      <trkpt lat="43.415606" lon="-5.819036">
        <ele>155.2</ele>
        <time>2019-11-24T17:09:48Z</time>
      </trkpt>
      <trkpt lat="43.415654" lon="-5.819099">
        <ele>155.4</ele>
        <time>2019-11-24T17:09:49Z</time>
      </trkpt>
      <trkpt lat="43.4157" lon="-5.819164">
        <ele>155.8</ele>
        <time>2019-11-24T17:09:50Z</time>
      </trkpt>
      <trkpt lat="43.415747" lon="-5.819231">
        <ele>156</ele>
        <time>2019-11-24T17:09:51Z</time>
      </trkpt>
      <trkpt lat="43.415795" lon="-5.819294">
        <ele>156.4</ele>
        <time>2019-11-24T17:09:52Z</time>
      </trkpt>
      <trkpt lat="43.415843" lon="-5.81936">
        <ele>156.6</ele>
        <time>2019-11-24T17:09:53Z</time>
      </trkpt>
      <trkpt lat="43.415891" lon="-5.819429">
        <ele>156.8</ele>
        <time>2019-11-24T17:09:54Z</time>
      </trkpt>
      <trkpt lat="43.415941" lon="-5.819499">
        <ele>157</ele>
        <time>2019-11-24T17:09:55Z</time>
      </trkpt>
      <trkpt lat="43.415988" lon="-5.81957">
        <ele>157.2</ele>
        <time>2019-11-24T17:09:56Z</time>
      </trkpt>
      <trkpt lat="43.416037" lon="-5.819639">
        <ele>157.8</ele>
        <time>2019-11-24T17:09:57Z</time>
      </trkpt>
      <trkpt lat="43.416085" lon="-5.819707">
        <ele>158.2</ele>
        <time>2019-11-24T17:09:58Z</time>
      </trkpt>
      <trkpt lat="43.416132" lon="-5.819774">
        <ele>159.2</ele>
        <time>2019-11-24T17:09:59Z</time>
      </trkpt>
      <trkpt lat="43.416179" lon="-5.819841">
        <ele>158.8</ele>
        <time>2019-11-24T17:10:00Z</time>
      </trkpt>
      <trkpt lat="43.416226" lon="-5.819911">
        <ele>159</ele>
        <time>2019-11-24T17:10:01Z</time>
      </trkpt>
      <trkpt lat="43.416274" lon="-5.81998">
        <ele>159</ele>
        <time>2019-11-24T17:10:02Z</time>
      </trkpt>
      <trkpt lat="43.416323" lon="-5.82005">
        <ele>159</ele>
        <time>2019-11-24T17:10:03Z</time>
      </trkpt>
      <trkpt lat="43.416371" lon="-5.820121">
        <ele>159.4</ele>
        <time>2019-11-24T17:10:04Z</time>
      </trkpt>
      <trkpt lat="43.416421" lon="-5.820192">
        <ele>159.4</ele>
        <time>2019-11-24T17:10:05Z</time>
      </trkpt>
      <trkpt lat="43.416471" lon="-5.820261">
        <ele>160</ele>
        <time>2019-11-24T17:10:06Z</time>
      </trkpt>
      <trkpt lat="43.416521" lon="-5.82033">
        <ele>160</ele>
        <time>2019-11-24T17:10:07Z</time>
      </trkpt>
      <trkpt lat="43.416571" lon="-5.820397">
        <ele>160.2</ele>
        <time>2019-11-24T17:10:08Z</time>
      </trkpt>
      <trkpt lat="43.416621" lon="-5.820464">
        <ele>160.6</ele>
        <time>2019-11-24T17:10:09Z</time>
      </trkpt>
      <trkpt lat="43.416669" lon="-5.820532">
        <ele>160.8</ele>
        <time>2019-11-24T17:10:10Z</time>
      </trkpt>
      <trkpt lat="43.416715" lon="-5.820602">
        <ele>160.8</ele>
        <time>2019-11-24T17:10:11Z</time>
      </trkpt>
      <trkpt lat="43.416764" lon="-5.820672">
        <ele>161</ele>
        <time>2019-11-24T17:10:12Z</time>
      </trkpt>
      <trkpt lat="43.416814" lon="-5.820743">
        <ele>161.2</ele>
        <time>2019-11-24T17:10:13Z</time>
      </trkpt>
      <trkpt lat="43.416865" lon="-5.820817">
        <ele>161.2</ele>
        <time>2019-11-24T17:10:14Z</time>
      </trkpt>
      <trkpt lat="43.416916" lon="-5.820891">
        <ele>161</ele>
        <time>2019-11-24T17:10:15Z</time>
      </trkpt>
      <trkpt lat="43.416969" lon="-5.820963">
        <ele>161.2</ele>
        <time>2019-11-24T17:10:16Z</time>
      </trkpt>
      <trkpt lat="43.41702" lon="-5.821036">
        <ele>161.8</ele>
        <time>2019-11-24T17:10:17Z</time>
      </trkpt>
      <trkpt lat="43.417073" lon="-5.82111">
        <ele>162</ele>
        <time>2019-11-24T17:10:18Z</time>
      </trkpt>
      <trkpt lat="43.417125" lon="-5.821183">
        <ele>162.2</ele>
        <time>2019-11-24T17:10:19Z</time>
      </trkpt>
      <trkpt lat="43.417177" lon="-5.821257">
        <ele>162.6</ele>
        <time>2019-11-24T17:10:20Z</time>
      </trkpt>
      <trkpt lat="43.417229" lon="-5.821329">
        <ele>162.8</ele>
        <time>2019-11-24T17:10:21Z</time>
      </trkpt>
      <trkpt lat="43.417281" lon="-5.821402">
        <ele>163.2</ele>
        <time>2019-11-24T17:10:22Z</time>
      </trkpt>
      <trkpt lat="43.417332" lon="-5.821475">
        <ele>163.4</ele>
        <time>2019-11-24T17:10:23Z</time>
      </trkpt>
      <trkpt lat="43.417383" lon="-5.821548">
        <ele>163.8</ele>
        <time>2019-11-24T17:10:24Z</time>
      </trkpt>
      <trkpt lat="43.417435" lon="-5.82162">
        <ele>164.2</ele>
        <time>2019-11-24T17:10:25Z</time>
      </trkpt>
      <trkpt lat="43.417487" lon="-5.821693">
        <ele>164.2</ele>
        <time>2019-11-24T17:10:26Z</time>
      </trkpt>
      <trkpt lat="43.41754" lon="-5.821765">
        <ele>164.6</ele>
        <time>2019-11-24T17:10:27Z</time>
      </trkpt>
      <trkpt lat="43.417592" lon="-5.821838">
        <ele>165.2</ele>
        <time>2019-11-24T17:10:28Z</time>
      </trkpt>
      <trkpt lat="43.417645" lon="-5.821911">
        <ele>165.4</ele>
        <time>2019-11-24T17:10:29Z</time>
      </trkpt>
      <trkpt lat="43.417698" lon="-5.821985">
        <ele>165.8</ele>
        <time>2019-11-24T17:10:30Z</time>
      </trkpt>
      <trkpt lat="43.417751" lon="-5.82206">
        <ele>166.2</ele>
        <time>2019-11-24T17:10:31Z</time>
      </trkpt>
      <trkpt lat="43.417805" lon="-5.822134">
        <ele>166.6</ele>
        <time>2019-11-24T17:10:32Z</time>
      </trkpt>
      <trkpt lat="43.417861" lon="-5.822208">
        <ele>166.6</ele>
        <time>2019-11-24T17:10:33Z</time>
      </trkpt>
      <trkpt lat="43.417915" lon="-5.822284">
        <ele>166.6</ele>
        <time>2019-11-24T17:10:34Z</time>
      </trkpt>
      <trkpt lat="43.417968" lon="-5.82236">
        <ele>166.6</ele>
        <time>2019-11-24T17:10:35Z</time>
      </trkpt>
      <trkpt lat="43.418022" lon="-5.822436">
        <ele>166.6</ele>
        <time>2019-11-24T17:10:36Z</time>
      </trkpt>
      <trkpt lat="43.418076" lon="-5.82251">
        <ele>167</ele>
        <time>2019-11-24T17:10:37Z</time>
      </trkpt>
      <trkpt lat="43.41813" lon="-5.822583">
        <ele>166.8</ele>
        <time>2019-11-24T17:10:38Z</time>
      </trkpt>
      <trkpt lat="43.418184" lon="-5.822655">
        <ele>167.2</ele>
        <time>2019-11-24T17:10:39Z</time>
      </trkpt>
      <trkpt lat="43.418238" lon="-5.822725">
        <ele>167.2</ele>
        <time>2019-11-24T17:10:40Z</time>
      </trkpt>
      <trkpt lat="43.418291" lon="-5.822794">
        <ele>167</ele>
        <time>2019-11-24T17:10:41Z</time>
      </trkpt>
      <trkpt lat="43.418343" lon="-5.822863">
        <ele>167.4</ele>
        <time>2019-11-24T17:10:42Z</time>
      </trkpt>
      <trkpt lat="43.418394" lon="-5.822933">
        <ele>167.6</ele>
        <time>2019-11-24T17:10:43Z</time>
      </trkpt>
      <trkpt lat="43.418445" lon="-5.823002">
        <ele>167.8</ele>
        <time>2019-11-24T17:10:44Z</time>
      </trkpt>
      <trkpt lat="43.418495" lon="-5.82307">
        <ele>168.2</ele>
        <time>2019-11-24T17:10:45Z</time>
      </trkpt>
      <trkpt lat="43.418545" lon="-5.823139">
        <ele>168.2</ele>
        <time>2019-11-24T17:10:46Z</time>
      </trkpt>
      <trkpt lat="43.418595" lon="-5.823205">
        <ele>168.4</ele>
        <time>2019-11-24T17:10:47Z</time>
      </trkpt>
      <trkpt lat="43.418645" lon="-5.823272">
        <ele>168.2</ele>
        <time>2019-11-24T17:10:48Z</time>
      </trkpt>
      <trkpt lat="43.418695" lon="-5.82334">
        <ele>168.4</ele>
        <time>2019-11-24T17:10:49Z</time>
      </trkpt>
      <trkpt lat="43.418745" lon="-5.823407">
        <ele>168.4</ele>
        <time>2019-11-24T17:10:50Z</time>
      </trkpt>
      <trkpt lat="43.418795" lon="-5.823475">
        <ele>168.4</ele>
        <time>2019-11-24T17:10:51Z</time>
      </trkpt>
      <trkpt lat="43.418846" lon="-5.823543">
        <ele>168.6</ele>
        <time>2019-11-24T17:10:52Z</time>
      </trkpt>
      <trkpt lat="43.418896" lon="-5.823611">
        <ele>169</ele>
        <time>2019-11-24T17:10:53Z</time>
      </trkpt>
      <trkpt lat="43.418946" lon="-5.823679">
        <ele>169</ele>
        <time>2019-11-24T17:10:54Z</time>
      </trkpt>
      <trkpt lat="43.418996" lon="-5.823746">
        <ele>169</ele>
        <time>2019-11-24T17:10:55Z</time>
      </trkpt>
      <trkpt lat="43.419046" lon="-5.823814">
        <ele>169</ele>
        <time>2019-11-24T17:10:56Z</time>
      </trkpt>
      <trkpt lat="43.419096" lon="-5.823882">
        <ele>169</ele>
        <time>2019-11-24T17:10:57Z</time>
      </trkpt>
      <trkpt lat="43.419147" lon="-5.82395">
        <ele>169</ele>
        <time>2019-11-24T17:10:58Z</time>
      </trkpt>
      <trkpt lat="43.419197" lon="-5.824018">
        <ele>169</ele>
        <time>2019-11-24T17:10:59Z</time>
      </trkpt>
      <trkpt lat="43.419248" lon="-5.824087">
        <ele>168.6</ele>
        <time>2019-11-24T17:11:00Z</time>
      </trkpt>
      <trkpt lat="43.419299" lon="-5.824154">
        <ele>168.8</ele>
        <time>2019-11-24T17:11:01Z</time>
      </trkpt>
      <trkpt lat="43.419349" lon="-5.824221">
        <ele>169.2</ele>
        <time>2019-11-24T17:11:02Z</time>
      </trkpt>
      <trkpt lat="43.4194" lon="-5.824288">
        <ele>169.4</ele>
        <time>2019-11-24T17:11:03Z</time>
      </trkpt>
      <trkpt lat="43.41945" lon="-5.824355">
        <ele>169</ele>
        <time>2019-11-24T17:11:04Z</time>
      </trkpt>
      <trkpt lat="43.4195" lon="-5.824423">
        <ele>169.2</ele>
        <time>2019-11-24T17:11:05Z</time>
      </trkpt>
      <trkpt lat="43.41955" lon="-5.824489">
        <ele>170.2</ele>
        <time>2019-11-24T17:11:06Z</time>
      </trkpt>
      <trkpt lat="43.4196" lon="-5.824555">
        <ele>170</ele>
        <time>2019-11-24T17:11:07Z</time>
      </trkpt>
      <trkpt lat="43.419649" lon="-5.824621">
        <ele>169.8</ele>
        <time>2019-11-24T17:11:08Z</time>
      </trkpt>
      <trkpt lat="43.419698" lon="-5.824687">
        <ele>169.8</ele>
        <time>2019-11-24T17:11:09Z</time>
      </trkpt>
      <trkpt lat="43.419748" lon="-5.824754">
        <ele>170.2</ele>
        <time>2019-11-24T17:11:10Z</time>
      </trkpt>
      <trkpt lat="43.419797" lon="-5.824821">
        <ele>169.8</ele>
        <time>2019-11-24T17:11:11Z</time>
      </trkpt>
      <trkpt lat="43.419847" lon="-5.824889">
        <ele>169.8</ele>
        <time>2019-11-24T17:11:12Z</time>
      </trkpt>
      <trkpt lat="43.419895" lon="-5.824957">
        <ele>169.6</ele>
        <time>2019-11-24T17:11:13Z</time>
      </trkpt>
      <trkpt lat="43.419945" lon="-5.825024">
        <ele>170</ele>
        <time>2019-11-24T17:11:14Z</time>
      </trkpt>
      <trkpt lat="43.419994" lon="-5.82509">
        <ele>170.4</ele>
        <time>2019-11-24T17:11:15Z</time>
      </trkpt>
      <trkpt lat="43.420043" lon="-5.825156">
        <ele>170.6</ele>
        <time>2019-11-24T17:11:16Z</time>
      </trkpt>
      <trkpt lat="43.420093" lon="-5.825221">
        <ele>170.6</ele>
        <time>2019-11-24T17:11:17Z</time>
      </trkpt>
      <trkpt lat="43.420143" lon="-5.825286">
        <ele>170.8</ele>
        <time>2019-11-24T17:11:18Z</time>
      </trkpt>
      <trkpt lat="43.420191" lon="-5.825351">
        <ele>171</ele>
        <time>2019-11-24T17:11:19Z</time>
      </trkpt>
      <trkpt lat="43.42024" lon="-5.825416">
        <ele>171</ele>
        <time>2019-11-24T17:11:20Z</time>
      </trkpt>
      <trkpt lat="43.420289" lon="-5.825482">
        <ele>171</ele>
        <time>2019-11-24T17:11:21Z</time>
      </trkpt>
      <trkpt lat="43.420338" lon="-5.825548">
        <ele>171</ele>
        <time>2019-11-24T17:11:22Z</time>
      </trkpt>
      <trkpt lat="43.420389" lon="-5.825614">
        <ele>171</ele>
        <time>2019-11-24T17:11:23Z</time>
      </trkpt>
      <trkpt lat="43.420439" lon="-5.825681">
        <ele>171</ele>
        <time>2019-11-24T17:11:24Z</time>
      </trkpt>
      <trkpt lat="43.420488" lon="-5.825748">
        <ele>170.6</ele>
        <time>2019-11-24T17:11:25Z</time>
      </trkpt>
      <trkpt lat="43.420539" lon="-5.825813">
        <ele>170.6</ele>
        <time>2019-11-24T17:11:26Z</time>
      </trkpt>
      <trkpt lat="43.420591" lon="-5.825881">
        <ele>170.8</ele>
        <time>2019-11-24T17:11:27Z</time>
      </trkpt>
      <trkpt lat="43.420644" lon="-5.82595">
        <ele>170.8</ele>
        <time>2019-11-24T17:11:28Z</time>
      </trkpt>
      <trkpt lat="43.420697" lon="-5.826021">
        <ele>170.8</ele>
        <time>2019-11-24T17:11:29Z</time>
      </trkpt>
      <trkpt lat="43.420753" lon="-5.826092">
        <ele>170.8</ele>
        <time>2019-11-24T17:11:30Z</time>
      </trkpt>
      <trkpt lat="43.420809" lon="-5.826165">
        <ele>170.6</ele>
        <time>2019-11-24T17:11:31Z</time>
      </trkpt>
      <trkpt lat="43.420866" lon="-5.826239">
        <ele>170.2</ele>
        <time>2019-11-24T17:11:32Z</time>
      </trkpt>
      <trkpt lat="43.420923" lon="-5.826316">
        <ele>170</ele>
        <time>2019-11-24T17:11:33Z</time>
      </trkpt>
      <trkpt lat="43.42098" lon="-5.826393">
        <ele>169.6</ele>
        <time>2019-11-24T17:11:34Z</time>
      </trkpt>
      <trkpt lat="43.421038" lon="-5.826471">
        <ele>169.8</ele>
        <time>2019-11-24T17:11:35Z</time>
      </trkpt>
      <trkpt lat="43.421096" lon="-5.826549">
        <ele>169.4</ele>
        <time>2019-11-24T17:11:36Z</time>
      </trkpt>
      <trkpt lat="43.421154" lon="-5.826628">
        <ele>169</ele>
        <time>2019-11-24T17:11:37Z</time>
      </trkpt>
      <trkpt lat="43.421213" lon="-5.826707">
        <ele>168.8</ele>
        <time>2019-11-24T17:11:38Z</time>
      </trkpt>
      <trkpt lat="43.421272" lon="-5.826786">
        <ele>168.4</ele>
        <time>2019-11-24T17:11:39Z</time>
      </trkpt>
      <trkpt lat="43.421332" lon="-5.826867">
        <ele>168.6</ele>
        <time>2019-11-24T17:11:40Z</time>
      </trkpt>
      <trkpt lat="43.421392" lon="-5.826948">
        <ele>168</ele>
        <time>2019-11-24T17:11:41Z</time>
      </trkpt>
      <trkpt lat="43.421452" lon="-5.82703">
        <ele>168.2</ele>
        <time>2019-11-24T17:11:42Z</time>
      </trkpt>
      <trkpt lat="43.421513" lon="-5.827114">
        <ele>167.8</ele>
        <time>2019-11-24T17:11:43Z</time>
      </trkpt>
      <trkpt lat="43.421574" lon="-5.827196">
        <ele>167.4</ele>
        <time>2019-11-24T17:11:44Z</time>
      </trkpt>
      <trkpt lat="43.421637" lon="-5.827278">
        <ele>167.4</ele>
        <time>2019-11-24T17:11:45Z</time>
      </trkpt>
      <trkpt lat="43.421698" lon="-5.827361">
        <ele>167.4</ele>
        <time>2019-11-24T17:11:46Z</time>
      </trkpt>
      <trkpt lat="43.421759" lon="-5.827445">
        <ele>167.2</ele>
        <time>2019-11-24T17:11:47Z</time>
      </trkpt>
      <trkpt lat="43.421819" lon="-5.827527">
        <ele>167.4</ele>
        <time>2019-11-24T17:11:48Z</time>
      </trkpt>
      <trkpt lat="43.421881" lon="-5.82761">
        <ele>167</ele>
        <time>2019-11-24T17:11:49Z</time>
      </trkpt>
      <trkpt lat="43.421943" lon="-5.827691">
        <ele>167</ele>
        <time>2019-11-24T17:11:50Z</time>
      </trkpt>
      <trkpt lat="43.422003" lon="-5.827772">
        <ele>166.8</ele>
        <time>2019-11-24T17:11:51Z</time>
      </trkpt>
      <trkpt lat="43.422063" lon="-5.827853">
        <ele>166.6</ele>
        <time>2019-11-24T17:11:52Z</time>
      </trkpt>
      <trkpt lat="43.422123" lon="-5.827935">
        <ele>167</ele>
        <time>2019-11-24T17:11:53Z</time>
      </trkpt>
      <trkpt lat="43.422182" lon="-5.828016">
        <ele>167.2</ele>
        <time>2019-11-24T17:11:54Z</time>
      </trkpt>
      <trkpt lat="43.422243" lon="-5.828097">
        <ele>166.6</ele>
        <time>2019-11-24T17:11:55Z</time>
      </trkpt>
      <trkpt lat="43.422303" lon="-5.828177">
        <ele>166.4</ele>
        <time>2019-11-24T17:11:56Z</time>
      </trkpt>
      <trkpt lat="43.422364" lon="-5.828257">
        <ele>166.6</ele>
        <time>2019-11-24T17:11:57Z</time>
      </trkpt>
      <trkpt lat="43.422423" lon="-5.828338">
        <ele>166.8</ele>
        <time>2019-11-24T17:11:58Z</time>
      </trkpt>
      <trkpt lat="43.422484" lon="-5.828418">
        <ele>166.8</ele>
        <time>2019-11-24T17:11:59Z</time>
      </trkpt>
      <trkpt lat="43.422544" lon="-5.828498">
        <ele>166.6</ele>
        <time>2019-11-24T17:12:00Z</time>
      </trkpt>
      <trkpt lat="43.422605" lon="-5.828578">
        <ele>166.6</ele>
        <time>2019-11-24T17:12:01Z</time>
      </trkpt>
      <trkpt lat="43.422665" lon="-5.828658">
        <ele>166.8</ele>
        <time>2019-11-24T17:12:02Z</time>
      </trkpt>
      <trkpt lat="43.422726" lon="-5.828739">
        <ele>166.8</ele>
        <time>2019-11-24T17:12:03Z</time>
      </trkpt>
      <trkpt lat="43.422786" lon="-5.828819">
        <ele>166.8</ele>
        <time>2019-11-24T17:12:04Z</time>
      </trkpt>
      <trkpt lat="43.422845" lon="-5.8289">
        <ele>166.2</ele>
        <time>2019-11-24T17:12:05Z</time>
      </trkpt>
      <trkpt lat="43.422905" lon="-5.82898">
        <ele>166.6</ele>
        <time>2019-11-24T17:12:06Z</time>
      </trkpt>
      <trkpt lat="43.422965" lon="-5.82906">
        <ele>166.4</ele>
        <time>2019-11-24T17:12:07Z</time>
      </trkpt>
      <trkpt lat="43.423024" lon="-5.829141">
        <ele>166.4</ele>
        <time>2019-11-24T17:12:08Z</time>
      </trkpt>
      <trkpt lat="43.423082" lon="-5.829224">
        <ele>166.8</ele>
        <time>2019-11-24T17:12:09Z</time>
      </trkpt>
      <trkpt lat="43.423141" lon="-5.829306">
        <ele>166.4</ele>
        <time>2019-11-24T17:12:10Z</time>
      </trkpt>
      <trkpt lat="43.4232" lon="-5.829389">
        <ele>166.4</ele>
        <time>2019-11-24T17:12:11Z</time>
      </trkpt>
      <trkpt lat="43.423259" lon="-5.829471">
        <ele>166.4</ele>
        <time>2019-11-24T17:12:12Z</time>
      </trkpt>
      <trkpt lat="43.423318" lon="-5.829555">
        <ele>166</ele>
        <time>2019-11-24T17:12:13Z</time>
      </trkpt>
      <trkpt lat="43.423377" lon="-5.82964">
        <ele>166</ele>
        <time>2019-11-24T17:12:14Z</time>
      </trkpt>
      <trkpt lat="43.423433" lon="-5.829725">
        <ele>166</ele>
        <time>2019-11-24T17:12:15Z</time>
      </trkpt>
      <trkpt lat="43.423491" lon="-5.82981">
        <ele>166.2</ele>
        <time>2019-11-24T17:12:16Z</time>
      </trkpt>
      <trkpt lat="43.423549" lon="-5.829894">
        <ele>167.2</ele>
        <time>2019-11-24T17:12:17Z</time>
      </trkpt>
      <trkpt lat="43.423605" lon="-5.829976">
        <ele>166.2</ele>
        <time>2019-11-24T17:12:18Z</time>
      </trkpt>
      <trkpt lat="43.423662" lon="-5.830056">
        <ele>166.2</ele>
        <time>2019-11-24T17:12:19Z</time>
      </trkpt>
      <trkpt lat="43.423718" lon="-5.830138">
        <ele>165.8</ele>
        <time>2019-11-24T17:12:20Z</time>
      </trkpt>
      <trkpt lat="43.423773" lon="-5.830221">
        <ele>165.8</ele>
        <time>2019-11-24T17:12:21Z</time>
      </trkpt>
      <trkpt lat="43.42383" lon="-5.830302">
        <ele>165.6</ele>
        <time>2019-11-24T17:12:22Z</time>
      </trkpt>
      <trkpt lat="43.423887" lon="-5.830384">
        <ele>165.2</ele>
        <time>2019-11-24T17:12:23Z</time>
      </trkpt>
      <trkpt lat="43.423944" lon="-5.830465">
        <ele>165.4</ele>
        <time>2019-11-24T17:12:24Z</time>
      </trkpt>
      <trkpt lat="43.424001" lon="-5.830547">
        <ele>165.6</ele>
        <time>2019-11-24T17:12:25Z</time>
      </trkpt>
      <trkpt lat="43.424058" lon="-5.830628">
        <ele>165.6</ele>
        <time>2019-11-24T17:12:26Z</time>
      </trkpt>
      <trkpt lat="43.424114" lon="-5.830709">
        <ele>165.8</ele>
        <time>2019-11-24T17:12:27Z</time>
      </trkpt>
      <trkpt lat="43.424171" lon="-5.83079">
        <ele>166</ele>
        <time>2019-11-24T17:12:28Z</time>
      </trkpt>
      <trkpt lat="43.424228" lon="-5.830872">
        <ele>165.6</ele>
        <time>2019-11-24T17:12:29Z</time>
      </trkpt>
      <trkpt lat="43.424285" lon="-5.830954">
        <ele>165.6</ele>
        <time>2019-11-24T17:12:30Z</time>
      </trkpt>
      <trkpt lat="43.424342" lon="-5.831036">
        <ele>165.8</ele>
        <time>2019-11-24T17:12:31Z</time>
      </trkpt>
      <trkpt lat="43.424399" lon="-5.831118">
        <ele>166</ele>
        <time>2019-11-24T17:12:32Z</time>
      </trkpt>
      <trkpt lat="43.424456" lon="-5.831199">
        <ele>166</ele>
        <time>2019-11-24T17:12:33Z</time>
      </trkpt>
      <trkpt lat="43.424511" lon="-5.831283">
        <ele>165.8</ele>
        <time>2019-11-24T17:12:34Z</time>
      </trkpt>
      <trkpt lat="43.424565" lon="-5.831369">
        <ele>165.4</ele>
        <time>2019-11-24T17:12:35Z</time>
      </trkpt>
      <trkpt lat="43.424616" lon="-5.83146">
        <ele>165.4</ele>
        <time>2019-11-24T17:12:36Z</time>
      </trkpt>
      <trkpt lat="43.424659" lon="-5.831557">
        <ele>165.4</ele>
        <time>2019-11-24T17:12:37Z</time>
      </trkpt>
      <trkpt lat="43.424695" lon="-5.831658">
        <ele>165.4</ele>
        <time>2019-11-24T17:12:38Z</time>
      </trkpt>
      <trkpt lat="43.424722" lon="-5.831762">
        <ele>165.4</ele>
        <time>2019-11-24T17:12:39Z</time>
      </trkpt>
      <trkpt lat="43.42474" lon="-5.831868">
        <ele>165.6</ele>
        <time>2019-11-24T17:12:40Z</time>
      </trkpt>
      <trkpt lat="43.424751" lon="-5.831974">
        <ele>166.4</ele>
        <time>2019-11-24T17:12:41Z</time>
      </trkpt>
      <trkpt lat="43.424757" lon="-5.832079">
        <ele>167</ele>
        <time>2019-11-24T17:12:42Z</time>
      </trkpt>
      <trkpt lat="43.424759" lon="-5.83218">
        <ele>167</ele>
        <time>2019-11-24T17:12:43Z</time>
      </trkpt>
      <trkpt lat="43.424758" lon="-5.832277">
        <ele>167</ele>
        <time>2019-11-24T17:12:44Z</time>
      </trkpt>
      <trkpt lat="43.424758" lon="-5.832372">
        <ele>167.2</ele>
        <time>2019-11-24T17:12:45Z</time>
      </trkpt>
      <trkpt lat="43.424758" lon="-5.832466">
        <ele>167.4</ele>
        <time>2019-11-24T17:12:46Z</time>
      </trkpt>
      <trkpt lat="43.424759" lon="-5.832559">
        <ele>167.6</ele>
        <time>2019-11-24T17:12:47Z</time>
      </trkpt>
      <trkpt lat="43.42476" lon="-5.832652">
        <ele>167.6</ele>
        <time>2019-11-24T17:12:48Z</time>
      </trkpt>
      <trkpt lat="43.424758" lon="-5.83274">
        <ele>168.2</ele>
        <time>2019-11-24T17:12:49Z</time>
      </trkpt>
      <trkpt lat="43.424755" lon="-5.832826">
        <ele>168.2</ele>
        <time>2019-11-24T17:12:50Z</time>
      </trkpt>
      <trkpt lat="43.424755" lon="-5.83291">
        <ele>168.4</ele>
        <time>2019-11-24T17:12:51Z</time>
      </trkpt>
      <trkpt lat="43.424758" lon="-5.832986">
        <ele>168.6</ele>
        <time>2019-11-24T17:12:52Z</time>
      </trkpt>
      <trkpt lat="43.424775" lon="-5.833049">
        <ele>169.2</ele>
        <time>2019-11-24T17:12:53Z</time>
      </trkpt>
      <trkpt lat="43.424807" lon="-5.83309">
        <ele>169</ele>
        <time>2019-11-24T17:12:54Z</time>
      </trkpt>
      <trkpt lat="43.42485" lon="-5.833104">
        <ele>168.8</ele>
        <time>2019-11-24T17:12:55Z</time>
      </trkpt>
      <trkpt lat="43.424899" lon="-5.833096">
        <ele>169.4</ele>
        <time>2019-11-24T17:12:56Z</time>
      </trkpt>
      <trkpt lat="43.424951" lon="-5.833073">
        <ele>169.8</ele>
        <time>2019-11-24T17:12:57Z</time>
      </trkpt>
      <trkpt lat="43.425004" lon="-5.83304">
        <ele>168.2</ele>
        <time>2019-11-24T17:12:58Z</time>
      </trkpt>
      <trkpt lat="43.425056" lon="-5.832996">
        <ele>168.4</ele>
        <time>2019-11-24T17:12:59Z</time>
      </trkpt>
      <trkpt lat="43.425105" lon="-5.83294">
        <ele>168.6</ele>
        <time>2019-11-24T17:13:00Z</time>
      </trkpt>
      <trkpt lat="43.425152" lon="-5.832877">
        <ele>168.4</ele>
        <time>2019-11-24T17:13:01Z</time>
      </trkpt>
      <trkpt lat="43.425198" lon="-5.83281">
        <ele>167.8</ele>
        <time>2019-11-24T17:13:02Z</time>
      </trkpt>
      <trkpt lat="43.425247" lon="-5.832742">
        <ele>167.8</ele>
        <time>2019-11-24T17:13:03Z</time>
      </trkpt>
      <trkpt lat="43.425296" lon="-5.832674">
        <ele>167.8</ele>
        <time>2019-11-24T17:13:04Z</time>
      </trkpt>
      <trkpt lat="43.425346" lon="-5.832605">
        <ele>168</ele>
        <time>2019-11-24T17:13:05Z</time>
      </trkpt>
      <trkpt lat="43.425397" lon="-5.832535">
        <ele>167.4</ele>
        <time>2019-11-24T17:13:06Z</time>
      </trkpt>
      <trkpt lat="43.425447" lon="-5.832466">
        <ele>166.6</ele>
        <time>2019-11-24T17:13:07Z</time>
      </trkpt>
      <trkpt lat="43.425496" lon="-5.832398">
        <ele>167.2</ele>
        <time>2019-11-24T17:13:08Z</time>
      </trkpt>
      <trkpt lat="43.425543" lon="-5.832331">
        <ele>168</ele>
        <time>2019-11-24T17:13:09Z</time>
      </trkpt>
      <trkpt lat="43.425588" lon="-5.832267">
        <ele>167</ele>
        <time>2019-11-24T17:13:10Z</time>
      </trkpt>
      <trkpt lat="43.425633" lon="-5.832205">
        <ele>167.6</ele>
        <time>2019-11-24T17:13:11Z</time>
      </trkpt>
      <trkpt lat="43.425678" lon="-5.832145">
        <ele>167.4</ele>
        <time>2019-11-24T17:13:12Z</time>
      </trkpt>
      <trkpt lat="43.425726" lon="-5.832091">
        <ele>167.8</ele>
        <time>2019-11-24T17:13:13Z</time>
      </trkpt>
      <trkpt lat="43.42578" lon="-5.832047">
        <ele>166.8</ele>
        <time>2019-11-24T17:13:14Z</time>
      </trkpt>
      <trkpt lat="43.425839" lon="-5.832029">
        <ele>167.6</ele>
        <time>2019-11-24T17:13:15Z</time>
      </trkpt>
      <trkpt lat="43.425904" lon="-5.832045">
        <ele>167.6</ele>
        <time>2019-11-24T17:13:16Z</time>
      </trkpt>
      <trkpt lat="43.425966" lon="-5.832095">
        <ele>166.4</ele>
        <time>2019-11-24T17:13:17Z</time>
      </trkpt>
      <trkpt lat="43.426018" lon="-5.832168">
        <ele>165.8</ele>
        <time>2019-11-24T17:13:18Z</time>
      </trkpt>
      <trkpt lat="43.426059" lon="-5.832257">
        <ele>165.2</ele>
        <time>2019-11-24T17:13:19Z</time>
      </trkpt>
      <trkpt lat="43.426097" lon="-5.832357">
        <ele>165.2</ele>
        <time>2019-11-24T17:13:20Z</time>
      </trkpt>
      <trkpt lat="43.426136" lon="-5.832461">
        <ele>164</ele>
        <time>2019-11-24T17:13:21Z</time>
      </trkpt>
      <trkpt lat="43.42618" lon="-5.832568">
        <ele>163.4</ele>
        <time>2019-11-24T17:13:22Z</time>
      </trkpt>
      <trkpt lat="43.426228" lon="-5.832679">
        <ele>162.4</ele>
        <time>2019-11-24T17:13:23Z</time>
      </trkpt>
      <trkpt lat="43.42628" lon="-5.832792">
        <ele>161.8</ele>
        <time>2019-11-24T17:13:24Z</time>
      </trkpt>
      <trkpt lat="43.426338" lon="-5.832906">
        <ele>160.6</ele>
        <time>2019-11-24T17:13:25Z</time>
      </trkpt>
      <trkpt lat="43.426401" lon="-5.83302">
        <ele>159.8</ele>
        <time>2019-11-24T17:13:26Z</time>
      </trkpt>
      <trkpt lat="43.426469" lon="-5.833133">
        <ele>159.2</ele>
        <time>2019-11-24T17:13:27Z</time>
      </trkpt>
      <trkpt lat="43.426539" lon="-5.833245">
        <ele>158</ele>
        <time>2019-11-24T17:13:28Z</time>
      </trkpt>
      <trkpt lat="43.42661" lon="-5.833355">
        <ele>158.4</ele>
        <time>2019-11-24T17:13:29Z</time>
      </trkpt>
      <trkpt lat="43.426679" lon="-5.833465">
        <ele>158.2</ele>
        <time>2019-11-24T17:13:30Z</time>
      </trkpt>
      <trkpt lat="43.426746" lon="-5.833574">
        <ele>158.2</ele>
        <time>2019-11-24T17:13:31Z</time>
      </trkpt>
      <trkpt lat="43.426811" lon="-5.83368">
        <ele>158.4</ele>
        <time>2019-11-24T17:13:32Z</time>
      </trkpt>
      <trkpt lat="43.426877" lon="-5.833783">
        <ele>158</ele>
        <time>2019-11-24T17:13:33Z</time>
      </trkpt>
      <trkpt lat="43.426941" lon="-5.833886">
        <ele>158.4</ele>
        <time>2019-11-24T17:13:34Z</time>
      </trkpt>
      <trkpt lat="43.427005" lon="-5.833988">
        <ele>158.6</ele>
        <time>2019-11-24T17:13:35Z</time>
      </trkpt>
      <trkpt lat="43.427069" lon="-5.834089">
        <ele>158.4</ele>
        <time>2019-11-24T17:13:36Z</time>
      </trkpt>
      <trkpt lat="43.427131" lon="-5.834188">
        <ele>158.6</ele>
        <time>2019-11-24T17:13:37Z</time>
      </trkpt>
      <trkpt lat="43.427193" lon="-5.834287">
        <ele>158.6</ele>
        <time>2019-11-24T17:13:38Z</time>
      </trkpt>
      <trkpt lat="43.427254" lon="-5.834384">
        <ele>159.2</ele>
        <time>2019-11-24T17:13:39Z</time>
      </trkpt>
      <trkpt lat="43.427315" lon="-5.834481">
        <ele>158.8</ele>
        <time>2019-11-24T17:13:40Z</time>
      </trkpt>
      <trkpt lat="43.427375" lon="-5.834578">
        <ele>158.4</ele>
        <time>2019-11-24T17:13:41Z</time>
      </trkpt>
      <trkpt lat="43.427436" lon="-5.834673">
        <ele>158.8</ele>
        <time>2019-11-24T17:13:42Z</time>
      </trkpt>
      <trkpt lat="43.427497" lon="-5.834767">
        <ele>159</ele>
        <time>2019-11-24T17:13:43Z</time>
      </trkpt>
      <trkpt lat="43.427558" lon="-5.834861">
        <ele>158.6</ele>
        <time>2019-11-24T17:13:44Z</time>
      </trkpt>
      <trkpt lat="43.427618" lon="-5.834956">
        <ele>158.6</ele>
        <time>2019-11-24T17:13:45Z</time>
      </trkpt>
      <trkpt lat="43.427677" lon="-5.835049">
        <ele>159</ele>
        <time>2019-11-24T17:13:46Z</time>
      </trkpt>
      <trkpt lat="43.427734" lon="-5.835142">
        <ele>158.6</ele>
        <time>2019-11-24T17:13:47Z</time>
      </trkpt>
      <trkpt lat="43.427793" lon="-5.835234">
        <ele>158.4</ele>
        <time>2019-11-24T17:13:48Z</time>
      </trkpt>
      <trkpt lat="43.427851" lon="-5.835326">
        <ele>158.4</ele>
        <time>2019-11-24T17:13:49Z</time>
      </trkpt>
      <trkpt lat="43.427909" lon="-5.835417">
        <ele>158.2</ele>
        <time>2019-11-24T17:13:50Z</time>
      </trkpt>
      <trkpt lat="43.427968" lon="-5.835508">
        <ele>158.8</ele>
        <time>2019-11-24T17:13:51Z</time>
      </trkpt>
      <trkpt lat="43.428027" lon="-5.835598">
        <ele>158.4</ele>
        <time>2019-11-24T17:13:52Z</time>
      </trkpt>
      <trkpt lat="43.428087" lon="-5.835687">
        <ele>157.6</ele>
        <time>2019-11-24T17:13:53Z</time>
      </trkpt>
      <trkpt lat="43.428146" lon="-5.835776">
        <ele>157.8</ele>
        <time>2019-11-24T17:13:54Z</time>
      </trkpt>
      <trkpt lat="43.428205" lon="-5.835865">
        <ele>157.6</ele>
        <time>2019-11-24T17:13:55Z</time>
      </trkpt>
      <trkpt lat="43.428265" lon="-5.835954">
        <ele>157.4</ele>
        <time>2019-11-24T17:13:56Z</time>
      </trkpt>
      <trkpt lat="43.428325" lon="-5.836042">
        <ele>157.6</ele>
        <time>2019-11-24T17:13:57Z</time>
      </trkpt>
      <trkpt lat="43.428385" lon="-5.83613">
        <ele>157.6</ele>
        <time>2019-11-24T17:13:58Z</time>
      </trkpt>
      <trkpt lat="43.428444" lon="-5.836216">
        <ele>159</ele>
        <time>2019-11-24T17:13:59Z</time>
      </trkpt>
      <trkpt lat="43.428504" lon="-5.836303">
        <ele>157.8</ele>
        <time>2019-11-24T17:14:00Z</time>
      </trkpt>
      <trkpt lat="43.428562" lon="-5.836391">
        <ele>157.4</ele>
        <time>2019-11-24T17:14:01Z</time>
      </trkpt>
      <trkpt lat="43.428621" lon="-5.836479">
        <ele>157.6</ele>
        <time>2019-11-24T17:14:02Z</time>
      </trkpt>
      <trkpt lat="43.428679" lon="-5.836566">
        <ele>157.2</ele>
        <time>2019-11-24T17:14:03Z</time>
      </trkpt>
      <trkpt lat="43.428738" lon="-5.836653">
        <ele>157.2</ele>
        <time>2019-11-24T17:14:04Z</time>
      </trkpt>
      <trkpt lat="43.428797" lon="-5.83674">
        <ele>157.6</ele>
        <time>2019-11-24T17:14:05Z</time>
      </trkpt>
      <trkpt lat="43.428856" lon="-5.836825">
        <ele>157.4</ele>
        <time>2019-11-24T17:14:06Z</time>
      </trkpt>
      <trkpt lat="43.428916" lon="-5.836909">
        <ele>157.2</ele>
        <time>2019-11-24T17:14:07Z</time>
      </trkpt>
      <trkpt lat="43.428976" lon="-5.836995">
        <ele>158</ele>
        <time>2019-11-24T17:14:08Z</time>
      </trkpt>
      <trkpt lat="43.429034" lon="-5.83708">
        <ele>157.4</ele>
        <time>2019-11-24T17:14:09Z</time>
      </trkpt>
      <trkpt lat="43.429093" lon="-5.837165">
        <ele>157.2</ele>
        <time>2019-11-24T17:14:10Z</time>
      </trkpt>
      <trkpt lat="43.429151" lon="-5.837251">
        <ele>157.2</ele>
        <time>2019-11-24T17:14:11Z</time>
      </trkpt>
      <trkpt lat="43.429209" lon="-5.837336">
        <ele>156.8</ele>
        <time>2019-11-24T17:14:12Z</time>
      </trkpt>
      <trkpt lat="43.429268" lon="-5.837421">
        <ele>156.6</ele>
        <time>2019-11-24T17:14:13Z</time>
      </trkpt>
      <trkpt lat="43.429327" lon="-5.837505">
        <ele>156.6</ele>
        <time>2019-11-24T17:14:14Z</time>
      </trkpt>
      <trkpt lat="43.429388" lon="-5.837587">
        <ele>157</ele>
        <time>2019-11-24T17:14:15Z</time>
      </trkpt>
      <trkpt lat="43.429449" lon="-5.837668">
        <ele>156.8</ele>
        <time>2019-11-24T17:14:16Z</time>
      </trkpt>
      <trkpt lat="43.429511" lon="-5.837748">
        <ele>157</ele>
        <time>2019-11-24T17:14:17Z</time>
      </trkpt>
      <trkpt lat="43.429573" lon="-5.837829">
        <ele>156.6</ele>
        <time>2019-11-24T17:14:18Z</time>
      </trkpt>
      <trkpt lat="43.429634" lon="-5.837913">
        <ele>156.6</ele>
        <time>2019-11-24T17:14:19Z</time>
      </trkpt>
      <trkpt lat="43.429695" lon="-5.837998">
        <ele>156.2</ele>
        <time>2019-11-24T17:14:20Z</time>
      </trkpt>
      <trkpt lat="43.429758" lon="-5.838082">
        <ele>156</ele>
        <time>2019-11-24T17:14:21Z</time>
      </trkpt>
      <trkpt lat="43.429822" lon="-5.838166">
        <ele>156.2</ele>
        <time>2019-11-24T17:14:22Z</time>
      </trkpt>
      <trkpt lat="43.429886" lon="-5.838251">
        <ele>156</ele>
        <time>2019-11-24T17:14:23Z</time>
      </trkpt>
      <trkpt lat="43.429949" lon="-5.838334">
        <ele>156</ele>
        <time>2019-11-24T17:14:24Z</time>
      </trkpt>
      <trkpt lat="43.430012" lon="-5.838417">
        <ele>155.6</ele>
        <time>2019-11-24T17:14:25Z</time>
      </trkpt>
      <trkpt lat="43.430075" lon="-5.838501">
        <ele>155</ele>
        <time>2019-11-24T17:14:26Z</time>
      </trkpt>
      <trkpt lat="43.430138" lon="-5.838585">
        <ele>155.8</ele>
        <time>2019-11-24T17:14:27Z</time>
      </trkpt>
      <trkpt lat="43.430199" lon="-5.838671">
        <ele>155.8</ele>
        <time>2019-11-24T17:14:28Z</time>
      </trkpt>
      <trkpt lat="43.430263" lon="-5.838756">
        <ele>156</ele>
        <time>2019-11-24T17:14:29Z</time>
      </trkpt>
      <trkpt lat="43.430327" lon="-5.83884">
        <ele>155.6</ele>
        <time>2019-11-24T17:14:30Z</time>
      </trkpt>
      <trkpt lat="43.430391" lon="-5.838924">
        <ele>155.6</ele>
        <time>2019-11-24T17:14:31Z</time>
      </trkpt>
      <trkpt lat="43.430455" lon="-5.83901">
        <ele>155</ele>
        <time>2019-11-24T17:14:32Z</time>
      </trkpt>
      <trkpt lat="43.430519" lon="-5.839096">
        <ele>155.4</ele>
        <time>2019-11-24T17:14:33Z</time>
      </trkpt>
      <trkpt lat="43.430582" lon="-5.839182">
        <ele>155.2</ele>
        <time>2019-11-24T17:14:34Z</time>
      </trkpt>
      <trkpt lat="43.430646" lon="-5.839268">
        <ele>155</ele>
        <time>2019-11-24T17:14:35Z</time>
      </trkpt>
      <trkpt lat="43.430711" lon="-5.839351">
        <ele>155.2</ele>
        <time>2019-11-24T17:14:36Z</time>
      </trkpt>
      <trkpt lat="43.430776" lon="-5.839434">
        <ele>154.4</ele>
        <time>2019-11-24T17:14:37Z</time>
      </trkpt>
      <trkpt lat="43.43084" lon="-5.839519">
        <ele>154.2</ele>
        <time>2019-11-24T17:14:38Z</time>
      </trkpt>
      <trkpt lat="43.430903" lon="-5.839606">
        <ele>155</ele>
        <time>2019-11-24T17:14:39Z</time>
      </trkpt>
      <trkpt lat="43.430966" lon="-5.839693">
        <ele>156</ele>
        <time>2019-11-24T17:14:40Z</time>
      </trkpt>
      <trkpt lat="43.43103" lon="-5.83978">
        <ele>155.6</ele>
        <time>2019-11-24T17:14:41Z</time>
      </trkpt>
      <trkpt lat="43.431094" lon="-5.839866">
        <ele>155.6</ele>
        <time>2019-11-24T17:14:42Z</time>
      </trkpt>
      <trkpt lat="43.431158" lon="-5.839951">
        <ele>155</ele>
        <time>2019-11-24T17:14:43Z</time>
      </trkpt>
      <trkpt lat="43.431223" lon="-5.840034">
        <ele>155.4</ele>
        <time>2019-11-24T17:14:44Z</time>
      </trkpt>
      <trkpt lat="43.431288" lon="-5.840118">
        <ele>155</ele>
        <time>2019-11-24T17:14:45Z</time>
      </trkpt>
      <trkpt lat="43.43135" lon="-5.840202">
        <ele>155.2</ele>
        <time>2019-11-24T17:14:46Z</time>
      </trkpt>
      <trkpt lat="43.431412" lon="-5.840287">
        <ele>155.2</ele>
        <time>2019-11-24T17:14:47Z</time>
      </trkpt>
      <trkpt lat="43.431475" lon="-5.840371">
        <ele>155.4</ele>
        <time>2019-11-24T17:14:48Z</time>
      </trkpt>
      <trkpt lat="43.431537" lon="-5.840455">
        <ele>155.8</ele>
        <time>2019-11-24T17:14:49Z</time>
      </trkpt>
      <trkpt lat="43.4316" lon="-5.840538">
        <ele>155.6</ele>
        <time>2019-11-24T17:14:50Z</time>
      </trkpt>
      <trkpt lat="43.431663" lon="-5.840621">
        <ele>155.8</ele>
        <time>2019-11-24T17:14:51Z</time>
      </trkpt>
      <trkpt lat="43.431726" lon="-5.840704">
        <ele>155.6</ele>
        <time>2019-11-24T17:14:52Z</time>
      </trkpt>
      <trkpt lat="43.431789" lon="-5.840786">
        <ele>155.8</ele>
        <time>2019-11-24T17:14:53Z</time>
      </trkpt>
      <trkpt lat="43.431851" lon="-5.84087">
        <ele>155.6</ele>
        <time>2019-11-24T17:14:54Z</time>
      </trkpt>
      <trkpt lat="43.431912" lon="-5.840953">
        <ele>155.8</ele>
        <time>2019-11-24T17:14:55Z</time>
      </trkpt>
      <trkpt lat="43.431972" lon="-5.841036">
        <ele>155.6</ele>
        <time>2019-11-24T17:14:56Z</time>
      </trkpt>
      <trkpt lat="43.432034" lon="-5.841117">
        <ele>155.6</ele>
        <time>2019-11-24T17:14:57Z</time>
      </trkpt>
      <trkpt lat="43.432096" lon="-5.841198">
        <ele>155.8</ele>
        <time>2019-11-24T17:14:58Z</time>
      </trkpt>
      <trkpt lat="43.432158" lon="-5.841281">
        <ele>155.6</ele>
        <time>2019-11-24T17:14:59Z</time>
      </trkpt>
      <trkpt lat="43.43222" lon="-5.841363">
        <ele>155.8</ele>
        <time>2019-11-24T17:15:00Z</time>
      </trkpt>
      <trkpt lat="43.432281" lon="-5.841444">
        <ele>156.2</ele>
        <time>2019-11-24T17:15:01Z</time>
      </trkpt>
      <trkpt lat="43.432343" lon="-5.841524">
        <ele>156.6</ele>
        <time>2019-11-24T17:15:02Z</time>
      </trkpt>
      <trkpt lat="43.432404" lon="-5.841605">
        <ele>156.2</ele>
        <time>2019-11-24T17:15:03Z</time>
      </trkpt>
      <trkpt lat="43.432464" lon="-5.841687">
        <ele>156</ele>
        <time>2019-11-24T17:15:04Z</time>
      </trkpt>
      <trkpt lat="43.432525" lon="-5.841768">
        <ele>156.2</ele>
        <time>2019-11-24T17:15:05Z</time>
      </trkpt>
      <trkpt lat="43.432585" lon="-5.841847">
        <ele>156.6</ele>
        <time>2019-11-24T17:15:06Z</time>
      </trkpt>
      <trkpt lat="43.432645" lon="-5.841927">
        <ele>156.8</ele>
        <time>2019-11-24T17:15:07Z</time>
      </trkpt>
      <trkpt lat="43.432703" lon="-5.842007">
        <ele>157.2</ele>
        <time>2019-11-24T17:15:08Z</time>
      </trkpt>
      <trkpt lat="43.432761" lon="-5.842087">
        <ele>157.4</ele>
        <time>2019-11-24T17:15:09Z</time>
      </trkpt>
      <trkpt lat="43.432819" lon="-5.842164">
        <ele>157.6</ele>
        <time>2019-11-24T17:15:10Z</time>
      </trkpt>
      <trkpt lat="43.432876" lon="-5.842242">
        <ele>157.8</ele>
        <time>2019-11-24T17:15:11Z</time>
      </trkpt>
      <trkpt lat="43.432934" lon="-5.842319">
        <ele>157.6</ele>
        <time>2019-11-24T17:15:12Z</time>
      </trkpt>
      <trkpt lat="43.432992" lon="-5.842396">
        <ele>158</ele>
        <time>2019-11-24T17:15:13Z</time>
      </trkpt>
      <trkpt lat="43.43305" lon="-5.842473">
        <ele>158</ele>
        <time>2019-11-24T17:15:14Z</time>
      </trkpt>
      <trkpt lat="43.433108" lon="-5.842549">
        <ele>158.4</ele>
        <time>2019-11-24T17:15:15Z</time>
      </trkpt>
      <trkpt lat="43.433167" lon="-5.842626">
        <ele>158.2</ele>
        <time>2019-11-24T17:15:16Z</time>
      </trkpt>
      <trkpt lat="43.433224" lon="-5.842706">
        <ele>158.4</ele>
        <time>2019-11-24T17:15:17Z</time>
      </trkpt>
      <trkpt lat="43.433282" lon="-5.842785">
        <ele>158.6</ele>
        <time>2019-11-24T17:15:18Z</time>
      </trkpt>
      <trkpt lat="43.43334" lon="-5.842863">
        <ele>158.2</ele>
        <time>2019-11-24T17:15:19Z</time>
      </trkpt>
      <trkpt lat="43.433398" lon="-5.84294">
        <ele>158.6</ele>
        <time>2019-11-24T17:15:20Z</time>
      </trkpt>
      <trkpt lat="43.433456" lon="-5.843018">
        <ele>158.8</ele>
        <time>2019-11-24T17:15:21Z</time>
      </trkpt>
      <trkpt lat="43.433516" lon="-5.843097">
        <ele>159.2</ele>
        <time>2019-11-24T17:15:22Z</time>
      </trkpt>
      <trkpt lat="43.433575" lon="-5.843178">
        <ele>159.2</ele>
        <time>2019-11-24T17:15:23Z</time>
      </trkpt>
      <trkpt lat="43.433633" lon="-5.843258">
        <ele>158.8</ele>
        <time>2019-11-24T17:15:24Z</time>
      </trkpt>
      <trkpt lat="43.433694" lon="-5.843337">
        <ele>159.8</ele>
        <time>2019-11-24T17:15:25Z</time>
      </trkpt>
      <trkpt lat="43.433754" lon="-5.843416">
        <ele>160.2</ele>
        <time>2019-11-24T17:15:26Z</time>
      </trkpt>
      <trkpt lat="43.433815" lon="-5.843496">
        <ele>159.4</ele>
        <time>2019-11-24T17:15:27Z</time>
      </trkpt>
      <trkpt lat="43.433876" lon="-5.843576">
        <ele>160.4</ele>
        <time>2019-11-24T17:15:28Z</time>
      </trkpt>
      <trkpt lat="43.433937" lon="-5.843657">
        <ele>160.4</ele>
        <time>2019-11-24T17:15:29Z</time>
      </trkpt>
      <trkpt lat="43.433997" lon="-5.84374">
        <ele>159.4</ele>
        <time>2019-11-24T17:15:30Z</time>
      </trkpt>
      <trkpt lat="43.434058" lon="-5.843823">
        <ele>160.6</ele>
        <time>2019-11-24T17:15:31Z</time>
      </trkpt>
      <trkpt lat="43.434119" lon="-5.843906">
        <ele>160.6</ele>
        <time>2019-11-24T17:15:32Z</time>
      </trkpt>
      <trkpt lat="43.434182" lon="-5.843989">
        <ele>160</ele>
        <time>2019-11-24T17:15:33Z</time>
      </trkpt>
      <trkpt lat="43.434244" lon="-5.844073">
        <ele>160.6</ele>
        <time>2019-11-24T17:15:34Z</time>
      </trkpt>
      <trkpt lat="43.434307" lon="-5.844156">
        <ele>160.4</ele>
        <time>2019-11-24T17:15:35Z</time>
      </trkpt>
      <trkpt lat="43.434368" lon="-5.844239">
        <ele>160.8</ele>
        <time>2019-11-24T17:15:36Z</time>
      </trkpt>
      <trkpt lat="43.434429" lon="-5.844322">
        <ele>161</ele>
        <time>2019-11-24T17:15:37Z</time>
      </trkpt>
      <trkpt lat="43.43449" lon="-5.844404">
        <ele>161</ele>
        <time>2019-11-24T17:15:38Z</time>
      </trkpt>
      <trkpt lat="43.43455" lon="-5.844485">
        <ele>160.8</ele>
        <time>2019-11-24T17:15:39Z</time>
      </trkpt>
      <trkpt lat="43.43461" lon="-5.844565">
        <ele>161.4</ele>
        <time>2019-11-24T17:15:40Z</time>
      </trkpt>
      <trkpt lat="43.43467" lon="-5.844644">
        <ele>161.6</ele>
        <time>2019-11-24T17:15:41Z</time>
      </trkpt>
      <trkpt lat="43.434729" lon="-5.844723">
        <ele>161.8</ele>
        <time>2019-11-24T17:15:42Z</time>
      </trkpt>
      <trkpt lat="43.434788" lon="-5.844802">
        <ele>161.6</ele>
        <time>2019-11-24T17:15:43Z</time>
      </trkpt>
      <trkpt lat="43.434846" lon="-5.844879">
        <ele>162</ele>
        <time>2019-11-24T17:15:44Z</time>
      </trkpt>
      <trkpt lat="43.434905" lon="-5.844957">
        <ele>162.6</ele>
        <time>2019-11-24T17:15:45Z</time>
      </trkpt>
      <trkpt lat="43.434963" lon="-5.845034">
        <ele>162.4</ele>
        <time>2019-11-24T17:15:46Z</time>
      </trkpt>
      <trkpt lat="43.435021" lon="-5.845111">
        <ele>162.6</ele>
        <time>2019-11-24T17:15:47Z</time>
      </trkpt>
      <trkpt lat="43.435079" lon="-5.845189">
        <ele>163</ele>
        <time>2019-11-24T17:15:48Z</time>
      </trkpt>
      <trkpt lat="43.435136" lon="-5.845267">
        <ele>163.2</ele>
        <time>2019-11-24T17:15:49Z</time>
      </trkpt>
      <trkpt lat="43.435192" lon="-5.845345">
        <ele>163</ele>
        <time>2019-11-24T17:15:50Z</time>
      </trkpt>
      <trkpt lat="43.43525" lon="-5.845421">
        <ele>163</ele>
        <time>2019-11-24T17:15:51Z</time>
      </trkpt>
      <trkpt lat="43.435307" lon="-5.845495">
        <ele>163.4</ele>
        <time>2019-11-24T17:15:52Z</time>
      </trkpt>
      <trkpt lat="43.435363" lon="-5.84557">
        <ele>163.6</ele>
        <time>2019-11-24T17:15:53Z</time>
      </trkpt>
      <trkpt lat="43.435418" lon="-5.845645">
        <ele>164</ele>
        <time>2019-11-24T17:15:54Z</time>
      </trkpt>
      <trkpt lat="43.435474" lon="-5.845719">
        <ele>164.4</ele>
        <time>2019-11-24T17:15:55Z</time>
      </trkpt>
      <trkpt lat="43.435529" lon="-5.845792">
        <ele>164.8</ele>
        <time>2019-11-24T17:15:56Z</time>
      </trkpt>
      <trkpt lat="43.435583" lon="-5.845864">
        <ele>164.8</ele>
        <time>2019-11-24T17:15:57Z</time>
      </trkpt>
      <trkpt lat="43.435637" lon="-5.845935">
        <ele>165.8</ele>
        <time>2019-11-24T17:15:58Z</time>
      </trkpt>
      <trkpt lat="43.435689" lon="-5.846002">
        <ele>165.8</ele>
        <time>2019-11-24T17:15:59Z</time>
      </trkpt>
      <trkpt lat="43.435743" lon="-5.846055">
        <ele>166</ele>
        <time>2019-11-24T17:16:00Z</time>
      </trkpt>
      <trkpt lat="43.435797" lon="-5.846086">
        <ele>166.6</ele>
        <time>2019-11-24T17:16:01Z</time>
      </trkpt>
      <trkpt lat="43.435851" lon="-5.8461">
        <ele>166.4</ele>
        <time>2019-11-24T17:16:02Z</time>
      </trkpt>
      <trkpt lat="43.435907" lon="-5.846107">
        <ele>167</ele>
        <time>2019-11-24T17:16:03Z</time>
      </trkpt>
      <trkpt lat="43.435966" lon="-5.846117">
        <ele>166.4</ele>
        <time>2019-11-24T17:16:04Z</time>
      </trkpt>
      <trkpt lat="43.436025" lon="-5.846145">
        <ele>167</ele>
        <time>2019-11-24T17:16:05Z</time>
      </trkpt>
      <trkpt lat="43.436079" lon="-5.846192">
        <ele>167</ele>
        <time>2019-11-24T17:16:06Z</time>
      </trkpt>
      <trkpt lat="43.436122" lon="-5.846258">
        <ele>166.8</ele>
        <time>2019-11-24T17:16:07Z</time>
      </trkpt>
      <trkpt lat="43.436152" lon="-5.846339">
        <ele>167.2</ele>
        <time>2019-11-24T17:16:08Z</time>
      </trkpt>
      <trkpt lat="43.43617" lon="-5.84643">
        <ele>167.2</ele>
        <time>2019-11-24T17:16:09Z</time>
      </trkpt>
      <trkpt lat="43.43618" lon="-5.846523">
        <ele>166.6</ele>
        <time>2019-11-24T17:16:10Z</time>
      </trkpt>
      <trkpt lat="43.436192" lon="-5.846613">
        <ele>167.2</ele>
        <time>2019-11-24T17:16:11Z</time>
      </trkpt>
      <trkpt lat="43.436215" lon="-5.846697">
        <ele>167</ele>
        <time>2019-11-24T17:16:12Z</time>
      </trkpt>
      <trkpt lat="43.436247" lon="-5.846774">
        <ele>166.8</ele>
        <time>2019-11-24T17:16:13Z</time>
      </trkpt>
      <trkpt lat="43.436286" lon="-5.846842">
        <ele>166.8</ele>
        <time>2019-11-24T17:16:14Z</time>
      </trkpt>
      <trkpt lat="43.436328" lon="-5.846901">
        <ele>166.6</ele>
        <time>2019-11-24T17:16:15Z</time>
      </trkpt>
      <trkpt lat="43.436372" lon="-5.846955">
        <ele>165.8</ele>
        <time>2019-11-24T17:16:16Z</time>
      </trkpt>
      <trkpt lat="43.436414" lon="-5.847006">
        <ele>166.2</ele>
        <time>2019-11-24T17:16:17Z</time>
      </trkpt>
      <trkpt lat="43.436453" lon="-5.847058">
        <ele>166.8</ele>
        <time>2019-11-24T17:16:18Z</time>
      </trkpt>
      <trkpt lat="43.436492" lon="-5.84711">
        <ele>167</ele>
        <time>2019-11-24T17:16:19Z</time>
      </trkpt>
      <trkpt lat="43.436531" lon="-5.847163">
        <ele>166.8</ele>
        <time>2019-11-24T17:16:20Z</time>
      </trkpt>
      <trkpt lat="43.43657" lon="-5.847221">
        <ele>166.2</ele>
        <time>2019-11-24T17:16:21Z</time>
      </trkpt>
      <trkpt lat="43.436608" lon="-5.847283">
        <ele>166.4</ele>
        <time>2019-11-24T17:16:22Z</time>
      </trkpt>
      <trkpt lat="43.436649" lon="-5.847344">
        <ele>165.8</ele>
        <time>2019-11-24T17:16:23Z</time>
      </trkpt>
      <trkpt lat="43.436694" lon="-5.847405">
        <ele>165.6</ele>
        <time>2019-11-24T17:16:24Z</time>
      </trkpt>
      <trkpt lat="43.436741" lon="-5.847465">
        <ele>166</ele>
        <time>2019-11-24T17:16:25Z</time>
      </trkpt>
      <trkpt lat="43.436788" lon="-5.847528">
        <ele>165.6</ele>
        <time>2019-11-24T17:16:26Z</time>
      </trkpt>
      <trkpt lat="43.436834" lon="-5.847593">
        <ele>165.8</ele>
        <time>2019-11-24T17:16:27Z</time>
      </trkpt>
      <trkpt lat="43.436884" lon="-5.847657">
        <ele>165.2</ele>
        <time>2019-11-24T17:16:28Z</time>
      </trkpt>
      <trkpt lat="43.436935" lon="-5.847722">
        <ele>165.4</ele>
        <time>2019-11-24T17:16:29Z</time>
      </trkpt>
      <trkpt lat="43.436988" lon="-5.84779">
        <ele>165.4</ele>
        <time>2019-11-24T17:16:30Z</time>
      </trkpt>
      <trkpt lat="43.43704" lon="-5.847862">
        <ele>164.8</ele>
        <time>2019-11-24T17:16:31Z</time>
      </trkpt>
      <trkpt lat="43.437093" lon="-5.847934">
        <ele>165</ele>
        <time>2019-11-24T17:16:32Z</time>
      </trkpt>
      <trkpt lat="43.437148" lon="-5.848005">
        <ele>164.8</ele>
        <time>2019-11-24T17:16:33Z</time>
      </trkpt>
      <trkpt lat="43.437205" lon="-5.848077">
        <ele>164.2</ele>
        <time>2019-11-24T17:16:34Z</time>
      </trkpt>
      <trkpt lat="43.437262" lon="-5.84815">
        <ele>163.6</ele>
        <time>2019-11-24T17:16:35Z</time>
      </trkpt>
      <trkpt lat="43.437321" lon="-5.848222">
        <ele>164</ele>
        <time>2019-11-24T17:16:36Z</time>
      </trkpt>
      <trkpt lat="43.437377" lon="-5.848296">
        <ele>164.2</ele>
        <time>2019-11-24T17:16:37Z</time>
      </trkpt>
      <trkpt lat="43.437433" lon="-5.848369">
        <ele>165</ele>
        <time>2019-11-24T17:16:38Z</time>
      </trkpt>
      <trkpt lat="43.437489" lon="-5.848437">
        <ele>164.2</ele>
        <time>2019-11-24T17:16:39Z</time>
      </trkpt>
      <trkpt lat="43.437545" lon="-5.848507">
        <ele>165.2</ele>
        <time>2019-11-24T17:16:40Z</time>
      </trkpt>
      <trkpt lat="43.437598" lon="-5.848576">
        <ele>165.6</ele>
        <time>2019-11-24T17:16:41Z</time>
      </trkpt>
      <trkpt lat="43.43765" lon="-5.848643">
        <ele>165.8</ele>
        <time>2019-11-24T17:16:42Z</time>
      </trkpt>
      <trkpt lat="43.437701" lon="-5.848709">
        <ele>165.4</ele>
        <time>2019-11-24T17:16:43Z</time>
      </trkpt>
      <trkpt lat="43.43775" lon="-5.848775">
        <ele>165.6</ele>
        <time>2019-11-24T17:16:44Z</time>
      </trkpt>
      <trkpt lat="43.437798" lon="-5.848838">
        <ele>166</ele>
        <time>2019-11-24T17:16:45Z</time>
      </trkpt>
      <trkpt lat="43.437846" lon="-5.8489">
        <ele>166.4</ele>
        <time>2019-11-24T17:16:46Z</time>
      </trkpt>
      <trkpt lat="43.437891" lon="-5.848962">
        <ele>166.4</ele>
        <time>2019-11-24T17:16:47Z</time>
      </trkpt>
      <trkpt lat="43.437936" lon="-5.849022">
        <ele>166.8</ele>
        <time>2019-11-24T17:16:48Z</time>
      </trkpt>
      <trkpt lat="43.43798" lon="-5.849084">
        <ele>167.2</ele>
        <time>2019-11-24T17:16:49Z</time>
      </trkpt>
      <trkpt lat="43.438025" lon="-5.849144">
        <ele>167</ele>
        <time>2019-11-24T17:16:50Z</time>
      </trkpt>
      <trkpt lat="43.43807" lon="-5.849204">
        <ele>167.8</ele>
        <time>2019-11-24T17:16:51Z</time>
      </trkpt>
      <trkpt lat="43.438113" lon="-5.849265">
        <ele>168.6</ele>
        <time>2019-11-24T17:16:52Z</time>
      </trkpt>
      <trkpt lat="43.438157" lon="-5.849325">
        <ele>168</ele>
        <time>2019-11-24T17:16:53Z</time>
      </trkpt>
      <trkpt lat="43.438203" lon="-5.849381">
        <ele>168.8</ele>
        <time>2019-11-24T17:16:54Z</time>
      </trkpt>
      <trkpt lat="43.438248" lon="-5.849438">
        <ele>169.2</ele>
        <time>2019-11-24T17:16:55Z</time>
      </trkpt>
      <trkpt lat="43.438291" lon="-5.849493">
        <ele>169.2</ele>
        <time>2019-11-24T17:16:56Z</time>
      </trkpt>
      <trkpt lat="43.438331" lon="-5.849544">
        <ele>169.4</ele>
        <time>2019-11-24T17:16:57Z</time>
      </trkpt>
      <trkpt lat="43.438367" lon="-5.849589">
        <ele>169.8</ele>
        <time>2019-11-24T17:16:58Z</time>
      </trkpt>
      <trkpt lat="43.438398" lon="-5.849628">
        <ele>169.8</ele>
        <time>2019-11-24T17:16:59Z</time>
      </trkpt>
      <trkpt lat="43.438427" lon="-5.849661">
        <ele>170</ele>
        <time>2019-11-24T17:17:00Z</time>
      </trkpt>
      <trkpt lat="43.438454" lon="-5.84969">
        <ele>170</ele>
        <time>2019-11-24T17:17:01Z</time>
      </trkpt>
      <trkpt lat="43.438477" lon="-5.84972">
        <ele>170</ele>
        <time>2019-11-24T17:17:02Z</time>
      </trkpt>
      <trkpt lat="43.438501" lon="-5.84975">
        <ele>170</ele>
        <time>2019-11-24T17:17:03Z</time>
      </trkpt>
      <trkpt lat="43.438525" lon="-5.849784">
        <ele>170</ele>
        <time>2019-11-24T17:17:04Z</time>
      </trkpt>
      <trkpt lat="43.438552" lon="-5.849823">
        <ele>170.2</ele>
        <time>2019-11-24T17:17:05Z</time>
      </trkpt>
      <trkpt lat="43.438582" lon="-5.849863">
        <ele>170.2</ele>
        <time>2019-11-24T17:17:06Z</time>
      </trkpt>
      <trkpt lat="43.438618" lon="-5.849905">
        <ele>170.2</ele>
        <time>2019-11-24T17:17:07Z</time>
      </trkpt>
      <trkpt lat="43.438656" lon="-5.849949">
        <ele>170.6</ele>
        <time>2019-11-24T17:17:08Z</time>
      </trkpt>
      <trkpt lat="43.438693" lon="-5.849999">
        <ele>170.6</ele>
        <time>2019-11-24T17:17:09Z</time>
      </trkpt>
      <trkpt lat="43.43873" lon="-5.850049">
        <ele>171</ele>
        <time>2019-11-24T17:17:10Z</time>
      </trkpt>
      <trkpt lat="43.438768" lon="-5.850101">
        <ele>170.8</ele>
        <time>2019-11-24T17:17:11Z</time>
      </trkpt>
      <trkpt lat="43.438805" lon="-5.850157">
        <ele>170.8</ele>
        <time>2019-11-24T17:17:12Z</time>
      </trkpt>
      <trkpt lat="43.438843" lon="-5.850212">
        <ele>170.8</ele>
        <time>2019-11-24T17:17:13Z</time>
      </trkpt>
      <trkpt lat="43.438882" lon="-5.85027">
        <ele>170.8</ele>
        <time>2019-11-24T17:17:14Z</time>
      </trkpt>
      <trkpt lat="43.438923" lon="-5.850326">
        <ele>170.6</ele>
        <time>2019-11-24T17:17:15Z</time>
      </trkpt>
      <trkpt lat="43.438964" lon="-5.850386">
        <ele>170.6</ele>
        <time>2019-11-24T17:17:16Z</time>
      </trkpt>
      <trkpt lat="43.439008" lon="-5.850443">
        <ele>170.6</ele>
        <time>2019-11-24T17:17:17Z</time>
      </trkpt>
      <trkpt lat="43.439051" lon="-5.850499">
        <ele>170</ele>
        <time>2019-11-24T17:17:18Z</time>
      </trkpt>
      <trkpt lat="43.439096" lon="-5.850554">
        <ele>170</ele>
        <time>2019-11-24T17:17:19Z</time>
      </trkpt>
      <trkpt lat="43.439139" lon="-5.850605">
        <ele>169.8</ele>
        <time>2019-11-24T17:17:20Z</time>
      </trkpt>
      <trkpt lat="43.439182" lon="-5.850653">
        <ele>169.8</ele>
        <time>2019-11-24T17:17:21Z</time>
      </trkpt>
      <trkpt lat="43.439222" lon="-5.850705">
        <ele>169.8</ele>
        <time>2019-11-24T17:17:22Z</time>
      </trkpt>
      <trkpt lat="43.43926" lon="-5.850755">
        <ele>169.6</ele>
        <time>2019-11-24T17:17:23Z</time>
      </trkpt>
      <trkpt lat="43.439298" lon="-5.850804">
        <ele>169.6</ele>
        <time>2019-11-24T17:17:24Z</time>
      </trkpt>
      <trkpt lat="43.439337" lon="-5.850852">
        <ele>169.6</ele>
        <time>2019-11-24T17:17:25Z</time>
      </trkpt>
      <trkpt lat="43.439375" lon="-5.8509">
        <ele>169.4</ele>
        <time>2019-11-24T17:17:26Z</time>
      </trkpt>
      <trkpt lat="43.439414" lon="-5.850948">
        <ele>169.2</ele>
        <time>2019-11-24T17:17:27Z</time>
      </trkpt>
      <trkpt lat="43.439454" lon="-5.850994">
        <ele>169</ele>
        <time>2019-11-24T17:17:28Z</time>
      </trkpt>
      <trkpt lat="43.439496" lon="-5.851042">
        <ele>169.2</ele>
        <time>2019-11-24T17:17:29Z</time>
      </trkpt>
      <trkpt lat="43.439539" lon="-5.851092">
        <ele>169</ele>
        <time>2019-11-24T17:17:30Z</time>
      </trkpt>
      <trkpt lat="43.439583" lon="-5.851142">
        <ele>168.8</ele>
        <time>2019-11-24T17:17:31Z</time>
      </trkpt>
      <trkpt lat="43.439629" lon="-5.851196">
        <ele>168.6</ele>
        <time>2019-11-24T17:17:32Z</time>
      </trkpt>
      <trkpt lat="43.439673" lon="-5.851252">
        <ele>168.4</ele>
        <time>2019-11-24T17:17:33Z</time>
      </trkpt>
      <trkpt lat="43.439721" lon="-5.851307">
        <ele>169.2</ele>
        <time>2019-11-24T17:17:34Z</time>
      </trkpt>
      <trkpt lat="43.439769" lon="-5.851361">
        <ele>168</ele>
        <time>2019-11-24T17:17:35Z</time>
      </trkpt>
      <trkpt lat="43.439818" lon="-5.851413">
        <ele>168.4</ele>
        <time>2019-11-24T17:17:36Z</time>
      </trkpt>
      <trkpt lat="43.439867" lon="-5.851469">
        <ele>168.6</ele>
        <time>2019-11-24T17:17:37Z</time>
      </trkpt>
      <trkpt lat="43.439914" lon="-5.85153">
        <ele>168.4</ele>
        <time>2019-11-24T17:17:38Z</time>
      </trkpt>
      <trkpt lat="43.439963" lon="-5.851591">
        <ele>168.6</ele>
        <time>2019-11-24T17:17:39Z</time>
      </trkpt>
      <trkpt lat="43.440012" lon="-5.851652">
        <ele>168.8</ele>
        <time>2019-11-24T17:17:40Z</time>
      </trkpt>
      <trkpt lat="43.440061" lon="-5.851716">
        <ele>169.2</ele>
        <time>2019-11-24T17:17:41Z</time>
      </trkpt>
      <trkpt lat="43.44011" lon="-5.851782">
        <ele>168.2</ele>
        <time>2019-11-24T17:17:42Z</time>
      </trkpt>
      <trkpt lat="43.440165" lon="-5.851843">
        <ele>168.2</ele>
        <time>2019-11-24T17:17:43Z</time>
      </trkpt>
      <trkpt lat="43.44022" lon="-5.851906">
        <ele>169</ele>
        <time>2019-11-24T17:17:44Z</time>
      </trkpt>
      <trkpt lat="43.440275" lon="-5.851969">
        <ele>167.6</ele>
        <time>2019-11-24T17:17:45Z</time>
      </trkpt>
      <trkpt lat="43.440331" lon="-5.852035">
        <ele>168</ele>
        <time>2019-11-24T17:17:46Z</time>
      </trkpt>
      <trkpt lat="43.440388" lon="-5.852101">
        <ele>167.8</ele>
        <time>2019-11-24T17:17:47Z</time>
      </trkpt>
      <trkpt lat="43.440444" lon="-5.852169">
        <ele>168</ele>
        <time>2019-11-24T17:17:48Z</time>
      </trkpt>
      <trkpt lat="43.440497" lon="-5.852242">
        <ele>167.6</ele>
        <time>2019-11-24T17:17:49Z</time>
      </trkpt>
      <trkpt lat="43.440554" lon="-5.852311">
        <ele>167.2</ele>
        <time>2019-11-24T17:17:50Z</time>
      </trkpt>
      <trkpt lat="43.440612" lon="-5.85238">
        <ele>167</ele>
        <time>2019-11-24T17:17:51Z</time>
      </trkpt>
      <trkpt lat="43.440674" lon="-5.852445">
        <ele>167</ele>
        <time>2019-11-24T17:17:52Z</time>
      </trkpt>
      <trkpt lat="43.440737" lon="-5.852512">
        <ele>167</ele>
        <time>2019-11-24T17:17:53Z</time>
      </trkpt>
      <trkpt lat="43.440799" lon="-5.852579">
        <ele>167.2</ele>
        <time>2019-11-24T17:17:54Z</time>
      </trkpt>
      <trkpt lat="43.440854" lon="-5.852649">
        <ele>166.8</ele>
        <time>2019-11-24T17:17:55Z</time>
      </trkpt>
      <trkpt lat="43.440907" lon="-5.852716">
        <ele>167</ele>
        <time>2019-11-24T17:17:56Z</time>
      </trkpt>
      <trkpt lat="43.44096" lon="-5.852785">
        <ele>167</ele>
        <time>2019-11-24T17:17:57Z</time>
      </trkpt>
      <trkpt lat="43.441012" lon="-5.852857">
        <ele>167.2</ele>
        <time>2019-11-24T17:17:58Z</time>
      </trkpt>
      <trkpt lat="43.441073" lon="-5.852924">
        <ele>166</ele>
        <time>2019-11-24T17:17:59Z</time>
      </trkpt>
      <trkpt lat="43.441134" lon="-5.852989">
        <ele>166.2</ele>
        <time>2019-11-24T17:18:00Z</time>
      </trkpt>
      <trkpt lat="43.441197" lon="-5.853055">
        <ele>166.2</ele>
        <time>2019-11-24T17:18:01Z</time>
      </trkpt>
      <trkpt lat="43.44126" lon="-5.85312">
        <ele>166</ele>
        <time>2019-11-24T17:18:02Z</time>
      </trkpt>
      <trkpt lat="43.441322" lon="-5.85319">
        <ele>166.2</ele>
        <time>2019-11-24T17:18:03Z</time>
      </trkpt>
      <trkpt lat="43.441381" lon="-5.85326">
        <ele>166.2</ele>
        <time>2019-11-24T17:18:04Z</time>
      </trkpt>
      <trkpt lat="43.44144" lon="-5.853326">
        <ele>166.6</ele>
        <time>2019-11-24T17:18:05Z</time>
      </trkpt>
      <trkpt lat="43.441498" lon="-5.853392">
        <ele>166.2</ele>
        <time>2019-11-24T17:18:06Z</time>
      </trkpt>
      <trkpt lat="43.441556" lon="-5.853462">
        <ele>165.6</ele>
        <time>2019-11-24T17:18:07Z</time>
      </trkpt>
      <trkpt lat="43.441615" lon="-5.853532">
        <ele>166.2</ele>
        <time>2019-11-24T17:18:08Z</time>
      </trkpt>
      <trkpt lat="43.441675" lon="-5.853602">
        <ele>165.8</ele>
        <time>2019-11-24T17:18:09Z</time>
      </trkpt>
      <trkpt lat="43.441736" lon="-5.85367">
        <ele>165.6</ele>
        <time>2019-11-24T17:18:10Z</time>
      </trkpt>
      <trkpt lat="43.441798" lon="-5.853738">
        <ele>165.4</ele>
        <time>2019-11-24T17:18:11Z</time>
      </trkpt>
      <trkpt lat="43.441859" lon="-5.853807">
        <ele>165.2</ele>
        <time>2019-11-24T17:18:12Z</time>
      </trkpt>
      <trkpt lat="43.441919" lon="-5.853876">
        <ele>165.8</ele>
        <time>2019-11-24T17:18:13Z</time>
      </trkpt>
      <trkpt lat="43.441977" lon="-5.853947">
        <ele>165.4</ele>
        <time>2019-11-24T17:18:14Z</time>
      </trkpt>
      <trkpt lat="43.442037" lon="-5.854019">
        <ele>165.2</ele>
        <time>2019-11-24T17:18:15Z</time>
      </trkpt>
      <trkpt lat="43.442096" lon="-5.854092">
        <ele>164.8</ele>
        <time>2019-11-24T17:18:16Z</time>
      </trkpt>
      <trkpt lat="43.442159" lon="-5.854166">
        <ele>164.6</ele>
        <time>2019-11-24T17:18:17Z</time>
      </trkpt>
      <trkpt lat="43.442221" lon="-5.85424">
        <ele>164.2</ele>
        <time>2019-11-24T17:18:18Z</time>
      </trkpt>
      <trkpt lat="43.442284" lon="-5.854315">
        <ele>164.2</ele>
        <time>2019-11-24T17:18:19Z</time>
      </trkpt>
      <trkpt lat="43.442348" lon="-5.854388">
        <ele>164.4</ele>
        <time>2019-11-24T17:18:20Z</time>
      </trkpt>
      <trkpt lat="43.442411" lon="-5.854462">
        <ele>165</ele>
        <time>2019-11-24T17:18:21Z</time>
      </trkpt>
      <trkpt lat="43.442475" lon="-5.854535">
        <ele>165</ele>
        <time>2019-11-24T17:18:22Z</time>
      </trkpt>
      <trkpt lat="43.44254" lon="-5.854607">
        <ele>164.4</ele>
        <time>2019-11-24T17:18:23Z</time>
      </trkpt>
      <trkpt lat="43.442604" lon="-5.854676">
        <ele>164.8</ele>
        <time>2019-11-24T17:18:24Z</time>
      </trkpt>
      <trkpt lat="43.442669" lon="-5.854746">
        <ele>165.2</ele>
        <time>2019-11-24T17:18:25Z</time>
      </trkpt>
      <trkpt lat="43.442732" lon="-5.854817">
        <ele>165</ele>
        <time>2019-11-24T17:18:26Z</time>
      </trkpt>
      <trkpt lat="43.442795" lon="-5.854886">
        <ele>164.8</ele>
        <time>2019-11-24T17:18:27Z</time>
      </trkpt>
      <trkpt lat="43.442857" lon="-5.854955">
        <ele>165.2</ele>
        <time>2019-11-24T17:18:28Z</time>
      </trkpt>
      <trkpt lat="43.44292" lon="-5.855022">
        <ele>165.2</ele>
        <time>2019-11-24T17:18:29Z</time>
      </trkpt>
      <trkpt lat="43.442982" lon="-5.85509">
        <ele>165.6</ele>
        <time>2019-11-24T17:18:30Z</time>
      </trkpt>
      <trkpt lat="43.443045" lon="-5.855155">
        <ele>165</ele>
        <time>2019-11-24T17:18:31Z</time>
      </trkpt>
      <trkpt lat="43.443107" lon="-5.855222">
        <ele>165.8</ele>
        <time>2019-11-24T17:18:32Z</time>
      </trkpt>
      <trkpt lat="43.44317" lon="-5.855288">
        <ele>165.6</ele>
        <time>2019-11-24T17:18:33Z</time>
      </trkpt>
      <trkpt lat="43.443231" lon="-5.855353">
        <ele>165.8</ele>
        <time>2019-11-24T17:18:34Z</time>
      </trkpt>
      <trkpt lat="43.44329" lon="-5.855421">
        <ele>166.2</ele>
        <time>2019-11-24T17:18:35Z</time>
      </trkpt>
      <trkpt lat="43.443351" lon="-5.855488">
        <ele>166.6</ele>
        <time>2019-11-24T17:18:36Z</time>
      </trkpt>
      <trkpt lat="43.443411" lon="-5.855556">
        <ele>166.8</ele>
        <time>2019-11-24T17:18:37Z</time>
      </trkpt>
      <trkpt lat="43.443469" lon="-5.855621">
        <ele>167</ele>
        <time>2019-11-24T17:18:38Z</time>
      </trkpt>
      <trkpt lat="43.443527" lon="-5.855686">
        <ele>166.4</ele>
        <time>2019-11-24T17:18:39Z</time>
      </trkpt>
      <trkpt lat="43.443588" lon="-5.855746">
        <ele>167</ele>
        <time>2019-11-24T17:18:40Z</time>
      </trkpt>
      <trkpt lat="43.44365" lon="-5.855803">
        <ele>167.4</ele>
        <time>2019-11-24T17:18:41Z</time>
      </trkpt>
      <trkpt lat="43.443714" lon="-5.855856">
        <ele>167.8</ele>
        <time>2019-11-24T17:18:42Z</time>
      </trkpt>
      <trkpt lat="43.443781" lon="-5.855904">
        <ele>168.2</ele>
        <time>2019-11-24T17:18:43Z</time>
      </trkpt>
      <trkpt lat="43.443848" lon="-5.855943">
        <ele>168.6</ele>
        <time>2019-11-24T17:18:44Z</time>
      </trkpt>
      <trkpt lat="43.443917" lon="-5.855975">
        <ele>168.4</ele>
        <time>2019-11-24T17:18:45Z</time>
      </trkpt>
      <trkpt lat="43.443987" lon="-5.856003">
        <ele>168.4</ele>
        <time>2019-11-24T17:18:46Z</time>
      </trkpt>
      <trkpt lat="43.444059" lon="-5.856031">
        <ele>168.2</ele>
        <time>2019-11-24T17:18:47Z</time>
      </trkpt>
      <trkpt lat="43.444131" lon="-5.856058">
        <ele>168.4</ele>
        <time>2019-11-24T17:18:48Z</time>
      </trkpt>
      <trkpt lat="43.444202" lon="-5.856088">
        <ele>168</ele>
        <time>2019-11-24T17:18:49Z</time>
      </trkpt>
      <trkpt lat="43.444276" lon="-5.856118">
        <ele>168.4</ele>
        <time>2019-11-24T17:18:50Z</time>
      </trkpt>
      <trkpt lat="43.44435" lon="-5.856148">
        <ele>168.2</ele>
        <time>2019-11-24T17:18:51Z</time>
      </trkpt>
      <trkpt lat="43.444425" lon="-5.856177">
        <ele>168.2</ele>
        <time>2019-11-24T17:18:52Z</time>
      </trkpt>
      <trkpt lat="43.444499" lon="-5.856205">
        <ele>168.4</ele>
        <time>2019-11-24T17:18:53Z</time>
      </trkpt>
      <trkpt lat="43.444573" lon="-5.856233">
        <ele>168.2</ele>
        <time>2019-11-24T17:18:54Z</time>
      </trkpt>
      <trkpt lat="43.444646" lon="-5.856261">
        <ele>168.4</ele>
        <time>2019-11-24T17:18:55Z</time>
      </trkpt>
      <trkpt lat="43.444719" lon="-5.856291">
        <ele>168.4</ele>
        <time>2019-11-24T17:18:56Z</time>
      </trkpt>
      <trkpt lat="43.444792" lon="-5.856321">
        <ele>168.6</ele>
        <time>2019-11-24T17:18:57Z</time>
      </trkpt>
      <trkpt lat="43.444866" lon="-5.856351">
        <ele>168.4</ele>
        <time>2019-11-24T17:18:58Z</time>
      </trkpt>
      <trkpt lat="43.44494" lon="-5.856381">
        <ele>168</ele>
        <time>2019-11-24T17:18:59Z</time>
      </trkpt>
      <trkpt lat="43.445014" lon="-5.856412">
        <ele>168</ele>
        <time>2019-11-24T17:19:00Z</time>
      </trkpt>
      <trkpt lat="43.445088" lon="-5.85644">
        <ele>168.2</ele>
        <time>2019-11-24T17:19:01Z</time>
      </trkpt>
      <trkpt lat="43.445162" lon="-5.856463">
        <ele>168.6</ele>
        <time>2019-11-24T17:19:02Z</time>
      </trkpt>
      <trkpt lat="43.445237" lon="-5.856482">
        <ele>168.4</ele>
        <time>2019-11-24T17:19:03Z</time>
      </trkpt>
      <trkpt lat="43.445312" lon="-5.856493">
        <ele>168.2</ele>
        <time>2019-11-24T17:19:04Z</time>
      </trkpt>
      <trkpt lat="43.445386" lon="-5.8565">
        <ele>168</ele>
        <time>2019-11-24T17:19:05Z</time>
      </trkpt>
      <trkpt lat="43.445462" lon="-5.856503">
        <ele>168</ele>
        <time>2019-11-24T17:19:06Z</time>
      </trkpt>
      <trkpt lat="43.445539" lon="-5.856501">
        <ele>168.2</ele>
        <time>2019-11-24T17:19:07Z</time>
      </trkpt>
      <trkpt lat="43.445614" lon="-5.856496">
        <ele>168.4</ele>
        <time>2019-11-24T17:19:08Z</time>
      </trkpt>
      <trkpt lat="43.44569" lon="-5.856486">
        <ele>168.4</ele>
        <time>2019-11-24T17:19:09Z</time>
      </trkpt>
      <trkpt lat="43.445765" lon="-5.856476">
        <ele>168.4</ele>
        <time>2019-11-24T17:19:10Z</time>
      </trkpt>
      <trkpt lat="43.44584" lon="-5.856465">
        <ele>168.4</ele>
        <time>2019-11-24T17:19:11Z</time>
      </trkpt>
      <trkpt lat="43.445915" lon="-5.856453">
        <ele>168.6</ele>
        <time>2019-11-24T17:19:12Z</time>
      </trkpt>
      <trkpt lat="43.445991" lon="-5.856439">
        <ele>168.4</ele>
        <time>2019-11-24T17:19:13Z</time>
      </trkpt>
      <trkpt lat="43.446067" lon="-5.856422">
        <ele>168.4</ele>
        <time>2019-11-24T17:19:14Z</time>
      </trkpt>
      <trkpt lat="43.446143" lon="-5.8564">
        <ele>168</ele>
        <time>2019-11-24T17:19:15Z</time>
      </trkpt>
      <trkpt lat="43.446217" lon="-5.856371">
        <ele>168</ele>
        <time>2019-11-24T17:19:16Z</time>
      </trkpt>
      <trkpt lat="43.446287" lon="-5.856338">
        <ele>167.8</ele>
        <time>2019-11-24T17:19:17Z</time>
      </trkpt>
      <trkpt lat="43.446358" lon="-5.856302">
        <ele>168</ele>
        <time>2019-11-24T17:19:18Z</time>
      </trkpt>
      <trkpt lat="43.446429" lon="-5.856262">
        <ele>168.6</ele>
        <time>2019-11-24T17:19:19Z</time>
      </trkpt>
      <trkpt lat="43.446495" lon="-5.85622">
        <ele>168.6</ele>
        <time>2019-11-24T17:19:20Z</time>
      </trkpt>
      <trkpt lat="43.44656" lon="-5.856175">
        <ele>169.2</ele>
        <time>2019-11-24T17:19:21Z</time>
      </trkpt>
      <trkpt lat="43.446627" lon="-5.85613">
        <ele>168.8</ele>
        <time>2019-11-24T17:19:22Z</time>
      </trkpt>
      <trkpt lat="43.446694" lon="-5.856085">
        <ele>169.2</ele>
        <time>2019-11-24T17:19:23Z</time>
      </trkpt>
      <trkpt lat="43.446759" lon="-5.856042">
        <ele>169.4</ele>
        <time>2019-11-24T17:19:24Z</time>
      </trkpt>
      <trkpt lat="43.446825" lon="-5.855997">
        <ele>169</ele>
        <time>2019-11-24T17:19:25Z</time>
      </trkpt>
      <trkpt lat="43.44689" lon="-5.855952">
        <ele>169.6</ele>
        <time>2019-11-24T17:19:26Z</time>
      </trkpt>
      <trkpt lat="43.446955" lon="-5.855907">
        <ele>170</ele>
        <time>2019-11-24T17:19:27Z</time>
      </trkpt>
      <trkpt lat="43.447021" lon="-5.855862">
        <ele>170.2</ele>
        <time>2019-11-24T17:19:28Z</time>
      </trkpt>
      <trkpt lat="43.447087" lon="-5.85582">
        <ele>170.4</ele>
        <time>2019-11-24T17:19:29Z</time>
      </trkpt>
      <trkpt lat="43.447153" lon="-5.855774">
        <ele>170.4</ele>
        <time>2019-11-24T17:19:30Z</time>
      </trkpt>
      <trkpt lat="43.447217" lon="-5.855728">
        <ele>171</ele>
        <time>2019-11-24T17:19:31Z</time>
      </trkpt>
      <trkpt lat="43.447281" lon="-5.855684">
        <ele>171.2</ele>
        <time>2019-11-24T17:19:32Z</time>
      </trkpt>
      <trkpt lat="43.447343" lon="-5.855642">
        <ele>171.4</ele>
        <time>2019-11-24T17:19:33Z</time>
      </trkpt>
      <trkpt lat="43.447404" lon="-5.855601">
        <ele>171.6</ele>
        <time>2019-11-24T17:19:34Z</time>
      </trkpt>
      <trkpt lat="43.447465" lon="-5.855561">
        <ele>171.8</ele>
        <time>2019-11-24T17:19:35Z</time>
      </trkpt>
      <trkpt lat="43.447525" lon="-5.855519">
        <ele>171.8</ele>
        <time>2019-11-24T17:19:36Z</time>
      </trkpt>
      <trkpt lat="43.447584" lon="-5.855479">
        <ele>171.6</ele>
        <time>2019-11-24T17:19:37Z</time>
      </trkpt>
      <trkpt lat="43.447643" lon="-5.85544">
        <ele>172</ele>
        <time>2019-11-24T17:19:38Z</time>
      </trkpt>
      <trkpt lat="43.447702" lon="-5.855401">
        <ele>172.6</ele>
        <time>2019-11-24T17:19:39Z</time>
      </trkpt>
      <trkpt lat="43.447761" lon="-5.855363">
        <ele>172.6</ele>
        <time>2019-11-24T17:19:40Z</time>
      </trkpt>
      <trkpt lat="43.447818" lon="-5.855326">
        <ele>173</ele>
        <time>2019-11-24T17:19:41Z</time>
      </trkpt>
      <trkpt lat="43.447877" lon="-5.85529">
        <ele>173.8</ele>
        <time>2019-11-24T17:19:42Z</time>
      </trkpt>
      <trkpt lat="43.447934" lon="-5.855253">
        <ele>173.8</ele>
        <time>2019-11-24T17:19:43Z</time>
      </trkpt>
      <trkpt lat="43.447991" lon="-5.855217">
        <ele>174</ele>
        <time>2019-11-24T17:19:44Z</time>
      </trkpt>
      <trkpt lat="43.448049" lon="-5.855181">
        <ele>174.4</ele>
        <time>2019-11-24T17:19:45Z</time>
      </trkpt>
      <trkpt lat="43.448106" lon="-5.855147">
        <ele>174.8</ele>
        <time>2019-11-24T17:19:46Z</time>
      </trkpt>
      <trkpt lat="43.448165" lon="-5.855109">
        <ele>174.6</ele>
        <time>2019-11-24T17:19:47Z</time>
      </trkpt>
      <trkpt lat="43.448222" lon="-5.855071">
        <ele>174.8</ele>
        <time>2019-11-24T17:19:48Z</time>
      </trkpt>
      <trkpt lat="43.448279" lon="-5.855034">
        <ele>175</ele>
        <time>2019-11-24T17:19:49Z</time>
      </trkpt>
      <trkpt lat="43.448337" lon="-5.854996">
        <ele>175.8</ele>
        <time>2019-11-24T17:19:50Z</time>
      </trkpt>
      <trkpt lat="43.448395" lon="-5.854958">
        <ele>175.2</ele>
        <time>2019-11-24T17:19:51Z</time>
      </trkpt>
      <trkpt lat="43.448454" lon="-5.854919">
        <ele>175.8</ele>
        <time>2019-11-24T17:19:52Z</time>
      </trkpt>
      <trkpt lat="43.448512" lon="-5.854879">
        <ele>176.2</ele>
        <time>2019-11-24T17:19:53Z</time>
      </trkpt>
      <trkpt lat="43.448571" lon="-5.85484">
        <ele>176.4</ele>
        <time>2019-11-24T17:19:54Z</time>
      </trkpt>
      <trkpt lat="43.44863" lon="-5.854802">
        <ele>176.4</ele>
        <time>2019-11-24T17:19:55Z</time>
      </trkpt>
      <trkpt lat="43.448689" lon="-5.854764">
        <ele>176.6</ele>
        <time>2019-11-24T17:19:56Z</time>
      </trkpt>
      <trkpt lat="43.448748" lon="-5.854727">
        <ele>177</ele>
        <time>2019-11-24T17:19:57Z</time>
      </trkpt>
      <trkpt lat="43.448807" lon="-5.854691">
        <ele>177.2</ele>
        <time>2019-11-24T17:19:58Z</time>
      </trkpt>
      <trkpt lat="43.448867" lon="-5.854658">
        <ele>177</ele>
        <time>2019-11-24T17:19:59Z</time>
      </trkpt>
      <trkpt lat="43.448928" lon="-5.854629">
        <ele>177.6</ele>
        <time>2019-11-24T17:20:00Z</time>
      </trkpt>
      <trkpt lat="43.44899" lon="-5.854607">
        <ele>177.6</ele>
        <time>2019-11-24T17:20:01Z</time>
      </trkpt>
      <trkpt lat="43.449054" lon="-5.85459">
        <ele>177.6</ele>
        <time>2019-11-24T17:20:02Z</time>
      </trkpt>
      <trkpt lat="43.44912" lon="-5.854577">
        <ele>177.8</ele>
        <time>2019-11-24T17:20:03Z</time>
      </trkpt>
      <trkpt lat="43.449189" lon="-5.854567">
        <ele>177.4</ele>
        <time>2019-11-24T17:20:04Z</time>
      </trkpt>
      <trkpt lat="43.449259" lon="-5.85456">
        <ele>177</ele>
        <time>2019-11-24T17:20:05Z</time>
      </trkpt>
      <trkpt lat="43.449329" lon="-5.854557">
        <ele>177.2</ele>
        <time>2019-11-24T17:20:06Z</time>
      </trkpt>
      <trkpt lat="43.449399" lon="-5.854554">
        <ele>177.6</ele>
        <time>2019-11-24T17:20:07Z</time>
      </trkpt>
      <trkpt lat="43.449469" lon="-5.854549">
        <ele>177.8</ele>
        <time>2019-11-24T17:20:08Z</time>
      </trkpt>
      <trkpt lat="43.449538" lon="-5.854545">
        <ele>178</ele>
        <time>2019-11-24T17:20:09Z</time>
      </trkpt>
      <trkpt lat="43.449606" lon="-5.854542">
        <ele>177.8</ele>
        <time>2019-11-24T17:20:10Z</time>
      </trkpt>
      <trkpt lat="43.449675" lon="-5.854538">
        <ele>177.4</ele>
        <time>2019-11-24T17:20:11Z</time>
      </trkpt>
      <trkpt lat="43.449744" lon="-5.854532">
        <ele>177.4</ele>
        <time>2019-11-24T17:20:12Z</time>
      </trkpt>
      <trkpt lat="43.449814" lon="-5.854528">
        <ele>177.4</ele>
        <time>2019-11-24T17:20:13Z</time>
      </trkpt>
      <trkpt lat="43.449883" lon="-5.854524">
        <ele>177.6</ele>
        <time>2019-11-24T17:20:14Z</time>
      </trkpt>
      <trkpt lat="43.449953" lon="-5.854519">
        <ele>177.2</ele>
        <time>2019-11-24T17:20:15Z</time>
      </trkpt>
      <trkpt lat="43.450022" lon="-5.854514">
        <ele>177.4</ele>
        <time>2019-11-24T17:20:16Z</time>
      </trkpt>
      <trkpt lat="43.450092" lon="-5.854509">
        <ele>177.2</ele>
        <time>2019-11-24T17:20:17Z</time>
      </trkpt>
      <trkpt lat="43.450163" lon="-5.854504">
        <ele>177</ele>
        <time>2019-11-24T17:20:18Z</time>
      </trkpt>
      <trkpt lat="43.450234" lon="-5.854498">
        <ele>177.4</ele>
        <time>2019-11-24T17:20:19Z</time>
      </trkpt>
      <trkpt lat="43.450305" lon="-5.854492">
        <ele>177.4</ele>
        <time>2019-11-24T17:20:20Z</time>
      </trkpt>
      <trkpt lat="43.450377" lon="-5.854487">
        <ele>176.8</ele>
        <time>2019-11-24T17:20:21Z</time>
      </trkpt>
      <trkpt lat="43.45045" lon="-5.854483">
        <ele>176.6</ele>
        <time>2019-11-24T17:20:22Z</time>
      </trkpt>
      <trkpt lat="43.450521" lon="-5.854479">
        <ele>176.4</ele>
        <time>2019-11-24T17:20:23Z</time>
      </trkpt>
      <trkpt lat="43.450593" lon="-5.854474">
        <ele>177.2</ele>
        <time>2019-11-24T17:20:24Z</time>
      </trkpt>
      <trkpt lat="43.450665" lon="-5.854468">
        <ele>177.2</ele>
        <time>2019-11-24T17:20:25Z</time>
      </trkpt>
      <trkpt lat="43.450737" lon="-5.854462">
        <ele>177.4</ele>
        <time>2019-11-24T17:20:26Z</time>
      </trkpt>
      <trkpt lat="43.450808" lon="-5.854458">
        <ele>177.2</ele>
        <time>2019-11-24T17:20:27Z</time>
      </trkpt>
      <trkpt lat="43.450878" lon="-5.854454">
        <ele>177.4</ele>
        <time>2019-11-24T17:20:28Z</time>
      </trkpt>
      <trkpt lat="43.450949" lon="-5.85445">
        <ele>177.8</ele>
        <time>2019-11-24T17:20:29Z</time>
      </trkpt>
      <trkpt lat="43.45102" lon="-5.854445">
        <ele>177.8</ele>
        <time>2019-11-24T17:20:30Z</time>
      </trkpt>
      <trkpt lat="43.451091" lon="-5.854441">
        <ele>178.2</ele>
        <time>2019-11-24T17:20:31Z</time>
      </trkpt>
      <trkpt lat="43.451162" lon="-5.854437">
        <ele>178.2</ele>
        <time>2019-11-24T17:20:32Z</time>
      </trkpt>
      <trkpt lat="43.451235" lon="-5.854431">
        <ele>177.6</ele>
        <time>2019-11-24T17:20:33Z</time>
      </trkpt>
      <trkpt lat="43.451307" lon="-5.854426">
        <ele>177.4</ele>
        <time>2019-11-24T17:20:34Z</time>
      </trkpt>
      <trkpt lat="43.451378" lon="-5.854422">
        <ele>178.4</ele>
        <time>2019-11-24T17:20:35Z</time>
      </trkpt>
      <trkpt lat="43.451451" lon="-5.854416">
        <ele>178</ele>
        <time>2019-11-24T17:20:36Z</time>
      </trkpt>
      <trkpt lat="43.451522" lon="-5.854411">
        <ele>178</ele>
        <time>2019-11-24T17:20:37Z</time>
      </trkpt>
      <trkpt lat="43.451594" lon="-5.854405">
        <ele>178.8</ele>
        <time>2019-11-24T17:20:38Z</time>
      </trkpt>
      <trkpt lat="43.451665" lon="-5.854401">
        <ele>179</ele>
        <time>2019-11-24T17:20:39Z</time>
      </trkpt>
      <trkpt lat="43.451735" lon="-5.854395">
        <ele>179.2</ele>
        <time>2019-11-24T17:20:40Z</time>
      </trkpt>
      <trkpt lat="43.451805" lon="-5.854389">
        <ele>178.6</ele>
        <time>2019-11-24T17:20:41Z</time>
      </trkpt>
      <trkpt lat="43.451874" lon="-5.854383">
        <ele>178.4</ele>
        <time>2019-11-24T17:20:42Z</time>
      </trkpt>
      <trkpt lat="43.451942" lon="-5.854378">
        <ele>179.4</ele>
        <time>2019-11-24T17:20:43Z</time>
      </trkpt>
      <trkpt lat="43.452011" lon="-5.854373">
        <ele>179.6</ele>
        <time>2019-11-24T17:20:44Z</time>
      </trkpt>
      <trkpt lat="43.452079" lon="-5.854368">
        <ele>179.8</ele>
        <time>2019-11-24T17:20:45Z</time>
      </trkpt>
      <trkpt lat="43.452148" lon="-5.854365">
        <ele>179.6</ele>
        <time>2019-11-24T17:20:46Z</time>
      </trkpt>
      <trkpt lat="43.452216" lon="-5.854365">
        <ele>180</ele>
        <time>2019-11-24T17:20:47Z</time>
      </trkpt>
      <trkpt lat="43.452284" lon="-5.854363">
        <ele>181</ele>
        <time>2019-11-24T17:20:48Z</time>
      </trkpt>
      <trkpt lat="43.452351" lon="-5.85436">
        <ele>181</ele>
        <time>2019-11-24T17:20:49Z</time>
      </trkpt>
      <trkpt lat="43.45242" lon="-5.854355">
        <ele>180.6</ele>
        <time>2019-11-24T17:20:50Z</time>
      </trkpt>
      <trkpt lat="43.452488" lon="-5.85435">
        <ele>181.4</ele>
        <time>2019-11-24T17:20:51Z</time>
      </trkpt>
      <trkpt lat="43.452558" lon="-5.854345">
        <ele>181.8</ele>
        <time>2019-11-24T17:20:52Z</time>
      </trkpt>
      <trkpt lat="43.452628" lon="-5.854341">
        <ele>181.4</ele>
        <time>2019-11-24T17:20:53Z</time>
      </trkpt>
      <trkpt lat="43.452697" lon="-5.854336">
        <ele>181.6</ele>
        <time>2019-11-24T17:20:54Z</time>
      </trkpt>
      <trkpt lat="43.452768" lon="-5.854331">
        <ele>181.8</ele>
        <time>2019-11-24T17:20:55Z</time>
      </trkpt>
      <trkpt lat="43.452837" lon="-5.854327">
        <ele>182</ele>
        <time>2019-11-24T17:20:56Z</time>
      </trkpt>
      <trkpt lat="43.452907" lon="-5.854323">
        <ele>181.6</ele>
        <time>2019-11-24T17:20:57Z</time>
      </trkpt>
      <trkpt lat="43.452976" lon="-5.854317">
        <ele>182.2</ele>
        <time>2019-11-24T17:20:58Z</time>
      </trkpt>
      <trkpt lat="43.453046" lon="-5.854313">
        <ele>182.4</ele>
        <time>2019-11-24T17:20:59Z</time>
      </trkpt>
      <trkpt lat="43.453114" lon="-5.85431">
        <ele>182.6</ele>
        <time>2019-11-24T17:21:00Z</time>
      </trkpt>
      <trkpt lat="43.453183" lon="-5.854308">
        <ele>182.8</ele>
        <time>2019-11-24T17:21:01Z</time>
      </trkpt>
      <trkpt lat="43.453252" lon="-5.854305">
        <ele>182.8</ele>
        <time>2019-11-24T17:21:02Z</time>
      </trkpt>
      <trkpt lat="43.45332" lon="-5.854301">
        <ele>182.8</ele>
        <time>2019-11-24T17:21:03Z</time>
      </trkpt>
      <trkpt lat="43.453389" lon="-5.854297">
        <ele>183.2</ele>
        <time>2019-11-24T17:21:04Z</time>
      </trkpt>
      <trkpt lat="43.453456" lon="-5.854293">
        <ele>183.6</ele>
        <time>2019-11-24T17:21:05Z</time>
      </trkpt>
      <trkpt lat="43.453524" lon="-5.854291">
        <ele>183.8</ele>
        <time>2019-11-24T17:21:06Z</time>
      </trkpt>
      <trkpt lat="43.453592" lon="-5.854288">
        <ele>184.6</ele>
        <time>2019-11-24T17:21:07Z</time>
      </trkpt>
      <trkpt lat="43.453659" lon="-5.854285">
        <ele>184.4</ele>
        <time>2019-11-24T17:21:08Z</time>
      </trkpt>
      <trkpt lat="43.453726" lon="-5.854284">
        <ele>184.8</ele>
        <time>2019-11-24T17:21:09Z</time>
      </trkpt>
      <trkpt lat="43.453793" lon="-5.854284">
        <ele>184.6</ele>
        <time>2019-11-24T17:21:10Z</time>
      </trkpt>
      <trkpt lat="43.453859" lon="-5.854284">
        <ele>185.2</ele>
        <time>2019-11-24T17:21:11Z</time>
      </trkpt>
      <trkpt lat="43.453925" lon="-5.854285">
        <ele>185.8</ele>
        <time>2019-11-24T17:21:12Z</time>
      </trkpt>
      <trkpt lat="43.453991" lon="-5.854284">
        <ele>186</ele>
        <time>2019-11-24T17:21:13Z</time>
      </trkpt>
      <trkpt lat="43.454056" lon="-5.854286">
        <ele>186.2</ele>
        <time>2019-11-24T17:21:14Z</time>
      </trkpt>
      <trkpt lat="43.454121" lon="-5.854288">
        <ele>186.4</ele>
        <time>2019-11-24T17:21:15Z</time>
      </trkpt>
      <trkpt lat="43.454186" lon="-5.854291">
        <ele>186.8</ele>
        <time>2019-11-24T17:21:16Z</time>
      </trkpt>
      <trkpt lat="43.454251" lon="-5.854296">
        <ele>187</ele>
        <time>2019-11-24T17:21:17Z</time>
      </trkpt>
      <trkpt lat="43.454315" lon="-5.854304">
        <ele>187.2</ele>
        <time>2019-11-24T17:21:18Z</time>
      </trkpt>
      <trkpt lat="43.454377" lon="-5.854315">
        <ele>187.4</ele>
        <time>2019-11-24T17:21:19Z</time>
      </trkpt>
      <trkpt lat="43.454438" lon="-5.854326">
        <ele>188</ele>
        <time>2019-11-24T17:21:20Z</time>
      </trkpt>
      <trkpt lat="43.454498" lon="-5.85434">
        <ele>188.4</ele>
        <time>2019-11-24T17:21:21Z</time>
      </trkpt>
      <trkpt lat="43.454558" lon="-5.854356">
        <ele>188.2</ele>
        <time>2019-11-24T17:21:22Z</time>
      </trkpt>
      <trkpt lat="43.454615" lon="-5.854373">
        <ele>188.6</ele>
        <time>2019-11-24T17:21:23Z</time>
      </trkpt>
      <trkpt lat="43.454672" lon="-5.854391">
        <ele>189</ele>
        <time>2019-11-24T17:21:24Z</time>
      </trkpt>
      <trkpt lat="43.454729" lon="-5.854406">
        <ele>189</ele>
        <time>2019-11-24T17:21:25Z</time>
      </trkpt>
      <trkpt lat="43.454788" lon="-5.85442">
        <ele>189</ele>
        <time>2019-11-24T17:21:26Z</time>
      </trkpt>
      <trkpt lat="43.454846" lon="-5.854436">
        <ele>189.2</ele>
        <time>2019-11-24T17:21:27Z</time>
      </trkpt>
      <trkpt lat="43.454907" lon="-5.854447">
        <ele>189.8</ele>
        <time>2019-11-24T17:21:28Z</time>
      </trkpt>
      <trkpt lat="43.454966" lon="-5.854454">
        <ele>190</ele>
        <time>2019-11-24T17:21:29Z</time>
      </trkpt>
      <trkpt lat="43.455027" lon="-5.854455">
        <ele>190</ele>
        <time>2019-11-24T17:21:30Z</time>
      </trkpt>
      <trkpt lat="43.455087" lon="-5.854452">
        <ele>190.8</ele>
        <time>2019-11-24T17:21:31Z</time>
      </trkpt>
      <trkpt lat="43.455146" lon="-5.854445">
        <ele>191</ele>
        <time>2019-11-24T17:21:32Z</time>
      </trkpt>
      <trkpt lat="43.455204" lon="-5.85443">
        <ele>191.4</ele>
        <time>2019-11-24T17:21:33Z</time>
      </trkpt>
      <trkpt lat="43.455262" lon="-5.854411">
        <ele>191.4</ele>
        <time>2019-11-24T17:21:34Z</time>
      </trkpt>
      <trkpt lat="43.455318" lon="-5.854388">
        <ele>191.2</ele>
        <time>2019-11-24T17:21:35Z</time>
      </trkpt>
      <trkpt lat="43.455375" lon="-5.854358">
        <ele>191.8</ele>
        <time>2019-11-24T17:21:36Z</time>
      </trkpt>
      <trkpt lat="43.455429" lon="-5.854322">
        <ele>192</ele>
        <time>2019-11-24T17:21:37Z</time>
      </trkpt>
      <trkpt lat="43.455482" lon="-5.854285">
        <ele>192</ele>
        <time>2019-11-24T17:21:38Z</time>
      </trkpt>
      <trkpt lat="43.455538" lon="-5.854244">
        <ele>192.4</ele>
        <time>2019-11-24T17:21:39Z</time>
      </trkpt>
      <trkpt lat="43.455593" lon="-5.8542">
        <ele>192.8</ele>
        <time>2019-11-24T17:21:40Z</time>
      </trkpt>
      <trkpt lat="43.455645" lon="-5.854155">
        <ele>193.2</ele>
        <time>2019-11-24T17:21:41Z</time>
      </trkpt>
      <trkpt lat="43.455695" lon="-5.854114">
        <ele>193.6</ele>
        <time>2019-11-24T17:21:42Z</time>
      </trkpt>
      <trkpt lat="43.455744" lon="-5.854074">
        <ele>193.8</ele>
        <time>2019-11-24T17:21:43Z</time>
      </trkpt>
      <trkpt lat="43.455794" lon="-5.854032">
        <ele>194.2</ele>
        <time>2019-11-24T17:21:44Z</time>
      </trkpt>
      <trkpt lat="43.455845" lon="-5.85399">
        <ele>194.8</ele>
        <time>2019-11-24T17:21:45Z</time>
      </trkpt>
      <trkpt lat="43.455896" lon="-5.853948">
        <ele>195</ele>
        <time>2019-11-24T17:21:46Z</time>
      </trkpt>
      <trkpt lat="43.455947" lon="-5.853908">
        <ele>195.4</ele>
        <time>2019-11-24T17:21:47Z</time>
      </trkpt>
      <trkpt lat="43.456" lon="-5.853869">
        <ele>195.4</ele>
        <time>2019-11-24T17:21:48Z</time>
      </trkpt>
      <trkpt lat="43.456055" lon="-5.853832">
        <ele>196</ele>
        <time>2019-11-24T17:21:49Z</time>
      </trkpt>
      <trkpt lat="43.456112" lon="-5.853788">
        <ele>196.2</ele>
        <time>2019-11-24T17:21:50Z</time>
      </trkpt>
      <trkpt lat="43.45617" lon="-5.853742">
        <ele>196.6</ele>
        <time>2019-11-24T17:21:51Z</time>
      </trkpt>
      <trkpt lat="43.456228" lon="-5.853697">
        <ele>196.8</ele>
        <time>2019-11-24T17:21:52Z</time>
      </trkpt>
      <trkpt lat="43.456285" lon="-5.853655">
        <ele>197.2</ele>
        <time>2019-11-24T17:21:53Z</time>
      </trkpt>
      <trkpt lat="43.456342" lon="-5.853615">
        <ele>197.8</ele>
        <time>2019-11-24T17:21:54Z</time>
      </trkpt>
      <trkpt lat="43.456397" lon="-5.853579">
        <ele>198</ele>
        <time>2019-11-24T17:21:55Z</time>
      </trkpt>
      <trkpt lat="43.456448" lon="-5.853546">
        <ele>198.4</ele>
        <time>2019-11-24T17:21:56Z</time>
      </trkpt>
      <trkpt lat="43.456502" lon="-5.85351">
        <ele>198.6</ele>
        <time>2019-11-24T17:21:57Z</time>
      </trkpt>
      <trkpt lat="43.456558" lon="-5.853476">
        <ele>199.2</ele>
        <time>2019-11-24T17:21:58Z</time>
      </trkpt>
      <trkpt lat="43.456616" lon="-5.85344">
        <ele>199</ele>
        <time>2019-11-24T17:21:59Z</time>
      </trkpt>
      <trkpt lat="43.456675" lon="-5.853405">
        <ele>199.4</ele>
        <time>2019-11-24T17:22:00Z</time>
      </trkpt>
      <trkpt lat="43.456733" lon="-5.853367">
        <ele>200</ele>
        <time>2019-11-24T17:22:01Z</time>
      </trkpt>
      <trkpt lat="43.456791" lon="-5.853329">
        <ele>200.4</ele>
        <time>2019-11-24T17:22:02Z</time>
      </trkpt>
      <trkpt lat="43.456849" lon="-5.853291">
        <ele>200.4</ele>
        <time>2019-11-24T17:22:03Z</time>
      </trkpt>
      <trkpt lat="43.456907" lon="-5.853252">
        <ele>200.4</ele>
        <time>2019-11-24T17:22:04Z</time>
      </trkpt>
      <trkpt lat="43.456962" lon="-5.853214">
        <ele>201</ele>
        <time>2019-11-24T17:22:05Z</time>
      </trkpt>
      <trkpt lat="43.457016" lon="-5.853174">
        <ele>201</ele>
        <time>2019-11-24T17:22:06Z</time>
      </trkpt>
      <trkpt lat="43.457072" lon="-5.853132">
        <ele>201.6</ele>
        <time>2019-11-24T17:22:07Z</time>
      </trkpt>
      <trkpt lat="43.457127" lon="-5.85309">
        <ele>202.2</ele>
        <time>2019-11-24T17:22:08Z</time>
      </trkpt>
      <trkpt lat="43.457181" lon="-5.853048">
        <ele>202.6</ele>
        <time>2019-11-24T17:22:09Z</time>
      </trkpt>
      <trkpt lat="43.457232" lon="-5.853002">
        <ele>202.2</ele>
        <time>2019-11-24T17:22:10Z</time>
      </trkpt>
      <trkpt lat="43.457283" lon="-5.852956">
        <ele>203.6</ele>
        <time>2019-11-24T17:22:11Z</time>
      </trkpt>
      <trkpt lat="43.457334" lon="-5.852911">
        <ele>203.2</ele>
        <time>2019-11-24T17:22:12Z</time>
      </trkpt>
      <trkpt lat="43.457381" lon="-5.852866">
        <ele>202.2</ele>
        <time>2019-11-24T17:22:13Z</time>
      </trkpt>
      <trkpt lat="43.457427" lon="-5.85282">
        <ele>203.4</ele>
        <time>2019-11-24T17:22:14Z</time>
      </trkpt>
      <trkpt lat="43.457472" lon="-5.852768">
        <ele>203.8</ele>
        <time>2019-11-24T17:22:15Z</time>
      </trkpt>
      <trkpt lat="43.457517" lon="-5.852711">
        <ele>204.4</ele>
        <time>2019-11-24T17:22:16Z</time>
      </trkpt>
      <trkpt lat="43.457559" lon="-5.852648">
        <ele>204.8</ele>
        <time>2019-11-24T17:22:17Z</time>
      </trkpt>
      <trkpt lat="43.457598" lon="-5.852583">
        <ele>205</ele>
        <time>2019-11-24T17:22:18Z</time>
      </trkpt>
      <trkpt lat="43.457638" lon="-5.852502">
        <ele>205.2</ele>
        <time>2019-11-24T17:22:19Z</time>
      </trkpt>
      <trkpt lat="43.457672" lon="-5.852422">
        <ele>205.2</ele>
        <time>2019-11-24T17:22:20Z</time>
      </trkpt>
      <trkpt lat="43.457701" lon="-5.85234">
        <ele>205.8</ele>
        <time>2019-11-24T17:22:21Z</time>
      </trkpt>
      <trkpt lat="43.45773" lon="-5.852255">
        <ele>205.8</ele>
        <time>2019-11-24T17:22:22Z</time>
      </trkpt>
      <trkpt lat="43.457758" lon="-5.852169">
        <ele>205.2</ele>
        <time>2019-11-24T17:22:23Z</time>
      </trkpt>
      <trkpt lat="43.457786" lon="-5.852082">
        <ele>206</ele>
        <time>2019-11-24T17:22:24Z</time>
      </trkpt>
      <trkpt lat="43.457815" lon="-5.851995">
        <ele>205.8</ele>
        <time>2019-11-24T17:22:25Z</time>
      </trkpt>
      <trkpt lat="43.457847" lon="-5.85191">
        <ele>206.6</ele>
        <time>2019-11-24T17:22:26Z</time>
      </trkpt>
      <trkpt lat="43.457881" lon="-5.851826">
        <ele>206.6</ele>
        <time>2019-11-24T17:22:27Z</time>
      </trkpt>
      <trkpt lat="43.457914" lon="-5.851744">
        <ele>207.8</ele>
        <time>2019-11-24T17:22:28Z</time>
      </trkpt>
      <trkpt lat="43.457945" lon="-5.85166">
        <ele>208.2</ele>
        <time>2019-11-24T17:22:29Z</time>
      </trkpt>
      <trkpt lat="43.457974" lon="-5.851573">
        <ele>208.6</ele>
        <time>2019-11-24T17:22:30Z</time>
      </trkpt>
      <trkpt lat="43.458002" lon="-5.851486">
        <ele>207.8</ele>
        <time>2019-11-24T17:22:31Z</time>
      </trkpt>
      <trkpt lat="43.458025" lon="-5.851398">
        <ele>208.6</ele>
        <time>2019-11-24T17:22:32Z</time>
      </trkpt>
      <trkpt lat="43.458043" lon="-5.851308">
        <ele>208.4</ele>
        <time>2019-11-24T17:22:33Z</time>
      </trkpt>
      <trkpt lat="43.45806" lon="-5.85122">
        <ele>208</ele>
        <time>2019-11-24T17:22:34Z</time>
      </trkpt>
      <trkpt lat="43.458078" lon="-5.851127">
        <ele>208.4</ele>
        <time>2019-11-24T17:22:35Z</time>
      </trkpt>
      <trkpt lat="43.458093" lon="-5.851036">
        <ele>209.2</ele>
        <time>2019-11-24T17:22:36Z</time>
      </trkpt>
      <trkpt lat="43.458113" lon="-5.850948">
        <ele>209.8</ele>
        <time>2019-11-24T17:22:37Z</time>
      </trkpt>
      <trkpt lat="43.458138" lon="-5.850862">
        <ele>209.6</ele>
        <time>2019-11-24T17:22:38Z</time>
      </trkpt>
      <trkpt lat="43.458171" lon="-5.850779">
        <ele>209.4</ele>
        <time>2019-11-24T17:22:39Z</time>
      </trkpt>
      <trkpt lat="43.458207" lon="-5.850702">
        <ele>209.2</ele>
        <time>2019-11-24T17:22:40Z</time>
      </trkpt>
      <trkpt lat="43.45825" lon="-5.850636">
        <ele>210.2</ele>
        <time>2019-11-24T17:22:41Z</time>
      </trkpt>
      <trkpt lat="43.458301" lon="-5.850578">
        <ele>210</ele>
        <time>2019-11-24T17:22:42Z</time>
      </trkpt>
      <trkpt lat="43.458362" lon="-5.850532">
        <ele>210.2</ele>
        <time>2019-11-24T17:22:43Z</time>
      </trkpt>
      <trkpt lat="43.458428" lon="-5.850496">
        <ele>210.2</ele>
        <time>2019-11-24T17:22:44Z</time>
      </trkpt>
      <trkpt lat="43.458498" lon="-5.850473">
        <ele>210.4</ele>
        <time>2019-11-24T17:22:45Z</time>
      </trkpt>
      <trkpt lat="43.458572" lon="-5.850464">
        <ele>210.2</ele>
        <time>2019-11-24T17:22:46Z</time>
      </trkpt>
      <trkpt lat="43.458642" lon="-5.85047">
        <ele>211.2</ele>
        <time>2019-11-24T17:22:47Z</time>
      </trkpt>
      <trkpt lat="43.458711" lon="-5.85049">
        <ele>211.2</ele>
        <time>2019-11-24T17:22:48Z</time>
      </trkpt>
      <trkpt lat="43.458777" lon="-5.850524">
        <ele>211.4</ele>
        <time>2019-11-24T17:22:49Z</time>
      </trkpt>
      <trkpt lat="43.45884" lon="-5.850571">
        <ele>211.8</ele>
        <time>2019-11-24T17:22:50Z</time>
      </trkpt>
      <trkpt lat="43.458898" lon="-5.850627">
        <ele>211.4</ele>
        <time>2019-11-24T17:22:51Z</time>
      </trkpt>
      <trkpt lat="43.45895" lon="-5.850694">
        <ele>212</ele>
        <time>2019-11-24T17:22:52Z</time>
      </trkpt>
      <trkpt lat="43.458995" lon="-5.850767">
        <ele>211.6</ele>
        <time>2019-11-24T17:22:53Z</time>
      </trkpt>
      <trkpt lat="43.459036" lon="-5.850845">
        <ele>211.4</ele>
        <time>2019-11-24T17:22:54Z</time>
      </trkpt>
      <trkpt lat="43.459075" lon="-5.850924">
        <ele>212.8</ele>
        <time>2019-11-24T17:22:55Z</time>
      </trkpt>
      <trkpt lat="43.459114" lon="-5.851003">
        <ele>212.8</ele>
        <time>2019-11-24T17:22:56Z</time>
      </trkpt>
      <trkpt lat="43.459154" lon="-5.85108">
        <ele>213.4</ele>
        <time>2019-11-24T17:22:57Z</time>
      </trkpt>
      <trkpt lat="43.459197" lon="-5.851152">
        <ele>212.6</ele>
        <time>2019-11-24T17:22:58Z</time>
      </trkpt>
      <trkpt lat="43.459244" lon="-5.851218">
        <ele>213</ele>
        <time>2019-11-24T17:22:59Z</time>
      </trkpt>
      <trkpt lat="43.459296" lon="-5.851275">
        <ele>213.4</ele>
        <time>2019-11-24T17:23:00Z</time>
      </trkpt>
      <trkpt lat="43.459348" lon="-5.851323">
        <ele>213.2</ele>
        <time>2019-11-24T17:23:01Z</time>
      </trkpt>
      <trkpt lat="43.4594" lon="-5.851361">
        <ele>213.4</ele>
        <time>2019-11-24T17:23:02Z</time>
      </trkpt>
      <trkpt lat="43.459454" lon="-5.851391">
        <ele>214</ele>
        <time>2019-11-24T17:23:03Z</time>
      </trkpt>
      <trkpt lat="43.45951" lon="-5.851415">
        <ele>215.2</ele>
        <time>2019-11-24T17:23:04Z</time>
      </trkpt>
      <trkpt lat="43.459569" lon="-5.851433">
        <ele>215.2</ele>
        <time>2019-11-24T17:23:05Z</time>
      </trkpt>
      <trkpt lat="43.459629" lon="-5.85144">
        <ele>215.2</ele>
        <time>2019-11-24T17:23:06Z</time>
      </trkpt>
      <trkpt lat="43.459688" lon="-5.851438">
        <ele>216.2</ele>
        <time>2019-11-24T17:23:07Z</time>
      </trkpt>
      <trkpt lat="43.459749" lon="-5.851431">
        <ele>217</ele>
        <time>2019-11-24T17:23:08Z</time>
      </trkpt>
      <trkpt lat="43.459811" lon="-5.851419">
        <ele>217</ele>
        <time>2019-11-24T17:23:09Z</time>
      </trkpt>
      <trkpt lat="43.459873" lon="-5.851399">
        <ele>217.4</ele>
        <time>2019-11-24T17:23:10Z</time>
      </trkpt>
      <trkpt lat="43.459934" lon="-5.851373">
        <ele>217.8</ele>
        <time>2019-11-24T17:23:11Z</time>
      </trkpt>
      <trkpt lat="43.459997" lon="-5.851341">
        <ele>217.8</ele>
        <time>2019-11-24T17:23:12Z</time>
      </trkpt>
      <trkpt lat="43.460059" lon="-5.851309">
        <ele>218.4</ele>
        <time>2019-11-24T17:23:13Z</time>
      </trkpt>
      <trkpt lat="43.460118" lon="-5.851274">
        <ele>219</ele>
        <time>2019-11-24T17:23:14Z</time>
      </trkpt>
      <trkpt lat="43.460179" lon="-5.851236">
        <ele>219.6</ele>
        <time>2019-11-24T17:23:15Z</time>
      </trkpt>
      <trkpt lat="43.460242" lon="-5.851197">
        <ele>219.4</ele>
        <time>2019-11-24T17:23:16Z</time>
      </trkpt>
      <trkpt lat="43.460304" lon="-5.851157">
        <ele>220.6</ele>
        <time>2019-11-24T17:23:17Z</time>
      </trkpt>
      <trkpt lat="43.460364" lon="-5.851117">
        <ele>220.6</ele>
        <time>2019-11-24T17:23:18Z</time>
      </trkpt>
      <trkpt lat="43.460424" lon="-5.851076">
        <ele>220.6</ele>
        <time>2019-11-24T17:23:19Z</time>
      </trkpt>
      <trkpt lat="43.460483" lon="-5.851034">
        <ele>221</ele>
        <time>2019-11-24T17:23:20Z</time>
      </trkpt>
      <trkpt lat="43.460543" lon="-5.85099">
        <ele>221.2</ele>
        <time>2019-11-24T17:23:21Z</time>
      </trkpt>
      <trkpt lat="43.460603" lon="-5.850943">
        <ele>221.4</ele>
        <time>2019-11-24T17:23:22Z</time>
      </trkpt>
      <trkpt lat="43.460665" lon="-5.850895">
        <ele>221.8</ele>
        <time>2019-11-24T17:23:23Z</time>
      </trkpt>
      <trkpt lat="43.460727" lon="-5.850848">
        <ele>222.4</ele>
        <time>2019-11-24T17:23:24Z</time>
      </trkpt>
      <trkpt lat="43.460788" lon="-5.8508">
        <ele>222.4</ele>
        <time>2019-11-24T17:23:25Z</time>
      </trkpt>
      <trkpt lat="43.46085" lon="-5.850747">
        <ele>222.8</ele>
        <time>2019-11-24T17:23:26Z</time>
      </trkpt>
      <trkpt lat="43.460913" lon="-5.850692">
        <ele>223.2</ele>
        <time>2019-11-24T17:23:27Z</time>
      </trkpt>
      <trkpt lat="43.460972" lon="-5.850636">
        <ele>223.6</ele>
        <time>2019-11-24T17:23:28Z</time>
      </trkpt>
      <trkpt lat="43.461032" lon="-5.850582">
        <ele>224.2</ele>
        <time>2019-11-24T17:23:29Z</time>
      </trkpt>
      <trkpt lat="43.461089" lon="-5.850531">
        <ele>224.6</ele>
        <time>2019-11-24T17:23:30Z</time>
      </trkpt>
      <trkpt lat="43.461146" lon="-5.850482">
        <ele>225</ele>
        <time>2019-11-24T17:23:31Z</time>
      </trkpt>
      <trkpt lat="43.461207" lon="-5.850433">
        <ele>225.4</ele>
        <time>2019-11-24T17:23:32Z</time>
      </trkpt>
      <trkpt lat="43.461268" lon="-5.85039">
        <ele>225.8</ele>
        <time>2019-11-24T17:23:33Z</time>
      </trkpt>
      <trkpt lat="43.461331" lon="-5.850352">
        <ele>226</ele>
        <time>2019-11-24T17:23:34Z</time>
      </trkpt>
      <trkpt lat="43.461399" lon="-5.850324">
        <ele>226.4</ele>
        <time>2019-11-24T17:23:35Z</time>
      </trkpt>
      <trkpt lat="43.461468" lon="-5.850306">
        <ele>226.4</ele>
        <time>2019-11-24T17:23:36Z</time>
      </trkpt>
      <trkpt lat="43.461537" lon="-5.850291">
        <ele>226.6</ele>
        <time>2019-11-24T17:23:37Z</time>
      </trkpt>
      <trkpt lat="43.461606" lon="-5.850282">
        <ele>226.8</ele>
        <time>2019-11-24T17:23:38Z</time>
      </trkpt>
      <trkpt lat="43.461676" lon="-5.850279">
        <ele>227</ele>
        <time>2019-11-24T17:23:39Z</time>
      </trkpt>
      <trkpt lat="43.461748" lon="-5.850275">
        <ele>227</ele>
        <time>2019-11-24T17:23:40Z</time>
      </trkpt>
      <trkpt lat="43.46182" lon="-5.850273">
        <ele>227.2</ele>
        <time>2019-11-24T17:23:41Z</time>
      </trkpt>
      <trkpt lat="43.461895" lon="-5.850272">
        <ele>227.6</ele>
        <time>2019-11-24T17:23:42Z</time>
      </trkpt>
      <trkpt lat="43.461968" lon="-5.850268">
        <ele>227.6</ele>
        <time>2019-11-24T17:23:43Z</time>
      </trkpt>
      <trkpt lat="43.46204" lon="-5.850266">
        <ele>228.2</ele>
        <time>2019-11-24T17:23:44Z</time>
      </trkpt>
      <trkpt lat="43.462112" lon="-5.850273">
        <ele>228.6</ele>
        <time>2019-11-24T17:23:45Z</time>
      </trkpt>
      <trkpt lat="43.462184" lon="-5.85029">
        <ele>228.6</ele>
        <time>2019-11-24T17:23:46Z</time>
      </trkpt>
      <trkpt lat="43.462256" lon="-5.850314">
        <ele>228.6</ele>
        <time>2019-11-24T17:23:47Z</time>
      </trkpt>
      <trkpt lat="43.462324" lon="-5.850349">
        <ele>229</ele>
        <time>2019-11-24T17:23:48Z</time>
      </trkpt>
      <trkpt lat="43.46239" lon="-5.850391">
        <ele>229.2</ele>
        <time>2019-11-24T17:23:49Z</time>
      </trkpt>
      <trkpt lat="43.462456" lon="-5.850435">
        <ele>229</ele>
        <time>2019-11-24T17:23:50Z</time>
      </trkpt>
      <trkpt lat="43.462521" lon="-5.850477">
        <ele>229.4</ele>
        <time>2019-11-24T17:23:51Z</time>
      </trkpt>
      <trkpt lat="43.462587" lon="-5.850521">
        <ele>229.6</ele>
        <time>2019-11-24T17:23:52Z</time>
      </trkpt>
      <trkpt lat="43.462653" lon="-5.850555">
        <ele>229.8</ele>
        <time>2019-11-24T17:23:53Z</time>
      </trkpt>
      <trkpt lat="43.462722" lon="-5.850582">
        <ele>230</ele>
        <time>2019-11-24T17:23:54Z</time>
      </trkpt>
      <trkpt lat="43.462791" lon="-5.850599">
        <ele>230.6</ele>
        <time>2019-11-24T17:23:55Z</time>
      </trkpt>
      <trkpt lat="43.462861" lon="-5.850596">
        <ele>230.6</ele>
        <time>2019-11-24T17:23:56Z</time>
      </trkpt>
      <trkpt lat="43.462931" lon="-5.850584">
        <ele>231.4</ele>
        <time>2019-11-24T17:23:57Z</time>
      </trkpt>
      <trkpt lat="43.463001" lon="-5.85056">
        <ele>232.6</ele>
        <time>2019-11-24T17:23:58Z</time>
      </trkpt>
      <trkpt lat="43.463072" lon="-5.850531">
        <ele>231.6</ele>
        <time>2019-11-24T17:23:59Z</time>
      </trkpt>
      <trkpt lat="43.463141" lon="-5.8505">
        <ele>232.2</ele>
        <time>2019-11-24T17:24:00Z</time>
      </trkpt>
      <trkpt lat="43.46321" lon="-5.850468">
        <ele>232.6</ele>
        <time>2019-11-24T17:24:01Z</time>
      </trkpt>
      <trkpt lat="43.463282" lon="-5.850438">
        <ele>233</ele>
        <time>2019-11-24T17:24:02Z</time>
      </trkpt>
      <trkpt lat="43.463353" lon="-5.85041">
        <ele>233</ele>
        <time>2019-11-24T17:24:03Z</time>
      </trkpt>
      <trkpt lat="43.463423" lon="-5.850384">
        <ele>233.2</ele>
        <time>2019-11-24T17:24:04Z</time>
      </trkpt>
      <trkpt lat="43.463492" lon="-5.850361">
        <ele>233.6</ele>
        <time>2019-11-24T17:24:05Z</time>
      </trkpt>
      <trkpt lat="43.463561" lon="-5.850341">
        <ele>234.2</ele>
        <time>2019-11-24T17:24:06Z</time>
      </trkpt>
      <trkpt lat="43.46363" lon="-5.850323">
        <ele>234.6</ele>
        <time>2019-11-24T17:24:07Z</time>
      </trkpt>
      <trkpt lat="43.4637" lon="-5.850308">
        <ele>235</ele>
        <time>2019-11-24T17:24:08Z</time>
      </trkpt>
      <trkpt lat="43.463771" lon="-5.850294">
        <ele>235.6</ele>
        <time>2019-11-24T17:24:09Z</time>
      </trkpt>
      <trkpt lat="43.463842" lon="-5.850285">
        <ele>235.6</ele>
        <time>2019-11-24T17:24:10Z</time>
      </trkpt>
      <trkpt lat="43.463911" lon="-5.850279">
        <ele>236.2</ele>
        <time>2019-11-24T17:24:11Z</time>
      </trkpt>
      <trkpt lat="43.46398" lon="-5.850273">
        <ele>236</ele>
        <time>2019-11-24T17:24:12Z</time>
      </trkpt>
      <trkpt lat="43.464048" lon="-5.850272">
        <ele>235.8</ele>
        <time>2019-11-24T17:24:13Z</time>
      </trkpt>
      <trkpt lat="43.464113" lon="-5.850275">
        <ele>236.4</ele>
        <time>2019-11-24T17:24:14Z</time>
      </trkpt>
      <trkpt lat="43.464178" lon="-5.850286">
        <ele>236.4</ele>
        <time>2019-11-24T17:24:15Z</time>
      </trkpt>
      <trkpt lat="43.464243" lon="-5.850299">
        <ele>237</ele>
        <time>2019-11-24T17:24:16Z</time>
      </trkpt>
      <trkpt lat="43.46431" lon="-5.850315">
        <ele>237</ele>
        <time>2019-11-24T17:24:17Z</time>
      </trkpt>
      <trkpt lat="43.464375" lon="-5.850334">
        <ele>237</ele>
        <time>2019-11-24T17:24:18Z</time>
      </trkpt>
      <trkpt lat="43.46444" lon="-5.850356">
        <ele>237.4</ele>
        <time>2019-11-24T17:24:19Z</time>
      </trkpt>
      <trkpt lat="43.464504" lon="-5.850376">
        <ele>237.6</ele>
        <time>2019-11-24T17:24:20Z</time>
      </trkpt>
      <trkpt lat="43.464569" lon="-5.850388">
        <ele>237.4</ele>
        <time>2019-11-24T17:24:21Z</time>
      </trkpt>
      <trkpt lat="43.464635" lon="-5.850394">
        <ele>237.4</ele>
        <time>2019-11-24T17:24:22Z</time>
      </trkpt>
      <trkpt lat="43.464702" lon="-5.850393">
        <ele>237</ele>
        <time>2019-11-24T17:24:23Z</time>
      </trkpt>
      <trkpt lat="43.464768" lon="-5.850383">
        <ele>237</ele>
        <time>2019-11-24T17:24:24Z</time>
      </trkpt>
      <trkpt lat="43.464835" lon="-5.85036">
        <ele>237</ele>
        <time>2019-11-24T17:24:25Z</time>
      </trkpt>
      <trkpt lat="43.464897" lon="-5.850321">
        <ele>236.6</ele>
        <time>2019-11-24T17:24:26Z</time>
      </trkpt>
      <trkpt lat="43.464951" lon="-5.850265">
        <ele>235.8</ele>
        <time>2019-11-24T17:24:27Z</time>
      </trkpt>
      <trkpt lat="43.464997" lon="-5.850195">
        <ele>235.8</ele>
        <time>2019-11-24T17:24:28Z</time>
      </trkpt>
      <trkpt lat="43.465035" lon="-5.850115">
        <ele>235.2</ele>
        <time>2019-11-24T17:24:29Z</time>
      </trkpt>
      <trkpt lat="43.465065" lon="-5.850029">
        <ele>234.6</ele>
        <time>2019-11-24T17:24:30Z</time>
      </trkpt>
      <trkpt lat="43.465092" lon="-5.849939">
        <ele>235.4</ele>
        <time>2019-11-24T17:24:31Z</time>
      </trkpt>
      <trkpt lat="43.465117" lon="-5.849848">
        <ele>235.2</ele>
        <time>2019-11-24T17:24:32Z</time>
      </trkpt>
      <trkpt lat="43.465141" lon="-5.849756">
        <ele>235.4</ele>
        <time>2019-11-24T17:24:33Z</time>
      </trkpt>
      <trkpt lat="43.465162" lon="-5.849664">
        <ele>234.6</ele>
        <time>2019-11-24T17:24:34Z</time>
      </trkpt>
      <trkpt lat="43.465185" lon="-5.849573">
        <ele>234.4</ele>
        <time>2019-11-24T17:24:35Z</time>
      </trkpt>
      <trkpt lat="43.465208" lon="-5.849482">
        <ele>234.4</ele>
        <time>2019-11-24T17:24:36Z</time>
      </trkpt>
      <trkpt lat="43.465231" lon="-5.849393">
        <ele>234.8</ele>
        <time>2019-11-24T17:24:37Z</time>
      </trkpt>
      <trkpt lat="43.465253" lon="-5.849304">
        <ele>235.2</ele>
        <time>2019-11-24T17:24:38Z</time>
      </trkpt>
      <trkpt lat="43.465276" lon="-5.849216">
        <ele>235</ele>
        <time>2019-11-24T17:24:39Z</time>
      </trkpt>
      <trkpt lat="43.465301" lon="-5.849129">
        <ele>234.8</ele>
        <time>2019-11-24T17:24:40Z</time>
      </trkpt>
      <trkpt lat="43.465328" lon="-5.849044">
        <ele>234.6</ele>
        <time>2019-11-24T17:24:41Z</time>
      </trkpt>
      <trkpt lat="43.465356" lon="-5.848958">
        <ele>234</ele>
        <time>2019-11-24T17:24:42Z</time>
      </trkpt>
      <trkpt lat="43.465385" lon="-5.848871">
        <ele>233.8</ele>
        <time>2019-11-24T17:24:43Z</time>
      </trkpt>
      <trkpt lat="43.465416" lon="-5.848784">
        <ele>233.4</ele>
        <time>2019-11-24T17:24:44Z</time>
      </trkpt>
      <trkpt lat="43.465446" lon="-5.848697">
        <ele>232.6</ele>
        <time>2019-11-24T17:24:45Z</time>
      </trkpt>
      <trkpt lat="43.46548" lon="-5.84861">
        <ele>232.6</ele>
        <time>2019-11-24T17:24:46Z</time>
      </trkpt>
      <trkpt lat="43.465515" lon="-5.848524">
        <ele>232.6</ele>
        <time>2019-11-24T17:24:47Z</time>
      </trkpt>
      <trkpt lat="43.465549" lon="-5.848437">
        <ele>232.6</ele>
        <time>2019-11-24T17:24:48Z</time>
      </trkpt>
      <trkpt lat="43.465583" lon="-5.848351">
        <ele>232.2</ele>
        <time>2019-11-24T17:24:49Z</time>
      </trkpt>
      <trkpt lat="43.465618" lon="-5.848266">
        <ele>232.2</ele>
        <time>2019-11-24T17:24:50Z</time>
      </trkpt>
      <trkpt lat="43.465652" lon="-5.848181">
        <ele>232</ele>
        <time>2019-11-24T17:24:51Z</time>
      </trkpt>
      <trkpt lat="43.465685" lon="-5.848096">
        <ele>232</ele>
        <time>2019-11-24T17:24:52Z</time>
      </trkpt>
      <trkpt lat="43.465718" lon="-5.848011">
        <ele>231.2</ele>
        <time>2019-11-24T17:24:53Z</time>
      </trkpt>
      <trkpt lat="43.46575" lon="-5.847927">
        <ele>232.4</ele>
        <time>2019-11-24T17:24:54Z</time>
      </trkpt>
      <trkpt lat="43.465781" lon="-5.847841">
        <ele>233</ele>
        <time>2019-11-24T17:24:55Z</time>
      </trkpt>
      <trkpt lat="43.465811" lon="-5.847755">
        <ele>231.8</ele>
        <time>2019-11-24T17:24:56Z</time>
      </trkpt>
      <trkpt lat="43.465843" lon="-5.847668">
        <ele>232</ele>
        <time>2019-11-24T17:24:57Z</time>
      </trkpt>
      <trkpt lat="43.465877" lon="-5.847581">
        <ele>231.6</ele>
        <time>2019-11-24T17:24:58Z</time>
      </trkpt>
      <trkpt lat="43.465913" lon="-5.847494">
        <ele>231.6</ele>
        <time>2019-11-24T17:24:59Z</time>
      </trkpt>
      <trkpt lat="43.465952" lon="-5.847409">
        <ele>230.8</ele>
        <time>2019-11-24T17:25:00Z</time>
      </trkpt>
      <trkpt lat="43.465993" lon="-5.847327">
        <ele>230</ele>
        <time>2019-11-24T17:25:01Z</time>
      </trkpt>
      <trkpt lat="43.466037" lon="-5.847244">
        <ele>230.4</ele>
        <time>2019-11-24T17:25:02Z</time>
      </trkpt>
      <trkpt lat="43.46608" lon="-5.84716">
        <ele>229.4</ele>
        <time>2019-11-24T17:25:03Z</time>
      </trkpt>
      <trkpt lat="43.466126" lon="-5.847079">
        <ele>229.2</ele>
        <time>2019-11-24T17:25:04Z</time>
      </trkpt>
      <trkpt lat="43.466177" lon="-5.847">
        <ele>229</ele>
        <time>2019-11-24T17:25:05Z</time>
      </trkpt>
      <trkpt lat="43.466228" lon="-5.846924">
        <ele>229.2</ele>
        <time>2019-11-24T17:25:06Z</time>
      </trkpt>
      <trkpt lat="43.466284" lon="-5.846853">
        <ele>229.8</ele>
        <time>2019-11-24T17:25:07Z</time>
      </trkpt>
      <trkpt lat="43.466349" lon="-5.846794">
        <ele>227.8</ele>
        <time>2019-11-24T17:25:08Z</time>
      </trkpt>
      <trkpt lat="43.466421" lon="-5.846752">
        <ele>228.4</ele>
        <time>2019-11-24T17:25:09Z</time>
      </trkpt>
      <trkpt lat="43.466498" lon="-5.846729">
        <ele>228.6</ele>
        <time>2019-11-24T17:25:10Z</time>
      </trkpt>
      <trkpt lat="43.466577" lon="-5.846721">
        <ele>227.8</ele>
        <time>2019-11-24T17:25:11Z</time>
      </trkpt>
      <trkpt lat="43.466657" lon="-5.846721">
        <ele>227</ele>
        <time>2019-11-24T17:25:12Z</time>
      </trkpt>
      <trkpt lat="43.466738" lon="-5.846723">
        <ele>227.2</ele>
        <time>2019-11-24T17:25:13Z</time>
      </trkpt>
      <trkpt lat="43.466819" lon="-5.846726">
        <ele>227</ele>
        <time>2019-11-24T17:25:14Z</time>
      </trkpt>
      <trkpt lat="43.466902" lon="-5.846732">
        <ele>226.6</ele>
        <time>2019-11-24T17:25:15Z</time>
      </trkpt>
      <trkpt lat="43.466984" lon="-5.846742">
        <ele>226.6</ele>
        <time>2019-11-24T17:25:16Z</time>
      </trkpt>
      <trkpt lat="43.467065" lon="-5.846756">
        <ele>226.6</ele>
        <time>2019-11-24T17:25:17Z</time>
      </trkpt>
      <trkpt lat="43.467145" lon="-5.846773">
        <ele>227</ele>
        <time>2019-11-24T17:25:18Z</time>
      </trkpt>
      <trkpt lat="43.467226" lon="-5.846791">
        <ele>225</ele>
        <time>2019-11-24T17:25:19Z</time>
      </trkpt>
      <trkpt lat="43.467307" lon="-5.846809">
        <ele>226</ele>
        <time>2019-11-24T17:25:20Z</time>
      </trkpt>
      <trkpt lat="43.467387" lon="-5.846832">
        <ele>225.6</ele>
        <time>2019-11-24T17:25:21Z</time>
      </trkpt>
      <trkpt lat="43.467466" lon="-5.846861">
        <ele>225.2</ele>
        <time>2019-11-24T17:25:22Z</time>
      </trkpt>
      <trkpt lat="43.467543" lon="-5.846901">
        <ele>225.4</ele>
        <time>2019-11-24T17:25:23Z</time>
      </trkpt>
      <trkpt lat="43.467617" lon="-5.846949">
        <ele>224.6</ele>
        <time>2019-11-24T17:25:24Z</time>
      </trkpt>
      <trkpt lat="43.467689" lon="-5.846998">
        <ele>224.2</ele>
        <time>2019-11-24T17:25:25Z</time>
      </trkpt>
      <trkpt lat="43.467763" lon="-5.847048">
        <ele>224.6</ele>
        <time>2019-11-24T17:25:26Z</time>
      </trkpt>
      <trkpt lat="43.46784" lon="-5.847092">
        <ele>225.4</ele>
        <time>2019-11-24T17:25:27Z</time>
      </trkpt>
      <trkpt lat="43.46792" lon="-5.847122">
        <ele>224.2</ele>
        <time>2019-11-24T17:25:28Z</time>
      </trkpt>
      <trkpt lat="43.468005" lon="-5.84713">
        <ele>224</ele>
        <time>2019-11-24T17:25:29Z</time>
      </trkpt>
      <trkpt lat="43.468089" lon="-5.847118">
        <ele>224.2</ele>
        <time>2019-11-24T17:25:30Z</time>
      </trkpt>
      <trkpt lat="43.468172" lon="-5.847092">
        <ele>223.8</ele>
        <time>2019-11-24T17:25:31Z</time>
      </trkpt>
      <trkpt lat="43.468253" lon="-5.847061">
        <ele>223.6</ele>
        <time>2019-11-24T17:25:32Z</time>
      </trkpt>
      <trkpt lat="43.468334" lon="-5.847025">
        <ele>224</ele>
        <time>2019-11-24T17:25:33Z</time>
      </trkpt>
      <trkpt lat="43.468415" lon="-5.846987">
        <ele>223</ele>
        <time>2019-11-24T17:25:34Z</time>
      </trkpt>
      <trkpt lat="43.468497" lon="-5.846947">
        <ele>222.6</ele>
        <time>2019-11-24T17:25:35Z</time>
      </trkpt>
      <trkpt lat="43.468579" lon="-5.846902">
        <ele>222.2</ele>
        <time>2019-11-24T17:25:36Z</time>
      </trkpt>
      <trkpt lat="43.468659" lon="-5.846851">
        <ele>222.2</ele>
        <time>2019-11-24T17:25:37Z</time>
      </trkpt>
      <trkpt lat="43.468738" lon="-5.846797">
        <ele>222.4</ele>
        <time>2019-11-24T17:25:38Z</time>
      </trkpt>
      <trkpt lat="43.468818" lon="-5.846743">
        <ele>222.8</ele>
        <time>2019-11-24T17:25:39Z</time>
      </trkpt>
      <trkpt lat="43.468899" lon="-5.846691">
        <ele>221.8</ele>
        <time>2019-11-24T17:25:40Z</time>
      </trkpt>
      <trkpt lat="43.46898" lon="-5.846639">
        <ele>221.4</ele>
        <time>2019-11-24T17:25:41Z</time>
      </trkpt>
      <trkpt lat="43.469062" lon="-5.84659">
        <ele>221.4</ele>
        <time>2019-11-24T17:25:42Z</time>
      </trkpt>
      <trkpt lat="43.469147" lon="-5.846544">
        <ele>220.8</ele>
        <time>2019-11-24T17:25:43Z</time>
      </trkpt>
      <trkpt lat="43.469233" lon="-5.846503">
        <ele>220.6</ele>
        <time>2019-11-24T17:25:44Z</time>
      </trkpt>
      <trkpt lat="43.46932" lon="-5.846467">
        <ele>220.6</ele>
        <time>2019-11-24T17:25:45Z</time>
      </trkpt>
      <trkpt lat="43.46941" lon="-5.846435">
        <ele>220.4</ele>
        <time>2019-11-24T17:25:46Z</time>
      </trkpt>
      <trkpt lat="43.469502" lon="-5.846407">
        <ele>219.6</ele>
        <time>2019-11-24T17:25:47Z</time>
      </trkpt>
      <trkpt lat="43.469594" lon="-5.846381">
        <ele>219.4</ele>
        <time>2019-11-24T17:25:48Z</time>
      </trkpt>
      <trkpt lat="43.469688" lon="-5.846359">
        <ele>219.2</ele>
        <time>2019-11-24T17:25:49Z</time>
      </trkpt>
      <trkpt lat="43.469783" lon="-5.84634">
        <ele>219</ele>
        <time>2019-11-24T17:25:50Z</time>
      </trkpt>
      <trkpt lat="43.469879" lon="-5.84632">
        <ele>219</ele>
        <time>2019-11-24T17:25:51Z</time>
      </trkpt>
      <trkpt lat="43.469976" lon="-5.846301">
        <ele>218.4</ele>
        <time>2019-11-24T17:25:52Z</time>
      </trkpt>
      <trkpt lat="43.470074" lon="-5.846282">
        <ele>218</ele>
        <time>2019-11-24T17:25:53Z</time>
      </trkpt>
      <trkpt lat="43.470172" lon="-5.846262">
        <ele>218.2</ele>
        <time>2019-11-24T17:25:54Z</time>
      </trkpt>
      <trkpt lat="43.470271" lon="-5.846241">
        <ele>218</ele>
        <time>2019-11-24T17:25:55Z</time>
      </trkpt>
      <trkpt lat="43.47037" lon="-5.846221">
        <ele>217.4</ele>
        <time>2019-11-24T17:25:56Z</time>
      </trkpt>
      <trkpt lat="43.470469" lon="-5.8462">
        <ele>216.4</ele>
        <time>2019-11-24T17:25:57Z</time>
      </trkpt>
      <trkpt lat="43.470567" lon="-5.846181">
        <ele>216</ele>
        <time>2019-11-24T17:25:58Z</time>
      </trkpt>
      <trkpt lat="43.470665" lon="-5.846162">
        <ele>215.6</ele>
        <time>2019-11-24T17:25:59Z</time>
      </trkpt>
      <trkpt lat="43.470762" lon="-5.846142">
        <ele>216.2</ele>
        <time>2019-11-24T17:26:00Z</time>
      </trkpt>
      <trkpt lat="43.470859" lon="-5.846123">
        <ele>216.2</ele>
        <time>2019-11-24T17:26:01Z</time>
      </trkpt>
      <trkpt lat="43.470957" lon="-5.846105">
        <ele>215.4</ele>
        <time>2019-11-24T17:26:02Z</time>
      </trkpt>
      <trkpt lat="43.471055" lon="-5.846087">
        <ele>215</ele>
        <time>2019-11-24T17:26:03Z</time>
      </trkpt>
      <trkpt lat="43.471154" lon="-5.846069">
        <ele>214.8</ele>
        <time>2019-11-24T17:26:04Z</time>
      </trkpt>
      <trkpt lat="43.471253" lon="-5.846056">
        <ele>214.8</ele>
        <time>2019-11-24T17:26:05Z</time>
      </trkpt>
      <trkpt lat="43.471353" lon="-5.846048">
        <ele>214.6</ele>
        <time>2019-11-24T17:26:06Z</time>
      </trkpt>
      <trkpt lat="43.471452" lon="-5.846048">
        <ele>214.4</ele>
        <time>2019-11-24T17:26:07Z</time>
      </trkpt>
      <trkpt lat="43.471552" lon="-5.846059">
        <ele>214.2</ele>
        <time>2019-11-24T17:26:08Z</time>
      </trkpt>
      <trkpt lat="43.471651" lon="-5.846085">
        <ele>214</ele>
        <time>2019-11-24T17:26:09Z</time>
      </trkpt>
      <trkpt lat="43.471745" lon="-5.846126">
        <ele>213</ele>
        <time>2019-11-24T17:26:10Z</time>
      </trkpt>
      <trkpt lat="43.471838" lon="-5.846174">
        <ele>212.4</ele>
        <time>2019-11-24T17:26:11Z</time>
      </trkpt>
      <trkpt lat="43.471931" lon="-5.846222">
        <ele>212.4</ele>
        <time>2019-11-24T17:26:12Z</time>
      </trkpt>
      <trkpt lat="43.472026" lon="-5.846267">
        <ele>212.6</ele>
        <time>2019-11-24T17:26:13Z</time>
      </trkpt>
      <trkpt lat="43.472121" lon="-5.846307">
        <ele>212</ele>
        <time>2019-11-24T17:26:14Z</time>
      </trkpt>
      <trkpt lat="43.472218" lon="-5.846331">
        <ele>210.6</ele>
        <time>2019-11-24T17:26:15Z</time>
      </trkpt>
      <trkpt lat="43.472318" lon="-5.846331">
        <ele>211.2</ele>
        <time>2019-11-24T17:26:16Z</time>
      </trkpt>
      <trkpt lat="43.472415" lon="-5.846309">
        <ele>210.6</ele>
        <time>2019-11-24T17:26:17Z</time>
      </trkpt>
      <trkpt lat="43.472509" lon="-5.846273">
        <ele>210.6</ele>
        <time>2019-11-24T17:26:18Z</time>
      </trkpt>
      <trkpt lat="43.472603" lon="-5.846231">
        <ele>210</ele>
        <time>2019-11-24T17:26:19Z</time>
      </trkpt>
      <trkpt lat="43.472696" lon="-5.846191">
        <ele>210</ele>
        <time>2019-11-24T17:26:20Z</time>
      </trkpt>
      <trkpt lat="43.472788" lon="-5.846156">
        <ele>210</ele>
        <time>2019-11-24T17:26:21Z</time>
      </trkpt>
      <trkpt lat="43.472882" lon="-5.846129">
        <ele>209.6</ele>
        <time>2019-11-24T17:26:22Z</time>
      </trkpt>
      <trkpt lat="43.472976" lon="-5.846114">
        <ele>209.6</ele>
        <time>2019-11-24T17:26:23Z</time>
      </trkpt>
      <trkpt lat="43.473071" lon="-5.846111">
        <ele>208.8</ele>
        <time>2019-11-24T17:26:24Z</time>
      </trkpt>
      <trkpt lat="43.473166" lon="-5.846116">
        <ele>208.6</ele>
        <time>2019-11-24T17:26:25Z</time>
      </trkpt>
      <trkpt lat="43.473261" lon="-5.846123">
        <ele>208.6</ele>
        <time>2019-11-24T17:26:26Z</time>
      </trkpt>
      <trkpt lat="43.473357" lon="-5.84613">
        <ele>207.6</ele>
        <time>2019-11-24T17:26:27Z</time>
      </trkpt>
      <trkpt lat="43.473454" lon="-5.846134">
        <ele>206.8</ele>
        <time>2019-11-24T17:26:28Z</time>
      </trkpt>
      <trkpt lat="43.473551" lon="-5.846136">
        <ele>207.4</ele>
        <time>2019-11-24T17:26:29Z</time>
      </trkpt>
      <trkpt lat="43.473648" lon="-5.84613">
        <ele>207</ele>
        <time>2019-11-24T17:26:30Z</time>
      </trkpt>
      <trkpt lat="43.473743" lon="-5.846104">
        <ele>207.2</ele>
        <time>2019-11-24T17:26:31Z</time>
      </trkpt>
      <trkpt lat="43.473835" lon="-5.846057">
        <ele>206.8</ele>
        <time>2019-11-24T17:26:32Z</time>
      </trkpt>
      <trkpt lat="43.473921" lon="-5.845998">
        <ele>206.6</ele>
        <time>2019-11-24T17:26:33Z</time>
      </trkpt>
      <trkpt lat="43.474006" lon="-5.845935">
        <ele>206</ele>
        <time>2019-11-24T17:26:34Z</time>
      </trkpt>
      <trkpt lat="43.474089" lon="-5.845868">
        <ele>205.2</ele>
        <time>2019-11-24T17:26:35Z</time>
      </trkpt>
      <trkpt lat="43.474174" lon="-5.845798">
        <ele>204.6</ele>
        <time>2019-11-24T17:26:36Z</time>
      </trkpt>
      <trkpt lat="43.474257" lon="-5.845724">
        <ele>204.6</ele>
        <time>2019-11-24T17:26:37Z</time>
      </trkpt>
      <trkpt lat="43.474339" lon="-5.845645">
        <ele>204.4</ele>
        <time>2019-11-24T17:26:38Z</time>
      </trkpt>
      <trkpt lat="43.474417" lon="-5.845558">
        <ele>204</ele>
        <time>2019-11-24T17:26:39Z</time>
      </trkpt>
      <trkpt lat="43.47449" lon="-5.845465">
        <ele>204.2</ele>
        <time>2019-11-24T17:26:40Z</time>
      </trkpt>
      <trkpt lat="43.474557" lon="-5.845367">
        <ele>204.2</ele>
        <time>2019-11-24T17:26:41Z</time>
      </trkpt>
      <trkpt lat="43.474621" lon="-5.845269">
        <ele>204.6</ele>
        <time>2019-11-24T17:26:42Z</time>
      </trkpt>
      <trkpt lat="43.474684" lon="-5.845171">
        <ele>204.6</ele>
        <time>2019-11-24T17:26:43Z</time>
      </trkpt>
      <trkpt lat="43.474749" lon="-5.845079">
        <ele>204</ele>
        <time>2019-11-24T17:26:44Z</time>
      </trkpt>
      <trkpt lat="43.474817" lon="-5.844993">
        <ele>204.2</ele>
        <time>2019-11-24T17:26:45Z</time>
      </trkpt>
      <trkpt lat="43.474891" lon="-5.844914">
        <ele>203.8</ele>
        <time>2019-11-24T17:26:46Z</time>
      </trkpt>
      <trkpt lat="43.474968" lon="-5.844838">
        <ele>203.6</ele>
        <time>2019-11-24T17:26:47Z</time>
      </trkpt>
      <trkpt lat="43.475046" lon="-5.844766">
        <ele>203.6</ele>
        <time>2019-11-24T17:26:48Z</time>
      </trkpt>
      <trkpt lat="43.475126" lon="-5.844697">
        <ele>203</ele>
        <time>2019-11-24T17:26:49Z</time>
      </trkpt>
      <trkpt lat="43.475208" lon="-5.844632">
        <ele>203</ele>
        <time>2019-11-24T17:26:50Z</time>
      </trkpt>
      <trkpt lat="43.475292" lon="-5.844569">
        <ele>202.2</ele>
        <time>2019-11-24T17:26:51Z</time>
      </trkpt>
      <trkpt lat="43.475377" lon="-5.84451">
        <ele>202.4</ele>
        <time>2019-11-24T17:26:52Z</time>
      </trkpt>
      <trkpt lat="43.475463" lon="-5.844453">
        <ele>202</ele>
        <time>2019-11-24T17:26:53Z</time>
      </trkpt>
      <trkpt lat="43.475549" lon="-5.8444">
        <ele>201.8</ele>
        <time>2019-11-24T17:26:54Z</time>
      </trkpt>
      <trkpt lat="43.475637" lon="-5.84435">
        <ele>201.2</ele>
        <time>2019-11-24T17:26:55Z</time>
      </trkpt>
      <trkpt lat="43.475724" lon="-5.844303">
        <ele>200.8</ele>
        <time>2019-11-24T17:26:56Z</time>
      </trkpt>
      <trkpt lat="43.475812" lon="-5.844258">
        <ele>201</ele>
        <time>2019-11-24T17:26:57Z</time>
      </trkpt>
      <trkpt lat="43.4759" lon="-5.844215">
        <ele>201.2</ele>
        <time>2019-11-24T17:26:58Z</time>
      </trkpt>
      <trkpt lat="43.475988" lon="-5.844174">
        <ele>200.6</ele>
        <time>2019-11-24T17:26:59Z</time>
      </trkpt>
      <trkpt lat="43.476076" lon="-5.844142">
        <ele>200.6</ele>
        <time>2019-11-24T17:27:00Z</time>
      </trkpt>
      <trkpt lat="43.476165" lon="-5.844131">
        <ele>200</ele>
        <time>2019-11-24T17:27:01Z</time>
      </trkpt>
      <trkpt lat="43.476253" lon="-5.84415">
        <ele>200</ele>
        <time>2019-11-24T17:27:02Z</time>
      </trkpt>
      <trkpt lat="43.476333" lon="-5.844205">
        <ele>199</ele>
        <time>2019-11-24T17:27:03Z</time>
      </trkpt>
      <trkpt lat="43.476399" lon="-5.844289">
        <ele>199.2</ele>
        <time>2019-11-24T17:27:04Z</time>
      </trkpt>
      <trkpt lat="43.476452" lon="-5.844391">
        <ele>198.4</ele>
        <time>2019-11-24T17:27:05Z</time>
      </trkpt>
      <trkpt lat="43.476494" lon="-5.844503">
        <ele>199.2</ele>
        <time>2019-11-24T17:27:06Z</time>
      </trkpt>
      <trkpt lat="43.476532" lon="-5.844622">
        <ele>197.6</ele>
        <time>2019-11-24T17:27:07Z</time>
      </trkpt>
      <trkpt lat="43.476567" lon="-5.844744">
        <ele>197</ele>
        <time>2019-11-24T17:27:08Z</time>
      </trkpt>
      <trkpt lat="43.476602" lon="-5.844866">
        <ele>196.2</ele>
        <time>2019-11-24T17:27:09Z</time>
      </trkpt>
      <trkpt lat="43.476643" lon="-5.844986">
        <ele>196.4</ele>
        <time>2019-11-24T17:27:10Z</time>
      </trkpt>
      <trkpt lat="43.47669" lon="-5.845101">
        <ele>196</ele>
        <time>2019-11-24T17:27:11Z</time>
      </trkpt>
      <trkpt lat="43.47674" lon="-5.845213">
        <ele>196.6</ele>
        <time>2019-11-24T17:27:12Z</time>
      </trkpt>
      <trkpt lat="43.476792" lon="-5.845324">
        <ele>195.8</ele>
        <time>2019-11-24T17:27:13Z</time>
      </trkpt>
      <trkpt lat="43.47684" lon="-5.845435">
        <ele>195.8</ele>
        <time>2019-11-24T17:27:14Z</time>
      </trkpt>
      <trkpt lat="43.476884" lon="-5.845549">
        <ele>195.2</ele>
        <time>2019-11-24T17:27:15Z</time>
      </trkpt>
      <trkpt lat="43.476919" lon="-5.845668">
        <ele>194.4</ele>
        <time>2019-11-24T17:27:16Z</time>
      </trkpt>
      <trkpt lat="43.476947" lon="-5.845791">
        <ele>194.2</ele>
        <time>2019-11-24T17:27:17Z</time>
      </trkpt>
      <trkpt lat="43.476969" lon="-5.845917">
        <ele>194</ele>
        <time>2019-11-24T17:27:18Z</time>
      </trkpt>
      <trkpt lat="43.476986" lon="-5.846045">
        <ele>193.4</ele>
        <time>2019-11-24T17:27:19Z</time>
      </trkpt>
      <trkpt lat="43.476998" lon="-5.846175">
        <ele>193</ele>
        <time>2019-11-24T17:27:20Z</time>
      </trkpt>
      <trkpt lat="43.47701" lon="-5.846305">
        <ele>193.2</ele>
        <time>2019-11-24T17:27:21Z</time>
      </trkpt>
      <trkpt lat="43.477021" lon="-5.846438">
        <ele>193.2</ele>
        <time>2019-11-24T17:27:22Z</time>
      </trkpt>
      <trkpt lat="43.47703" lon="-5.846573">
        <ele>192.6</ele>
        <time>2019-11-24T17:27:23Z</time>
      </trkpt>
      <trkpt lat="43.477038" lon="-5.84671">
        <ele>192.2</ele>
        <time>2019-11-24T17:27:24Z</time>
      </trkpt>
      <trkpt lat="43.477043" lon="-5.846848">
        <ele>192.4</ele>
        <time>2019-11-24T17:27:25Z</time>
      </trkpt>
      <trkpt lat="43.477047" lon="-5.846987">
        <ele>191.4</ele>
        <time>2019-11-24T17:27:26Z</time>
      </trkpt>
      <trkpt lat="43.477048" lon="-5.847127">
        <ele>191.2</ele>
        <time>2019-11-24T17:27:27Z</time>
      </trkpt>
      <trkpt lat="43.477043" lon="-5.847268">
        <ele>191</ele>
        <time>2019-11-24T17:27:28Z</time>
      </trkpt>
      <trkpt lat="43.477033" lon="-5.847409">
        <ele>190.8</ele>
        <time>2019-11-24T17:27:29Z</time>
      </trkpt>
      <trkpt lat="43.477019" lon="-5.84755">
        <ele>190</ele>
        <time>2019-11-24T17:27:30Z</time>
      </trkpt>
      <trkpt lat="43.477" lon="-5.84769">
        <ele>189.8</ele>
        <time>2019-11-24T17:27:31Z</time>
      </trkpt>
      <trkpt lat="43.476979" lon="-5.847831">
        <ele>188.6</ele>
        <time>2019-11-24T17:27:32Z</time>
      </trkpt>
      <trkpt lat="43.476958" lon="-5.847973">
        <ele>188</ele>
        <time>2019-11-24T17:27:33Z</time>
      </trkpt>
      <trkpt lat="43.476936" lon="-5.848116">
        <ele>186.8</ele>
        <time>2019-11-24T17:27:34Z</time>
      </trkpt>
      <trkpt lat="43.476912" lon="-5.84826">
        <ele>186</ele>
        <time>2019-11-24T17:27:35Z</time>
      </trkpt>
      <trkpt lat="43.476888" lon="-5.848406">
        <ele>185.4</ele>
        <time>2019-11-24T17:27:36Z</time>
      </trkpt>
      <trkpt lat="43.476864" lon="-5.848553">
        <ele>185</ele>
        <time>2019-11-24T17:27:37Z</time>
      </trkpt>
      <trkpt lat="43.476842" lon="-5.848701">
        <ele>183.6</ele>
        <time>2019-11-24T17:27:38Z</time>
      </trkpt>
      <trkpt lat="43.476823" lon="-5.848849">
        <ele>183.4</ele>
        <time>2019-11-24T17:27:39Z</time>
      </trkpt>
      <trkpt lat="43.476807" lon="-5.848998">
        <ele>183.2</ele>
        <time>2019-11-24T17:27:40Z</time>
      </trkpt>
      <trkpt lat="43.476793" lon="-5.849148">
        <ele>182.6</ele>
        <time>2019-11-24T17:27:41Z</time>
      </trkpt>
      <trkpt lat="43.47678" lon="-5.849299">
        <ele>182.8</ele>
        <time>2019-11-24T17:27:42Z</time>
      </trkpt>
      <trkpt lat="43.476766" lon="-5.849452">
        <ele>181.8</ele>
        <time>2019-11-24T17:27:43Z</time>
      </trkpt>
      <trkpt lat="43.476752" lon="-5.849606">
        <ele>180</ele>
        <time>2019-11-24T17:27:44Z</time>
      </trkpt>
      <trkpt lat="43.476738" lon="-5.849757">
        <ele>181</ele>
        <time>2019-11-24T17:27:45Z</time>
      </trkpt>
      <trkpt lat="43.476729" lon="-5.849904">
        <ele>180.2</ele>
        <time>2019-11-24T17:27:46Z</time>
      </trkpt>
      <trkpt lat="43.476722" lon="-5.850049">
        <ele>179.2</ele>
        <time>2019-11-24T17:27:47Z</time>
      </trkpt>
      <trkpt lat="43.476722" lon="-5.850194">
        <ele>178.6</ele>
        <time>2019-11-24T17:27:48Z</time>
      </trkpt>
      <trkpt lat="43.47674" lon="-5.850338">
        <ele>178</ele>
        <time>2019-11-24T17:27:49Z</time>
      </trkpt>
      <trkpt lat="43.476785" lon="-5.850469">
        <ele>177.6</ele>
        <time>2019-11-24T17:27:50Z</time>
      </trkpt>
      <trkpt lat="43.476858" lon="-5.850573">
        <ele>176</ele>
        <time>2019-11-24T17:27:51Z</time>
      </trkpt>
      <trkpt lat="43.476954" lon="-5.85063">
        <ele>175.4</ele>
        <time>2019-11-24T17:27:52Z</time>
      </trkpt>
      <trkpt lat="43.477062" lon="-5.850631">
        <ele>174.4</ele>
        <time>2019-11-24T17:27:53Z</time>
      </trkpt>
      <trkpt lat="43.477167" lon="-5.850583">
        <ele>172.6</ele>
        <time>2019-11-24T17:27:54Z</time>
      </trkpt>
      <trkpt lat="43.477264" lon="-5.850499">
        <ele>171.8</ele>
        <time>2019-11-24T17:27:55Z</time>
      </trkpt>
      <trkpt lat="43.477352" lon="-5.850396">
        <ele>171.4</ele>
        <time>2019-11-24T17:27:56Z</time>
      </trkpt>
      <trkpt lat="43.477434" lon="-5.850284">
        <ele>171</ele>
        <time>2019-11-24T17:27:57Z</time>
      </trkpt>
      <trkpt lat="43.477513" lon="-5.850168">
        <ele>170</ele>
        <time>2019-11-24T17:27:58Z</time>
      </trkpt>
      <trkpt lat="43.477587" lon="-5.850043">
        <ele>168.2</ele>
        <time>2019-11-24T17:27:59Z</time>
      </trkpt>
      <trkpt lat="43.477657" lon="-5.849911">
        <ele>167.8</ele>
        <time>2019-11-24T17:28:00Z</time>
      </trkpt>
      <trkpt lat="43.477723" lon="-5.849773">
        <ele>168.4</ele>
        <time>2019-11-24T17:28:01Z</time>
      </trkpt>
      <trkpt lat="43.477784" lon="-5.849628">
        <ele>166.8</ele>
        <time>2019-11-24T17:28:02Z</time>
      </trkpt>
      <trkpt lat="43.477833" lon="-5.849473">
        <ele>166.2</ele>
        <time>2019-11-24T17:28:03Z</time>
      </trkpt>
      <trkpt lat="43.477871" lon="-5.84931">
        <ele>165</ele>
        <time>2019-11-24T17:28:04Z</time>
      </trkpt>
      <trkpt lat="43.477903" lon="-5.849142">
        <ele>164.2</ele>
        <time>2019-11-24T17:28:05Z</time>
      </trkpt>
      <trkpt lat="43.477936" lon="-5.848971">
        <ele>164</ele>
        <time>2019-11-24T17:28:06Z</time>
      </trkpt>
      <trkpt lat="43.477975" lon="-5.848804">
        <ele>163.4</ele>
        <time>2019-11-24T17:28:07Z</time>
      </trkpt>
      <trkpt lat="43.478024" lon="-5.848644">
        <ele>161</ele>
        <time>2019-11-24T17:28:08Z</time>
      </trkpt>
      <trkpt lat="43.478091" lon="-5.848497">
        <ele>161</ele>
        <time>2019-11-24T17:28:09Z</time>
      </trkpt>
      <trkpt lat="43.478169" lon="-5.848371">
        <ele>159.8</ele>
        <time>2019-11-24T17:28:10Z</time>
      </trkpt>
      <trkpt lat="43.478254" lon="-5.84826">
        <ele>162</ele>
        <time>2019-11-24T17:28:11Z</time>
      </trkpt>
      <trkpt lat="43.478351" lon="-5.848179">
        <ele>160</ele>
        <time>2019-11-24T17:28:12Z</time>
      </trkpt>
      <trkpt lat="43.478471" lon="-5.84813">
        <ele>160</ele>
        <time>2019-11-24T17:28:13Z</time>
      </trkpt>
      <trkpt lat="43.47859" lon="-5.848109">
        <ele>158.4</ele>
        <time>2019-11-24T17:28:14Z</time>
      </trkpt>
      <trkpt lat="43.478711" lon="-5.848112">
        <ele>160.6</ele>
        <time>2019-11-24T17:28:15Z</time>
      </trkpt>
      <trkpt lat="43.47883" lon="-5.848131">
        <ele>160.6</ele>
        <time>2019-11-24T17:28:16Z</time>
      </trkpt>
      <trkpt lat="43.478945" lon="-5.848166">
        <ele>159.4</ele>
        <time>2019-11-24T17:28:17Z</time>
      </trkpt>
      <trkpt lat="43.479055" lon="-5.848206">
        <ele>159.6</ele>
        <time>2019-11-24T17:28:18Z</time>
      </trkpt>
      <trkpt lat="43.479167" lon="-5.848244">
        <ele>159.4</ele>
        <time>2019-11-24T17:28:19Z</time>
      </trkpt>
      <trkpt lat="43.479277" lon="-5.848274">
        <ele>159</ele>
        <time>2019-11-24T17:28:20Z</time>
      </trkpt>
      <trkpt lat="43.479388" lon="-5.848284">
        <ele>158.2</ele>
        <time>2019-11-24T17:28:21Z</time>
      </trkpt>
      <trkpt lat="43.479498" lon="-5.84827">
        <ele>158</ele>
        <time>2019-11-24T17:28:22Z</time>
      </trkpt>
      <trkpt lat="43.479608" lon="-5.84823">
        <ele>157.2</ele>
        <time>2019-11-24T17:28:23Z</time>
      </trkpt>
      <trkpt lat="43.479717" lon="-5.84818">
        <ele>156.6</ele>
        <time>2019-11-24T17:28:24Z</time>
      </trkpt>
      <trkpt lat="43.479823" lon="-5.848125">
        <ele>156.4</ele>
        <time>2019-11-24T17:28:25Z</time>
      </trkpt>
      <trkpt lat="43.479933" lon="-5.848064">
        <ele>155.6</ele>
        <time>2019-11-24T17:28:26Z</time>
      </trkpt>
      <trkpt lat="43.480044" lon="-5.848006">
        <ele>154.4</ele>
        <time>2019-11-24T17:28:27Z</time>
      </trkpt>
      <trkpt lat="43.480156" lon="-5.847949">
        <ele>153</ele>
        <time>2019-11-24T17:28:28Z</time>
      </trkpt>
      <trkpt lat="43.480269" lon="-5.847889">
        <ele>153.6</ele>
        <time>2019-11-24T17:28:29Z</time>
      </trkpt>
      <trkpt lat="43.480383" lon="-5.84783">
        <ele>152.6</ele>
        <time>2019-11-24T17:28:30Z</time>
      </trkpt>
      <trkpt lat="43.480498" lon="-5.847771">
        <ele>152</ele>
        <time>2019-11-24T17:28:31Z</time>
      </trkpt>
      <trkpt lat="43.480614" lon="-5.847714">
        <ele>149.6</ele>
        <time>2019-11-24T17:28:32Z</time>
      </trkpt>
      <trkpt lat="43.480729" lon="-5.847663">
        <ele>149.8</ele>
        <time>2019-11-24T17:28:33Z</time>
      </trkpt>
      <trkpt lat="43.480841" lon="-5.847632">
        <ele>148.8</ele>
        <time>2019-11-24T17:28:34Z</time>
      </trkpt>
      <trkpt lat="43.480963" lon="-5.847635">
        <ele>147.8</ele>
        <time>2019-11-24T17:28:35Z</time>
      </trkpt>
      <trkpt lat="43.48108" lon="-5.847681">
        <ele>147.6</ele>
        <time>2019-11-24T17:28:36Z</time>
      </trkpt>
      <trkpt lat="43.481181" lon="-5.847768">
        <ele>146.6</ele>
        <time>2019-11-24T17:28:37Z</time>
      </trkpt>
      <trkpt lat="43.481255" lon="-5.847898">
        <ele>145.6</ele>
        <time>2019-11-24T17:28:38Z</time>
      </trkpt>
      <trkpt lat="43.481295" lon="-5.848058">
        <ele>144.6</ele>
        <time>2019-11-24T17:28:39Z</time>
      </trkpt>
      <trkpt lat="43.481306" lon="-5.84823">
        <ele>144.2</ele>
        <time>2019-11-24T17:28:40Z</time>
      </trkpt>
      <trkpt lat="43.481302" lon="-5.848404">
        <ele>143.4</ele>
        <time>2019-11-24T17:28:41Z</time>
      </trkpt>
      <trkpt lat="43.481292" lon="-5.848579">
        <ele>142.8</ele>
        <time>2019-11-24T17:28:42Z</time>
      </trkpt>
      <trkpt lat="43.48128" lon="-5.848754">
        <ele>141.8</ele>
        <time>2019-11-24T17:28:43Z</time>
      </trkpt>
      <trkpt lat="43.481271" lon="-5.848924">
        <ele>142.6</ele>
        <time>2019-11-24T17:28:44Z</time>
      </trkpt>
      <trkpt lat="43.481267" lon="-5.849093">
        <ele>141.4</ele>
        <time>2019-11-24T17:28:45Z</time>
      </trkpt>
      <trkpt lat="43.481268" lon="-5.849261">
        <ele>140.6</ele>
        <time>2019-11-24T17:28:46Z</time>
      </trkpt>
      <trkpt lat="43.481287" lon="-5.849428">
        <ele>139.8</ele>
        <time>2019-11-24T17:28:47Z</time>
      </trkpt>
      <trkpt lat="43.481332" lon="-5.849586">
        <ele>138.2</ele>
        <time>2019-11-24T17:28:48Z</time>
      </trkpt>
      <trkpt lat="43.481403" lon="-5.849727">
        <ele>136.6</ele>
        <time>2019-11-24T17:28:49Z</time>
      </trkpt>
      <trkpt lat="43.481495" lon="-5.849847">
        <ele>135.4</ele>
        <time>2019-11-24T17:28:50Z</time>
      </trkpt>
      <trkpt lat="43.481599" lon="-5.849943">
        <ele>134.8</ele>
        <time>2019-11-24T17:28:51Z</time>
      </trkpt>
      <trkpt lat="43.481711" lon="-5.850014">
        <ele>133.6</ele>
        <time>2019-11-24T17:28:52Z</time>
      </trkpt>
      <trkpt lat="43.48183" lon="-5.850068">
        <ele>132.8</ele>
        <time>2019-11-24T17:28:53Z</time>
      </trkpt>
      <trkpt lat="43.481951" lon="-5.850114">
        <ele>132.8</ele>
        <time>2019-11-24T17:28:54Z</time>
      </trkpt>
      <trkpt lat="43.482074" lon="-5.850151">
        <ele>132.2</ele>
        <time>2019-11-24T17:28:55Z</time>
      </trkpt>
      <trkpt lat="43.4822" lon="-5.850167">
        <ele>132</ele>
        <time>2019-11-24T17:28:56Z</time>
      </trkpt>
      <trkpt lat="43.482328" lon="-5.850158">
        <ele>130.8</ele>
        <time>2019-11-24T17:28:57Z</time>
      </trkpt>
      <trkpt lat="43.48245" lon="-5.850118">
        <ele>130</ele>
        <time>2019-11-24T17:28:58Z</time>
      </trkpt>
      <trkpt lat="43.482563" lon="-5.850047">
        <ele>129.4</ele>
        <time>2019-11-24T17:28:59Z</time>
      </trkpt>
      <trkpt lat="43.482671" lon="-5.84995">
        <ele>127.8</ele>
        <time>2019-11-24T17:29:00Z</time>
      </trkpt>
      <trkpt lat="43.482776" lon="-5.849841">
        <ele>127.2</ele>
        <time>2019-11-24T17:29:01Z</time>
      </trkpt>
      <trkpt lat="43.482888" lon="-5.849749">
        <ele>126.6</ele>
        <time>2019-11-24T17:29:02Z</time>
      </trkpt>
      <trkpt lat="43.483009" lon="-5.84969">
        <ele>125.8</ele>
        <time>2019-11-24T17:29:03Z</time>
      </trkpt>
      <trkpt lat="43.483138" lon="-5.849669">
        <ele>125</ele>
        <time>2019-11-24T17:29:04Z</time>
      </trkpt>
      <trkpt lat="43.48327" lon="-5.849674">
        <ele>123.2</ele>
        <time>2019-11-24T17:29:05Z</time>
      </trkpt>
      <trkpt lat="43.483403" lon="-5.849681">
        <ele>122</ele>
        <time>2019-11-24T17:29:06Z</time>
      </trkpt>
      <trkpt lat="43.483533" lon="-5.849654">
        <ele>119.8</ele>
        <time>2019-11-24T17:29:07Z</time>
      </trkpt>
      <trkpt lat="43.483654" lon="-5.849581">
        <ele>119</ele>
        <time>2019-11-24T17:29:08Z</time>
      </trkpt>
      <trkpt lat="43.483764" lon="-5.849471">
        <ele>118.8</ele>
        <time>2019-11-24T17:29:09Z</time>
      </trkpt>
      <trkpt lat="43.483859" lon="-5.849336">
        <ele>117.6</ele>
        <time>2019-11-24T17:29:10Z</time>
      </trkpt>
      <trkpt lat="43.483945" lon="-5.849189">
        <ele>117.6</ele>
        <time>2019-11-24T17:29:11Z</time>
      </trkpt>
      <trkpt lat="43.484027" lon="-5.84904">
        <ele>115.6</ele>
        <time>2019-11-24T17:29:12Z</time>
      </trkpt>
      <trkpt lat="43.484113" lon="-5.848898">
        <ele>117.4</ele>
        <time>2019-11-24T17:29:13Z</time>
      </trkpt>
      <trkpt lat="43.484205" lon="-5.848769">
        <ele>117.2</ele>
        <time>2019-11-24T17:29:14Z</time>
      </trkpt>
      <trkpt lat="43.484305" lon="-5.848652">
        <ele>117</ele>
        <time>2019-11-24T17:29:15Z</time>
      </trkpt>
      <trkpt lat="43.484411" lon="-5.848537">
        <ele>114.2</ele>
        <time>2019-11-24T17:29:16Z</time>
      </trkpt>
      <trkpt lat="43.484509" lon="-5.848413">
        <ele>113</ele>
        <time>2019-11-24T17:29:17Z</time>
      </trkpt>
      <trkpt lat="43.484595" lon="-5.848268">
        <ele>112.6</ele>
        <time>2019-11-24T17:29:18Z</time>
      </trkpt>
      <trkpt lat="43.484666" lon="-5.848106">
        <ele>112.4</ele>
        <time>2019-11-24T17:29:19Z</time>
      </trkpt>
      <trkpt lat="43.484724" lon="-5.847937">
        <ele>110.6</ele>
        <time>2019-11-24T17:29:20Z</time>
      </trkpt>
      <trkpt lat="43.484778" lon="-5.847763">
        <ele>110.6</ele>
        <time>2019-11-24T17:29:21Z</time>
      </trkpt>
      <trkpt lat="43.484839" lon="-5.847597">
        <ele>110.2</ele>
        <time>2019-11-24T17:29:22Z</time>
      </trkpt>
      <trkpt lat="43.484909" lon="-5.84744">
        <ele>110</ele>
        <time>2019-11-24T17:29:23Z</time>
      </trkpt>
      <trkpt lat="43.484984" lon="-5.847291">
        <ele>109</ele>
        <time>2019-11-24T17:29:24Z</time>
      </trkpt>
      <trkpt lat="43.485067" lon="-5.84715">
        <ele>108.4</ele>
        <time>2019-11-24T17:29:25Z</time>
      </trkpt>
      <trkpt lat="43.485157" lon="-5.847016">
        <ele>107.4</ele>
        <time>2019-11-24T17:29:26Z</time>
      </trkpt>
      <trkpt lat="43.485251" lon="-5.846889">
        <ele>107.4</ele>
        <time>2019-11-24T17:29:27Z</time>
      </trkpt>
      <trkpt lat="43.485351" lon="-5.846769">
        <ele>106.2</ele>
        <time>2019-11-24T17:29:28Z</time>
      </trkpt>
      <trkpt lat="43.485454" lon="-5.846654">
        <ele>105.4</ele>
        <time>2019-11-24T17:29:29Z</time>
      </trkpt>
      <trkpt lat="43.485556" lon="-5.846537">
        <ele>104.8</ele>
        <time>2019-11-24T17:29:30Z</time>
      </trkpt>
      <trkpt lat="43.485654" lon="-5.846411">
        <ele>104</ele>
        <time>2019-11-24T17:29:31Z</time>
      </trkpt>
      <trkpt lat="43.485747" lon="-5.846281">
        <ele>104</ele>
        <time>2019-11-24T17:29:32Z</time>
      </trkpt>
      <trkpt lat="43.485836" lon="-5.846147">
        <ele>103.8</ele>
        <time>2019-11-24T17:29:33Z</time>
      </trkpt>
      <trkpt lat="43.485922" lon="-5.846014">
        <ele>102.4</ele>
        <time>2019-11-24T17:29:34Z</time>
      </trkpt>
      <trkpt lat="43.486007" lon="-5.84588">
        <ele>102.4</ele>
        <time>2019-11-24T17:29:35Z</time>
      </trkpt>
      <trkpt lat="43.486086" lon="-5.845742">
        <ele>100.8</ele>
        <time>2019-11-24T17:29:36Z</time>
      </trkpt>
      <trkpt lat="43.486152" lon="-5.845598">
        <ele>99</ele>
        <time>2019-11-24T17:29:37Z</time>
      </trkpt>
      <trkpt lat="43.486204" lon="-5.845443">
        <ele>97</ele>
        <time>2019-11-24T17:29:38Z</time>
      </trkpt>
      <trkpt lat="43.486245" lon="-5.84528">
        <ele>98</ele>
        <time>2019-11-24T17:29:39Z</time>
      </trkpt>
      <trkpt lat="43.486284" lon="-5.845118">
        <ele>96.8</ele>
        <time>2019-11-24T17:29:40Z</time>
      </trkpt>
      <trkpt lat="43.48633" lon="-5.844963">
        <ele>96.6</ele>
        <time>2019-11-24T17:29:41Z</time>
      </trkpt>
      <trkpt lat="43.486389" lon="-5.84482">
        <ele>97.6</ele>
        <time>2019-11-24T17:29:42Z</time>
      </trkpt>
      <trkpt lat="43.486462" lon="-5.84469">
        <ele>96.4</ele>
        <time>2019-11-24T17:29:43Z</time>
      </trkpt>
      <trkpt lat="43.486548" lon="-5.844581">
        <ele>96</ele>
        <time>2019-11-24T17:29:44Z</time>
      </trkpt>
      <trkpt lat="43.486659" lon="-5.8445">
        <ele>97</ele>
        <time>2019-11-24T17:29:45Z</time>
      </trkpt>
      <trkpt lat="43.486774" lon="-5.844441">
        <ele>98.2</ele>
        <time>2019-11-24T17:29:46Z</time>
      </trkpt>
      <trkpt lat="43.486892" lon="-5.84441">
        <ele>93</ele>
        <time>2019-11-24T17:29:47Z</time>
      </trkpt>
      <trkpt lat="43.487012" lon="-5.844397">
        <ele>92.6</ele>
        <time>2019-11-24T17:29:48Z</time>
      </trkpt>
      <trkpt lat="43.487132" lon="-5.844397">
        <ele>93</ele>
        <time>2019-11-24T17:29:49Z</time>
      </trkpt>
      <trkpt lat="43.487252" lon="-5.844414">
        <ele>93.4</ele>
        <time>2019-11-24T17:29:50Z</time>
      </trkpt>
      <trkpt lat="43.487368" lon="-5.844456">
        <ele>91.8</ele>
        <time>2019-11-24T17:29:51Z</time>
      </trkpt>
      <trkpt lat="43.487479" lon="-5.84453">
        <ele>93</ele>
        <time>2019-11-24T17:29:52Z</time>
      </trkpt>
      <trkpt lat="43.487577" lon="-5.84463">
        <ele>93</ele>
        <time>2019-11-24T17:29:53Z</time>
      </trkpt>
      <trkpt lat="43.487666" lon="-5.844746">
        <ele>92</ele>
        <time>2019-11-24T17:29:54Z</time>
      </trkpt>
      <trkpt lat="43.487752" lon="-5.844861">
        <ele>91.8</ele>
        <time>2019-11-24T17:29:55Z</time>
      </trkpt>
      <trkpt lat="43.48784" lon="-5.844973">
        <ele>91.6</ele>
        <time>2019-11-24T17:29:56Z</time>
      </trkpt>
      <trkpt lat="43.487926" lon="-5.845082">
        <ele>91.8</ele>
        <time>2019-11-24T17:29:57Z</time>
      </trkpt>
      <trkpt lat="43.488012" lon="-5.84519">
        <ele>91.6</ele>
        <time>2019-11-24T17:29:58Z</time>
      </trkpt>
      <trkpt lat="43.488099" lon="-5.845297">
        <ele>90.8</ele>
        <time>2019-11-24T17:29:59Z</time>
      </trkpt>
      <trkpt lat="43.488184" lon="-5.845403">
        <ele>91.2</ele>
        <time>2019-11-24T17:30:00Z</time>
      </trkpt>
      <trkpt lat="43.488267" lon="-5.845508">
        <ele>91.4</ele>
        <time>2019-11-24T17:30:01Z</time>
      </trkpt>
      <trkpt lat="43.488349" lon="-5.845613">
        <ele>93</ele>
        <time>2019-11-24T17:30:02Z</time>
      </trkpt>
      <trkpt lat="43.488431" lon="-5.845719">
        <ele>93</ele>
        <time>2019-11-24T17:30:03Z</time>
      </trkpt>
      <trkpt lat="43.488513" lon="-5.845823">
        <ele>92.6</ele>
        <time>2019-11-24T17:30:04Z</time>
      </trkpt>
      <trkpt lat="43.488595" lon="-5.845925">
        <ele>92</ele>
        <time>2019-11-24T17:30:05Z</time>
      </trkpt>
      <trkpt lat="43.488676" lon="-5.846026">
        <ele>92.4</ele>
        <time>2019-11-24T17:30:06Z</time>
      </trkpt>
      <trkpt lat="43.488755" lon="-5.846125">
        <ele>92.6</ele>
        <time>2019-11-24T17:30:07Z</time>
      </trkpt>
      <trkpt lat="43.488833" lon="-5.846222">
        <ele>92.2</ele>
        <time>2019-11-24T17:30:08Z</time>
      </trkpt>
      <trkpt lat="43.48891" lon="-5.846317">
        <ele>93</ele>
        <time>2019-11-24T17:30:09Z</time>
      </trkpt>
      <trkpt lat="43.488985" lon="-5.846411">
        <ele>93.8</ele>
        <time>2019-11-24T17:30:10Z</time>
      </trkpt>
      <trkpt lat="43.489059" lon="-5.846506">
        <ele>93</ele>
        <time>2019-11-24T17:30:11Z</time>
      </trkpt>
      <trkpt lat="43.489132" lon="-5.8466">
        <ele>93</ele>
        <time>2019-11-24T17:30:12Z</time>
      </trkpt>
      <trkpt lat="43.489203" lon="-5.846692">
        <ele>92.6</ele>
        <time>2019-11-24T17:30:13Z</time>
      </trkpt>
      <trkpt lat="43.489273" lon="-5.846784">
        <ele>91.8</ele>
        <time>2019-11-24T17:30:14Z</time>
      </trkpt>
      <trkpt lat="43.489342" lon="-5.846873">
        <ele>92.6</ele>
        <time>2019-11-24T17:30:15Z</time>
      </trkpt>
      <trkpt lat="43.489412" lon="-5.846961">
        <ele>92.8</ele>
        <time>2019-11-24T17:30:16Z</time>
      </trkpt>
      <trkpt lat="43.489482" lon="-5.84705">
        <ele>93</ele>
        <time>2019-11-24T17:30:17Z</time>
      </trkpt>
      <trkpt lat="43.489552" lon="-5.847138">
        <ele>93.2</ele>
        <time>2019-11-24T17:30:18Z</time>
      </trkpt>
      <trkpt lat="43.489623" lon="-5.847227">
        <ele>92.4</ele>
        <time>2019-11-24T17:30:19Z</time>
      </trkpt>
      <trkpt lat="43.489693" lon="-5.847316">
        <ele>92.2</ele>
        <time>2019-11-24T17:30:20Z</time>
      </trkpt>
      <trkpt lat="43.489763" lon="-5.847405">
        <ele>91.4</ele>
        <time>2019-11-24T17:30:21Z</time>
      </trkpt>
      <trkpt lat="43.489832" lon="-5.847494">
        <ele>91.4</ele>
        <time>2019-11-24T17:30:22Z</time>
      </trkpt>
      <trkpt lat="43.489902" lon="-5.847583">
        <ele>91.8</ele>
        <time>2019-11-24T17:30:23Z</time>
      </trkpt>
      <trkpt lat="43.48997" lon="-5.847673">
        <ele>91.6</ele>
        <time>2019-11-24T17:30:24Z</time>
      </trkpt>
      <trkpt lat="43.490038" lon="-5.847762">
        <ele>91.2</ele>
        <time>2019-11-24T17:30:25Z</time>
      </trkpt>
      <trkpt lat="43.490108" lon="-5.84785">
        <ele>91.8</ele>
        <time>2019-11-24T17:30:26Z</time>
      </trkpt>
      <trkpt lat="43.490178" lon="-5.847937">
        <ele>92.2</ele>
        <time>2019-11-24T17:30:27Z</time>
      </trkpt>
      <trkpt lat="43.490247" lon="-5.848024">
        <ele>91.2</ele>
        <time>2019-11-24T17:30:28Z</time>
      </trkpt>
      <trkpt lat="43.490317" lon="-5.848112">
        <ele>92</ele>
        <time>2019-11-24T17:30:29Z</time>
      </trkpt>
      <trkpt lat="43.490386" lon="-5.848199">
        <ele>91.2</ele>
        <time>2019-11-24T17:30:30Z</time>
      </trkpt>
      <trkpt lat="43.490456" lon="-5.848288">
        <ele>91</ele>
        <time>2019-11-24T17:30:31Z</time>
      </trkpt>
      <trkpt lat="43.490525" lon="-5.848376">
        <ele>90.6</ele>
        <time>2019-11-24T17:30:32Z</time>
      </trkpt>
      <trkpt lat="43.490594" lon="-5.848465">
        <ele>90.8</ele>
        <time>2019-11-24T17:30:33Z</time>
      </trkpt>
      <trkpt lat="43.490664" lon="-5.848553">
        <ele>90.8</ele>
        <time>2019-11-24T17:30:34Z</time>
      </trkpt>
      <trkpt lat="43.490735" lon="-5.848641">
        <ele>91.4</ele>
        <time>2019-11-24T17:30:35Z</time>
      </trkpt>
      <trkpt lat="43.490805" lon="-5.848732">
        <ele>90.6</ele>
        <time>2019-11-24T17:30:36Z</time>
      </trkpt>
      <trkpt lat="43.490874" lon="-5.84882">
        <ele>90.6</ele>
        <time>2019-11-24T17:30:37Z</time>
      </trkpt>
      <trkpt lat="43.490945" lon="-5.848909">
        <ele>90.2</ele>
        <time>2019-11-24T17:30:38Z</time>
      </trkpt>
      <trkpt lat="43.491016" lon="-5.848998">
        <ele>90.2</ele>
        <time>2019-11-24T17:30:39Z</time>
      </trkpt>
      <trkpt lat="43.491087" lon="-5.849088">
        <ele>89.6</ele>
        <time>2019-11-24T17:30:40Z</time>
      </trkpt>
      <trkpt lat="43.491159" lon="-5.84918">
        <ele>89.4</ele>
        <time>2019-11-24T17:30:41Z</time>
      </trkpt>
      <trkpt lat="43.491232" lon="-5.849272">
        <ele>88.6</ele>
        <time>2019-11-24T17:30:42Z</time>
      </trkpt>
      <trkpt lat="43.491305" lon="-5.849366">
        <ele>88.6</ele>
        <time>2019-11-24T17:30:43Z</time>
      </trkpt>
      <trkpt lat="43.49138" lon="-5.849459">
        <ele>88</ele>
        <time>2019-11-24T17:30:44Z</time>
      </trkpt>
      <trkpt lat="43.491454" lon="-5.849552">
        <ele>87</ele>
        <time>2019-11-24T17:30:45Z</time>
      </trkpt>
      <trkpt lat="43.491529" lon="-5.849646">
        <ele>87.6</ele>
        <time>2019-11-24T17:30:46Z</time>
      </trkpt>
      <trkpt lat="43.491602" lon="-5.849741">
        <ele>87.2</ele>
        <time>2019-11-24T17:30:47Z</time>
      </trkpt>
      <trkpt lat="43.491676" lon="-5.849837">
        <ele>87.6</ele>
        <time>2019-11-24T17:30:48Z</time>
      </trkpt>
      <trkpt lat="43.491749" lon="-5.849931">
        <ele>86.6</ele>
        <time>2019-11-24T17:30:49Z</time>
      </trkpt>
      <trkpt lat="43.491822" lon="-5.850024">
        <ele>86</ele>
        <time>2019-11-24T17:30:50Z</time>
      </trkpt>
      <trkpt lat="43.491895" lon="-5.850118">
        <ele>86</ele>
        <time>2019-11-24T17:30:51Z</time>
      </trkpt>
      <trkpt lat="43.491968" lon="-5.850211">
        <ele>86.2</ele>
        <time>2019-11-24T17:30:52Z</time>
      </trkpt>
      <trkpt lat="43.492042" lon="-5.850305">
        <ele>85.2</ele>
        <time>2019-11-24T17:30:53Z</time>
      </trkpt>
      <trkpt lat="43.492117" lon="-5.850399">
        <ele>84.8</ele>
        <time>2019-11-24T17:30:54Z</time>
      </trkpt>
      <trkpt lat="43.492192" lon="-5.850495">
        <ele>85</ele>
        <time>2019-11-24T17:30:55Z</time>
      </trkpt>
      <trkpt lat="43.492267" lon="-5.850593">
        <ele>84.8</ele>
        <time>2019-11-24T17:30:56Z</time>
      </trkpt>
      <trkpt lat="43.492343" lon="-5.85069">
        <ele>84.8</ele>
        <time>2019-11-24T17:30:57Z</time>
      </trkpt>
      <trkpt lat="43.492419" lon="-5.850788">
        <ele>84.4</ele>
        <time>2019-11-24T17:30:58Z</time>
      </trkpt>
      <trkpt lat="43.492496" lon="-5.850885">
        <ele>83.8</ele>
        <time>2019-11-24T17:30:59Z</time>
      </trkpt>
      <trkpt lat="43.492572" lon="-5.850985">
        <ele>83.4</ele>
        <time>2019-11-24T17:31:00Z</time>
      </trkpt>
      <trkpt lat="43.492648" lon="-5.851082">
        <ele>83.4</ele>
        <time>2019-11-24T17:31:01Z</time>
      </trkpt>
      <trkpt lat="43.492723" lon="-5.851178">
        <ele>83.4</ele>
        <time>2019-11-24T17:31:02Z</time>
      </trkpt>
      <trkpt lat="43.492798" lon="-5.851273">
        <ele>83.4</ele>
        <time>2019-11-24T17:31:03Z</time>
      </trkpt>
      <trkpt lat="43.492873" lon="-5.851367">
        <ele>82.6</ele>
        <time>2019-11-24T17:31:04Z</time>
      </trkpt>
      <trkpt lat="43.492947" lon="-5.851461">
        <ele>82.4</ele>
        <time>2019-11-24T17:31:05Z</time>
      </trkpt>
      <trkpt lat="43.493021" lon="-5.851555">
        <ele>82.4</ele>
        <time>2019-11-24T17:31:06Z</time>
      </trkpt>
      <trkpt lat="43.493095" lon="-5.851649">
        <ele>82.4</ele>
        <time>2019-11-24T17:31:07Z</time>
      </trkpt>
      <trkpt lat="43.49317" lon="-5.851743">
        <ele>82.2</ele>
        <time>2019-11-24T17:31:08Z</time>
      </trkpt>
      <trkpt lat="43.493246" lon="-5.851837">
        <ele>82.2</ele>
        <time>2019-11-24T17:31:09Z</time>
      </trkpt>
      <trkpt lat="43.493321" lon="-5.851932">
        <ele>81.8</ele>
        <time>2019-11-24T17:31:10Z</time>
      </trkpt>
      <trkpt lat="43.493397" lon="-5.852026">
        <ele>82</ele>
        <time>2019-11-24T17:31:11Z</time>
      </trkpt>
      <trkpt lat="43.493472" lon="-5.852122">
        <ele>81.8</ele>
        <time>2019-11-24T17:31:12Z</time>
      </trkpt>
      <trkpt lat="43.493546" lon="-5.852218">
        <ele>82</ele>
        <time>2019-11-24T17:31:13Z</time>
      </trkpt>
      <trkpt lat="43.493621" lon="-5.852313">
        <ele>81.8</ele>
        <time>2019-11-24T17:31:14Z</time>
      </trkpt>
      <trkpt lat="43.493696" lon="-5.852409">
        <ele>81.4</ele>
        <time>2019-11-24T17:31:15Z</time>
      </trkpt>
      <trkpt lat="43.493771" lon="-5.852505">
        <ele>81.4</ele>
        <time>2019-11-24T17:31:16Z</time>
      </trkpt>
      <trkpt lat="43.493844" lon="-5.852602">
        <ele>80.4</ele>
        <time>2019-11-24T17:31:17Z</time>
      </trkpt>
      <trkpt lat="43.493918" lon="-5.852698">
        <ele>80.8</ele>
        <time>2019-11-24T17:31:18Z</time>
      </trkpt>
      <trkpt lat="43.493991" lon="-5.852793">
        <ele>80.6</ele>
        <time>2019-11-24T17:31:19Z</time>
      </trkpt>
      <trkpt lat="43.494065" lon="-5.852887">
        <ele>81</ele>
        <time>2019-11-24T17:31:20Z</time>
      </trkpt>
      <trkpt lat="43.494139" lon="-5.852979">
        <ele>80.6</ele>
        <time>2019-11-24T17:31:21Z</time>
      </trkpt>
      <trkpt lat="43.494213" lon="-5.853073">
        <ele>80.2</ele>
        <time>2019-11-24T17:31:22Z</time>
      </trkpt>
      <trkpt lat="43.494287" lon="-5.853166">
        <ele>80</ele>
        <time>2019-11-24T17:31:23Z</time>
      </trkpt>
      <trkpt lat="43.49436" lon="-5.853258">
        <ele>80.2</ele>
        <time>2019-11-24T17:31:24Z</time>
      </trkpt>
      <trkpt lat="43.494433" lon="-5.853348">
        <ele>80</ele>
        <time>2019-11-24T17:31:25Z</time>
      </trkpt>
      <trkpt lat="43.494505" lon="-5.853439">
        <ele>80.2</ele>
        <time>2019-11-24T17:31:26Z</time>
      </trkpt>
      <trkpt lat="43.494577" lon="-5.85353">
        <ele>79.8</ele>
        <time>2019-11-24T17:31:27Z</time>
      </trkpt>
      <trkpt lat="43.49465" lon="-5.85362">
        <ele>80</ele>
        <time>2019-11-24T17:31:28Z</time>
      </trkpt>
      <trkpt lat="43.494722" lon="-5.853711">
        <ele>80</ele>
        <time>2019-11-24T17:31:29Z</time>
      </trkpt>
      <trkpt lat="43.494794" lon="-5.853801">
        <ele>80.2</ele>
        <time>2019-11-24T17:31:30Z</time>
      </trkpt>
      <trkpt lat="43.494865" lon="-5.853891">
        <ele>80.2</ele>
        <time>2019-11-24T17:31:31Z</time>
      </trkpt>
      <trkpt lat="43.494936" lon="-5.85398">
        <ele>80</ele>
        <time>2019-11-24T17:31:32Z</time>
      </trkpt>
      <trkpt lat="43.495006" lon="-5.854069">
        <ele>80.8</ele>
        <time>2019-11-24T17:31:33Z</time>
      </trkpt>
      <trkpt lat="43.495076" lon="-5.854157">
        <ele>80.8</ele>
        <time>2019-11-24T17:31:34Z</time>
      </trkpt>
      <trkpt lat="43.495146" lon="-5.854245">
        <ele>80.6</ele>
        <time>2019-11-24T17:31:35Z</time>
      </trkpt>
      <trkpt lat="43.495215" lon="-5.854334">
        <ele>80.8</ele>
        <time>2019-11-24T17:31:36Z</time>
      </trkpt>
      <trkpt lat="43.495284" lon="-5.854422">
        <ele>81</ele>
        <time>2019-11-24T17:31:37Z</time>
      </trkpt>
      <trkpt lat="43.495354" lon="-5.85451">
        <ele>81.4</ele>
        <time>2019-11-24T17:31:38Z</time>
      </trkpt>
      <trkpt lat="43.495423" lon="-5.854598">
        <ele>81</ele>
        <time>2019-11-24T17:31:39Z</time>
      </trkpt>
      <trkpt lat="43.495491" lon="-5.854687">
        <ele>81.8</ele>
        <time>2019-11-24T17:31:40Z</time>
      </trkpt>
      <trkpt lat="43.495559" lon="-5.854774">
        <ele>81.8</ele>
        <time>2019-11-24T17:31:41Z</time>
      </trkpt>
      <trkpt lat="43.495626" lon="-5.854859">
        <ele>82</ele>
        <time>2019-11-24T17:31:42Z</time>
      </trkpt>
      <trkpt lat="43.495693" lon="-5.854942">
        <ele>82</ele>
        <time>2019-11-24T17:31:43Z</time>
      </trkpt>
      <trkpt lat="43.49576" lon="-5.855025">
        <ele>82.2</ele>
        <time>2019-11-24T17:31:44Z</time>
      </trkpt>
      <trkpt lat="43.495826" lon="-5.85511">
        <ele>82.6</ele>
        <time>2019-11-24T17:31:45Z</time>
      </trkpt>
      <trkpt lat="43.495893" lon="-5.855196">
        <ele>82.2</ele>
        <time>2019-11-24T17:31:46Z</time>
      </trkpt>
      <trkpt lat="43.495959" lon="-5.855281">
        <ele>82.2</ele>
        <time>2019-11-24T17:31:47Z</time>
      </trkpt>
      <trkpt lat="43.496024" lon="-5.855363">
        <ele>82.4</ele>
        <time>2019-11-24T17:31:48Z</time>
      </trkpt>
      <trkpt lat="43.496089" lon="-5.855445">
        <ele>82.2</ele>
        <time>2019-11-24T17:31:49Z</time>
      </trkpt>
      <trkpt lat="43.496152" lon="-5.855526">
        <ele>82.4</ele>
        <time>2019-11-24T17:31:50Z</time>
      </trkpt>
      <trkpt lat="43.496217" lon="-5.855608">
        <ele>82.2</ele>
        <time>2019-11-24T17:31:51Z</time>
      </trkpt>
      <trkpt lat="43.496281" lon="-5.855691">
        <ele>82.2</ele>
        <time>2019-11-24T17:31:52Z</time>
      </trkpt>
      <trkpt lat="43.496346" lon="-5.855775">
        <ele>81.6</ele>
        <time>2019-11-24T17:31:53Z</time>
      </trkpt>
      <trkpt lat="43.496414" lon="-5.85586">
        <ele>81.2</ele>
        <time>2019-11-24T17:31:54Z</time>
      </trkpt>
      <trkpt lat="43.496483" lon="-5.855946">
        <ele>80.2</ele>
        <time>2019-11-24T17:31:55Z</time>
      </trkpt>
      <trkpt lat="43.496554" lon="-5.856034">
        <ele>79.8</ele>
        <time>2019-11-24T17:31:56Z</time>
      </trkpt>
      <trkpt lat="43.496627" lon="-5.856123">
        <ele>79.4</ele>
        <time>2019-11-24T17:31:57Z</time>
      </trkpt>
      <trkpt lat="43.4967" lon="-5.856216">
        <ele>79.2</ele>
        <time>2019-11-24T17:31:58Z</time>
      </trkpt>
      <trkpt lat="43.496774" lon="-5.85631">
        <ele>79</ele>
        <time>2019-11-24T17:31:59Z</time>
      </trkpt>
      <trkpt lat="43.496849" lon="-5.856406">
        <ele>77.6</ele>
        <time>2019-11-24T17:32:00Z</time>
      </trkpt>
      <trkpt lat="43.496926" lon="-5.856503">
        <ele>77.6</ele>
        <time>2019-11-24T17:32:01Z</time>
      </trkpt>
      <trkpt lat="43.497004" lon="-5.856601">
        <ele>77.2</ele>
        <time>2019-11-24T17:32:02Z</time>
      </trkpt>
      <trkpt lat="43.49708" lon="-5.856698">
        <ele>77.6</ele>
        <time>2019-11-24T17:32:03Z</time>
      </trkpt>
      <trkpt lat="43.497156" lon="-5.856794">
        <ele>77.6</ele>
        <time>2019-11-24T17:32:04Z</time>
      </trkpt>
      <trkpt lat="43.497232" lon="-5.856889">
        <ele>77.4</ele>
        <time>2019-11-24T17:32:05Z</time>
      </trkpt>
      <trkpt lat="43.497308" lon="-5.856983">
        <ele>77.4</ele>
        <time>2019-11-24T17:32:06Z</time>
      </trkpt>
      <trkpt lat="43.497384" lon="-5.857077">
        <ele>76.8</ele>
        <time>2019-11-24T17:32:07Z</time>
      </trkpt>
      <trkpt lat="43.497459" lon="-5.85717">
        <ele>77.2</ele>
        <time>2019-11-24T17:32:08Z</time>
      </trkpt>
      <trkpt lat="43.497534" lon="-5.857261">
        <ele>76.6</ele>
        <time>2019-11-24T17:32:09Z</time>
      </trkpt>
      <trkpt lat="43.49761" lon="-5.857351">
        <ele>77</ele>
        <time>2019-11-24T17:32:10Z</time>
      </trkpt>
      <trkpt lat="43.497687" lon="-5.857438">
        <ele>77</ele>
        <time>2019-11-24T17:32:11Z</time>
      </trkpt>
      <trkpt lat="43.497765" lon="-5.857524">
        <ele>76.6</ele>
        <time>2019-11-24T17:32:12Z</time>
      </trkpt>
      <trkpt lat="43.497845" lon="-5.857608">
        <ele>76.6</ele>
        <time>2019-11-24T17:32:13Z</time>
      </trkpt>
      <trkpt lat="43.497923" lon="-5.857691">
        <ele>76.6</ele>
        <time>2019-11-24T17:32:14Z</time>
      </trkpt>
      <trkpt lat="43.498003" lon="-5.857773">
        <ele>76.6</ele>
        <time>2019-11-24T17:32:15Z</time>
      </trkpt>
      <trkpt lat="43.498084" lon="-5.857853">
        <ele>76.4</ele>
        <time>2019-11-24T17:32:16Z</time>
      </trkpt>
      <trkpt lat="43.498164" lon="-5.857932">
        <ele>76</ele>
        <time>2019-11-24T17:32:17Z</time>
      </trkpt>
      <trkpt lat="43.498244" lon="-5.858011">
        <ele>76.4</ele>
        <time>2019-11-24T17:32:18Z</time>
      </trkpt>
      <trkpt lat="43.498324" lon="-5.858091">
        <ele>75.4</ele>
        <time>2019-11-24T17:32:19Z</time>
      </trkpt>
      <trkpt lat="43.498404" lon="-5.858168">
        <ele>76</ele>
        <time>2019-11-24T17:32:20Z</time>
      </trkpt>
      <trkpt lat="43.498484" lon="-5.858248">
        <ele>75.6</ele>
        <time>2019-11-24T17:32:21Z</time>
      </trkpt>
      <trkpt lat="43.498565" lon="-5.858327">
        <ele>75.6</ele>
        <time>2019-11-24T17:32:22Z</time>
      </trkpt>
      <trkpt lat="43.498646" lon="-5.858406">
        <ele>75.2</ele>
        <time>2019-11-24T17:32:23Z</time>
      </trkpt>
      <trkpt lat="43.498727" lon="-5.858486">
        <ele>76</ele>
        <time>2019-11-24T17:32:24Z</time>
      </trkpt>
      <trkpt lat="43.498809" lon="-5.858566">
        <ele>75.6</ele>
        <time>2019-11-24T17:32:25Z</time>
      </trkpt>
      <trkpt lat="43.498891" lon="-5.858647">
        <ele>75</ele>
        <time>2019-11-24T17:32:26Z</time>
      </trkpt>
      <trkpt lat="43.498973" lon="-5.85873">
        <ele>75</ele>
        <time>2019-11-24T17:32:27Z</time>
      </trkpt>
      <trkpt lat="43.499055" lon="-5.858813">
        <ele>74.8</ele>
        <time>2019-11-24T17:32:28Z</time>
      </trkpt>
      <trkpt lat="43.499139" lon="-5.858896">
        <ele>74.4</ele>
        <time>2019-11-24T17:32:29Z</time>
      </trkpt>
      <trkpt lat="43.499224" lon="-5.858979">
        <ele>73.8</ele>
        <time>2019-11-24T17:32:30Z</time>
      </trkpt>
      <trkpt lat="43.499309" lon="-5.859062">
        <ele>73.6</ele>
        <time>2019-11-24T17:32:31Z</time>
      </trkpt>
      <trkpt lat="43.499395" lon="-5.859147">
        <ele>73.2</ele>
        <time>2019-11-24T17:32:32Z</time>
      </trkpt>
      <trkpt lat="43.499482" lon="-5.859232">
        <ele>72.6</ele>
        <time>2019-11-24T17:32:33Z</time>
      </trkpt>
      <trkpt lat="43.499569" lon="-5.859318">
        <ele>72.4</ele>
        <time>2019-11-24T17:32:34Z</time>
      </trkpt>
      <trkpt lat="43.499656" lon="-5.859405">
        <ele>72.4</ele>
        <time>2019-11-24T17:32:35Z</time>
      </trkpt>
      <trkpt lat="43.499742" lon="-5.859493">
        <ele>71.8</ele>
        <time>2019-11-24T17:32:36Z</time>
      </trkpt>
      <trkpt lat="43.49983" lon="-5.859579">
        <ele>71.8</ele>
        <time>2019-11-24T17:32:37Z</time>
      </trkpt>
      <trkpt lat="43.499918" lon="-5.859664">
        <ele>71.6</ele>
        <time>2019-11-24T17:32:38Z</time>
      </trkpt>
      <trkpt lat="43.500005" lon="-5.859748">
        <ele>71.2</ele>
        <time>2019-11-24T17:32:39Z</time>
      </trkpt>
      <trkpt lat="43.500093" lon="-5.859834">
        <ele>71.2</ele>
        <time>2019-11-24T17:32:40Z</time>
      </trkpt>
      <trkpt lat="43.50018" lon="-5.85992">
        <ele>71.2</ele>
        <time>2019-11-24T17:32:41Z</time>
      </trkpt>
      <trkpt lat="43.500266" lon="-5.860005">
        <ele>70.6</ele>
        <time>2019-11-24T17:32:42Z</time>
      </trkpt>
      <trkpt lat="43.500352" lon="-5.86009">
        <ele>70.4</ele>
        <time>2019-11-24T17:32:43Z</time>
      </trkpt>
      <trkpt lat="43.500439" lon="-5.860174">
        <ele>70.8</ele>
        <time>2019-11-24T17:32:44Z</time>
      </trkpt>
      <trkpt lat="43.500524" lon="-5.860259">
        <ele>70.6</ele>
        <time>2019-11-24T17:32:45Z</time>
      </trkpt>
      <trkpt lat="43.500609" lon="-5.860343">
        <ele>70.4</ele>
        <time>2019-11-24T17:32:46Z</time>
      </trkpt>
      <trkpt lat="43.500694" lon="-5.860428">
        <ele>70</ele>
        <time>2019-11-24T17:32:47Z</time>
      </trkpt>
      <trkpt lat="43.500778" lon="-5.860512">
        <ele>70</ele>
        <time>2019-11-24T17:32:48Z</time>
      </trkpt>
      <trkpt lat="43.500862" lon="-5.860595">
        <ele>69.4</ele>
        <time>2019-11-24T17:32:49Z</time>
      </trkpt>
      <trkpt lat="43.500947" lon="-5.860678">
        <ele>69.6</ele>
        <time>2019-11-24T17:32:50Z</time>
      </trkpt>
      <trkpt lat="43.50103" lon="-5.86076">
        <ele>69.8</ele>
        <time>2019-11-24T17:32:51Z</time>
      </trkpt>
      <trkpt lat="43.501113" lon="-5.860843">
        <ele>69.6</ele>
        <time>2019-11-24T17:32:52Z</time>
      </trkpt>
      <trkpt lat="43.501196" lon="-5.860924">
        <ele>69.4</ele>
        <time>2019-11-24T17:32:53Z</time>
      </trkpt>
      <trkpt lat="43.501279" lon="-5.861007">
        <ele>69.6</ele>
        <time>2019-11-24T17:32:54Z</time>
      </trkpt>
      <trkpt lat="43.501362" lon="-5.861088">
        <ele>69.6</ele>
        <time>2019-11-24T17:32:55Z</time>
      </trkpt>
      <trkpt lat="43.501445" lon="-5.86117">
        <ele>69</ele>
        <time>2019-11-24T17:32:56Z</time>
      </trkpt>
      <trkpt lat="43.501528" lon="-5.86125">
        <ele>69</ele>
        <time>2019-11-24T17:32:57Z</time>
      </trkpt>
      <trkpt lat="43.501611" lon="-5.861332">
        <ele>69.4</ele>
        <time>2019-11-24T17:32:58Z</time>
      </trkpt>
      <trkpt lat="43.501693" lon="-5.861413">
        <ele>69.4</ele>
        <time>2019-11-24T17:32:59Z</time>
      </trkpt>
      <trkpt lat="43.501775" lon="-5.861495">
        <ele>69</ele>
        <time>2019-11-24T17:33:00Z</time>
      </trkpt>
      <trkpt lat="43.501857" lon="-5.861577">
        <ele>68.6</ele>
        <time>2019-11-24T17:33:01Z</time>
      </trkpt>
      <trkpt lat="43.50194" lon="-5.861659">
        <ele>68.8</ele>
        <time>2019-11-24T17:33:02Z</time>
      </trkpt>
      <trkpt lat="43.502023" lon="-5.861742">
        <ele>69.2</ele>
        <time>2019-11-24T17:33:03Z</time>
      </trkpt>
      <trkpt lat="43.502106" lon="-5.861824">
        <ele>68.8</ele>
        <time>2019-11-24T17:33:04Z</time>
      </trkpt>
      <trkpt lat="43.502189" lon="-5.861906">
        <ele>68.8</ele>
        <time>2019-11-24T17:33:05Z</time>
      </trkpt>
      <trkpt lat="43.502272" lon="-5.861987">
        <ele>68.8</ele>
        <time>2019-11-24T17:33:06Z</time>
      </trkpt>
      <trkpt lat="43.502355" lon="-5.862069">
        <ele>68.4</ele>
        <time>2019-11-24T17:33:07Z</time>
      </trkpt>
      <trkpt lat="43.502438" lon="-5.862152">
        <ele>68</ele>
        <time>2019-11-24T17:33:08Z</time>
      </trkpt>
      <trkpt lat="43.502522" lon="-5.862234">
        <ele>68.4</ele>
        <time>2019-11-24T17:33:09Z</time>
      </trkpt>
      <trkpt lat="43.502606" lon="-5.862318">
        <ele>68.4</ele>
        <time>2019-11-24T17:33:10Z</time>
      </trkpt>
      <trkpt lat="43.502689" lon="-5.862403">
        <ele>67.8</ele>
        <time>2019-11-24T17:33:11Z</time>
      </trkpt>
      <trkpt lat="43.502772" lon="-5.86249">
        <ele>67.4</ele>
        <time>2019-11-24T17:33:12Z</time>
      </trkpt>
      <trkpt lat="43.502854" lon="-5.862575">
        <ele>68</ele>
        <time>2019-11-24T17:33:13Z</time>
      </trkpt>
      <trkpt lat="43.502936" lon="-5.862658">
        <ele>67.6</ele>
        <time>2019-11-24T17:33:14Z</time>
      </trkpt>
      <trkpt lat="43.503017" lon="-5.862741">
        <ele>67.8</ele>
        <time>2019-11-24T17:33:15Z</time>
      </trkpt>
      <trkpt lat="43.503097" lon="-5.862824">
        <ele>68</ele>
        <time>2019-11-24T17:33:16Z</time>
      </trkpt>
      <trkpt lat="43.503175" lon="-5.862909">
        <ele>68.6</ele>
        <time>2019-11-24T17:33:17Z</time>
      </trkpt>
      <trkpt lat="43.503248" lon="-5.862998">
        <ele>68.2</ele>
        <time>2019-11-24T17:33:18Z</time>
      </trkpt>
      <trkpt lat="43.503316" lon="-5.863093">
        <ele>67.8</ele>
        <time>2019-11-24T17:33:19Z</time>
      </trkpt>
      <trkpt lat="43.503382" lon="-5.863193">
        <ele>67.4</ele>
        <time>2019-11-24T17:33:20Z</time>
      </trkpt>
      <trkpt lat="43.503446" lon="-5.863297">
        <ele>67.4</ele>
        <time>2019-11-24T17:33:21Z</time>
      </trkpt>
      <trkpt lat="43.503508" lon="-5.863403">
        <ele>67.2</ele>
        <time>2019-11-24T17:33:22Z</time>
      </trkpt>
      <trkpt lat="43.50357" lon="-5.863512">
        <ele>66.6</ele>
        <time>2019-11-24T17:33:23Z</time>
      </trkpt>
      <trkpt lat="43.503631" lon="-5.86362">
        <ele>66.4</ele>
        <time>2019-11-24T17:33:24Z</time>
      </trkpt>
      <trkpt lat="43.503694" lon="-5.863726">
        <ele>66.6</ele>
        <time>2019-11-24T17:33:25Z</time>
      </trkpt>
      <trkpt lat="43.503758" lon="-5.863831">
        <ele>66.4</ele>
        <time>2019-11-24T17:33:26Z</time>
      </trkpt>
      <trkpt lat="43.503823" lon="-5.863934">
        <ele>65.8</ele>
        <time>2019-11-24T17:33:27Z</time>
      </trkpt>
      <trkpt lat="43.503889" lon="-5.864037">
        <ele>65.6</ele>
        <time>2019-11-24T17:33:28Z</time>
      </trkpt>
      <trkpt lat="43.503956" lon="-5.864139">
        <ele>65.6</ele>
        <time>2019-11-24T17:33:29Z</time>
      </trkpt>
      <trkpt lat="43.504023" lon="-5.864243">
        <ele>65.6</ele>
        <time>2019-11-24T17:33:30Z</time>
      </trkpt>
      <trkpt lat="43.504089" lon="-5.864346">
        <ele>65.6</ele>
        <time>2019-11-24T17:33:31Z</time>
      </trkpt>
      <trkpt lat="43.504156" lon="-5.864448">
        <ele>65</ele>
        <time>2019-11-24T17:33:32Z</time>
      </trkpt>
      <trkpt lat="43.504222" lon="-5.864551">
        <ele>65</ele>
        <time>2019-11-24T17:33:33Z</time>
      </trkpt>
      <trkpt lat="43.504289" lon="-5.864655">
        <ele>64.8</ele>
        <time>2019-11-24T17:33:34Z</time>
      </trkpt>
      <trkpt lat="43.504356" lon="-5.864759">
        <ele>64.6</ele>
        <time>2019-11-24T17:33:35Z</time>
      </trkpt>
      <trkpt lat="43.504424" lon="-5.864864">
        <ele>64.4</ele>
        <time>2019-11-24T17:33:36Z</time>
      </trkpt>
      <trkpt lat="43.504494" lon="-5.86497">
        <ele>64.2</ele>
        <time>2019-11-24T17:33:37Z</time>
      </trkpt>
      <trkpt lat="43.504564" lon="-5.865076">
        <ele>63.4</ele>
        <time>2019-11-24T17:33:38Z</time>
      </trkpt>
      <trkpt lat="43.504636" lon="-5.865181">
        <ele>63</ele>
        <time>2019-11-24T17:33:39Z</time>
      </trkpt>
      <trkpt lat="43.504709" lon="-5.865284">
        <ele>63</ele>
        <time>2019-11-24T17:33:40Z</time>
      </trkpt>
      <trkpt lat="43.504782" lon="-5.865385">
        <ele>62.6</ele>
        <time>2019-11-24T17:33:41Z</time>
      </trkpt>
      <trkpt lat="43.504857" lon="-5.865486">
        <ele>63.8</ele>
        <time>2019-11-24T17:33:42Z</time>
      </trkpt>
      <trkpt lat="43.504933" lon="-5.865583">
        <ele>62.2</ele>
        <time>2019-11-24T17:33:43Z</time>
      </trkpt>
      <trkpt lat="43.505011" lon="-5.865677">
        <ele>62.2</ele>
        <time>2019-11-24T17:33:44Z</time>
      </trkpt>
      <trkpt lat="43.505091" lon="-5.865768">
        <ele>61.4</ele>
        <time>2019-11-24T17:33:45Z</time>
      </trkpt>
      <trkpt lat="43.505173" lon="-5.865858">
        <ele>60.8</ele>
        <time>2019-11-24T17:33:46Z</time>
      </trkpt>
      <trkpt lat="43.505256" lon="-5.865945">
        <ele>61.2</ele>
        <time>2019-11-24T17:33:47Z</time>
      </trkpt>
      <trkpt lat="43.505341" lon="-5.866026">
        <ele>61.4</ele>
        <time>2019-11-24T17:33:48Z</time>
      </trkpt>
      <trkpt lat="43.505431" lon="-5.866099">
        <ele>60.6</ele>
        <time>2019-11-24T17:33:49Z</time>
      </trkpt>
      <trkpt lat="43.505522" lon="-5.866165">
        <ele>60.4</ele>
        <time>2019-11-24T17:33:50Z</time>
      </trkpt>
      <trkpt lat="43.505616" lon="-5.866225">
        <ele>60.6</ele>
        <time>2019-11-24T17:33:51Z</time>
      </trkpt>
      <trkpt lat="43.505712" lon="-5.866278">
        <ele>60.2</ele>
        <time>2019-11-24T17:33:52Z</time>
      </trkpt>
      <trkpt lat="43.50581" lon="-5.866325">
        <ele>60.2</ele>
        <time>2019-11-24T17:33:53Z</time>
      </trkpt>
      <trkpt lat="43.505909" lon="-5.86637">
        <ele>60.2</ele>
        <time>2019-11-24T17:33:54Z</time>
      </trkpt>
      <trkpt lat="43.506008" lon="-5.866416">
        <ele>60</ele>
        <time>2019-11-24T17:33:55Z</time>
      </trkpt>
      <trkpt lat="43.506107" lon="-5.866461">
        <ele>59.2</ele>
        <time>2019-11-24T17:33:56Z</time>
      </trkpt>
      <trkpt lat="43.506206" lon="-5.866503">
        <ele>59</ele>
        <time>2019-11-24T17:33:57Z</time>
      </trkpt>
      <trkpt lat="43.506305" lon="-5.866546">
        <ele>58.6</ele>
        <time>2019-11-24T17:33:58Z</time>
      </trkpt>
      <trkpt lat="43.506403" lon="-5.86659">
        <ele>58.4</ele>
        <time>2019-11-24T17:33:59Z</time>
      </trkpt>
      <trkpt lat="43.506502" lon="-5.866634">
        <ele>58.2</ele>
        <time>2019-11-24T17:34:00Z</time>
      </trkpt>
      <trkpt lat="43.506602" lon="-5.866677">
        <ele>58.2</ele>
        <time>2019-11-24T17:34:01Z</time>
      </trkpt>
      <trkpt lat="43.5067" lon="-5.866718">
        <ele>58.2</ele>
        <time>2019-11-24T17:34:02Z</time>
      </trkpt>
      <trkpt lat="43.506799" lon="-5.86676">
        <ele>57</ele>
        <time>2019-11-24T17:34:03Z</time>
      </trkpt>
      <trkpt lat="43.506897" lon="-5.866802">
        <ele>57.8</ele>
        <time>2019-11-24T17:34:04Z</time>
      </trkpt>
      <trkpt lat="43.506994" lon="-5.866843">
        <ele>58</ele>
        <time>2019-11-24T17:34:05Z</time>
      </trkpt>
      <trkpt lat="43.50709" lon="-5.866884">
        <ele>57.6</ele>
        <time>2019-11-24T17:34:06Z</time>
      </trkpt>
      <trkpt lat="43.507187" lon="-5.866925">
        <ele>58.4</ele>
        <time>2019-11-24T17:34:07Z</time>
      </trkpt>
      <trkpt lat="43.507283" lon="-5.866965">
        <ele>57.2</ele>
        <time>2019-11-24T17:34:08Z</time>
      </trkpt>
      <trkpt lat="43.507378" lon="-5.867006">
        <ele>56.8</ele>
        <time>2019-11-24T17:34:09Z</time>
      </trkpt>
      <trkpt lat="43.507474" lon="-5.867048">
        <ele>56.6</ele>
        <time>2019-11-24T17:34:10Z</time>
      </trkpt>
      <trkpt lat="43.50757" lon="-5.86709">
        <ele>57</ele>
        <time>2019-11-24T17:34:11Z</time>
      </trkpt>
      <trkpt lat="43.507665" lon="-5.867132">
        <ele>56.4</ele>
        <time>2019-11-24T17:34:12Z</time>
      </trkpt>
      <trkpt lat="43.50776" lon="-5.867174">
        <ele>56.8</ele>
        <time>2019-11-24T17:34:13Z</time>
      </trkpt>
      <trkpt lat="43.507855" lon="-5.867215">
        <ele>56.4</ele>
        <time>2019-11-24T17:34:14Z</time>
      </trkpt>
      <trkpt lat="43.50795" lon="-5.867255">
        <ele>56.8</ele>
        <time>2019-11-24T17:34:15Z</time>
      </trkpt>
      <trkpt lat="43.508044" lon="-5.867296">
        <ele>56.4</ele>
        <time>2019-11-24T17:34:16Z</time>
      </trkpt>
      <trkpt lat="43.508138" lon="-5.867336">
        <ele>56.8</ele>
        <time>2019-11-24T17:34:17Z</time>
      </trkpt>
      <trkpt lat="43.508232" lon="-5.867376">
        <ele>56.8</ele>
        <time>2019-11-24T17:34:18Z</time>
      </trkpt>
      <trkpt lat="43.508327" lon="-5.867416">
        <ele>57</ele>
        <time>2019-11-24T17:34:19Z</time>
      </trkpt>
      <trkpt lat="43.50842" lon="-5.867457">
        <ele>58</ele>
        <time>2019-11-24T17:34:20Z</time>
      </trkpt>
      <trkpt lat="43.508513" lon="-5.867498">
        <ele>57.4</ele>
        <time>2019-11-24T17:34:21Z</time>
      </trkpt>
      <trkpt lat="43.508605" lon="-5.867537">
        <ele>56.8</ele>
        <time>2019-11-24T17:34:22Z</time>
      </trkpt>
      <trkpt lat="43.508695" lon="-5.867577">
        <ele>57.2</ele>
        <time>2019-11-24T17:34:23Z</time>
      </trkpt>
      <trkpt lat="43.508784" lon="-5.867619">
        <ele>57</ele>
        <time>2019-11-24T17:34:24Z</time>
      </trkpt>
      <trkpt lat="43.508871" lon="-5.867659">
        <ele>56.6</ele>
        <time>2019-11-24T17:34:25Z</time>
      </trkpt>
      <trkpt lat="43.508956" lon="-5.867697">
        <ele>56.4</ele>
        <time>2019-11-24T17:34:26Z</time>
      </trkpt>
      <trkpt lat="43.50904" lon="-5.867735">
        <ele>56.6</ele>
        <time>2019-11-24T17:34:27Z</time>
      </trkpt>
      <trkpt lat="43.509124" lon="-5.867772">
        <ele>57</ele>
        <time>2019-11-24T17:34:28Z</time>
      </trkpt>
      <trkpt lat="43.509206" lon="-5.867808">
        <ele>56.8</ele>
        <time>2019-11-24T17:34:29Z</time>
      </trkpt>
      <trkpt lat="43.509287" lon="-5.867846">
        <ele>56.6</ele>
        <time>2019-11-24T17:34:30Z</time>
      </trkpt>
      <trkpt lat="43.509368" lon="-5.867879">
        <ele>56.8</ele>
        <time>2019-11-24T17:34:31Z</time>
      </trkpt>
      <trkpt lat="43.50945" lon="-5.86791">
        <ele>57.2</ele>
        <time>2019-11-24T17:34:32Z</time>
      </trkpt>
      <trkpt lat="43.509532" lon="-5.867942">
        <ele>56.6</ele>
        <time>2019-11-24T17:34:33Z</time>
      </trkpt>
      <trkpt lat="43.509616" lon="-5.867975">
        <ele>57</ele>
        <time>2019-11-24T17:34:34Z</time>
      </trkpt>
      <trkpt lat="43.509701" lon="-5.86801">
        <ele>57</ele>
        <time>2019-11-24T17:34:35Z</time>
      </trkpt>
      <trkpt lat="43.509785" lon="-5.868047">
        <ele>57.2</ele>
        <time>2019-11-24T17:34:36Z</time>
      </trkpt>
      <trkpt lat="43.50987" lon="-5.868085">
        <ele>56.8</ele>
        <time>2019-11-24T17:34:37Z</time>
      </trkpt>
      <trkpt lat="43.509955" lon="-5.868122">
        <ele>56.4</ele>
        <time>2019-11-24T17:34:38Z</time>
      </trkpt>
      <trkpt lat="43.51004" lon="-5.868158">
        <ele>56.2</ele>
        <time>2019-11-24T17:34:39Z</time>
      </trkpt>
      <trkpt lat="43.510124" lon="-5.868196">
        <ele>56</ele>
        <time>2019-11-24T17:34:40Z</time>
      </trkpt>
      <trkpt lat="43.510207" lon="-5.868235">
        <ele>56</ele>
        <time>2019-11-24T17:34:41Z</time>
      </trkpt>
      <trkpt lat="43.510291" lon="-5.868273">
        <ele>56</ele>
        <time>2019-11-24T17:34:42Z</time>
      </trkpt>
      <trkpt lat="43.510375" lon="-5.868309">
        <ele>56.2</ele>
        <time>2019-11-24T17:34:43Z</time>
      </trkpt>
      <trkpt lat="43.510459" lon="-5.868346">
        <ele>56</ele>
        <time>2019-11-24T17:34:44Z</time>
      </trkpt>
      <trkpt lat="43.510543" lon="-5.868383">
        <ele>55.8</ele>
        <time>2019-11-24T17:34:45Z</time>
      </trkpt>
      <trkpt lat="43.510626" lon="-5.86842">
        <ele>55.8</ele>
        <time>2019-11-24T17:34:46Z</time>
      </trkpt>
      <trkpt lat="43.510709" lon="-5.868457">
        <ele>55.8</ele>
        <time>2019-11-24T17:34:47Z</time>
      </trkpt>
      <trkpt lat="43.510793" lon="-5.868494">
        <ele>56</ele>
        <time>2019-11-24T17:34:48Z</time>
      </trkpt>
      <trkpt lat="43.510875" lon="-5.868532">
        <ele>56.2</ele>
        <time>2019-11-24T17:34:49Z</time>
      </trkpt>
      <trkpt lat="43.510958" lon="-5.868569">
        <ele>56.2</ele>
        <time>2019-11-24T17:34:50Z</time>
      </trkpt>
      <trkpt lat="43.511041" lon="-5.868606">
        <ele>56</ele>
        <time>2019-11-24T17:34:51Z</time>
      </trkpt>
      <trkpt lat="43.511125" lon="-5.868642">
        <ele>55.4</ele>
        <time>2019-11-24T17:34:52Z</time>
      </trkpt>
      <trkpt lat="43.511209" lon="-5.868676">
        <ele>55.2</ele>
        <time>2019-11-24T17:34:53Z</time>
      </trkpt>
      <trkpt lat="43.511292" lon="-5.868709">
        <ele>55.2</ele>
        <time>2019-11-24T17:34:54Z</time>
      </trkpt>
      <trkpt lat="43.511376" lon="-5.868744">
        <ele>55.6</ele>
        <time>2019-11-24T17:34:55Z</time>
      </trkpt>
      <trkpt lat="43.51146" lon="-5.868777">
        <ele>54.8</ele>
        <time>2019-11-24T17:34:56Z</time>
      </trkpt>
      <trkpt lat="43.511544" lon="-5.86881">
        <ele>55.2</ele>
        <time>2019-11-24T17:34:57Z</time>
      </trkpt>
      <trkpt lat="43.511629" lon="-5.868843">
        <ele>55.2</ele>
        <time>2019-11-24T17:34:58Z</time>
      </trkpt>
      <trkpt lat="43.511713" lon="-5.868876">
        <ele>54.6</ele>
        <time>2019-11-24T17:34:59Z</time>
      </trkpt>
      <trkpt lat="43.511799" lon="-5.868908">
        <ele>54.6</ele>
        <time>2019-11-24T17:35:00Z</time>
      </trkpt>
      <trkpt lat="43.511885" lon="-5.868941">
        <ele>55</ele>
        <time>2019-11-24T17:35:01Z</time>
      </trkpt>
      <trkpt lat="43.511971" lon="-5.868973">
        <ele>55.2</ele>
        <time>2019-11-24T17:35:02Z</time>
      </trkpt>
      <trkpt lat="43.512058" lon="-5.869002">
        <ele>54.6</ele>
        <time>2019-11-24T17:35:03Z</time>
      </trkpt>
      <trkpt lat="43.512144" lon="-5.869034">
        <ele>54.6</ele>
        <time>2019-11-24T17:35:04Z</time>
      </trkpt>
      <trkpt lat="43.512231" lon="-5.869067">
        <ele>54.6</ele>
        <time>2019-11-24T17:35:05Z</time>
      </trkpt>
      <trkpt lat="43.512318" lon="-5.869096">
        <ele>54.4</ele>
        <time>2019-11-24T17:35:06Z</time>
      </trkpt>
      <trkpt lat="43.512404" lon="-5.869124">
        <ele>54.4</ele>
        <time>2019-11-24T17:35:07Z</time>
      </trkpt>
      <trkpt lat="43.51249" lon="-5.869152">
        <ele>54.4</ele>
        <time>2019-11-24T17:35:08Z</time>
      </trkpt>
      <trkpt lat="43.512577" lon="-5.869182">
        <ele>54.6</ele>
        <time>2019-11-24T17:35:09Z</time>
      </trkpt>
      <trkpt lat="43.512664" lon="-5.869211">
        <ele>55</ele>
        <time>2019-11-24T17:35:10Z</time>
      </trkpt>
      <trkpt lat="43.512752" lon="-5.869241">
        <ele>53.8</ele>
        <time>2019-11-24T17:35:11Z</time>
      </trkpt>
      <trkpt lat="43.512843" lon="-5.869273">
        <ele>53.8</ele>
        <time>2019-11-24T17:35:12Z</time>
      </trkpt>
      <trkpt lat="43.512938" lon="-5.869308">
        <ele>53</ele>
        <time>2019-11-24T17:35:13Z</time>
      </trkpt>
      <trkpt lat="43.513035" lon="-5.869343">
        <ele>52.4</ele>
        <time>2019-11-24T17:35:14Z</time>
      </trkpt>
      <trkpt lat="43.513135" lon="-5.869379">
        <ele>52.2</ele>
        <time>2019-11-24T17:35:15Z</time>
      </trkpt>
      <trkpt lat="43.513236" lon="-5.869415">
        <ele>51.8</ele>
        <time>2019-11-24T17:35:16Z</time>
      </trkpt>
      <trkpt lat="43.513337" lon="-5.869453">
        <ele>51.4</ele>
        <time>2019-11-24T17:35:17Z</time>
      </trkpt>
      <trkpt lat="43.513436" lon="-5.869508">
        <ele>51.2</ele>
        <time>2019-11-24T17:35:18Z</time>
      </trkpt>
      <trkpt lat="43.513537" lon="-5.869551">
        <ele>51.4</ele>
        <time>2019-11-24T17:35:19Z</time>
      </trkpt>
      <trkpt lat="43.513636" lon="-5.869589">
        <ele>52</ele>
        <time>2019-11-24T17:35:20Z</time>
      </trkpt>
      <trkpt lat="43.513732" lon="-5.869625">
        <ele>52.6</ele>
        <time>2019-11-24T17:35:21Z</time>
      </trkpt>
      <trkpt lat="43.513826" lon="-5.869656">
        <ele>53.2</ele>
        <time>2019-11-24T17:35:22Z</time>
      </trkpt>
      <trkpt lat="43.513919" lon="-5.869688">
        <ele>53.4</ele>
        <time>2019-11-24T17:35:23Z</time>
      </trkpt>
      <trkpt lat="43.514006" lon="-5.869718">
        <ele>54.8</ele>
        <time>2019-11-24T17:35:24Z</time>
      </trkpt>
      <trkpt lat="43.51409" lon="-5.869751">
        <ele>55</ele>
        <time>2019-11-24T17:35:25Z</time>
      </trkpt>
      <trkpt lat="43.514172" lon="-5.869783">
        <ele>55</ele>
        <time>2019-11-24T17:35:26Z</time>
      </trkpt>
      <trkpt lat="43.514252" lon="-5.869812">
        <ele>55.6</ele>
        <time>2019-11-24T17:35:27Z</time>
      </trkpt>
      <trkpt lat="43.514332" lon="-5.869841">
        <ele>56.2</ele>
        <time>2019-11-24T17:35:28Z</time>
      </trkpt>
      <trkpt lat="43.51441" lon="-5.86987">
        <ele>56.4</ele>
        <time>2019-11-24T17:35:29Z</time>
      </trkpt>
      <trkpt lat="43.514486" lon="-5.869894">
        <ele>57.2</ele>
        <time>2019-11-24T17:35:30Z</time>
      </trkpt>
      <trkpt lat="43.514561" lon="-5.869913">
        <ele>57</ele>
        <time>2019-11-24T17:35:31Z</time>
      </trkpt>
      <trkpt lat="43.514637" lon="-5.869932">
        <ele>57.6</ele>
        <time>2019-11-24T17:35:32Z</time>
      </trkpt>
      <trkpt lat="43.514716" lon="-5.869948">
        <ele>58.2</ele>
        <time>2019-11-24T17:35:33Z</time>
      </trkpt>
      <trkpt lat="43.514796" lon="-5.869968">
        <ele>58.8</ele>
        <time>2019-11-24T17:35:34Z</time>
      </trkpt>
      <trkpt lat="43.514876" lon="-5.86999">
        <ele>58.6</ele>
        <time>2019-11-24T17:35:35Z</time>
      </trkpt>
      <trkpt lat="43.514959" lon="-5.87001">
        <ele>58.2</ele>
        <time>2019-11-24T17:35:36Z</time>
      </trkpt>
      <trkpt lat="43.515043" lon="-5.870029">
        <ele>58.2</ele>
        <time>2019-11-24T17:35:37Z</time>
      </trkpt>
      <trkpt lat="43.515126" lon="-5.870047">
        <ele>58</ele>
        <time>2019-11-24T17:35:38Z</time>
      </trkpt>
      <trkpt lat="43.515211" lon="-5.870063">
        <ele>58</ele>
        <time>2019-11-24T17:35:39Z</time>
      </trkpt>
      <trkpt lat="43.515297" lon="-5.870078">
        <ele>57.6</ele>
        <time>2019-11-24T17:35:40Z</time>
      </trkpt>
      <trkpt lat="43.515385" lon="-5.870091">
        <ele>57.4</ele>
        <time>2019-11-24T17:35:41Z</time>
      </trkpt>
      <trkpt lat="43.515474" lon="-5.870104">
        <ele>57.6</ele>
        <time>2019-11-24T17:35:42Z</time>
      </trkpt>
      <trkpt lat="43.515564" lon="-5.870115">
        <ele>57</ele>
        <time>2019-11-24T17:35:43Z</time>
      </trkpt>
      <trkpt lat="43.515654" lon="-5.870127">
        <ele>57</ele>
        <time>2019-11-24T17:35:44Z</time>
      </trkpt>
      <trkpt lat="43.515745" lon="-5.870141">
        <ele>56.2</ele>
        <time>2019-11-24T17:35:45Z</time>
      </trkpt>
      <trkpt lat="43.515838" lon="-5.870156">
        <ele>56.4</ele>
        <time>2019-11-24T17:35:46Z</time>
      </trkpt>
      <trkpt lat="43.515934" lon="-5.870171">
        <ele>56.4</ele>
        <time>2019-11-24T17:35:47Z</time>
      </trkpt>
      <trkpt lat="43.51603" lon="-5.870185">
        <ele>56</ele>
        <time>2019-11-24T17:35:48Z</time>
      </trkpt>
      <trkpt lat="43.516127" lon="-5.870199">
        <ele>55.4</ele>
        <time>2019-11-24T17:35:49Z</time>
      </trkpt>
      <trkpt lat="43.516225" lon="-5.870214">
        <ele>55.6</ele>
        <time>2019-11-24T17:35:50Z</time>
      </trkpt>
      <trkpt lat="43.516324" lon="-5.870231">
        <ele>55.6</ele>
        <time>2019-11-24T17:35:51Z</time>
      </trkpt>
      <trkpt lat="43.516425" lon="-5.870246">
        <ele>55.6</ele>
        <time>2019-11-24T17:35:52Z</time>
      </trkpt>
      <trkpt lat="43.516527" lon="-5.87026">
        <ele>55.2</ele>
        <time>2019-11-24T17:35:53Z</time>
      </trkpt>
      <trkpt lat="43.51663" lon="-5.870276">
        <ele>55</ele>
        <time>2019-11-24T17:35:54Z</time>
      </trkpt>
      <trkpt lat="43.516732" lon="-5.870291">
        <ele>55.4</ele>
        <time>2019-11-24T17:35:55Z</time>
      </trkpt>
      <trkpt lat="43.516834" lon="-5.870305">
        <ele>55.2</ele>
        <time>2019-11-24T17:35:56Z</time>
      </trkpt>
      <trkpt lat="43.516936" lon="-5.870317">
        <ele>55.2</ele>
        <time>2019-11-24T17:35:57Z</time>
      </trkpt>
      <trkpt lat="43.517037" lon="-5.870329">
        <ele>55.4</ele>
        <time>2019-11-24T17:35:58Z</time>
      </trkpt>
      <trkpt lat="43.517139" lon="-5.870341">
        <ele>55.4</ele>
        <time>2019-11-24T17:35:59Z</time>
      </trkpt>
      <trkpt lat="43.517239" lon="-5.870355">
        <ele>55.8</ele>
        <time>2019-11-24T17:36:00Z</time>
      </trkpt>
      <trkpt lat="43.517338" lon="-5.870371">
        <ele>56</ele>
        <time>2019-11-24T17:36:01Z</time>
      </trkpt>
      <trkpt lat="43.517435" lon="-5.870386">
        <ele>55.2</ele>
        <time>2019-11-24T17:36:02Z</time>
      </trkpt>
      <trkpt lat="43.51753" lon="-5.8704">
        <ele>55.2</ele>
        <time>2019-11-24T17:36:03Z</time>
      </trkpt>
      <trkpt lat="43.517624" lon="-5.870416">
        <ele>55</ele>
        <time>2019-11-24T17:36:04Z</time>
      </trkpt>
      <trkpt lat="43.517719" lon="-5.870434">
        <ele>55.6</ele>
        <time>2019-11-24T17:36:05Z</time>
      </trkpt>
      <trkpt lat="43.517812" lon="-5.870456">
        <ele>55.8</ele>
        <time>2019-11-24T17:36:06Z</time>
      </trkpt>
      <trkpt lat="43.517908" lon="-5.870478">
        <ele>54.8</ele>
        <time>2019-11-24T17:36:07Z</time>
      </trkpt>
      <trkpt lat="43.518007" lon="-5.8705">
        <ele>54.8</ele>
        <time>2019-11-24T17:36:08Z</time>
      </trkpt>
      <trkpt lat="43.518106" lon="-5.870524">
        <ele>55.4</ele>
        <time>2019-11-24T17:36:09Z</time>
      </trkpt>
      <trkpt lat="43.518206" lon="-5.870548">
        <ele>55</ele>
        <time>2019-11-24T17:36:10Z</time>
      </trkpt>
      <trkpt lat="43.518307" lon="-5.870574">
        <ele>55</ele>
        <time>2019-11-24T17:36:11Z</time>
      </trkpt>
      <trkpt lat="43.518407" lon="-5.870601">
        <ele>55.8</ele>
        <time>2019-11-24T17:36:12Z</time>
      </trkpt>
      <trkpt lat="43.518506" lon="-5.870629">
        <ele>55.4</ele>
        <time>2019-11-24T17:36:13Z</time>
      </trkpt>
      <trkpt lat="43.518606" lon="-5.870655">
        <ele>55.2</ele>
        <time>2019-11-24T17:36:14Z</time>
      </trkpt>
      <trkpt lat="43.518705" lon="-5.87068">
        <ele>55.8</ele>
        <time>2019-11-24T17:36:15Z</time>
      </trkpt>
      <trkpt lat="43.518803" lon="-5.870704">
        <ele>56.4</ele>
        <time>2019-11-24T17:36:16Z</time>
      </trkpt>
      <trkpt lat="43.518901" lon="-5.870728">
        <ele>55.8</ele>
        <time>2019-11-24T17:36:17Z</time>
      </trkpt>
      <trkpt lat="43.518999" lon="-5.870753">
        <ele>55.6</ele>
        <time>2019-11-24T17:36:18Z</time>
      </trkpt>
      <trkpt lat="43.519097" lon="-5.870781">
        <ele>55.6</ele>
        <time>2019-11-24T17:36:19Z</time>
      </trkpt>
      <trkpt lat="43.519194" lon="-5.870809">
        <ele>56.4</ele>
        <time>2019-11-24T17:36:20Z</time>
      </trkpt>
      <trkpt lat="43.519291" lon="-5.870834">
        <ele>56.8</ele>
        <time>2019-11-24T17:36:21Z</time>
      </trkpt>
      <trkpt lat="43.519388" lon="-5.87086">
        <ele>56.8</ele>
        <time>2019-11-24T17:36:22Z</time>
      </trkpt>
      <trkpt lat="43.519485" lon="-5.870887">
        <ele>56.4</ele>
        <time>2019-11-24T17:36:23Z</time>
      </trkpt>
      <trkpt lat="43.519582" lon="-5.870915">
        <ele>55.8</ele>
        <time>2019-11-24T17:36:24Z</time>
      </trkpt>
      <trkpt lat="43.519679" lon="-5.870939">
        <ele>55.4</ele>
        <time>2019-11-24T17:36:25Z</time>
      </trkpt>
      <trkpt lat="43.519776" lon="-5.870964">
        <ele>55.4</ele>
        <time>2019-11-24T17:36:26Z</time>
      </trkpt>
      <trkpt lat="43.519872" lon="-5.870989">
        <ele>55.4</ele>
        <time>2019-11-24T17:36:27Z</time>
      </trkpt>
      <trkpt lat="43.51997" lon="-5.87101">
        <ele>56</ele>
        <time>2019-11-24T17:36:28Z</time>
      </trkpt>
      <trkpt lat="43.52007" lon="-5.871023">
        <ele>55.4</ele>
        <time>2019-11-24T17:36:29Z</time>
      </trkpt>
      <trkpt lat="43.520171" lon="-5.871021">
        <ele>55.6</ele>
        <time>2019-11-24T17:36:30Z</time>
      </trkpt>
      <trkpt lat="43.520273" lon="-5.871002">
        <ele>55</ele>
        <time>2019-11-24T17:36:31Z</time>
      </trkpt>
      <trkpt lat="43.520374" lon="-5.870968">
        <ele>55.2</ele>
        <time>2019-11-24T17:36:32Z</time>
      </trkpt>
      <trkpt lat="43.520474" lon="-5.87092">
        <ele>55.2</ele>
        <time>2019-11-24T17:36:33Z</time>
      </trkpt>
      <trkpt lat="43.52057" lon="-5.870866">
        <ele>56</ele>
        <time>2019-11-24T17:36:34Z</time>
      </trkpt>
      <trkpt lat="43.520665" lon="-5.870807">
        <ele>55.8</ele>
        <time>2019-11-24T17:36:35Z</time>
      </trkpt>
      <trkpt lat="43.520759" lon="-5.870745">
        <ele>56.4</ele>
        <time>2019-11-24T17:36:36Z</time>
      </trkpt>
      <trkpt lat="43.520852" lon="-5.870683">
        <ele>56.2</ele>
        <time>2019-11-24T17:36:37Z</time>
      </trkpt>
      <trkpt lat="43.520943" lon="-5.870618">
        <ele>56</ele>
        <time>2019-11-24T17:36:38Z</time>
      </trkpt>
      <trkpt lat="43.521034" lon="-5.870558">
        <ele>57</ele>
        <time>2019-11-24T17:36:39Z</time>
      </trkpt>
      <trkpt lat="43.521124" lon="-5.870501">
        <ele>56</ele>
        <time>2019-11-24T17:36:40Z</time>
      </trkpt>
      <trkpt lat="43.521215" lon="-5.870447">
        <ele>55.6</ele>
        <time>2019-11-24T17:36:41Z</time>
      </trkpt>
      <trkpt lat="43.521305" lon="-5.870392">
        <ele>56.6</ele>
        <time>2019-11-24T17:36:42Z</time>
      </trkpt>
      <trkpt lat="43.521395" lon="-5.870335">
        <ele>56.6</ele>
        <time>2019-11-24T17:36:43Z</time>
      </trkpt>
      <trkpt lat="43.521485" lon="-5.870282">
        <ele>56.6</ele>
        <time>2019-11-24T17:36:44Z</time>
      </trkpt>
      <trkpt lat="43.521576" lon="-5.870236">
        <ele>57.2</ele>
        <time>2019-11-24T17:36:45Z</time>
      </trkpt>
      <trkpt lat="43.521668" lon="-5.870197">
        <ele>57.6</ele>
        <time>2019-11-24T17:36:46Z</time>
      </trkpt>
      <trkpt lat="43.521761" lon="-5.870167">
        <ele>58</ele>
        <time>2019-11-24T17:36:47Z</time>
      </trkpt>
      <trkpt lat="43.521855" lon="-5.870148">
        <ele>57.6</ele>
        <time>2019-11-24T17:36:48Z</time>
      </trkpt>
      <trkpt lat="43.521948" lon="-5.870138">
        <ele>57.6</ele>
        <time>2019-11-24T17:36:49Z</time>
      </trkpt>
      <trkpt lat="43.522039" lon="-5.870137">
        <ele>57.6</ele>
        <time>2019-11-24T17:36:50Z</time>
      </trkpt>
      <trkpt lat="43.522131" lon="-5.870147">
        <ele>57.6</ele>
        <time>2019-11-24T17:36:51Z</time>
      </trkpt>
      <trkpt lat="43.522221" lon="-5.870165">
        <ele>58</ele>
        <time>2019-11-24T17:36:52Z</time>
      </trkpt>
      <trkpt lat="43.52231" lon="-5.870188">
        <ele>58.6</ele>
        <time>2019-11-24T17:36:53Z</time>
      </trkpt>
      <trkpt lat="43.522398" lon="-5.870211">
        <ele>59</ele>
        <time>2019-11-24T17:36:54Z</time>
      </trkpt>
      <trkpt lat="43.522484" lon="-5.870237">
        <ele>59</ele>
        <time>2019-11-24T17:36:55Z</time>
      </trkpt>
      <trkpt lat="43.522569" lon="-5.870264">
        <ele>59.4</ele>
        <time>2019-11-24T17:36:56Z</time>
      </trkpt>
      <trkpt lat="43.522654" lon="-5.87029">
        <ele>59.8</ele>
        <time>2019-11-24T17:36:57Z</time>
      </trkpt>
      <trkpt lat="43.522737" lon="-5.870317">
        <ele>60</ele>
        <time>2019-11-24T17:36:58Z</time>
      </trkpt>
      <trkpt lat="43.522817" lon="-5.870347">
        <ele>60.2</ele>
        <time>2019-11-24T17:36:59Z</time>
      </trkpt>
      <trkpt lat="43.522894" lon="-5.870379">
        <ele>60.8</ele>
        <time>2019-11-24T17:37:00Z</time>
      </trkpt>
      <trkpt lat="43.52297" lon="-5.870415">
        <ele>62</ele>
        <time>2019-11-24T17:37:01Z</time>
      </trkpt>
      <trkpt lat="43.523043" lon="-5.870463">
        <ele>62</ele>
        <time>2019-11-24T17:37:02Z</time>
      </trkpt>
      <trkpt lat="43.52311" lon="-5.870527">
        <ele>62.2</ele>
        <time>2019-11-24T17:37:03Z</time>
      </trkpt>
      <trkpt lat="43.523169" lon="-5.870604">
        <ele>62</ele>
        <time>2019-11-24T17:37:04Z</time>
      </trkpt>
      <trkpt lat="43.523219" lon="-5.870692">
        <ele>62.2</ele>
        <time>2019-11-24T17:37:05Z</time>
      </trkpt>
      <trkpt lat="43.52326" lon="-5.870786">
        <ele>62.6</ele>
        <time>2019-11-24T17:37:06Z</time>
      </trkpt>
      <trkpt lat="43.523297" lon="-5.870884">
        <ele>63</ele>
        <time>2019-11-24T17:37:07Z</time>
      </trkpt>
      <trkpt lat="43.523332" lon="-5.870984">
        <ele>62.8</ele>
        <time>2019-11-24T17:37:08Z</time>
      </trkpt>
      <trkpt lat="43.523367" lon="-5.871085">
        <ele>62.4</ele>
        <time>2019-11-24T17:37:09Z</time>
      </trkpt>
      <trkpt lat="43.523401" lon="-5.871187">
        <ele>62.4</ele>
        <time>2019-11-24T17:37:10Z</time>
      </trkpt>
      <trkpt lat="43.523435" lon="-5.871289">
        <ele>62.6</ele>
        <time>2019-11-24T17:37:11Z</time>
      </trkpt>
      <trkpt lat="43.523469" lon="-5.871391">
        <ele>62.4</ele>
        <time>2019-11-24T17:37:12Z</time>
      </trkpt>
      <trkpt lat="43.523503" lon="-5.871491">
        <ele>62.6</ele>
        <time>2019-11-24T17:37:13Z</time>
      </trkpt>
      <trkpt lat="43.523538" lon="-5.871589">
        <ele>63.4</ele>
        <time>2019-11-24T17:37:14Z</time>
      </trkpt>
      <trkpt lat="43.523574" lon="-5.871685">
        <ele>63.2</ele>
        <time>2019-11-24T17:37:15Z</time>
      </trkpt>
      <trkpt lat="43.523616" lon="-5.871776">
        <ele>63</ele>
        <time>2019-11-24T17:37:16Z</time>
      </trkpt>
      <trkpt lat="43.523669" lon="-5.871856">
        <ele>62.4</ele>
        <time>2019-11-24T17:37:17Z</time>
      </trkpt>
      <trkpt lat="43.523735" lon="-5.87192">
        <ele>63</ele>
        <time>2019-11-24T17:37:18Z</time>
      </trkpt>
      <trkpt lat="43.523812" lon="-5.871965">
        <ele>62.4</ele>
        <time>2019-11-24T17:37:19Z</time>
      </trkpt>
      <trkpt lat="43.523894" lon="-5.871998">
        <ele>62.4</ele>
        <time>2019-11-24T17:37:20Z</time>
      </trkpt>
      <trkpt lat="43.523979" lon="-5.872024">
        <ele>62.2</ele>
        <time>2019-11-24T17:37:21Z</time>
      </trkpt>
      <trkpt lat="43.524067" lon="-5.872046">
        <ele>62.2</ele>
        <time>2019-11-24T17:37:22Z</time>
      </trkpt>
      <trkpt lat="43.524157" lon="-5.872065">
        <ele>61.8</ele>
        <time>2019-11-24T17:37:23Z</time>
      </trkpt>
      <trkpt lat="43.524249" lon="-5.872085">
        <ele>61.4</ele>
        <time>2019-11-24T17:37:24Z</time>
      </trkpt>
      <trkpt lat="43.524342" lon="-5.872105">
        <ele>60.8</ele>
        <time>2019-11-24T17:37:25Z</time>
      </trkpt>
      <trkpt lat="43.524437" lon="-5.872127">
        <ele>60.8</ele>
        <time>2019-11-24T17:37:26Z</time>
      </trkpt>
      <trkpt lat="43.524532" lon="-5.872149">
        <ele>60.8</ele>
        <time>2019-11-24T17:37:27Z</time>
      </trkpt>
      <trkpt lat="43.524629" lon="-5.872176">
        <ele>60</ele>
        <time>2019-11-24T17:37:28Z</time>
      </trkpt>
      <trkpt lat="43.524727" lon="-5.872205">
        <ele>59.4</ele>
        <time>2019-11-24T17:37:29Z</time>
      </trkpt>
      <trkpt lat="43.524827" lon="-5.87224">
        <ele>59.2</ele>
        <time>2019-11-24T17:37:30Z</time>
      </trkpt>
      <trkpt lat="43.524927" lon="-5.872281">
        <ele>58.2</ele>
        <time>2019-11-24T17:37:31Z</time>
      </trkpt>
      <trkpt lat="43.525027" lon="-5.872326">
        <ele>57.4</ele>
        <time>2019-11-24T17:37:32Z</time>
      </trkpt>
      <trkpt lat="43.525127" lon="-5.872373">
        <ele>57.2</ele>
        <time>2019-11-24T17:37:33Z</time>
      </trkpt>
      <trkpt lat="43.525226" lon="-5.872426">
        <ele>56.4</ele>
        <time>2019-11-24T17:37:34Z</time>
      </trkpt>
      <trkpt lat="43.525324" lon="-5.872479">
        <ele>56.4</ele>
        <time>2019-11-24T17:37:35Z</time>
      </trkpt>
      <trkpt lat="43.525423" lon="-5.87253">
        <ele>56.2</ele>
        <time>2019-11-24T17:37:36Z</time>
      </trkpt>
      <trkpt lat="43.525524" lon="-5.872578">
        <ele>55.8</ele>
        <time>2019-11-24T17:37:37Z</time>
      </trkpt>
      <trkpt lat="43.525628" lon="-5.872625">
        <ele>56.2</ele>
        <time>2019-11-24T17:37:38Z</time>
      </trkpt>
      <trkpt lat="43.525731" lon="-5.872675">
        <ele>56</ele>
        <time>2019-11-24T17:37:39Z</time>
      </trkpt>
      <trkpt lat="43.525834" lon="-5.872731">
        <ele>55.2</ele>
        <time>2019-11-24T17:37:40Z</time>
      </trkpt>
      <trkpt lat="43.525935" lon="-5.872794">
        <ele>56</ele>
        <time>2019-11-24T17:37:41Z</time>
      </trkpt>
      <trkpt lat="43.526033" lon="-5.872867">
        <ele>55.6</ele>
        <time>2019-11-24T17:37:42Z</time>
      </trkpt>
      <trkpt lat="43.526126" lon="-5.87295">
        <ele>55</ele>
        <time>2019-11-24T17:37:43Z</time>
      </trkpt>
      <trkpt lat="43.526215" lon="-5.873039">
        <ele>54.8</ele>
        <time>2019-11-24T17:37:44Z</time>
      </trkpt>
      <trkpt lat="43.526303" lon="-5.873135">
        <ele>54.4</ele>
        <time>2019-11-24T17:37:45Z</time>
      </trkpt>
      <trkpt lat="43.526387" lon="-5.873235">
        <ele>54.2</ele>
        <time>2019-11-24T17:37:46Z</time>
      </trkpt>
      <trkpt lat="43.526468" lon="-5.873342">
        <ele>54.6</ele>
        <time>2019-11-24T17:37:47Z</time>
      </trkpt>
      <trkpt lat="43.526546" lon="-5.873452">
        <ele>54.6</ele>
        <time>2019-11-24T17:37:48Z</time>
      </trkpt>
      <trkpt lat="43.52662" lon="-5.873567">
        <ele>53.8</ele>
        <time>2019-11-24T17:37:49Z</time>
      </trkpt>
      <trkpt lat="43.52669" lon="-5.873684">
        <ele>54.2</ele>
        <time>2019-11-24T17:37:50Z</time>
      </trkpt>
      <trkpt lat="43.526756" lon="-5.873806">
        <ele>54</ele>
        <time>2019-11-24T17:37:51Z</time>
      </trkpt>
      <trkpt lat="43.526815" lon="-5.873932">
        <ele>54</ele>
        <time>2019-11-24T17:37:52Z</time>
      </trkpt>
      <trkpt lat="43.526867" lon="-5.874064">
        <ele>53.8</ele>
        <time>2019-11-24T17:37:53Z</time>
      </trkpt>
      <trkpt lat="43.526912" lon="-5.8742">
        <ele>54.2</ele>
        <time>2019-11-24T17:37:54Z</time>
      </trkpt>
      <trkpt lat="43.526951" lon="-5.874338">
        <ele>53.8</ele>
        <time>2019-11-24T17:37:55Z</time>
      </trkpt>
      <trkpt lat="43.526987" lon="-5.874476">
        <ele>54.2</ele>
        <time>2019-11-24T17:37:56Z</time>
      </trkpt>
      <trkpt lat="43.527021" lon="-5.874615">
        <ele>54</ele>
        <time>2019-11-24T17:37:57Z</time>
      </trkpt>
      <trkpt lat="43.527056" lon="-5.874752">
        <ele>53.8</ele>
        <time>2019-11-24T17:37:58Z</time>
      </trkpt>
      <trkpt lat="43.527091" lon="-5.874887">
        <ele>54</ele>
        <time>2019-11-24T17:37:59Z</time>
      </trkpt>
      <trkpt lat="43.527125" lon="-5.87502">
        <ele>54.2</ele>
        <time>2019-11-24T17:38:00Z</time>
      </trkpt>
      <trkpt lat="43.527159" lon="-5.87515">
        <ele>54.4</ele>
        <time>2019-11-24T17:38:01Z</time>
      </trkpt>
      <trkpt lat="43.527191" lon="-5.875277">
        <ele>54.8</ele>
        <time>2019-11-24T17:38:02Z</time>
      </trkpt>
      <trkpt lat="43.527221" lon="-5.875403">
        <ele>55.4</ele>
        <time>2019-11-24T17:38:03Z</time>
      </trkpt>
      <trkpt lat="43.52725" lon="-5.87553">
        <ele>55.6</ele>
        <time>2019-11-24T17:38:04Z</time>
      </trkpt>
      <trkpt lat="43.527277" lon="-5.875656">
        <ele>55.4</ele>
        <time>2019-11-24T17:38:05Z</time>
      </trkpt>
      <trkpt lat="43.527302" lon="-5.875781">
        <ele>54.6</ele>
        <time>2019-11-24T17:38:06Z</time>
      </trkpt>
      <trkpt lat="43.527327" lon="-5.875906">
        <ele>54.8</ele>
        <time>2019-11-24T17:38:07Z</time>
      </trkpt>
      <trkpt lat="43.527352" lon="-5.876031">
        <ele>55.2</ele>
        <time>2019-11-24T17:38:08Z</time>
      </trkpt>
      <trkpt lat="43.527376" lon="-5.876156">
        <ele>55.6</ele>
        <time>2019-11-24T17:38:09Z</time>
      </trkpt>
      <trkpt lat="43.527399" lon="-5.876279">
        <ele>55.8</ele>
        <time>2019-11-24T17:38:10Z</time>
      </trkpt>
      <trkpt lat="43.527421" lon="-5.876404">
        <ele>55.8</ele>
        <time>2019-11-24T17:38:11Z</time>
      </trkpt>
      <trkpt lat="43.527442" lon="-5.87653">
        <ele>55.6</ele>
        <time>2019-11-24T17:38:12Z</time>
      </trkpt>
      <trkpt lat="43.527462" lon="-5.87666">
        <ele>55.2</ele>
        <time>2019-11-24T17:38:13Z</time>
      </trkpt>
      <trkpt lat="43.527485" lon="-5.876789">
        <ele>54.8</ele>
        <time>2019-11-24T17:38:14Z</time>
      </trkpt>
      <trkpt lat="43.52751" lon="-5.876918">
        <ele>55.8</ele>
        <time>2019-11-24T17:38:15Z</time>
      </trkpt>
      <trkpt lat="43.527536" lon="-5.877044">
        <ele>55.8</ele>
        <time>2019-11-24T17:38:16Z</time>
      </trkpt>
      <trkpt lat="43.527564" lon="-5.877169">
        <ele>55.8</ele>
        <time>2019-11-24T17:38:17Z</time>
      </trkpt>
      <trkpt lat="43.527596" lon="-5.87729">
        <ele>56.4</ele>
        <time>2019-11-24T17:38:18Z</time>
      </trkpt>
      <trkpt lat="43.527634" lon="-5.877407">
        <ele>56.8</ele>
        <time>2019-11-24T17:38:19Z</time>
      </trkpt>
      <trkpt lat="43.527678" lon="-5.877519">
        <ele>56.4</ele>
        <time>2019-11-24T17:38:20Z</time>
      </trkpt>
      <trkpt lat="43.527731" lon="-5.877625">
        <ele>56.2</ele>
        <time>2019-11-24T17:38:21Z</time>
      </trkpt>
      <trkpt lat="43.527785" lon="-5.877727">
        <ele>56.8</ele>
        <time>2019-11-24T17:38:22Z</time>
      </trkpt>
      <trkpt lat="43.52784" lon="-5.877825">
        <ele>57.4</ele>
        <time>2019-11-24T17:38:23Z</time>
      </trkpt>
      <trkpt lat="43.527896" lon="-5.877921">
        <ele>57.4</ele>
        <time>2019-11-24T17:38:24Z</time>
      </trkpt>
      <trkpt lat="43.527951" lon="-5.878015">
        <ele>57.8</ele>
        <time>2019-11-24T17:38:25Z</time>
      </trkpt>
      <trkpt lat="43.528009" lon="-5.878111">
        <ele>58.6</ele>
        <time>2019-11-24T17:38:26Z</time>
      </trkpt>
      <trkpt lat="43.528067" lon="-5.878208">
        <ele>58.4</ele>
        <time>2019-11-24T17:38:27Z</time>
      </trkpt>
      <trkpt lat="43.528123" lon="-5.878304">
        <ele>58.6</ele>
        <time>2019-11-24T17:38:28Z</time>
      </trkpt>
      <trkpt lat="43.528176" lon="-5.878402">
        <ele>58.8</ele>
        <time>2019-11-24T17:38:29Z</time>
      </trkpt>
      <trkpt lat="43.528225" lon="-5.878501">
        <ele>58.8</ele>
        <time>2019-11-24T17:38:30Z</time>
      </trkpt>
      <trkpt lat="43.528271" lon="-5.8786">
        <ele>59.2</ele>
        <time>2019-11-24T17:38:31Z</time>
      </trkpt>
      <trkpt lat="43.528318" lon="-5.878698">
        <ele>59.4</ele>
        <time>2019-11-24T17:38:32Z</time>
      </trkpt>
      <trkpt lat="43.528364" lon="-5.878798">
        <ele>59.4</ele>
        <time>2019-11-24T17:38:33Z</time>
      </trkpt>
      <trkpt lat="43.528411" lon="-5.878896">
        <ele>59.4</ele>
        <time>2019-11-24T17:38:34Z</time>
      </trkpt>
      <trkpt lat="43.528461" lon="-5.878997">
        <ele>59.6</ele>
        <time>2019-11-24T17:38:35Z</time>
      </trkpt>
      <trkpt lat="43.528514" lon="-5.87909">
        <ele>59.4</ele>
        <time>2019-11-24T17:38:36Z</time>
      </trkpt>
      <trkpt lat="43.528572" lon="-5.879178">
        <ele>59.6</ele>
        <time>2019-11-24T17:38:37Z</time>
      </trkpt>
      <trkpt lat="43.528638" lon="-5.87926">
        <ele>59.6</ele>
        <time>2019-11-24T17:38:38Z</time>
      </trkpt>
      <trkpt lat="43.52871" lon="-5.879335">
        <ele>60</ele>
        <time>2019-11-24T17:38:39Z</time>
      </trkpt>
      <trkpt lat="43.528785" lon="-5.879404">
        <ele>60.2</ele>
        <time>2019-11-24T17:38:40Z</time>
      </trkpt>
      <trkpt lat="43.528869" lon="-5.879462">
        <ele>59.4</ele>
        <time>2019-11-24T17:38:41Z</time>
      </trkpt>
      <trkpt lat="43.528958" lon="-5.879505">
        <ele>60</ele>
        <time>2019-11-24T17:38:42Z</time>
      </trkpt>
      <trkpt lat="43.529049" lon="-5.87953">
        <ele>60.2</ele>
        <time>2019-11-24T17:38:43Z</time>
      </trkpt>
      <trkpt lat="43.529136" lon="-5.879537">
        <ele>61</ele>
        <time>2019-11-24T17:38:44Z</time>
      </trkpt>
      <trkpt lat="43.529221" lon="-5.879534">
        <ele>61.6</ele>
        <time>2019-11-24T17:38:45Z</time>
      </trkpt>
      <trkpt lat="43.529301" lon="-5.87953">
        <ele>62.2</ele>
        <time>2019-11-24T17:38:46Z</time>
      </trkpt>
      <trkpt lat="43.529378" lon="-5.879531">
        <ele>62.8</ele>
        <time>2019-11-24T17:38:47Z</time>
      </trkpt>
      <trkpt lat="43.529455" lon="-5.879537">
        <ele>63.6</ele>
        <time>2019-11-24T17:38:48Z</time>
      </trkpt>
      <trkpt lat="43.529532" lon="-5.879556">
        <ele>63.4</ele>
        <time>2019-11-24T17:38:49Z</time>
      </trkpt>
      <trkpt lat="43.529611" lon="-5.879592">
        <ele>63.2</ele>
        <time>2019-11-24T17:38:50Z</time>
      </trkpt>
      <trkpt lat="43.529684" lon="-5.879645">
        <ele>63.2</ele>
        <time>2019-11-24T17:38:51Z</time>
      </trkpt>
      <trkpt lat="43.529751" lon="-5.879709">
        <ele>64.2</ele>
        <time>2019-11-24T17:38:52Z</time>
      </trkpt>
      <trkpt lat="43.529815" lon="-5.879779">
        <ele>63.8</ele>
        <time>2019-11-24T17:38:53Z</time>
      </trkpt>
      <trkpt lat="43.529874" lon="-5.879858">
        <ele>63.4</ele>
        <time>2019-11-24T17:38:54Z</time>
      </trkpt>
      <trkpt lat="43.529929" lon="-5.879949">
        <ele>63</ele>
        <time>2019-11-24T17:38:55Z</time>
      </trkpt>
      <trkpt lat="43.529975" lon="-5.880055">
        <ele>62.2</ele>
        <time>2019-11-24T17:38:56Z</time>
      </trkpt>
      <trkpt lat="43.530013" lon="-5.880172">
        <ele>61.4</ele>
        <time>2019-11-24T17:38:57Z</time>
      </trkpt>
      <trkpt lat="43.530046" lon="-5.880297">
        <ele>61</ele>
        <time>2019-11-24T17:38:58Z</time>
      </trkpt>
      <trkpt lat="43.530079" lon="-5.880426">
        <ele>60.2</ele>
        <time>2019-11-24T17:38:59Z</time>
      </trkpt>
      <trkpt lat="43.530112" lon="-5.880557">
        <ele>59.6</ele>
        <time>2019-11-24T17:39:00Z</time>
      </trkpt>
      <trkpt lat="43.530147" lon="-5.88069">
        <ele>58.8</ele>
        <time>2019-11-24T17:39:01Z</time>
      </trkpt>
      <trkpt lat="43.530183" lon="-5.880825">
        <ele>58.6</ele>
        <time>2019-11-24T17:39:02Z</time>
      </trkpt>
      <trkpt lat="43.530226" lon="-5.880958">
        <ele>57.4</ele>
        <time>2019-11-24T17:39:03Z</time>
      </trkpt>
      <trkpt lat="43.530279" lon="-5.881086">
        <ele>56.8</ele>
        <time>2019-11-24T17:39:04Z</time>
      </trkpt>
      <trkpt lat="43.530348" lon="-5.881201">
        <ele>56.2</ele>
        <time>2019-11-24T17:39:05Z</time>
      </trkpt>
      <trkpt lat="43.530429" lon="-5.881298">
        <ele>55.6</ele>
        <time>2019-11-24T17:39:06Z</time>
      </trkpt>
      <trkpt lat="43.530518" lon="-5.881374">
        <ele>55.4</ele>
        <time>2019-11-24T17:39:07Z</time>
      </trkpt>
      <trkpt lat="43.530614" lon="-5.881434">
        <ele>55.2</ele>
        <time>2019-11-24T17:39:08Z</time>
      </trkpt>
      <trkpt lat="43.530716" lon="-5.881488">
        <ele>54.6</ele>
        <time>2019-11-24T17:39:09Z</time>
      </trkpt>
      <trkpt lat="43.530814" lon="-5.881549">
        <ele>54.2</ele>
        <time>2019-11-24T17:39:10Z</time>
      </trkpt>
      <trkpt lat="43.530907" lon="-5.881625">
        <ele>53.6</ele>
        <time>2019-11-24T17:39:11Z</time>
      </trkpt>
      <trkpt lat="43.530993" lon="-5.881716">
        <ele>53.4</ele>
        <time>2019-11-24T17:39:12Z</time>
      </trkpt>
      <trkpt lat="43.531066" lon="-5.881827">
        <ele>52.4</ele>
        <time>2019-11-24T17:39:13Z</time>
      </trkpt>
      <trkpt lat="43.531123" lon="-5.881955">
        <ele>51.4</ele>
        <time>2019-11-24T17:39:14Z</time>
      </trkpt>
      <trkpt lat="43.531163" lon="-5.882095">
        <ele>50.2</ele>
        <time>2019-11-24T17:39:15Z</time>
      </trkpt>
      <trkpt lat="43.531187" lon="-5.882241">
        <ele>50.4</ele>
        <time>2019-11-24T17:39:16Z</time>
      </trkpt>
      <trkpt lat="43.5312" lon="-5.882392">
        <ele>49.6</ele>
        <time>2019-11-24T17:39:17Z</time>
      </trkpt>
      <trkpt lat="43.531204" lon="-5.882547">
        <ele>49.4</ele>
        <time>2019-11-24T17:39:18Z</time>
      </trkpt>
      <trkpt lat="43.531201" lon="-5.882701">
        <ele>47.8</ele>
        <time>2019-11-24T17:39:19Z</time>
      </trkpt>
      <trkpt lat="43.531191" lon="-5.882855">
        <ele>47.4</ele>
        <time>2019-11-24T17:39:20Z</time>
      </trkpt>
      <trkpt lat="43.531175" lon="-5.883006">
        <ele>47.4</ele>
        <time>2019-11-24T17:39:21Z</time>
      </trkpt>
      <trkpt lat="43.531152" lon="-5.883155">
        <ele>47</ele>
        <time>2019-11-24T17:39:22Z</time>
      </trkpt>
      <trkpt lat="43.531121" lon="-5.883299">
        <ele>46.4</ele>
        <time>2019-11-24T17:39:23Z</time>
      </trkpt>
      <trkpt lat="43.531084" lon="-5.883438">
        <ele>46.4</ele>
        <time>2019-11-24T17:39:24Z</time>
      </trkpt>
      <trkpt lat="43.531038" lon="-5.883574">
        <ele>46.2</ele>
        <time>2019-11-24T17:39:25Z</time>
      </trkpt>
      <trkpt lat="43.530989" lon="-5.883704">
        <ele>45</ele>
        <time>2019-11-24T17:39:26Z</time>
      </trkpt>
      <trkpt lat="43.53094" lon="-5.883829">
        <ele>44</ele>
        <time>2019-11-24T17:39:27Z</time>
      </trkpt>
      <trkpt lat="43.530906" lon="-5.883954">
        <ele>43.4</ele>
        <time>2019-11-24T17:39:28Z</time>
      </trkpt>
      <trkpt lat="43.5309" lon="-5.884078">
        <ele>42.6</ele>
        <time>2019-11-24T17:39:29Z</time>
      </trkpt>
      <trkpt lat="43.530925" lon="-5.884192">
        <ele>42.2</ele>
        <time>2019-11-24T17:39:30Z</time>
      </trkpt>
      <trkpt lat="43.530978" lon="-5.884282">
        <ele>42.6</ele>
        <time>2019-11-24T17:39:31Z</time>
      </trkpt>
      <trkpt lat="43.53105" lon="-5.884343">
        <ele>42.8</ele>
        <time>2019-11-24T17:39:32Z</time>
      </trkpt>
      <trkpt lat="43.531135" lon="-5.884382">
        <ele>42.8</ele>
        <time>2019-11-24T17:39:33Z</time>
      </trkpt>
      <trkpt lat="43.531222" lon="-5.8844">
        <ele>43.2</ele>
        <time>2019-11-24T17:39:34Z</time>
      </trkpt>
      <trkpt lat="43.531309" lon="-5.8844">
        <ele>43.6</ele>
        <time>2019-11-24T17:39:35Z</time>
      </trkpt>
      <trkpt lat="43.531394" lon="-5.884396">
        <ele>44</ele>
        <time>2019-11-24T17:39:36Z</time>
      </trkpt>
      <trkpt lat="43.531479" lon="-5.884392">
        <ele>44.8</ele>
        <time>2019-11-24T17:39:37Z</time>
      </trkpt>
      <trkpt lat="43.531563" lon="-5.884388">
        <ele>45.6</ele>
        <time>2019-11-24T17:39:38Z</time>
      </trkpt>
      <trkpt lat="43.531645" lon="-5.884385">
        <ele>44.4</ele>
        <time>2019-11-24T17:39:39Z</time>
      </trkpt>
      <trkpt lat="43.531724" lon="-5.884388">
        <ele>45.2</ele>
        <time>2019-11-24T17:39:40Z</time>
      </trkpt>
      <trkpt lat="43.5318" lon="-5.884398">
        <ele>45.6</ele>
        <time>2019-11-24T17:39:41Z</time>
      </trkpt>
      <trkpt lat="43.531874" lon="-5.884412">
        <ele>45.6</ele>
        <time>2019-11-24T17:39:42Z</time>
      </trkpt>
      <trkpt lat="43.531946" lon="-5.884433">
        <ele>45.8</ele>
        <time>2019-11-24T17:39:43Z</time>
      </trkpt>
      <trkpt lat="43.532014" lon="-5.884462">
        <ele>46.2</ele>
        <time>2019-11-24T17:39:44Z</time>
      </trkpt>
      <trkpt lat="43.532079" lon="-5.884501">
        <ele>46.4</ele>
        <time>2019-11-24T17:39:45Z</time>
      </trkpt>
      <trkpt lat="43.532138" lon="-5.884549">
        <ele>45.6</ele>
        <time>2019-11-24T17:39:46Z</time>
      </trkpt>
      <trkpt lat="43.532196" lon="-5.884605">
        <ele>46.4</ele>
        <time>2019-11-24T17:39:47Z</time>
      </trkpt>
      <trkpt lat="43.53225" lon="-5.884673">
        <ele>46.8</ele>
        <time>2019-11-24T17:39:48Z</time>
      </trkpt>
      <trkpt lat="43.532299" lon="-5.884749">
        <ele>46.6</ele>
        <time>2019-11-24T17:39:49Z</time>
      </trkpt>
      <trkpt lat="43.532344" lon="-5.884832">
        <ele>47.2</ele>
        <time>2019-11-24T17:39:50Z</time>
      </trkpt>
      <trkpt lat="43.532386" lon="-5.884918">
        <ele>47.2</ele>
        <time>2019-11-24T17:39:51Z</time>
      </trkpt>
      <trkpt lat="43.532425" lon="-5.88501">
        <ele>47.2</ele>
        <time>2019-11-24T17:39:52Z</time>
      </trkpt>
      <trkpt lat="43.532463" lon="-5.885105">
        <ele>47.6</ele>
        <time>2019-11-24T17:39:53Z</time>
      </trkpt>
      <trkpt lat="43.532502" lon="-5.885201">
        <ele>46.8</ele>
        <time>2019-11-24T17:39:54Z</time>
      </trkpt>
      <trkpt lat="43.532543" lon="-5.885295">
        <ele>47.2</ele>
        <time>2019-11-24T17:39:55Z</time>
      </trkpt>
      <trkpt lat="43.532588" lon="-5.885386">
        <ele>47</ele>
        <time>2019-11-24T17:39:56Z</time>
      </trkpt>
      <trkpt lat="43.532638" lon="-5.885475">
        <ele>47.4</ele>
        <time>2019-11-24T17:39:57Z</time>
      </trkpt>
      <trkpt lat="43.532692" lon="-5.885557">
        <ele>48</ele>
        <time>2019-11-24T17:39:58Z</time>
      </trkpt>
      <trkpt lat="43.532752" lon="-5.885631">
        <ele>48.2</ele>
        <time>2019-11-24T17:39:59Z</time>
      </trkpt>
      <trkpt lat="43.532818" lon="-5.88569">
        <ele>48</ele>
        <time>2019-11-24T17:40:00Z</time>
      </trkpt>
      <trkpt lat="43.532889" lon="-5.885733">
        <ele>48.6</ele>
        <time>2019-11-24T17:40:01Z</time>
      </trkpt>
      <trkpt lat="43.532962" lon="-5.885757">
        <ele>49.2</ele>
        <time>2019-11-24T17:40:02Z</time>
      </trkpt>
      <trkpt lat="43.533033" lon="-5.88576">
        <ele>49.8</ele>
        <time>2019-11-24T17:40:03Z</time>
      </trkpt>
      <trkpt lat="43.533101" lon="-5.885747">
        <ele>50.8</ele>
        <time>2019-11-24T17:40:04Z</time>
      </trkpt>
      <trkpt lat="43.533164" lon="-5.885727">
        <ele>51.8</ele>
        <time>2019-11-24T17:40:05Z</time>
      </trkpt>
      <trkpt lat="43.533223" lon="-5.885702">
        <ele>51.6</ele>
        <time>2019-11-24T17:40:06Z</time>
      </trkpt>
      <trkpt lat="43.533279" lon="-5.885671">
        <ele>51.4</ele>
        <time>2019-11-24T17:40:07Z</time>
      </trkpt>
      <trkpt lat="43.533333" lon="-5.885637">
        <ele>51.6</ele>
        <time>2019-11-24T17:40:08Z</time>
      </trkpt>
      <trkpt lat="43.533387" lon="-5.885602">
        <ele>51.6</ele>
        <time>2019-11-24T17:40:09Z</time>
      </trkpt>
      <trkpt lat="43.533441" lon="-5.885568">
        <ele>52</ele>
        <time>2019-11-24T17:40:10Z</time>
      </trkpt>
      <trkpt lat="43.533495" lon="-5.885533">
        <ele>52.4</ele>
        <time>2019-11-24T17:40:11Z</time>
      </trkpt>
      <trkpt lat="43.533548" lon="-5.8855">
        <ele>53.2</ele>
        <time>2019-11-24T17:40:12Z</time>
      </trkpt>
      <trkpt lat="43.533601" lon="-5.885467">
        <ele>53</ele>
        <time>2019-11-24T17:40:13Z</time>
      </trkpt>
      <trkpt lat="43.533654" lon="-5.885436">
        <ele>53</ele>
        <time>2019-11-24T17:40:14Z</time>
      </trkpt>
      <trkpt lat="43.533706" lon="-5.885405">
        <ele>53</ele>
        <time>2019-11-24T17:40:15Z</time>
      </trkpt>
      <trkpt lat="43.533759" lon="-5.885375">
        <ele>53.4</ele>
        <time>2019-11-24T17:40:16Z</time>
      </trkpt>
      <trkpt lat="43.533812" lon="-5.88535">
        <ele>54</ele>
        <time>2019-11-24T17:40:17Z</time>
      </trkpt>
      <trkpt lat="43.533866" lon="-5.885331">
        <ele>54.2</ele>
        <time>2019-11-24T17:40:18Z</time>
      </trkpt>
      <trkpt lat="43.53392" lon="-5.885317">
        <ele>54.2</ele>
        <time>2019-11-24T17:40:19Z</time>
      </trkpt>
      <trkpt lat="43.533974" lon="-5.885307">
        <ele>54.2</ele>
        <time>2019-11-24T17:40:20Z</time>
      </trkpt>
      <trkpt lat="43.534028" lon="-5.885304">
        <ele>54.6</ele>
        <time>2019-11-24T17:40:21Z</time>
      </trkpt>
      <trkpt lat="43.534083" lon="-5.885308">
        <ele>56</ele>
        <time>2019-11-24T17:40:22Z</time>
      </trkpt>
      <trkpt lat="43.534141" lon="-5.885317">
        <ele>55.8</ele>
        <time>2019-11-24T17:40:23Z</time>
      </trkpt>
      <trkpt lat="43.534197" lon="-5.885334">
        <ele>55.8</ele>
        <time>2019-11-24T17:40:24Z</time>
      </trkpt>
      <trkpt lat="43.53425" lon="-5.88536">
        <ele>55.6</ele>
        <time>2019-11-24T17:40:25Z</time>
      </trkpt>
      <trkpt lat="43.534302" lon="-5.885391">
        <ele>56.2</ele>
        <time>2019-11-24T17:40:26Z</time>
      </trkpt>
      <trkpt lat="43.534354" lon="-5.885427">
        <ele>56.6</ele>
        <time>2019-11-24T17:40:27Z</time>
      </trkpt>
      <trkpt lat="43.534404" lon="-5.885469">
        <ele>56.8</ele>
        <time>2019-11-24T17:40:28Z</time>
      </trkpt>
      <trkpt lat="43.534452" lon="-5.885516">
        <ele>57.2</ele>
        <time>2019-11-24T17:40:29Z</time>
      </trkpt>
      <trkpt lat="43.534497" lon="-5.885568">
        <ele>57.2</ele>
        <time>2019-11-24T17:40:30Z</time>
      </trkpt>
      <trkpt lat="43.53454" lon="-5.885621">
        <ele>57.4</ele>
        <time>2019-11-24T17:40:31Z</time>
      </trkpt>
      <trkpt lat="43.534583" lon="-5.885678">
        <ele>57</ele>
        <time>2019-11-24T17:40:32Z</time>
      </trkpt>
      <trkpt lat="43.534624" lon="-5.885735">
        <ele>57.6</ele>
        <time>2019-11-24T17:40:33Z</time>
      </trkpt>
      <trkpt lat="43.534662" lon="-5.885795">
        <ele>57.4</ele>
        <time>2019-11-24T17:40:34Z</time>
      </trkpt>
      <trkpt lat="43.534696" lon="-5.885857">
        <ele>57.4</ele>
        <time>2019-11-24T17:40:35Z</time>
      </trkpt>
      <trkpt lat="43.534729" lon="-5.88592">
        <ele>58</ele>
        <time>2019-11-24T17:40:36Z</time>
      </trkpt>
      <trkpt lat="43.534759" lon="-5.885986">
        <ele>57.6</ele>
        <time>2019-11-24T17:40:37Z</time>
      </trkpt>
      <trkpt lat="43.534786" lon="-5.886053">
        <ele>58.2</ele>
        <time>2019-11-24T17:40:38Z</time>
      </trkpt>
      <trkpt lat="43.53481" lon="-5.886122">
        <ele>58.8</ele>
        <time>2019-11-24T17:40:39Z</time>
      </trkpt>
      <trkpt lat="43.534834" lon="-5.88619">
        <ele>58.4</ele>
        <time>2019-11-24T17:40:40Z</time>
      </trkpt>
      <trkpt lat="43.534855" lon="-5.88626">
        <ele>58.6</ele>
        <time>2019-11-24T17:40:41Z</time>
      </trkpt>
      <trkpt lat="43.534874" lon="-5.886331">
        <ele>58.2</ele>
        <time>2019-11-24T17:40:42Z</time>
      </trkpt>
      <trkpt lat="43.534891" lon="-5.886403">
        <ele>58.8</ele>
        <time>2019-11-24T17:40:43Z</time>
      </trkpt>
      <trkpt lat="43.534907" lon="-5.886477">
        <ele>58</ele>
        <time>2019-11-24T17:40:44Z</time>
      </trkpt>
      <trkpt lat="43.534922" lon="-5.886552">
        <ele>57.6</ele>
        <time>2019-11-24T17:40:45Z</time>
      </trkpt>
      <trkpt lat="43.534937" lon="-5.886629">
        <ele>58</ele>
        <time>2019-11-24T17:40:46Z</time>
      </trkpt>
      <trkpt lat="43.53495" lon="-5.886706">
        <ele>58.2</ele>
        <time>2019-11-24T17:40:47Z</time>
      </trkpt>
      <trkpt lat="43.534961" lon="-5.886785">
        <ele>58.2</ele>
        <time>2019-11-24T17:40:48Z</time>
      </trkpt>
      <trkpt lat="43.534971" lon="-5.886864">
        <ele>58</ele>
        <time>2019-11-24T17:40:49Z</time>
      </trkpt>
      <trkpt lat="43.534982" lon="-5.886944">
        <ele>58.6</ele>
        <time>2019-11-24T17:40:50Z</time>
      </trkpt>
      <trkpt lat="43.534992" lon="-5.887024">
        <ele>58.6</ele>
        <time>2019-11-24T17:40:51Z</time>
      </trkpt>
      <trkpt lat="43.535001" lon="-5.887105">
        <ele>58.6</ele>
        <time>2019-11-24T17:40:52Z</time>
      </trkpt>
      <trkpt lat="43.53501" lon="-5.887186">
        <ele>58.4</ele>
        <time>2019-11-24T17:40:53Z</time>
      </trkpt>
      <trkpt lat="43.535019" lon="-5.887266">
        <ele>59.2</ele>
        <time>2019-11-24T17:40:54Z</time>
      </trkpt>
      <trkpt lat="43.535027" lon="-5.887347">
        <ele>58.6</ele>
        <time>2019-11-24T17:40:55Z</time>
      </trkpt>
      <trkpt lat="43.535034" lon="-5.887428">
        <ele>58.4</ele>
        <time>2019-11-24T17:40:56Z</time>
      </trkpt>
      <trkpt lat="43.53504" lon="-5.887509">
        <ele>58.8</ele>
        <time>2019-11-24T17:40:57Z</time>
      </trkpt>
      <trkpt lat="43.535047" lon="-5.88759">
        <ele>58.8</ele>
        <time>2019-11-24T17:40:58Z</time>
      </trkpt>
      <trkpt lat="43.535054" lon="-5.887672">
        <ele>59</ele>
        <time>2019-11-24T17:40:59Z</time>
      </trkpt>
      <trkpt lat="43.53506" lon="-5.887754">
        <ele>59.6</ele>
        <time>2019-11-24T17:41:00Z</time>
      </trkpt>
      <trkpt lat="43.535065" lon="-5.887837">
        <ele>59</ele>
        <time>2019-11-24T17:41:01Z</time>
      </trkpt>
      <trkpt lat="43.535071" lon="-5.88792">
        <ele>58.6</ele>
        <time>2019-11-24T17:41:02Z</time>
      </trkpt>
      <trkpt lat="43.535077" lon="-5.888002">
        <ele>58.8</ele>
        <time>2019-11-24T17:41:03Z</time>
      </trkpt>
      <trkpt lat="43.535081" lon="-5.888085">
        <ele>59</ele>
        <time>2019-11-24T17:41:04Z</time>
      </trkpt>
      <trkpt lat="43.535085" lon="-5.888168">
        <ele>59.4</ele>
        <time>2019-11-24T17:41:05Z</time>
      </trkpt>
      <trkpt lat="43.53509" lon="-5.888251">
        <ele>59.2</ele>
        <time>2019-11-24T17:41:06Z</time>
      </trkpt>
      <trkpt lat="43.535096" lon="-5.888336">
        <ele>58.8</ele>
        <time>2019-11-24T17:41:07Z</time>
      </trkpt>
      <trkpt lat="43.535101" lon="-5.888423">
        <ele>58.8</ele>
        <time>2019-11-24T17:41:08Z</time>
      </trkpt>
      <trkpt lat="43.535105" lon="-5.888511">
        <ele>59</ele>
        <time>2019-11-24T17:41:09Z</time>
      </trkpt>
      <trkpt lat="43.535111" lon="-5.888597">
        <ele>59</ele>
        <time>2019-11-24T17:41:10Z</time>
      </trkpt>
      <trkpt lat="43.535119" lon="-5.888684">
        <ele>58.4</ele>
        <time>2019-11-24T17:41:11Z</time>
      </trkpt>
      <trkpt lat="43.53513" lon="-5.888768">
        <ele>59.4</ele>
        <time>2019-11-24T17:41:12Z</time>
      </trkpt>
      <trkpt lat="43.535141" lon="-5.888849">
        <ele>58.6</ele>
        <time>2019-11-24T17:41:13Z</time>
      </trkpt>
      <trkpt lat="43.535156" lon="-5.888925">
        <ele>58.8</ele>
        <time>2019-11-24T17:41:14Z</time>
      </trkpt>
      <trkpt lat="43.535173" lon="-5.888993">
        <ele>59.4</ele>
        <time>2019-11-24T17:41:15Z</time>
      </trkpt>
      <trkpt lat="43.535189" lon="-5.889051">
        <ele>60</ele>
        <time>2019-11-24T17:41:16Z</time>
      </trkpt>
      <trkpt lat="43.535205" lon="-5.889101">
        <ele>60.2</ele>
        <time>2019-11-24T17:41:17Z</time>
      </trkpt>
      <trkpt lat="43.535219" lon="-5.889144">
        <ele>60.4</ele>
        <time>2019-11-24T17:41:18Z</time>
      </trkpt>
      <trkpt lat="43.535233" lon="-5.889177">
        <ele>60.2</ele>
        <time>2019-11-24T17:41:19Z</time>
      </trkpt>
      <trkpt lat="43.535248" lon="-5.8892">
        <ele>60.4</ele>
        <time>2019-11-24T17:41:20Z</time>
      </trkpt>
      <trkpt lat="43.535255" lon="-5.889213">
        <ele>60.6</ele>
        <time>2019-11-24T17:41:21Z</time>
      </trkpt>
      <trkpt lat="43.535257" lon="-5.889217">
        <ele>60.4</ele>
        <time>2019-11-24T17:41:22Z</time>
      </trkpt>
      <trkpt lat="43.535258" lon="-5.889219">
        <ele>60.4</ele>
        <time>2019-11-24T17:41:23Z</time>
      </trkpt>
      <trkpt lat="43.535278" lon="-5.889264">
        <ele>60.4</ele>
        <time>2019-11-24T17:41:53Z</time>
      </trkpt>
      <trkpt lat="43.53529" lon="-5.889289">
        <ele>60.8</ele>
        <time>2019-11-24T17:41:54Z</time>
      </trkpt>
      <trkpt lat="43.535302" lon="-5.889321">
        <ele>60.8</ele>
        <time>2019-11-24T17:41:55Z</time>
      </trkpt>
      <trkpt lat="43.535318" lon="-5.889355">
        <ele>60.6</ele>
        <time>2019-11-24T17:41:56Z</time>
      </trkpt>
      <trkpt lat="43.535338" lon="-5.889391">
        <ele>60</ele>
        <time>2019-11-24T17:41:57Z</time>
      </trkpt>
      <trkpt lat="43.535362" lon="-5.889427">
        <ele>60</ele>
        <time>2019-11-24T17:41:58Z</time>
      </trkpt>
      <trkpt lat="43.535389" lon="-5.889466">
        <ele>60.4</ele>
        <time>2019-11-24T17:41:59Z</time>
      </trkpt>
      <trkpt lat="43.535417" lon="-5.889508">
        <ele>60.4</ele>
        <time>2019-11-24T17:42:00Z</time>
      </trkpt>
      <trkpt lat="43.535447" lon="-5.88955">
        <ele>60.6</ele>
        <time>2019-11-24T17:42:01Z</time>
      </trkpt>
      <trkpt lat="43.535478" lon="-5.88959">
        <ele>60.4</ele>
        <time>2019-11-24T17:42:02Z</time>
      </trkpt>
      <trkpt lat="43.535511" lon="-5.889629">
        <ele>60.6</ele>
        <time>2019-11-24T17:42:03Z</time>
      </trkpt>
      <trkpt lat="43.535545" lon="-5.889667">
        <ele>60.4</ele>
        <time>2019-11-24T17:42:04Z</time>
      </trkpt>
      <trkpt lat="43.535581" lon="-5.889706">
        <ele>60.6</ele>
        <time>2019-11-24T17:42:05Z</time>
      </trkpt>
      <trkpt lat="43.535617" lon="-5.889746">
        <ele>60.4</ele>
        <time>2019-11-24T17:42:06Z</time>
      </trkpt>
      <trkpt lat="43.535654" lon="-5.889787">
        <ele>60.8</ele>
        <time>2019-11-24T17:42:07Z</time>
      </trkpt>
      <trkpt lat="43.535691" lon="-5.889828">
        <ele>61.2</ele>
        <time>2019-11-24T17:42:08Z</time>
      </trkpt>
      <trkpt lat="43.535728" lon="-5.889871">
        <ele>61.2</ele>
        <time>2019-11-24T17:42:09Z</time>
      </trkpt>
      <trkpt lat="43.535765" lon="-5.889913">
        <ele>61.4</ele>
        <time>2019-11-24T17:42:10Z</time>
      </trkpt>
      <trkpt lat="43.535802" lon="-5.889956">
        <ele>61</ele>
        <time>2019-11-24T17:42:11Z</time>
      </trkpt>
      <trkpt lat="43.535838" lon="-5.890001">
        <ele>61.6</ele>
        <time>2019-11-24T17:42:12Z</time>
      </trkpt>
      <trkpt lat="43.535873" lon="-5.890049">
        <ele>61.8</ele>
        <time>2019-11-24T17:42:13Z</time>
      </trkpt>
      <trkpt lat="43.535908" lon="-5.890099">
        <ele>61.8</ele>
        <time>2019-11-24T17:42:14Z</time>
      </trkpt>
      <trkpt lat="43.535942" lon="-5.890153">
        <ele>61.4</ele>
        <time>2019-11-24T17:42:15Z</time>
      </trkpt>
      <trkpt lat="43.535972" lon="-5.890213">
        <ele>61</ele>
        <time>2019-11-24T17:42:16Z</time>
      </trkpt>
      <trkpt lat="43.535996" lon="-5.89028">
        <ele>61</ele>
        <time>2019-11-24T17:42:17Z</time>
      </trkpt>
      <trkpt lat="43.536016" lon="-5.890354">
        <ele>61</ele>
        <time>2019-11-24T17:42:18Z</time>
      </trkpt>
      <trkpt lat="43.536031" lon="-5.890435">
        <ele>60.4</ele>
        <time>2019-11-24T17:42:19Z</time>
      </trkpt>
      <trkpt lat="43.536044" lon="-5.89052">
        <ele>60</ele>
        <time>2019-11-24T17:42:20Z</time>
      </trkpt>
      <trkpt lat="43.536054" lon="-5.890608">
        <ele>59.8</ele>
        <time>2019-11-24T17:42:21Z</time>
      </trkpt>
      <trkpt lat="43.536062" lon="-5.890698">
        <ele>59.6</ele>
        <time>2019-11-24T17:42:22Z</time>
      </trkpt>
      <trkpt lat="43.536071" lon="-5.890789">
        <ele>59.2</ele>
        <time>2019-11-24T17:42:23Z</time>
      </trkpt>
      <trkpt lat="43.53608" lon="-5.89088">
        <ele>57.6</ele>
        <time>2019-11-24T17:42:24Z</time>
      </trkpt>
      <trkpt lat="43.536088" lon="-5.890975">
        <ele>58</ele>
        <time>2019-11-24T17:42:25Z</time>
      </trkpt>
      <trkpt lat="43.536096" lon="-5.891071">
        <ele>57.6</ele>
        <time>2019-11-24T17:42:26Z</time>
      </trkpt>
      <trkpt lat="43.536105" lon="-5.89117">
        <ele>57.6</ele>
        <time>2019-11-24T17:42:27Z</time>
      </trkpt>
      <trkpt lat="43.536113" lon="-5.891273">
        <ele>56.4</ele>
        <time>2019-11-24T17:42:28Z</time>
      </trkpt>
      <trkpt lat="43.536122" lon="-5.891378">
        <ele>56.4</ele>
        <time>2019-11-24T17:42:29Z</time>
      </trkpt>
      <trkpt lat="43.536134" lon="-5.891485">
        <ele>54.8</ele>
        <time>2019-11-24T17:42:30Z</time>
      </trkpt>
      <trkpt lat="43.536145" lon="-5.891592">
        <ele>55.4</ele>
        <time>2019-11-24T17:42:31Z</time>
      </trkpt>
      <trkpt lat="43.536152" lon="-5.891698">
        <ele>55.8</ele>
        <time>2019-11-24T17:42:32Z</time>
      </trkpt>
      <trkpt lat="43.536159" lon="-5.891802">
        <ele>54.6</ele>
        <time>2019-11-24T17:42:33Z</time>
      </trkpt>
      <trkpt lat="43.536167" lon="-5.891903">
        <ele>54.8</ele>
        <time>2019-11-24T17:42:34Z</time>
      </trkpt>
      <trkpt lat="43.536177" lon="-5.892002">
        <ele>56</ele>
        <time>2019-11-24T17:42:35Z</time>
      </trkpt>
      <trkpt lat="43.536185" lon="-5.892103">
        <ele>54.6</ele>
        <time>2019-11-24T17:42:36Z</time>
      </trkpt>
      <trkpt lat="43.536193" lon="-5.892208">
        <ele>53.4</ele>
        <time>2019-11-24T17:42:37Z</time>
      </trkpt>
      <trkpt lat="43.536202" lon="-5.892316">
        <ele>52.6</ele>
        <time>2019-11-24T17:42:38Z</time>
      </trkpt>
      <trkpt lat="43.536211" lon="-5.892425">
        <ele>52.2</ele>
        <time>2019-11-24T17:42:39Z</time>
      </trkpt>
      <trkpt lat="43.53622" lon="-5.892536">
        <ele>51.4</ele>
        <time>2019-11-24T17:42:40Z</time>
      </trkpt>
      <trkpt lat="43.53623" lon="-5.892648">
        <ele>51.6</ele>
        <time>2019-11-24T17:42:41Z</time>
      </trkpt>
      <trkpt lat="43.536239" lon="-5.892762">
        <ele>51</ele>
        <time>2019-11-24T17:42:42Z</time>
      </trkpt>
      <trkpt lat="43.536249" lon="-5.892879">
        <ele>50.6</ele>
        <time>2019-11-24T17:42:43Z</time>
      </trkpt>
      <trkpt lat="43.536259" lon="-5.892998">
        <ele>50.2</ele>
        <time>2019-11-24T17:42:44Z</time>
      </trkpt>
      <trkpt lat="43.536269" lon="-5.893118">
        <ele>49.4</ele>
        <time>2019-11-24T17:42:45Z</time>
      </trkpt>
      <trkpt lat="43.53628" lon="-5.893241">
        <ele>48.6</ele>
        <time>2019-11-24T17:42:46Z</time>
      </trkpt>
      <trkpt lat="43.536291" lon="-5.893363">
        <ele>48.4</ele>
        <time>2019-11-24T17:42:47Z</time>
      </trkpt>
      <trkpt lat="43.536303" lon="-5.893484">
        <ele>48</ele>
        <time>2019-11-24T17:42:48Z</time>
      </trkpt>
      <trkpt lat="43.536314" lon="-5.893606">
        <ele>48.2</ele>
        <time>2019-11-24T17:42:49Z</time>
      </trkpt>
      <trkpt lat="43.536323" lon="-5.893726">
        <ele>48</ele>
        <time>2019-11-24T17:42:50Z</time>
      </trkpt>
      <trkpt lat="43.536332" lon="-5.893846">
        <ele>47.2</ele>
        <time>2019-11-24T17:42:51Z</time>
      </trkpt>
      <trkpt lat="43.536341" lon="-5.893963">
        <ele>47.2</ele>
        <time>2019-11-24T17:42:52Z</time>
      </trkpt>
      <trkpt lat="43.536352" lon="-5.894077">
        <ele>47</ele>
        <time>2019-11-24T17:42:53Z</time>
      </trkpt>
      <trkpt lat="43.536362" lon="-5.894187">
        <ele>46.4</ele>
        <time>2019-11-24T17:42:54Z</time>
      </trkpt>
      <trkpt lat="43.536373" lon="-5.89429">
        <ele>46.2</ele>
        <time>2019-11-24T17:42:55Z</time>
      </trkpt>
      <trkpt lat="43.536382" lon="-5.894382">
        <ele>46</ele>
        <time>2019-11-24T17:42:56Z</time>
      </trkpt>
      <trkpt lat="43.536391" lon="-5.894461">
        <ele>45.8</ele>
        <time>2019-11-24T17:42:57Z</time>
      </trkpt>
      <trkpt lat="43.536398" lon="-5.894527">
        <ele>46.2</ele>
        <time>2019-11-24T17:42:58Z</time>
      </trkpt>
      <trkpt lat="43.536403" lon="-5.894576">
        <ele>46.2</ele>
        <time>2019-11-24T17:42:59Z</time>
      </trkpt>
      <trkpt lat="43.536405" lon="-5.894607">
        <ele>46.2</ele>
        <time>2019-11-24T17:43:00Z</time>
      </trkpt>
      <trkpt lat="43.536405" lon="-5.894619">
        <ele>46.2</ele>
        <time>2019-11-24T17:43:01Z</time>
      </trkpt>
      <trkpt lat="43.536406" lon="-5.894621">
        <ele>46.2</ele>
        <time>2019-11-24T17:43:02Z</time>
      </trkpt>
      <trkpt lat="43.536406" lon="-5.894619">
        <ele>46</ele>
        <time>2019-11-24T17:43:03Z</time>
      </trkpt>
      <trkpt lat="43.536412" lon="-5.894651">
        <ele>45.8</ele>
        <time>2019-11-24T17:43:21Z</time>
      </trkpt>
      <trkpt lat="43.536415" lon="-5.894684">
        <ele>45.6</ele>
        <time>2019-11-24T17:43:22Z</time>
      </trkpt>
      <trkpt lat="43.536418" lon="-5.894724">
        <ele>45.4</ele>
        <time>2019-11-24T17:43:23Z</time>
      </trkpt>
      <trkpt lat="43.536423" lon="-5.894774">
        <ele>45.4</ele>
        <time>2019-11-24T17:43:24Z</time>
      </trkpt>
      <trkpt lat="43.53643" lon="-5.894832">
        <ele>45.2</ele>
        <time>2019-11-24T17:43:25Z</time>
      </trkpt>
      <trkpt lat="43.536436" lon="-5.894896">
        <ele>44.6</ele>
        <time>2019-11-24T17:43:26Z</time>
      </trkpt>
      <trkpt lat="43.536441" lon="-5.894967">
        <ele>44</ele>
        <time>2019-11-24T17:43:27Z</time>
      </trkpt>
      <trkpt lat="43.536448" lon="-5.895044">
        <ele>44.4</ele>
        <time>2019-11-24T17:43:28Z</time>
      </trkpt>
      <trkpt lat="43.536455" lon="-5.895125">
        <ele>44.2</ele>
        <time>2019-11-24T17:43:29Z</time>
      </trkpt>
      <trkpt lat="43.536463" lon="-5.895212">
        <ele>44</ele>
        <time>2019-11-24T17:43:30Z</time>
      </trkpt>
      <trkpt lat="43.536471" lon="-5.895303">
        <ele>42.8</ele>
        <time>2019-11-24T17:43:31Z</time>
      </trkpt>
      <trkpt lat="43.536479" lon="-5.895398">
        <ele>41.8</ele>
        <time>2019-11-24T17:43:32Z</time>
      </trkpt>
      <trkpt lat="43.536488" lon="-5.895496">
        <ele>41.4</ele>
        <time>2019-11-24T17:43:33Z</time>
      </trkpt>
      <trkpt lat="43.536499" lon="-5.895596">
        <ele>39.6</ele>
        <time>2019-11-24T17:43:34Z</time>
      </trkpt>
      <trkpt lat="43.536509" lon="-5.895698">
        <ele>39.4</ele>
        <time>2019-11-24T17:43:35Z</time>
      </trkpt>
      <trkpt lat="43.536519" lon="-5.895803">
        <ele>39</ele>
        <time>2019-11-24T17:43:36Z</time>
      </trkpt>
      <trkpt lat="43.536529" lon="-5.89591">
        <ele>38.8</ele>
        <time>2019-11-24T17:43:37Z</time>
      </trkpt>
      <trkpt lat="43.536539" lon="-5.89602">
        <ele>35.4</ele>
        <time>2019-11-24T17:43:38Z</time>
      </trkpt>
      <trkpt lat="43.536549" lon="-5.896134">
        <ele>37.8</ele>
        <time>2019-11-24T17:43:39Z</time>
      </trkpt>
      <trkpt lat="43.536559" lon="-5.896251">
        <ele>38</ele>
        <time>2019-11-24T17:43:40Z</time>
      </trkpt>
      <trkpt lat="43.53657" lon="-5.896372">
        <ele>38.2</ele>
        <time>2019-11-24T17:43:41Z</time>
      </trkpt>
      <trkpt lat="43.53658" lon="-5.896496">
        <ele>36.4</ele>
        <time>2019-11-24T17:43:42Z</time>
      </trkpt>
      <trkpt lat="43.53659" lon="-5.896623">
        <ele>36.6</ele>
        <time>2019-11-24T17:43:43Z</time>
      </trkpt>
      <trkpt lat="43.536602" lon="-5.896753">
        <ele>36.6</ele>
        <time>2019-11-24T17:43:44Z</time>
      </trkpt>
      <trkpt lat="43.536615" lon="-5.896883">
        <ele>36.6</ele>
        <time>2019-11-24T17:43:45Z</time>
      </trkpt>
      <trkpt lat="43.536626" lon="-5.897016">
        <ele>35.6</ele>
        <time>2019-11-24T17:43:46Z</time>
      </trkpt>
      <trkpt lat="43.536638" lon="-5.897151">
        <ele>35.2</ele>
        <time>2019-11-24T17:43:47Z</time>
      </trkpt>
      <trkpt lat="43.536651" lon="-5.897287">
        <ele>34</ele>
        <time>2019-11-24T17:43:48Z</time>
      </trkpt>
      <trkpt lat="43.536664" lon="-5.897422">
        <ele>33.8</ele>
        <time>2019-11-24T17:43:49Z</time>
      </trkpt>
      <trkpt lat="43.536675" lon="-5.897557">
        <ele>32.4</ele>
        <time>2019-11-24T17:43:50Z</time>
      </trkpt>
      <trkpt lat="43.536685" lon="-5.897692">
        <ele>32</ele>
        <time>2019-11-24T17:43:51Z</time>
      </trkpt>
      <trkpt lat="43.536696" lon="-5.897827">
        <ele>32</ele>
        <time>2019-11-24T17:43:52Z</time>
      </trkpt>
      <trkpt lat="43.536706" lon="-5.897964">
        <ele>31.6</ele>
        <time>2019-11-24T17:43:53Z</time>
      </trkpt>
      <trkpt lat="43.536715" lon="-5.898101">
        <ele>31</ele>
        <time>2019-11-24T17:43:54Z</time>
      </trkpt>
      <trkpt lat="43.536725" lon="-5.898238">
        <ele>30.6</ele>
        <time>2019-11-24T17:43:55Z</time>
      </trkpt>
      <trkpt lat="43.536737" lon="-5.898374">
        <ele>30.4</ele>
        <time>2019-11-24T17:43:56Z</time>
      </trkpt>
      <trkpt lat="43.536748" lon="-5.89851">
        <ele>30</ele>
        <time>2019-11-24T17:43:57Z</time>
      </trkpt>
      <trkpt lat="43.536757" lon="-5.898646">
        <ele>29.2</ele>
        <time>2019-11-24T17:43:58Z</time>
      </trkpt>
      <trkpt lat="43.536764" lon="-5.898784">
        <ele>28.8</ele>
        <time>2019-11-24T17:43:59Z</time>
      </trkpt>
      <trkpt lat="43.536771" lon="-5.898924">
        <ele>27.6</ele>
        <time>2019-11-24T17:44:00Z</time>
      </trkpt>
      <trkpt lat="43.536777" lon="-5.899066">
        <ele>27.2</ele>
        <time>2019-11-24T17:44:01Z</time>
      </trkpt>
      <trkpt lat="43.536783" lon="-5.899209">
        <ele>25.8</ele>
        <time>2019-11-24T17:44:02Z</time>
      </trkpt>
      <trkpt lat="43.536792" lon="-5.899354">
        <ele>26</ele>
        <time>2019-11-24T17:44:03Z</time>
      </trkpt>
      <trkpt lat="43.536803" lon="-5.8995">
        <ele>25.8</ele>
        <time>2019-11-24T17:44:04Z</time>
      </trkpt>
      <trkpt lat="43.536818" lon="-5.899641">
        <ele>26.2</ele>
        <time>2019-11-24T17:44:05Z</time>
      </trkpt>
      <trkpt lat="43.536841" lon="-5.899774">
        <ele>26.4</ele>
        <time>2019-11-24T17:44:06Z</time>
      </trkpt>
      <trkpt lat="43.536867" lon="-5.899899">
        <ele>26.6</ele>
        <time>2019-11-24T17:44:07Z</time>
      </trkpt>
      <trkpt lat="43.536894" lon="-5.900018">
        <ele>26.6</ele>
        <time>2019-11-24T17:44:08Z</time>
      </trkpt>
      <trkpt lat="43.536919" lon="-5.900128">
        <ele>27</ele>
        <time>2019-11-24T17:44:09Z</time>
      </trkpt>
      <trkpt lat="43.53694" lon="-5.90023">
        <ele>26.8</ele>
        <time>2019-11-24T17:44:10Z</time>
      </trkpt>
      <trkpt lat="43.536959" lon="-5.900325">
        <ele>27.4</ele>
        <time>2019-11-24T17:44:11Z</time>
      </trkpt>
      <trkpt lat="43.53698" lon="-5.900407">
        <ele>27.4</ele>
        <time>2019-11-24T17:44:12Z</time>
      </trkpt>
      <trkpt lat="43.537001" lon="-5.90047">
        <ele>27.6</ele>
        <time>2019-11-24T17:44:13Z</time>
      </trkpt>
      <trkpt lat="43.537012" lon="-5.900512">
        <ele>27.6</ele>
        <time>2019-11-24T17:44:14Z</time>
      </trkpt>
      <trkpt lat="43.53702" lon="-5.900536">
        <ele>27.8</ele>
        <time>2019-11-24T17:44:15Z</time>
      </trkpt>
      <trkpt lat="43.537024" lon="-5.900545">
        <ele>28</ele>
        <time>2019-11-24T17:44:16Z</time>
      </trkpt>
      <trkpt lat="43.537023" lon="-5.900544">
        <ele>28</ele>
        <time>2019-11-24T17:44:17Z</time>
      </trkpt>
      <trkpt lat="43.537026" lon="-5.900608">
        <ele>28</ele>
        <time>2019-11-24T17:44:43Z</time>
      </trkpt>
      <trkpt lat="43.537032" lon="-5.900639">
        <ele>28</ele>
        <time>2019-11-24T17:44:44Z</time>
      </trkpt>
      <trkpt lat="43.53704" lon="-5.900674">
        <ele>28.2</ele>
        <time>2019-11-24T17:44:45Z</time>
      </trkpt>
      <trkpt lat="43.53705" lon="-5.900716">
        <ele>27.6</ele>
        <time>2019-11-24T17:44:46Z</time>
      </trkpt>
      <trkpt lat="43.537063" lon="-5.900764">
        <ele>27.4</ele>
        <time>2019-11-24T17:44:47Z</time>
      </trkpt>
      <trkpt lat="43.537079" lon="-5.900814">
        <ele>26.6</ele>
        <time>2019-11-24T17:44:48Z</time>
      </trkpt>
      <trkpt lat="43.537098" lon="-5.900864">
        <ele>26.8</ele>
        <time>2019-11-24T17:44:49Z</time>
      </trkpt>
      <trkpt lat="43.537118" lon="-5.900915">
        <ele>27.2</ele>
        <time>2019-11-24T17:44:50Z</time>
      </trkpt>
      <trkpt lat="43.537141" lon="-5.900966">
        <ele>26.6</ele>
        <time>2019-11-24T17:44:51Z</time>
      </trkpt>
      <trkpt lat="43.537169" lon="-5.901015">
        <ele>26.6</ele>
        <time>2019-11-24T17:44:52Z</time>
      </trkpt>
      <trkpt lat="43.537199" lon="-5.901066">
        <ele>27</ele>
        <time>2019-11-24T17:44:53Z</time>
      </trkpt>
      <trkpt lat="43.537232" lon="-5.901121">
        <ele>26.8</ele>
        <time>2019-11-24T17:44:54Z</time>
      </trkpt>
      <trkpt lat="43.537265" lon="-5.901181">
        <ele>27</ele>
        <time>2019-11-24T17:44:55Z</time>
      </trkpt>
      <trkpt lat="43.537298" lon="-5.901246">
        <ele>26.6</ele>
        <time>2019-11-24T17:44:56Z</time>
      </trkpt>
      <trkpt lat="43.53733" lon="-5.901313">
        <ele>26.8</ele>
        <time>2019-11-24T17:44:57Z</time>
      </trkpt>
      <trkpt lat="43.537362" lon="-5.901384">
        <ele>27.2</ele>
        <time>2019-11-24T17:44:58Z</time>
      </trkpt>
      <trkpt lat="43.537393" lon="-5.901456">
        <ele>26.6</ele>
        <time>2019-11-24T17:44:59Z</time>
      </trkpt>
      <trkpt lat="43.537425" lon="-5.90153">
        <ele>26.4</ele>
        <time>2019-11-24T17:45:00Z</time>
      </trkpt>
      <trkpt lat="43.537458" lon="-5.901603">
        <ele>26.8</ele>
        <time>2019-11-24T17:45:01Z</time>
      </trkpt>
      <trkpt lat="43.53749" lon="-5.901679">
        <ele>26.4</ele>
        <time>2019-11-24T17:45:02Z</time>
      </trkpt>
      <trkpt lat="43.537524" lon="-5.901755">
        <ele>27</ele>
        <time>2019-11-24T17:45:03Z</time>
      </trkpt>
      <trkpt lat="43.53756" lon="-5.901833">
        <ele>26.4</ele>
        <time>2019-11-24T17:45:04Z</time>
      </trkpt>
      <trkpt lat="43.537596" lon="-5.901912">
        <ele>25.2</ele>
        <time>2019-11-24T17:45:05Z</time>
      </trkpt>
      <trkpt lat="43.53763" lon="-5.901996">
        <ele>26.2</ele>
        <time>2019-11-24T17:45:06Z</time>
      </trkpt>
      <trkpt lat="43.537666" lon="-5.902078">
        <ele>26.4</ele>
        <time>2019-11-24T17:45:07Z</time>
      </trkpt>
      <trkpt lat="43.537699" lon="-5.902169">
        <ele>26.2</ele>
        <time>2019-11-24T17:45:08Z</time>
      </trkpt>
      <trkpt lat="43.537736" lon="-5.902248">
        <ele>26</ele>
        <time>2019-11-24T17:45:09Z</time>
      </trkpt>
      <trkpt lat="43.537775" lon="-5.902328">
        <ele>25.8</ele>
        <time>2019-11-24T17:45:10Z</time>
      </trkpt>
      <trkpt lat="43.537813" lon="-5.902408">
        <ele>25.8</ele>
        <time>2019-11-24T17:45:11Z</time>
      </trkpt>
      <trkpt lat="43.537854" lon="-5.902482">
        <ele>25.6</ele>
        <time>2019-11-24T17:45:12Z</time>
      </trkpt>
      <trkpt lat="43.537901" lon="-5.902554">
        <ele>25.6</ele>
        <time>2019-11-24T17:45:13Z</time>
      </trkpt>
      <trkpt lat="43.537952" lon="-5.902627">
        <ele>25.6</ele>
        <time>2019-11-24T17:45:14Z</time>
      </trkpt>
      <trkpt lat="43.538006" lon="-5.902696">
        <ele>25.4</ele>
        <time>2019-11-24T17:45:15Z</time>
      </trkpt>
      <trkpt lat="43.538062" lon="-5.902761">
        <ele>25.4</ele>
        <time>2019-11-24T17:45:16Z</time>
      </trkpt>
      <trkpt lat="43.538116" lon="-5.902829">
        <ele>25.2</ele>
        <time>2019-11-24T17:45:17Z</time>
      </trkpt>
      <trkpt lat="43.538173" lon="-5.902888">
        <ele>25.4</ele>
        <time>2019-11-24T17:45:18Z</time>
      </trkpt>
      <trkpt lat="43.538233" lon="-5.902947">
        <ele>25.6</ele>
        <time>2019-11-24T17:45:19Z</time>
      </trkpt>
      <trkpt lat="43.538293" lon="-5.903003">
        <ele>25.4</ele>
        <time>2019-11-24T17:45:20Z</time>
      </trkpt>
      <trkpt lat="43.538355" lon="-5.903054">
        <ele>24.8</ele>
        <time>2019-11-24T17:45:21Z</time>
      </trkpt>
      <trkpt lat="43.538418" lon="-5.903098">
        <ele>25.6</ele>
        <time>2019-11-24T17:45:22Z</time>
      </trkpt>
      <trkpt lat="43.538483" lon="-5.903143">
        <ele>25.8</ele>
        <time>2019-11-24T17:45:23Z</time>
      </trkpt>
      <trkpt lat="43.538552" lon="-5.903182">
        <ele>25.6</ele>
        <time>2019-11-24T17:45:24Z</time>
      </trkpt>
      <trkpt lat="43.53862" lon="-5.903222">
        <ele>26</ele>
        <time>2019-11-24T17:45:25Z</time>
      </trkpt>
      <trkpt lat="43.538688" lon="-5.90326">
        <ele>26.2</ele>
        <time>2019-11-24T17:45:26Z</time>
      </trkpt>
      <trkpt lat="43.538757" lon="-5.903303">
        <ele>26.2</ele>
        <time>2019-11-24T17:45:27Z</time>
      </trkpt>
      <trkpt lat="43.538823" lon="-5.903348">
        <ele>26.6</ele>
        <time>2019-11-24T17:45:28Z</time>
      </trkpt>
      <trkpt lat="43.53889" lon="-5.903385">
        <ele>26.4</ele>
        <time>2019-11-24T17:45:29Z</time>
      </trkpt>
      <trkpt lat="43.538952" lon="-5.903426">
        <ele>26.8</ele>
        <time>2019-11-24T17:45:30Z</time>
      </trkpt>
      <trkpt lat="43.539012" lon="-5.903465">
        <ele>27</ele>
        <time>2019-11-24T17:45:31Z</time>
      </trkpt>
      <trkpt lat="43.539075" lon="-5.9035">
        <ele>27.2</ele>
        <time>2019-11-24T17:45:32Z</time>
      </trkpt>
      <trkpt lat="43.539136" lon="-5.903539">
        <ele>27.6</ele>
        <time>2019-11-24T17:45:33Z</time>
      </trkpt>
      <trkpt lat="43.539198" lon="-5.903569">
        <ele>27.8</ele>
        <time>2019-11-24T17:45:34Z</time>
      </trkpt>
      <trkpt lat="43.539259" lon="-5.903601">
        <ele>27.8</ele>
        <time>2019-11-24T17:45:35Z</time>
      </trkpt>
      <trkpt lat="43.539317" lon="-5.903627">
        <ele>28.6</ele>
        <time>2019-11-24T17:45:36Z</time>
      </trkpt>
      <trkpt lat="43.539376" lon="-5.903652">
        <ele>28.6</ele>
        <time>2019-11-24T17:45:37Z</time>
      </trkpt>
      <trkpt lat="43.539433" lon="-5.90368">
        <ele>29.2</ele>
        <time>2019-11-24T17:45:38Z</time>
      </trkpt>
      <trkpt lat="43.539492" lon="-5.903697">
        <ele>29.2</ele>
        <time>2019-11-24T17:45:39Z</time>
      </trkpt>
      <trkpt lat="43.539551" lon="-5.903696">
        <ele>29.6</ele>
        <time>2019-11-24T17:45:40Z</time>
      </trkpt>
      <trkpt lat="43.539598" lon="-5.903671">
        <ele>29.4</ele>
        <time>2019-11-24T17:45:41Z</time>
      </trkpt>
      <trkpt lat="43.539626" lon="-5.903611">
        <ele>29.4</ele>
        <time>2019-11-24T17:45:42Z</time>
      </trkpt>
      <trkpt lat="43.539646" lon="-5.903544">
        <ele>29</ele>
        <time>2019-11-24T17:45:43Z</time>
      </trkpt>
      <trkpt lat="43.539665" lon="-5.903475">
        <ele>29</ele>
        <time>2019-11-24T17:45:44Z</time>
      </trkpt>
      <trkpt lat="43.539683" lon="-5.903408">
        <ele>29.2</ele>
        <time>2019-11-24T17:45:45Z</time>
      </trkpt>
      <trkpt lat="43.539706" lon="-5.90334">
        <ele>28.2</ele>
        <time>2019-11-24T17:45:46Z</time>
      </trkpt>
      <trkpt lat="43.539724" lon="-5.903266">
        <ele>27.8</ele>
        <time>2019-11-24T17:45:47Z</time>
      </trkpt>
      <trkpt lat="43.539744" lon="-5.903189">
        <ele>27.6</ele>
        <time>2019-11-24T17:45:48Z</time>
      </trkpt>
      <trkpt lat="43.539778" lon="-5.903114">
        <ele>26.8</ele>
        <time>2019-11-24T17:45:49Z</time>
      </trkpt>
      <trkpt lat="43.539807" lon="-5.903039">
        <ele>26.4</ele>
        <time>2019-11-24T17:45:50Z</time>
      </trkpt>
      <trkpt lat="43.539836" lon="-5.90296">
        <ele>26.4</ele>
        <time>2019-11-24T17:45:51Z</time>
      </trkpt>
      <trkpt lat="43.539862" lon="-5.902879">
        <ele>26.4</ele>
        <time>2019-11-24T17:45:52Z</time>
      </trkpt>
      <trkpt lat="43.539891" lon="-5.902798">
        <ele>26.2</ele>
        <time>2019-11-24T17:45:53Z</time>
      </trkpt>
      <trkpt lat="43.539922" lon="-5.902721">
        <ele>26</ele>
        <time>2019-11-24T17:45:54Z</time>
      </trkpt>
      <trkpt lat="43.539949" lon="-5.902649">
        <ele>26.2</ele>
        <time>2019-11-24T17:45:55Z</time>
      </trkpt>
      <trkpt lat="43.539976" lon="-5.902587">
        <ele>26.4</ele>
        <time>2019-11-24T17:45:56Z</time>
      </trkpt>
      <trkpt lat="43.540004" lon="-5.902555">
        <ele>26.4</ele>
        <time>2019-11-24T17:45:57Z</time>
      </trkpt>
      <trkpt lat="43.540043" lon="-5.902561">
        <ele>26.4</ele>
        <time>2019-11-24T17:45:58Z</time>
      </trkpt>
      <trkpt lat="43.540082" lon="-5.902572">
        <ele>26.4</ele>
        <time>2019-11-24T17:45:59Z</time>
      </trkpt>
      <trkpt lat="43.540125" lon="-5.902586">
        <ele>25.8</ele>
        <time>2019-11-24T17:46:00Z</time>
      </trkpt>
      <trkpt lat="43.540172" lon="-5.902604">
        <ele>26.6</ele>
        <time>2019-11-24T17:46:01Z</time>
      </trkpt>
      <trkpt lat="43.540222" lon="-5.902623">
        <ele>26.8</ele>
        <time>2019-11-24T17:46:02Z</time>
      </trkpt>
      <trkpt lat="43.540275" lon="-5.902642">
        <ele>26.8</ele>
        <time>2019-11-24T17:46:03Z</time>
      </trkpt>
      <trkpt lat="43.540331" lon="-5.902666">
        <ele>26.8</ele>
        <time>2019-11-24T17:46:04Z</time>
      </trkpt>
      <trkpt lat="43.540382" lon="-5.902688">
        <ele>27</ele>
        <time>2019-11-24T17:46:05Z</time>
      </trkpt>
      <trkpt lat="43.540431" lon="-5.902711">
        <ele>27</ele>
        <time>2019-11-24T17:46:06Z</time>
      </trkpt>
      <trkpt lat="43.540481" lon="-5.90273">
        <ele>27.2</ele>
        <time>2019-11-24T17:46:07Z</time>
      </trkpt>
      <trkpt lat="43.54053" lon="-5.902735">
        <ele>27.4</ele>
        <time>2019-11-24T17:46:08Z</time>
      </trkpt>
      <trkpt lat="43.540579" lon="-5.902722">
        <ele>27.6</ele>
        <time>2019-11-24T17:46:09Z</time>
      </trkpt>
      <trkpt lat="43.540624" lon="-5.902694">
        <ele>27.2</ele>
        <time>2019-11-24T17:46:10Z</time>
      </trkpt>
      <trkpt lat="43.540659" lon="-5.902645">
        <ele>27.4</ele>
        <time>2019-11-24T17:46:11Z</time>
      </trkpt>
      <trkpt lat="43.540691" lon="-5.902591">
        <ele>27.2</ele>
        <time>2019-11-24T17:46:12Z</time>
      </trkpt>
      <trkpt lat="43.540727" lon="-5.902537">
        <ele>26.6</ele>
        <time>2019-11-24T17:46:13Z</time>
      </trkpt>
      <trkpt lat="43.540774" lon="-5.902488">
        <ele>26.4</ele>
        <time>2019-11-24T17:46:14Z</time>
      </trkpt>
      <trkpt lat="43.54083" lon="-5.902451">
        <ele>26.4</ele>
        <time>2019-11-24T17:46:15Z</time>
      </trkpt>
      <trkpt lat="43.540887" lon="-5.902424">
        <ele>26.2</ele>
        <time>2019-11-24T17:46:16Z</time>
      </trkpt>
      <trkpt lat="43.540946" lon="-5.902405">
        <ele>25.8</ele>
        <time>2019-11-24T17:46:17Z</time>
      </trkpt>
      <trkpt lat="43.541005" lon="-5.902388">
        <ele>25.4</ele>
        <time>2019-11-24T17:46:18Z</time>
      </trkpt>
      <trkpt lat="43.541066" lon="-5.902368">
        <ele>25.4</ele>
        <time>2019-11-24T17:46:19Z</time>
      </trkpt>
      <trkpt lat="43.541127" lon="-5.902344">
        <ele>25.4</ele>
        <time>2019-11-24T17:46:20Z</time>
      </trkpt>
      <trkpt lat="43.541187" lon="-5.902318">
        <ele>25.4</ele>
        <time>2019-11-24T17:46:21Z</time>
      </trkpt>
      <trkpt lat="43.541248" lon="-5.902291">
        <ele>25.6</ele>
        <time>2019-11-24T17:46:22Z</time>
      </trkpt>
      <trkpt lat="43.541308" lon="-5.902266">
        <ele>25.2</ele>
        <time>2019-11-24T17:46:23Z</time>
      </trkpt>
      <trkpt lat="43.541369" lon="-5.902241">
        <ele>24.8</ele>
        <time>2019-11-24T17:46:24Z</time>
      </trkpt>
      <trkpt lat="43.54143" lon="-5.902217">
        <ele>25.2</ele>
        <time>2019-11-24T17:46:25Z</time>
      </trkpt>
      <trkpt lat="43.54149" lon="-5.902195">
        <ele>25.2</ele>
        <time>2019-11-24T17:46:26Z</time>
      </trkpt>
      <trkpt lat="43.541549" lon="-5.902173">
        <ele>25.6</ele>
        <time>2019-11-24T17:46:27Z</time>
      </trkpt>
      <trkpt lat="43.541607" lon="-5.902155">
        <ele>25.6</ele>
        <time>2019-11-24T17:46:28Z</time>
      </trkpt>
      <trkpt lat="43.541665" lon="-5.902141">
        <ele>25.6</ele>
        <time>2019-11-24T17:46:29Z</time>
      </trkpt>
      <trkpt lat="43.541721" lon="-5.902132">
        <ele>25.8</ele>
        <time>2019-11-24T17:46:30Z</time>
      </trkpt>
      <trkpt lat="43.541776" lon="-5.902125">
        <ele>25.8</ele>
        <time>2019-11-24T17:46:31Z</time>
      </trkpt>
      <trkpt lat="43.54183" lon="-5.902115">
        <ele>25.6</ele>
        <time>2019-11-24T17:46:32Z</time>
      </trkpt>
      <trkpt lat="43.541879" lon="-5.902093">
        <ele>25.6</ele>
        <time>2019-11-24T17:46:33Z</time>
      </trkpt>
      <trkpt lat="43.541916" lon="-5.90206">
        <ele>25.8</ele>
        <time>2019-11-24T17:46:34Z</time>
      </trkpt>
      <trkpt lat="43.54194" lon="-5.902026">
        <ele>25.6</ele>
        <time>2019-11-24T17:46:35Z</time>
      </trkpt>
      <trkpt lat="43.541949" lon="-5.901997">
        <ele>25.8</ele>
        <time>2019-11-24T17:46:36Z</time>
      </trkpt>
      <trkpt lat="43.541949" lon="-5.901982">
        <ele>25.8</ele>
        <time>2019-11-24T17:46:37Z</time>
      </trkpt>
      <trkpt lat="43.54195" lon="-5.901976">
        <ele>26</ele>
        <time>2019-11-24T17:46:38Z</time>
      </trkpt>
      <trkpt lat="43.541949" lon="-5.901974">
        <ele>26</ele>
        <time>2019-11-24T17:46:39Z</time>
      </trkpt>
      <trkpt lat="43.541922" lon="-5.901927">
        <ele>26.6</ele>
        <time>2019-11-24T17:50:04Z</time>
      </trkpt>
      <trkpt lat="43.541903" lon="-5.901909">
        <ele>26.4</ele>
        <time>2019-11-24T17:50:05Z</time>
      </trkpt>
      <trkpt lat="43.54188" lon="-5.901888">
        <ele>25.8</ele>
        <time>2019-11-24T17:50:06Z</time>
      </trkpt>
      <trkpt lat="43.541855" lon="-5.901863">
        <ele>25.6</ele>
        <time>2019-11-24T17:50:07Z</time>
      </trkpt>
      <trkpt lat="43.541826" lon="-5.901832">
        <ele>25.8</ele>
        <time>2019-11-24T17:50:08Z</time>
      </trkpt>
      <trkpt lat="43.541795" lon="-5.901792">
        <ele>26</ele>
        <time>2019-11-24T17:50:09Z</time>
      </trkpt>
      <trkpt lat="43.541765" lon="-5.901742">
        <ele>26.2</ele>
        <time>2019-11-24T17:50:10Z</time>
      </trkpt>
      <trkpt lat="43.541734" lon="-5.901685">
        <ele>26</ele>
        <time>2019-11-24T17:50:11Z</time>
      </trkpt>
      <trkpt lat="43.541705" lon="-5.901621">
        <ele>26</ele>
        <time>2019-11-24T17:50:12Z</time>
      </trkpt>
      <trkpt lat="43.541685" lon="-5.901553">
        <ele>25.2</ele>
        <time>2019-11-24T17:50:13Z</time>
      </trkpt>
      <trkpt lat="43.541672" lon="-5.901481">
        <ele>24.2</ele>
        <time>2019-11-24T17:50:14Z</time>
      </trkpt>
      <trkpt lat="43.541666" lon="-5.901406">
        <ele>24.6</ele>
        <time>2019-11-24T17:50:15Z</time>
      </trkpt>
      <trkpt lat="43.541665" lon="-5.901326">
        <ele>24.4</ele>
        <time>2019-11-24T17:50:16Z</time>
      </trkpt>
      <trkpt lat="43.541672" lon="-5.901241">
        <ele>23.8</ele>
        <time>2019-11-24T17:50:17Z</time>
      </trkpt>
      <trkpt lat="43.541691" lon="-5.901159">
        <ele>24.6</ele>
        <time>2019-11-24T17:50:18Z</time>
      </trkpt>
      <trkpt lat="43.541721" lon="-5.901078">
        <ele>22.8</ele>
        <time>2019-11-24T17:50:19Z</time>
      </trkpt>
      <trkpt lat="43.541759" lon="-5.901">
        <ele>21.8</ele>
        <time>2019-11-24T17:50:20Z</time>
      </trkpt>
      <trkpt lat="43.541803" lon="-5.900925">
        <ele>21.6</ele>
        <time>2019-11-24T17:50:21Z</time>
      </trkpt>
      <trkpt lat="43.541852" lon="-5.900856">
        <ele>22.6</ele>
        <time>2019-11-24T17:50:22Z</time>
      </trkpt>
      <trkpt lat="43.541907" lon="-5.900793">
        <ele>21.8</ele>
        <time>2019-11-24T17:50:23Z</time>
      </trkpt>
      <trkpt lat="43.541968" lon="-5.900734">
        <ele>21.6</ele>
        <time>2019-11-24T17:50:24Z</time>
      </trkpt>
      <trkpt lat="43.542035" lon="-5.900682">
        <ele>22.2</ele>
        <time>2019-11-24T17:50:25Z</time>
      </trkpt>
      <trkpt lat="43.542102" lon="-5.900638">
        <ele>21.4</ele>
        <time>2019-11-24T17:50:26Z</time>
      </trkpt>
      <trkpt lat="43.54217" lon="-5.900596">
        <ele>21</ele>
        <time>2019-11-24T17:50:27Z</time>
      </trkpt>
      <trkpt lat="43.542234" lon="-5.90055">
        <ele>20.2</ele>
        <time>2019-11-24T17:50:28Z</time>
      </trkpt>
      <trkpt lat="43.542296" lon="-5.900496">
        <ele>20</ele>
        <time>2019-11-24T17:50:29Z</time>
      </trkpt>
      <trkpt lat="43.542356" lon="-5.900434">
        <ele>19.6</ele>
        <time>2019-11-24T17:50:30Z</time>
      </trkpt>
      <trkpt lat="43.542418" lon="-5.900376">
        <ele>19.8</ele>
        <time>2019-11-24T17:50:31Z</time>
      </trkpt>
      <trkpt lat="43.542484" lon="-5.900334">
        <ele>19.4</ele>
        <time>2019-11-24T17:50:32Z</time>
      </trkpt>
      <trkpt lat="43.542551" lon="-5.90033">
        <ele>19.6</ele>
        <time>2019-11-24T17:50:33Z</time>
      </trkpt>
      <trkpt lat="43.542614" lon="-5.900361">
        <ele>19.8</ele>
        <time>2019-11-24T17:50:34Z</time>
      </trkpt>
      <trkpt lat="43.542668" lon="-5.900412">
        <ele>20.4</ele>
        <time>2019-11-24T17:50:35Z</time>
      </trkpt>
      <trkpt lat="43.542715" lon="-5.900472">
        <ele>20.8</ele>
        <time>2019-11-24T17:50:36Z</time>
      </trkpt>
      <trkpt lat="43.542759" lon="-5.900531">
        <ele>21</ele>
        <time>2019-11-24T17:50:37Z</time>
      </trkpt>
      <trkpt lat="43.542806" lon="-5.900585">
        <ele>21</ele>
        <time>2019-11-24T17:50:38Z</time>
      </trkpt>
      <trkpt lat="43.542861" lon="-5.900627">
        <ele>21</ele>
        <time>2019-11-24T17:50:39Z</time>
      </trkpt>
      <trkpt lat="43.542921" lon="-5.900657">
        <ele>21.2</ele>
        <time>2019-11-24T17:50:40Z</time>
      </trkpt>
      <trkpt lat="43.542982" lon="-5.90067">
        <ele>21.2</ele>
        <time>2019-11-24T17:50:41Z</time>
      </trkpt>
      <trkpt lat="43.543047" lon="-5.900672">
        <ele>21</ele>
        <time>2019-11-24T17:50:42Z</time>
      </trkpt>
      <trkpt lat="43.543113" lon="-5.900671">
        <ele>20.8</ele>
        <time>2019-11-24T17:50:43Z</time>
      </trkpt>
      <trkpt lat="43.543179" lon="-5.90067">
        <ele>20.8</ele>
        <time>2019-11-24T17:50:44Z</time>
      </trkpt>
      <trkpt lat="43.543245" lon="-5.900671">
        <ele>21</ele>
        <time>2019-11-24T17:50:45Z</time>
      </trkpt>
      <trkpt lat="43.543312" lon="-5.900673">
        <ele>21.2</ele>
        <time>2019-11-24T17:50:46Z</time>
      </trkpt>
      <trkpt lat="43.543377" lon="-5.900677">
        <ele>21</ele>
        <time>2019-11-24T17:50:47Z</time>
      </trkpt>
      <trkpt lat="43.543443" lon="-5.90068">
        <ele>21</ele>
        <time>2019-11-24T17:50:48Z</time>
      </trkpt>
      <trkpt lat="43.54351" lon="-5.900682">
        <ele>21.2</ele>
        <time>2019-11-24T17:50:49Z</time>
      </trkpt>
      <trkpt lat="43.543576" lon="-5.900684">
        <ele>21.2</ele>
        <time>2019-11-24T17:50:50Z</time>
      </trkpt>
      <trkpt lat="43.543642" lon="-5.900685">
        <ele>21.4</ele>
        <time>2019-11-24T17:50:51Z</time>
      </trkpt>
      <trkpt lat="43.543708" lon="-5.900685">
        <ele>21</ele>
        <time>2019-11-24T17:50:52Z</time>
      </trkpt>
      <trkpt lat="43.543774" lon="-5.900685">
        <ele>21.2</ele>
        <time>2019-11-24T17:50:53Z</time>
      </trkpt>
      <trkpt lat="43.543838" lon="-5.900686">
        <ele>21.4</ele>
        <time>2019-11-24T17:50:54Z</time>
      </trkpt>
      <trkpt lat="43.543902" lon="-5.900688">
        <ele>21.4</ele>
        <time>2019-11-24T17:50:55Z</time>
      </trkpt>
      <trkpt lat="43.543967" lon="-5.900688">
        <ele>21.2</ele>
        <time>2019-11-24T17:50:56Z</time>
      </trkpt>
      <trkpt lat="43.544031" lon="-5.900689">
        <ele>21.2</ele>
        <time>2019-11-24T17:50:57Z</time>
      </trkpt>
      <trkpt lat="43.544098" lon="-5.900689">
        <ele>20.8</ele>
        <time>2019-11-24T17:50:58Z</time>
      </trkpt>
      <trkpt lat="43.544165" lon="-5.900689">
        <ele>21.4</ele>
        <time>2019-11-24T17:50:59Z</time>
      </trkpt>
      <trkpt lat="43.544232" lon="-5.900689">
        <ele>20</ele>
        <time>2019-11-24T17:51:00Z</time>
      </trkpt>
      <trkpt lat="43.5443" lon="-5.900689">
        <ele>18.8</ele>
        <time>2019-11-24T17:51:01Z</time>
      </trkpt>
      <trkpt lat="43.544368" lon="-5.900692">
        <ele>19.4</ele>
        <time>2019-11-24T17:51:02Z</time>
      </trkpt>
      <trkpt lat="43.544437" lon="-5.900693">
        <ele>19.8</ele>
        <time>2019-11-24T17:51:03Z</time>
      </trkpt>
      <trkpt lat="43.544508" lon="-5.900695">
        <ele>19.8</ele>
        <time>2019-11-24T17:51:04Z</time>
      </trkpt>
      <trkpt lat="43.54458" lon="-5.900701">
        <ele>19.8</ele>
        <time>2019-11-24T17:51:05Z</time>
      </trkpt>
      <trkpt lat="43.544654" lon="-5.900708">
        <ele>19.6</ele>
        <time>2019-11-24T17:51:06Z</time>
      </trkpt>
      <trkpt lat="43.544731" lon="-5.900712">
        <ele>19</ele>
        <time>2019-11-24T17:51:07Z</time>
      </trkpt>
      <trkpt lat="43.544808" lon="-5.900717">
        <ele>18.8</ele>
        <time>2019-11-24T17:51:08Z</time>
      </trkpt>
      <trkpt lat="43.544886" lon="-5.900721">
        <ele>18.4</ele>
        <time>2019-11-24T17:51:09Z</time>
      </trkpt>
      <trkpt lat="43.544965" lon="-5.900726">
        <ele>18</ele>
        <time>2019-11-24T17:51:10Z</time>
      </trkpt>
      <trkpt lat="43.545048" lon="-5.900732">
        <ele>17.2</ele>
        <time>2019-11-24T17:51:11Z</time>
      </trkpt>
      <trkpt lat="43.545134" lon="-5.900735">
        <ele>16.2</ele>
        <time>2019-11-24T17:51:12Z</time>
      </trkpt>
      <trkpt lat="43.545223" lon="-5.900733">
        <ele>16</ele>
        <time>2019-11-24T17:51:13Z</time>
      </trkpt>
      <trkpt lat="43.545316" lon="-5.900733">
        <ele>15.4</ele>
        <time>2019-11-24T17:51:14Z</time>
      </trkpt>
      <trkpt lat="43.545407" lon="-5.900738">
        <ele>15.4</ele>
        <time>2019-11-24T17:51:15Z</time>
      </trkpt>
      <trkpt lat="43.5455" lon="-5.900739">
        <ele>15.4</ele>
        <time>2019-11-24T17:51:16Z</time>
      </trkpt>
      <trkpt lat="43.545589" lon="-5.900742">
        <ele>14.4</ele>
        <time>2019-11-24T17:51:17Z</time>
      </trkpt>
      <trkpt lat="43.545676" lon="-5.900756">
        <ele>14.4</ele>
        <time>2019-11-24T17:51:18Z</time>
      </trkpt>
      <trkpt lat="43.545756" lon="-5.900792">
        <ele>14.6</ele>
        <time>2019-11-24T17:51:19Z</time>
      </trkpt>
      <trkpt lat="43.545829" lon="-5.900846">
        <ele>14.8</ele>
        <time>2019-11-24T17:51:20Z</time>
      </trkpt>
      <trkpt lat="43.545898" lon="-5.900909">
        <ele>14.4</ele>
        <time>2019-11-24T17:51:21Z</time>
      </trkpt>
      <trkpt lat="43.545966" lon="-5.900978">
        <ele>14.6</ele>
        <time>2019-11-24T17:51:22Z</time>
      </trkpt>
      <trkpt lat="43.546032" lon="-5.90105">
        <ele>14.2</ele>
        <time>2019-11-24T17:51:23Z</time>
      </trkpt>
      <trkpt lat="43.546102" lon="-5.901109">
        <ele>14.2</ele>
        <time>2019-11-24T17:51:24Z</time>
      </trkpt>
      <trkpt lat="43.546172" lon="-5.901167">
        <ele>14.4</ele>
        <time>2019-11-24T17:51:25Z</time>
      </trkpt>
      <trkpt lat="43.54624" lon="-5.901227">
        <ele>14.2</ele>
        <time>2019-11-24T17:51:26Z</time>
      </trkpt>
      <trkpt lat="43.546307" lon="-5.901285">
        <ele>14.4</ele>
        <time>2019-11-24T17:51:27Z</time>
      </trkpt>
      <trkpt lat="43.546373" lon="-5.901342">
        <ele>14</ele>
        <time>2019-11-24T17:51:28Z</time>
      </trkpt>
      <trkpt lat="43.546437" lon="-5.901402">
        <ele>13.6</ele>
        <time>2019-11-24T17:51:29Z</time>
      </trkpt>
      <trkpt lat="43.546499" lon="-5.901459">
        <ele>15</ele>
        <time>2019-11-24T17:51:30Z</time>
      </trkpt>
      <trkpt lat="43.546558" lon="-5.901514">
        <ele>15.4</ele>
        <time>2019-11-24T17:51:31Z</time>
      </trkpt>
      <trkpt lat="43.546614" lon="-5.901569">
        <ele>15.4</ele>
        <time>2019-11-24T17:51:32Z</time>
      </trkpt>
      <trkpt lat="43.546669" lon="-5.901622">
        <ele>15.6</ele>
        <time>2019-11-24T17:51:33Z</time>
      </trkpt>
      <trkpt lat="43.546723" lon="-5.901674">
        <ele>15.8</ele>
        <time>2019-11-24T17:51:34Z</time>
      </trkpt>
      <trkpt lat="43.546777" lon="-5.901724">
        <ele>15.2</ele>
        <time>2019-11-24T17:51:35Z</time>
      </trkpt>
      <trkpt lat="43.546832" lon="-5.901774">
        <ele>16.2</ele>
        <time>2019-11-24T17:51:36Z</time>
      </trkpt>
      <trkpt lat="43.546887" lon="-5.901823">
        <ele>17</ele>
        <time>2019-11-24T17:51:37Z</time>
      </trkpt>
      <trkpt lat="43.546941" lon="-5.901874">
        <ele>18</ele>
        <time>2019-11-24T17:51:38Z</time>
      </trkpt>
      <trkpt lat="43.546994" lon="-5.901914">
        <ele>18.2</ele>
        <time>2019-11-24T17:51:39Z</time>
      </trkpt>
      <trkpt lat="43.547048" lon="-5.901937">
        <ele>18.4</ele>
        <time>2019-11-24T17:51:40Z</time>
      </trkpt>
      <trkpt lat="43.547101" lon="-5.901936">
        <ele>18.4</ele>
        <time>2019-11-24T17:51:41Z</time>
      </trkpt>
      <trkpt lat="43.54715" lon="-5.901919">
        <ele>19</ele>
        <time>2019-11-24T17:51:42Z</time>
      </trkpt>
      <trkpt lat="43.547199" lon="-5.901884">
        <ele>18.4</ele>
        <time>2019-11-24T17:51:43Z</time>
      </trkpt>
      <trkpt lat="43.547252" lon="-5.901847">
        <ele>17.8</ele>
        <time>2019-11-24T17:51:44Z</time>
      </trkpt>
      <trkpt lat="43.547308" lon="-5.901814">
        <ele>18</ele>
        <time>2019-11-24T17:51:45Z</time>
      </trkpt>
      <trkpt lat="43.54737" lon="-5.901789">
        <ele>17.2</ele>
        <time>2019-11-24T17:51:46Z</time>
      </trkpt>
      <trkpt lat="43.547434" lon="-5.901769">
        <ele>17</ele>
        <time>2019-11-24T17:51:47Z</time>
      </trkpt>
      <trkpt lat="43.547501" lon="-5.901751">
        <ele>17.2</ele>
        <time>2019-11-24T17:51:48Z</time>
      </trkpt>
      <trkpt lat="43.54757" lon="-5.901734">
        <ele>15.6</ele>
        <time>2019-11-24T17:51:49Z</time>
      </trkpt>
      <trkpt lat="43.547642" lon="-5.901717">
        <ele>15</ele>
        <time>2019-11-24T17:51:50Z</time>
      </trkpt>
      <trkpt lat="43.547716" lon="-5.901696">
        <ele>14.4</ele>
        <time>2019-11-24T17:51:51Z</time>
      </trkpt>
      <trkpt lat="43.54779" lon="-5.901668">
        <ele>14</ele>
        <time>2019-11-24T17:51:52Z</time>
      </trkpt>
      <trkpt lat="43.547866" lon="-5.90163">
        <ele>13.8</ele>
        <time>2019-11-24T17:51:53Z</time>
      </trkpt>
      <trkpt lat="43.547943" lon="-5.90158">
        <ele>13.6</ele>
        <time>2019-11-24T17:51:54Z</time>
      </trkpt>
      <trkpt lat="43.548016" lon="-5.901521">
        <ele>12.8</ele>
        <time>2019-11-24T17:51:55Z</time>
      </trkpt>
      <trkpt lat="43.548085" lon="-5.901447">
        <ele>12.4</ele>
        <time>2019-11-24T17:51:56Z</time>
      </trkpt>
      <trkpt lat="43.548146" lon="-5.901363">
        <ele>12.2</ele>
        <time>2019-11-24T17:51:57Z</time>
      </trkpt>
      <trkpt lat="43.548201" lon="-5.901271">
        <ele>12</ele>
        <time>2019-11-24T17:51:58Z</time>
      </trkpt>
      <trkpt lat="43.548251" lon="-5.901173">
        <ele>12</ele>
        <time>2019-11-24T17:51:59Z</time>
      </trkpt>
      <trkpt lat="43.548296" lon="-5.901074">
        <ele>11.6</ele>
        <time>2019-11-24T17:52:00Z</time>
      </trkpt>
      <trkpt lat="43.548337" lon="-5.900975">
        <ele>12.2</ele>
        <time>2019-11-24T17:52:01Z</time>
      </trkpt>
      <trkpt lat="43.548374" lon="-5.900878">
        <ele>11.8</ele>
        <time>2019-11-24T17:52:02Z</time>
      </trkpt>
      <trkpt lat="43.548404" lon="-5.900783">
        <ele>10.6</ele>
        <time>2019-11-24T17:52:03Z</time>
      </trkpt>
      <trkpt lat="43.548422" lon="-5.900685">
        <ele>10.6</ele>
        <time>2019-11-24T17:52:04Z</time>
      </trkpt>
      <trkpt lat="43.548429" lon="-5.90058">
        <ele>10.2</ele>
        <time>2019-11-24T17:52:05Z</time>
      </trkpt>
      <trkpt lat="43.548425" lon="-5.900478">
        <ele>10</ele>
        <time>2019-11-24T17:52:06Z</time>
      </trkpt>
      <trkpt lat="43.548429" lon="-5.900376">
        <ele>9.6</ele>
        <time>2019-11-24T17:52:07Z</time>
      </trkpt>
      <trkpt lat="43.54845" lon="-5.900292">
        <ele>10.4</ele>
        <time>2019-11-24T17:52:08Z</time>
      </trkpt>
      <trkpt lat="43.548493" lon="-5.900237">
        <ele>10.6</ele>
        <time>2019-11-24T17:52:09Z</time>
      </trkpt>
      <trkpt lat="43.54855" lon="-5.900215">
        <ele>10.8</ele>
        <time>2019-11-24T17:52:10Z</time>
      </trkpt>
      <trkpt lat="43.548613" lon="-5.900216">
        <ele>10.4</ele>
        <time>2019-11-24T17:52:11Z</time>
      </trkpt>
      <trkpt lat="43.548677" lon="-5.900225">
        <ele>10.6</ele>
        <time>2019-11-24T17:52:12Z</time>
      </trkpt>
      <trkpt lat="43.548742" lon="-5.900231">
        <ele>10.8</ele>
        <time>2019-11-24T17:52:13Z</time>
      </trkpt>
      <trkpt lat="43.548806" lon="-5.900229">
        <ele>10</ele>
        <time>2019-11-24T17:52:14Z</time>
      </trkpt>
      <trkpt lat="43.548869" lon="-5.900221">
        <ele>10.4</ele>
        <time>2019-11-24T17:52:15Z</time>
      </trkpt>
      <trkpt lat="43.548926" lon="-5.900206">
        <ele>10.4</ele>
        <time>2019-11-24T17:52:16Z</time>
      </trkpt>
      <trkpt lat="43.548987" lon="-5.900188">
        <ele>9</ele>
        <time>2019-11-24T17:52:17Z</time>
      </trkpt>
      <trkpt lat="43.549054" lon="-5.900169">
        <ele>9.8</ele>
        <time>2019-11-24T17:52:18Z</time>
      </trkpt>
      <trkpt lat="43.549121" lon="-5.900154">
        <ele>9.4</ele>
        <time>2019-11-24T17:52:19Z</time>
      </trkpt>
      <trkpt lat="43.549188" lon="-5.90014">
        <ele>9.2</ele>
        <time>2019-11-24T17:52:20Z</time>
      </trkpt>
      <trkpt lat="43.549259" lon="-5.900128">
        <ele>10.6</ele>
        <time>2019-11-24T17:52:21Z</time>
      </trkpt>
      <trkpt lat="43.549329" lon="-5.900115">
        <ele>10.4</ele>
        <time>2019-11-24T17:52:22Z</time>
      </trkpt>
      <trkpt lat="43.549398" lon="-5.900099">
        <ele>10.2</ele>
        <time>2019-11-24T17:52:23Z</time>
      </trkpt>
      <trkpt lat="43.549468" lon="-5.900082">
        <ele>10.2</ele>
        <time>2019-11-24T17:52:24Z</time>
      </trkpt>
      <trkpt lat="43.549537" lon="-5.900068">
        <ele>10.6</ele>
        <time>2019-11-24T17:52:25Z</time>
      </trkpt>
      <trkpt lat="43.549603" lon="-5.900056">
        <ele>10.4</ele>
        <time>2019-11-24T17:52:26Z</time>
      </trkpt>
      <trkpt lat="43.549671" lon="-5.900038">
        <ele>10.2</ele>
        <time>2019-11-24T17:52:27Z</time>
      </trkpt>
      <trkpt lat="43.54974" lon="-5.900021">
        <ele>10.4</ele>
        <time>2019-11-24T17:52:28Z</time>
      </trkpt>
      <trkpt lat="43.549808" lon="-5.900007">
        <ele>10.4</ele>
        <time>2019-11-24T17:52:29Z</time>
      </trkpt>
      <trkpt lat="43.549874" lon="-5.899991">
        <ele>10.4</ele>
        <time>2019-11-24T17:52:30Z</time>
      </trkpt>
      <trkpt lat="43.549939" lon="-5.899975">
        <ele>10.8</ele>
        <time>2019-11-24T17:52:31Z</time>
      </trkpt>
      <trkpt lat="43.550004" lon="-5.899959">
        <ele>11.2</ele>
        <time>2019-11-24T17:52:32Z</time>
      </trkpt>
      <trkpt lat="43.55007" lon="-5.899943">
        <ele>10.8</ele>
        <time>2019-11-24T17:52:33Z</time>
      </trkpt>
      <trkpt lat="43.550132" lon="-5.899931">
        <ele>10.2</ele>
        <time>2019-11-24T17:52:34Z</time>
      </trkpt>
      <trkpt lat="43.550185" lon="-5.899913">
        <ele>10.8</ele>
        <time>2019-11-24T17:52:35Z</time>
      </trkpt>
      <trkpt lat="43.550226" lon="-5.899873">
        <ele>10.4</ele>
        <time>2019-11-24T17:52:36Z</time>
      </trkpt>
      <trkpt lat="43.550253" lon="-5.899814">
        <ele>10.2</ele>
        <time>2019-11-24T17:52:37Z</time>
      </trkpt>
      <trkpt lat="43.550252" lon="-5.899741">
        <ele>10</ele>
        <time>2019-11-24T17:52:38Z</time>
      </trkpt>
      <trkpt lat="43.55025" lon="-5.899662">
        <ele>10.4</ele>
        <time>2019-11-24T17:52:39Z</time>
      </trkpt>
      <trkpt lat="43.550238" lon="-5.899576">
        <ele>9.8</ele>
        <time>2019-11-24T17:52:40Z</time>
      </trkpt>
      <trkpt lat="43.550226" lon="-5.899486">
        <ele>9.2</ele>
        <time>2019-11-24T17:52:41Z</time>
      </trkpt>
      <trkpt lat="43.550214" lon="-5.899394">
        <ele>8.8</ele>
        <time>2019-11-24T17:52:42Z</time>
      </trkpt>
      <trkpt lat="43.550203" lon="-5.899299">
        <ele>8.6</ele>
        <time>2019-11-24T17:52:43Z</time>
      </trkpt>
      <trkpt lat="43.550189" lon="-5.899202">
        <ele>8.6</ele>
        <time>2019-11-24T17:52:44Z</time>
      </trkpt>
      <trkpt lat="43.550176" lon="-5.899103">
        <ele>8.6</ele>
        <time>2019-11-24T17:52:45Z</time>
      </trkpt>
      <trkpt lat="43.550163" lon="-5.899006">
        <ele>8.2</ele>
        <time>2019-11-24T17:52:46Z</time>
      </trkpt>
      <trkpt lat="43.550151" lon="-5.89891">
        <ele>8.2</ele>
        <time>2019-11-24T17:52:47Z</time>
      </trkpt>
      <trkpt lat="43.550138" lon="-5.898814">
        <ele>9.2</ele>
        <time>2019-11-24T17:52:48Z</time>
      </trkpt>
      <trkpt lat="43.550124" lon="-5.898721">
        <ele>8.6</ele>
        <time>2019-11-24T17:52:49Z</time>
      </trkpt>
      <trkpt lat="43.550112" lon="-5.898629">
        <ele>8.4</ele>
        <time>2019-11-24T17:52:50Z</time>
      </trkpt>
      <trkpt lat="43.550103" lon="-5.898537">
        <ele>7.8</ele>
        <time>2019-11-24T17:52:51Z</time>
      </trkpt>
      <trkpt lat="43.550104" lon="-5.898446">
        <ele>8</ele>
        <time>2019-11-24T17:52:52Z</time>
      </trkpt>
      <trkpt lat="43.550122" lon="-5.898359">
        <ele>8.4</ele>
        <time>2019-11-24T17:52:53Z</time>
      </trkpt>
      <trkpt lat="43.550159" lon="-5.898283">
        <ele>8.2</ele>
        <time>2019-11-24T17:52:54Z</time>
      </trkpt>
      <trkpt lat="43.550212" lon="-5.898224">
        <ele>7.2</ele>
        <time>2019-11-24T17:52:55Z</time>
      </trkpt>
      <trkpt lat="43.550277" lon="-5.898185">
        <ele>7.2</ele>
        <time>2019-11-24T17:52:56Z</time>
      </trkpt>
      <trkpt lat="43.550346" lon="-5.898161">
        <ele>8.4</ele>
        <time>2019-11-24T17:52:57Z</time>
      </trkpt>
      <trkpt lat="43.550417" lon="-5.89814">
        <ele>9.2</ele>
        <time>2019-11-24T17:52:58Z</time>
      </trkpt>
      <trkpt lat="43.550489" lon="-5.89812">
        <ele>8.6</ele>
        <time>2019-11-24T17:52:59Z</time>
      </trkpt>
      <trkpt lat="43.550562" lon="-5.898102">
        <ele>6.8</ele>
        <time>2019-11-24T17:53:00Z</time>
      </trkpt>
      <trkpt lat="43.550632" lon="-5.898086">
        <ele>5.4</ele>
        <time>2019-11-24T17:53:01Z</time>
      </trkpt>
      <trkpt lat="43.550701" lon="-5.898073">
        <ele>7.6</ele>
        <time>2019-11-24T17:53:02Z</time>
      </trkpt>
      <trkpt lat="43.55077" lon="-5.89806">
        <ele>8.6</ele>
        <time>2019-11-24T17:53:03Z</time>
      </trkpt>
      <trkpt lat="43.550838" lon="-5.898046">
        <ele>9.2</ele>
        <time>2019-11-24T17:53:04Z</time>
      </trkpt>
      <trkpt lat="43.550905" lon="-5.898031">
        <ele>8.2</ele>
        <time>2019-11-24T17:53:05Z</time>
      </trkpt>
      <trkpt lat="43.550973" lon="-5.898016">
        <ele>7.2</ele>
        <time>2019-11-24T17:53:06Z</time>
      </trkpt>
      <trkpt lat="43.551042" lon="-5.898001">
        <ele>7.6</ele>
        <time>2019-11-24T17:53:07Z</time>
      </trkpt>
      <trkpt lat="43.551108" lon="-5.897989">
        <ele>6.4</ele>
        <time>2019-11-24T17:53:08Z</time>
      </trkpt>
      <trkpt lat="43.551174" lon="-5.897979">
        <ele>6.4</ele>
        <time>2019-11-24T17:53:09Z</time>
      </trkpt>
      <trkpt lat="43.551238" lon="-5.897971">
        <ele>6.8</ele>
        <time>2019-11-24T17:53:10Z</time>
      </trkpt>
      <trkpt lat="43.551301" lon="-5.897963">
        <ele>7.6</ele>
        <time>2019-11-24T17:53:11Z</time>
      </trkpt>
      <trkpt lat="43.551364" lon="-5.897953">
        <ele>6.6</ele>
        <time>2019-11-24T17:53:12Z</time>
      </trkpt>
      <trkpt lat="43.551425" lon="-5.897953">
        <ele>6.6</ele>
        <time>2019-11-24T17:53:13Z</time>
      </trkpt>
      <trkpt lat="43.551484" lon="-5.897971">
        <ele>6.6</ele>
        <time>2019-11-24T17:53:14Z</time>
      </trkpt>
      <trkpt lat="43.55154" lon="-5.898">
        <ele>7.2</ele>
        <time>2019-11-24T17:53:15Z</time>
      </trkpt>
      <trkpt lat="43.551596" lon="-5.89803">
        <ele>6.6</ele>
        <time>2019-11-24T17:53:16Z</time>
      </trkpt>
      <trkpt lat="43.551653" lon="-5.89806">
        <ele>9</ele>
        <time>2019-11-24T17:53:17Z</time>
      </trkpt>
      <trkpt lat="43.55171" lon="-5.898092">
        <ele>7.6</ele>
        <time>2019-11-24T17:53:18Z</time>
      </trkpt>
      <trkpt lat="43.55177" lon="-5.89812">
        <ele>8.6</ele>
        <time>2019-11-24T17:53:19Z</time>
      </trkpt>
      <trkpt lat="43.551832" lon="-5.898144">
        <ele>7.8</ele>
        <time>2019-11-24T17:53:20Z</time>
      </trkpt>
      <trkpt lat="43.551892" lon="-5.898169">
        <ele>7.6</ele>
        <time>2019-11-24T17:53:21Z</time>
      </trkpt>
      <trkpt lat="43.551949" lon="-5.898193">
        <ele>7.6</ele>
        <time>2019-11-24T17:53:22Z</time>
      </trkpt>
      <trkpt lat="43.552" lon="-5.898218">
        <ele>8</ele>
        <time>2019-11-24T17:53:23Z</time>
      </trkpt>
      <trkpt lat="43.552054" lon="-5.898241">
        <ele>8.4</ele>
        <time>2019-11-24T17:53:24Z</time>
      </trkpt>
      <trkpt lat="43.552105" lon="-5.898265">
        <ele>8.4</ele>
        <time>2019-11-24T17:53:25Z</time>
      </trkpt>
      <trkpt lat="43.552149" lon="-5.898289">
        <ele>7.2</ele>
        <time>2019-11-24T17:53:26Z</time>
      </trkpt>
      <trkpt lat="43.552189" lon="-5.898311">
        <ele>8</ele>
        <time>2019-11-24T17:53:27Z</time>
      </trkpt>
      <trkpt lat="43.552227" lon="-5.898322">
        <ele>8</ele>
        <time>2019-11-24T17:53:28Z</time>
      </trkpt>
      <trkpt lat="43.552251" lon="-5.898325">
        <ele>8</ele>
        <time>2019-11-24T17:53:29Z</time>
      </trkpt>
      <trkpt lat="43.552275" lon="-5.898337">
        <ele>8.2</ele>
        <time>2019-11-24T17:53:30Z</time>
      </trkpt>
      <trkpt lat="43.552294" lon="-5.898336">
        <ele>8.2</ele>
        <time>2019-11-24T17:53:31Z</time>
      </trkpt>
      <trkpt lat="43.552304" lon="-5.898338">
        <ele>8.6</ele>
        <time>2019-11-24T17:53:32Z</time>
      </trkpt>
      <trkpt lat="43.552311" lon="-5.898338">
        <ele>8.6</ele>
        <time>2019-11-24T17:53:33Z</time>
      </trkpt>
      <trkpt lat="43.552317" lon="-5.898333">
        <ele>8.6</ele>
        <time>2019-11-24T17:53:34Z</time>
      </trkpt>
      <trkpt lat="43.552418" lon="-5.898345">
        <ele>9.2</ele>
        <time>2019-11-24T17:54:03Z</time>
      </trkpt>
      <trkpt lat="43.552446" lon="-5.898354">
        <ele>8.4</ele>
        <time>2019-11-24T17:54:04Z</time>
      </trkpt>
      <trkpt lat="43.552476" lon="-5.898365">
        <ele>8.4</ele>
        <time>2019-11-24T17:54:05Z</time>
      </trkpt>
      <trkpt lat="43.552506" lon="-5.898378">
        <ele>8.2</ele>
        <time>2019-11-24T17:54:06Z</time>
      </trkpt>
      <trkpt lat="43.552543" lon="-5.898395">
        <ele>8.2</ele>
        <time>2019-11-24T17:54:07Z</time>
      </trkpt>
      <trkpt lat="43.552585" lon="-5.898414">
        <ele>8</ele>
        <time>2019-11-24T17:54:08Z</time>
      </trkpt>
      <trkpt lat="43.55263" lon="-5.898435">
        <ele>7.8</ele>
        <time>2019-11-24T17:54:09Z</time>
      </trkpt>
      <trkpt lat="43.552677" lon="-5.898456">
        <ele>8</ele>
        <time>2019-11-24T17:54:10Z</time>
      </trkpt>
      <trkpt lat="43.552725" lon="-5.898477">
        <ele>7.8</ele>
        <time>2019-11-24T17:54:11Z</time>
      </trkpt>
      <trkpt lat="43.552776" lon="-5.898498">
        <ele>7.8</ele>
        <time>2019-11-24T17:54:12Z</time>
      </trkpt>
      <trkpt lat="43.552828" lon="-5.898516">
        <ele>7.4</ele>
        <time>2019-11-24T17:54:13Z</time>
      </trkpt>
      <trkpt lat="43.55288" lon="-5.898531">
        <ele>7.2</ele>
        <time>2019-11-24T17:54:14Z</time>
      </trkpt>
      <trkpt lat="43.55293" lon="-5.898542">
        <ele>8</ele>
        <time>2019-11-24T17:54:15Z</time>
      </trkpt>
      <trkpt lat="43.552979" lon="-5.898544">
        <ele>8.2</ele>
        <time>2019-11-24T17:54:16Z</time>
      </trkpt>
      <trkpt lat="43.553031" lon="-5.898533">
        <ele>8.6</ele>
        <time>2019-11-24T17:54:17Z</time>
      </trkpt>
      <trkpt lat="43.55308" lon="-5.898513">
        <ele>9</ele>
        <time>2019-11-24T17:54:18Z</time>
      </trkpt>
      <trkpt lat="43.553123" lon="-5.898485">
        <ele>9.2</ele>
        <time>2019-11-24T17:54:19Z</time>
      </trkpt>
      <trkpt lat="43.553164" lon="-5.898454">
        <ele>9.6</ele>
        <time>2019-11-24T17:54:20Z</time>
      </trkpt>
      <trkpt lat="43.553206" lon="-5.898422">
        <ele>9.8</ele>
        <time>2019-11-24T17:54:21Z</time>
      </trkpt>
      <trkpt lat="43.553246" lon="-5.898387">
        <ele>10</ele>
        <time>2019-11-24T17:54:22Z</time>
      </trkpt>
      <trkpt lat="43.553284" lon="-5.898352">
        <ele>10.4</ele>
        <time>2019-11-24T17:54:23Z</time>
      </trkpt>
      <trkpt lat="43.553315" lon="-5.898313">
        <ele>10.4</ele>
        <time>2019-11-24T17:54:24Z</time>
      </trkpt>
      <trkpt lat="43.553343" lon="-5.898267">
        <ele>10.4</ele>
        <time>2019-11-24T17:54:25Z</time>
      </trkpt>
      <trkpt lat="43.553372" lon="-5.898222">
        <ele>11</ele>
        <time>2019-11-24T17:54:26Z</time>
      </trkpt>
      <trkpt lat="43.553402" lon="-5.898175">
        <ele>11.2</ele>
        <time>2019-11-24T17:54:27Z</time>
      </trkpt>
      <trkpt lat="43.553432" lon="-5.898128">
        <ele>11.2</ele>
        <time>2019-11-24T17:54:28Z</time>
      </trkpt>
      <trkpt lat="43.553462" lon="-5.898085">
        <ele>11.8</ele>
        <time>2019-11-24T17:54:29Z</time>
      </trkpt>
      <trkpt lat="43.553493" lon="-5.898044">
        <ele>12.2</ele>
        <time>2019-11-24T17:54:30Z</time>
      </trkpt>
      <trkpt lat="43.553523" lon="-5.898002">
        <ele>12.4</ele>
        <time>2019-11-24T17:54:31Z</time>
      </trkpt>
      <trkpt lat="43.553554" lon="-5.89796">
        <ele>12.6</ele>
        <time>2019-11-24T17:54:32Z</time>
      </trkpt>
      <trkpt lat="43.553589" lon="-5.897918">
        <ele>13</ele>
        <time>2019-11-24T17:54:33Z</time>
      </trkpt>
      <trkpt lat="43.553626" lon="-5.897876">
        <ele>13.8</ele>
        <time>2019-11-24T17:54:34Z</time>
      </trkpt>
      <trkpt lat="43.553664" lon="-5.897834">
        <ele>14.6</ele>
        <time>2019-11-24T17:54:35Z</time>
      </trkpt>
      <trkpt lat="43.553703" lon="-5.897793">
        <ele>14.2</ele>
        <time>2019-11-24T17:54:36Z</time>
      </trkpt>
      <trkpt lat="43.553744" lon="-5.897756">
        <ele>14.8</ele>
        <time>2019-11-24T17:54:37Z</time>
      </trkpt>
      <trkpt lat="43.553789" lon="-5.897725">
        <ele>14.4</ele>
        <time>2019-11-24T17:54:38Z</time>
      </trkpt>
      <trkpt lat="43.553835" lon="-5.897698">
        <ele>14.6</ele>
        <time>2019-11-24T17:54:39Z</time>
      </trkpt>
      <trkpt lat="43.553884" lon="-5.897672">
        <ele>14.8</ele>
        <time>2019-11-24T17:54:40Z</time>
      </trkpt>
      <trkpt lat="43.553931" lon="-5.897651">
        <ele>15</ele>
        <time>2019-11-24T17:54:41Z</time>
      </trkpt>
      <trkpt lat="43.55398" lon="-5.897634">
        <ele>15.4</ele>
        <time>2019-11-24T17:54:42Z</time>
      </trkpt>
      <trkpt lat="43.554032" lon="-5.89762">
        <ele>15.4</ele>
        <time>2019-11-24T17:54:43Z</time>
      </trkpt>
      <trkpt lat="43.554085" lon="-5.897611">
        <ele>14.4</ele>
        <time>2019-11-24T17:54:44Z</time>
      </trkpt>
      <trkpt lat="43.554139" lon="-5.897608">
        <ele>14</ele>
        <time>2019-11-24T17:54:45Z</time>
      </trkpt>
      <trkpt lat="43.554194" lon="-5.897609">
        <ele>14.2</ele>
        <time>2019-11-24T17:54:46Z</time>
      </trkpt>
      <trkpt lat="43.554251" lon="-5.897613">
        <ele>14.2</ele>
        <time>2019-11-24T17:54:47Z</time>
      </trkpt>
      <trkpt lat="43.554308" lon="-5.897618">
        <ele>14.4</ele>
        <time>2019-11-24T17:54:48Z</time>
      </trkpt>
      <trkpt lat="43.554365" lon="-5.897623">
        <ele>14.8</ele>
        <time>2019-11-24T17:54:49Z</time>
      </trkpt>
      <trkpt lat="43.554422" lon="-5.89763">
        <ele>14.8</ele>
        <time>2019-11-24T17:54:50Z</time>
      </trkpt>
      <trkpt lat="43.554479" lon="-5.897638">
        <ele>14.8</ele>
        <time>2019-11-24T17:54:51Z</time>
      </trkpt>
      <trkpt lat="43.554538" lon="-5.897645">
        <ele>14.8</ele>
        <time>2019-11-24T17:54:52Z</time>
      </trkpt>
      <trkpt lat="43.554598" lon="-5.897652">
        <ele>14.4</ele>
        <time>2019-11-24T17:54:53Z</time>
      </trkpt>
      <trkpt lat="43.554658" lon="-5.89766">
        <ele>14.6</ele>
        <time>2019-11-24T17:54:54Z</time>
      </trkpt>
      <trkpt lat="43.554717" lon="-5.897668">
        <ele>14.6</ele>
        <time>2019-11-24T17:54:55Z</time>
      </trkpt>
      <trkpt lat="43.554776" lon="-5.897675">
        <ele>14.8</ele>
        <time>2019-11-24T17:54:56Z</time>
      </trkpt>
      <trkpt lat="43.554836" lon="-5.897682">
        <ele>14.8</ele>
        <time>2019-11-24T17:54:57Z</time>
      </trkpt>
      <trkpt lat="43.554895" lon="-5.89769">
        <ele>14.8</ele>
        <time>2019-11-24T17:54:58Z</time>
      </trkpt>
      <trkpt lat="43.554955" lon="-5.897696">
        <ele>14.8</ele>
        <time>2019-11-24T17:54:59Z</time>
      </trkpt>
      <trkpt lat="43.555014" lon="-5.897702">
        <ele>14.8</ele>
        <time>2019-11-24T17:55:00Z</time>
      </trkpt>
      <trkpt lat="43.555073" lon="-5.897708">
        <ele>15.2</ele>
        <time>2019-11-24T17:55:01Z</time>
      </trkpt>
      <trkpt lat="43.555132" lon="-5.897715">
        <ele>14.6</ele>
        <time>2019-11-24T17:55:02Z</time>
      </trkpt>
      <trkpt lat="43.555191" lon="-5.897722">
        <ele>14.8</ele>
        <time>2019-11-24T17:55:03Z</time>
      </trkpt>
      <trkpt lat="43.55525" lon="-5.897729">
        <ele>14.6</ele>
        <time>2019-11-24T17:55:04Z</time>
      </trkpt>
      <trkpt lat="43.555309" lon="-5.897736">
        <ele>14.6</ele>
        <time>2019-11-24T17:55:05Z</time>
      </trkpt>
      <trkpt lat="43.555369" lon="-5.897736">
        <ele>13.8</ele>
        <time>2019-11-24T17:55:06Z</time>
      </trkpt>
      <trkpt lat="43.555433" lon="-5.897729">
        <ele>13.6</ele>
        <time>2019-11-24T17:55:07Z</time>
      </trkpt>
      <trkpt lat="43.555499" lon="-5.897718">
        <ele>12.6</ele>
        <time>2019-11-24T17:55:08Z</time>
      </trkpt>
      <trkpt lat="43.555568" lon="-5.897701">
        <ele>12.2</ele>
        <time>2019-11-24T17:55:09Z</time>
      </trkpt>
      <trkpt lat="43.555642" lon="-5.897677">
        <ele>11.2</ele>
        <time>2019-11-24T17:55:10Z</time>
      </trkpt>
      <trkpt lat="43.555717" lon="-5.897643">
        <ele>10.8</ele>
        <time>2019-11-24T17:55:11Z</time>
      </trkpt>
      <trkpt lat="43.555791" lon="-5.897602">
        <ele>10.4</ele>
        <time>2019-11-24T17:55:12Z</time>
      </trkpt>
      <trkpt lat="43.555868" lon="-5.897552">
        <ele>9.6</ele>
        <time>2019-11-24T17:55:13Z</time>
      </trkpt>
      <trkpt lat="43.555944" lon="-5.897494">
        <ele>8.2</ele>
        <time>2019-11-24T17:55:14Z</time>
      </trkpt>
      <trkpt lat="43.556019" lon="-5.897429">
        <ele>8.2</ele>
        <time>2019-11-24T17:55:15Z</time>
      </trkpt>
      <trkpt lat="43.556093" lon="-5.897362">
        <ele>8</ele>
        <time>2019-11-24T17:55:16Z</time>
      </trkpt>
      <trkpt lat="43.556161" lon="-5.897289">
        <ele>7.8</ele>
        <time>2019-11-24T17:55:17Z</time>
      </trkpt>
      <trkpt lat="43.556216" lon="-5.897205">
        <ele>7.4</ele>
        <time>2019-11-24T17:55:18Z</time>
      </trkpt>
      <trkpt lat="43.556253" lon="-5.897107">
        <ele>7.4</ele>
        <time>2019-11-24T17:55:19Z</time>
      </trkpt>
      <trkpt lat="43.55628" lon="-5.897003">
        <ele>7.6</ele>
        <time>2019-11-24T17:55:20Z</time>
      </trkpt>
      <trkpt lat="43.55631" lon="-5.896907">
        <ele>7.4</ele>
        <time>2019-11-24T17:55:21Z</time>
      </trkpt>
      <trkpt lat="43.55636" lon="-5.896833">
        <ele>8</ele>
        <time>2019-11-24T17:55:22Z</time>
      </trkpt>
      <trkpt lat="43.556424" lon="-5.896785">
        <ele>7.2</ele>
        <time>2019-11-24T17:55:23Z</time>
      </trkpt>
      <trkpt lat="43.556495" lon="-5.896759">
        <ele>7</ele>
        <time>2019-11-24T17:55:24Z</time>
      </trkpt>
      <trkpt lat="43.55657" lon="-5.896749">
        <ele>7.6</ele>
        <time>2019-11-24T17:55:25Z</time>
      </trkpt>
      <trkpt lat="43.556644" lon="-5.896733">
        <ele>7.8</ele>
        <time>2019-11-24T17:55:26Z</time>
      </trkpt>
      <trkpt lat="43.556715" lon="-5.896698">
        <ele>8</ele>
        <time>2019-11-24T17:55:27Z</time>
      </trkpt>
      <trkpt lat="43.556781" lon="-5.896651">
        <ele>8.2</ele>
        <time>2019-11-24T17:55:28Z</time>
      </trkpt>
      <trkpt lat="43.556845" lon="-5.896598">
        <ele>7.8</ele>
        <time>2019-11-24T17:55:29Z</time>
      </trkpt>
      <trkpt lat="43.556909" lon="-5.896545">
        <ele>7.6</ele>
        <time>2019-11-24T17:55:30Z</time>
      </trkpt>
      <trkpt lat="43.556975" lon="-5.896495">
        <ele>8</ele>
        <time>2019-11-24T17:55:31Z</time>
      </trkpt>
      <trkpt lat="43.557041" lon="-5.896451">
        <ele>8</ele>
        <time>2019-11-24T17:55:32Z</time>
      </trkpt>
      <trkpt lat="43.557107" lon="-5.896412">
        <ele>7.6</ele>
        <time>2019-11-24T17:55:33Z</time>
      </trkpt>
      <trkpt lat="43.557175" lon="-5.896372">
        <ele>7.4</ele>
        <time>2019-11-24T17:55:34Z</time>
      </trkpt>
      <trkpt lat="43.557241" lon="-5.896332">
        <ele>7.2</ele>
        <time>2019-11-24T17:55:35Z</time>
      </trkpt>
      <trkpt lat="43.557306" lon="-5.896292">
        <ele>7.4</ele>
        <time>2019-11-24T17:55:36Z</time>
      </trkpt>
      <trkpt lat="43.557373" lon="-5.896255">
        <ele>8</ele>
        <time>2019-11-24T17:55:37Z</time>
      </trkpt>
      <trkpt lat="43.55744" lon="-5.896218">
        <ele>7.6</ele>
        <time>2019-11-24T17:55:38Z</time>
      </trkpt>
      <trkpt lat="43.557508" lon="-5.896181">
        <ele>8</ele>
        <time>2019-11-24T17:55:39Z</time>
      </trkpt>
      <trkpt lat="43.557574" lon="-5.896147">
        <ele>7.4</ele>
        <time>2019-11-24T17:55:40Z</time>
      </trkpt>
      <trkpt lat="43.557641" lon="-5.896114">
        <ele>7.4</ele>
        <time>2019-11-24T17:55:41Z</time>
      </trkpt>
      <trkpt lat="43.557705" lon="-5.896081">
        <ele>7.4</ele>
        <time>2019-11-24T17:55:42Z</time>
      </trkpt>
      <trkpt lat="43.557768" lon="-5.896046">
        <ele>7.8</ele>
        <time>2019-11-24T17:55:43Z</time>
      </trkpt>
      <trkpt lat="43.557831" lon="-5.896012">
        <ele>8</ele>
        <time>2019-11-24T17:55:44Z</time>
      </trkpt>
      <trkpt lat="43.557893" lon="-5.895974">
        <ele>8.2</ele>
        <time>2019-11-24T17:55:45Z</time>
      </trkpt>
      <trkpt lat="43.557955" lon="-5.895936">
        <ele>8.4</ele>
        <time>2019-11-24T17:55:46Z</time>
      </trkpt>
      <trkpt lat="43.558016" lon="-5.8959">
        <ele>8.6</ele>
        <time>2019-11-24T17:55:47Z</time>
      </trkpt>
      <trkpt lat="43.558078" lon="-5.895865">
        <ele>8.4</ele>
        <time>2019-11-24T17:55:48Z</time>
      </trkpt>
      <trkpt lat="43.558138" lon="-5.895831">
        <ele>8.2</ele>
        <time>2019-11-24T17:55:49Z</time>
      </trkpt>
      <trkpt lat="43.558199" lon="-5.895796">
        <ele>8</ele>
        <time>2019-11-24T17:55:50Z</time>
      </trkpt>
      <trkpt lat="43.558257" lon="-5.895759">
        <ele>8</ele>
        <time>2019-11-24T17:55:51Z</time>
      </trkpt>
      <trkpt lat="43.558315" lon="-5.895723">
        <ele>8.2</ele>
        <time>2019-11-24T17:55:52Z</time>
      </trkpt>
      <trkpt lat="43.558372" lon="-5.895687">
        <ele>8.6</ele>
        <time>2019-11-24T17:55:53Z</time>
      </trkpt>
      <trkpt lat="43.558428" lon="-5.89565">
        <ele>9</ele>
        <time>2019-11-24T17:55:54Z</time>
      </trkpt>
      <trkpt lat="43.558483" lon="-5.895614">
        <ele>9.6</ele>
        <time>2019-11-24T17:55:55Z</time>
      </trkpt>
      <trkpt lat="43.55854" lon="-5.895579">
        <ele>9.4</ele>
        <time>2019-11-24T17:55:56Z</time>
      </trkpt>
      <trkpt lat="43.558597" lon="-5.895547">
        <ele>9.2</ele>
        <time>2019-11-24T17:55:57Z</time>
      </trkpt>
      <trkpt lat="43.558657" lon="-5.895524">
        <ele>8.6</ele>
        <time>2019-11-24T17:55:58Z</time>
      </trkpt>
      <trkpt lat="43.558719" lon="-5.895508">
        <ele>8.2</ele>
        <time>2019-11-24T17:55:59Z</time>
      </trkpt>
      <trkpt lat="43.558783" lon="-5.895495">
        <ele>8.4</ele>
        <time>2019-11-24T17:56:00Z</time>
      </trkpt>
      <trkpt lat="43.558848" lon="-5.895484">
        <ele>8.2</ele>
        <time>2019-11-24T17:56:01Z</time>
      </trkpt>
      <trkpt lat="43.558912" lon="-5.895472">
        <ele>8.4</ele>
        <time>2019-11-24T17:56:02Z</time>
      </trkpt>
      <trkpt lat="43.558976" lon="-5.895459">
        <ele>9.2</ele>
        <time>2019-11-24T17:56:03Z</time>
      </trkpt>
      <trkpt lat="43.559039" lon="-5.895445">
        <ele>8.6</ele>
        <time>2019-11-24T17:56:04Z</time>
      </trkpt>
      <trkpt lat="43.559103" lon="-5.895432">
        <ele>8.4</ele>
        <time>2019-11-24T17:56:05Z</time>
      </trkpt>
      <trkpt lat="43.559168" lon="-5.895423">
        <ele>8.4</ele>
        <time>2019-11-24T17:56:06Z</time>
      </trkpt>
      <trkpt lat="43.559234" lon="-5.895416">
        <ele>8.6</ele>
        <time>2019-11-24T17:56:07Z</time>
      </trkpt>
      <trkpt lat="43.559301" lon="-5.895413">
        <ele>8.6</ele>
        <time>2019-11-24T17:56:08Z</time>
      </trkpt>
      <trkpt lat="43.559369" lon="-5.895412">
        <ele>8.2</ele>
        <time>2019-11-24T17:56:09Z</time>
      </trkpt>
      <trkpt lat="43.559436" lon="-5.895418">
        <ele>8.6</ele>
        <time>2019-11-24T17:56:10Z</time>
      </trkpt>
      <trkpt lat="43.559502" lon="-5.895428">
        <ele>8.6</ele>
        <time>2019-11-24T17:56:11Z</time>
      </trkpt>
      <trkpt lat="43.559567" lon="-5.895429">
        <ele>9</ele>
        <time>2019-11-24T17:56:12Z</time>
      </trkpt>
      <trkpt lat="43.559628" lon="-5.895415">
        <ele>9.2</ele>
        <time>2019-11-24T17:56:13Z</time>
      </trkpt>
      <trkpt lat="43.559679" lon="-5.89539">
        <ele>9</ele>
        <time>2019-11-24T17:56:14Z</time>
      </trkpt>
      <trkpt lat="43.55972" lon="-5.895364">
        <ele>9.4</ele>
        <time>2019-11-24T17:56:15Z</time>
      </trkpt>
      <trkpt lat="43.559757" lon="-5.895337">
        <ele>8.6</ele>
        <time>2019-11-24T17:56:16Z</time>
      </trkpt>
      <trkpt lat="43.559799" lon="-5.895308">
        <ele>9.4</ele>
        <time>2019-11-24T17:56:17Z</time>
      </trkpt>
      <trkpt lat="43.559845" lon="-5.895278">
        <ele>8.8</ele>
        <time>2019-11-24T17:56:18Z</time>
      </trkpt>
      <trkpt lat="43.559896" lon="-5.895252">
        <ele>8.8</ele>
        <time>2019-11-24T17:56:19Z</time>
      </trkpt>
      <trkpt lat="43.559951" lon="-5.89524">
        <ele>10</ele>
        <time>2019-11-24T17:56:20Z</time>
      </trkpt>
      <trkpt lat="43.56001" lon="-5.895243">
        <ele>9</ele>
        <time>2019-11-24T17:56:21Z</time>
      </trkpt>
      <trkpt lat="43.560067" lon="-5.895264">
        <ele>8.4</ele>
        <time>2019-11-24T17:56:22Z</time>
      </trkpt>
      <trkpt lat="43.560118" lon="-5.895307">
        <ele>9.2</ele>
        <time>2019-11-24T17:56:23Z</time>
      </trkpt>
      <trkpt lat="43.56016" lon="-5.895366">
        <ele>9</ele>
        <time>2019-11-24T17:56:24Z</time>
      </trkpt>
      <trkpt lat="43.560192" lon="-5.895437">
        <ele>9.4</ele>
        <time>2019-11-24T17:56:25Z</time>
      </trkpt>
      <trkpt lat="43.560213" lon="-5.895517">
        <ele>10</ele>
        <time>2019-11-24T17:56:26Z</time>
      </trkpt>
      <trkpt lat="43.560225" lon="-5.895602">
        <ele>10.2</ele>
        <time>2019-11-24T17:56:27Z</time>
      </trkpt>
      <trkpt lat="43.560229" lon="-5.895689">
        <ele>9.6</ele>
        <time>2019-11-24T17:56:28Z</time>
      </trkpt>
      <trkpt lat="43.560226" lon="-5.895776">
        <ele>9.4</ele>
        <time>2019-11-24T17:56:29Z</time>
      </trkpt>
      <trkpt lat="43.560223" lon="-5.895866">
        <ele>10.2</ele>
        <time>2019-11-24T17:56:30Z</time>
      </trkpt>
      <trkpt lat="43.560224" lon="-5.895956">
        <ele>9.8</ele>
        <time>2019-11-24T17:56:31Z</time>
      </trkpt>
      <trkpt lat="43.56023" lon="-5.896048">
        <ele>9.4</ele>
        <time>2019-11-24T17:56:32Z</time>
      </trkpt>
      <trkpt lat="43.560238" lon="-5.89614">
        <ele>9.6</ele>
        <time>2019-11-24T17:56:33Z</time>
      </trkpt>
      <trkpt lat="43.560246" lon="-5.896232">
        <ele>9.2</ele>
        <time>2019-11-24T17:56:34Z</time>
      </trkpt>
      <trkpt lat="43.560251" lon="-5.896326">
        <ele>9</ele>
        <time>2019-11-24T17:56:35Z</time>
      </trkpt>
      <trkpt lat="43.560251" lon="-5.89642">
        <ele>9.6</ele>
        <time>2019-11-24T17:56:36Z</time>
      </trkpt>
      <trkpt lat="43.560247" lon="-5.896516">
        <ele>9.8</ele>
        <time>2019-11-24T17:56:37Z</time>
      </trkpt>
      <trkpt lat="43.560239" lon="-5.896613">
        <ele>9.2</ele>
        <time>2019-11-24T17:56:38Z</time>
      </trkpt>
      <trkpt lat="43.560232" lon="-5.896711">
        <ele>9.2</ele>
        <time>2019-11-24T17:56:39Z</time>
      </trkpt>
      <trkpt lat="43.560225" lon="-5.89681">
        <ele>9</ele>
        <time>2019-11-24T17:56:40Z</time>
      </trkpt>
      <trkpt lat="43.560219" lon="-5.89691">
        <ele>9</ele>
        <time>2019-11-24T17:56:41Z</time>
      </trkpt>
      <trkpt lat="43.560212" lon="-5.89701">
        <ele>9</ele>
        <time>2019-11-24T17:56:42Z</time>
      </trkpt>
      <trkpt lat="43.560205" lon="-5.897112">
        <ele>8.8</ele>
        <time>2019-11-24T17:56:43Z</time>
      </trkpt>
      <trkpt lat="43.560198" lon="-5.897214">
        <ele>8.4</ele>
        <time>2019-11-24T17:56:44Z</time>
      </trkpt>
      <trkpt lat="43.560192" lon="-5.897317">
        <ele>9.2</ele>
        <time>2019-11-24T17:56:45Z</time>
      </trkpt>
      <trkpt lat="43.560187" lon="-5.897419">
        <ele>8.8</ele>
        <time>2019-11-24T17:56:46Z</time>
      </trkpt>
      <trkpt lat="43.56018" lon="-5.897522">
        <ele>8.8</ele>
        <time>2019-11-24T17:56:47Z</time>
      </trkpt>
      <trkpt lat="43.560173" lon="-5.897623">
        <ele>9.2</ele>
        <time>2019-11-24T17:56:48Z</time>
      </trkpt>
      <trkpt lat="43.560166" lon="-5.897725">
        <ele>9.2</ele>
        <time>2019-11-24T17:56:49Z</time>
      </trkpt>
      <trkpt lat="43.56016" lon="-5.897826">
        <ele>8.4</ele>
        <time>2019-11-24T17:56:50Z</time>
      </trkpt>
      <trkpt lat="43.560153" lon="-5.897927">
        <ele>9.8</ele>
        <time>2019-11-24T17:56:51Z</time>
      </trkpt>
      <trkpt lat="43.560147" lon="-5.898027">
        <ele>9.2</ele>
        <time>2019-11-24T17:56:52Z</time>
      </trkpt>
      <trkpt lat="43.56014" lon="-5.898127">
        <ele>9</ele>
        <time>2019-11-24T17:56:53Z</time>
      </trkpt>
      <trkpt lat="43.560133" lon="-5.898227">
        <ele>9.4</ele>
        <time>2019-11-24T17:56:54Z</time>
      </trkpt>
      <trkpt lat="43.560126" lon="-5.898326">
        <ele>9.4</ele>
        <time>2019-11-24T17:56:55Z</time>
      </trkpt>
      <trkpt lat="43.56012" lon="-5.898427">
        <ele>9.6</ele>
        <time>2019-11-24T17:56:56Z</time>
      </trkpt>
      <trkpt lat="43.560114" lon="-5.898527">
        <ele>9.4</ele>
        <time>2019-11-24T17:56:57Z</time>
      </trkpt>
      <trkpt lat="43.560107" lon="-5.898629">
        <ele>9.4</ele>
        <time>2019-11-24T17:56:58Z</time>
      </trkpt>
      <trkpt lat="43.560101" lon="-5.898731">
        <ele>9</ele>
        <time>2019-11-24T17:56:59Z</time>
      </trkpt>
      <trkpt lat="43.560094" lon="-5.898833">
        <ele>9.2</ele>
        <time>2019-11-24T17:57:00Z</time>
      </trkpt>
      <trkpt lat="43.560086" lon="-5.898936">
        <ele>8.8</ele>
        <time>2019-11-24T17:57:01Z</time>
      </trkpt>
      <trkpt lat="43.560079" lon="-5.899041">
        <ele>9.2</ele>
        <time>2019-11-24T17:57:02Z</time>
      </trkpt>
      <trkpt lat="43.560072" lon="-5.899145">
        <ele>9.4</ele>
        <time>2019-11-24T17:57:03Z</time>
      </trkpt>
      <trkpt lat="43.560065" lon="-5.89925">
        <ele>9.4</ele>
        <time>2019-11-24T17:57:04Z</time>
      </trkpt>
      <trkpt lat="43.560059" lon="-5.899355">
        <ele>9.2</ele>
        <time>2019-11-24T17:57:05Z</time>
      </trkpt>
      <trkpt lat="43.560054" lon="-5.89946">
        <ele>9.6</ele>
        <time>2019-11-24T17:57:06Z</time>
      </trkpt>
      <trkpt lat="43.560048" lon="-5.899564">
        <ele>9.2</ele>
        <time>2019-11-24T17:57:07Z</time>
      </trkpt>
      <trkpt lat="43.560041" lon="-5.899668">
        <ele>9</ele>
        <time>2019-11-24T17:57:08Z</time>
      </trkpt>
      <trkpt lat="43.560034" lon="-5.899772">
        <ele>9.4</ele>
        <time>2019-11-24T17:57:09Z</time>
      </trkpt>
      <trkpt lat="43.560028" lon="-5.899877">
        <ele>9.4</ele>
        <time>2019-11-24T17:57:10Z</time>
      </trkpt>
      <trkpt lat="43.560021" lon="-5.899982">
        <ele>9.4</ele>
        <time>2019-11-24T17:57:11Z</time>
      </trkpt>
      <trkpt lat="43.560014" lon="-5.900087">
        <ele>9.6</ele>
        <time>2019-11-24T17:57:12Z</time>
      </trkpt>
      <trkpt lat="43.560007" lon="-5.900192">
        <ele>9.6</ele>
        <time>2019-11-24T17:57:13Z</time>
      </trkpt>
      <trkpt lat="43.56" lon="-5.900298">
        <ele>9.6</ele>
        <time>2019-11-24T17:57:14Z</time>
      </trkpt>
      <trkpt lat="43.559993" lon="-5.900403">
        <ele>9.6</ele>
        <time>2019-11-24T17:57:15Z</time>
      </trkpt>
      <trkpt lat="43.559986" lon="-5.900509">
        <ele>9.6</ele>
        <time>2019-11-24T17:57:16Z</time>
      </trkpt>
      <trkpt lat="43.559979" lon="-5.900614">
        <ele>9.4</ele>
        <time>2019-11-24T17:57:17Z</time>
      </trkpt>
      <trkpt lat="43.559972" lon="-5.900719">
        <ele>9.4</ele>
        <time>2019-11-24T17:57:18Z</time>
      </trkpt>
      <trkpt lat="43.559965" lon="-5.900825">
        <ele>9.8</ele>
        <time>2019-11-24T17:57:19Z</time>
      </trkpt>
      <trkpt lat="43.559958" lon="-5.90093">
        <ele>9.6</ele>
        <time>2019-11-24T17:57:20Z</time>
      </trkpt>
      <trkpt lat="43.559952" lon="-5.901035">
        <ele>9.4</ele>
        <time>2019-11-24T17:57:21Z</time>
      </trkpt>
      <trkpt lat="43.559945" lon="-5.90114">
        <ele>9.6</ele>
        <time>2019-11-24T17:57:22Z</time>
      </trkpt>
      <trkpt lat="43.559938" lon="-5.901244">
        <ele>10.4</ele>
        <time>2019-11-24T17:57:23Z</time>
      </trkpt>
      <trkpt lat="43.559932" lon="-5.901348">
        <ele>9.6</ele>
        <time>2019-11-24T17:57:24Z</time>
      </trkpt>
      <trkpt lat="43.559925" lon="-5.901453">
        <ele>10.4</ele>
        <time>2019-11-24T17:57:25Z</time>
      </trkpt>
      <trkpt lat="43.559917" lon="-5.901559">
        <ele>10.2</ele>
        <time>2019-11-24T17:57:26Z</time>
      </trkpt>
      <trkpt lat="43.55991" lon="-5.901665">
        <ele>9.8</ele>
        <time>2019-11-24T17:57:27Z</time>
      </trkpt>
      <trkpt lat="43.559903" lon="-5.901772">
        <ele>11.6</ele>
        <time>2019-11-24T17:57:28Z</time>
      </trkpt>
      <trkpt lat="43.559896" lon="-5.901881">
        <ele>9.8</ele>
        <time>2019-11-24T17:57:29Z</time>
      </trkpt>
      <trkpt lat="43.55989" lon="-5.901989">
        <ele>10.6</ele>
        <time>2019-11-24T17:57:30Z</time>
      </trkpt>
      <trkpt lat="43.559884" lon="-5.902098">
        <ele>8.8</ele>
        <time>2019-11-24T17:57:31Z</time>
      </trkpt>
      <trkpt lat="43.559877" lon="-5.902206">
        <ele>10.2</ele>
        <time>2019-11-24T17:57:32Z</time>
      </trkpt>
      <trkpt lat="43.55987" lon="-5.902313">
        <ele>10.4</ele>
        <time>2019-11-24T17:57:33Z</time>
      </trkpt>
      <trkpt lat="43.559863" lon="-5.902421">
        <ele>10</ele>
        <time>2019-11-24T17:57:34Z</time>
      </trkpt>
      <trkpt lat="43.559856" lon="-5.902528">
        <ele>10.4</ele>
        <time>2019-11-24T17:57:35Z</time>
      </trkpt>
      <trkpt lat="43.55985" lon="-5.902634">
        <ele>10</ele>
        <time>2019-11-24T17:57:36Z</time>
      </trkpt>
      <trkpt lat="43.559843" lon="-5.902739">
        <ele>9.2</ele>
        <time>2019-11-24T17:57:37Z</time>
      </trkpt>
      <trkpt lat="43.559836" lon="-5.902844">
        <ele>9.2</ele>
        <time>2019-11-24T17:57:38Z</time>
      </trkpt>
      <trkpt lat="43.559829" lon="-5.902949">
        <ele>9.2</ele>
        <time>2019-11-24T17:57:39Z</time>
      </trkpt>
      <trkpt lat="43.559823" lon="-5.903054">
        <ele>10.4</ele>
        <time>2019-11-24T17:57:40Z</time>
      </trkpt>
      <trkpt lat="43.559817" lon="-5.903158">
        <ele>10.6</ele>
        <time>2019-11-24T17:57:41Z</time>
      </trkpt>
      <trkpt lat="43.55981" lon="-5.903262">
        <ele>11</ele>
        <time>2019-11-24T17:57:42Z</time>
      </trkpt>
      <trkpt lat="43.559803" lon="-5.903367">
        <ele>9.8</ele>
        <time>2019-11-24T17:57:43Z</time>
      </trkpt>
      <trkpt lat="43.559796" lon="-5.90347">
        <ele>10</ele>
        <time>2019-11-24T17:57:44Z</time>
      </trkpt>
      <trkpt lat="43.55979" lon="-5.903573">
        <ele>10.8</ele>
        <time>2019-11-24T17:57:45Z</time>
      </trkpt>
      <trkpt lat="43.559782" lon="-5.903676">
        <ele>9.8</ele>
        <time>2019-11-24T17:57:46Z</time>
      </trkpt>
      <trkpt lat="43.559775" lon="-5.903779">
        <ele>9.6</ele>
        <time>2019-11-24T17:57:47Z</time>
      </trkpt>
      <trkpt lat="43.559768" lon="-5.903884">
        <ele>10.2</ele>
        <time>2019-11-24T17:57:48Z</time>
      </trkpt>
      <trkpt lat="43.55976" lon="-5.90399">
        <ele>8.6</ele>
        <time>2019-11-24T17:57:49Z</time>
      </trkpt>
      <trkpt lat="43.559754" lon="-5.904096">
        <ele>8.4</ele>
        <time>2019-11-24T17:57:50Z</time>
      </trkpt>
      <trkpt lat="43.559751" lon="-5.904203">
        <ele>8.8</ele>
        <time>2019-11-24T17:57:51Z</time>
      </trkpt>
      <trkpt lat="43.559748" lon="-5.904309">
        <ele>9.6</ele>
        <time>2019-11-24T17:57:52Z</time>
      </trkpt>
      <trkpt lat="43.559744" lon="-5.904414">
        <ele>9.8</ele>
        <time>2019-11-24T17:57:53Z</time>
      </trkpt>
      <trkpt lat="43.559739" lon="-5.904517">
        <ele>8.2</ele>
        <time>2019-11-24T17:57:54Z</time>
      </trkpt>
      <trkpt lat="43.559734" lon="-5.904621">
        <ele>9.2</ele>
        <time>2019-11-24T17:57:55Z</time>
      </trkpt>
      <trkpt lat="43.559729" lon="-5.904726">
        <ele>9.8</ele>
        <time>2019-11-24T17:57:56Z</time>
      </trkpt>
      <trkpt lat="43.559723" lon="-5.904829">
        <ele>9.2</ele>
        <time>2019-11-24T17:57:57Z</time>
      </trkpt>
      <trkpt lat="43.559717" lon="-5.904933">
        <ele>9.6</ele>
        <time>2019-11-24T17:57:58Z</time>
      </trkpt>
      <trkpt lat="43.559712" lon="-5.905038">
        <ele>10.6</ele>
        <time>2019-11-24T17:57:59Z</time>
      </trkpt>
      <trkpt lat="43.559707" lon="-5.905143">
        <ele>10.8</ele>
        <time>2019-11-24T17:58:00Z</time>
      </trkpt>
      <trkpt lat="43.559701" lon="-5.905247">
        <ele>10.2</ele>
        <time>2019-11-24T17:58:01Z</time>
      </trkpt>
      <trkpt lat="43.559696" lon="-5.905352">
        <ele>10</ele>
        <time>2019-11-24T17:58:02Z</time>
      </trkpt>
      <trkpt lat="43.55969" lon="-5.905455">
        <ele>10.6</ele>
        <time>2019-11-24T17:58:03Z</time>
      </trkpt>
      <trkpt lat="43.559684" lon="-5.90556">
        <ele>10.6</ele>
        <time>2019-11-24T17:58:04Z</time>
      </trkpt>
      <trkpt lat="43.559678" lon="-5.905665">
        <ele>10.4</ele>
        <time>2019-11-24T17:58:05Z</time>
      </trkpt>
      <trkpt lat="43.559672" lon="-5.905772">
        <ele>10</ele>
        <time>2019-11-24T17:58:06Z</time>
      </trkpt>
      <trkpt lat="43.559666" lon="-5.905879">
        <ele>9.8</ele>
        <time>2019-11-24T17:58:07Z</time>
      </trkpt>
      <trkpt lat="43.559662" lon="-5.905986">
        <ele>9</ele>
        <time>2019-11-24T17:58:08Z</time>
      </trkpt>
      <trkpt lat="43.559657" lon="-5.906092">
        <ele>11</ele>
        <time>2019-11-24T17:58:09Z</time>
      </trkpt>
      <trkpt lat="43.559651" lon="-5.906198">
        <ele>10.6</ele>
        <time>2019-11-24T17:58:10Z</time>
      </trkpt>
      <trkpt lat="43.559647" lon="-5.906303">
        <ele>10.8</ele>
        <time>2019-11-24T17:58:11Z</time>
      </trkpt>
      <trkpt lat="43.559641" lon="-5.906408">
        <ele>10.6</ele>
        <time>2019-11-24T17:58:12Z</time>
      </trkpt>
      <trkpt lat="43.559636" lon="-5.906511">
        <ele>11</ele>
        <time>2019-11-24T17:58:13Z</time>
      </trkpt>
      <trkpt lat="43.559631" lon="-5.906615">
        <ele>11</ele>
        <time>2019-11-24T17:58:14Z</time>
      </trkpt>
      <trkpt lat="43.559628" lon="-5.906718">
        <ele>11.2</ele>
        <time>2019-11-24T17:58:15Z</time>
      </trkpt>
      <trkpt lat="43.559626" lon="-5.906821">
        <ele>10.4</ele>
        <time>2019-11-24T17:58:16Z</time>
      </trkpt>
      <trkpt lat="43.559622" lon="-5.906922">
        <ele>10.2</ele>
        <time>2019-11-24T17:58:17Z</time>
      </trkpt>
      <trkpt lat="43.559617" lon="-5.907024">
        <ele>10.6</ele>
        <time>2019-11-24T17:58:18Z</time>
      </trkpt>
      <trkpt lat="43.559615" lon="-5.907125">
        <ele>9.8</ele>
        <time>2019-11-24T17:58:19Z</time>
      </trkpt>
      <trkpt lat="43.559613" lon="-5.907226">
        <ele>12</ele>
        <time>2019-11-24T17:58:20Z</time>
      </trkpt>
      <trkpt lat="43.559612" lon="-5.907328">
        <ele>12.2</ele>
        <time>2019-11-24T17:58:21Z</time>
      </trkpt>
      <trkpt lat="43.559614" lon="-5.90743">
        <ele>11</ele>
        <time>2019-11-24T17:58:22Z</time>
      </trkpt>
      <trkpt lat="43.559618" lon="-5.907533">
        <ele>11.4</ele>
        <time>2019-11-24T17:58:23Z</time>
      </trkpt>
      <trkpt lat="43.559624" lon="-5.907637">
        <ele>11</ele>
        <time>2019-11-24T17:58:24Z</time>
      </trkpt>
      <trkpt lat="43.559631" lon="-5.90774">
        <ele>11</ele>
        <time>2019-11-24T17:58:25Z</time>
      </trkpt>
      <trkpt lat="43.55964" lon="-5.907843">
        <ele>12</ele>
        <time>2019-11-24T17:58:26Z</time>
      </trkpt>
      <trkpt lat="43.559649" lon="-5.907947">
        <ele>12.2</ele>
        <time>2019-11-24T17:58:27Z</time>
      </trkpt>
      <trkpt lat="43.559661" lon="-5.90805">
        <ele>11</ele>
        <time>2019-11-24T17:58:28Z</time>
      </trkpt>
      <trkpt lat="43.559674" lon="-5.908153">
        <ele>11.4</ele>
        <time>2019-11-24T17:58:29Z</time>
      </trkpt>
      <trkpt lat="43.55969" lon="-5.908253">
        <ele>12.2</ele>
        <time>2019-11-24T17:58:30Z</time>
      </trkpt>
      <trkpt lat="43.559707" lon="-5.908353">
        <ele>11.2</ele>
        <time>2019-11-24T17:58:31Z</time>
      </trkpt>
      <trkpt lat="43.559725" lon="-5.908451">
        <ele>10.2</ele>
        <time>2019-11-24T17:58:32Z</time>
      </trkpt>
      <trkpt lat="43.559745" lon="-5.908547">
        <ele>9.8</ele>
        <time>2019-11-24T17:58:33Z</time>
      </trkpt>
      <trkpt lat="43.559765" lon="-5.908641">
        <ele>11.2</ele>
        <time>2019-11-24T17:58:34Z</time>
      </trkpt>
      <trkpt lat="43.559787" lon="-5.908732">
        <ele>12</ele>
        <time>2019-11-24T17:58:35Z</time>
      </trkpt>
      <trkpt lat="43.559809" lon="-5.90882">
        <ele>12.4</ele>
        <time>2019-11-24T17:58:36Z</time>
      </trkpt>
      <trkpt lat="43.559833" lon="-5.908905">
        <ele>12.2</ele>
        <time>2019-11-24T17:58:37Z</time>
      </trkpt>
      <trkpt lat="43.55986" lon="-5.908989">
        <ele>13.4</ele>
        <time>2019-11-24T17:58:38Z</time>
      </trkpt>
      <trkpt lat="43.559886" lon="-5.909071">
        <ele>14.4</ele>
        <time>2019-11-24T17:58:39Z</time>
      </trkpt>
      <trkpt lat="43.559912" lon="-5.909151">
        <ele>14.6</ele>
        <time>2019-11-24T17:58:40Z</time>
      </trkpt>
      <trkpt lat="43.559939" lon="-5.909223">
        <ele>14.4</ele>
        <time>2019-11-24T17:58:41Z</time>
      </trkpt>
      <trkpt lat="43.55997" lon="-5.909285">
        <ele>16</ele>
        <time>2019-11-24T17:58:42Z</time>
      </trkpt>
      <trkpt lat="43.560005" lon="-5.909333">
        <ele>16</ele>
        <time>2019-11-24T17:58:43Z</time>
      </trkpt>
      <trkpt lat="43.56005" lon="-5.909365">
        <ele>15.6</ele>
        <time>2019-11-24T17:58:44Z</time>
      </trkpt>
      <trkpt lat="43.5601" lon="-5.909381">
        <ele>15.8</ele>
        <time>2019-11-24T17:58:45Z</time>
      </trkpt>
      <trkpt lat="43.560153" lon="-5.909389">
        <ele>16.8</ele>
        <time>2019-11-24T17:58:46Z</time>
      </trkpt>
      <trkpt lat="43.560208" lon="-5.909402">
        <ele>16.4</ele>
        <time>2019-11-24T17:58:47Z</time>
      </trkpt>
      <trkpt lat="43.560263" lon="-5.909424">
        <ele>16.6</ele>
        <time>2019-11-24T17:58:48Z</time>
      </trkpt>
      <trkpt lat="43.560315" lon="-5.909455">
        <ele>17.2</ele>
        <time>2019-11-24T17:58:49Z</time>
      </trkpt>
      <trkpt lat="43.560362" lon="-5.9095">
        <ele>17</ele>
        <time>2019-11-24T17:58:50Z</time>
      </trkpt>
      <trkpt lat="43.560403" lon="-5.909555">
        <ele>16.8</ele>
        <time>2019-11-24T17:58:51Z</time>
      </trkpt>
      <trkpt lat="43.560433" lon="-5.909614">
        <ele>17</ele>
        <time>2019-11-24T17:58:52Z</time>
      </trkpt>
      <trkpt lat="43.560457" lon="-5.909682">
        <ele>15.8</ele>
        <time>2019-11-24T17:58:53Z</time>
      </trkpt>
      <trkpt lat="43.560475" lon="-5.909758">
        <ele>16.2</ele>
        <time>2019-11-24T17:58:54Z</time>
      </trkpt>
      <trkpt lat="43.560485" lon="-5.909841">
        <ele>16</ele>
        <time>2019-11-24T17:58:55Z</time>
      </trkpt>
      <trkpt lat="43.560483" lon="-5.909929">
        <ele>15.8</ele>
        <time>2019-11-24T17:58:56Z</time>
      </trkpt>
      <trkpt lat="43.560469" lon="-5.910017">
        <ele>15</ele>
        <time>2019-11-24T17:58:57Z</time>
      </trkpt>
      <trkpt lat="43.560442" lon="-5.910102">
        <ele>15.6</ele>
        <time>2019-11-24T17:58:58Z</time>
      </trkpt>
      <trkpt lat="43.560402" lon="-5.910179">
        <ele>16</ele>
        <time>2019-11-24T17:58:59Z</time>
      </trkpt>
      <trkpt lat="43.56035" lon="-5.910243">
        <ele>15.4</ele>
        <time>2019-11-24T17:59:00Z</time>
      </trkpt>
      <trkpt lat="43.560287" lon="-5.910288">
        <ele>15.2</ele>
        <time>2019-11-24T17:59:01Z</time>
      </trkpt>
      <trkpt lat="43.560218" lon="-5.910312">
        <ele>15.6</ele>
        <time>2019-11-24T17:59:02Z</time>
      </trkpt>
      <trkpt lat="43.560148" lon="-5.910318">
        <ele>15.2</ele>
        <time>2019-11-24T17:59:03Z</time>
      </trkpt>
      <trkpt lat="43.560075" lon="-5.910309">
        <ele>15.2</ele>
        <time>2019-11-24T17:59:04Z</time>
      </trkpt>
      <trkpt lat="43.560006" lon="-5.910283">
        <ele>15.4</ele>
        <time>2019-11-24T17:59:05Z</time>
      </trkpt>
      <trkpt lat="43.559938" lon="-5.91025">
        <ele>15.4</ele>
        <time>2019-11-24T17:59:06Z</time>
      </trkpt>
      <trkpt lat="43.55987" lon="-5.910218">
        <ele>15.4</ele>
        <time>2019-11-24T17:59:07Z</time>
      </trkpt>
      <trkpt lat="43.5598" lon="-5.910199">
        <ele>15</ele>
        <time>2019-11-24T17:59:08Z</time>
      </trkpt>
      <trkpt lat="43.559729" lon="-5.910199">
        <ele>14.4</ele>
        <time>2019-11-24T17:59:09Z</time>
      </trkpt>
      <trkpt lat="43.559659" lon="-5.910217">
        <ele>14.8</ele>
        <time>2019-11-24T17:59:10Z</time>
      </trkpt>
      <trkpt lat="43.559593" lon="-5.91025">
        <ele>14.8</ele>
        <time>2019-11-24T17:59:11Z</time>
      </trkpt>
      <trkpt lat="43.55953" lon="-5.910292">
        <ele>15.2</ele>
        <time>2019-11-24T17:59:12Z</time>
      </trkpt>
      <trkpt lat="43.559468" lon="-5.910337">
        <ele>14.8</ele>
        <time>2019-11-24T17:59:13Z</time>
      </trkpt>
      <trkpt lat="43.559408" lon="-5.910384">
        <ele>15.6</ele>
        <time>2019-11-24T17:59:14Z</time>
      </trkpt>
      <trkpt lat="43.55935" lon="-5.910432">
        <ele>15.6</ele>
        <time>2019-11-24T17:59:15Z</time>
      </trkpt>
      <trkpt lat="43.559291" lon="-5.91048">
        <ele>15.6</ele>
        <time>2019-11-24T17:59:16Z</time>
      </trkpt>
      <trkpt lat="43.559232" lon="-5.910527">
        <ele>15.6</ele>
        <time>2019-11-24T17:59:17Z</time>
      </trkpt>
      <trkpt lat="43.559173" lon="-5.910576">
        <ele>15.6</ele>
        <time>2019-11-24T17:59:18Z</time>
      </trkpt>
      <trkpt lat="43.559115" lon="-5.910623">
        <ele>16</ele>
        <time>2019-11-24T17:59:19Z</time>
      </trkpt>
      <trkpt lat="43.559056" lon="-5.910669">
        <ele>15.8</ele>
        <time>2019-11-24T17:59:20Z</time>
      </trkpt>
      <trkpt lat="43.558996" lon="-5.910712">
        <ele>16</ele>
        <time>2019-11-24T17:59:21Z</time>
      </trkpt>
      <trkpt lat="43.558934" lon="-5.910749">
        <ele>15.8</ele>
        <time>2019-11-24T17:59:22Z</time>
      </trkpt>
      <trkpt lat="43.558872" lon="-5.910781">
        <ele>15.6</ele>
        <time>2019-11-24T17:59:23Z</time>
      </trkpt>
      <trkpt lat="43.558809" lon="-5.910808">
        <ele>16.2</ele>
        <time>2019-11-24T17:59:24Z</time>
      </trkpt>
      <trkpt lat="43.558745" lon="-5.910831">
        <ele>16</ele>
        <time>2019-11-24T17:59:25Z</time>
      </trkpt>
      <trkpt lat="43.558681" lon="-5.910851">
        <ele>16</ele>
        <time>2019-11-24T17:59:26Z</time>
      </trkpt>
      <trkpt lat="43.558617" lon="-5.910871">
        <ele>16</ele>
        <time>2019-11-24T17:59:27Z</time>
      </trkpt>
      <trkpt lat="43.558553" lon="-5.910893">
        <ele>15.8</ele>
        <time>2019-11-24T17:59:28Z</time>
      </trkpt>
      <trkpt lat="43.558489" lon="-5.910919">
        <ele>15.8</ele>
        <time>2019-11-24T17:59:29Z</time>
      </trkpt>
      <trkpt lat="43.558427" lon="-5.910952">
        <ele>15.4</ele>
        <time>2019-11-24T17:59:30Z</time>
      </trkpt>
      <trkpt lat="43.558367" lon="-5.910994">
        <ele>15.2</ele>
        <time>2019-11-24T17:59:31Z</time>
      </trkpt>
      <trkpt lat="43.558317" lon="-5.911053">
        <ele>15.4</ele>
        <time>2019-11-24T17:59:32Z</time>
      </trkpt>
      <trkpt lat="43.558282" lon="-5.911133">
        <ele>15.2</ele>
        <time>2019-11-24T17:59:33Z</time>
      </trkpt>
      <trkpt lat="43.558252" lon="-5.911223">
        <ele>14.8</ele>
        <time>2019-11-24T17:59:34Z</time>
      </trkpt>
      <trkpt lat="43.558217" lon="-5.911313">
        <ele>14.6</ele>
        <time>2019-11-24T17:59:35Z</time>
      </trkpt>
      <trkpt lat="43.558172" lon="-5.911396">
        <ele>15.6</ele>
        <time>2019-11-24T17:59:36Z</time>
      </trkpt>
      <trkpt lat="43.558118" lon="-5.91147">
        <ele>14.4</ele>
        <time>2019-11-24T17:59:37Z</time>
      </trkpt>
      <trkpt lat="43.558053" lon="-5.911525">
        <ele>14</ele>
        <time>2019-11-24T17:59:38Z</time>
      </trkpt>
      <trkpt lat="43.557981" lon="-5.911559">
        <ele>14.4</ele>
        <time>2019-11-24T17:59:39Z</time>
      </trkpt>
      <trkpt lat="43.557906" lon="-5.911571">
        <ele>14.8</ele>
        <time>2019-11-24T17:59:40Z</time>
      </trkpt>
      <trkpt lat="43.557833" lon="-5.911561">
        <ele>14.4</ele>
        <time>2019-11-24T17:59:41Z</time>
      </trkpt>
      <trkpt lat="43.557762" lon="-5.911533">
        <ele>14.2</ele>
        <time>2019-11-24T17:59:42Z</time>
      </trkpt>
      <trkpt lat="43.557695" lon="-5.911493">
        <ele>14.4</ele>
        <time>2019-11-24T17:59:43Z</time>
      </trkpt>
      <trkpt lat="43.557633" lon="-5.911447">
        <ele>14.4</ele>
        <time>2019-11-24T17:59:44Z</time>
      </trkpt>
      <trkpt lat="43.55757" lon="-5.911405">
        <ele>14.8</ele>
        <time>2019-11-24T17:59:45Z</time>
      </trkpt>
      <trkpt lat="43.557503" lon="-5.911376">
        <ele>14.4</ele>
        <time>2019-11-24T17:59:46Z</time>
      </trkpt>
      <trkpt lat="43.557434" lon="-5.911366">
        <ele>15.4</ele>
        <time>2019-11-24T17:59:47Z</time>
      </trkpt>
      <trkpt lat="43.557365" lon="-5.911375">
        <ele>15.4</ele>
        <time>2019-11-24T17:59:48Z</time>
      </trkpt>
      <trkpt lat="43.557298" lon="-5.911398">
        <ele>14.2</ele>
        <time>2019-11-24T17:59:49Z</time>
      </trkpt>
      <trkpt lat="43.557232" lon="-5.911431">
        <ele>14.4</ele>
        <time>2019-11-24T17:59:50Z</time>
      </trkpt>
      <trkpt lat="43.557166" lon="-5.911467">
        <ele>14.6</ele>
        <time>2019-11-24T17:59:51Z</time>
      </trkpt>
      <trkpt lat="43.557101" lon="-5.911504">
        <ele>14.6</ele>
        <time>2019-11-24T17:59:52Z</time>
      </trkpt>
      <trkpt lat="43.557035" lon="-5.911542">
        <ele>14.8</ele>
        <time>2019-11-24T17:59:53Z</time>
      </trkpt>
      <trkpt lat="43.556968" lon="-5.911579">
        <ele>15.2</ele>
        <time>2019-11-24T17:59:54Z</time>
      </trkpt>
      <trkpt lat="43.556901" lon="-5.911615">
        <ele>15.4</ele>
        <time>2019-11-24T17:59:55Z</time>
      </trkpt>
      <trkpt lat="43.556834" lon="-5.911651">
        <ele>15.8</ele>
        <time>2019-11-24T17:59:56Z</time>
      </trkpt>
      <trkpt lat="43.556767" lon="-5.911689">
        <ele>15.6</ele>
        <time>2019-11-24T17:59:57Z</time>
      </trkpt>
      <trkpt lat="43.5567" lon="-5.911726">
        <ele>15</ele>
        <time>2019-11-24T17:59:58Z</time>
      </trkpt>
      <trkpt lat="43.556633" lon="-5.911763">
        <ele>15.2</ele>
        <time>2019-11-24T17:59:59Z</time>
      </trkpt>
      <trkpt lat="43.556564" lon="-5.911799">
        <ele>14.4</ele>
        <time>2019-11-24T18:00:00Z</time>
      </trkpt>
      <trkpt lat="43.556496" lon="-5.911837">
        <ele>14.6</ele>
        <time>2019-11-24T18:00:01Z</time>
      </trkpt>
      <trkpt lat="43.556428" lon="-5.911874">
        <ele>14.6</ele>
        <time>2019-11-24T18:00:02Z</time>
      </trkpt>
      <trkpt lat="43.556359" lon="-5.911911">
        <ele>14.8</ele>
        <time>2019-11-24T18:00:03Z</time>
      </trkpt>
      <trkpt lat="43.556291" lon="-5.911947">
        <ele>14.8</ele>
        <time>2019-11-24T18:00:04Z</time>
      </trkpt>
      <trkpt lat="43.556222" lon="-5.911983">
        <ele>15.2</ele>
        <time>2019-11-24T18:00:05Z</time>
      </trkpt>
      <trkpt lat="43.556153" lon="-5.91202">
        <ele>15.6</ele>
        <time>2019-11-24T18:00:06Z</time>
      </trkpt>
      <trkpt lat="43.556085" lon="-5.912057">
        <ele>15</ele>
        <time>2019-11-24T18:00:07Z</time>
      </trkpt>
      <trkpt lat="43.556017" lon="-5.912095">
        <ele>15.4</ele>
        <time>2019-11-24T18:00:08Z</time>
      </trkpt>
      <trkpt lat="43.555948" lon="-5.912132">
        <ele>15.4</ele>
        <time>2019-11-24T18:00:09Z</time>
      </trkpt>
      <trkpt lat="43.55588" lon="-5.912168">
        <ele>15.4</ele>
        <time>2019-11-24T18:00:10Z</time>
      </trkpt>
      <trkpt lat="43.555811" lon="-5.912205">
        <ele>15.8</ele>
        <time>2019-11-24T18:00:11Z</time>
      </trkpt>
      <trkpt lat="43.555743" lon="-5.912245">
        <ele>15.4</ele>
        <time>2019-11-24T18:00:12Z</time>
      </trkpt>
      <trkpt lat="43.555675" lon="-5.912284">
        <ele>14.4</ele>
        <time>2019-11-24T18:00:13Z</time>
      </trkpt>
      <trkpt lat="43.555605" lon="-5.912323">
        <ele>13.8</ele>
        <time>2019-11-24T18:00:14Z</time>
      </trkpt>
      <trkpt lat="43.555533" lon="-5.912362">
        <ele>12.8</ele>
        <time>2019-11-24T18:00:15Z</time>
      </trkpt>
      <trkpt lat="43.555454" lon="-5.912405">
        <ele>11.4</ele>
        <time>2019-11-24T18:00:16Z</time>
      </trkpt>
      <trkpt lat="43.555373" lon="-5.912457">
        <ele>11.4</ele>
        <time>2019-11-24T18:00:17Z</time>
      </trkpt>
      <trkpt lat="43.555292" lon="-5.91252">
        <ele>11.2</ele>
        <time>2019-11-24T18:00:18Z</time>
      </trkpt>
      <trkpt lat="43.555219" lon="-5.912595">
        <ele>10.4</ele>
        <time>2019-11-24T18:00:19Z</time>
      </trkpt>
      <trkpt lat="43.555148" lon="-5.91268">
        <ele>10.8</ele>
        <time>2019-11-24T18:00:20Z</time>
      </trkpt>
      <trkpt lat="43.55508" lon="-5.91277">
        <ele>10.4</ele>
        <time>2019-11-24T18:00:21Z</time>
      </trkpt>
      <trkpt lat="43.55501" lon="-5.91285">
        <ele>10.4</ele>
        <time>2019-11-24T18:00:22Z</time>
      </trkpt>
      <trkpt lat="43.554934" lon="-5.91291">
        <ele>10.6</ele>
        <time>2019-11-24T18:00:23Z</time>
      </trkpt>
      <trkpt lat="43.554852" lon="-5.91295">
        <ele>10.4</ele>
        <time>2019-11-24T18:00:24Z</time>
      </trkpt>
      <trkpt lat="43.554769" lon="-5.912966">
        <ele>10.8</ele>
        <time>2019-11-24T18:00:25Z</time>
      </trkpt>
      <trkpt lat="43.55469" lon="-5.912958">
        <ele>10.6</ele>
        <time>2019-11-24T18:00:26Z</time>
      </trkpt>
      <trkpt lat="43.554622" lon="-5.91292">
        <ele>11.8</ele>
        <time>2019-11-24T18:00:27Z</time>
      </trkpt>
      <trkpt lat="43.554574" lon="-5.912852">
        <ele>12</ele>
        <time>2019-11-24T18:00:28Z</time>
      </trkpt>
      <trkpt lat="43.554554" lon="-5.912763">
        <ele>11.6</ele>
        <time>2019-11-24T18:00:29Z</time>
      </trkpt>
      <trkpt lat="43.554558" lon="-5.912671">
        <ele>11.6</ele>
        <time>2019-11-24T18:00:30Z</time>
      </trkpt>
      <trkpt lat="43.554584" lon="-5.912586">
        <ele>11</ele>
        <time>2019-11-24T18:00:31Z</time>
      </trkpt>
      <trkpt lat="43.554626" lon="-5.91251">
        <ele>10.8</ele>
        <time>2019-11-24T18:00:32Z</time>
      </trkpt>
      <trkpt lat="43.554675" lon="-5.912441">
        <ele>10.6</ele>
        <time>2019-11-24T18:00:33Z</time>
      </trkpt>
      <trkpt lat="43.554732" lon="-5.912377">
        <ele>10.6</ele>
        <time>2019-11-24T18:00:34Z</time>
      </trkpt>
      <trkpt lat="43.554793" lon="-5.912319">
        <ele>10.4</ele>
        <time>2019-11-24T18:00:35Z</time>
      </trkpt>
      <trkpt lat="43.554854" lon="-5.912263">
        <ele>10</ele>
        <time>2019-11-24T18:00:36Z</time>
      </trkpt>
      <trkpt lat="43.554916" lon="-5.912206">
        <ele>10.2</ele>
        <time>2019-11-24T18:00:37Z</time>
      </trkpt>
      <trkpt lat="43.554978" lon="-5.912153">
        <ele>10</ele>
        <time>2019-11-24T18:00:38Z</time>
      </trkpt>
      <trkpt lat="43.555043" lon="-5.912104">
        <ele>10</ele>
        <time>2019-11-24T18:00:39Z</time>
      </trkpt>
      <trkpt lat="43.55511" lon="-5.91206">
        <ele>9.4</ele>
        <time>2019-11-24T18:00:40Z</time>
      </trkpt>
      <trkpt lat="43.555177" lon="-5.912022">
        <ele>9.2</ele>
        <time>2019-11-24T18:00:41Z</time>
      </trkpt>
      <trkpt lat="43.555246" lon="-5.91199">
        <ele>9.2</ele>
        <time>2019-11-24T18:00:42Z</time>
      </trkpt>
      <trkpt lat="43.555318" lon="-5.911962">
        <ele>9</ele>
        <time>2019-11-24T18:00:43Z</time>
      </trkpt>
      <trkpt lat="43.555392" lon="-5.91194">
        <ele>8.8</ele>
        <time>2019-11-24T18:00:44Z</time>
      </trkpt>
      <trkpt lat="43.555469" lon="-5.911926">
        <ele>9</ele>
        <time>2019-11-24T18:00:45Z</time>
      </trkpt>
      <trkpt lat="43.555546" lon="-5.911921">
        <ele>9</ele>
        <time>2019-11-24T18:00:46Z</time>
      </trkpt>
      <trkpt lat="43.555622" lon="-5.911932">
        <ele>8.8</ele>
        <time>2019-11-24T18:00:47Z</time>
      </trkpt>
      <trkpt lat="43.555695" lon="-5.911963">
        <ele>8.2</ele>
        <time>2019-11-24T18:00:48Z</time>
      </trkpt>
      <trkpt lat="43.555759" lon="-5.912015">
        <ele>8.8</ele>
        <time>2019-11-24T18:00:49Z</time>
      </trkpt>
      <trkpt lat="43.555816" lon="-5.912088">
        <ele>9</ele>
        <time>2019-11-24T18:00:50Z</time>
      </trkpt>
      <trkpt lat="43.555866" lon="-5.912168">
        <ele>8.8</ele>
        <time>2019-11-24T18:00:51Z</time>
      </trkpt>
      <trkpt lat="43.55591" lon="-5.912253">
        <ele>8.8</ele>
        <time>2019-11-24T18:00:52Z</time>
      </trkpt>
      <trkpt lat="43.555954" lon="-5.912338">
        <ele>8.8</ele>
        <time>2019-11-24T18:00:53Z</time>
      </trkpt>
      <trkpt lat="43.556002" lon="-5.912422">
        <ele>8.6</ele>
        <time>2019-11-24T18:00:54Z</time>
      </trkpt>
      <trkpt lat="43.556048" lon="-5.912505">
        <ele>8.8</ele>
        <time>2019-11-24T18:00:55Z</time>
      </trkpt>
      <trkpt lat="43.556094" lon="-5.91259">
        <ele>8.4</ele>
        <time>2019-11-24T18:00:56Z</time>
      </trkpt>
      <trkpt lat="43.556141" lon="-5.912673">
        <ele>8.2</ele>
        <time>2019-11-24T18:00:57Z</time>
      </trkpt>
      <trkpt lat="43.556188" lon="-5.912757">
        <ele>8.2</ele>
        <time>2019-11-24T18:00:58Z</time>
      </trkpt>
      <trkpt lat="43.556235" lon="-5.912839">
        <ele>8.4</ele>
        <time>2019-11-24T18:00:59Z</time>
      </trkpt>
      <trkpt lat="43.556285" lon="-5.912921">
        <ele>8.2</ele>
        <time>2019-11-24T18:01:00Z</time>
      </trkpt>
      <trkpt lat="43.556333" lon="-5.913003">
        <ele>8.2</ele>
        <time>2019-11-24T18:01:01Z</time>
      </trkpt>
      <trkpt lat="43.556381" lon="-5.913084">
        <ele>8.2</ele>
        <time>2019-11-24T18:01:02Z</time>
      </trkpt>
      <trkpt lat="43.55643" lon="-5.913165">
        <ele>8</ele>
        <time>2019-11-24T18:01:03Z</time>
      </trkpt>
      <trkpt lat="43.55648" lon="-5.913245">
        <ele>8.4</ele>
        <time>2019-11-24T18:01:04Z</time>
      </trkpt>
      <trkpt lat="43.55653" lon="-5.913324">
        <ele>8.2</ele>
        <time>2019-11-24T18:01:05Z</time>
      </trkpt>
      <trkpt lat="43.556578" lon="-5.913405">
        <ele>8.2</ele>
        <time>2019-11-24T18:01:06Z</time>
      </trkpt>
      <trkpt lat="43.556626" lon="-5.913486">
        <ele>8.2</ele>
        <time>2019-11-24T18:01:07Z</time>
      </trkpt>
      <trkpt lat="43.556673" lon="-5.913567">
        <ele>8</ele>
        <time>2019-11-24T18:01:08Z</time>
      </trkpt>
      <trkpt lat="43.556722" lon="-5.913647">
        <ele>8.4</ele>
        <time>2019-11-24T18:01:09Z</time>
      </trkpt>
      <trkpt lat="43.55677" lon="-5.913727">
        <ele>8.2</ele>
        <time>2019-11-24T18:01:10Z</time>
      </trkpt>
      <trkpt lat="43.556816" lon="-5.913808">
        <ele>8.2</ele>
        <time>2019-11-24T18:01:11Z</time>
      </trkpt>
      <trkpt lat="43.556861" lon="-5.913892">
        <ele>8</ele>
        <time>2019-11-24T18:01:12Z</time>
      </trkpt>
      <trkpt lat="43.556904" lon="-5.913979">
        <ele>8</ele>
        <time>2019-11-24T18:01:13Z</time>
      </trkpt>
      <trkpt lat="43.556945" lon="-5.914067">
        <ele>8.4</ele>
        <time>2019-11-24T18:01:14Z</time>
      </trkpt>
      <trkpt lat="43.556983" lon="-5.914158">
        <ele>8.4</ele>
        <time>2019-11-24T18:01:15Z</time>
      </trkpt>
      <trkpt lat="43.557017" lon="-5.914252">
        <ele>8.2</ele>
        <time>2019-11-24T18:01:16Z</time>
      </trkpt>
      <trkpt lat="43.557048" lon="-5.914348">
        <ele>8.4</ele>
        <time>2019-11-24T18:01:17Z</time>
      </trkpt>
      <trkpt lat="43.557078" lon="-5.914445">
        <ele>8.4</ele>
        <time>2019-11-24T18:01:18Z</time>
      </trkpt>
      <trkpt lat="43.557107" lon="-5.914544">
        <ele>8.4</ele>
        <time>2019-11-24T18:01:19Z</time>
      </trkpt>
      <trkpt lat="43.557132" lon="-5.914643">
        <ele>8</ele>
        <time>2019-11-24T18:01:20Z</time>
      </trkpt>
      <trkpt lat="43.557155" lon="-5.914744">
        <ele>8.2</ele>
        <time>2019-11-24T18:01:21Z</time>
      </trkpt>
      <trkpt lat="43.557172" lon="-5.914847">
        <ele>8.2</ele>
        <time>2019-11-24T18:01:22Z</time>
      </trkpt>
      <trkpt lat="43.557185" lon="-5.914952">
        <ele>8.2</ele>
        <time>2019-11-24T18:01:23Z</time>
      </trkpt>
      <trkpt lat="43.557195" lon="-5.915057">
        <ele>8.2</ele>
        <time>2019-11-24T18:01:24Z</time>
      </trkpt>
      <trkpt lat="43.557201" lon="-5.915161">
        <ele>8.2</ele>
        <time>2019-11-24T18:01:25Z</time>
      </trkpt>
      <trkpt lat="43.557203" lon="-5.915266">
        <ele>8.2</ele>
        <time>2019-11-24T18:01:26Z</time>
      </trkpt>
      <trkpt lat="43.557203" lon="-5.91537">
        <ele>8.2</ele>
        <time>2019-11-24T18:01:27Z</time>
      </trkpt>
      <trkpt lat="43.557197" lon="-5.915472">
        <ele>8.6</ele>
        <time>2019-11-24T18:01:28Z</time>
      </trkpt>
      <trkpt lat="43.557182" lon="-5.915571">
        <ele>8.4</ele>
        <time>2019-11-24T18:01:29Z</time>
      </trkpt>
      <trkpt lat="43.55716" lon="-5.915664">
        <ele>8.2</ele>
        <time>2019-11-24T18:01:30Z</time>
      </trkpt>
      <trkpt lat="43.557138" lon="-5.915755">
        <ele>8.4</ele>
        <time>2019-11-24T18:01:31Z</time>
      </trkpt>
      <trkpt lat="43.557121" lon="-5.915844">
        <ele>8.2</ele>
        <time>2019-11-24T18:01:32Z</time>
      </trkpt>
      <trkpt lat="43.557109" lon="-5.915934">
        <ele>8</ele>
        <time>2019-11-24T18:01:33Z</time>
      </trkpt>
      <trkpt lat="43.557105" lon="-5.916023">
        <ele>7.6</ele>
        <time>2019-11-24T18:01:34Z</time>
      </trkpt>
      <trkpt lat="43.557109" lon="-5.916111">
        <ele>7.2</ele>
        <time>2019-11-24T18:01:35Z</time>
      </trkpt>
      <trkpt lat="43.557127" lon="-5.916194">
        <ele>7.2</ele>
        <time>2019-11-24T18:01:36Z</time>
      </trkpt>
      <trkpt lat="43.557161" lon="-5.916266">
        <ele>7.2</ele>
        <time>2019-11-24T18:01:37Z</time>
      </trkpt>
      <trkpt lat="43.557209" lon="-5.916319">
        <ele>7.4</ele>
        <time>2019-11-24T18:01:38Z</time>
      </trkpt>
      <trkpt lat="43.557264" lon="-5.916355">
        <ele>8</ele>
        <time>2019-11-24T18:01:39Z</time>
      </trkpt>
      <trkpt lat="43.55732" lon="-5.916377">
        <ele>8</ele>
        <time>2019-11-24T18:01:40Z</time>
      </trkpt>
      <trkpt lat="43.557376" lon="-5.916393">
        <ele>8.2</ele>
        <time>2019-11-24T18:01:41Z</time>
      </trkpt>
      <trkpt lat="43.557434" lon="-5.916407">
        <ele>8.8</ele>
        <time>2019-11-24T18:01:42Z</time>
      </trkpt>
      <trkpt lat="43.55749" lon="-5.91642">
        <ele>9</ele>
        <time>2019-11-24T18:01:43Z</time>
      </trkpt>
      <trkpt lat="43.557542" lon="-5.916433">
        <ele>9.8</ele>
        <time>2019-11-24T18:01:44Z</time>
      </trkpt>
      <trkpt lat="43.557593" lon="-5.916446">
        <ele>9.8</ele>
        <time>2019-11-24T18:01:45Z</time>
      </trkpt>
      <trkpt lat="43.557645" lon="-5.916457">
        <ele>9.8</ele>
        <time>2019-11-24T18:01:46Z</time>
      </trkpt>
      <trkpt lat="43.557694" lon="-5.916474">
        <ele>10</ele>
        <time>2019-11-24T18:01:47Z</time>
      </trkpt>
      <trkpt lat="43.557744" lon="-5.916503">
        <ele>9.8</ele>
        <time>2019-11-24T18:01:48Z</time>
      </trkpt>
      <trkpt lat="43.557793" lon="-5.916539">
        <ele>9.4</ele>
        <time>2019-11-24T18:01:49Z</time>
      </trkpt>
      <trkpt lat="43.557843" lon="-5.916581">
        <ele>9.6</ele>
        <time>2019-11-24T18:01:50Z</time>
      </trkpt>
      <trkpt lat="43.557891" lon="-5.916628">
        <ele>9.8</ele>
        <time>2019-11-24T18:01:51Z</time>
      </trkpt>
      <trkpt lat="43.557938" lon="-5.916679">
        <ele>10.2</ele>
        <time>2019-11-24T18:01:52Z</time>
      </trkpt>
      <trkpt lat="43.557983" lon="-5.916736">
        <ele>10</ele>
        <time>2019-11-24T18:01:53Z</time>
      </trkpt>
      <trkpt lat="43.558023" lon="-5.916799">
        <ele>9.6</ele>
        <time>2019-11-24T18:01:54Z</time>
      </trkpt>
      <trkpt lat="43.558057" lon="-5.916868">
        <ele>10</ele>
        <time>2019-11-24T18:01:55Z</time>
      </trkpt>
      <trkpt lat="43.558088" lon="-5.91694">
        <ele>10</ele>
        <time>2019-11-24T18:01:56Z</time>
      </trkpt>
      <trkpt lat="43.558117" lon="-5.91701">
        <ele>10.4</ele>
        <time>2019-11-24T18:01:57Z</time>
      </trkpt>
      <trkpt lat="43.558146" lon="-5.917079">
        <ele>10.4</ele>
        <time>2019-11-24T18:01:58Z</time>
      </trkpt>
      <trkpt lat="43.558173" lon="-5.917144">
        <ele>10.8</ele>
        <time>2019-11-24T18:01:59Z</time>
      </trkpt>
      <trkpt lat="43.55819" lon="-5.917208">
        <ele>11.4</ele>
        <time>2019-11-24T18:02:00Z</time>
      </trkpt>
      <trkpt lat="43.558195" lon="-5.917274">
        <ele>11</ele>
        <time>2019-11-24T18:02:01Z</time>
      </trkpt>
      <trkpt lat="43.558188" lon="-5.917339">
        <ele>11.2</ele>
        <time>2019-11-24T18:02:02Z</time>
      </trkpt>
      <trkpt lat="43.558167" lon="-5.917398">
        <ele>11</ele>
        <time>2019-11-24T18:02:03Z</time>
      </trkpt>
      <trkpt lat="43.558135" lon="-5.917448">
        <ele>10.6</ele>
        <time>2019-11-24T18:02:04Z</time>
      </trkpt>
      <trkpt lat="43.558099" lon="-5.917492">
        <ele>10.8</ele>
        <time>2019-11-24T18:02:05Z</time>
      </trkpt>
      <trkpt lat="43.558063" lon="-5.917536">
        <ele>10.8</ele>
        <time>2019-11-24T18:02:06Z</time>
      </trkpt>
      <trkpt lat="43.558029" lon="-5.917579">
        <ele>10.8</ele>
        <time>2019-11-24T18:02:07Z</time>
      </trkpt>
      <trkpt lat="43.557996" lon="-5.917622">
        <ele>10.8</ele>
        <time>2019-11-24T18:02:08Z</time>
      </trkpt>
      <trkpt lat="43.557963" lon="-5.917664">
        <ele>10.8</ele>
        <time>2019-11-24T18:02:09Z</time>
      </trkpt>
      <trkpt lat="43.557929" lon="-5.917709">
        <ele>10.8</ele>
        <time>2019-11-24T18:02:10Z</time>
      </trkpt>
      <trkpt lat="43.557894" lon="-5.917757">
        <ele>10.8</ele>
        <time>2019-11-24T18:02:11Z</time>
      </trkpt>
      <trkpt lat="43.557862" lon="-5.917805">
        <ele>10.8</ele>
        <time>2019-11-24T18:02:12Z</time>
      </trkpt>
      <trkpt lat="43.557833" lon="-5.917854">
        <ele>10.6</ele>
        <time>2019-11-24T18:02:13Z</time>
      </trkpt>
      <trkpt lat="43.557807" lon="-5.917905">
        <ele>10.8</ele>
        <time>2019-11-24T18:02:14Z</time>
      </trkpt>
      <trkpt lat="43.557783" lon="-5.917955">
        <ele>10.4</ele>
        <time>2019-11-24T18:02:15Z</time>
      </trkpt>
      <trkpt lat="43.55776" lon="-5.918004">
        <ele>10.6</ele>
        <time>2019-11-24T18:02:16Z</time>
      </trkpt>
      <trkpt lat="43.557741" lon="-5.918055">
        <ele>10.8</ele>
        <time>2019-11-24T18:02:17Z</time>
      </trkpt>
      <trkpt lat="43.557726" lon="-5.918102">
        <ele>10.8</ele>
        <time>2019-11-24T18:02:18Z</time>
      </trkpt>
      <trkpt lat="43.557712" lon="-5.918148">
        <ele>10.8</ele>
        <time>2019-11-24T18:02:19Z</time>
      </trkpt>
      <trkpt lat="43.557695" lon="-5.918196">
        <ele>11</ele>
        <time>2019-11-24T18:02:20Z</time>
      </trkpt>
      <trkpt lat="43.557674" lon="-5.918249">
        <ele>10.8</ele>
        <time>2019-11-24T18:02:21Z</time>
      </trkpt>
      <trkpt lat="43.557656" lon="-5.918304">
        <ele>10.6</ele>
        <time>2019-11-24T18:02:22Z</time>
      </trkpt>
      <trkpt lat="43.557641" lon="-5.918368">
        <ele>11</ele>
        <time>2019-11-24T18:02:23Z</time>
      </trkpt>
      <trkpt lat="43.55763" lon="-5.91843">
        <ele>10.8</ele>
        <time>2019-11-24T18:02:24Z</time>
      </trkpt>
      <trkpt lat="43.557606" lon="-5.918488">
        <ele>10.8</ele>
        <time>2019-11-24T18:02:25Z</time>
      </trkpt>
      <trkpt lat="43.557567" lon="-5.918525">
        <ele>10.6</ele>
        <time>2019-11-24T18:02:26Z</time>
      </trkpt>
      <trkpt lat="43.557525" lon="-5.918524">
        <ele>10</ele>
        <time>2019-11-24T18:02:27Z</time>
      </trkpt>
      <trkpt lat="43.557481" lon="-5.9185">
        <ele>9.4</ele>
        <time>2019-11-24T18:02:28Z</time>
      </trkpt>
      <trkpt lat="43.557441" lon="-5.918464">
        <ele>9.4</ele>
        <time>2019-11-24T18:02:29Z</time>
      </trkpt>
      <trkpt lat="43.557399" lon="-5.918427">
        <ele>9</ele>
        <time>2019-11-24T18:02:30Z</time>
      </trkpt>
      <trkpt lat="43.557358" lon="-5.918387">
        <ele>8.6</ele>
        <time>2019-11-24T18:02:31Z</time>
      </trkpt>
      <trkpt lat="43.557314" lon="-5.918347">
        <ele>8.4</ele>
        <time>2019-11-24T18:02:32Z</time>
      </trkpt>
      <trkpt lat="43.55727" lon="-5.918311">
        <ele>8.4</ele>
        <time>2019-11-24T18:02:33Z</time>
      </trkpt>
      <trkpt lat="43.557223" lon="-5.918288">
        <ele>8.2</ele>
        <time>2019-11-24T18:02:34Z</time>
      </trkpt>
      <trkpt lat="43.557176" lon="-5.918294">
        <ele>8.4</ele>
        <time>2019-11-24T18:02:35Z</time>
      </trkpt>
      <trkpt lat="43.557139" lon="-5.918326">
        <ele>8.6</ele>
        <time>2019-11-24T18:02:36Z</time>
      </trkpt>
      <trkpt lat="43.557112" lon="-5.918381">
        <ele>8.4</ele>
        <time>2019-11-24T18:02:37Z</time>
      </trkpt>
      <trkpt lat="43.557093" lon="-5.918446">
        <ele>8.4</ele>
        <time>2019-11-24T18:02:38Z</time>
      </trkpt>
      <trkpt lat="43.557078" lon="-5.918515">
        <ele>8.2</ele>
        <time>2019-11-24T18:02:39Z</time>
      </trkpt>
      <trkpt lat="43.557061" lon="-5.918584">
        <ele>8.2</ele>
        <time>2019-11-24T18:02:40Z</time>
      </trkpt>
      <trkpt lat="43.55704" lon="-5.918651">
        <ele>8</ele>
        <time>2019-11-24T18:02:41Z</time>
      </trkpt>
      <trkpt lat="43.557014" lon="-5.918714">
        <ele>8.2</ele>
        <time>2019-11-24T18:02:42Z</time>
      </trkpt>
      <trkpt lat="43.556975" lon="-5.918775">
        <ele>8.4</ele>
        <time>2019-11-24T18:02:43Z</time>
      </trkpt>
      <trkpt lat="43.556944" lon="-5.918827">
        <ele>8.8</ele>
        <time>2019-11-24T18:02:44Z</time>
      </trkpt>
      <trkpt lat="43.556917" lon="-5.918873">
        <ele>8.6</ele>
        <time>2019-11-24T18:02:45Z</time>
      </trkpt>
      <trkpt lat="43.55689" lon="-5.918917">
        <ele>8.8</ele>
        <time>2019-11-24T18:02:46Z</time>
      </trkpt>
      <trkpt lat="43.556865" lon="-5.918958">
        <ele>8.6</ele>
        <time>2019-11-24T18:02:47Z</time>
      </trkpt>
      <trkpt lat="43.556838" lon="-5.918997">
        <ele>8.8</ele>
        <time>2019-11-24T18:02:48Z</time>
      </trkpt>
      <trkpt lat="43.556812" lon="-5.919036">
        <ele>8.6</ele>
        <time>2019-11-24T18:02:49Z</time>
      </trkpt>
      <trkpt lat="43.556787" lon="-5.919075">
        <ele>8.8</ele>
        <time>2019-11-24T18:02:50Z</time>
      </trkpt>
      <trkpt lat="43.556763" lon="-5.919109">
        <ele>8.6</ele>
        <time>2019-11-24T18:02:51Z</time>
      </trkpt>
      <trkpt lat="43.556738" lon="-5.919142">
        <ele>8.6</ele>
        <time>2019-11-24T18:02:52Z</time>
      </trkpt>
      <trkpt lat="43.556713" lon="-5.919172">
        <ele>8.6</ele>
        <time>2019-11-24T18:02:53Z</time>
      </trkpt>
      <trkpt lat="43.556684" lon="-5.919196">
        <ele>8.6</ele>
        <time>2019-11-24T18:02:54Z</time>
      </trkpt>
      <trkpt lat="43.556648" lon="-5.919201">
        <ele>8.8</ele>
        <time>2019-11-24T18:02:55Z</time>
      </trkpt>
      <trkpt lat="43.556609" lon="-5.91919">
        <ele>8.4</ele>
        <time>2019-11-24T18:02:56Z</time>
      </trkpt>
      <trkpt lat="43.556574" lon="-5.91916">
        <ele>8.4</ele>
        <time>2019-11-24T18:02:57Z</time>
      </trkpt>
      <trkpt lat="43.556543" lon="-5.91912">
        <ele>8.2</ele>
        <time>2019-11-24T18:02:58Z</time>
      </trkpt>
      <trkpt lat="43.55651" lon="-5.919075">
        <ele>7.8</ele>
        <time>2019-11-24T18:02:59Z</time>
      </trkpt>
      <trkpt lat="43.556474" lon="-5.919031">
        <ele>7</ele>
        <time>2019-11-24T18:03:00Z</time>
      </trkpt>
      <trkpt lat="43.556438" lon="-5.918985">
        <ele>7.6</ele>
        <time>2019-11-24T18:03:01Z</time>
      </trkpt>
      <trkpt lat="43.556399" lon="-5.918939">
        <ele>7.4</ele>
        <time>2019-11-24T18:03:02Z</time>
      </trkpt>
      <trkpt lat="43.556359" lon="-5.918895">
        <ele>8</ele>
        <time>2019-11-24T18:03:03Z</time>
      </trkpt>
      <trkpt lat="43.556315" lon="-5.918855">
        <ele>6.6</ele>
        <time>2019-11-24T18:03:04Z</time>
      </trkpt>
      <trkpt lat="43.556269" lon="-5.918818">
        <ele>6.8</ele>
        <time>2019-11-24T18:03:05Z</time>
      </trkpt>
      <trkpt lat="43.556223" lon="-5.918781">
        <ele>7.2</ele>
        <time>2019-11-24T18:03:06Z</time>
      </trkpt>
      <trkpt lat="43.556175" lon="-5.918746">
        <ele>7.2</ele>
        <time>2019-11-24T18:03:07Z</time>
      </trkpt>
      <trkpt lat="43.556125" lon="-5.918712">
        <ele>7.4</ele>
        <time>2019-11-24T18:03:08Z</time>
      </trkpt>
      <trkpt lat="43.556076" lon="-5.918677">
        <ele>7.6</ele>
        <time>2019-11-24T18:03:09Z</time>
      </trkpt>
      <trkpt lat="43.556028" lon="-5.918638">
        <ele>7.6</ele>
        <time>2019-11-24T18:03:10Z</time>
      </trkpt>
      <trkpt lat="43.55598" lon="-5.918596">
        <ele>7.6</ele>
        <time>2019-11-24T18:03:11Z</time>
      </trkpt>
      <trkpt lat="43.555933" lon="-5.918554">
        <ele>7.4</ele>
        <time>2019-11-24T18:03:12Z</time>
      </trkpt>
      <trkpt lat="43.555886" lon="-5.918511">
        <ele>7.8</ele>
        <time>2019-11-24T18:03:13Z</time>
      </trkpt>
      <trkpt lat="43.555841" lon="-5.918467">
        <ele>7.6</ele>
        <time>2019-11-24T18:03:14Z</time>
      </trkpt>
      <trkpt lat="43.555795" lon="-5.918422">
        <ele>7.4</ele>
        <time>2019-11-24T18:03:15Z</time>
      </trkpt>
      <trkpt lat="43.55575" lon="-5.918374">
        <ele>6.8</ele>
        <time>2019-11-24T18:03:16Z</time>
      </trkpt>
      <trkpt lat="43.555704" lon="-5.918324">
        <ele>7.4</ele>
        <time>2019-11-24T18:03:17Z</time>
      </trkpt>
      <trkpt lat="43.555658" lon="-5.918275">
        <ele>7.4</ele>
        <time>2019-11-24T18:03:18Z</time>
      </trkpt>
      <trkpt lat="43.555612" lon="-5.918226">
        <ele>7.2</ele>
        <time>2019-11-24T18:03:19Z</time>
      </trkpt>
      <trkpt lat="43.555566" lon="-5.918176">
        <ele>7.2</ele>
        <time>2019-11-24T18:03:20Z</time>
      </trkpt>
      <trkpt lat="43.555522" lon="-5.918125">
        <ele>7</ele>
        <time>2019-11-24T18:03:21Z</time>
      </trkpt>
      <trkpt lat="43.555478" lon="-5.918073">
        <ele>7.2</ele>
        <time>2019-11-24T18:03:22Z</time>
      </trkpt>
      <trkpt lat="43.555435" lon="-5.918022">
        <ele>7</ele>
        <time>2019-11-24T18:03:23Z</time>
      </trkpt>
      <trkpt lat="43.555392" lon="-5.91797">
        <ele>6.6</ele>
        <time>2019-11-24T18:03:24Z</time>
      </trkpt>
      <trkpt lat="43.555349" lon="-5.917918">
        <ele>6.8</ele>
        <time>2019-11-24T18:03:25Z</time>
      </trkpt>
      <trkpt lat="43.555308" lon="-5.917866">
        <ele>7</ele>
        <time>2019-11-24T18:03:26Z</time>
      </trkpt>
      <trkpt lat="43.555266" lon="-5.917815">
        <ele>7</ele>
        <time>2019-11-24T18:03:27Z</time>
      </trkpt>
      <trkpt lat="43.555222" lon="-5.917766">
        <ele>6.8</ele>
        <time>2019-11-24T18:03:28Z</time>
      </trkpt>
      <trkpt lat="43.555176" lon="-5.917724">
        <ele>7</ele>
        <time>2019-11-24T18:03:29Z</time>
      </trkpt>
      <trkpt lat="43.555127" lon="-5.917684">
        <ele>6.8</ele>
        <time>2019-11-24T18:03:30Z</time>
      </trkpt>
      <trkpt lat="43.555081" lon="-5.917639">
        <ele>7.4</ele>
        <time>2019-11-24T18:03:31Z</time>
      </trkpt>
      <trkpt lat="43.555037" lon="-5.917589">
        <ele>7</ele>
        <time>2019-11-24T18:03:32Z</time>
      </trkpt>
      <trkpt lat="43.554994" lon="-5.917535">
        <ele>7</ele>
        <time>2019-11-24T18:03:33Z</time>
      </trkpt>
      <trkpt lat="43.554952" lon="-5.91748">
        <ele>6.8</ele>
        <time>2019-11-24T18:03:34Z</time>
      </trkpt>
      <trkpt lat="43.554911" lon="-5.917423">
        <ele>7</ele>
        <time>2019-11-24T18:03:35Z</time>
      </trkpt>
      <trkpt lat="43.554869" lon="-5.917367">
        <ele>7.2</ele>
        <time>2019-11-24T18:03:36Z</time>
      </trkpt>
      <trkpt lat="43.554826" lon="-5.917311">
        <ele>7</ele>
        <time>2019-11-24T18:03:37Z</time>
      </trkpt>
      <trkpt lat="43.554784" lon="-5.917255">
        <ele>7.4</ele>
        <time>2019-11-24T18:03:38Z</time>
      </trkpt>
      <trkpt lat="43.554742" lon="-5.917197">
        <ele>7.6</ele>
        <time>2019-11-24T18:03:39Z</time>
      </trkpt>
      <trkpt lat="43.5547" lon="-5.917138">
        <ele>7.2</ele>
        <time>2019-11-24T18:03:40Z</time>
      </trkpt>
      <trkpt lat="43.554658" lon="-5.917078">
        <ele>7.6</ele>
        <time>2019-11-24T18:03:41Z</time>
      </trkpt>
      <trkpt lat="43.55462" lon="-5.917016">
        <ele>7.2</ele>
        <time>2019-11-24T18:03:42Z</time>
      </trkpt>
      <trkpt lat="43.554586" lon="-5.916948">
        <ele>6.8</ele>
        <time>2019-11-24T18:03:43Z</time>
      </trkpt>
      <trkpt lat="43.554557" lon="-5.916876">
        <ele>6.6</ele>
        <time>2019-11-24T18:03:44Z</time>
      </trkpt>
      <trkpt lat="43.554526" lon="-5.916805">
        <ele>7.2</ele>
        <time>2019-11-24T18:03:45Z</time>
      </trkpt>
      <trkpt lat="43.55449" lon="-5.91674">
        <ele>7.2</ele>
        <time>2019-11-24T18:03:46Z</time>
      </trkpt>
      <trkpt lat="43.554452" lon="-5.916679">
        <ele>6.8</ele>
        <time>2019-11-24T18:03:47Z</time>
      </trkpt>
      <trkpt lat="43.554413" lon="-5.916618">
        <ele>7.2</ele>
        <time>2019-11-24T18:03:48Z</time>
      </trkpt>
      <trkpt lat="43.554375" lon="-5.916556">
        <ele>6.6</ele>
        <time>2019-11-24T18:03:49Z</time>
      </trkpt>
      <trkpt lat="43.554337" lon="-5.916493">
        <ele>7.4</ele>
        <time>2019-11-24T18:03:50Z</time>
      </trkpt>
      <trkpt lat="43.554299" lon="-5.916428">
        <ele>7</ele>
        <time>2019-11-24T18:03:51Z</time>
      </trkpt>
      <trkpt lat="43.554261" lon="-5.916363">
        <ele>7.2</ele>
        <time>2019-11-24T18:03:52Z</time>
      </trkpt>
      <trkpt lat="43.554223" lon="-5.916298">
        <ele>7.4</ele>
        <time>2019-11-24T18:03:53Z</time>
      </trkpt>
      <trkpt lat="43.554186" lon="-5.916232">
        <ele>7.6</ele>
        <time>2019-11-24T18:03:54Z</time>
      </trkpt>
      <trkpt lat="43.554149" lon="-5.916167">
        <ele>7.6</ele>
        <time>2019-11-24T18:03:55Z</time>
      </trkpt>
      <trkpt lat="43.554112" lon="-5.916102">
        <ele>7.4</ele>
        <time>2019-11-24T18:03:56Z</time>
      </trkpt>
      <trkpt lat="43.554075" lon="-5.916035">
        <ele>7.2</ele>
        <time>2019-11-24T18:03:57Z</time>
      </trkpt>
      <trkpt lat="43.554038" lon="-5.915969">
        <ele>7</ele>
        <time>2019-11-24T18:03:58Z</time>
      </trkpt>
      <trkpt lat="43.554001" lon="-5.915905">
        <ele>7.4</ele>
        <time>2019-11-24T18:03:59Z</time>
      </trkpt>
      <trkpt lat="43.553965" lon="-5.91584">
        <ele>7.4</ele>
        <time>2019-11-24T18:04:00Z</time>
      </trkpt>
      <trkpt lat="43.553929" lon="-5.915775">
        <ele>7.4</ele>
        <time>2019-11-24T18:04:01Z</time>
      </trkpt>
      <trkpt lat="43.553893" lon="-5.915709">
        <ele>7</ele>
        <time>2019-11-24T18:04:02Z</time>
      </trkpt>
      <trkpt lat="43.553858" lon="-5.915644">
        <ele>7.4</ele>
        <time>2019-11-24T18:04:03Z</time>
      </trkpt>
      <trkpt lat="43.553821" lon="-5.915583">
        <ele>7.8</ele>
        <time>2019-11-24T18:04:04Z</time>
      </trkpt>
      <trkpt lat="43.553782" lon="-5.915531">
        <ele>8.2</ele>
        <time>2019-11-24T18:04:05Z</time>
      </trkpt>
      <trkpt lat="43.55374" lon="-5.915488">
        <ele>8.2</ele>
        <time>2019-11-24T18:04:06Z</time>
      </trkpt>
      <trkpt lat="43.553699" lon="-5.915444">
        <ele>8.4</ele>
        <time>2019-11-24T18:04:07Z</time>
      </trkpt>
      <trkpt lat="43.553662" lon="-5.915392">
        <ele>8.8</ele>
        <time>2019-11-24T18:04:08Z</time>
      </trkpt>
      <trkpt lat="43.553633" lon="-5.915335">
        <ele>8.4</ele>
        <time>2019-11-24T18:04:09Z</time>
      </trkpt>
      <trkpt lat="43.553609" lon="-5.915274">
        <ele>7.8</ele>
        <time>2019-11-24T18:04:10Z</time>
      </trkpt>
      <trkpt lat="43.55359" lon="-5.91521">
        <ele>7.6</ele>
        <time>2019-11-24T18:04:11Z</time>
      </trkpt>
      <trkpt lat="43.553575" lon="-5.91514">
        <ele>8</ele>
        <time>2019-11-24T18:04:12Z</time>
      </trkpt>
      <trkpt lat="43.553561" lon="-5.915064">
        <ele>7.8</ele>
        <time>2019-11-24T18:04:13Z</time>
      </trkpt>
      <trkpt lat="43.553548" lon="-5.914985">
        <ele>7.8</ele>
        <time>2019-11-24T18:04:14Z</time>
      </trkpt>
      <trkpt lat="43.553534" lon="-5.914904">
        <ele>7.4</ele>
        <time>2019-11-24T18:04:15Z</time>
      </trkpt>
      <trkpt lat="43.553517" lon="-5.914823">
        <ele>7.4</ele>
        <time>2019-11-24T18:04:16Z</time>
      </trkpt>
      <trkpt lat="43.553494" lon="-5.914743">
        <ele>7.2</ele>
        <time>2019-11-24T18:04:17Z</time>
      </trkpt>
      <trkpt lat="43.553468" lon="-5.914664">
        <ele>7.4</ele>
        <time>2019-11-24T18:04:18Z</time>
      </trkpt>
      <trkpt lat="43.553442" lon="-5.914584">
        <ele>7.4</ele>
        <time>2019-11-24T18:04:19Z</time>
      </trkpt>
      <trkpt lat="43.553416" lon="-5.914504">
        <ele>7.4</ele>
        <time>2019-11-24T18:04:20Z</time>
      </trkpt>
      <trkpt lat="43.553391" lon="-5.914424">
        <ele>7.4</ele>
        <time>2019-11-24T18:04:21Z</time>
      </trkpt>
      <trkpt lat="43.553366" lon="-5.914346">
        <ele>7.6</ele>
        <time>2019-11-24T18:04:22Z</time>
      </trkpt>
      <trkpt lat="43.553341" lon="-5.914268">
        <ele>7.6</ele>
        <time>2019-11-24T18:04:23Z</time>
      </trkpt>
      <trkpt lat="43.553318" lon="-5.914188">
        <ele>7.4</ele>
        <time>2019-11-24T18:04:24Z</time>
      </trkpt>
      <trkpt lat="43.553295" lon="-5.914109">
        <ele>7.6</ele>
        <time>2019-11-24T18:04:25Z</time>
      </trkpt>
      <trkpt lat="43.553272" lon="-5.91403">
        <ele>8</ele>
        <time>2019-11-24T18:04:26Z</time>
      </trkpt>
      <trkpt lat="43.553249" lon="-5.913951">
        <ele>8.4</ele>
        <time>2019-11-24T18:04:27Z</time>
      </trkpt>
      <trkpt lat="43.553227" lon="-5.913873">
        <ele>8</ele>
        <time>2019-11-24T18:04:28Z</time>
      </trkpt>
      <trkpt lat="43.553204" lon="-5.913797">
        <ele>8</ele>
        <time>2019-11-24T18:04:29Z</time>
      </trkpt>
      <trkpt lat="43.553183" lon="-5.913722">
        <ele>8</ele>
        <time>2019-11-24T18:04:30Z</time>
      </trkpt>
      <trkpt lat="43.553164" lon="-5.91365">
        <ele>8</ele>
        <time>2019-11-24T18:04:31Z</time>
      </trkpt>
      <trkpt lat="43.553151" lon="-5.913568">
        <ele>8</ele>
        <time>2019-11-24T18:04:32Z</time>
      </trkpt>
      <trkpt lat="43.553135" lon="-5.91349">
        <ele>8</ele>
        <time>2019-11-24T18:04:33Z</time>
      </trkpt>
      <trkpt lat="43.553118" lon="-5.913415">
        <ele>7.8</ele>
        <time>2019-11-24T18:04:34Z</time>
      </trkpt>
      <trkpt lat="43.553097" lon="-5.913337">
        <ele>7.2</ele>
        <time>2019-11-24T18:04:35Z</time>
      </trkpt>
      <trkpt lat="43.553078" lon="-5.913258">
        <ele>7.2</ele>
        <time>2019-11-24T18:04:36Z</time>
      </trkpt>
      <trkpt lat="43.55306" lon="-5.913177">
        <ele>6.8</ele>
        <time>2019-11-24T18:04:37Z</time>
      </trkpt>
      <trkpt lat="43.553039" lon="-5.913092">
        <ele>6.2</ele>
        <time>2019-11-24T18:04:38Z</time>
      </trkpt>
      <trkpt lat="43.553017" lon="-5.913005">
        <ele>6</ele>
        <time>2019-11-24T18:04:39Z</time>
      </trkpt>
      <trkpt lat="43.552993" lon="-5.91292">
        <ele>6.4</ele>
        <time>2019-11-24T18:04:40Z</time>
      </trkpt>
      <trkpt lat="43.552968" lon="-5.912835">
        <ele>6.8</ele>
        <time>2019-11-24T18:04:41Z</time>
      </trkpt>
      <trkpt lat="43.552945" lon="-5.912747">
        <ele>6.6</ele>
        <time>2019-11-24T18:04:42Z</time>
      </trkpt>
      <trkpt lat="43.552923" lon="-5.91266">
        <ele>6.6</ele>
        <time>2019-11-24T18:04:43Z</time>
      </trkpt>
      <trkpt lat="43.552901" lon="-5.912575">
        <ele>6.6</ele>
        <time>2019-11-24T18:04:44Z</time>
      </trkpt>
      <trkpt lat="43.552876" lon="-5.912493">
        <ele>6.6</ele>
        <time>2019-11-24T18:04:45Z</time>
      </trkpt>
      <trkpt lat="43.552854" lon="-5.912411">
        <ele>7</ele>
        <time>2019-11-24T18:04:46Z</time>
      </trkpt>
      <trkpt lat="43.552832" lon="-5.912329">
        <ele>6.8</ele>
        <time>2019-11-24T18:04:47Z</time>
      </trkpt>
      <trkpt lat="43.55281" lon="-5.912247">
        <ele>6.6</ele>
        <time>2019-11-24T18:04:48Z</time>
      </trkpt>
      <trkpt lat="43.552786" lon="-5.912164">
        <ele>6.6</ele>
        <time>2019-11-24T18:04:49Z</time>
      </trkpt>
      <trkpt lat="43.552761" lon="-5.912081">
        <ele>6.4</ele>
        <time>2019-11-24T18:04:50Z</time>
      </trkpt>
      <trkpt lat="43.552736" lon="-5.911999">
        <ele>6.4</ele>
        <time>2019-11-24T18:04:51Z</time>
      </trkpt>
      <trkpt lat="43.552711" lon="-5.911916">
        <ele>6.6</ele>
        <time>2019-11-24T18:04:52Z</time>
      </trkpt>
      <trkpt lat="43.552689" lon="-5.911835">
        <ele>6.8</ele>
        <time>2019-11-24T18:04:53Z</time>
      </trkpt>
      <trkpt lat="43.552667" lon="-5.911751">
        <ele>6.2</ele>
        <time>2019-11-24T18:04:54Z</time>
      </trkpt>
      <trkpt lat="43.552644" lon="-5.911666">
        <ele>6.4</ele>
        <time>2019-11-24T18:04:55Z</time>
      </trkpt>
      <trkpt lat="43.552624" lon="-5.911582">
        <ele>7</ele>
        <time>2019-11-24T18:04:56Z</time>
      </trkpt>
      <trkpt lat="43.552604" lon="-5.911497">
        <ele>6.4</ele>
        <time>2019-11-24T18:04:57Z</time>
      </trkpt>
      <trkpt lat="43.552585" lon="-5.911412">
        <ele>7</ele>
        <time>2019-11-24T18:04:58Z</time>
      </trkpt>
      <trkpt lat="43.552569" lon="-5.911328">
        <ele>7</ele>
        <time>2019-11-24T18:04:59Z</time>
      </trkpt>
      <trkpt lat="43.552556" lon="-5.911242">
        <ele>7.4</ele>
        <time>2019-11-24T18:05:00Z</time>
      </trkpt>
      <trkpt lat="43.552546" lon="-5.911157">
        <ele>7.2</ele>
        <time>2019-11-24T18:05:01Z</time>
      </trkpt>
      <trkpt lat="43.552538" lon="-5.91107">
        <ele>7</ele>
        <time>2019-11-24T18:05:02Z</time>
      </trkpt>
      <trkpt lat="43.552534" lon="-5.910982">
        <ele>6.8</ele>
        <time>2019-11-24T18:05:03Z</time>
      </trkpt>
      <trkpt lat="43.552536" lon="-5.910893">
        <ele>7</ele>
        <time>2019-11-24T18:05:04Z</time>
      </trkpt>
      <trkpt lat="43.552543" lon="-5.910805">
        <ele>6.8</ele>
        <time>2019-11-24T18:05:05Z</time>
      </trkpt>
      <trkpt lat="43.552555" lon="-5.91072">
        <ele>6.8</ele>
        <time>2019-11-24T18:05:06Z</time>
      </trkpt>
      <trkpt lat="43.552569" lon="-5.910637">
        <ele>6.8</ele>
        <time>2019-11-24T18:05:07Z</time>
      </trkpt>
      <trkpt lat="43.552582" lon="-5.910554">
        <ele>7</ele>
        <time>2019-11-24T18:05:08Z</time>
      </trkpt>
      <trkpt lat="43.552594" lon="-5.910473">
        <ele>6.6</ele>
        <time>2019-11-24T18:05:09Z</time>
      </trkpt>
      <trkpt lat="43.552579" lon="-5.910394">
        <ele>6.6</ele>
        <time>2019-11-24T18:05:10Z</time>
      </trkpt>
      <trkpt lat="43.552554" lon="-5.910318">
        <ele>7</ele>
        <time>2019-11-24T18:05:11Z</time>
      </trkpt>
      <trkpt lat="43.552523" lon="-5.910246">
        <ele>7.4</ele>
        <time>2019-11-24T18:05:12Z</time>
      </trkpt>
      <trkpt lat="43.552492" lon="-5.910177">
        <ele>7.8</ele>
        <time>2019-11-24T18:05:13Z</time>
      </trkpt>
      <trkpt lat="43.55246" lon="-5.910111">
        <ele>8.4</ele>
        <time>2019-11-24T18:05:14Z</time>
      </trkpt>
      <trkpt lat="43.552433" lon="-5.910041">
        <ele>8.4</ele>
        <time>2019-11-24T18:05:15Z</time>
      </trkpt>
      <trkpt lat="43.552412" lon="-5.909967">
        <ele>8.2</ele>
        <time>2019-11-24T18:05:16Z</time>
      </trkpt>
      <trkpt lat="43.552397" lon="-5.909888">
        <ele>8.8</ele>
        <time>2019-11-24T18:05:17Z</time>
      </trkpt>
      <trkpt lat="43.55239" lon="-5.909806">
        <ele>7.8</ele>
        <time>2019-11-24T18:05:18Z</time>
      </trkpt>
      <trkpt lat="43.552388" lon="-5.909722">
        <ele>8.4</ele>
        <time>2019-11-24T18:05:19Z</time>
      </trkpt>
      <trkpt lat="43.552387" lon="-5.909637">
        <ele>8.2</ele>
        <time>2019-11-24T18:05:20Z</time>
      </trkpt>
      <trkpt lat="43.552387" lon="-5.909553">
        <ele>8.2</ele>
        <time>2019-11-24T18:05:21Z</time>
      </trkpt>
      <trkpt lat="43.552388" lon="-5.909469">
        <ele>8.4</ele>
        <time>2019-11-24T18:05:22Z</time>
      </trkpt>
      <trkpt lat="43.552389" lon="-5.909385">
        <ele>8.4</ele>
        <time>2019-11-24T18:05:23Z</time>
      </trkpt>
      <trkpt lat="43.552391" lon="-5.909299">
        <ele>8.4</ele>
        <time>2019-11-24T18:05:24Z</time>
      </trkpt>
      <trkpt lat="43.552394" lon="-5.909214">
        <ele>8.2</ele>
        <time>2019-11-24T18:05:25Z</time>
      </trkpt>
      <trkpt lat="43.552397" lon="-5.909128">
        <ele>7.8</ele>
        <time>2019-11-24T18:05:26Z</time>
      </trkpt>
      <trkpt lat="43.552398" lon="-5.909042">
        <ele>7.8</ele>
        <time>2019-11-24T18:05:27Z</time>
      </trkpt>
      <trkpt lat="43.552401" lon="-5.908957">
        <ele>8.4</ele>
        <time>2019-11-24T18:05:28Z</time>
      </trkpt>
      <trkpt lat="43.552403" lon="-5.908876">
        <ele>8.6</ele>
        <time>2019-11-24T18:05:29Z</time>
      </trkpt>
      <trkpt lat="43.552408" lon="-5.9088">
        <ele>9</ele>
        <time>2019-11-24T18:05:30Z</time>
      </trkpt>
      <trkpt lat="43.552417" lon="-5.908726">
        <ele>9.6</ele>
        <time>2019-11-24T18:05:31Z</time>
      </trkpt>
      <trkpt lat="43.55243" lon="-5.908656">
        <ele>10</ele>
        <time>2019-11-24T18:05:32Z</time>
      </trkpt>
      <trkpt lat="43.552444" lon="-5.908591">
        <ele>10.4</ele>
        <time>2019-11-24T18:05:33Z</time>
      </trkpt>
      <trkpt lat="43.552461" lon="-5.908532">
        <ele>10</ele>
        <time>2019-11-24T18:05:34Z</time>
      </trkpt>
      <trkpt lat="43.552488" lon="-5.908486">
        <ele>10.2</ele>
        <time>2019-11-24T18:05:35Z</time>
      </trkpt>
      <trkpt lat="43.552525" lon="-5.908457">
        <ele>10</ele>
        <time>2019-11-24T18:05:36Z</time>
      </trkpt>
      <trkpt lat="43.552569" lon="-5.908448">
        <ele>9.8</ele>
        <time>2019-11-24T18:05:37Z</time>
      </trkpt>
      <trkpt lat="43.552613" lon="-5.908436">
        <ele>10</ele>
        <time>2019-11-24T18:05:38Z</time>
      </trkpt>
      <trkpt lat="43.552652" lon="-5.908403">
        <ele>9.6</ele>
        <time>2019-11-24T18:05:39Z</time>
      </trkpt>
      <trkpt lat="43.552679" lon="-5.908346">
        <ele>9.2</ele>
        <time>2019-11-24T18:05:40Z</time>
      </trkpt>
      <trkpt lat="43.552696" lon="-5.908279">
        <ele>9.4</ele>
        <time>2019-11-24T18:05:41Z</time>
      </trkpt>
      <trkpt lat="43.552709" lon="-5.908206">
        <ele>9</ele>
        <time>2019-11-24T18:05:42Z</time>
      </trkpt>
      <trkpt lat="43.552721" lon="-5.908131">
        <ele>9.4</ele>
        <time>2019-11-24T18:05:43Z</time>
      </trkpt>
      <trkpt lat="43.552735" lon="-5.908057">
        <ele>9</ele>
        <time>2019-11-24T18:05:44Z</time>
      </trkpt>
      <trkpt lat="43.55275" lon="-5.907984">
        <ele>9.4</ele>
        <time>2019-11-24T18:05:45Z</time>
      </trkpt>
      <trkpt lat="43.552769" lon="-5.907915">
        <ele>9.6</ele>
        <time>2019-11-24T18:05:46Z</time>
      </trkpt>
      <trkpt lat="43.552791" lon="-5.907844">
        <ele>9</ele>
        <time>2019-11-24T18:05:47Z</time>
      </trkpt>
      <trkpt lat="43.552813" lon="-5.907766">
        <ele>8.2</ele>
        <time>2019-11-24T18:05:48Z</time>
      </trkpt>
      <trkpt lat="43.552834" lon="-5.90768">
        <ele>6.8</ele>
        <time>2019-11-24T18:05:49Z</time>
      </trkpt>
      <trkpt lat="43.552854" lon="-5.907588">
        <ele>7.4</ele>
        <time>2019-11-24T18:05:50Z</time>
      </trkpt>
      <trkpt lat="43.552871" lon="-5.907494">
        <ele>6.6</ele>
        <time>2019-11-24T18:05:51Z</time>
      </trkpt>
      <trkpt lat="43.552883" lon="-5.907397">
        <ele>6.4</ele>
        <time>2019-11-24T18:05:52Z</time>
      </trkpt>
      <trkpt lat="43.552894" lon="-5.9073">
        <ele>6</ele>
        <time>2019-11-24T18:05:53Z</time>
      </trkpt>
      <trkpt lat="43.552906" lon="-5.907203">
        <ele>5.8</ele>
        <time>2019-11-24T18:05:54Z</time>
      </trkpt>
      <trkpt lat="43.552916" lon="-5.907106">
        <ele>5.6</ele>
        <time>2019-11-24T18:05:55Z</time>
      </trkpt>
      <trkpt lat="43.552926" lon="-5.907011">
        <ele>6.2</ele>
        <time>2019-11-24T18:05:56Z</time>
      </trkpt>
      <trkpt lat="43.552937" lon="-5.906917">
        <ele>7.2</ele>
        <time>2019-11-24T18:05:57Z</time>
      </trkpt>
      <trkpt lat="43.552948" lon="-5.906823">
        <ele>6.4</ele>
        <time>2019-11-24T18:05:58Z</time>
      </trkpt>
      <trkpt lat="43.552958" lon="-5.906729">
        <ele>6.2</ele>
        <time>2019-11-24T18:05:59Z</time>
      </trkpt>
      <trkpt lat="43.552968" lon="-5.906634">
        <ele>5.8</ele>
        <time>2019-11-24T18:06:00Z</time>
      </trkpt>
      <trkpt lat="43.552977" lon="-5.906541">
        <ele>6</ele>
        <time>2019-11-24T18:06:01Z</time>
      </trkpt>
      <trkpt lat="43.552986" lon="-5.906448">
        <ele>7.8</ele>
        <time>2019-11-24T18:06:02Z</time>
      </trkpt>
      <trkpt lat="43.552995" lon="-5.906355">
        <ele>6.6</ele>
        <time>2019-11-24T18:06:03Z</time>
      </trkpt>
      <trkpt lat="43.553002" lon="-5.906263">
        <ele>5.8</ele>
        <time>2019-11-24T18:06:04Z</time>
      </trkpt>
      <trkpt lat="43.553009" lon="-5.906172">
        <ele>6</ele>
        <time>2019-11-24T18:06:05Z</time>
      </trkpt>
      <trkpt lat="43.553016" lon="-5.90608">
        <ele>6</ele>
        <time>2019-11-24T18:06:06Z</time>
      </trkpt>
      <trkpt lat="43.553025" lon="-5.905989">
        <ele>6.2</ele>
        <time>2019-11-24T18:06:07Z</time>
      </trkpt>
      <trkpt lat="43.553032" lon="-5.905898">
        <ele>7.2</ele>
        <time>2019-11-24T18:06:08Z</time>
      </trkpt>
      <trkpt lat="43.55304" lon="-5.905808">
        <ele>7.2</ele>
        <time>2019-11-24T18:06:09Z</time>
      </trkpt>
      <trkpt lat="43.553048" lon="-5.905718">
        <ele>6.2</ele>
        <time>2019-11-24T18:06:10Z</time>
      </trkpt>
      <trkpt lat="43.553054" lon="-5.90563">
        <ele>6.6</ele>
        <time>2019-11-24T18:06:11Z</time>
      </trkpt>
      <trkpt lat="43.553063" lon="-5.90554">
        <ele>6.6</ele>
        <time>2019-11-24T18:06:12Z</time>
      </trkpt>
      <trkpt lat="43.55307" lon="-5.905449">
        <ele>6.2</ele>
        <time>2019-11-24T18:06:13Z</time>
      </trkpt>
      <trkpt lat="43.553078" lon="-5.905358">
        <ele>6.2</ele>
        <time>2019-11-24T18:06:14Z</time>
      </trkpt>
      <trkpt lat="43.553085" lon="-5.905268">
        <ele>6</ele>
        <time>2019-11-24T18:06:15Z</time>
      </trkpt>
      <trkpt lat="43.553093" lon="-5.905179">
        <ele>6</ele>
        <time>2019-11-24T18:06:16Z</time>
      </trkpt>
      <trkpt lat="43.5531" lon="-5.905091">
        <ele>6</ele>
        <time>2019-11-24T18:06:17Z</time>
      </trkpt>
      <trkpt lat="43.553108" lon="-5.905001">
        <ele>6.2</ele>
        <time>2019-11-24T18:06:18Z</time>
      </trkpt>
      <trkpt lat="43.553116" lon="-5.904913">
        <ele>6.2</ele>
        <time>2019-11-24T18:06:19Z</time>
      </trkpt>
      <trkpt lat="43.553124" lon="-5.904825">
        <ele>6.2</ele>
        <time>2019-11-24T18:06:20Z</time>
      </trkpt>
      <trkpt lat="43.553133" lon="-5.904737">
        <ele>6.2</ele>
        <time>2019-11-24T18:06:21Z</time>
      </trkpt>
      <trkpt lat="43.553142" lon="-5.904649">
        <ele>6</ele>
        <time>2019-11-24T18:06:22Z</time>
      </trkpt>
      <trkpt lat="43.55315" lon="-5.904559">
        <ele>6.2</ele>
        <time>2019-11-24T18:06:23Z</time>
      </trkpt>
      <trkpt lat="43.553158" lon="-5.90447">
        <ele>6.2</ele>
        <time>2019-11-24T18:06:24Z</time>
      </trkpt>
      <trkpt lat="43.553166" lon="-5.904381">
        <ele>5.4</ele>
        <time>2019-11-24T18:06:25Z</time>
      </trkpt>
      <trkpt lat="43.553174" lon="-5.904292">
        <ele>6</ele>
        <time>2019-11-24T18:06:26Z</time>
      </trkpt>
      <trkpt lat="43.553183" lon="-5.904202">
        <ele>6.2</ele>
        <time>2019-11-24T18:06:27Z</time>
      </trkpt>
      <trkpt lat="43.553191" lon="-5.904112">
        <ele>5.6</ele>
        <time>2019-11-24T18:06:28Z</time>
      </trkpt>
      <trkpt lat="43.553199" lon="-5.904022">
        <ele>6.2</ele>
        <time>2019-11-24T18:06:29Z</time>
      </trkpt>
      <trkpt lat="43.553208" lon="-5.903933">
        <ele>6.4</ele>
        <time>2019-11-24T18:06:30Z</time>
      </trkpt>
      <trkpt lat="43.553216" lon="-5.903843">
        <ele>6.6</ele>
        <time>2019-11-24T18:06:31Z</time>
      </trkpt>
      <trkpt lat="43.553224" lon="-5.903753">
        <ele>6.2</ele>
        <time>2019-11-24T18:06:32Z</time>
      </trkpt>
      <trkpt lat="43.553231" lon="-5.903662">
        <ele>6</ele>
        <time>2019-11-24T18:06:33Z</time>
      </trkpt>
      <trkpt lat="43.553238" lon="-5.903571">
        <ele>6</ele>
        <time>2019-11-24T18:06:34Z</time>
      </trkpt>
      <trkpt lat="43.553246" lon="-5.903481">
        <ele>6</ele>
        <time>2019-11-24T18:06:35Z</time>
      </trkpt>
      <trkpt lat="43.553254" lon="-5.90339">
        <ele>6.2</ele>
        <time>2019-11-24T18:06:36Z</time>
      </trkpt>
      <trkpt lat="43.553262" lon="-5.9033">
        <ele>6.4</ele>
        <time>2019-11-24T18:06:37Z</time>
      </trkpt>
      <trkpt lat="43.55327" lon="-5.90321">
        <ele>6.4</ele>
        <time>2019-11-24T18:06:38Z</time>
      </trkpt>
      <trkpt lat="43.553277" lon="-5.903121">
        <ele>6.2</ele>
        <time>2019-11-24T18:06:39Z</time>
      </trkpt>
      <trkpt lat="43.553286" lon="-5.903029">
        <ele>6.2</ele>
        <time>2019-11-24T18:06:40Z</time>
      </trkpt>
      <trkpt lat="43.553294" lon="-5.902939">
        <ele>5.8</ele>
        <time>2019-11-24T18:06:41Z</time>
      </trkpt>
      <trkpt lat="43.553302" lon="-5.902849">
        <ele>5.8</ele>
        <time>2019-11-24T18:06:42Z</time>
      </trkpt>
      <trkpt lat="43.553309" lon="-5.902759">
        <ele>6.2</ele>
        <time>2019-11-24T18:06:43Z</time>
      </trkpt>
      <trkpt lat="43.553317" lon="-5.902669">
        <ele>6.2</ele>
        <time>2019-11-24T18:06:44Z</time>
      </trkpt>
      <trkpt lat="43.553324" lon="-5.90258">
        <ele>5.6</ele>
        <time>2019-11-24T18:06:45Z</time>
      </trkpt>
      <trkpt lat="43.553332" lon="-5.90249">
        <ele>5.8</ele>
        <time>2019-11-24T18:06:46Z</time>
      </trkpt>
      <trkpt lat="43.553339" lon="-5.902401">
        <ele>5.6</ele>
        <time>2019-11-24T18:06:47Z</time>
      </trkpt>
      <trkpt lat="43.553348" lon="-5.902311">
        <ele>5.8</ele>
        <time>2019-11-24T18:06:48Z</time>
      </trkpt>
      <trkpt lat="43.553356" lon="-5.902222">
        <ele>5.6</ele>
        <time>2019-11-24T18:06:49Z</time>
      </trkpt>
      <trkpt lat="43.553364" lon="-5.902132">
        <ele>6</ele>
        <time>2019-11-24T18:06:50Z</time>
      </trkpt>
      <trkpt lat="43.553372" lon="-5.902041">
        <ele>6.2</ele>
        <time>2019-11-24T18:06:51Z</time>
      </trkpt>
      <trkpt lat="43.553379" lon="-5.90195">
        <ele>5.8</ele>
        <time>2019-11-24T18:06:52Z</time>
      </trkpt>
      <trkpt lat="43.553388" lon="-5.901859">
        <ele>5.6</ele>
        <time>2019-11-24T18:06:53Z</time>
      </trkpt>
      <trkpt lat="43.553398" lon="-5.901768">
        <ele>5.8</ele>
        <time>2019-11-24T18:06:54Z</time>
      </trkpt>
      <trkpt lat="43.553406" lon="-5.901677">
        <ele>6</ele>
        <time>2019-11-24T18:06:55Z</time>
      </trkpt>
      <trkpt lat="43.553415" lon="-5.901587">
        <ele>6.4</ele>
        <time>2019-11-24T18:06:56Z</time>
      </trkpt>
      <trkpt lat="43.553423" lon="-5.901496">
        <ele>6.2</ele>
        <time>2019-11-24T18:06:57Z</time>
      </trkpt>
      <trkpt lat="43.553431" lon="-5.901405">
        <ele>6</ele>
        <time>2019-11-24T18:06:58Z</time>
      </trkpt>
      <trkpt lat="43.553438" lon="-5.901314">
        <ele>5.8</ele>
        <time>2019-11-24T18:06:59Z</time>
      </trkpt>
      <trkpt lat="43.553445" lon="-5.901224">
        <ele>5.8</ele>
        <time>2019-11-24T18:07:00Z</time>
      </trkpt>
      <trkpt lat="43.553453" lon="-5.901134">
        <ele>5.8</ele>
        <time>2019-11-24T18:07:01Z</time>
      </trkpt>
      <trkpt lat="43.553461" lon="-5.901045">
        <ele>5.6</ele>
        <time>2019-11-24T18:07:02Z</time>
      </trkpt>
      <trkpt lat="43.553469" lon="-5.900955">
        <ele>5.2</ele>
        <time>2019-11-24T18:07:03Z</time>
      </trkpt>
      <trkpt lat="43.553477" lon="-5.900866">
        <ele>5.2</ele>
        <time>2019-11-24T18:07:04Z</time>
      </trkpt>
      <trkpt lat="43.553485" lon="-5.900777">
        <ele>6</ele>
        <time>2019-11-24T18:07:05Z</time>
      </trkpt>
      <trkpt lat="43.553493" lon="-5.900689">
        <ele>5.8</ele>
        <time>2019-11-24T18:07:06Z</time>
      </trkpt>
      <trkpt lat="43.553501" lon="-5.9006">
        <ele>5.8</ele>
        <time>2019-11-24T18:07:07Z</time>
      </trkpt>
      <trkpt lat="43.553509" lon="-5.900512">
        <ele>6</ele>
        <time>2019-11-24T18:07:08Z</time>
      </trkpt>
      <trkpt lat="43.553516" lon="-5.900424">
        <ele>5.4</ele>
        <time>2019-11-24T18:07:09Z</time>
      </trkpt>
      <trkpt lat="43.553524" lon="-5.900336">
        <ele>5.4</ele>
        <time>2019-11-24T18:07:10Z</time>
      </trkpt>
      <trkpt lat="43.553532" lon="-5.900249">
        <ele>5.6</ele>
        <time>2019-11-24T18:07:11Z</time>
      </trkpt>
      <trkpt lat="43.553539" lon="-5.900162">
        <ele>5.8</ele>
        <time>2019-11-24T18:07:12Z</time>
      </trkpt>
      <trkpt lat="43.553546" lon="-5.900074">
        <ele>5.4</ele>
        <time>2019-11-24T18:07:13Z</time>
      </trkpt>
      <trkpt lat="43.553553" lon="-5.899988">
        <ele>6.4</ele>
        <time>2019-11-24T18:07:14Z</time>
      </trkpt>
      <trkpt lat="43.553559" lon="-5.899901">
        <ele>6.8</ele>
        <time>2019-11-24T18:07:15Z</time>
      </trkpt>
      <trkpt lat="43.553561" lon="-5.89982">
        <ele>7.2</ele>
        <time>2019-11-24T18:07:16Z</time>
      </trkpt>
      <trkpt lat="43.553559" lon="-5.899744">
        <ele>7.4</ele>
        <time>2019-11-24T18:07:17Z</time>
      </trkpt>
      <trkpt lat="43.553558" lon="-5.899668">
        <ele>7.6</ele>
        <time>2019-11-24T18:07:18Z</time>
      </trkpt>
      <trkpt lat="43.553563" lon="-5.899593">
        <ele>8.6</ele>
        <time>2019-11-24T18:07:19Z</time>
      </trkpt>
      <trkpt lat="43.553574" lon="-5.899526">
        <ele>8.8</ele>
        <time>2019-11-24T18:07:20Z</time>
      </trkpt>
      <trkpt lat="43.553589" lon="-5.899469">
        <ele>9</ele>
        <time>2019-11-24T18:07:21Z</time>
      </trkpt>
      <trkpt lat="43.553605" lon="-5.899414">
        <ele>9</ele>
        <time>2019-11-24T18:07:22Z</time>
      </trkpt>
      <trkpt lat="43.553624" lon="-5.899356">
        <ele>8.8</ele>
        <time>2019-11-24T18:07:23Z</time>
      </trkpt>
      <trkpt lat="43.553642" lon="-5.899294">
        <ele>8.2</ele>
        <time>2019-11-24T18:07:24Z</time>
      </trkpt>
      <trkpt lat="43.553658" lon="-5.899228">
        <ele>8</ele>
        <time>2019-11-24T18:07:25Z</time>
      </trkpt>
      <trkpt lat="43.553674" lon="-5.89916">
        <ele>8</ele>
        <time>2019-11-24T18:07:26Z</time>
      </trkpt>
      <trkpt lat="43.553692" lon="-5.89909">
        <ele>8.2</ele>
        <time>2019-11-24T18:07:27Z</time>
      </trkpt>
      <trkpt lat="43.55371" lon="-5.899018">
        <ele>8</ele>
        <time>2019-11-24T18:07:28Z</time>
      </trkpt>
      <trkpt lat="43.553728" lon="-5.898945">
        <ele>8</ele>
        <time>2019-11-24T18:07:29Z</time>
      </trkpt>
      <trkpt lat="43.553748" lon="-5.89887">
        <ele>8</ele>
        <time>2019-11-24T18:07:30Z</time>
      </trkpt>
      <trkpt lat="43.553768" lon="-5.898795">
        <ele>7.8</ele>
        <time>2019-11-24T18:07:31Z</time>
      </trkpt>
      <trkpt lat="43.55379" lon="-5.898719">
        <ele>8</ele>
        <time>2019-11-24T18:07:32Z</time>
      </trkpt>
      <trkpt lat="43.553812" lon="-5.898643">
        <ele>8.6</ele>
        <time>2019-11-24T18:07:33Z</time>
      </trkpt>
      <trkpt lat="43.553835" lon="-5.89857">
        <ele>8.8</ele>
        <time>2019-11-24T18:07:34Z</time>
      </trkpt>
      <trkpt lat="43.553858" lon="-5.898501">
        <ele>9.4</ele>
        <time>2019-11-24T18:07:35Z</time>
      </trkpt>
      <trkpt lat="43.55388" lon="-5.898437">
        <ele>10</ele>
        <time>2019-11-24T18:07:36Z</time>
      </trkpt>
      <trkpt lat="43.553902" lon="-5.898376">
        <ele>10.4</ele>
        <time>2019-11-24T18:07:37Z</time>
      </trkpt>
      <trkpt lat="43.553922" lon="-5.898316">
        <ele>10.8</ele>
        <time>2019-11-24T18:07:38Z</time>
      </trkpt>
      <trkpt lat="43.553942" lon="-5.898259">
        <ele>11.4</ele>
        <time>2019-11-24T18:07:39Z</time>
      </trkpt>
      <trkpt lat="43.553962" lon="-5.898202">
        <ele>11.4</ele>
        <time>2019-11-24T18:07:40Z</time>
      </trkpt>
      <trkpt lat="43.553982" lon="-5.898148">
        <ele>12</ele>
        <time>2019-11-24T18:07:41Z</time>
      </trkpt>
      <trkpt lat="43.554002" lon="-5.898094">
        <ele>12.4</ele>
        <time>2019-11-24T18:07:42Z</time>
      </trkpt>
      <trkpt lat="43.554021" lon="-5.898041">
        <ele>13</ele>
        <time>2019-11-24T18:07:43Z</time>
      </trkpt>
      <trkpt lat="43.554038" lon="-5.897989">
        <ele>13.4</ele>
        <time>2019-11-24T18:07:44Z</time>
      </trkpt>
      <trkpt lat="43.554054" lon="-5.897938">
        <ele>13.4</ele>
        <time>2019-11-24T18:07:45Z</time>
      </trkpt>
      <trkpt lat="43.554067" lon="-5.897886">
        <ele>14.2</ele>
        <time>2019-11-24T18:07:46Z</time>
      </trkpt>
      <trkpt lat="43.554074" lon="-5.897834">
        <ele>14.8</ele>
        <time>2019-11-24T18:07:47Z</time>
      </trkpt>
      <trkpt lat="43.554073" lon="-5.897789">
        <ele>15.4</ele>
        <time>2019-11-24T18:07:48Z</time>
      </trkpt>
      <trkpt lat="43.554064" lon="-5.897753">
        <ele>15.2</ele>
        <time>2019-11-24T18:07:49Z</time>
      </trkpt>
      <trkpt lat="43.554049" lon="-5.897727">
        <ele>15.4</ele>
        <time>2019-11-24T18:07:50Z</time>
      </trkpt>
      <trkpt lat="43.554029" lon="-5.897718">
        <ele>15.6</ele>
        <time>2019-11-24T18:07:51Z</time>
      </trkpt>
      <trkpt lat="43.553999" lon="-5.897732">
        <ele>15.4</ele>
        <time>2019-11-24T18:07:52Z</time>
      </trkpt>
      <trkpt lat="43.553958" lon="-5.897756">
        <ele>15</ele>
        <time>2019-11-24T18:07:53Z</time>
      </trkpt>
      <trkpt lat="43.553911" lon="-5.897784">
        <ele>14.6</ele>
        <time>2019-11-24T18:07:54Z</time>
      </trkpt>
      <trkpt lat="43.553861" lon="-5.897819">
        <ele>14.4</ele>
        <time>2019-11-24T18:07:55Z</time>
      </trkpt>
      <trkpt lat="43.553811" lon="-5.897859">
        <ele>13.6</ele>
        <time>2019-11-24T18:07:56Z</time>
      </trkpt>
      <trkpt lat="43.553759" lon="-5.897905">
        <ele>13.6</ele>
        <time>2019-11-24T18:07:57Z</time>
      </trkpt>
      <trkpt lat="43.553707" lon="-5.897959">
        <ele>13</ele>
        <time>2019-11-24T18:07:58Z</time>
      </trkpt>
      <trkpt lat="43.553656" lon="-5.898022">
        <ele>12</ele>
        <time>2019-11-24T18:07:59Z</time>
      </trkpt>
      <trkpt lat="43.553607" lon="-5.898096">
        <ele>11.8</ele>
        <time>2019-11-24T18:08:00Z</time>
      </trkpt>
      <trkpt lat="43.553557" lon="-5.898179">
        <ele>11.6</ele>
        <time>2019-11-24T18:08:01Z</time>
      </trkpt>
      <trkpt lat="43.553504" lon="-5.898266">
        <ele>10.6</ele>
        <time>2019-11-24T18:08:02Z</time>
      </trkpt>
      <trkpt lat="43.553449" lon="-5.898356">
        <ele>10.6</ele>
        <time>2019-11-24T18:08:03Z</time>
      </trkpt>
      <trkpt lat="43.553392" lon="-5.89845">
        <ele>9.6</ele>
        <time>2019-11-24T18:08:04Z</time>
      </trkpt>
      <trkpt lat="43.553329" lon="-5.898541">
        <ele>8.6</ele>
        <time>2019-11-24T18:08:05Z</time>
      </trkpt>
      <trkpt lat="43.553255" lon="-5.898616">
        <ele>8.2</ele>
        <time>2019-11-24T18:08:06Z</time>
      </trkpt>
      <trkpt lat="43.553173" lon="-5.89867">
        <ele>7.6</ele>
        <time>2019-11-24T18:08:07Z</time>
      </trkpt>
      <trkpt lat="43.553086" lon="-5.898699">
        <ele>8</ele>
        <time>2019-11-24T18:08:08Z</time>
      </trkpt>
      <trkpt lat="43.552997" lon="-5.898705">
        <ele>7.2</ele>
        <time>2019-11-24T18:08:09Z</time>
      </trkpt>
      <trkpt lat="43.552912" lon="-5.898697">
        <ele>7.4</ele>
        <time>2019-11-24T18:08:10Z</time>
      </trkpt>
      <trkpt lat="43.552835" lon="-5.89868">
        <ele>7.2</ele>
        <time>2019-11-24T18:08:11Z</time>
      </trkpt>
      <trkpt lat="43.55277" lon="-5.898661">
        <ele>7.6</ele>
        <time>2019-11-24T18:08:12Z</time>
      </trkpt>
      <trkpt lat="43.552723" lon="-5.898645">
        <ele>7.8</ele>
        <time>2019-11-24T18:08:13Z</time>
      </trkpt>
      <trkpt lat="43.552693" lon="-5.898635">
        <ele>7.8</ele>
        <time>2019-11-24T18:08:14Z</time>
      </trkpt>
      <trkpt lat="43.552681" lon="-5.89863">
        <ele>8</ele>
        <time>2019-11-24T18:08:15Z</time>
      </trkpt>
      <trkpt lat="43.552678" lon="-5.898632">
        <ele>8.2</ele>
        <time>2019-11-24T18:08:16Z</time>
      </trkpt>
      <trkpt lat="43.552676" lon="-5.898633">
        <ele>8.2</ele>
        <time>2019-11-24T18:08:17Z</time>
      </trkpt>
      <trkpt lat="43.552642" lon="-5.898628">
        <ele>8.4</ele>
        <time>2019-11-24T18:08:41Z</time>
      </trkpt>
      <trkpt lat="43.552622" lon="-5.89862">
        <ele>8.2</ele>
        <time>2019-11-24T18:08:42Z</time>
      </trkpt>
      <trkpt lat="43.552599" lon="-5.898611">
        <ele>8</ele>
        <time>2019-11-24T18:08:43Z</time>
      </trkpt>
      <trkpt lat="43.552571" lon="-5.898601">
        <ele>8.2</ele>
        <time>2019-11-24T18:08:44Z</time>
      </trkpt>
      <trkpt lat="43.55254" lon="-5.898591">
        <ele>8.2</ele>
        <time>2019-11-24T18:08:45Z</time>
      </trkpt>
      <trkpt lat="43.552503" lon="-5.898578">
        <ele>8</ele>
        <time>2019-11-24T18:08:46Z</time>
      </trkpt>
      <trkpt lat="43.552462" lon="-5.898558">
        <ele>7.6</ele>
        <time>2019-11-24T18:08:47Z</time>
      </trkpt>
      <trkpt lat="43.552418" lon="-5.898531">
        <ele>7.6</ele>
        <time>2019-11-24T18:08:48Z</time>
      </trkpt>
      <trkpt lat="43.552372" lon="-5.898503">
        <ele>7.6</ele>
        <time>2019-11-24T18:08:49Z</time>
      </trkpt>
      <trkpt lat="43.552324" lon="-5.898475">
        <ele>7.4</ele>
        <time>2019-11-24T18:08:50Z</time>
      </trkpt>
      <trkpt lat="43.552279" lon="-5.898444">
        <ele>7.2</ele>
        <time>2019-11-24T18:08:51Z</time>
      </trkpt>
      <trkpt lat="43.552236" lon="-5.898414">
        <ele>7</ele>
        <time>2019-11-24T18:08:52Z</time>
      </trkpt>
      <trkpt lat="43.55219" lon="-5.898392">
        <ele>7.2</ele>
        <time>2019-11-24T18:08:53Z</time>
      </trkpt>
      <trkpt lat="43.552141" lon="-5.898372">
        <ele>6.8</ele>
        <time>2019-11-24T18:08:54Z</time>
      </trkpt>
      <trkpt lat="43.552088" lon="-5.898352">
        <ele>6.8</ele>
        <time>2019-11-24T18:08:55Z</time>
      </trkpt>
      <trkpt lat="43.55204" lon="-5.898318">
        <ele>7.2</ele>
        <time>2019-11-24T18:08:56Z</time>
      </trkpt>
      <trkpt lat="43.551987" lon="-5.898295">
        <ele>7</ele>
        <time>2019-11-24T18:08:57Z</time>
      </trkpt>
      <trkpt lat="43.551923" lon="-5.898281">
        <ele>6.6</ele>
        <time>2019-11-24T18:08:58Z</time>
      </trkpt>
      <trkpt lat="43.551859" lon="-5.898259">
        <ele>6.8</ele>
        <time>2019-11-24T18:08:59Z</time>
      </trkpt>
      <trkpt lat="43.551797" lon="-5.898239">
        <ele>7.4</ele>
        <time>2019-11-24T18:09:00Z</time>
      </trkpt>
      <trkpt lat="43.551734" lon="-5.898223">
        <ele>7.2</ele>
        <time>2019-11-24T18:09:01Z</time>
      </trkpt>
      <trkpt lat="43.551676" lon="-5.898206">
        <ele>7.4</ele>
        <time>2019-11-24T18:09:02Z</time>
      </trkpt>
      <trkpt lat="43.55162" lon="-5.898192">
        <ele>7.2</ele>
        <time>2019-11-24T18:09:03Z</time>
      </trkpt>
      <trkpt lat="43.55156" lon="-5.898184">
        <ele>6.8</ele>
        <time>2019-11-24T18:09:04Z</time>
      </trkpt>
      <trkpt lat="43.551499" lon="-5.898178">
        <ele>7.4</ele>
        <time>2019-11-24T18:09:05Z</time>
      </trkpt>
      <trkpt lat="43.551439" lon="-5.898176">
        <ele>7.6</ele>
        <time>2019-11-24T18:09:06Z</time>
      </trkpt>
      <trkpt lat="43.551378" lon="-5.898165">
        <ele>7.4</ele>
        <time>2019-11-24T18:09:07Z</time>
      </trkpt>
      <trkpt lat="43.551318" lon="-5.898142">
        <ele>7.8</ele>
        <time>2019-11-24T18:09:08Z</time>
      </trkpt>
      <trkpt lat="43.551255" lon="-5.898124">
        <ele>7.4</ele>
        <time>2019-11-24T18:09:09Z</time>
      </trkpt>
      <trkpt lat="43.551193" lon="-5.898115">
        <ele>7.6</ele>
        <time>2019-11-24T18:09:10Z</time>
      </trkpt>
      <trkpt lat="43.551133" lon="-5.898116">
        <ele>7.4</ele>
        <time>2019-11-24T18:09:11Z</time>
      </trkpt>
      <trkpt lat="43.551069" lon="-5.898129">
        <ele>7.4</ele>
        <time>2019-11-24T18:09:12Z</time>
      </trkpt>
      <trkpt lat="43.551005" lon="-5.898143">
        <ele>7.6</ele>
        <time>2019-11-24T18:09:13Z</time>
      </trkpt>
      <trkpt lat="43.550942" lon="-5.898159">
        <ele>7.6</ele>
        <time>2019-11-24T18:09:14Z</time>
      </trkpt>
      <trkpt lat="43.550882" lon="-5.898179">
        <ele>8</ele>
        <time>2019-11-24T18:09:15Z</time>
      </trkpt>
      <trkpt lat="43.550821" lon="-5.898199">
        <ele>8</ele>
        <time>2019-11-24T18:09:16Z</time>
      </trkpt>
      <trkpt lat="43.550759" lon="-5.898213">
        <ele>7.8</ele>
        <time>2019-11-24T18:09:17Z</time>
      </trkpt>
      <trkpt lat="43.550699" lon="-5.898225">
        <ele>7.8</ele>
        <time>2019-11-24T18:09:18Z</time>
      </trkpt>
      <trkpt lat="43.55064" lon="-5.89824">
        <ele>7.8</ele>
        <time>2019-11-24T18:09:19Z</time>
      </trkpt>
      <trkpt lat="43.550583" lon="-5.898254">
        <ele>7.6</ele>
        <time>2019-11-24T18:09:20Z</time>
      </trkpt>
      <trkpt lat="43.550526" lon="-5.898268">
        <ele>8</ele>
        <time>2019-11-24T18:09:21Z</time>
      </trkpt>
      <trkpt lat="43.550469" lon="-5.898283">
        <ele>8</ele>
        <time>2019-11-24T18:09:22Z</time>
      </trkpt>
      <trkpt lat="43.550412" lon="-5.898297">
        <ele>8.2</ele>
        <time>2019-11-24T18:09:23Z</time>
      </trkpt>
      <trkpt lat="43.550357" lon="-5.898309">
        <ele>8.4</ele>
        <time>2019-11-24T18:09:24Z</time>
      </trkpt>
      <trkpt lat="43.550299" lon="-5.898319">
        <ele>8.8</ele>
        <time>2019-11-24T18:09:25Z</time>
      </trkpt>
      <trkpt lat="43.550246" lon="-5.898339">
        <ele>8.8</ele>
        <time>2019-11-24T18:09:26Z</time>
      </trkpt>
      <trkpt lat="43.550201" lon="-5.898378">
        <ele>9</ele>
        <time>2019-11-24T18:09:27Z</time>
      </trkpt>
      <trkpt lat="43.550171" lon="-5.898436">
        <ele>9.2</ele>
        <time>2019-11-24T18:09:28Z</time>
      </trkpt>
      <trkpt lat="43.550158" lon="-5.898505">
        <ele>9.4</ele>
        <time>2019-11-24T18:09:29Z</time>
      </trkpt>
      <trkpt lat="43.550157" lon="-5.898576">
        <ele>9.4</ele>
        <time>2019-11-24T18:09:30Z</time>
      </trkpt>
      <trkpt lat="43.550162" lon="-5.898651">
        <ele>9.2</ele>
        <time>2019-11-24T18:09:31Z</time>
      </trkpt>
      <trkpt lat="43.55017" lon="-5.89873">
        <ele>9.4</ele>
        <time>2019-11-24T18:09:32Z</time>
      </trkpt>
      <trkpt lat="43.550178" lon="-5.89881">
        <ele>9.4</ele>
        <time>2019-11-24T18:09:33Z</time>
      </trkpt>
      <trkpt lat="43.550188" lon="-5.89889">
        <ele>9.6</ele>
        <time>2019-11-24T18:09:34Z</time>
      </trkpt>
      <trkpt lat="43.550198" lon="-5.898972">
        <ele>9.2</ele>
        <time>2019-11-24T18:09:35Z</time>
      </trkpt>
      <trkpt lat="43.550209" lon="-5.899054">
        <ele>9.2</ele>
        <time>2019-11-24T18:09:36Z</time>
      </trkpt>
      <trkpt lat="43.550222" lon="-5.899138">
        <ele>9.2</ele>
        <time>2019-11-24T18:09:37Z</time>
      </trkpt>
      <trkpt lat="43.550235" lon="-5.899223">
        <ele>9.2</ele>
        <time>2019-11-24T18:09:38Z</time>
      </trkpt>
      <trkpt lat="43.550246" lon="-5.899309">
        <ele>9.6</ele>
        <time>2019-11-24T18:09:39Z</time>
      </trkpt>
      <trkpt lat="43.550258" lon="-5.899392">
        <ele>9.6</ele>
        <time>2019-11-24T18:09:40Z</time>
      </trkpt>
      <trkpt lat="43.55027" lon="-5.899474">
        <ele>9.6</ele>
        <time>2019-11-24T18:09:41Z</time>
      </trkpt>
      <trkpt lat="43.550281" lon="-5.899554">
        <ele>10</ele>
        <time>2019-11-24T18:09:42Z</time>
      </trkpt>
      <trkpt lat="43.550289" lon="-5.899633">
        <ele>10.4</ele>
        <time>2019-11-24T18:09:43Z</time>
      </trkpt>
      <trkpt lat="43.550295" lon="-5.899712">
        <ele>10.4</ele>
        <time>2019-11-24T18:09:44Z</time>
      </trkpt>
      <trkpt lat="43.550295" lon="-5.89979">
        <ele>10.4</ele>
        <time>2019-11-24T18:09:45Z</time>
      </trkpt>
      <trkpt lat="43.550278" lon="-5.899862">
        <ele>10.6</ele>
        <time>2019-11-24T18:09:46Z</time>
      </trkpt>
      <trkpt lat="43.550243" lon="-5.899919">
        <ele>10.2</ele>
        <time>2019-11-24T18:09:47Z</time>
      </trkpt>
      <trkpt lat="43.550195" lon="-5.899955">
        <ele>10.2</ele>
        <time>2019-11-24T18:09:48Z</time>
      </trkpt>
      <trkpt lat="43.550139" lon="-5.899978">
        <ele>9.6</ele>
        <time>2019-11-24T18:09:49Z</time>
      </trkpt>
      <trkpt lat="43.550024" lon="-5.900005">
        <ele>9.4</ele>
        <time>2019-11-24T18:09:50Z</time>
      </trkpt>
      <trkpt lat="43.549995" lon="-5.900012">
        <ele>9.4</ele>
        <time>2019-11-24T18:09:51Z</time>
      </trkpt>
      <trkpt lat="43.549966" lon="-5.900019">
        <ele>9.8</ele>
        <time>2019-11-24T18:09:52Z</time>
      </trkpt>
      <trkpt lat="43.549908" lon="-5.900033">
        <ele>10.4</ele>
        <time>2019-11-24T18:09:53Z</time>
      </trkpt>
      <trkpt lat="43.54985" lon="-5.900046">
        <ele>10.8</ele>
        <time>2019-11-24T18:09:54Z</time>
      </trkpt>
      <trkpt lat="43.549733" lon="-5.900071">
        <ele>11</ele>
        <time>2019-11-24T18:09:55Z</time>
      </trkpt>
      <trkpt lat="43.549673" lon="-5.900087">
        <ele>10.4</ele>
        <time>2019-11-24T18:09:56Z</time>
      </trkpt>
      <trkpt lat="43.549644" lon="-5.900096">
        <ele>10.6</ele>
        <time>2019-11-24T18:09:57Z</time>
      </trkpt>
      <trkpt lat="43.549614" lon="-5.900104">
        <ele>10.4</ele>
        <time>2019-11-24T18:09:58Z</time>
      </trkpt>
      <trkpt lat="43.549553" lon="-5.900121">
        <ele>10.4</ele>
        <time>2019-11-24T18:09:59Z</time>
      </trkpt>
      <trkpt lat="43.549492" lon="-5.900135">
        <ele>10.2</ele>
        <time>2019-11-24T18:10:00Z</time>
      </trkpt>
      <trkpt lat="43.54943" lon="-5.900149">
        <ele>10.4</ele>
        <time>2019-11-24T18:10:01Z</time>
      </trkpt>
      <trkpt lat="43.549369" lon="-5.900165">
        <ele>10.2</ele>
        <time>2019-11-24T18:10:02Z</time>
      </trkpt>
      <trkpt lat="43.549309" lon="-5.900181">
        <ele>10.2</ele>
        <time>2019-11-24T18:10:03Z</time>
      </trkpt>
      <trkpt lat="43.549247" lon="-5.900196">
        <ele>10</ele>
        <time>2019-11-24T18:10:04Z</time>
      </trkpt>
      <trkpt lat="43.549127" lon="-5.900223">
        <ele>10</ele>
        <time>2019-11-24T18:10:05Z</time>
      </trkpt>
      <trkpt lat="43.549096" lon="-5.900229">
        <ele>10</ele>
        <time>2019-11-24T18:10:06Z</time>
      </trkpt>
      <trkpt lat="43.549065" lon="-5.900235">
        <ele>10</ele>
        <time>2019-11-24T18:10:07Z</time>
      </trkpt>
      <trkpt lat="43.549005" lon="-5.90025">
        <ele>10.6</ele>
        <time>2019-11-24T18:10:08Z</time>
      </trkpt>
      <trkpt lat="43.548946" lon="-5.900264">
        <ele>10.6</ele>
        <time>2019-11-24T18:10:09Z</time>
      </trkpt>
      <trkpt lat="43.548886" lon="-5.900278">
        <ele>10.4</ele>
        <time>2019-11-24T18:10:10Z</time>
      </trkpt>
      <trkpt lat="43.548828" lon="-5.900293">
        <ele>10.2</ele>
        <time>2019-11-24T18:10:11Z</time>
      </trkpt>
      <trkpt lat="43.548769" lon="-5.90031">
        <ele>10.2</ele>
        <time>2019-11-24T18:10:12Z</time>
      </trkpt>
      <trkpt lat="43.548712" lon="-5.90033">
        <ele>10.8</ele>
        <time>2019-11-24T18:10:13Z</time>
      </trkpt>
      <trkpt lat="43.548659" lon="-5.900362">
        <ele>10.6</ele>
        <time>2019-11-24T18:10:14Z</time>
      </trkpt>
      <trkpt lat="43.548612" lon="-5.900409">
        <ele>10.8</ele>
        <time>2019-11-24T18:10:15Z</time>
      </trkpt>
      <trkpt lat="43.548571" lon="-5.900464">
        <ele>10.6</ele>
        <time>2019-11-24T18:10:16Z</time>
      </trkpt>
      <trkpt lat="43.548536" lon="-5.900526">
        <ele>11</ele>
        <time>2019-11-24T18:10:17Z</time>
      </trkpt>
      <trkpt lat="43.548505" lon="-5.900593">
        <ele>11.4</ele>
        <time>2019-11-24T18:10:18Z</time>
      </trkpt>
      <trkpt lat="43.548475" lon="-5.900661">
        <ele>11.6</ele>
        <time>2019-11-24T18:10:19Z</time>
      </trkpt>
      <trkpt lat="43.548446" lon="-5.900729">
        <ele>11.8</ele>
        <time>2019-11-24T18:10:20Z</time>
      </trkpt>
      <trkpt lat="43.548418" lon="-5.900797">
        <ele>11.4</ele>
        <time>2019-11-24T18:10:21Z</time>
      </trkpt>
      <trkpt lat="43.548391" lon="-5.900864">
        <ele>11.2</ele>
        <time>2019-11-24T18:10:22Z</time>
      </trkpt>
      <trkpt lat="43.548365" lon="-5.90093">
        <ele>12.4</ele>
        <time>2019-11-24T18:10:23Z</time>
      </trkpt>
      <trkpt lat="43.548337" lon="-5.900995">
        <ele>12.2</ele>
        <time>2019-11-24T18:10:24Z</time>
      </trkpt>
      <trkpt lat="43.548309" lon="-5.901061">
        <ele>12.2</ele>
        <time>2019-11-24T18:10:25Z</time>
      </trkpt>
      <trkpt lat="43.548283" lon="-5.901126">
        <ele>12.6</ele>
        <time>2019-11-24T18:10:26Z</time>
      </trkpt>
      <trkpt lat="43.548254" lon="-5.901192">
        <ele>13</ele>
        <time>2019-11-24T18:10:27Z</time>
      </trkpt>
      <trkpt lat="43.548223" lon="-5.901253">
        <ele>12.8</ele>
        <time>2019-11-24T18:10:28Z</time>
      </trkpt>
      <trkpt lat="43.548191" lon="-5.901313">
        <ele>13.4</ele>
        <time>2019-11-24T18:10:29Z</time>
      </trkpt>
      <trkpt lat="43.548156" lon="-5.90137">
        <ele>13.4</ele>
        <time>2019-11-24T18:10:30Z</time>
      </trkpt>
      <trkpt lat="43.548119" lon="-5.901421">
        <ele>13.8</ele>
        <time>2019-11-24T18:10:31Z</time>
      </trkpt>
      <trkpt lat="43.548079" lon="-5.901469">
        <ele>14.2</ele>
        <time>2019-11-24T18:10:32Z</time>
      </trkpt>
      <trkpt lat="43.548037" lon="-5.901516">
        <ele>14.4</ele>
        <time>2019-11-24T18:10:33Z</time>
      </trkpt>
      <trkpt lat="43.547994" lon="-5.901559">
        <ele>14.6</ele>
        <time>2019-11-24T18:10:34Z</time>
      </trkpt>
      <trkpt lat="43.547947" lon="-5.901593">
        <ele>14.6</ele>
        <time>2019-11-24T18:10:35Z</time>
      </trkpt>
      <trkpt lat="43.547899" lon="-5.901624">
        <ele>14.4</ele>
        <time>2019-11-24T18:10:36Z</time>
      </trkpt>
      <trkpt lat="43.547853" lon="-5.901649">
        <ele>14.8</ele>
        <time>2019-11-24T18:10:37Z</time>
      </trkpt>
      <trkpt lat="43.547806" lon="-5.901671">
        <ele>15.4</ele>
        <time>2019-11-24T18:10:38Z</time>
      </trkpt>
      <trkpt lat="43.54776" lon="-5.901689">
        <ele>15.8</ele>
        <time>2019-11-24T18:10:39Z</time>
      </trkpt>
      <trkpt lat="43.547713" lon="-5.901703">
        <ele>16</ele>
        <time>2019-11-24T18:10:40Z</time>
      </trkpt>
      <trkpt lat="43.547667" lon="-5.901716">
        <ele>16.4</ele>
        <time>2019-11-24T18:10:41Z</time>
      </trkpt>
      <trkpt lat="43.547623" lon="-5.901728">
        <ele>16.6</ele>
        <time>2019-11-24T18:10:42Z</time>
      </trkpt>
      <trkpt lat="43.547578" lon="-5.901738">
        <ele>17</ele>
        <time>2019-11-24T18:10:43Z</time>
      </trkpt>
      <trkpt lat="43.547535" lon="-5.901749">
        <ele>17.2</ele>
        <time>2019-11-24T18:10:44Z</time>
      </trkpt>
      <trkpt lat="43.547493" lon="-5.901761">
        <ele>17.6</ele>
        <time>2019-11-24T18:10:45Z</time>
      </trkpt>
      <trkpt lat="43.547451" lon="-5.901772">
        <ele>17.8</ele>
        <time>2019-11-24T18:10:46Z</time>
      </trkpt>
      <trkpt lat="43.547409" lon="-5.901783">
        <ele>17.8</ele>
        <time>2019-11-24T18:10:47Z</time>
      </trkpt>
      <trkpt lat="43.547367" lon="-5.901794">
        <ele>18</ele>
        <time>2019-11-24T18:10:48Z</time>
      </trkpt>
      <trkpt lat="43.547326" lon="-5.901806">
        <ele>18.6</ele>
        <time>2019-11-24T18:10:49Z</time>
      </trkpt>
      <trkpt lat="43.547292" lon="-5.901819">
        <ele>19</ele>
        <time>2019-11-24T18:10:50Z</time>
      </trkpt>
      <trkpt lat="43.547266" lon="-5.901829">
        <ele>19.2</ele>
        <time>2019-11-24T18:10:51Z</time>
      </trkpt>
      <trkpt lat="43.547249" lon="-5.901836">
        <ele>19.4</ele>
        <time>2019-11-24T18:10:52Z</time>
      </trkpt>
      <trkpt lat="43.54724" lon="-5.901839">
        <ele>19.6</ele>
        <time>2019-11-24T18:10:53Z</time>
      </trkpt>
      <trkpt lat="43.547238" lon="-5.901839">
        <ele>19.4</ele>
        <time>2019-11-24T18:10:54Z</time>
      </trkpt>
      <trkpt lat="43.547239" lon="-5.901839">
        <ele>19.4</ele>
        <time>2019-11-24T18:10:55Z</time>
      </trkpt>
      <trkpt lat="43.547219" lon="-5.901861">
        <ele>19.6</ele>
        <time>2019-11-24T18:11:10Z</time>
      </trkpt>
      <trkpt lat="43.547201" lon="-5.901875">
        <ele>19.4</ele>
        <time>2019-11-24T18:11:11Z</time>
      </trkpt>
      <trkpt lat="43.547177" lon="-5.90189">
        <ele>19.2</ele>
        <time>2019-11-24T18:11:12Z</time>
      </trkpt>
      <trkpt lat="43.547148" lon="-5.901905">
        <ele>19.2</ele>
        <time>2019-11-24T18:11:13Z</time>
      </trkpt>
      <trkpt lat="43.547115" lon="-5.901923">
        <ele>19.6</ele>
        <time>2019-11-24T18:11:14Z</time>
      </trkpt>
      <trkpt lat="43.547078" lon="-5.901943">
        <ele>19.2</ele>
        <time>2019-11-24T18:11:15Z</time>
      </trkpt>
      <trkpt lat="43.547039" lon="-5.901958">
        <ele>19.2</ele>
        <time>2019-11-24T18:11:16Z</time>
      </trkpt>
      <trkpt lat="43.547002" lon="-5.901961">
        <ele>19.2</ele>
        <time>2019-11-24T18:11:17Z</time>
      </trkpt>
      <trkpt lat="43.546965" lon="-5.901949">
        <ele>18.6</ele>
        <time>2019-11-24T18:11:18Z</time>
      </trkpt>
      <trkpt lat="43.546927" lon="-5.901926">
        <ele>18.2</ele>
        <time>2019-11-24T18:11:19Z</time>
      </trkpt>
      <trkpt lat="43.546886" lon="-5.901898">
        <ele>17.6</ele>
        <time>2019-11-24T18:11:20Z</time>
      </trkpt>
      <trkpt lat="43.546844" lon="-5.901864">
        <ele>17</ele>
        <time>2019-11-24T18:11:21Z</time>
      </trkpt>
      <trkpt lat="43.5468" lon="-5.901826">
        <ele>17.4</ele>
        <time>2019-11-24T18:11:22Z</time>
      </trkpt>
      <trkpt lat="43.546753" lon="-5.901784">
        <ele>17.2</ele>
        <time>2019-11-24T18:11:23Z</time>
      </trkpt>
      <trkpt lat="43.546705" lon="-5.90174">
        <ele>17.2</ele>
        <time>2019-11-24T18:11:24Z</time>
      </trkpt>
      <trkpt lat="43.546655" lon="-5.901694">
        <ele>16.4</ele>
        <time>2019-11-24T18:11:25Z</time>
      </trkpt>
      <trkpt lat="43.546606" lon="-5.901647">
        <ele>16</ele>
        <time>2019-11-24T18:11:26Z</time>
      </trkpt>
      <trkpt lat="43.546554" lon="-5.901598">
        <ele>15.4</ele>
        <time>2019-11-24T18:11:27Z</time>
      </trkpt>
      <trkpt lat="43.546501" lon="-5.901546">
        <ele>15.4</ele>
        <time>2019-11-24T18:11:28Z</time>
      </trkpt>
      <trkpt lat="43.546445" lon="-5.901492">
        <ele>15.4</ele>
        <time>2019-11-24T18:11:29Z</time>
      </trkpt>
      <trkpt lat="43.546386" lon="-5.901436">
        <ele>15</ele>
        <time>2019-11-24T18:11:30Z</time>
      </trkpt>
      <trkpt lat="43.546325" lon="-5.901378">
        <ele>14.6</ele>
        <time>2019-11-24T18:11:31Z</time>
      </trkpt>
      <trkpt lat="43.546262" lon="-5.901317">
        <ele>14.6</ele>
        <time>2019-11-24T18:11:32Z</time>
      </trkpt>
      <trkpt lat="43.546199" lon="-5.901258">
        <ele>14.4</ele>
        <time>2019-11-24T18:11:33Z</time>
      </trkpt>
      <trkpt lat="43.546137" lon="-5.901201">
        <ele>14.6</ele>
        <time>2019-11-24T18:11:34Z</time>
      </trkpt>
      <trkpt lat="43.546075" lon="-5.901143">
        <ele>14.4</ele>
        <time>2019-11-24T18:11:35Z</time>
      </trkpt>
      <trkpt lat="43.546015" lon="-5.901087">
        <ele>15</ele>
        <time>2019-11-24T18:11:36Z</time>
      </trkpt>
      <trkpt lat="43.545956" lon="-5.901034">
        <ele>15.2</ele>
        <time>2019-11-24T18:11:37Z</time>
      </trkpt>
      <trkpt lat="43.545898" lon="-5.900983">
        <ele>15.2</ele>
        <time>2019-11-24T18:11:38Z</time>
      </trkpt>
      <trkpt lat="43.545841" lon="-5.900935">
        <ele>15.2</ele>
        <time>2019-11-24T18:11:39Z</time>
      </trkpt>
      <trkpt lat="43.545784" lon="-5.900894">
        <ele>15.4</ele>
        <time>2019-11-24T18:11:40Z</time>
      </trkpt>
      <trkpt lat="43.545725" lon="-5.900859">
        <ele>15.4</ele>
        <time>2019-11-24T18:11:41Z</time>
      </trkpt>
      <trkpt lat="43.545664" lon="-5.900831">
        <ele>15.4</ele>
        <time>2019-11-24T18:11:42Z</time>
      </trkpt>
      <trkpt lat="43.545606" lon="-5.90081">
        <ele>15.6</ele>
        <time>2019-11-24T18:11:43Z</time>
      </trkpt>
      <trkpt lat="43.54555" lon="-5.900799">
        <ele>16.2</ele>
        <time>2019-11-24T18:11:44Z</time>
      </trkpt>
      <trkpt lat="43.545496" lon="-5.900791">
        <ele>16.6</ele>
        <time>2019-11-24T18:11:45Z</time>
      </trkpt>
      <trkpt lat="43.545441" lon="-5.900786">
        <ele>17</ele>
        <time>2019-11-24T18:11:46Z</time>
      </trkpt>
      <trkpt lat="43.545386" lon="-5.900787">
        <ele>17.2</ele>
        <time>2019-11-24T18:11:47Z</time>
      </trkpt>
      <trkpt lat="43.545328" lon="-5.900787">
        <ele>17</ele>
        <time>2019-11-24T18:11:48Z</time>
      </trkpt>
      <trkpt lat="43.545271" lon="-5.900783">
        <ele>17.2</ele>
        <time>2019-11-24T18:11:49Z</time>
      </trkpt>
      <trkpt lat="43.545213" lon="-5.900782">
        <ele>17.8</ele>
        <time>2019-11-24T18:11:50Z</time>
      </trkpt>
      <trkpt lat="43.545155" lon="-5.900781">
        <ele>17.8</ele>
        <time>2019-11-24T18:11:51Z</time>
      </trkpt>
      <trkpt lat="43.545098" lon="-5.90078">
        <ele>18.2</ele>
        <time>2019-11-24T18:11:52Z</time>
      </trkpt>
      <trkpt lat="43.545045" lon="-5.900774">
        <ele>18</ele>
        <time>2019-11-24T18:11:53Z</time>
      </trkpt>
      <trkpt lat="43.544993" lon="-5.900769">
        <ele>18.6</ele>
        <time>2019-11-24T18:11:54Z</time>
      </trkpt>
      <trkpt lat="43.544937" lon="-5.90077">
        <ele>18.8</ele>
        <time>2019-11-24T18:11:55Z</time>
      </trkpt>
      <trkpt lat="43.54488" lon="-5.900774">
        <ele>19</ele>
        <time>2019-11-24T18:11:56Z</time>
      </trkpt>
      <trkpt lat="43.544825" lon="-5.900772">
        <ele>19.2</ele>
        <time>2019-11-24T18:11:57Z</time>
      </trkpt>
      <trkpt lat="43.544771" lon="-5.900767">
        <ele>19.6</ele>
        <time>2019-11-24T18:11:58Z</time>
      </trkpt>
      <trkpt lat="43.544714" lon="-5.900765">
        <ele>20</ele>
        <time>2019-11-24T18:11:59Z</time>
      </trkpt>
      <trkpt lat="43.544656" lon="-5.900762">
        <ele>19.8</ele>
        <time>2019-11-24T18:12:00Z</time>
      </trkpt>
      <trkpt lat="43.5446" lon="-5.900757">
        <ele>19.8</ele>
        <time>2019-11-24T18:12:01Z</time>
      </trkpt>
      <trkpt lat="43.544542" lon="-5.900754">
        <ele>20.4</ele>
        <time>2019-11-24T18:12:02Z</time>
      </trkpt>
      <trkpt lat="43.544484" lon="-5.900753">
        <ele>20.4</ele>
        <time>2019-11-24T18:12:03Z</time>
      </trkpt>
      <trkpt lat="43.544428" lon="-5.90075">
        <ele>21</ele>
        <time>2019-11-24T18:12:04Z</time>
      </trkpt>
      <trkpt lat="43.544372" lon="-5.90075">
        <ele>21.2</ele>
        <time>2019-11-24T18:12:05Z</time>
      </trkpt>
      <trkpt lat="43.544315" lon="-5.90075">
        <ele>21.6</ele>
        <time>2019-11-24T18:12:06Z</time>
      </trkpt>
      <trkpt lat="43.54426" lon="-5.900752">
        <ele>21.4</ele>
        <time>2019-11-24T18:12:07Z</time>
      </trkpt>
      <trkpt lat="43.544204" lon="-5.900752">
        <ele>21.8</ele>
        <time>2019-11-24T18:12:08Z</time>
      </trkpt>
      <trkpt lat="43.544148" lon="-5.900751">
        <ele>22</ele>
        <time>2019-11-24T18:12:09Z</time>
      </trkpt>
      <trkpt lat="43.544092" lon="-5.900749">
        <ele>22.4</ele>
        <time>2019-11-24T18:12:10Z</time>
      </trkpt>
      <trkpt lat="43.544036" lon="-5.900747">
        <ele>22</ele>
        <time>2019-11-24T18:12:11Z</time>
      </trkpt>
      <trkpt lat="43.543979" lon="-5.900743">
        <ele>22</ele>
        <time>2019-11-24T18:12:12Z</time>
      </trkpt>
      <trkpt lat="43.543922" lon="-5.90074">
        <ele>22.2</ele>
        <time>2019-11-24T18:12:13Z</time>
      </trkpt>
      <trkpt lat="43.543865" lon="-5.900738">
        <ele>22</ele>
        <time>2019-11-24T18:12:14Z</time>
      </trkpt>
      <trkpt lat="43.543806" lon="-5.900735">
        <ele>22</ele>
        <time>2019-11-24T18:12:15Z</time>
      </trkpt>
      <trkpt lat="43.543748" lon="-5.900734">
        <ele>21.8</ele>
        <time>2019-11-24T18:12:16Z</time>
      </trkpt>
      <trkpt lat="43.54363" lon="-5.900733">
        <ele>21.8</ele>
        <time>2019-11-24T18:12:17Z</time>
      </trkpt>
      <trkpt lat="43.5436" lon="-5.900732">
        <ele>21.6</ele>
        <time>2019-11-24T18:12:18Z</time>
      </trkpt>
      <trkpt lat="43.54357" lon="-5.900732">
        <ele>21.4</ele>
        <time>2019-11-24T18:12:19Z</time>
      </trkpt>
      <trkpt lat="43.54351" lon="-5.900732">
        <ele>21.4</ele>
        <time>2019-11-24T18:12:20Z</time>
      </trkpt>
      <trkpt lat="43.54345" lon="-5.900731">
        <ele>21.2</ele>
        <time>2019-11-24T18:12:21Z</time>
      </trkpt>
      <trkpt lat="43.543326" lon="-5.90073">
        <ele>21.8</ele>
        <time>2019-11-24T18:12:22Z</time>
      </trkpt>
      <trkpt lat="43.543295" lon="-5.900729">
        <ele>22.2</ele>
        <time>2019-11-24T18:12:23Z</time>
      </trkpt>
      <trkpt lat="43.543264" lon="-5.900728">
        <ele>21.6</ele>
        <time>2019-11-24T18:12:24Z</time>
      </trkpt>
      <trkpt lat="43.54314" lon="-5.900726">
        <ele>21.4</ele>
        <time>2019-11-24T18:12:25Z</time>
      </trkpt>
      <trkpt lat="43.543079" lon="-5.900726">
        <ele>21.4</ele>
        <time>2019-11-24T18:12:26Z</time>
      </trkpt>
      <trkpt lat="43.543018" lon="-5.900726">
        <ele>21.2</ele>
        <time>2019-11-24T18:12:27Z</time>
      </trkpt>
      <trkpt lat="43.54299" lon="-5.900728">
        <ele>21.2</ele>
        <time>2019-11-24T18:12:28Z</time>
      </trkpt>
      <trkpt lat="43.542962" lon="-5.900729">
        <ele>21.4</ele>
        <time>2019-11-24T18:12:29Z</time>
      </trkpt>
      <trkpt lat="43.542901" lon="-5.900719">
        <ele>21.2</ele>
        <time>2019-11-24T18:12:30Z</time>
      </trkpt>
      <trkpt lat="43.542841" lon="-5.900702">
        <ele>21.6</ele>
        <time>2019-11-24T18:12:31Z</time>
      </trkpt>
      <trkpt lat="43.542784" lon="-5.900672">
        <ele>21.6</ele>
        <time>2019-11-24T18:12:32Z</time>
      </trkpt>
      <trkpt lat="43.542732" lon="-5.900627">
        <ele>21.6</ele>
        <time>2019-11-24T18:12:33Z</time>
      </trkpt>
      <trkpt lat="43.542689" lon="-5.900568">
        <ele>21.4</ele>
        <time>2019-11-24T18:12:34Z</time>
      </trkpt>
      <trkpt lat="43.542653" lon="-5.900504">
        <ele>21.2</ele>
        <time>2019-11-24T18:12:35Z</time>
      </trkpt>
      <trkpt lat="43.542618" lon="-5.900441">
        <ele>21</ele>
        <time>2019-11-24T18:12:36Z</time>
      </trkpt>
      <trkpt lat="43.542575" lon="-5.900383">
        <ele>21.2</ele>
        <time>2019-11-24T18:12:37Z</time>
      </trkpt>
      <trkpt lat="43.542528" lon="-5.900358">
        <ele>21</ele>
        <time>2019-11-24T18:12:38Z</time>
      </trkpt>
      <trkpt lat="43.542475" lon="-5.900366">
        <ele>21.2</ele>
        <time>2019-11-24T18:12:39Z</time>
      </trkpt>
      <trkpt lat="43.542425" lon="-5.900394">
        <ele>21.2</ele>
        <time>2019-11-24T18:12:40Z</time>
      </trkpt>
      <trkpt lat="43.542379" lon="-5.900437">
        <ele>21.2</ele>
        <time>2019-11-24T18:12:41Z</time>
      </trkpt>
      <trkpt lat="43.542335" lon="-5.900487">
        <ele>21</ele>
        <time>2019-11-24T18:12:42Z</time>
      </trkpt>
      <trkpt lat="43.54229" lon="-5.900534">
        <ele>20.6</ele>
        <time>2019-11-24T18:12:43Z</time>
      </trkpt>
      <trkpt lat="43.542202" lon="-5.900618">
        <ele>21</ele>
        <time>2019-11-24T18:12:44Z</time>
      </trkpt>
      <trkpt lat="43.542157" lon="-5.900653">
        <ele>21.4</ele>
        <time>2019-11-24T18:12:45Z</time>
      </trkpt>
      <trkpt lat="43.54211" lon="-5.900685">
        <ele>22.4</ele>
        <time>2019-11-24T18:12:46Z</time>
      </trkpt>
      <trkpt lat="43.542066" lon="-5.900718">
        <ele>22</ele>
        <time>2019-11-24T18:12:47Z</time>
      </trkpt>
      <trkpt lat="43.542042" lon="-5.900733">
        <ele>22.4</ele>
        <time>2019-11-24T18:12:48Z</time>
      </trkpt>
      <trkpt lat="43.542018" lon="-5.900748">
        <ele>22.4</ele>
        <time>2019-11-24T18:12:49Z</time>
      </trkpt>
      <trkpt lat="43.541949" lon="-5.900796">
        <ele>22.6</ele>
        <time>2019-11-24T18:12:50Z</time>
      </trkpt>
      <trkpt lat="43.541927" lon="-5.900814">
        <ele>23.4</ele>
        <time>2019-11-24T18:12:51Z</time>
      </trkpt>
      <trkpt lat="43.541855" lon="-5.900898">
        <ele>24.2</ele>
        <time>2019-11-24T18:12:52Z</time>
      </trkpt>
      <trkpt lat="43.541822" lon="-5.900941">
        <ele>24.6</ele>
        <time>2019-11-24T18:12:53Z</time>
      </trkpt>
      <trkpt lat="43.541805" lon="-5.900962">
        <ele>23.8</ele>
        <time>2019-11-24T18:12:54Z</time>
      </trkpt>
      <trkpt lat="43.541788" lon="-5.900982">
        <ele>24.2</ele>
        <time>2019-11-24T18:12:55Z</time>
      </trkpt>
      <trkpt lat="43.541731" lon="-5.901079">
        <ele>24.4</ele>
        <time>2019-11-24T18:12:56Z</time>
      </trkpt>
      <trkpt lat="43.54172" lon="-5.901105">
        <ele>24.6</ele>
        <time>2019-11-24T18:12:57Z</time>
      </trkpt>
      <trkpt lat="43.541709" lon="-5.901131">
        <ele>25</ele>
        <time>2019-11-24T18:12:58Z</time>
      </trkpt>
      <trkpt lat="43.54168" lon="-5.901246">
        <ele>25</ele>
        <time>2019-11-24T18:12:59Z</time>
      </trkpt>
      <trkpt lat="43.541678" lon="-5.901307">
        <ele>25.6</ele>
        <time>2019-11-24T18:13:00Z</time>
      </trkpt>
      <trkpt lat="43.541675" lon="-5.901368">
        <ele>25.6</ele>
        <time>2019-11-24T18:13:01Z</time>
      </trkpt>
      <trkpt lat="43.541676" lon="-5.901397">
        <ele>26</ele>
        <time>2019-11-24T18:13:02Z</time>
      </trkpt>
      <trkpt lat="43.541677" lon="-5.901426">
        <ele>26.4</ele>
        <time>2019-11-24T18:13:03Z</time>
      </trkpt>
      <trkpt lat="43.541688" lon="-5.901548">
        <ele>26.4</ele>
        <time>2019-11-24T18:13:04Z</time>
      </trkpt>
      <trkpt lat="43.541693" lon="-5.901577">
        <ele>26.2</ele>
        <time>2019-11-24T18:13:05Z</time>
      </trkpt>
      <trkpt lat="43.541698" lon="-5.901607">
        <ele>26.8</ele>
        <time>2019-11-24T18:13:06Z</time>
      </trkpt>
      <trkpt lat="43.541711" lon="-5.901662">
        <ele>27</ele>
        <time>2019-11-24T18:13:07Z</time>
      </trkpt>
      <trkpt lat="43.54173" lon="-5.901715">
        <ele>27</ele>
        <time>2019-11-24T18:13:08Z</time>
      </trkpt>
      <trkpt lat="43.541753" lon="-5.90176">
        <ele>27</ele>
        <time>2019-11-24T18:13:09Z</time>
      </trkpt>
      <trkpt lat="43.541779" lon="-5.901803">
        <ele>27.4</ele>
        <time>2019-11-24T18:13:10Z</time>
      </trkpt>
      <trkpt lat="43.541849" lon="-5.901857">
        <ele>27.4</ele>
        <time>2019-11-24T18:13:11Z</time>
      </trkpt>
      <trkpt lat="43.541866" lon="-5.901872">
        <ele>27.6</ele>
        <time>2019-11-24T18:13:12Z</time>
      </trkpt>
      <trkpt lat="43.541882" lon="-5.901887">
        <ele>27</ele>
        <time>2019-11-24T18:13:13Z</time>
      </trkpt>
      <trkpt lat="43.541908" lon="-5.901926">
        <ele>28.4</ele>
        <time>2019-11-24T18:13:14Z</time>
      </trkpt>
      <trkpt lat="43.541925" lon="-5.901976">
        <ele>27.6</ele>
        <time>2019-11-24T18:13:15Z</time>
      </trkpt>
      <trkpt lat="43.541925" lon="-5.902034">
        <ele>27.8</ele>
        <time>2019-11-24T18:13:16Z</time>
      </trkpt>
      <trkpt lat="43.541905" lon="-5.902089">
        <ele>27.4</ele>
        <time>2019-11-24T18:13:17Z</time>
      </trkpt>
      <trkpt lat="43.541872" lon="-5.90213">
        <ele>27.4</ele>
        <time>2019-11-24T18:13:18Z</time>
      </trkpt>
      <trkpt lat="43.541783" lon="-5.902161">
        <ele>27.6</ele>
        <time>2019-11-24T18:13:19Z</time>
      </trkpt>
      <trkpt lat="43.541734" lon="-5.902166">
        <ele>27.4</ele>
        <time>2019-11-24T18:13:20Z</time>
      </trkpt>
      <trkpt lat="43.541682" lon="-5.902175">
        <ele>27.6</ele>
        <time>2019-11-24T18:13:21Z</time>
      </trkpt>
      <trkpt lat="43.541627" lon="-5.902188">
        <ele>27.6</ele>
        <time>2019-11-24T18:13:22Z</time>
      </trkpt>
      <trkpt lat="43.541571" lon="-5.902203">
        <ele>27.6</ele>
        <time>2019-11-24T18:13:23Z</time>
      </trkpt>
      <trkpt lat="43.541518" lon="-5.902222">
        <ele>27.8</ele>
        <time>2019-11-24T18:13:24Z</time>
      </trkpt>
      <trkpt lat="43.541464" lon="-5.902241">
        <ele>27.6</ele>
        <time>2019-11-24T18:13:25Z</time>
      </trkpt>
      <trkpt lat="43.541412" lon="-5.902261">
        <ele>27.8</ele>
        <time>2019-11-24T18:13:26Z</time>
      </trkpt>
      <trkpt lat="43.541373" lon="-5.90228">
        <ele>27.8</ele>
        <time>2019-11-24T18:13:27Z</time>
      </trkpt>
      <trkpt lat="43.541334" lon="-5.902298">
        <ele>27.8</ele>
        <time>2019-11-24T18:13:28Z</time>
      </trkpt>
      <trkpt lat="43.541256" lon="-5.902334">
        <ele>28</ele>
        <time>2019-11-24T18:13:29Z</time>
      </trkpt>
      <trkpt lat="43.541203" lon="-5.902356">
        <ele>28</ele>
        <time>2019-11-24T18:13:30Z</time>
      </trkpt>
      <trkpt lat="43.54115" lon="-5.902379">
        <ele>28</ele>
        <time>2019-11-24T18:13:31Z</time>
      </trkpt>
      <trkpt lat="43.541097" lon="-5.902401">
        <ele>28</ele>
        <time>2019-11-24T18:13:32Z</time>
      </trkpt>
      <trkpt lat="43.541044" lon="-5.902421">
        <ele>28.4</ele>
        <time>2019-11-24T18:13:33Z</time>
      </trkpt>
      <trkpt lat="43.540991" lon="-5.902441">
        <ele>28</ele>
        <time>2019-11-24T18:13:34Z</time>
      </trkpt>
      <trkpt lat="43.540939" lon="-5.902459">
        <ele>28.2</ele>
        <time>2019-11-24T18:13:35Z</time>
      </trkpt>
      <trkpt lat="43.540888" lon="-5.902476">
        <ele>28.4</ele>
        <time>2019-11-24T18:13:36Z</time>
      </trkpt>
      <trkpt lat="43.540837" lon="-5.902499">
        <ele>28.2</ele>
        <time>2019-11-24T18:13:37Z</time>
      </trkpt>
      <trkpt lat="43.540814" lon="-5.902515">
        <ele>28.2</ele>
        <time>2019-11-24T18:13:38Z</time>
      </trkpt>
      <trkpt lat="43.54079" lon="-5.90253">
        <ele>28.4</ele>
        <time>2019-11-24T18:13:39Z</time>
      </trkpt>
      <trkpt lat="43.540746" lon="-5.902569">
        <ele>28.8</ele>
        <time>2019-11-24T18:13:40Z</time>
      </trkpt>
      <trkpt lat="43.540676" lon="-5.902667">
        <ele>28.8</ele>
        <time>2019-11-24T18:13:41Z</time>
      </trkpt>
      <trkpt lat="43.540644" lon="-5.902718">
        <ele>29.2</ele>
        <time>2019-11-24T18:13:42Z</time>
      </trkpt>
      <trkpt lat="43.540628" lon="-5.902741">
        <ele>29.4</ele>
        <time>2019-11-24T18:13:43Z</time>
      </trkpt>
      <trkpt lat="43.540611" lon="-5.902764">
        <ele>29.4</ele>
        <time>2019-11-24T18:13:44Z</time>
      </trkpt>
      <trkpt lat="43.540574" lon="-5.902794">
        <ele>29.8</ele>
        <time>2019-11-24T18:13:45Z</time>
      </trkpt>
      <trkpt lat="43.540534" lon="-5.902806">
        <ele>29.6</ele>
        <time>2019-11-24T18:13:46Z</time>
      </trkpt>
      <trkpt lat="43.540494" lon="-5.902805">
        <ele>29.2</ele>
        <time>2019-11-24T18:13:47Z</time>
      </trkpt>
      <trkpt lat="43.540405" lon="-5.902779">
        <ele>29</ele>
        <time>2019-11-24T18:13:48Z</time>
      </trkpt>
      <trkpt lat="43.540358" lon="-5.902762">
        <ele>29</ele>
        <time>2019-11-24T18:13:49Z</time>
      </trkpt>
      <trkpt lat="43.54031" lon="-5.902748">
        <ele>29</ele>
        <time>2019-11-24T18:13:50Z</time>
      </trkpt>
      <trkpt lat="43.540262" lon="-5.902733">
        <ele>28.8</ele>
        <time>2019-11-24T18:13:51Z</time>
      </trkpt>
      <trkpt lat="43.540214" lon="-5.90272">
        <ele>28.6</ele>
        <time>2019-11-24T18:13:52Z</time>
      </trkpt>
      <trkpt lat="43.540168" lon="-5.902707">
        <ele>28.4</ele>
        <time>2019-11-24T18:13:53Z</time>
      </trkpt>
      <trkpt lat="43.540124" lon="-5.902695">
        <ele>28.4</ele>
        <time>2019-11-24T18:13:54Z</time>
      </trkpt>
      <trkpt lat="43.54008" lon="-5.902683">
        <ele>28.2</ele>
        <time>2019-11-24T18:13:55Z</time>
      </trkpt>
      <trkpt lat="43.54008" lon="-5.902683">
        <ele>28.2</ele>
        <time>2019-11-24T18:13:56Z</time>
      </trkpt>
      <trkpt lat="43.540045" lon="-5.902672">
        <ele>28.6</ele>
        <time>2019-11-24T18:13:57Z</time>
      </trkpt>
      <trkpt lat="43.540011" lon="-5.902674">
        <ele>28.6</ele>
        <time>2019-11-24T18:13:58Z</time>
      </trkpt>
      <trkpt lat="43.539983" lon="-5.902699">
        <ele>29</ele>
        <time>2019-11-24T18:13:59Z</time>
      </trkpt>
      <trkpt lat="43.53996" lon="-5.902733">
        <ele>29</ele>
        <time>2019-11-24T18:14:00Z</time>
      </trkpt>
      <trkpt lat="43.539921" lon="-5.902824">
        <ele>29.2</ele>
        <time>2019-11-24T18:14:01Z</time>
      </trkpt>
      <trkpt lat="43.539897" lon="-5.902876">
        <ele>29.2</ele>
        <time>2019-11-24T18:14:02Z</time>
      </trkpt>
      <trkpt lat="43.539873" lon="-5.902927">
        <ele>29.4</ele>
        <time>2019-11-24T18:14:03Z</time>
      </trkpt>
      <trkpt lat="43.539849" lon="-5.90298">
        <ele>29.8</ele>
        <time>2019-11-24T18:14:04Z</time>
      </trkpt>
      <trkpt lat="43.539824" lon="-5.903038">
        <ele>30</ele>
        <time>2019-11-24T18:14:05Z</time>
      </trkpt>
      <trkpt lat="43.539799" lon="-5.903095">
        <ele>30</ele>
        <time>2019-11-24T18:14:06Z</time>
      </trkpt>
      <trkpt lat="43.539777" lon="-5.903155">
        <ele>30.2</ele>
        <time>2019-11-24T18:14:07Z</time>
      </trkpt>
      <trkpt lat="43.539754" lon="-5.903214">
        <ele>30.2</ele>
        <time>2019-11-24T18:14:08Z</time>
      </trkpt>
      <trkpt lat="43.539739" lon="-5.903243">
        <ele>30.6</ele>
        <time>2019-11-24T18:14:09Z</time>
      </trkpt>
      <trkpt lat="43.539723" lon="-5.903271">
        <ele>30.8</ele>
        <time>2019-11-24T18:14:10Z</time>
      </trkpt>
      <trkpt lat="43.539693" lon="-5.903337">
        <ele>30.8</ele>
        <time>2019-11-24T18:14:11Z</time>
      </trkpt>
      <trkpt lat="43.539665" lon="-5.903413">
        <ele>31</ele>
        <time>2019-11-24T18:14:12Z</time>
      </trkpt>
      <trkpt lat="43.539641" lon="-5.903488">
        <ele>31.2</ele>
        <time>2019-11-24T18:14:13Z</time>
      </trkpt>
      <trkpt lat="43.53962" lon="-5.903564">
        <ele>31.8</ele>
        <time>2019-11-24T18:14:14Z</time>
      </trkpt>
      <trkpt lat="43.539598" lon="-5.90364">
        <ele>32.2</ele>
        <time>2019-11-24T18:14:15Z</time>
      </trkpt>
      <trkpt lat="43.539534" lon="-5.903773">
        <ele>32</ele>
        <time>2019-11-24T18:14:16Z</time>
      </trkpt>
      <trkpt lat="43.539497" lon="-5.903832">
        <ele>31.8</ele>
        <time>2019-11-24T18:14:17Z</time>
      </trkpt>
      <trkpt lat="43.539458" lon="-5.903891">
        <ele>32.4</ele>
        <time>2019-11-24T18:14:18Z</time>
      </trkpt>
      <trkpt lat="43.539439" lon="-5.903917">
        <ele>32</ele>
        <time>2019-11-24T18:14:19Z</time>
      </trkpt>
      <trkpt lat="43.539419" lon="-5.903943">
        <ele>31.4</ele>
        <time>2019-11-24T18:14:20Z</time>
      </trkpt>
      <trkpt lat="43.539342" lon="-5.904059">
        <ele>32.6</ele>
        <time>2019-11-24T18:14:21Z</time>
      </trkpt>
      <trkpt lat="43.539304" lon="-5.904113">
        <ele>32.8</ele>
        <time>2019-11-24T18:14:22Z</time>
      </trkpt>
      <trkpt lat="43.53927" lon="-5.904163">
        <ele>33</ele>
        <time>2019-11-24T18:14:23Z</time>
      </trkpt>
      <trkpt lat="43.539236" lon="-5.904212">
        <ele>33.2</ele>
        <time>2019-11-24T18:14:24Z</time>
      </trkpt>
      <trkpt lat="43.539219" lon="-5.904235">
        <ele>33.4</ele>
        <time>2019-11-24T18:14:25Z</time>
      </trkpt>
      <trkpt lat="43.539201" lon="-5.904258">
        <ele>33</ele>
        <time>2019-11-24T18:14:26Z</time>
      </trkpt>
      <trkpt lat="43.539131" lon="-5.904325">
        <ele>34</ele>
        <time>2019-11-24T18:14:27Z</time>
      </trkpt>
      <trkpt lat="43.539094" lon="-5.904357">
        <ele>34</ele>
        <time>2019-11-24T18:14:28Z</time>
      </trkpt>
      <trkpt lat="43.539057" lon="-5.904388">
        <ele>34</ele>
        <time>2019-11-24T18:14:29Z</time>
      </trkpt>
      <trkpt lat="43.539017" lon="-5.904418">
        <ele>34</ele>
        <time>2019-11-24T18:14:30Z</time>
      </trkpt>
      <trkpt lat="43.538974" lon="-5.904447">
        <ele>34</ele>
        <time>2019-11-24T18:14:31Z</time>
      </trkpt>
      <trkpt lat="43.538932" lon="-5.904476">
        <ele>34.6</ele>
        <time>2019-11-24T18:14:32Z</time>
      </trkpt>
      <trkpt lat="43.538892" lon="-5.904505">
        <ele>34</ele>
        <time>2019-11-24T18:14:33Z</time>
      </trkpt>
      <trkpt lat="43.538852" lon="-5.904533">
        <ele>34.2</ele>
        <time>2019-11-24T18:14:34Z</time>
      </trkpt>
      <trkpt lat="43.538811" lon="-5.904563">
        <ele>34</ele>
        <time>2019-11-24T18:14:35Z</time>
      </trkpt>
      <trkpt lat="43.53877" lon="-5.904593">
        <ele>34</ele>
        <time>2019-11-24T18:14:36Z</time>
      </trkpt>
      <trkpt lat="43.538728" lon="-5.904625">
        <ele>34.2</ele>
        <time>2019-11-24T18:14:37Z</time>
      </trkpt>
      <trkpt lat="43.538686" lon="-5.904657">
        <ele>34.6</ele>
        <time>2019-11-24T18:14:38Z</time>
      </trkpt>
      <trkpt lat="43.538644" lon="-5.904686">
        <ele>34.6</ele>
        <time>2019-11-24T18:14:39Z</time>
      </trkpt>
      <trkpt lat="43.538602" lon="-5.904714">
        <ele>34.6</ele>
        <time>2019-11-24T18:14:40Z</time>
      </trkpt>
      <trkpt lat="43.538559" lon="-5.904743">
        <ele>34.2</ele>
        <time>2019-11-24T18:14:41Z</time>
      </trkpt>
      <trkpt lat="43.538516" lon="-5.90477">
        <ele>34.4</ele>
        <time>2019-11-24T18:14:42Z</time>
      </trkpt>
      <trkpt lat="43.538473" lon="-5.904795">
        <ele>34.8</ele>
        <time>2019-11-24T18:14:43Z</time>
      </trkpt>
      <trkpt lat="43.538429" lon="-5.904817">
        <ele>34.8</ele>
        <time>2019-11-24T18:14:44Z</time>
      </trkpt>
      <trkpt lat="43.538387" lon="-5.904841">
        <ele>34.6</ele>
        <time>2019-11-24T18:14:45Z</time>
      </trkpt>
      <trkpt lat="43.538345" lon="-5.904867">
        <ele>34.8</ele>
        <time>2019-11-24T18:14:46Z</time>
      </trkpt>
      <trkpt lat="43.538307" lon="-5.904883">
        <ele>35</ele>
        <time>2019-11-24T18:14:47Z</time>
      </trkpt>
      <trkpt lat="43.538269" lon="-5.904899">
        <ele>35.2</ele>
        <time>2019-11-24T18:14:48Z</time>
      </trkpt>
      <trkpt lat="43.53823" lon="-5.904912">
        <ele>35</ele>
        <time>2019-11-24T18:14:49Z</time>
      </trkpt>
      <trkpt lat="43.538196" lon="-5.904937">
        <ele>35</ele>
        <time>2019-11-24T18:14:50Z</time>
      </trkpt>
      <trkpt lat="43.538161" lon="-5.904962">
        <ele>35</ele>
        <time>2019-11-24T18:14:51Z</time>
      </trkpt>
      <trkpt lat="43.538136" lon="-5.904999">
        <ele>34.8</ele>
        <time>2019-11-24T18:14:52Z</time>
      </trkpt>
      <trkpt lat="43.53811" lon="-5.905036">
        <ele>34.6</ele>
        <time>2019-11-24T18:14:53Z</time>
      </trkpt>
      <trkpt lat="43.538095" lon="-5.905082">
        <ele>35.4</ele>
        <time>2019-11-24T18:14:54Z</time>
      </trkpt>
      <trkpt lat="43.53809" lon="-5.905107">
        <ele>35.6</ele>
        <time>2019-11-24T18:14:55Z</time>
      </trkpt>
      <trkpt lat="43.538084" lon="-5.905132">
        <ele>35.4</ele>
        <time>2019-11-24T18:14:56Z</time>
      </trkpt>
      <trkpt lat="43.538072" lon="-5.905227">
        <ele>35.8</ele>
        <time>2019-11-24T18:14:57Z</time>
      </trkpt>
      <trkpt lat="43.538072" lon="-5.905227">
        <ele>36.2</ele>
        <time>2019-11-24T18:14:58Z</time>
      </trkpt>
      <trkpt lat="43.538071" lon="-5.905276">
        <ele>36.2</ele>
        <time>2019-11-24T18:14:59Z</time>
      </trkpt>
      <trkpt lat="43.538072" lon="-5.90528">
        <ele>35.8</ele>
        <time>2019-11-24T18:15:00Z</time>
      </trkpt>
    </trkseg>
  </trk>
</gpx>
